<?xml version="1.0" encoding="UTF-8" standalone="no" ?>
<gpx xmlns="http://www.topografix.com/GPX/1/1" xmlns:xsi="http://www.w3.org/2001/XMLSchema-instance" xsi:schemaLocation="http://www.topografix.com/GPX/1/1 http://www.topografix.com/GPX/1/1/gpx.xsd" version="1.1" creator="VisuGPX - https://www.visugpx.com">
  <metadata>
    <name>Impossible n'est pas Français</name>
    <desc><![CDATA[Fusion des 7 traces de TOP cyclo Trièves ]]></desc>
  </metadata>
  <wpt lat="45.05506" lon="6.02986">
    <ele>725</ele>
    <name><![CDATA[TO - Bourg d'Oisans / La Mure]]></name>
  </wpt>
  <wpt lat="44.90652" lon="5.78493">
    <ele>884</ele>
    <name><![CDATA[TO - La Mure / St Etienne]]></name>
  </wpt>
  <wpt lat="44.69428" lon="5.94024">
    <ele>1283</ele>
    <name><![CDATA[TO - St Etienne / Mens]]></name>
  </wpt>
  <wpt lat="44.8169" lon="5.75047">
    <ele>778</ele>
    <name><![CDATA[TO - Mens / Gresse]]></name>
  </wpt>
  <wpt lat="44.90227" lon="5.56743">
    <ele>1198</ele>
    <name><![CDATA[TO - Mens / Chatillon]]></name>
  </wpt>
  <wpt lat="44.69447" lon="5.48558">
    <ele>576</ele>
    <name><![CDATA[TO - Chatillon / Mens]]></name>
  </wpt>
  <wpt lat="44.81688" lon="5.75041">
    <ele>777</ele>
    <name><![CDATA[TO - Mens / Bourg d'Ois]]></name>
  </wpt>
  <trk>
    <name><![CDATA[20180318122515-CcW2Z]]></name>
    <trkseg>
      <trkpt lat="45.05506" lon="6.02986">
        <ele>725</ele>
        <time>2017-12-15T18:32:29Z</time>
      </trkpt>
      <trkpt lat="45.05511" lon="6.02985">
        <ele>725</ele>
        <time>2017-12-15T18:32:41Z</time>
      </trkpt>
      <trkpt lat="45.05516" lon="6.02981">
        <ele>725</ele>
        <time>2017-12-15T18:32:48Z</time>
      </trkpt>
      <trkpt lat="45.05526" lon="6.02977">
        <ele>724</ele>
        <time>2017-12-15T18:33:05Z</time>
      </trkpt>
      <trkpt lat="45.05553" lon="6.0297">
        <ele>724</ele>
        <time>2017-12-15T18:33:15Z</time>
      </trkpt>
      <trkpt lat="45.05566" lon="6.02969">
        <ele>723</ele>
        <time>2017-12-15T18:33:32Z</time>
      </trkpt>
      <trkpt lat="45.05597" lon="6.02965">
        <ele>722</ele>
        <time>2017-12-15T18:33:42Z</time>
      </trkpt>
      <trkpt lat="45.05627" lon="6.02958">
        <ele>722</ele>
        <time>2017-12-15T18:33:45Z</time>
      </trkpt>
      <trkpt lat="45.05663" lon="6.02953">
        <ele>722</ele>
        <time>2017-12-15T18:34:00Z</time>
      </trkpt>
      <trkpt lat="45.05707" lon="6.02939">
        <ele>722</ele>
        <time>2017-12-15T18:34:02Z</time>
      </trkpt>
      <trkpt lat="45.05734" lon="6.02923">
        <ele>721</ele>
        <time>2017-12-15T18:34:22Z</time>
      </trkpt>
      <trkpt lat="45.0577" lon="6.02898">
        <ele>722</ele>
        <time>2017-12-15T18:34:41Z</time>
      </trkpt>
      <trkpt lat="45.0582" lon="6.02863">
        <ele>722</ele>
        <time>2017-12-15T18:34:51Z</time>
      </trkpt>
      <trkpt lat="45.05982" lon="6.02736">
        <ele>719</ele>
        <time>2017-12-15T18:34:53Z</time>
      </trkpt>
      <trkpt lat="45.06224" lon="6.02551">
        <ele>718</ele>
        <time>2017-12-15T18:35:00Z</time>
      </trkpt>
      <trkpt lat="45.06282" lon="6.02509">
        <ele>719</ele>
        <time>2017-12-15T18:35:18Z</time>
      </trkpt>
      <trkpt lat="45.06291" lon="6.02508">
        <ele>719</ele>
        <time>2017-12-15T18:35:24Z</time>
      </trkpt>
      <trkpt lat="45.06316" lon="6.02489">
        <ele>718</ele>
        <time>2017-12-15T18:35:43Z</time>
      </trkpt>
      <trkpt lat="45.06331" lon="6.02483">
        <ele>718</ele>
        <time>2017-12-15T18:36:03Z</time>
      </trkpt>
      <trkpt lat="45.06345" lon="6.02482">
        <ele>719</ele>
        <time>2017-12-15T18:36:09Z</time>
      </trkpt>
      <trkpt lat="45.06348" lon="6.02485">
        <ele>719</ele>
        <time>2017-12-15T18:36:24Z</time>
      </trkpt>
      <trkpt lat="45.06353" lon="6.02489">
        <ele>719</ele>
        <time>2017-12-15T18:36:41Z</time>
      </trkpt>
      <trkpt lat="45.0636" lon="6.02491">
        <ele>719</ele>
        <time>2017-12-15T18:36:43Z</time>
      </trkpt>
      <trkpt lat="45.06367" lon="6.02488">
        <ele>719</ele>
        <time>2017-12-15T18:36:49Z</time>
      </trkpt>
      <trkpt lat="45.06372" lon="6.02483">
        <ele>719</ele>
        <time>2017-12-15T18:37:08Z</time>
      </trkpt>
      <trkpt lat="45.06378" lon="6.02468">
        <ele>719</ele>
        <time>2017-12-15T18:37:23Z</time>
      </trkpt>
      <trkpt lat="45.06377" lon="6.02459">
        <ele>719</ele>
        <time>2017-12-15T18:37:40Z</time>
      </trkpt>
      <trkpt lat="45.06388" lon="6.0244">
        <ele>719</ele>
        <time>2017-12-15T18:37:53Z</time>
      </trkpt>
      <trkpt lat="45.06406" lon="6.02417">
        <ele>719</ele>
        <time>2017-12-15T18:38:09Z</time>
      </trkpt>
      <trkpt lat="45.06449" lon="6.02382">
        <ele>719</ele>
        <time>2017-12-15T18:38:19Z</time>
      </trkpt>
      <trkpt lat="45.06513" lon="6.02333">
        <ele>719</ele>
        <time>2017-12-15T18:38:21Z</time>
      </trkpt>
      <trkpt lat="45.06641" lon="6.02239">
        <ele>718</ele>
        <time>2017-12-15T18:38:30Z</time>
      </trkpt>
      <trkpt lat="45.06806" lon="6.02109">
        <ele>715</ele>
        <time>2017-12-15T18:38:50Z</time>
      </trkpt>
      <trkpt lat="45.06938" lon="6.02009">
        <ele>719</ele>
        <time>2017-12-15T18:38:58Z</time>
      </trkpt>
      <trkpt lat="45.07151" lon="6.01856">
        <ele>742</ele>
        <time>2017-12-15T18:39:18Z</time>
      </trkpt>
      <trkpt lat="45.07228" lon="6.01793">
        <ele>728</ele>
        <time>2017-12-15T18:39:37Z</time>
      </trkpt>
      <trkpt lat="45.07272" lon="6.01764">
        <ele>723</ele>
        <time>2017-12-15T18:39:57Z</time>
      </trkpt>
      <trkpt lat="45.07317" lon="6.01728">
        <ele>725</ele>
        <time>2017-12-15T18:40:17Z</time>
      </trkpt>
      <trkpt lat="45.07354" lon="6.01692">
        <ele>726</ele>
        <time>2017-12-15T18:40:28Z</time>
      </trkpt>
      <trkpt lat="45.07409" lon="6.0165">
        <ele>728</ele>
        <time>2017-12-15T18:40:38Z</time>
      </trkpt>
      <trkpt lat="45.07609" lon="6.01494">
        <ele>723</ele>
        <time>2017-12-15T18:40:51Z</time>
      </trkpt>
      <trkpt lat="45.07627" lon="6.01483">
        <ele>723</ele>
        <time>2017-12-15T18:40:57Z</time>
      </trkpt>
      <trkpt lat="45.07649" lon="6.01474">
        <ele>723</ele>
        <time>2017-12-15T18:41:08Z</time>
      </trkpt>
      <trkpt lat="45.0784" lon="6.01428">
        <ele>717</ele>
        <time>2017-12-15T18:41:18Z</time>
      </trkpt>
      <trkpt lat="45.08174" lon="6.01349">
        <ele>717</ele>
        <time>2017-12-15T18:41:37Z</time>
      </trkpt>
      <trkpt lat="45.08567" lon="6.01255">
        <ele>715</ele>
        <time>2017-12-15T18:41:39Z</time>
      </trkpt>
      <trkpt lat="45.08897" lon="6.01177">
        <ele>714</ele>
        <time>2017-12-15T18:41:47Z</time>
      </trkpt>
      <trkpt lat="45.08963" lon="6.01162">
        <ele>714</ele>
        <time>2017-12-15T18:42:06Z</time>
      </trkpt>
      <trkpt lat="45.0898" lon="6.01161">
        <ele>714</ele>
        <time>2017-12-15T18:42:11Z</time>
      </trkpt>
      <trkpt lat="45.09001" lon="6.01161">
        <ele>714</ele>
        <time>2017-12-15T18:42:29Z</time>
      </trkpt>
      <trkpt lat="45.09022" lon="6.01162">
        <ele>714</ele>
        <time>2017-12-15T18:42:33Z</time>
      </trkpt>
      <trkpt lat="45.09035" lon="6.01162">
        <ele>714</ele>
        <time>2017-12-15T18:42:52Z</time>
      </trkpt>
      <trkpt lat="45.09051" lon="6.01155">
        <ele>714</ele>
        <time>2017-12-15T18:43:07Z</time>
      </trkpt>
      <trkpt lat="45.09073" lon="6.0114">
        <ele>714</ele>
        <time>2017-12-15T18:43:09Z</time>
      </trkpt>
      <trkpt lat="45.09094" lon="6.0113">
        <ele>714</ele>
        <time>2017-12-15T18:43:15Z</time>
      </trkpt>
      <trkpt lat="45.09341" lon="6.01072">
        <ele>712</ele>
        <time>2017-12-15T18:43:17Z</time>
      </trkpt>
      <trkpt lat="45.09691" lon="6.0099">
        <ele>712</ele>
        <time>2017-12-15T18:43:19Z</time>
      </trkpt>
      <trkpt lat="45.09697" lon="6.00991">
        <ele>712</ele>
        <time>2017-12-15T18:43:34Z</time>
      </trkpt>
      <trkpt lat="45.0971" lon="6.00987">
        <ele>712</ele>
        <time>2017-12-15T18:43:52Z</time>
      </trkpt>
      <trkpt lat="45.09726" lon="6.0098">
        <ele>712</ele>
        <time>2017-12-15T18:44:08Z</time>
      </trkpt>
      <trkpt lat="45.09751" lon="6.00965">
        <ele>713</ele>
        <time>2017-12-15T18:44:12Z</time>
      </trkpt>
      <trkpt lat="45.09771" lon="6.00959">
        <ele>713</ele>
        <time>2017-12-15T18:44:20Z</time>
      </trkpt>
      <trkpt lat="45.09796" lon="6.00963">
        <ele>713</ele>
        <time>2017-12-15T18:44:22Z</time>
      </trkpt>
      <trkpt lat="45.09824" lon="6.00958">
        <ele>714</ele>
        <time>2017-12-15T18:44:38Z</time>
      </trkpt>
      <trkpt lat="45.09837" lon="6.00957">
        <ele>714</ele>
        <time>2017-12-15T18:44:41Z</time>
      </trkpt>
      <trkpt lat="45.0994" lon="6.00932">
        <ele>714</ele>
        <time>2017-12-15T18:45:01Z</time>
      </trkpt>
      <trkpt lat="45.10481" lon="6.00803">
        <ele>713</ele>
        <time>2017-12-15T18:45:19Z</time>
      </trkpt>
      <trkpt lat="45.10861" lon="6.00715">
        <ele>711</ele>
        <time>2017-12-15T18:45:35Z</time>
      </trkpt>
      <trkpt lat="45.11053" lon="6.00669">
        <ele>712</ele>
        <time>2017-12-15T18:45:47Z</time>
      </trkpt>
      <trkpt lat="45.11242" lon="6.00621">
        <ele>714</ele>
        <time>2017-12-15T18:45:56Z</time>
      </trkpt>
      <trkpt lat="45.11322" lon="6.00604">
        <ele>719</ele>
        <time>2017-12-15T18:46:12Z</time>
      </trkpt>
      <trkpt lat="45.11362" lon="6.00592">
        <ele>718</ele>
        <time>2017-12-15T18:46:20Z</time>
      </trkpt>
      <trkpt lat="45.11401" lon="6.00577">
        <ele>719</ele>
        <time>2017-12-15T18:46:29Z</time>
      </trkpt>
      <trkpt lat="45.11423" lon="6.0056">
        <ele>713</ele>
        <time>2017-12-15T18:46:38Z</time>
      </trkpt>
      <trkpt lat="45.11437" lon="6.00539">
        <ele>714</ele>
        <time>2017-12-15T18:46:52Z</time>
      </trkpt>
      <trkpt lat="45.11455" lon="6.00498">
        <ele>717</ele>
        <time>2017-12-15T18:47:06Z</time>
      </trkpt>
      <trkpt lat="45.11462" lon="6.00456">
        <ele>718</ele>
        <time>2017-12-15T18:47:23Z</time>
      </trkpt>
      <trkpt lat="45.11464" lon="6.00406">
        <ele>722</ele>
        <time>2017-12-15T18:47:41Z</time>
      </trkpt>
      <trkpt lat="45.11463" lon="6.00335">
        <ele>723</ele>
        <time>2017-12-15T18:47:52Z</time>
      </trkpt>
      <trkpt lat="45.1147" lon="6.0027">
        <ele>730</ele>
        <time>2017-12-15T18:47:56Z</time>
      </trkpt>
      <trkpt lat="45.11536" lon="5.99708">
        <ele>722</ele>
        <time>2017-12-15T18:48:11Z</time>
      </trkpt>
      <trkpt lat="45.11673" lon="5.98533">
        <ele>722</ele>
        <time>2017-12-15T18:48:15Z</time>
      </trkpt>
      <trkpt lat="45.11739" lon="5.9797">
        <ele>716</ele>
        <time>2017-12-15T18:48:27Z</time>
      </trkpt>
      <trkpt lat="45.11807" lon="5.97386">
        <ele>723</ele>
        <time>2017-12-15T18:48:31Z</time>
      </trkpt>
      <trkpt lat="45.11815" lon="5.97305">
        <ele>727</ele>
        <time>2017-12-15T18:48:49Z</time>
      </trkpt>
      <trkpt lat="45.11816" lon="5.9725">
        <ele>723</ele>
        <time>2017-12-15T18:49:03Z</time>
      </trkpt>
      <trkpt lat="45.11809" lon="5.97192">
        <ele>724</ele>
        <time>2017-12-15T18:49:08Z</time>
      </trkpt>
      <trkpt lat="45.11791" lon="5.97119">
        <ele>721</ele>
        <time>2017-12-15T18:49:11Z</time>
      </trkpt>
      <trkpt lat="45.11744" lon="5.97016">
        <ele>721</ele>
        <time>2017-12-15T18:49:17Z</time>
      </trkpt>
      <trkpt lat="45.11682" lon="5.96899">
        <ele>718</ele>
        <time>2017-12-15T18:49:33Z</time>
      </trkpt>
      <trkpt lat="45.11666" lon="5.96865">
        <ele>729</ele>
        <time>2017-12-15T18:49:38Z</time>
      </trkpt>
      <trkpt lat="45.11651" lon="5.96823">
        <ele>729</ele>
        <time>2017-12-15T18:49:57Z</time>
      </trkpt>
      <trkpt lat="45.11645" lon="5.96778">
        <ele>733</ele>
        <time>2017-12-15T18:50:03Z</time>
      </trkpt>
      <trkpt lat="45.11648" lon="5.96599">
        <ele>726</ele>
        <time>2017-12-15T18:50:07Z</time>
      </trkpt>
      <trkpt lat="45.1165" lon="5.96436">
        <ele>725</ele>
        <time>2017-12-15T18:50:19Z</time>
      </trkpt>
      <trkpt lat="45.1165" lon="5.96338">
        <ele>722</ele>
        <time>2017-12-15T18:50:30Z</time>
      </trkpt>
      <trkpt lat="45.11645" lon="5.96294">
        <ele>720</ele>
        <time>2017-12-15T18:50:38Z</time>
      </trkpt>
      <trkpt lat="45.1163" lon="5.96251">
        <ele>719</ele>
        <time>2017-12-15T18:50:43Z</time>
      </trkpt>
      <trkpt lat="45.11613" lon="5.9622">
        <ele>717</ele>
        <time>2017-12-15T18:50:58Z</time>
      </trkpt>
      <trkpt lat="45.11592" lon="5.96191">
        <ele>717</ele>
        <time>2017-12-15T18:51:01Z</time>
      </trkpt>
      <trkpt lat="45.1154" lon="5.96117">
        <ele>714</ele>
        <time>2017-12-15T18:51:14Z</time>
      </trkpt>
      <trkpt lat="45.11492" lon="5.96048">
        <ele>712</ele>
        <time>2017-12-15T18:51:31Z</time>
      </trkpt>
      <trkpt lat="45.1142" lon="5.95956">
        <ele>712</ele>
        <time>2017-12-15T18:51:45Z</time>
      </trkpt>
      <trkpt lat="45.11387" lon="5.95911">
        <ele>715</ele>
        <time>2017-12-15T18:51:58Z</time>
      </trkpt>
      <trkpt lat="45.1138" lon="5.95881">
        <ele>715</ele>
        <time>2017-12-15T18:52:11Z</time>
      </trkpt>
      <trkpt lat="45.11381" lon="5.9586">
        <ele>715</ele>
        <time>2017-12-15T18:52:13Z</time>
      </trkpt>
      <trkpt lat="45.11386" lon="5.95844">
        <ele>714</ele>
        <time>2017-12-15T18:52:23Z</time>
      </trkpt>
      <trkpt lat="45.11399" lon="5.95827">
        <ele>712</ele>
        <time>2017-12-15T18:52:41Z</time>
      </trkpt>
      <trkpt lat="45.11413" lon="5.95808">
        <ele>712</ele>
        <time>2017-12-15T18:52:56Z</time>
      </trkpt>
      <trkpt lat="45.11419" lon="5.95789">
        <ele>718</ele>
        <time>2017-12-15T18:53:08Z</time>
      </trkpt>
      <trkpt lat="45.1142" lon="5.95772">
        <ele>718</ele>
        <time>2017-12-15T18:53:25Z</time>
      </trkpt>
      <trkpt lat="45.11415" lon="5.9575">
        <ele>717</ele>
        <time>2017-12-15T18:53:34Z</time>
      </trkpt>
      <trkpt lat="45.11397" lon="5.95716">
        <ele>716</ele>
        <time>2017-12-15T18:53:48Z</time>
      </trkpt>
      <trkpt lat="45.11374" lon="5.95676">
        <ele>716</ele>
        <time>2017-12-15T18:53:54Z</time>
      </trkpt>
      <trkpt lat="45.11366" lon="5.95651">
        <ele>717</ele>
        <time>2017-12-15T18:54:06Z</time>
      </trkpt>
      <trkpt lat="45.1136" lon="5.95618">
        <ele>716</ele>
        <time>2017-12-15T18:54:12Z</time>
      </trkpt>
      <trkpt lat="45.1135" lon="5.95493">
        <ele>714</ele>
        <time>2017-12-15T18:54:22Z</time>
      </trkpt>
      <trkpt lat="45.11345" lon="5.95293">
        <ele>713</ele>
        <time>2017-12-15T18:54:40Z</time>
      </trkpt>
      <trkpt lat="45.11328" lon="5.95087">
        <ele>703</ele>
        <time>2017-12-15T18:54:51Z</time>
      </trkpt>
      <trkpt lat="45.11316" lon="5.95">
        <ele>700</ele>
        <time>2017-12-15T18:54:59Z</time>
      </trkpt>
      <trkpt lat="45.11303" lon="5.94936">
        <ele>697</ele>
        <time>2017-12-15T18:55:11Z</time>
      </trkpt>
      <trkpt lat="45.11289" lon="5.94886">
        <ele>700</ele>
        <time>2017-12-15T18:55:25Z</time>
      </trkpt>
      <trkpt lat="45.11257" lon="5.94801">
        <ele>710</ele>
        <time>2017-12-15T18:55:27Z</time>
      </trkpt>
      <trkpt lat="45.1124" lon="5.94767">
        <ele>698</ele>
        <time>2017-12-15T18:55:47Z</time>
      </trkpt>
      <trkpt lat="45.11197" lon="5.94694">
        <ele>700</ele>
        <time>2017-12-15T18:55:49Z</time>
      </trkpt>
      <trkpt lat="45.11112" lon="5.94564">
        <ele>690</ele>
        <time>2017-12-15T18:56:08Z</time>
      </trkpt>
      <trkpt lat="45.11064" lon="5.94486">
        <ele>683</ele>
        <time>2017-12-15T18:56:13Z</time>
      </trkpt>
      <trkpt lat="45.11045" lon="5.94446">
        <ele>687</ele>
        <time>2017-12-15T18:56:27Z</time>
      </trkpt>
      <trkpt lat="45.11024" lon="5.94391">
        <ele>699</ele>
        <time>2017-12-15T18:56:42Z</time>
      </trkpt>
      <trkpt lat="45.11007" lon="5.94333">
        <ele>694</ele>
        <time>2017-12-15T18:56:47Z</time>
      </trkpt>
      <trkpt lat="45.10962" lon="5.94192">
        <ele>680</ele>
        <time>2017-12-15T18:56:59Z</time>
      </trkpt>
      <trkpt lat="45.10887" lon="5.93963">
        <ele>667</ele>
        <time>2017-12-15T18:57:01Z</time>
      </trkpt>
      <trkpt lat="45.10856" lon="5.93878">
        <ele>666</ele>
        <time>2017-12-15T18:57:05Z</time>
      </trkpt>
      <trkpt lat="45.10826" lon="5.93789">
        <ele>660</ele>
        <time>2017-12-15T18:57:20Z</time>
      </trkpt>
      <trkpt lat="45.10817" lon="5.93773">
        <ele>660</ele>
        <time>2017-12-15T18:57:28Z</time>
      </trkpt>
      <trkpt lat="45.10767" lon="5.93624">
        <ele>656</ele>
        <time>2017-12-15T18:57:45Z</time>
      </trkpt>
      <trkpt lat="45.10757" lon="5.93603">
        <ele>656</ele>
        <time>2017-12-15T18:57:55Z</time>
      </trkpt>
      <trkpt lat="45.10737" lon="5.93565">
        <ele>657</ele>
        <time>2017-12-15T18:58:04Z</time>
      </trkpt>
      <trkpt lat="45.10717" lon="5.93532">
        <ele>659</ele>
        <time>2017-12-15T18:58:08Z</time>
      </trkpt>
      <trkpt lat="45.10683" lon="5.93476">
        <ele>658</ele>
        <time>2017-12-15T18:58:20Z</time>
      </trkpt>
      <trkpt lat="45.10674" lon="5.93455">
        <ele>657</ele>
        <time>2017-12-15T18:58:23Z</time>
      </trkpt>
      <trkpt lat="45.1066" lon="5.93406">
        <ele>666</ele>
        <time>2017-12-15T18:58:25Z</time>
      </trkpt>
      <trkpt lat="45.10656" lon="5.93381">
        <ele>675</ele>
        <time>2017-12-15T18:58:27Z</time>
      </trkpt>
      <trkpt lat="45.10652" lon="5.93332">
        <ele>667</ele>
        <time>2017-12-15T18:58:44Z</time>
      </trkpt>
      <trkpt lat="45.10649" lon="5.93278">
        <ele>673</ele>
        <time>2017-12-15T18:59:03Z</time>
      </trkpt>
      <trkpt lat="45.10649" lon="5.93226">
        <ele>668</ele>
        <time>2017-12-15T18:59:22Z</time>
      </trkpt>
      <trkpt lat="45.10643" lon="5.93166">
        <ele>658</ele>
        <time>2017-12-15T18:59:41Z</time>
      </trkpt>
      <trkpt lat="45.10626" lon="5.93108">
        <ele>660</ele>
        <time>2017-12-15T18:59:58Z</time>
      </trkpt>
      <trkpt lat="45.10612" lon="5.9307">
        <ele>654</ele>
        <time>2017-12-15T19:00:18Z</time>
      </trkpt>
      <trkpt lat="45.10572" lon="5.92988">
        <ele>660</ele>
        <time>2017-12-15T19:00:35Z</time>
      </trkpt>
      <trkpt lat="45.10499" lon="5.92828">
        <ele>656</ele>
        <time>2017-12-15T19:00:37Z</time>
      </trkpt>
      <trkpt lat="45.10495" lon="5.92811">
        <ele>662</ele>
        <time>2017-12-15T19:00:41Z</time>
      </trkpt>
      <trkpt lat="45.10478" lon="5.92756">
        <ele>660</ele>
        <time>2017-12-15T19:00:49Z</time>
      </trkpt>
      <trkpt lat="45.10467" lon="5.92693">
        <ele>652</ele>
        <time>2017-12-15T19:00:53Z</time>
      </trkpt>
      <trkpt lat="45.1046" lon="5.9262">
        <ele>645</ele>
        <time>2017-12-15T19:01:06Z</time>
      </trkpt>
      <trkpt lat="45.10448" lon="5.9244">
        <ele>637</ele>
        <time>2017-12-15T19:01:26Z</time>
      </trkpt>
      <trkpt lat="45.10438" lon="5.92397">
        <ele>635</ele>
        <time>2017-12-15T19:01:42Z</time>
      </trkpt>
      <trkpt lat="45.10422" lon="5.9234">
        <ele>636</ele>
        <time>2017-12-15T19:01:52Z</time>
      </trkpt>
      <trkpt lat="45.10415" lon="5.92329">
        <ele>639</ele>
        <time>2017-12-15T19:02:08Z</time>
      </trkpt>
      <trkpt lat="45.10408" lon="5.92304">
        <ele>641</ele>
        <time>2017-12-15T19:02:17Z</time>
      </trkpt>
      <trkpt lat="45.10335" lon="5.92068">
        <ele>623</ele>
        <time>2017-12-15T19:02:26Z</time>
      </trkpt>
      <trkpt lat="45.10323" lon="5.9203">
        <ele>620</ele>
        <time>2017-12-15T19:02:36Z</time>
      </trkpt>
      <trkpt lat="45.10311" lon="5.92">
        <ele>616</ele>
        <time>2017-12-15T19:02:53Z</time>
      </trkpt>
      <trkpt lat="45.10294" lon="5.91972">
        <ele>614</ele>
        <time>2017-12-15T19:03:09Z</time>
      </trkpt>
      <trkpt lat="45.10279" lon="5.91954">
        <ele>614</ele>
        <time>2017-12-15T19:03:26Z</time>
      </trkpt>
      <trkpt lat="45.1026" lon="5.91935">
        <ele>613</ele>
        <time>2017-12-15T19:03:46Z</time>
      </trkpt>
      <trkpt lat="45.10136" lon="5.9183">
        <ele>602</ele>
        <time>2017-12-15T19:04:05Z</time>
      </trkpt>
      <trkpt lat="45.09887" lon="5.91624">
        <ele>599</ele>
        <time>2017-12-15T19:04:24Z</time>
      </trkpt>
      <trkpt lat="45.09851" lon="5.91591">
        <ele>598</ele>
        <time>2017-12-15T19:04:30Z</time>
      </trkpt>
      <trkpt lat="45.09829" lon="5.91566">
        <ele>603</ele>
        <time>2017-12-15T19:04:48Z</time>
      </trkpt>
      <trkpt lat="45.09817" lon="5.91547">
        <ele>606</ele>
        <time>2017-12-15T19:05:03Z</time>
      </trkpt>
      <trkpt lat="45.09805" lon="5.91524">
        <ele>606</ele>
        <time>2017-12-15T19:05:12Z</time>
      </trkpt>
      <trkpt lat="45.09781" lon="5.91467">
        <ele>600</ele>
        <time>2017-12-15T19:05:25Z</time>
      </trkpt>
      <trkpt lat="45.09735" lon="5.91366">
        <ele>609</ele>
        <time>2017-12-15T19:05:29Z</time>
      </trkpt>
      <trkpt lat="45.09703" lon="5.91288">
        <ele>604</ele>
        <time>2017-12-15T19:05:46Z</time>
      </trkpt>
      <trkpt lat="45.09695" lon="5.91261">
        <ele>605</ele>
        <time>2017-12-15T19:06:06Z</time>
      </trkpt>
      <trkpt lat="45.0969" lon="5.91235">
        <ele>600</ele>
        <time>2017-12-15T19:06:12Z</time>
      </trkpt>
      <trkpt lat="45.0968" lon="5.91193">
        <ele>597</ele>
        <time>2017-12-15T19:06:16Z</time>
      </trkpt>
      <trkpt lat="45.09677" lon="5.9117">
        <ele>597</ele>
        <time>2017-12-15T19:06:28Z</time>
      </trkpt>
      <trkpt lat="45.09659" lon="5.91001">
        <ele>592</ele>
        <time>2017-12-15T19:06:45Z</time>
      </trkpt>
      <trkpt lat="45.0965" lon="5.90935">
        <ele>592</ele>
        <time>2017-12-15T19:07:03Z</time>
      </trkpt>
      <trkpt lat="45.0964" lon="5.90894">
        <ele>584</ele>
        <time>2017-12-15T19:07:18Z</time>
      </trkpt>
      <trkpt lat="45.09629" lon="5.90862">
        <ele>585</ele>
        <time>2017-12-15T19:07:34Z</time>
      </trkpt>
      <trkpt lat="45.09594" lon="5.90773">
        <ele>577</ele>
        <time>2017-12-15T19:07:51Z</time>
      </trkpt>
      <trkpt lat="45.09543" lon="5.90652">
        <ele>577</ele>
        <time>2017-12-15T19:07:57Z</time>
      </trkpt>
      <trkpt lat="45.09528" lon="5.90619">
        <ele>577</ele>
        <time>2017-12-15T19:08:10Z</time>
      </trkpt>
      <trkpt lat="45.09506" lon="5.90587">
        <ele>578</ele>
        <time>2017-12-15T19:08:17Z</time>
      </trkpt>
      <trkpt lat="45.09492" lon="5.90572">
        <ele>578</ele>
        <time>2017-12-15T19:08:35Z</time>
      </trkpt>
      <trkpt lat="45.09435" lon="5.90524">
        <ele>577</ele>
        <time>2017-12-15T19:08:38Z</time>
      </trkpt>
      <trkpt lat="45.09293" lon="5.90413">
        <ele>572</ele>
        <time>2017-12-15T19:08:55Z</time>
      </trkpt>
      <trkpt lat="45.0919" lon="5.90335">
        <ele>567</ele>
        <time>2017-12-15T19:09:09Z</time>
      </trkpt>
      <trkpt lat="45.09085" lon="5.90249">
        <ele>561</ele>
        <time>2017-12-15T19:09:29Z</time>
      </trkpt>
      <trkpt lat="45.09071" lon="5.90233">
        <ele>558</ele>
        <time>2017-12-15T19:09:41Z</time>
      </trkpt>
      <trkpt lat="45.09045" lon="5.90209">
        <ele>555</ele>
        <time>2017-12-15T19:09:45Z</time>
      </trkpt>
      <trkpt lat="45.09026" lon="5.90197">
        <ele>554</ele>
        <time>2017-12-15T19:09:57Z</time>
      </trkpt>
      <trkpt lat="45.09004" lon="5.90188">
        <ele>553</ele>
        <time>2017-12-15T19:10:16Z</time>
      </trkpt>
      <trkpt lat="45.08955" lon="5.9018">
        <ele>555</ele>
        <time>2017-12-15T19:10:32Z</time>
      </trkpt>
      <trkpt lat="45.08949" lon="5.90181">
        <ele>555</ele>
        <time>2017-12-15T19:10:41Z</time>
      </trkpt>
      <trkpt lat="45.08847" lon="5.90161">
        <ele>547</ele>
        <time>2017-12-15T19:10:55Z</time>
      </trkpt>
      <trkpt lat="45.08793" lon="5.9015">
        <ele>547</ele>
        <time>2017-12-15T19:11:03Z</time>
      </trkpt>
      <trkpt lat="45.08758" lon="5.90139">
        <ele>549</ele>
        <time>2017-12-15T19:11:19Z</time>
      </trkpt>
      <trkpt lat="45.08699" lon="5.90114">
        <ele>550</ele>
        <time>2017-12-15T19:11:37Z</time>
      </trkpt>
      <trkpt lat="45.08598" lon="5.90072">
        <ele>539</ele>
        <time>2017-12-15T19:11:39Z</time>
      </trkpt>
      <trkpt lat="45.0855" lon="5.90051">
        <ele>541</ele>
        <time>2017-12-15T19:11:46Z</time>
      </trkpt>
      <trkpt lat="45.0851" lon="5.90027">
        <ele>539</ele>
        <time>2017-12-15T19:12:04Z</time>
      </trkpt>
      <trkpt lat="45.08498" lon="5.90018">
        <ele>547</ele>
        <time>2017-12-15T19:12:15Z</time>
      </trkpt>
      <trkpt lat="45.08479" lon="5.90002">
        <ele>549</ele>
        <time>2017-12-15T19:12:34Z</time>
      </trkpt>
      <trkpt lat="45.08382" lon="5.89907">
        <ele>538</ele>
        <time>2017-12-15T19:12:38Z</time>
      </trkpt>
      <trkpt lat="45.08293" lon="5.89805">
        <ele>537</ele>
        <time>2017-12-15T19:12:48Z</time>
      </trkpt>
      <trkpt lat="45.08279" lon="5.89784">
        <ele>537</ele>
        <time>2017-12-15T19:13:02Z</time>
      </trkpt>
      <trkpt lat="45.08269" lon="5.89766">
        <ele>536</ele>
        <time>2017-12-15T19:13:09Z</time>
      </trkpt>
      <trkpt lat="45.08233" lon="5.89682">
        <ele>543</ele>
        <time>2017-12-15T19:13:22Z</time>
      </trkpt>
      <trkpt lat="45.08227" lon="5.89663">
        <ele>540</ele>
        <time>2017-12-15T19:13:38Z</time>
      </trkpt>
      <trkpt lat="45.08223" lon="5.8964">
        <ele>543</ele>
        <time>2017-12-15T19:13:44Z</time>
      </trkpt>
      <trkpt lat="45.08225" lon="5.89604">
        <ele>540</ele>
        <time>2017-12-15T19:14:04Z</time>
      </trkpt>
      <trkpt lat="45.08232" lon="5.8955">
        <ele>534</ele>
        <time>2017-12-15T19:14:14Z</time>
      </trkpt>
      <trkpt lat="45.08231" lon="5.89529">
        <ele>533</ele>
        <time>2017-12-15T19:14:17Z</time>
      </trkpt>
      <trkpt lat="45.08226" lon="5.89506">
        <ele>531</ele>
        <time>2017-12-15T19:14:37Z</time>
      </trkpt>
      <trkpt lat="45.08201" lon="5.89451">
        <ele>526</ele>
        <time>2017-12-15T19:14:41Z</time>
      </trkpt>
      <trkpt lat="45.08189" lon="5.89428">
        <ele>527</ele>
        <time>2017-12-15T19:14:46Z</time>
      </trkpt>
      <trkpt lat="45.08145" lon="5.89373">
        <ele>531</ele>
        <time>2017-12-15T19:14:48Z</time>
      </trkpt>
      <trkpt lat="45.08081" lon="5.89292">
        <ele>532</ele>
        <time>2017-12-15T19:14:54Z</time>
      </trkpt>
      <trkpt lat="45.08047" lon="5.89238">
        <ele>518</ele>
        <time>2017-12-15T19:15:10Z</time>
      </trkpt>
      <trkpt lat="45.07962" lon="5.89094">
        <ele>526</ele>
        <time>2017-12-15T19:15:19Z</time>
      </trkpt>
      <trkpt lat="45.07924" lon="5.89024">
        <ele>513</ele>
        <time>2017-12-15T19:15:28Z</time>
      </trkpt>
      <trkpt lat="45.07901" lon="5.88964">
        <ele>526</ele>
        <time>2017-12-15T19:15:42Z</time>
      </trkpt>
      <trkpt lat="45.07855" lon="5.88831">
        <ele>509</ele>
        <time>2017-12-15T19:15:53Z</time>
      </trkpt>
      <trkpt lat="45.07833" lon="5.8878">
        <ele>524</ele>
        <time>2017-12-15T19:15:57Z</time>
      </trkpt>
      <trkpt lat="45.07799" lon="5.88714">
        <ele>511</ele>
        <time>2017-12-15T19:16:13Z</time>
      </trkpt>
      <trkpt lat="45.07737" lon="5.88611">
        <ele>516</ele>
        <time>2017-12-15T19:16:31Z</time>
      </trkpt>
      <trkpt lat="45.07672" lon="5.88508">
        <ele>506</ele>
        <time>2017-12-15T19:16:51Z</time>
      </trkpt>
      <trkpt lat="45.07669" lon="5.88499">
        <ele>504</ele>
        <time>2017-12-15T19:17:07Z</time>
      </trkpt>
      <trkpt lat="45.07658" lon="5.88482">
        <ele>509</ele>
        <time>2017-12-15T19:17:16Z</time>
      </trkpt>
      <trkpt lat="45.07634" lon="5.8844">
        <ele>509</ele>
        <time>2017-12-15T19:17:30Z</time>
      </trkpt>
      <trkpt lat="45.07618" lon="5.88404">
        <ele>499</ele>
        <time>2017-12-15T19:17:50Z</time>
      </trkpt>
      <trkpt lat="45.07603" lon="5.88359">
        <ele>497</ele>
        <time>2017-12-15T19:18:10Z</time>
      </trkpt>
      <trkpt lat="45.07593" lon="5.88316">
        <ele>492</ele>
        <time>2017-12-15T19:18:27Z</time>
      </trkpt>
      <trkpt lat="45.07588" lon="5.88281">
        <ele>490</ele>
        <time>2017-12-15T19:18:43Z</time>
      </trkpt>
      <trkpt lat="45.07583" lon="5.88217">
        <ele>507</ele>
        <time>2017-12-15T19:18:47Z</time>
      </trkpt>
      <trkpt lat="45.07584" lon="5.88172">
        <ele>486</ele>
        <time>2017-12-15T19:18:50Z</time>
      </trkpt>
      <trkpt lat="45.07583" lon="5.88142">
        <ele>498</ele>
        <time>2017-12-15T19:19:00Z</time>
      </trkpt>
      <trkpt lat="45.0758" lon="5.88111">
        <ele>497</ele>
        <time>2017-12-15T19:19:11Z</time>
      </trkpt>
      <trkpt lat="45.07575" lon="5.88093">
        <ele>492</ele>
        <time>2017-12-15T19:19:16Z</time>
      </trkpt>
      <trkpt lat="45.07538" lon="5.87885">
        <ele>475</ele>
        <time>2017-12-15T19:19:33Z</time>
      </trkpt>
      <trkpt lat="45.07527" lon="5.87853">
        <ele>476</ele>
        <time>2017-12-15T19:19:36Z</time>
      </trkpt>
      <trkpt lat="45.07511" lon="5.87821">
        <ele>474</ele>
        <time>2017-12-15T19:19:51Z</time>
      </trkpt>
      <trkpt lat="45.0749" lon="5.87789">
        <ele>480</ele>
        <time>2017-12-15T19:19:57Z</time>
      </trkpt>
      <trkpt lat="45.07463" lon="5.87759">
        <ele>479</ele>
        <time>2017-12-15T19:20:04Z</time>
      </trkpt>
      <trkpt lat="45.07246" lon="5.87566">
        <ele>471</ele>
        <time>2017-12-15T19:20:07Z</time>
      </trkpt>
      <trkpt lat="45.0721" lon="5.87549">
        <ele>470</ele>
        <time>2017-12-15T19:20:17Z</time>
      </trkpt>
      <trkpt lat="45.07196" lon="5.87533">
        <ele>469</ele>
        <time>2017-12-15T19:20:23Z</time>
      </trkpt>
      <trkpt lat="45.07192" lon="5.87523">
        <ele>468</ele>
        <time>2017-12-15T19:20:29Z</time>
      </trkpt>
      <trkpt lat="45.07191" lon="5.87515">
        <ele>467</ele>
        <time>2017-12-15T19:20:34Z</time>
      </trkpt>
      <trkpt lat="45.07187" lon="5.87508">
        <ele>467</ele>
        <time>2017-12-15T19:20:49Z</time>
      </trkpt>
      <trkpt lat="45.07183" lon="5.87496">
        <ele>463</ele>
        <time>2017-12-15T19:21:03Z</time>
      </trkpt>
      <trkpt lat="45.07182" lon="5.87479">
        <ele>463</ele>
        <time>2017-12-15T19:21:11Z</time>
      </trkpt>
      <trkpt lat="45.07181" lon="5.8742">
        <ele>463</ele>
        <time>2017-12-15T19:21:28Z</time>
      </trkpt>
      <trkpt lat="45.07179" lon="5.87396">
        <ele>461</ele>
        <time>2017-12-15T19:21:41Z</time>
      </trkpt>
      <trkpt lat="45.07173" lon="5.87346">
        <ele>459</ele>
        <time>2017-12-15T19:21:43Z</time>
      </trkpt>
      <trkpt lat="45.07158" lon="5.8729">
        <ele>453</ele>
        <time>2017-12-15T19:21:54Z</time>
      </trkpt>
      <trkpt lat="45.07144" lon="5.87258">
        <ele>451</ele>
        <time>2017-12-15T19:21:57Z</time>
      </trkpt>
      <trkpt lat="45.07124" lon="5.8722">
        <ele>445</ele>
        <time>2017-12-15T19:22:04Z</time>
      </trkpt>
      <trkpt lat="45.0711" lon="5.87201">
        <ele>445</ele>
        <time>2017-12-15T19:22:21Z</time>
      </trkpt>
      <trkpt lat="45.07078" lon="5.87164">
        <ele>443</ele>
        <time>2017-12-15T19:22:31Z</time>
      </trkpt>
      <trkpt lat="45.07" lon="5.87077">
        <ele>437</ele>
        <time>2017-12-15T19:22:45Z</time>
      </trkpt>
      <trkpt lat="45.06949" lon="5.87025">
        <ele>434</ele>
        <time>2017-12-15T19:22:50Z</time>
      </trkpt>
      <trkpt lat="45.0691" lon="5.86992">
        <ele>431</ele>
        <time>2017-12-15T19:22:59Z</time>
      </trkpt>
      <trkpt lat="45.06815" lon="5.86925">
        <ele>432</ele>
        <time>2017-12-15T19:23:08Z</time>
      </trkpt>
      <trkpt lat="45.06758" lon="5.86886">
        <ele>431</ele>
        <time>2017-12-15T19:23:14Z</time>
      </trkpt>
      <trkpt lat="45.0672" lon="5.86866">
        <ele>431</ele>
        <time>2017-12-15T19:23:29Z</time>
      </trkpt>
      <trkpt lat="45.06696" lon="5.86856">
        <ele>431</ele>
        <time>2017-12-15T19:23:42Z</time>
      </trkpt>
      <trkpt lat="45.06664" lon="5.86847">
        <ele>430</ele>
        <time>2017-12-15T19:23:58Z</time>
      </trkpt>
      <trkpt lat="45.06579" lon="5.86828">
        <ele>430</ele>
        <time>2017-12-15T19:24:16Z</time>
      </trkpt>
      <trkpt lat="45.06545" lon="5.86814">
        <ele>428</ele>
        <time>2017-12-15T19:24:29Z</time>
      </trkpt>
      <trkpt lat="45.06507" lon="5.86789">
        <ele>428</ele>
        <time>2017-12-15T19:24:36Z</time>
      </trkpt>
      <trkpt lat="45.06475" lon="5.86763">
        <ele>430</ele>
        <time>2017-12-15T19:24:40Z</time>
      </trkpt>
      <trkpt lat="45.06461" lon="5.86749">
        <ele>429</ele>
        <time>2017-12-15T19:24:55Z</time>
      </trkpt>
      <trkpt lat="45.06412" lon="5.86709">
        <ele>434</ele>
        <time>2017-12-15T19:24:58Z</time>
      </trkpt>
      <trkpt lat="45.06369" lon="5.86676">
        <ele>434</ele>
        <time>2017-12-15T19:25:15Z</time>
      </trkpt>
      <trkpt lat="45.06329" lon="5.8664">
        <ele>431</ele>
        <time>2017-12-15T19:25:33Z</time>
      </trkpt>
      <trkpt lat="45.06266" lon="5.86587">
        <ele>428</ele>
        <time>2017-12-15T19:25:47Z</time>
      </trkpt>
      <trkpt lat="45.06178" lon="5.86512">
        <ele>424</ele>
        <time>2017-12-15T19:26:03Z</time>
      </trkpt>
      <trkpt lat="45.06039" lon="5.86368">
        <ele>419</ele>
        <time>2017-12-15T19:26:21Z</time>
      </trkpt>
      <trkpt lat="45.05825" lon="5.86147">
        <ele>414</ele>
        <time>2017-12-15T19:26:32Z</time>
      </trkpt>
      <trkpt lat="45.05536" lon="5.85846">
        <ele>403</ele>
        <time>2017-12-15T19:26:45Z</time>
      </trkpt>
      <trkpt lat="45.05502" lon="5.85805">
        <ele>400</ele>
        <time>2017-12-15T19:26:57Z</time>
      </trkpt>
      <trkpt lat="45.05477" lon="5.85758">
        <ele>402</ele>
        <time>2017-12-15T19:27:03Z</time>
      </trkpt>
      <trkpt lat="45.05462" lon="5.85714">
        <ele>401</ele>
        <time>2017-12-15T19:27:19Z</time>
      </trkpt>
      <trkpt lat="45.05446" lon="5.85651">
        <ele>399</ele>
        <time>2017-12-15T19:27:21Z</time>
      </trkpt>
      <trkpt lat="45.05405" lon="5.85479">
        <ele>396</ele>
        <time>2017-12-15T19:27:40Z</time>
      </trkpt>
      <trkpt lat="45.05395" lon="5.85442">
        <ele>395</ele>
        <time>2017-12-15T19:27:43Z</time>
      </trkpt>
      <trkpt lat="45.05355" lon="5.85274">
        <ele>394</ele>
        <time>2017-12-15T19:28:02Z</time>
      </trkpt>
      <trkpt lat="45.05338" lon="5.85211">
        <ele>392</ele>
        <time>2017-12-15T19:28:15Z</time>
      </trkpt>
      <trkpt lat="45.05335" lon="5.85173">
        <ele>392</ele>
        <time>2017-12-15T19:28:18Z</time>
      </trkpt>
      <trkpt lat="45.05341" lon="5.85141">
        <ele>391</ele>
        <time>2017-12-15T19:28:36Z</time>
      </trkpt>
      <trkpt lat="45.05352" lon="5.8511">
        <ele>390</ele>
        <time>2017-12-15T19:28:56Z</time>
      </trkpt>
      <trkpt lat="45.05365" lon="5.85083">
        <ele>388</ele>
        <time>2017-12-15T19:29:08Z</time>
      </trkpt>
      <trkpt lat="45.05381" lon="5.85064">
        <ele>388</ele>
        <time>2017-12-15T19:29:12Z</time>
      </trkpt>
      <trkpt lat="45.0542" lon="5.85027">
        <ele>392</ele>
        <time>2017-12-15T19:29:20Z</time>
      </trkpt>
      <trkpt lat="45.0544" lon="5.85004">
        <ele>392</ele>
        <time>2017-12-15T19:29:29Z</time>
      </trkpt>
      <trkpt lat="45.05452" lon="5.84981">
        <ele>390</ele>
        <time>2017-12-15T19:29:45Z</time>
      </trkpt>
      <trkpt lat="45.0546" lon="5.84953">
        <ele>389</ele>
        <time>2017-12-15T19:29:52Z</time>
      </trkpt>
      <trkpt lat="45.05463" lon="5.84913">
        <ele>386</ele>
        <time>2017-12-15T19:29:58Z</time>
      </trkpt>
      <trkpt lat="45.05464" lon="5.8483">
        <ele>386</ele>
        <time>2017-12-15T19:30:02Z</time>
      </trkpt>
      <trkpt lat="45.0547" lon="5.84458">
        <ele>421</ele>
        <time>2017-12-15T19:30:22Z</time>
      </trkpt>
      <trkpt lat="45.05468" lon="5.84432">
        <ele>432</ele>
        <time>2017-12-15T19:30:25Z</time>
      </trkpt>
      <trkpt lat="45.05461" lon="5.84386">
        <ele>450</ele>
        <time>2017-12-15T19:30:29Z</time>
      </trkpt>
      <trkpt lat="45.05442" lon="5.84273">
        <ele>448</ele>
        <time>2017-12-15T19:30:46Z</time>
      </trkpt>
      <trkpt lat="45.05423" lon="5.84145">
        <ele>405</ele>
        <time>2017-12-15T19:30:50Z</time>
      </trkpt>
      <trkpt lat="45.05409" lon="5.84089">
        <ele>389</ele>
        <time>2017-12-15T19:31:03Z</time>
      </trkpt>
      <trkpt lat="45.05397" lon="5.84043">
        <ele>381</ele>
        <time>2017-12-15T19:31:11Z</time>
      </trkpt>
      <trkpt lat="45.0539" lon="5.84007">
        <ele>380</ele>
        <time>2017-12-15T19:31:18Z</time>
      </trkpt>
      <trkpt lat="45.05386" lon="5.8396">
        <ele>373</ele>
        <time>2017-12-15T19:31:29Z</time>
      </trkpt>
      <trkpt lat="45.05382" lon="5.83915">
        <ele>370</ele>
        <time>2017-12-15T19:31:32Z</time>
      </trkpt>
      <trkpt lat="45.05383" lon="5.8389">
        <ele>370</ele>
        <time>2017-12-15T19:31:40Z</time>
      </trkpt>
      <trkpt lat="45.0538" lon="5.83874">
        <ele>370</ele>
        <time>2017-12-15T19:31:52Z</time>
      </trkpt>
      <trkpt lat="45.05382" lon="5.83846">
        <ele>370</ele>
        <time>2017-12-15T19:32:12Z</time>
      </trkpt>
      <trkpt lat="45.05382" lon="5.83808">
        <ele>371</ele>
        <time>2017-12-15T19:32:23Z</time>
      </trkpt>
      <trkpt lat="45.05371" lon="5.83641">
        <ele>368</ele>
        <time>2017-12-15T19:32:27Z</time>
      </trkpt>
      <trkpt lat="45.05366" lon="5.83548">
        <ele>367</ele>
        <time>2017-12-15T19:32:30Z</time>
      </trkpt>
      <trkpt lat="45.05361" lon="5.83525">
        <ele>367</ele>
        <time>2017-12-15T19:32:38Z</time>
      </trkpt>
      <trkpt lat="45.05336" lon="5.83538">
        <ele>367</ele>
        <time>2017-12-15T19:32:56Z</time>
      </trkpt>
      <trkpt lat="45.05307" lon="5.83556">
        <ele>367</ele>
        <time>2017-12-15T19:33:11Z</time>
      </trkpt>
      <trkpt lat="45.05274" lon="5.83584">
        <ele>368</ele>
        <time>2017-12-15T19:33:21Z</time>
      </trkpt>
      <trkpt lat="45.05232" lon="5.83627">
        <ele>366</ele>
        <time>2017-12-15T19:33:37Z</time>
      </trkpt>
      <trkpt lat="45.05217" lon="5.83644">
        <ele>365</ele>
        <time>2017-12-15T19:33:53Z</time>
      </trkpt>
      <trkpt lat="45.0521" lon="5.83651">
        <ele>365</ele>
        <time>2017-12-15T19:33:57Z</time>
      </trkpt>
      <trkpt lat="45.05161" lon="5.83696">
        <ele>372</ele>
        <time>2017-12-15T19:34:02Z</time>
      </trkpt>
      <trkpt lat="45.05147" lon="5.83708">
        <ele>374</ele>
        <time>2017-12-15T19:34:13Z</time>
      </trkpt>
      <trkpt lat="45.05138" lon="5.83713">
        <ele>375</ele>
        <time>2017-12-15T19:34:20Z</time>
      </trkpt>
      <trkpt lat="45.05122" lon="5.83714">
        <ele>378</ele>
        <time>2017-12-15T19:34:23Z</time>
      </trkpt>
      <trkpt lat="45.051" lon="5.83703">
        <ele>379</ele>
        <time>2017-12-15T19:34:30Z</time>
      </trkpt>
      <trkpt lat="45.0508" lon="5.83684">
        <ele>388</ele>
        <time>2017-12-15T19:34:49Z</time>
      </trkpt>
      <trkpt lat="45.0507" lon="5.83672">
        <ele>386</ele>
        <time>2017-12-15T19:35:04Z</time>
      </trkpt>
      <trkpt lat="45.05022" lon="5.83612">
        <ele>380</ele>
        <time>2017-12-15T19:35:11Z</time>
      </trkpt>
      <trkpt lat="45.04983" lon="5.8356">
        <ele>385</ele>
        <time>2017-12-15T19:35:25Z</time>
      </trkpt>
      <trkpt lat="45.0495" lon="5.83525">
        <ele>389</ele>
        <time>2017-12-15T19:35:35Z</time>
      </trkpt>
      <trkpt lat="45.04918" lon="5.8349">
        <ele>387</ele>
        <time>2017-12-15T19:35:43Z</time>
      </trkpt>
      <trkpt lat="45.04903" lon="5.83464">
        <ele>397</ele>
        <time>2017-12-15T19:36:00Z</time>
      </trkpt>
      <trkpt lat="45.04891" lon="5.83436">
        <ele>394</ele>
        <time>2017-12-15T19:36:20Z</time>
      </trkpt>
      <trkpt lat="45.04873" lon="5.83355">
        <ele>387</ele>
        <time>2017-12-15T19:36:24Z</time>
      </trkpt>
      <trkpt lat="45.04854" lon="5.83261">
        <ele>386</ele>
        <time>2017-12-15T19:36:39Z</time>
      </trkpt>
      <trkpt lat="45.04844" lon="5.83232">
        <ele>388</ele>
        <time>2017-12-15T19:36:44Z</time>
      </trkpt>
      <trkpt lat="45.04838" lon="5.83218">
        <ele>388</ele>
        <time>2017-12-15T19:37:04Z</time>
      </trkpt>
      <trkpt lat="45.04827" lon="5.83207">
        <ele>395</ele>
        <time>2017-12-15T19:37:13Z</time>
      </trkpt>
      <trkpt lat="45.04779" lon="5.83172">
        <ele>398</ele>
        <time>2017-12-15T19:37:20Z</time>
      </trkpt>
      <trkpt lat="45.04761" lon="5.83165">
        <ele>399</ele>
        <time>2017-12-15T19:37:26Z</time>
      </trkpt>
      <trkpt lat="45.04748" lon="5.83165">
        <ele>402</ele>
        <time>2017-12-15T19:37:41Z</time>
      </trkpt>
      <trkpt lat="45.04712" lon="5.83169">
        <ele>418</ele>
        <time>2017-12-15T19:38:00Z</time>
      </trkpt>
      <trkpt lat="45.04699" lon="5.8317">
        <ele>421</ele>
        <time>2017-12-15T19:38:04Z</time>
      </trkpt>
      <trkpt lat="45.04686" lon="5.83169">
        <ele>423</ele>
        <time>2017-12-15T19:38:13Z</time>
      </trkpt>
      <trkpt lat="45.0468" lon="5.83166">
        <ele>419</ele>
        <time>2017-12-15T19:38:25Z</time>
      </trkpt>
      <trkpt lat="45.04674" lon="5.83161">
        <ele>421</ele>
        <time>2017-12-15T19:38:43Z</time>
      </trkpt>
      <trkpt lat="45.04667" lon="5.83149">
        <ele>418</ele>
        <time>2017-12-15T19:38:49Z</time>
      </trkpt>
      <trkpt lat="45.04659" lon="5.83105">
        <ele>428</ele>
        <time>2017-12-15T19:38:59Z</time>
      </trkpt>
      <trkpt lat="45.04649" lon="5.83071">
        <ele>421</ele>
        <time>2017-12-15T19:39:02Z</time>
      </trkpt>
      <trkpt lat="45.04647" lon="5.83055">
        <ele>422</ele>
        <time>2017-12-15T19:39:19Z</time>
      </trkpt>
      <trkpt lat="45.04651" lon="5.83035">
        <ele>421</ele>
        <time>2017-12-15T19:39:25Z</time>
      </trkpt>
      <trkpt lat="45.04655" lon="5.8301">
        <ele>418</ele>
        <time>2017-12-15T19:39:29Z</time>
      </trkpt>
      <trkpt lat="45.04653" lon="5.82967">
        <ele>419</ele>
        <time>2017-12-15T19:39:49Z</time>
      </trkpt>
      <trkpt lat="45.04654" lon="5.82937">
        <ele>419</ele>
        <time>2017-12-15T19:40:00Z</time>
      </trkpt>
      <trkpt lat="45.0466" lon="5.82911">
        <ele>419</ele>
        <time>2017-12-15T19:40:19Z</time>
      </trkpt>
      <trkpt lat="45.04664" lon="5.8289">
        <ele>422</ele>
        <time>2017-12-15T19:40:37Z</time>
      </trkpt>
      <trkpt lat="45.04667" lon="5.82869">
        <ele>419</ele>
        <time>2017-12-15T19:40:44Z</time>
      </trkpt>
      <trkpt lat="45.04661" lon="5.82842">
        <ele>425</ele>
        <time>2017-12-15T19:40:53Z</time>
      </trkpt>
      <trkpt lat="45.04652" lon="5.82817">
        <ele>428</ele>
        <time>2017-12-15T19:41:13Z</time>
      </trkpt>
      <trkpt lat="45.04645" lon="5.8279">
        <ele>429</ele>
        <time>2017-12-15T19:41:25Z</time>
      </trkpt>
      <trkpt lat="45.04641" lon="5.82759">
        <ele>430</ele>
        <time>2017-12-15T19:41:45Z</time>
      </trkpt>
      <trkpt lat="45.04639" lon="5.82755">
        <ele>430</ele>
        <time>2017-12-15T19:41:49Z</time>
      </trkpt>
      <trkpt lat="45.04629" lon="5.8275">
        <ele>433</ele>
        <time>2017-12-15T19:42:03Z</time>
      </trkpt>
      <trkpt lat="45.04624" lon="5.82751">
        <ele>430</ele>
        <time>2017-12-15T19:42:10Z</time>
      </trkpt>
      <trkpt lat="45.04608" lon="5.82766">
        <ele>431</ele>
        <time>2017-12-15T19:42:24Z</time>
      </trkpt>
      <trkpt lat="45.04577" lon="5.8278">
        <ele>436</ele>
        <time>2017-12-15T19:42:44Z</time>
      </trkpt>
      <trkpt lat="45.04515" lon="5.82812">
        <ele>440</ele>
        <time>2017-12-15T19:43:00Z</time>
      </trkpt>
      <trkpt lat="45.04503" lon="5.82821">
        <ele>441</ele>
        <time>2017-12-15T19:43:05Z</time>
      </trkpt>
      <trkpt lat="45.04496" lon="5.82831">
        <ele>444</ele>
        <time>2017-12-15T19:43:23Z</time>
      </trkpt>
      <trkpt lat="45.0449" lon="5.82847">
        <ele>449</ele>
        <time>2017-12-15T19:43:36Z</time>
      </trkpt>
      <trkpt lat="45.04484" lon="5.82876">
        <ele>452</ele>
        <time>2017-12-15T19:43:46Z</time>
      </trkpt>
      <trkpt lat="45.04478" lon="5.82882">
        <ele>453</ele>
        <time>2017-12-15T19:43:55Z</time>
      </trkpt>
      <trkpt lat="45.04472" lon="5.82885">
        <ele>453</ele>
        <time>2017-12-15T19:43:57Z</time>
      </trkpt>
      <trkpt lat="45.04465" lon="5.82884">
        <ele>454</ele>
        <time>2017-12-15T19:44:10Z</time>
      </trkpt>
      <trkpt lat="45.04459" lon="5.82878">
        <ele>455</ele>
        <time>2017-12-15T19:44:14Z</time>
      </trkpt>
      <trkpt lat="45.04457" lon="5.82866">
        <ele>455</ele>
        <time>2017-12-15T19:44:18Z</time>
      </trkpt>
      <trkpt lat="45.04456" lon="5.82833">
        <ele>452</ele>
        <time>2017-12-15T19:44:38Z</time>
      </trkpt>
      <trkpt lat="45.04453" lon="5.82803">
        <ele>452</ele>
        <time>2017-12-15T19:44:52Z</time>
      </trkpt>
      <trkpt lat="45.0444" lon="5.82743">
        <ele>454</ele>
        <time>2017-12-15T19:45:09Z</time>
      </trkpt>
      <trkpt lat="45.04438" lon="5.82712">
        <ele>454</ele>
        <time>2017-12-15T19:45:27Z</time>
      </trkpt>
      <trkpt lat="45.04437" lon="5.82676">
        <ele>456</ele>
        <time>2017-12-15T19:45:46Z</time>
      </trkpt>
      <trkpt lat="45.0444" lon="5.82624">
        <ele>458</ele>
        <time>2017-12-15T19:46:02Z</time>
      </trkpt>
      <trkpt lat="45.04442" lon="5.8261">
        <ele>458</ele>
        <time>2017-12-15T19:46:11Z</time>
      </trkpt>
      <trkpt lat="45.04448" lon="5.82592">
        <ele>458</ele>
        <time>2017-12-15T19:46:15Z</time>
      </trkpt>
      <trkpt lat="45.0446" lon="5.82574">
        <ele>465</ele>
        <time>2017-12-15T19:46:31Z</time>
      </trkpt>
      <trkpt lat="45.04475" lon="5.82552">
        <ele>466</ele>
        <time>2017-12-15T19:46:37Z</time>
      </trkpt>
      <trkpt lat="45.04485" lon="5.82543">
        <ele>467</ele>
        <time>2017-12-15T19:46:45Z</time>
      </trkpt>
      <trkpt lat="45.04493" lon="5.8254">
        <ele>468</ele>
        <time>2017-12-15T19:46:52Z</time>
      </trkpt>
      <trkpt lat="45.04514" lon="5.82539">
        <ele>466</ele>
        <time>2017-12-15T19:47:00Z</time>
      </trkpt>
      <trkpt lat="45.04556" lon="5.82538">
        <ele>465</ele>
        <time>2017-12-15T19:47:11Z</time>
      </trkpt>
      <trkpt lat="45.0457" lon="5.82533">
        <ele>465</ele>
        <time>2017-12-15T19:47:19Z</time>
      </trkpt>
      <trkpt lat="45.04579" lon="5.82526">
        <ele>467</ele>
        <time>2017-12-15T19:47:21Z</time>
      </trkpt>
      <trkpt lat="45.04585" lon="5.82517">
        <ele>463</ele>
        <time>2017-12-15T19:47:38Z</time>
      </trkpt>
      <trkpt lat="45.0459" lon="5.82505">
        <ele>467</ele>
        <time>2017-12-15T19:47:44Z</time>
      </trkpt>
      <trkpt lat="45.04602" lon="5.82467">
        <ele>473</ele>
        <time>2017-12-15T19:47:57Z</time>
      </trkpt>
      <trkpt lat="45.0461" lon="5.8245">
        <ele>474</ele>
        <time>2017-12-15T19:48:06Z</time>
      </trkpt>
      <trkpt lat="45.04632" lon="5.82427">
        <ele>473</ele>
        <time>2017-12-15T19:48:14Z</time>
      </trkpt>
      <trkpt lat="45.0464" lon="5.82415">
        <ele>482</ele>
        <time>2017-12-15T19:48:21Z</time>
      </trkpt>
      <trkpt lat="45.04643" lon="5.82399">
        <ele>483</ele>
        <time>2017-12-15T19:48:30Z</time>
      </trkpt>
      <trkpt lat="45.04643" lon="5.82386">
        <ele>485</ele>
        <time>2017-12-15T19:48:41Z</time>
      </trkpt>
      <trkpt lat="45.04644" lon="5.82357">
        <ele>488</ele>
        <time>2017-12-15T19:48:59Z</time>
      </trkpt>
      <trkpt lat="45.0465" lon="5.82332">
        <ele>497</ele>
        <time>2017-12-15T19:49:10Z</time>
      </trkpt>
      <trkpt lat="45.04666" lon="5.82296">
        <ele>503</ele>
        <time>2017-12-15T19:49:30Z</time>
      </trkpt>
      <trkpt lat="45.04686" lon="5.82272">
        <ele>489</ele>
        <time>2017-12-15T19:49:46Z</time>
      </trkpt>
      <trkpt lat="45.04688" lon="5.8226">
        <ele>491</ele>
        <time>2017-12-15T19:49:59Z</time>
      </trkpt>
      <trkpt lat="45.04687" lon="5.82255">
        <ele>492</ele>
        <time>2017-12-15T19:50:02Z</time>
      </trkpt>
      <trkpt lat="45.04697" lon="5.82231">
        <ele>503</ele>
        <time>2017-12-15T19:50:17Z</time>
      </trkpt>
      <trkpt lat="45.04751" lon="5.82165">
        <ele>500</ele>
        <time>2017-12-15T19:50:26Z</time>
      </trkpt>
      <trkpt lat="45.04761" lon="5.82148">
        <ele>500</ele>
        <time>2017-12-15T19:50:29Z</time>
      </trkpt>
      <trkpt lat="45.04781" lon="5.82095">
        <ele>506</ele>
        <time>2017-12-15T19:50:49Z</time>
      </trkpt>
      <trkpt lat="45.04791" lon="5.8207">
        <ele>521</ele>
        <time>2017-12-15T19:51:02Z</time>
      </trkpt>
      <trkpt lat="45.04802" lon="5.82053">
        <ele>521</ele>
        <time>2017-12-15T19:51:21Z</time>
      </trkpt>
      <trkpt lat="45.04832" lon="5.82007">
        <ele>519</ele>
        <time>2017-12-15T19:51:25Z</time>
      </trkpt>
      <trkpt lat="45.04845" lon="5.81991">
        <ele>517</ele>
        <time>2017-12-15T19:51:31Z</time>
      </trkpt>
      <trkpt lat="45.04863" lon="5.81977">
        <ele>516</ele>
        <time>2017-12-15T19:51:35Z</time>
      </trkpt>
      <trkpt lat="45.04877" lon="5.81965">
        <ele>516</ele>
        <time>2017-12-15T19:51:44Z</time>
      </trkpt>
      <trkpt lat="45.04942" lon="5.81886">
        <ele>518</ele>
        <time>2017-12-15T19:52:04Z</time>
      </trkpt>
      <trkpt lat="45.05009" lon="5.81819">
        <ele>519</ele>
        <time>2017-12-15T19:52:15Z</time>
      </trkpt>
      <trkpt lat="45.05021" lon="5.81805">
        <ele>518</ele>
        <time>2017-12-15T19:52:34Z</time>
      </trkpt>
      <trkpt lat="45.05038" lon="5.81775">
        <ele>519</ele>
        <time>2017-12-15T19:52:49Z</time>
      </trkpt>
      <trkpt lat="45.05073" lon="5.81701">
        <ele>531</ele>
        <time>2017-12-15T19:52:59Z</time>
      </trkpt>
      <trkpt lat="45.05075" lon="5.81686">
        <ele>532</ele>
        <time>2017-12-15T19:53:16Z</time>
      </trkpt>
      <trkpt lat="45.05072" lon="5.81665">
        <ele>539</ele>
        <time>2017-12-15T19:53:32Z</time>
      </trkpt>
      <trkpt lat="45.05069" lon="5.81634">
        <ele>547</ele>
        <time>2017-12-15T19:53:43Z</time>
      </trkpt>
      <trkpt lat="45.05076" lon="5.81602">
        <ele>551</ele>
        <time>2017-12-15T19:53:59Z</time>
      </trkpt>
      <trkpt lat="45.05086" lon="5.81579">
        <ele>548</ele>
        <time>2017-12-15T19:54:16Z</time>
      </trkpt>
      <trkpt lat="45.05097" lon="5.81558">
        <ele>545</ele>
        <time>2017-12-15T19:54:34Z</time>
      </trkpt>
      <trkpt lat="45.05113" lon="5.81543">
        <ele>543</ele>
        <time>2017-12-15T19:54:44Z</time>
      </trkpt>
      <trkpt lat="45.05122" lon="5.81536">
        <ele>542</ele>
        <time>2017-12-15T19:54:58Z</time>
      </trkpt>
      <trkpt lat="45.05128" lon="5.81529">
        <ele>541</ele>
        <time>2017-12-15T19:55:10Z</time>
      </trkpt>
      <trkpt lat="45.05132" lon="5.8151">
        <ele>541</ele>
        <time>2017-12-15T19:55:18Z</time>
      </trkpt>
      <trkpt lat="45.05141" lon="5.81473">
        <ele>556</ele>
        <time>2017-12-15T19:55:37Z</time>
      </trkpt>
      <trkpt lat="45.05149" lon="5.81443">
        <ele>557</ele>
        <time>2017-12-15T19:55:48Z</time>
      </trkpt>
      <trkpt lat="45.05156" lon="5.8135">
        <ele>569</ele>
        <time>2017-12-15T19:55:53Z</time>
      </trkpt>
      <trkpt lat="45.05156" lon="5.81293">
        <ele>578</ele>
        <time>2017-12-15T19:55:55Z</time>
      </trkpt>
      <trkpt lat="45.05151" lon="5.81257">
        <ele>572</ele>
        <time>2017-12-15T19:56:14Z</time>
      </trkpt>
      <trkpt lat="45.05149" lon="5.81231">
        <ele>576</ele>
        <time>2017-12-15T19:56:31Z</time>
      </trkpt>
      <trkpt lat="45.05155" lon="5.81166">
        <ele>567</ele>
        <time>2017-12-15T19:56:40Z</time>
      </trkpt>
      <trkpt lat="45.05142" lon="5.811">
        <ele>573</ele>
        <time>2017-12-15T19:56:57Z</time>
      </trkpt>
      <trkpt lat="45.05142" lon="5.81074">
        <ele>567</ele>
        <time>2017-12-15T19:57:08Z</time>
      </trkpt>
      <trkpt lat="45.05149" lon="5.81053">
        <ele>566</ele>
        <time>2017-12-15T19:57:19Z</time>
      </trkpt>
      <trkpt lat="45.05152" lon="5.81032">
        <ele>565</ele>
        <time>2017-12-15T19:57:37Z</time>
      </trkpt>
      <trkpt lat="45.05148" lon="5.8102">
        <ele>564</ele>
        <time>2017-12-15T19:57:54Z</time>
      </trkpt>
      <trkpt lat="45.05133" lon="5.80997">
        <ele>559</ele>
        <time>2017-12-15T19:58:08Z</time>
      </trkpt>
      <trkpt lat="45.05107" lon="5.80962">
        <ele>560</ele>
        <time>2017-12-15T19:58:18Z</time>
      </trkpt>
      <trkpt lat="45.05071" lon="5.80927">
        <ele>568</ele>
        <time>2017-12-15T19:58:27Z</time>
      </trkpt>
      <trkpt lat="45.05055" lon="5.80917">
        <ele>571</ele>
        <time>2017-12-15T19:58:47Z</time>
      </trkpt>
      <trkpt lat="45.0503" lon="5.80909">
        <ele>562</ele>
        <time>2017-12-15T19:59:03Z</time>
      </trkpt>
      <trkpt lat="45.05012" lon="5.80906">
        <ele>566</ele>
        <time>2017-12-15T19:59:10Z</time>
      </trkpt>
      <trkpt lat="45.04983" lon="5.80905">
        <ele>568</ele>
        <time>2017-12-15T19:59:21Z</time>
      </trkpt>
      <trkpt lat="45.04954" lon="5.80911">
        <ele>566</ele>
        <time>2017-12-15T19:59:28Z</time>
      </trkpt>
      <trkpt lat="45.04934" lon="5.80921">
        <ele>578</ele>
        <time>2017-12-15T19:59:47Z</time>
      </trkpt>
      <trkpt lat="45.04892" lon="5.80948">
        <ele>585</ele>
        <time>2017-12-15T19:59:57Z</time>
      </trkpt>
      <trkpt lat="45.04862" lon="5.80965">
        <ele>589</ele>
        <time>2017-12-15T20:00:04Z</time>
      </trkpt>
      <trkpt lat="45.04836" lon="5.80974">
        <ele>593</ele>
        <time>2017-12-15T20:00:18Z</time>
      </trkpt>
      <trkpt lat="45.0482" lon="5.80975">
        <ele>601</ele>
        <time>2017-12-15T20:00:33Z</time>
      </trkpt>
      <trkpt lat="45.04802" lon="5.80968">
        <ele>600</ele>
        <time>2017-12-15T20:00:39Z</time>
      </trkpt>
      <trkpt lat="45.04775" lon="5.8095">
        <ele>599</ele>
        <time>2017-12-15T20:00:52Z</time>
      </trkpt>
      <trkpt lat="45.04728" lon="5.8093">
        <ele>613</ele>
        <time>2017-12-15T20:00:57Z</time>
      </trkpt>
      <trkpt lat="45.0468" lon="5.80911">
        <ele>607</ele>
        <time>2017-12-15T20:01:03Z</time>
      </trkpt>
      <trkpt lat="45.04647" lon="5.80887">
        <ele>624</ele>
        <time>2017-12-15T20:01:20Z</time>
      </trkpt>
      <trkpt lat="45.04602" lon="5.8084">
        <ele>627</ele>
        <time>2017-12-15T20:01:24Z</time>
      </trkpt>
      <trkpt lat="45.04587" lon="5.80819">
        <ele>615</ele>
        <time>2017-12-15T20:01:31Z</time>
      </trkpt>
      <trkpt lat="45.0458" lon="5.80804">
        <ele>632</ele>
        <time>2017-12-15T20:01:43Z</time>
      </trkpt>
      <trkpt lat="45.04577" lon="5.80791">
        <ele>630</ele>
        <time>2017-12-15T20:01:55Z</time>
      </trkpt>
      <trkpt lat="45.0457" lon="5.80774">
        <ele>625</ele>
        <time>2017-12-15T20:02:11Z</time>
      </trkpt>
      <trkpt lat="45.04553" lon="5.80757">
        <ele>628</ele>
        <time>2017-12-15T20:02:31Z</time>
      </trkpt>
      <trkpt lat="45.04536" lon="5.80742">
        <ele>618</ele>
        <time>2017-12-15T20:02:38Z</time>
      </trkpt>
      <trkpt lat="45.04524" lon="5.80727">
        <ele>621</ele>
        <time>2017-12-15T20:02:54Z</time>
      </trkpt>
      <trkpt lat="45.04507" lon="5.8069">
        <ele>618</ele>
        <time>2017-12-15T20:03:05Z</time>
      </trkpt>
      <trkpt lat="45.04489" lon="5.80651">
        <ele>626</ele>
        <time>2017-12-15T20:03:16Z</time>
      </trkpt>
      <trkpt lat="45.04443" lon="5.80605">
        <ele>631</ele>
        <time>2017-12-15T20:03:28Z</time>
      </trkpt>
      <trkpt lat="45.04423" lon="5.80582">
        <ele>631</ele>
        <time>2017-12-15T20:03:34Z</time>
      </trkpt>
      <trkpt lat="45.04397" lon="5.80557">
        <ele>649</ele>
        <time>2017-12-15T20:03:41Z</time>
      </trkpt>
      <trkpt lat="45.0439" lon="5.80536">
        <ele>649</ele>
        <time>2017-12-15T20:03:44Z</time>
      </trkpt>
      <trkpt lat="45.04336" lon="5.80343">
        <ele>642</ele>
        <time>2017-12-15T20:03:47Z</time>
      </trkpt>
      <trkpt lat="45.04327" lon="5.80296">
        <ele>663</ele>
        <time>2017-12-15T20:03:51Z</time>
      </trkpt>
      <trkpt lat="45.04314" lon="5.80251">
        <ele>658</ele>
        <time>2017-12-15T20:03:57Z</time>
      </trkpt>
      <trkpt lat="45.04283" lon="5.80169">
        <ele>660</ele>
        <time>2017-12-15T20:04:01Z</time>
      </trkpt>
      <trkpt lat="45.04253" lon="5.80079">
        <ele>660</ele>
        <time>2017-12-15T20:04:18Z</time>
      </trkpt>
      <trkpt lat="45.04245" lon="5.80046">
        <ele>675</ele>
        <time>2017-12-15T20:04:22Z</time>
      </trkpt>
      <trkpt lat="45.04237" lon="5.80007">
        <ele>668</ele>
        <time>2017-12-15T20:04:31Z</time>
      </trkpt>
      <trkpt lat="45.04221" lon="5.7998">
        <ele>673</ele>
        <time>2017-12-15T20:04:38Z</time>
      </trkpt>
      <trkpt lat="45.04209" lon="5.79935">
        <ele>676</ele>
        <time>2017-12-15T20:04:55Z</time>
      </trkpt>
      <trkpt lat="45.04205" lon="5.79909">
        <ele>675</ele>
        <time>2017-12-15T20:05:13Z</time>
      </trkpt>
      <trkpt lat="45.04205" lon="5.79832">
        <ele>675</ele>
        <time>2017-12-15T20:05:23Z</time>
      </trkpt>
      <trkpt lat="45.0421" lon="5.79788">
        <ele>673</ele>
        <time>2017-12-15T20:05:31Z</time>
      </trkpt>
      <trkpt lat="45.04209" lon="5.79758">
        <ele>674</ele>
        <time>2017-12-15T20:05:45Z</time>
      </trkpt>
      <trkpt lat="45.04207" lon="5.79717">
        <ele>674</ele>
        <time>2017-12-15T20:06:02Z</time>
      </trkpt>
      <trkpt lat="45.04201" lon="5.79695">
        <ele>676</ele>
        <time>2017-12-15T20:06:17Z</time>
      </trkpt>
      <trkpt lat="45.04191" lon="5.79669">
        <ele>682</ele>
        <time>2017-12-15T20:06:25Z</time>
      </trkpt>
      <trkpt lat="45.04189" lon="5.79647">
        <ele>682</ele>
        <time>2017-12-15T20:06:33Z</time>
      </trkpt>
      <trkpt lat="45.04178" lon="5.79547">
        <ele>685</ele>
        <time>2017-12-15T20:06:48Z</time>
      </trkpt>
      <trkpt lat="45.04177" lon="5.79508">
        <ele>692</ele>
        <time>2017-12-15T20:06:57Z</time>
      </trkpt>
      <trkpt lat="45.0417" lon="5.79462">
        <ele>684</ele>
        <time>2017-12-15T20:07:16Z</time>
      </trkpt>
      <trkpt lat="45.04166" lon="5.79437">
        <ele>715</ele>
        <time>2017-12-15T20:07:31Z</time>
      </trkpt>
      <trkpt lat="45.04168" lon="5.79398">
        <ele>689</ele>
        <time>2017-12-15T20:07:44Z</time>
      </trkpt>
      <trkpt lat="45.04167" lon="5.79375">
        <ele>686</ele>
        <time>2017-12-15T20:08:00Z</time>
      </trkpt>
      <trkpt lat="45.04162" lon="5.79341">
        <ele>711</ele>
        <time>2017-12-15T20:08:07Z</time>
      </trkpt>
      <trkpt lat="45.04163" lon="5.79315">
        <ele>718</ele>
        <time>2017-12-15T20:08:15Z</time>
      </trkpt>
      <trkpt lat="45.04176" lon="5.79231">
        <ele>700</ele>
        <time>2017-12-15T20:08:32Z</time>
      </trkpt>
      <trkpt lat="45.04178" lon="5.79199">
        <ele>698</ele>
        <time>2017-12-15T20:08:39Z</time>
      </trkpt>
      <trkpt lat="45.04172" lon="5.79139">
        <ele>702</ele>
        <time>2017-12-15T20:08:54Z</time>
      </trkpt>
      <trkpt lat="45.04166" lon="5.79074">
        <ele>729</ele>
        <time>2017-12-15T20:09:05Z</time>
      </trkpt>
      <trkpt lat="45.04169" lon="5.79059">
        <ele>710</ele>
        <time>2017-12-15T20:09:09Z</time>
      </trkpt>
      <trkpt lat="45.04177" lon="5.79047">
        <ele>708</ele>
        <time>2017-12-15T20:09:14Z</time>
      </trkpt>
      <trkpt lat="45.042" lon="5.79017">
        <ele>704</ele>
        <time>2017-12-15T20:09:30Z</time>
      </trkpt>
      <trkpt lat="45.04198" lon="5.79">
        <ele>710</ele>
        <time>2017-12-15T20:09:36Z</time>
      </trkpt>
      <trkpt lat="45.04186" lon="5.78964">
        <ele>712</ele>
        <time>2017-12-15T20:09:52Z</time>
      </trkpt>
      <trkpt lat="45.04183" lon="5.78945">
        <ele>714</ele>
        <time>2017-12-15T20:10:04Z</time>
      </trkpt>
      <trkpt lat="45.04183" lon="5.78913">
        <ele>717</ele>
        <time>2017-12-15T20:10:10Z</time>
      </trkpt>
      <trkpt lat="45.04175" lon="5.78881">
        <ele>709</ele>
        <time>2017-12-15T20:10:28Z</time>
      </trkpt>
      <trkpt lat="45.04164" lon="5.78849">
        <ele>734</ele>
        <time>2017-12-15T20:10:41Z</time>
      </trkpt>
      <trkpt lat="45.04145" lon="5.78821">
        <ele>733</ele>
        <time>2017-12-15T20:10:59Z</time>
      </trkpt>
      <trkpt lat="45.04136" lon="5.788">
        <ele>737</ele>
        <time>2017-12-15T20:11:07Z</time>
      </trkpt>
      <trkpt lat="45.04111" lon="5.7873">
        <ele>731</ele>
        <time>2017-12-15T20:11:17Z</time>
      </trkpt>
      <trkpt lat="45.04105" lon="5.78719">
        <ele>730</ele>
        <time>2017-12-15T20:11:27Z</time>
      </trkpt>
      <trkpt lat="45.04078" lon="5.78684">
        <ele>761</ele>
        <time>2017-12-15T20:11:32Z</time>
      </trkpt>
      <trkpt lat="45.04067" lon="5.78665">
        <ele>752</ele>
        <time>2017-12-15T20:11:34Z</time>
      </trkpt>
      <trkpt lat="45.04062" lon="5.78639">
        <ele>755</ele>
        <time>2017-12-15T20:11:38Z</time>
      </trkpt>
      <trkpt lat="45.04054" lon="5.78597">
        <ele>753</ele>
        <time>2017-12-15T20:11:44Z</time>
      </trkpt>
      <trkpt lat="45.04041" lon="5.78579">
        <ele>745</ele>
        <time>2017-12-15T20:11:48Z</time>
      </trkpt>
      <trkpt lat="45.0402" lon="5.78555">
        <ele>750</ele>
        <time>2017-12-15T20:12:04Z</time>
      </trkpt>
      <trkpt lat="45.03993" lon="5.78506">
        <ele>770</ele>
        <time>2017-12-15T20:12:22Z</time>
      </trkpt>
      <trkpt lat="45.0398" lon="5.78477">
        <ele>776</ele>
        <time>2017-12-15T20:12:27Z</time>
      </trkpt>
      <trkpt lat="45.03972" lon="5.78452">
        <ele>778</ele>
        <time>2017-12-15T20:12:37Z</time>
      </trkpt>
      <trkpt lat="45.03965" lon="5.78413">
        <ele>773</ele>
        <time>2017-12-15T20:12:48Z</time>
      </trkpt>
      <trkpt lat="45.03964" lon="5.78396">
        <ele>774</ele>
        <time>2017-12-15T20:13:00Z</time>
      </trkpt>
      <trkpt lat="45.03973" lon="5.78336">
        <ele>769</ele>
        <time>2017-12-15T20:13:07Z</time>
      </trkpt>
      <trkpt lat="45.03976" lon="5.78309">
        <ele>770</ele>
        <time>2017-12-15T20:13:26Z</time>
      </trkpt>
      <trkpt lat="45.03973" lon="5.78294">
        <ele>771</ele>
        <time>2017-12-15T20:13:45Z</time>
      </trkpt>
      <trkpt lat="45.03969" lon="5.78283">
        <ele>772</ele>
        <time>2017-12-15T20:13:52Z</time>
      </trkpt>
      <trkpt lat="45.0396" lon="5.7827">
        <ele>775</ele>
        <time>2017-12-15T20:13:54Z</time>
      </trkpt>
      <trkpt lat="45.03949" lon="5.78252">
        <ele>780</ele>
        <time>2017-12-15T20:14:09Z</time>
      </trkpt>
      <trkpt lat="45.03945" lon="5.78241">
        <ele>782</ele>
        <time>2017-12-15T20:14:22Z</time>
      </trkpt>
      <trkpt lat="45.03943" lon="5.7822">
        <ele>782</ele>
        <time>2017-12-15T20:14:25Z</time>
      </trkpt>
      <trkpt lat="45.03952" lon="5.7818">
        <ele>781</ele>
        <time>2017-12-15T20:14:36Z</time>
      </trkpt>
      <trkpt lat="45.03961" lon="5.78147">
        <ele>779</ele>
        <time>2017-12-15T20:14:52Z</time>
      </trkpt>
      <trkpt lat="45.03961" lon="5.7814">
        <ele>779</ele>
        <time>2017-12-15T20:15:03Z</time>
      </trkpt>
      <trkpt lat="45.03959" lon="5.78122">
        <ele>780</ele>
        <time>2017-12-15T20:15:13Z</time>
      </trkpt>
      <trkpt lat="45.03944" lon="5.78047">
        <ele>784</ele>
        <time>2017-12-15T20:15:24Z</time>
      </trkpt>
      <trkpt lat="45.03939" lon="5.78011">
        <ele>787</ele>
        <time>2017-12-15T20:15:26Z</time>
      </trkpt>
      <trkpt lat="45.03934" lon="5.7794">
        <ele>781</ele>
        <time>2017-12-15T20:15:43Z</time>
      </trkpt>
      <trkpt lat="45.03931" lon="5.77903">
        <ele>780</ele>
        <time>2017-12-15T20:15:55Z</time>
      </trkpt>
      <trkpt lat="45.03925" lon="5.77886">
        <ele>777</ele>
        <time>2017-12-15T20:15:57Z</time>
      </trkpt>
      <trkpt lat="45.03906" lon="5.77865">
        <ele>806</ele>
        <time>2017-12-15T20:16:07Z</time>
      </trkpt>
      <trkpt lat="45.03888" lon="5.77835">
        <ele>808</ele>
        <time>2017-12-15T20:16:20Z</time>
      </trkpt>
      <trkpt lat="45.03828" lon="5.77656">
        <ele>812</ele>
        <time>2017-12-15T20:16:37Z</time>
      </trkpt>
      <trkpt lat="45.03819" lon="5.77627">
        <ele>816</ele>
        <time>2017-12-15T20:16:48Z</time>
      </trkpt>
      <trkpt lat="45.03789" lon="5.77566">
        <ele>811</ele>
        <time>2017-12-15T20:17:03Z</time>
      </trkpt>
      <trkpt lat="45.03784" lon="5.77543">
        <ele>811</ele>
        <time>2017-12-15T20:17:18Z</time>
      </trkpt>
      <trkpt lat="45.03782" lon="5.77529">
        <ele>810</ele>
        <time>2017-12-15T20:17:37Z</time>
      </trkpt>
      <trkpt lat="45.03779" lon="5.77507">
        <ele>810</ele>
        <time>2017-12-15T20:17:39Z</time>
      </trkpt>
      <trkpt lat="45.03773" lon="5.77495">
        <ele>804</ele>
        <time>2017-12-15T20:17:49Z</time>
      </trkpt>
      <trkpt lat="45.03767" lon="5.77485">
        <ele>804</ele>
        <time>2017-12-15T20:17:59Z</time>
      </trkpt>
      <trkpt lat="45.03749" lon="5.77467">
        <ele>826</ele>
        <time>2017-12-15T20:18:05Z</time>
      </trkpt>
      <trkpt lat="45.03717" lon="5.77436">
        <ele>829</ele>
        <time>2017-12-15T20:18:23Z</time>
      </trkpt>
      <trkpt lat="45.03705" lon="5.77416">
        <ele>824</ele>
        <time>2017-12-15T20:18:26Z</time>
      </trkpt>
      <trkpt lat="45.03698" lon="5.77375">
        <ele>824</ele>
        <time>2017-12-15T20:18:29Z</time>
      </trkpt>
      <trkpt lat="45.03693" lon="5.77351">
        <ele>825</ele>
        <time>2017-12-15T20:18:46Z</time>
      </trkpt>
      <trkpt lat="45.03684" lon="5.77319">
        <ele>820</ele>
        <time>2017-12-15T20:18:55Z</time>
      </trkpt>
      <trkpt lat="45.03668" lon="5.77284">
        <ele>814</ele>
        <time>2017-12-15T20:19:07Z</time>
      </trkpt>
      <trkpt lat="45.03656" lon="5.77267">
        <ele>830</ele>
        <time>2017-12-15T20:19:22Z</time>
      </trkpt>
      <trkpt lat="45.0364" lon="5.7725">
        <ele>818</ele>
        <time>2017-12-15T20:19:29Z</time>
      </trkpt>
      <trkpt lat="45.03617" lon="5.77233">
        <ele>821</ele>
        <time>2017-12-15T20:19:37Z</time>
      </trkpt>
      <trkpt lat="45.03599" lon="5.77224">
        <ele>823</ele>
        <time>2017-12-15T20:19:51Z</time>
      </trkpt>
      <trkpt lat="45.03581" lon="5.77218">
        <ele>835</ele>
        <time>2017-12-15T20:19:55Z</time>
      </trkpt>
      <trkpt lat="45.03537" lon="5.77216">
        <ele>838</ele>
        <time>2017-12-15T20:20:10Z</time>
      </trkpt>
      <trkpt lat="45.03518" lon="5.7721">
        <ele>839</ele>
        <time>2017-12-15T20:20:20Z</time>
      </trkpt>
      <trkpt lat="45.03507" lon="5.77205">
        <ele>838</ele>
        <time>2017-12-15T20:20:40Z</time>
      </trkpt>
      <trkpt lat="45.03471" lon="5.77183">
        <ele>845</ele>
        <time>2017-12-15T20:20:51Z</time>
      </trkpt>
      <trkpt lat="45.0345" lon="5.77172">
        <ele>846</ele>
        <time>2017-12-15T20:21:02Z</time>
      </trkpt>
      <trkpt lat="45.03429" lon="5.77171">
        <ele>846</ele>
        <time>2017-12-15T20:21:10Z</time>
      </trkpt>
      <trkpt lat="45.03396" lon="5.77172">
        <ele>852</ele>
        <time>2017-12-15T20:21:24Z</time>
      </trkpt>
      <trkpt lat="45.0333" lon="5.77174">
        <ele>850</ele>
        <time>2017-12-15T20:21:40Z</time>
      </trkpt>
      <trkpt lat="45.03306" lon="5.77171">
        <ele>854</ele>
        <time>2017-12-15T20:22:00Z</time>
      </trkpt>
      <trkpt lat="45.03284" lon="5.77164">
        <ele>839</ele>
        <time>2017-12-15T20:22:15Z</time>
      </trkpt>
      <trkpt lat="45.03279" lon="5.77163">
        <ele>839</ele>
        <time>2017-12-15T20:22:31Z</time>
      </trkpt>
      <trkpt lat="45.03264" lon="5.77168">
        <ele>851</ele>
        <time>2017-12-15T20:22:45Z</time>
      </trkpt>
      <trkpt lat="45.03222" lon="5.77199">
        <ele>853</ele>
        <time>2017-12-15T20:22:50Z</time>
      </trkpt>
      <trkpt lat="45.03196" lon="5.7722">
        <ele>854</ele>
        <time>2017-12-15T20:22:59Z</time>
      </trkpt>
      <trkpt lat="45.0318" lon="5.77237">
        <ele>856</ele>
        <time>2017-12-15T20:23:10Z</time>
      </trkpt>
      <trkpt lat="45.0317" lon="5.77254">
        <ele>860</ele>
        <time>2017-12-15T20:23:15Z</time>
      </trkpt>
      <trkpt lat="45.0316" lon="5.77269">
        <ele>861</ele>
        <time>2017-12-15T20:23:25Z</time>
      </trkpt>
      <trkpt lat="45.03144" lon="5.77281">
        <ele>863</ele>
        <time>2017-12-15T20:23:41Z</time>
      </trkpt>
      <trkpt lat="45.03112" lon="5.77288">
        <ele>863</ele>
        <time>2017-12-15T20:23:44Z</time>
      </trkpt>
      <trkpt lat="45.031" lon="5.77297">
        <ele>864</ele>
        <time>2017-12-15T20:23:58Z</time>
      </trkpt>
      <trkpt lat="45.03086" lon="5.77316">
        <ele>867</ele>
        <time>2017-12-15T20:24:04Z</time>
      </trkpt>
      <trkpt lat="45.03072" lon="5.77336">
        <ele>875</ele>
        <time>2017-12-15T20:24:15Z</time>
      </trkpt>
      <trkpt lat="45.03064" lon="5.77344">
        <ele>877</ele>
        <time>2017-12-15T20:24:24Z</time>
      </trkpt>
      <trkpt lat="45.03055" lon="5.77349">
        <ele>878</ele>
        <time>2017-12-15T20:24:29Z</time>
      </trkpt>
      <trkpt lat="45.03036" lon="5.77353">
        <ele>879</ele>
        <time>2017-12-15T20:24:44Z</time>
      </trkpt>
      <trkpt lat="45.03016" lon="5.77349">
        <ele>877</ele>
        <time>2017-12-15T20:24:52Z</time>
      </trkpt>
      <trkpt lat="45.02997" lon="5.77338">
        <ele>873</ele>
        <time>2017-12-15T20:25:10Z</time>
      </trkpt>
      <trkpt lat="45.0298" lon="5.77333">
        <ele>872</ele>
        <time>2017-12-15T20:25:13Z</time>
      </trkpt>
      <trkpt lat="45.02949" lon="5.77339">
        <ele>886</ele>
        <time>2017-12-15T20:25:21Z</time>
      </trkpt>
      <trkpt lat="45.02938" lon="5.77338">
        <ele>887</ele>
        <time>2017-12-15T20:25:26Z</time>
      </trkpt>
      <trkpt lat="45.02921" lon="5.77327">
        <ele>884</ele>
        <time>2017-12-15T20:25:38Z</time>
      </trkpt>
      <trkpt lat="45.02914" lon="5.77326">
        <ele>889</ele>
        <time>2017-12-15T20:25:56Z</time>
      </trkpt>
      <trkpt lat="45.02908" lon="5.77327">
        <ele>889</ele>
        <time>2017-12-15T20:26:14Z</time>
      </trkpt>
      <trkpt lat="45.029" lon="5.77332">
        <ele>890</ele>
        <time>2017-12-15T20:26:17Z</time>
      </trkpt>
      <trkpt lat="45.02875" lon="5.77357">
        <ele>899</ele>
        <time>2017-12-15T20:26:35Z</time>
      </trkpt>
      <trkpt lat="45.02867" lon="5.77364">
        <ele>900</ele>
        <time>2017-12-15T20:26:45Z</time>
      </trkpt>
      <trkpt lat="45.02857" lon="5.77367">
        <ele>901</ele>
        <time>2017-12-15T20:26:49Z</time>
      </trkpt>
      <trkpt lat="45.02849" lon="5.77364">
        <ele>901</ele>
        <time>2017-12-15T20:27:08Z</time>
      </trkpt>
      <trkpt lat="45.02842" lon="5.77357">
        <ele>902</ele>
        <time>2017-12-15T20:27:11Z</time>
      </trkpt>
      <trkpt lat="45.02835" lon="5.77341">
        <ele>903</ele>
        <time>2017-12-15T20:27:18Z</time>
      </trkpt>
      <trkpt lat="45.02834" lon="5.77317">
        <ele>898</ele>
        <time>2017-12-15T20:27:25Z</time>
      </trkpt>
      <trkpt lat="45.02837" lon="5.77277">
        <ele>893</ele>
        <time>2017-12-15T20:27:41Z</time>
      </trkpt>
      <trkpt lat="45.02833" lon="5.77253">
        <ele>896</ele>
        <time>2017-12-15T20:27:58Z</time>
      </trkpt>
      <trkpt lat="45.02824" lon="5.77236">
        <ele>900</ele>
        <time>2017-12-15T20:28:14Z</time>
      </trkpt>
      <trkpt lat="45.0281" lon="5.77224">
        <ele>903</ele>
        <time>2017-12-15T20:28:17Z</time>
      </trkpt>
      <trkpt lat="45.02805" lon="5.77223">
        <ele>903</ele>
        <time>2017-12-15T20:28:21Z</time>
      </trkpt>
      <trkpt lat="45.02727" lon="5.77224">
        <ele>911</ele>
        <time>2017-12-15T20:28:40Z</time>
      </trkpt>
      <trkpt lat="45.02425" lon="5.77329">
        <ele>915</ele>
        <time>2017-12-15T20:28:58Z</time>
      </trkpt>
      <trkpt lat="45.02338" lon="5.77367">
        <ele>915</ele>
        <time>2017-12-15T20:29:05Z</time>
      </trkpt>
      <trkpt lat="45.0232" lon="5.77376">
        <ele>917</ele>
        <time>2017-12-15T20:29:09Z</time>
      </trkpt>
      <trkpt lat="45.02314" lon="5.77374">
        <ele>918</ele>
        <time>2017-12-15T20:29:19Z</time>
      </trkpt>
      <trkpt lat="45.02312" lon="5.77368">
        <ele>918</ele>
        <time>2017-12-15T20:29:28Z</time>
      </trkpt>
      <trkpt lat="45.02312" lon="5.77363">
        <ele>918</ele>
        <time>2017-12-15T20:29:42Z</time>
      </trkpt>
      <trkpt lat="45.02313" lon="5.77361">
        <ele>919</ele>
        <time>2017-12-15T20:30:01Z</time>
      </trkpt>
      <trkpt lat="45.02335" lon="5.77342">
        <ele>917</ele>
        <time>2017-12-15T20:30:05Z</time>
      </trkpt>
      <trkpt lat="45.02352" lon="5.77326">
        <ele>920</ele>
        <time>2017-12-15T20:30:21Z</time>
      </trkpt>
      <trkpt lat="45.02367" lon="5.77307">
        <ele>921</ele>
        <time>2017-12-15T20:30:37Z</time>
      </trkpt>
      <trkpt lat="45.02388" lon="5.77258">
        <ele>922</ele>
        <time>2017-12-15T20:30:47Z</time>
      </trkpt>
      <trkpt lat="45.02397" lon="5.7724">
        <ele>926</ele>
        <time>2017-12-15T20:30:53Z</time>
      </trkpt>
      <trkpt lat="45.02409" lon="5.77225">
        <ele>927</ele>
        <time>2017-12-15T20:31:03Z</time>
      </trkpt>
      <trkpt lat="45.02429" lon="5.77219">
        <ele>925</ele>
        <time>2017-12-15T20:31:22Z</time>
      </trkpt>
      <trkpt lat="45.02462" lon="5.77219">
        <ele>924</ele>
        <time>2017-12-15T20:31:37Z</time>
      </trkpt>
      <trkpt lat="45.02494" lon="5.77218">
        <ele>924</ele>
        <time>2017-12-15T20:31:57Z</time>
      </trkpt>
      <trkpt lat="45.02502" lon="5.77215">
        <ele>921</ele>
        <time>2017-12-15T20:32:14Z</time>
      </trkpt>
      <trkpt lat="45.02507" lon="5.77208">
        <ele>922</ele>
        <time>2017-12-15T20:32:27Z</time>
      </trkpt>
      <trkpt lat="45.02507" lon="5.77201">
        <ele>922</ele>
        <time>2017-12-15T20:32:32Z</time>
      </trkpt>
      <trkpt lat="45.02505" lon="5.77195">
        <ele>923</ele>
        <time>2017-12-15T20:32:47Z</time>
      </trkpt>
      <trkpt lat="45.02501" lon="5.77188">
        <ele>923</ele>
        <time>2017-12-15T20:33:02Z</time>
      </trkpt>
      <trkpt lat="45.0249" lon="5.77182">
        <ele>926</ele>
        <time>2017-12-15T20:33:09Z</time>
      </trkpt>
      <trkpt lat="45.02414" lon="5.77159">
        <ele>933</ele>
        <time>2017-12-15T20:33:28Z</time>
      </trkpt>
      <trkpt lat="45.02324" lon="5.77133">
        <ele>943</ele>
        <time>2017-12-15T20:33:38Z</time>
      </trkpt>
      <trkpt lat="45.02307" lon="5.77121">
        <ele>944</ele>
        <time>2017-12-15T20:33:57Z</time>
      </trkpt>
      <trkpt lat="45.02273" lon="5.77069">
        <ele>949</ele>
        <time>2017-12-15T20:34:12Z</time>
      </trkpt>
      <trkpt lat="45.02258" lon="5.77037">
        <ele>948</ele>
        <time>2017-12-15T20:34:26Z</time>
      </trkpt>
      <trkpt lat="45.02248" lon="5.77009">
        <ele>956</ele>
        <time>2017-12-15T20:34:44Z</time>
      </trkpt>
      <trkpt lat="45.02229" lon="5.7695">
        <ele>956</ele>
        <time>2017-12-15T20:35:01Z</time>
      </trkpt>
      <trkpt lat="45.02217" lon="5.76922">
        <ele>956</ele>
        <time>2017-12-15T20:35:08Z</time>
      </trkpt>
      <trkpt lat="45.02195" lon="5.76877">
        <ele>957</ele>
        <time>2017-12-15T20:35:27Z</time>
      </trkpt>
      <trkpt lat="45.02153" lon="5.76794">
        <ele>969</ele>
        <time>2017-12-15T20:35:40Z</time>
      </trkpt>
      <trkpt lat="45.0214" lon="5.76764">
        <ele>969</ele>
        <time>2017-12-15T20:36:00Z</time>
      </trkpt>
      <trkpt lat="45.02138" lon="5.76749">
        <ele>967</ele>
        <time>2017-12-15T20:36:10Z</time>
      </trkpt>
      <trkpt lat="45.02135" lon="5.76741">
        <ele>968</ele>
        <time>2017-12-15T20:36:14Z</time>
      </trkpt>
      <trkpt lat="45.02123" lon="5.76723">
        <ele>969</ele>
        <time>2017-12-15T20:36:23Z</time>
      </trkpt>
      <trkpt lat="45.02113" lon="5.76714">
        <ele>969</ele>
        <time>2017-12-15T20:36:32Z</time>
      </trkpt>
      <trkpt lat="45.02095" lon="5.76703">
        <ele>970</ele>
        <time>2017-12-15T20:36:52Z</time>
      </trkpt>
      <trkpt lat="45.0207" lon="5.76695">
        <ele>976</ele>
        <time>2017-12-15T20:37:01Z</time>
      </trkpt>
      <trkpt lat="45.02064" lon="5.76694">
        <ele>976</ele>
        <time>2017-12-15T20:37:05Z</time>
      </trkpt>
      <trkpt lat="45.02057" lon="5.7669">
        <ele>976</ele>
        <time>2017-12-15T20:37:16Z</time>
      </trkpt>
      <trkpt lat="45.02018" lon="5.76668">
        <ele>978</ele>
        <time>2017-12-15T20:37:32Z</time>
      </trkpt>
      <trkpt lat="45.0199" lon="5.76655">
        <ele>979</ele>
        <time>2017-12-15T20:37:41Z</time>
      </trkpt>
      <trkpt lat="45.0195" lon="5.76639">
        <ele>982</ele>
        <time>2017-12-15T20:37:43Z</time>
      </trkpt>
      <trkpt lat="45.01919" lon="5.76628">
        <ele>983</ele>
        <time>2017-12-15T20:37:47Z</time>
      </trkpt>
      <trkpt lat="45.01896" lon="5.76615">
        <ele>990</ele>
        <time>2017-12-15T20:37:55Z</time>
      </trkpt>
      <trkpt lat="45.01857" lon="5.76588">
        <ele>992</ele>
        <time>2017-12-15T20:38:06Z</time>
      </trkpt>
      <trkpt lat="45.01751" lon="5.76496">
        <ele>1001</ele>
        <time>2017-12-15T20:38:15Z</time>
      </trkpt>
      <trkpt lat="45.01509" lon="5.76287">
        <ele>1003</ele>
        <time>2017-12-15T20:38:19Z</time>
      </trkpt>
      <trkpt lat="45.01489" lon="5.76271">
        <ele>1003</ele>
        <time>2017-12-15T20:38:37Z</time>
      </trkpt>
      <trkpt lat="45.01473" lon="5.76262">
        <ele>1003</ele>
        <time>2017-12-15T20:38:44Z</time>
      </trkpt>
      <trkpt lat="45.01446" lon="5.76256">
        <ele>1004</ele>
        <time>2017-12-15T20:39:01Z</time>
      </trkpt>
      <trkpt lat="45.01346" lon="5.76246">
        <ele>1005</ele>
        <time>2017-12-15T20:39:18Z</time>
      </trkpt>
      <trkpt lat="45.01285" lon="5.76239">
        <ele>1004</ele>
        <time>2017-12-15T20:39:27Z</time>
      </trkpt>
      <trkpt lat="45.01213" lon="5.76225">
        <ele>1003</ele>
        <time>2017-12-15T20:39:46Z</time>
      </trkpt>
      <trkpt lat="45.01053" lon="5.76193">
        <ele>1003</ele>
        <time>2017-12-15T20:40:06Z</time>
      </trkpt>
      <trkpt lat="45.01036" lon="5.7619">
        <ele>1003</ele>
        <time>2017-12-15T20:40:13Z</time>
      </trkpt>
      <trkpt lat="45.01003" lon="5.76174">
        <ele>1002</ele>
        <time>2017-12-15T20:40:25Z</time>
      </trkpt>
      <trkpt lat="45.00968" lon="5.76152">
        <ele>1001</ele>
        <time>2017-12-15T20:40:43Z</time>
      </trkpt>
      <trkpt lat="45.00963" lon="5.76149">
        <ele>1001</ele>
        <time>2017-12-15T20:40:49Z</time>
      </trkpt>
      <trkpt lat="45.00921" lon="5.76126">
        <ele>1001</ele>
        <time>2017-12-15T20:41:00Z</time>
      </trkpt>
      <trkpt lat="45.00854" lon="5.76099">
        <ele>1002</ele>
        <time>2017-12-15T20:41:18Z</time>
      </trkpt>
      <trkpt lat="45.00712" lon="5.76043">
        <ele>997</ele>
        <time>2017-12-15T20:41:21Z</time>
      </trkpt>
      <trkpt lat="45.00627" lon="5.76026">
        <ele>996</ele>
        <time>2017-12-15T20:41:41Z</time>
      </trkpt>
      <trkpt lat="45.00582" lon="5.7602">
        <ele>993</ele>
        <time>2017-12-15T20:41:52Z</time>
      </trkpt>
      <trkpt lat="45.0052" lon="5.76011">
        <ele>993</ele>
        <time>2017-12-15T20:42:03Z</time>
      </trkpt>
      <trkpt lat="45.00482" lon="5.76003">
        <ele>993</ele>
        <time>2017-12-15T20:42:23Z</time>
      </trkpt>
      <trkpt lat="45.00429" lon="5.75989">
        <ele>989</ele>
        <time>2017-12-15T20:42:39Z</time>
      </trkpt>
      <trkpt lat="45.00375" lon="5.75969">
        <ele>988</ele>
        <time>2017-12-15T20:42:45Z</time>
      </trkpt>
      <trkpt lat="45.00358" lon="5.75958">
        <ele>988</ele>
        <time>2017-12-15T20:43:00Z</time>
      </trkpt>
      <trkpt lat="45.00348" lon="5.75949">
        <ele>988</ele>
        <time>2017-12-15T20:43:20Z</time>
      </trkpt>
      <trkpt lat="45.00305" lon="5.75895">
        <ele>986</ele>
        <time>2017-12-15T20:43:33Z</time>
      </trkpt>
      <trkpt lat="45.00109" lon="5.75655">
        <ele>980</ele>
        <time>2017-12-15T20:43:47Z</time>
      </trkpt>
      <trkpt lat="45.00015" lon="5.75542">
        <ele>976</ele>
        <time>2017-12-15T20:44:06Z</time>
      </trkpt>
      <trkpt lat="44.99872" lon="5.75366">
        <ele>975</ele>
        <time>2017-12-15T20:44:08Z</time>
      </trkpt>
      <trkpt lat="44.9982" lon="5.75304">
        <ele>974</ele>
        <time>2017-12-15T20:44:22Z</time>
      </trkpt>
      <trkpt lat="44.99782" lon="5.75253">
        <ele>975</ele>
        <time>2017-12-15T20:44:28Z</time>
      </trkpt>
      <trkpt lat="44.99754" lon="5.75236">
        <ele>977</ele>
        <time>2017-12-15T20:44:48Z</time>
      </trkpt>
      <trkpt lat="44.99726" lon="5.75224">
        <ele>975</ele>
        <time>2017-12-15T20:44:55Z</time>
      </trkpt>
      <trkpt lat="44.99703" lon="5.75219">
        <ele>974</ele>
        <time>2017-12-15T20:44:59Z</time>
      </trkpt>
      <trkpt lat="44.99675" lon="5.75215">
        <ele>973</ele>
        <time>2017-12-15T20:45:04Z</time>
      </trkpt>
      <trkpt lat="44.99456" lon="5.75197">
        <ele>968</ele>
        <time>2017-12-15T20:45:14Z</time>
      </trkpt>
      <trkpt lat="44.99244" lon="5.75175">
        <ele>967</ele>
        <time>2017-12-15T20:45:34Z</time>
      </trkpt>
      <trkpt lat="44.9919" lon="5.75169">
        <ele>966</ele>
        <time>2017-12-15T20:45:39Z</time>
      </trkpt>
      <trkpt lat="44.99178" lon="5.75172">
        <ele>966</ele>
        <time>2017-12-15T20:45:44Z</time>
      </trkpt>
      <trkpt lat="44.99158" lon="5.7518">
        <ele>966</ele>
        <time>2017-12-15T20:45:51Z</time>
      </trkpt>
      <trkpt lat="44.99114" lon="5.75209">
        <ele>967</ele>
        <time>2017-12-15T20:46:05Z</time>
      </trkpt>
      <trkpt lat="44.991" lon="5.75214">
        <ele>967</ele>
        <time>2017-12-15T20:46:13Z</time>
      </trkpt>
      <trkpt lat="44.99086" lon="5.75213">
        <ele>967</ele>
        <time>2017-12-15T20:46:32Z</time>
      </trkpt>
      <trkpt lat="44.99064" lon="5.75198">
        <ele>966</ele>
        <time>2017-12-15T20:46:51Z</time>
      </trkpt>
      <trkpt lat="44.98991" lon="5.75142">
        <ele>968</ele>
        <time>2017-12-15T20:47:06Z</time>
      </trkpt>
      <trkpt lat="44.98881" lon="5.7506">
        <ele>970</ele>
        <time>2017-12-15T20:47:26Z</time>
      </trkpt>
      <trkpt lat="44.9884" lon="5.75029">
        <ele>970</ele>
        <time>2017-12-15T20:47:40Z</time>
      </trkpt>
      <trkpt lat="44.98808" lon="5.74997">
        <ele>970</ele>
        <time>2017-12-15T20:47:52Z</time>
      </trkpt>
      <trkpt lat="44.98765" lon="5.74966">
        <ele>970</ele>
        <time>2017-12-15T20:48:04Z</time>
      </trkpt>
      <trkpt lat="44.98705" lon="5.7493">
        <ele>966</ele>
        <time>2017-12-15T20:48:07Z</time>
      </trkpt>
      <trkpt lat="44.98689" lon="5.7492">
        <ele>966</ele>
        <time>2017-12-15T20:48:26Z</time>
      </trkpt>
      <trkpt lat="44.98675" lon="5.74906">
        <ele>967</ele>
        <time>2017-12-15T20:48:37Z</time>
      </trkpt>
      <trkpt lat="44.98662" lon="5.7489">
        <ele>966</ele>
        <time>2017-12-15T20:48:51Z</time>
      </trkpt>
      <trkpt lat="44.98654" lon="5.74876">
        <ele>966</ele>
        <time>2017-12-15T20:49:10Z</time>
      </trkpt>
      <trkpt lat="44.98635" lon="5.74855">
        <ele>966</ele>
        <time>2017-12-15T20:49:19Z</time>
      </trkpt>
      <trkpt lat="44.9862" lon="5.74845">
        <ele>966</ele>
        <time>2017-12-15T20:49:29Z</time>
      </trkpt>
      <trkpt lat="44.98611" lon="5.7484">
        <ele>965</ele>
        <time>2017-12-15T20:49:45Z</time>
      </trkpt>
      <trkpt lat="44.98598" lon="5.74826">
        <ele>967</ele>
        <time>2017-12-15T20:50:04Z</time>
      </trkpt>
      <trkpt lat="44.98585" lon="5.74812">
        <ele>967</ele>
        <time>2017-12-15T20:50:14Z</time>
      </trkpt>
      <trkpt lat="44.98511" lon="5.74725">
        <ele>969</ele>
        <time>2017-12-15T20:50:33Z</time>
      </trkpt>
      <trkpt lat="44.98503" lon="5.74718">
        <ele>969</ele>
        <time>2017-12-15T20:50:51Z</time>
      </trkpt>
      <trkpt lat="44.98498" lon="5.74717">
        <ele>967</ele>
        <time>2017-12-15T20:51:00Z</time>
      </trkpt>
      <trkpt lat="44.98487" lon="5.74719">
        <ele>967</ele>
        <time>2017-12-15T20:51:04Z</time>
      </trkpt>
      <trkpt lat="44.9848" lon="5.7472">
        <ele>967</ele>
        <time>2017-12-15T20:51:17Z</time>
      </trkpt>
      <trkpt lat="44.98468" lon="5.74718">
        <ele>966</ele>
        <time>2017-12-15T20:51:32Z</time>
      </trkpt>
      <trkpt lat="44.98447" lon="5.74703">
        <ele>966</ele>
        <time>2017-12-15T20:51:35Z</time>
      </trkpt>
      <trkpt lat="44.98404" lon="5.74637">
        <ele>968</ele>
        <time>2017-12-15T20:51:44Z</time>
      </trkpt>
      <trkpt lat="44.98357" lon="5.74551">
        <ele>972</ele>
        <time>2017-12-15T20:51:47Z</time>
      </trkpt>
      <trkpt lat="44.9833" lon="5.74513">
        <ele>966</ele>
        <time>2017-12-15T20:51:56Z</time>
      </trkpt>
      <trkpt lat="44.98322" lon="5.7449">
        <ele>967</ele>
        <time>2017-12-15T20:52:13Z</time>
      </trkpt>
      <trkpt lat="44.9832" lon="5.74477">
        <ele>966</ele>
        <time>2017-12-15T20:52:32Z</time>
      </trkpt>
      <trkpt lat="44.9832" lon="5.74431">
        <ele>968</ele>
        <time>2017-12-15T20:52:34Z</time>
      </trkpt>
      <trkpt lat="44.98318" lon="5.74415">
        <ele>973</ele>
        <time>2017-12-15T20:52:36Z</time>
      </trkpt>
      <trkpt lat="44.98312" lon="5.74398">
        <ele>973</ele>
        <time>2017-12-15T20:52:50Z</time>
      </trkpt>
      <trkpt lat="44.98291" lon="5.7437">
        <ele>973</ele>
        <time>2017-12-15T20:53:02Z</time>
      </trkpt>
      <trkpt lat="44.98256" lon="5.74329">
        <ele>977</ele>
        <time>2017-12-15T20:53:09Z</time>
      </trkpt>
      <trkpt lat="44.98182" lon="5.74258">
        <ele>974</ele>
        <time>2017-12-15T20:53:15Z</time>
      </trkpt>
      <trkpt lat="44.9815" lon="5.74227">
        <ele>972</ele>
        <time>2017-12-15T20:53:21Z</time>
      </trkpt>
      <trkpt lat="44.98137" lon="5.7421">
        <ele>972</ele>
        <time>2017-12-15T20:53:25Z</time>
      </trkpt>
      <trkpt lat="44.98128" lon="5.74191">
        <ele>973</ele>
        <time>2017-12-15T20:53:31Z</time>
      </trkpt>
      <trkpt lat="44.98112" lon="5.7415">
        <ele>979</ele>
        <time>2017-12-15T20:53:49Z</time>
      </trkpt>
      <trkpt lat="44.98099" lon="5.74122">
        <ele>981</ele>
        <time>2017-12-15T20:54:02Z</time>
      </trkpt>
      <trkpt lat="44.98081" lon="5.74097">
        <ele>975</ele>
        <time>2017-12-15T20:54:05Z</time>
      </trkpt>
      <trkpt lat="44.98043" lon="5.74057">
        <ele>979</ele>
        <time>2017-12-15T20:54:25Z</time>
      </trkpt>
      <trkpt lat="44.98026" lon="5.74037">
        <ele>979</ele>
        <time>2017-12-15T20:54:35Z</time>
      </trkpt>
      <trkpt lat="44.98008" lon="5.74011">
        <ele>978</ele>
        <time>2017-12-15T20:54:52Z</time>
      </trkpt>
      <trkpt lat="44.98008" lon="5.7401">
        <ele>978</ele>
        <time>2017-12-15T20:54:56Z</time>
      </trkpt>
      <trkpt lat="44.97967" lon="5.73943">
        <ele>977</ele>
        <time>2017-12-15T20:55:09Z</time>
      </trkpt>
      <trkpt lat="44.97952" lon="5.73916">
        <ele>983</ele>
        <time>2017-12-15T20:55:11Z</time>
      </trkpt>
      <trkpt lat="44.97931" lon="5.7389">
        <ele>983</ele>
        <time>2017-12-15T20:55:16Z</time>
      </trkpt>
      <trkpt lat="44.97886" lon="5.73846">
        <ele>971</ele>
        <time>2017-12-15T20:55:32Z</time>
      </trkpt>
      <trkpt lat="44.97869" lon="5.73828">
        <ele>975</ele>
        <time>2017-12-15T20:55:37Z</time>
      </trkpt>
      <trkpt lat="44.9785" lon="5.73802">
        <ele>975</ele>
        <time>2017-12-15T20:55:43Z</time>
      </trkpt>
      <trkpt lat="44.97838" lon="5.73781">
        <ele>976</ele>
        <time>2017-12-15T20:55:56Z</time>
      </trkpt>
      <trkpt lat="44.9782" lon="5.73737">
        <ele>966</ele>
        <time>2017-12-15T20:56:16Z</time>
      </trkpt>
      <trkpt lat="44.9781" lon="5.73701">
        <ele>963</ele>
        <time>2017-12-15T20:56:33Z</time>
      </trkpt>
      <trkpt lat="44.97807" lon="5.73676">
        <ele>965</ele>
        <time>2017-12-15T20:56:35Z</time>
      </trkpt>
      <trkpt lat="44.97816" lon="5.7364">
        <ele>966</ele>
        <time>2017-12-15T20:56:52Z</time>
      </trkpt>
      <trkpt lat="44.97836" lon="5.73596">
        <ele>983</ele>
        <time>2017-12-15T20:57:08Z</time>
      </trkpt>
      <trkpt lat="44.97848" lon="5.73566">
        <ele>987</ele>
        <time>2017-12-15T20:57:22Z</time>
      </trkpt>
      <trkpt lat="44.9785" lon="5.73546">
        <ele>991</ele>
        <time>2017-12-15T20:57:37Z</time>
      </trkpt>
      <trkpt lat="44.97846" lon="5.73532">
        <ele>991</ele>
        <time>2017-12-15T20:57:53Z</time>
      </trkpt>
      <trkpt lat="44.97841" lon="5.73526">
        <ele>991</ele>
        <time>2017-12-15T20:57:58Z</time>
      </trkpt>
      <trkpt lat="44.97834" lon="5.73524">
        <ele>990</ele>
        <time>2017-12-15T20:58:11Z</time>
      </trkpt>
      <trkpt lat="44.97816" lon="5.73514">
        <ele>974</ele>
        <time>2017-12-15T20:58:17Z</time>
      </trkpt>
      <trkpt lat="44.97781" lon="5.73484">
        <ele>981</ele>
        <time>2017-12-15T20:58:28Z</time>
      </trkpt>
      <trkpt lat="44.97744" lon="5.7345">
        <ele>964</ele>
        <time>2017-12-15T20:58:31Z</time>
      </trkpt>
      <trkpt lat="44.9773" lon="5.73433">
        <ele>967</ele>
        <time>2017-12-15T20:58:45Z</time>
      </trkpt>
      <trkpt lat="44.97716" lon="5.73407">
        <ele>974</ele>
        <time>2017-12-15T20:58:48Z</time>
      </trkpt>
      <trkpt lat="44.97708" lon="5.73381">
        <ele>973</ele>
        <time>2017-12-15T20:59:07Z</time>
      </trkpt>
      <trkpt lat="44.97706" lon="5.73334">
        <ele>976</ele>
        <time>2017-12-15T20:59:15Z</time>
      </trkpt>
      <trkpt lat="44.97708" lon="5.73308">
        <ele>988</ele>
        <time>2017-12-15T20:59:34Z</time>
      </trkpt>
      <trkpt lat="44.97706" lon="5.7329">
        <ele>990</ele>
        <time>2017-12-15T20:59:54Z</time>
      </trkpt>
      <trkpt lat="44.97701" lon="5.73283">
        <ele>990</ele>
        <time>2017-12-15T21:00:11Z</time>
      </trkpt>
      <trkpt lat="44.97695" lon="5.73278">
        <ele>989</ele>
        <time>2017-12-15T21:00:22Z</time>
      </trkpt>
      <trkpt lat="44.97624" lon="5.73253">
        <ele>969</ele>
        <time>2017-12-15T21:00:42Z</time>
      </trkpt>
      <trkpt lat="44.97596" lon="5.73234">
        <ele>979</ele>
        <time>2017-12-15T21:00:54Z</time>
      </trkpt>
      <trkpt lat="44.97577" lon="5.73214">
        <ele>967</ele>
        <time>2017-12-15T21:01:02Z</time>
      </trkpt>
      <trkpt lat="44.97558" lon="5.73189">
        <ele>968</ele>
        <time>2017-12-15T21:01:12Z</time>
      </trkpt>
      <trkpt lat="44.97549" lon="5.73171">
        <ele>968</ele>
        <time>2017-12-15T21:01:32Z</time>
      </trkpt>
      <trkpt lat="44.97543" lon="5.73152">
        <ele>972</ele>
        <time>2017-12-15T21:01:43Z</time>
      </trkpt>
      <trkpt lat="44.97541" lon="5.73134">
        <ele>971</ele>
        <time>2017-12-15T21:01:54Z</time>
      </trkpt>
      <trkpt lat="44.97544" lon="5.73104">
        <ele>973</ele>
        <time>2017-12-15T21:02:10Z</time>
      </trkpt>
      <trkpt lat="44.97546" lon="5.7307">
        <ele>976</ele>
        <time>2017-12-15T21:02:28Z</time>
      </trkpt>
      <trkpt lat="44.97542" lon="5.73038">
        <ele>976</ele>
        <time>2017-12-15T21:02:48Z</time>
      </trkpt>
      <trkpt lat="44.97534" lon="5.7301">
        <ele>975</ele>
        <time>2017-12-15T21:03:07Z</time>
      </trkpt>
      <trkpt lat="44.97521" lon="5.72969">
        <ele>978</ele>
        <time>2017-12-15T21:03:13Z</time>
      </trkpt>
      <trkpt lat="44.97505" lon="5.72915">
        <ele>975</ele>
        <time>2017-12-15T21:03:32Z</time>
      </trkpt>
      <trkpt lat="44.975" lon="5.72888">
        <ele>979</ele>
        <time>2017-12-15T21:03:37Z</time>
      </trkpt>
      <trkpt lat="44.97497" lon="5.72865">
        <ele>963</ele>
        <time>2017-12-15T21:03:40Z</time>
      </trkpt>
      <trkpt lat="44.97499" lon="5.72831">
        <ele>970</ele>
        <time>2017-12-15T21:03:53Z</time>
      </trkpt>
      <trkpt lat="44.97502" lon="5.72806">
        <ele>978</ele>
        <time>2017-12-15T21:04:12Z</time>
      </trkpt>
      <trkpt lat="44.97504" lon="5.72748">
        <ele>973</ele>
        <time>2017-12-15T21:04:20Z</time>
      </trkpt>
      <trkpt lat="44.97503" lon="5.72729">
        <ele>977</ele>
        <time>2017-12-15T21:04:36Z</time>
      </trkpt>
      <trkpt lat="44.97497" lon="5.72701">
        <ele>964</ele>
        <time>2017-12-15T21:04:39Z</time>
      </trkpt>
      <trkpt lat="44.97491" lon="5.72672">
        <ele>967</ele>
        <time>2017-12-15T21:04:59Z</time>
      </trkpt>
      <trkpt lat="44.9749" lon="5.72653">
        <ele>966</ele>
        <time>2017-12-15T21:05:12Z</time>
      </trkpt>
      <trkpt lat="44.97495" lon="5.72621">
        <ele>963</ele>
        <time>2017-12-15T21:05:14Z</time>
      </trkpt>
      <trkpt lat="44.975" lon="5.72609">
        <ele>975</ele>
        <time>2017-12-15T21:05:24Z</time>
      </trkpt>
      <trkpt lat="44.97515" lon="5.72588">
        <ele>974</ele>
        <time>2017-12-15T21:05:28Z</time>
      </trkpt>
      <trkpt lat="44.97522" lon="5.72576">
        <ele>976</ele>
        <time>2017-12-15T21:05:39Z</time>
      </trkpt>
      <trkpt lat="44.97524" lon="5.72566">
        <ele>978</ele>
        <time>2017-12-15T21:05:43Z</time>
      </trkpt>
      <trkpt lat="44.97515" lon="5.72539">
        <ele>979</ele>
        <time>2017-12-15T21:05:57Z</time>
      </trkpt>
      <trkpt lat="44.97507" lon="5.72534">
        <ele>979</ele>
        <time>2017-12-15T21:06:03Z</time>
      </trkpt>
      <trkpt lat="44.97494" lon="5.72531">
        <ele>969</ele>
        <time>2017-12-15T21:06:12Z</time>
      </trkpt>
      <trkpt lat="44.9746" lon="5.72525">
        <ele>967</ele>
        <time>2017-12-15T21:06:24Z</time>
      </trkpt>
      <trkpt lat="44.9741" lon="5.72517">
        <ele>961</ele>
        <time>2017-12-15T21:06:37Z</time>
      </trkpt>
      <trkpt lat="44.9738" lon="5.7252">
        <ele>957</ele>
        <time>2017-12-15T21:06:49Z</time>
      </trkpt>
      <trkpt lat="44.97353" lon="5.72525">
        <ele>956</ele>
        <time>2017-12-15T21:06:56Z</time>
      </trkpt>
      <trkpt lat="44.97331" lon="5.72527">
        <ele>949</ele>
        <time>2017-12-15T21:07:04Z</time>
      </trkpt>
      <trkpt lat="44.97311" lon="5.72532">
        <ele>946</ele>
        <time>2017-12-15T21:07:21Z</time>
      </trkpt>
      <trkpt lat="44.97294" lon="5.72539">
        <ele>944</ele>
        <time>2017-12-15T21:07:33Z</time>
      </trkpt>
      <trkpt lat="44.97281" lon="5.72541">
        <ele>943</ele>
        <time>2017-12-15T21:07:50Z</time>
      </trkpt>
      <trkpt lat="44.97271" lon="5.7254">
        <ele>943</ele>
        <time>2017-12-15T21:07:56Z</time>
      </trkpt>
      <trkpt lat="44.97262" lon="5.72533">
        <ele>943</ele>
        <time>2017-12-15T21:08:12Z</time>
      </trkpt>
      <trkpt lat="44.97255" lon="5.72523">
        <ele>943</ele>
        <time>2017-12-15T21:08:32Z</time>
      </trkpt>
      <trkpt lat="44.97235" lon="5.72486">
        <ele>936</ele>
        <time>2017-12-15T21:08:34Z</time>
      </trkpt>
      <trkpt lat="44.97216" lon="5.72442">
        <ele>933</ele>
        <time>2017-12-15T21:08:47Z</time>
      </trkpt>
      <trkpt lat="44.97204" lon="5.72405">
        <ele>934</ele>
        <time>2017-12-15T21:08:58Z</time>
      </trkpt>
      <trkpt lat="44.97201" lon="5.72385">
        <ele>934</ele>
        <time>2017-12-15T21:09:04Z</time>
      </trkpt>
      <trkpt lat="44.97202" lon="5.72366">
        <ele>935</ele>
        <time>2017-12-15T21:09:20Z</time>
      </trkpt>
      <trkpt lat="44.97204" lon="5.7235">
        <ele>936</ele>
        <time>2017-12-15T21:09:32Z</time>
      </trkpt>
      <trkpt lat="44.97202" lon="5.72337">
        <ele>936</ele>
        <time>2017-12-15T21:09:40Z</time>
      </trkpt>
      <trkpt lat="44.97196" lon="5.72327">
        <ele>942</ele>
        <time>2017-12-15T21:09:43Z</time>
      </trkpt>
      <trkpt lat="44.97188" lon="5.72324">
        <ele>939</ele>
        <time>2017-12-15T21:09:56Z</time>
      </trkpt>
      <trkpt lat="44.97163" lon="5.7233">
        <ele>925</ele>
        <time>2017-12-15T21:10:11Z</time>
      </trkpt>
      <trkpt lat="44.97152" lon="5.72329">
        <ele>924</ele>
        <time>2017-12-15T21:10:16Z</time>
      </trkpt>
      <trkpt lat="44.97142" lon="5.72325">
        <ele>922</ele>
        <time>2017-12-15T21:10:35Z</time>
      </trkpt>
      <trkpt lat="44.9713" lon="5.7231">
        <ele>921</ele>
        <time>2017-12-15T21:10:38Z</time>
      </trkpt>
      <trkpt lat="44.97114" lon="5.72281">
        <ele>922</ele>
        <time>2017-12-15T21:10:55Z</time>
      </trkpt>
      <trkpt lat="44.97108" lon="5.72246">
        <ele>934</ele>
        <time>2017-12-15T21:11:06Z</time>
      </trkpt>
      <trkpt lat="44.971" lon="5.72235">
        <ele>933</ele>
        <time>2017-12-15T21:11:19Z</time>
      </trkpt>
      <trkpt lat="44.97092" lon="5.72234">
        <ele>931</ele>
        <time>2017-12-15T21:11:27Z</time>
      </trkpt>
      <trkpt lat="44.97075" lon="5.72238">
        <ele>924</ele>
        <time>2017-12-15T21:11:45Z</time>
      </trkpt>
      <trkpt lat="44.97064" lon="5.72242">
        <ele>925</ele>
        <time>2017-12-15T21:12:03Z</time>
      </trkpt>
      <trkpt lat="44.97056" lon="5.72247">
        <ele>925</ele>
        <time>2017-12-15T21:12:11Z</time>
      </trkpt>
      <trkpt lat="44.97043" lon="5.72259">
        <ele>911</ele>
        <time>2017-12-15T21:12:26Z</time>
      </trkpt>
      <trkpt lat="44.9703" lon="5.72277">
        <ele>909</ele>
        <time>2017-12-15T21:12:41Z</time>
      </trkpt>
      <trkpt lat="44.97019" lon="5.72284">
        <ele>908</ele>
        <time>2017-12-15T21:12:59Z</time>
      </trkpt>
      <trkpt lat="44.97003" lon="5.72286">
        <ele>907</ele>
        <time>2017-12-15T21:13:12Z</time>
      </trkpt>
      <trkpt lat="44.96955" lon="5.72281">
        <ele>903</ele>
        <time>2017-12-15T21:13:18Z</time>
      </trkpt>
      <trkpt lat="44.9688" lon="5.72273">
        <ele>894</ele>
        <time>2017-12-15T21:13:22Z</time>
      </trkpt>
      <trkpt lat="44.96844" lon="5.72261">
        <ele>892</ele>
        <time>2017-12-15T21:13:26Z</time>
      </trkpt>
      <trkpt lat="44.96783" lon="5.72233">
        <ele>889</ele>
        <time>2017-12-15T21:13:34Z</time>
      </trkpt>
      <trkpt lat="44.96743" lon="5.7221">
        <ele>880</ele>
        <time>2017-12-15T21:13:39Z</time>
      </trkpt>
      <trkpt lat="44.96664" lon="5.72167">
        <ele>877</ele>
        <time>2017-12-15T21:13:56Z</time>
      </trkpt>
      <trkpt lat="44.96646" lon="5.72162">
        <ele>877</ele>
        <time>2017-12-15T21:13:58Z</time>
      </trkpt>
      <trkpt lat="44.96628" lon="5.72161">
        <ele>876</ele>
        <time>2017-12-15T21:14:06Z</time>
      </trkpt>
      <trkpt lat="44.96608" lon="5.72163">
        <ele>873</ele>
        <time>2017-12-15T21:14:14Z</time>
      </trkpt>
      <trkpt lat="44.96596" lon="5.7216">
        <ele>871</ele>
        <time>2017-12-15T21:14:22Z</time>
      </trkpt>
      <trkpt lat="44.9657" lon="5.72145">
        <ele>866</ele>
        <time>2017-12-15T21:14:27Z</time>
      </trkpt>
      <trkpt lat="44.96561" lon="5.72148">
        <ele>866</ele>
        <time>2017-12-15T21:14:47Z</time>
      </trkpt>
      <trkpt lat="44.96545" lon="5.7216">
        <ele>865</ele>
        <time>2017-12-15T21:15:01Z</time>
      </trkpt>
      <trkpt lat="44.96512" lon="5.72181">
        <ele>859</ele>
        <time>2017-12-15T21:15:06Z</time>
      </trkpt>
      <trkpt lat="44.96489" lon="5.72189">
        <ele>854</ele>
        <time>2017-12-15T21:15:24Z</time>
      </trkpt>
      <trkpt lat="44.96476" lon="5.7219">
        <ele>853</ele>
        <time>2017-12-15T21:15:27Z</time>
      </trkpt>
      <trkpt lat="44.96452" lon="5.72179">
        <ele>851</ele>
        <time>2017-12-15T21:15:47Z</time>
      </trkpt>
      <trkpt lat="44.96426" lon="5.72166">
        <ele>852</ele>
        <time>2017-12-15T21:15:55Z</time>
      </trkpt>
      <trkpt lat="44.96411" lon="5.72163">
        <ele>849</ele>
        <time>2017-12-15T21:16:15Z</time>
      </trkpt>
      <trkpt lat="44.96417" lon="5.72161">
        <ele>852</ele>
        <time>2017-12-15T21:16:24Z</time>
      </trkpt>
      <trkpt lat="44.96435" lon="5.72156">
        <ele>853</ele>
        <time>2017-12-15T21:16:43Z</time>
      </trkpt>
      <trkpt lat="44.96453" lon="5.72156">
        <ele>855</ele>
        <time>2017-12-15T21:16:58Z</time>
      </trkpt>
      <trkpt lat="44.9645" lon="5.72146">
        <ele>855</ele>
        <time>2017-12-15T21:17:07Z</time>
      </trkpt>
      <trkpt lat="44.96445" lon="5.7214">
        <ele>854</ele>
        <time>2017-12-15T21:17:26Z</time>
      </trkpt>
      <trkpt lat="44.96431" lon="5.72128">
        <ele>853</ele>
        <time>2017-12-15T21:17:37Z</time>
      </trkpt>
      <trkpt lat="44.9642" lon="5.72119">
        <ele>853</ele>
        <time>2017-12-15T21:17:50Z</time>
      </trkpt>
      <trkpt lat="44.9641" lon="5.72102">
        <ele>845</ele>
        <time>2017-12-15T21:18:08Z</time>
      </trkpt>
      <trkpt lat="44.964" lon="5.72109">
        <ele>844</ele>
        <time>2017-12-15T21:18:14Z</time>
      </trkpt>
      <trkpt lat="44.96391" lon="5.72115">
        <ele>844</ele>
        <time>2017-12-15T21:18:32Z</time>
      </trkpt>
      <trkpt lat="44.96385" lon="5.72123">
        <ele>843</ele>
        <time>2017-12-15T21:18:40Z</time>
      </trkpt>
      <trkpt lat="44.96381" lon="5.72132">
        <ele>843</ele>
        <time>2017-12-15T21:19:00Z</time>
      </trkpt>
      <trkpt lat="44.96368" lon="5.72126">
        <ele>842</ele>
        <time>2017-12-15T21:19:08Z</time>
      </trkpt>
      <trkpt lat="44.96361" lon="5.72132">
        <ele>841</ele>
        <time>2017-12-15T21:19:19Z</time>
      </trkpt>
      <trkpt lat="44.9636" lon="5.72144">
        <ele>841</ele>
        <time>2017-12-15T21:19:37Z</time>
      </trkpt>
      <trkpt lat="44.96362" lon="5.72156">
        <ele>841</ele>
        <time>2017-12-15T21:19:41Z</time>
      </trkpt>
      <trkpt lat="44.96358" lon="5.72163">
        <ele>840</ele>
        <time>2017-12-15T21:19:52Z</time>
      </trkpt>
      <trkpt lat="44.96346" lon="5.72161">
        <ele>838</ele>
        <time>2017-12-15T21:20:01Z</time>
      </trkpt>
      <trkpt lat="44.96332" lon="5.72152">
        <ele>829</ele>
        <time>2017-12-15T21:20:11Z</time>
      </trkpt>
      <trkpt lat="44.96321" lon="5.72136">
        <ele>825</ele>
        <time>2017-12-15T21:20:14Z</time>
      </trkpt>
      <trkpt lat="44.96318" lon="5.72116">
        <ele>824</ele>
        <time>2017-12-15T21:20:26Z</time>
      </trkpt>
      <trkpt lat="44.96328" lon="5.72091">
        <ele>830</ele>
        <time>2017-12-15T21:20:28Z</time>
      </trkpt>
      <trkpt lat="44.96341" lon="5.72061">
        <ele>837</ele>
        <time>2017-12-15T21:20:40Z</time>
      </trkpt>
      <trkpt lat="44.96345" lon="5.72031">
        <ele>837</ele>
        <time>2017-12-15T21:20:47Z</time>
      </trkpt>
      <trkpt lat="44.96345" lon="5.71996">
        <ele>833</ele>
        <time>2017-12-15T21:20:49Z</time>
      </trkpt>
      <trkpt lat="44.96345" lon="5.71934">
        <ele>831</ele>
        <time>2017-12-15T21:20:55Z</time>
      </trkpt>
      <trkpt lat="44.96342" lon="5.71913">
        <ele>829</ele>
        <time>2017-12-15T21:21:07Z</time>
      </trkpt>
      <trkpt lat="44.96334" lon="5.71892">
        <ele>831</ele>
        <time>2017-12-15T21:21:19Z</time>
      </trkpt>
      <trkpt lat="44.96298" lon="5.71823">
        <ele>822</ele>
        <time>2017-12-15T21:21:30Z</time>
      </trkpt>
      <trkpt lat="44.96278" lon="5.71793">
        <ele>822</ele>
        <time>2017-12-15T21:21:43Z</time>
      </trkpt>
      <trkpt lat="44.96251" lon="5.7176">
        <ele>820</ele>
        <time>2017-12-15T21:22:02Z</time>
      </trkpt>
      <trkpt lat="44.96206" lon="5.7171">
        <ele>817</ele>
        <time>2017-12-15T21:22:06Z</time>
      </trkpt>
      <trkpt lat="44.96201" lon="5.71708">
        <ele>816</ele>
        <time>2017-12-15T21:22:24Z</time>
      </trkpt>
      <trkpt lat="44.96197" lon="5.71715">
        <ele>815</ele>
        <time>2017-12-15T21:22:36Z</time>
      </trkpt>
      <trkpt lat="44.96199" lon="5.71727">
        <ele>814</ele>
        <time>2017-12-15T21:22:38Z</time>
      </trkpt>
      <trkpt lat="44.96211" lon="5.71764">
        <ele>806</ele>
        <time>2017-12-15T21:22:41Z</time>
      </trkpt>
      <trkpt lat="44.96231" lon="5.71833">
        <ele>806</ele>
        <time>2017-12-15T21:22:52Z</time>
      </trkpt>
      <trkpt lat="44.96232" lon="5.71849">
        <ele>804</ele>
        <time>2017-12-15T21:23:03Z</time>
      </trkpt>
      <trkpt lat="44.96229" lon="5.71861">
        <ele>803</ele>
        <time>2017-12-15T21:23:21Z</time>
      </trkpt>
      <trkpt lat="44.96214" lon="5.7189">
        <ele>801</ele>
        <time>2017-12-15T21:23:36Z</time>
      </trkpt>
      <trkpt lat="44.96205" lon="5.71905">
        <ele>800</ele>
        <time>2017-12-15T21:23:43Z</time>
      </trkpt>
      <trkpt lat="44.96203" lon="5.71915">
        <ele>799</ele>
        <time>2017-12-15T21:23:45Z</time>
      </trkpt>
      <trkpt lat="44.96203" lon="5.71922">
        <ele>796</ele>
        <time>2017-12-15T21:24:01Z</time>
      </trkpt>
      <trkpt lat="44.96215" lon="5.71949">
        <ele>797</ele>
        <time>2017-12-15T21:24:07Z</time>
      </trkpt>
      <trkpt lat="44.96225" lon="5.71979">
        <ele>798</ele>
        <time>2017-12-15T21:24:09Z</time>
      </trkpt>
      <trkpt lat="44.96228" lon="5.7199">
        <ele>799</ele>
        <time>2017-12-15T21:24:14Z</time>
      </trkpt>
      <trkpt lat="44.96226" lon="5.71995">
        <ele>799</ele>
        <time>2017-12-15T21:24:26Z</time>
      </trkpt>
      <trkpt lat="44.96222" lon="5.71996">
        <ele>798</ele>
        <time>2017-12-15T21:24:37Z</time>
      </trkpt>
      <trkpt lat="44.96219" lon="5.71991">
        <ele>797</ele>
        <time>2017-12-15T21:24:56Z</time>
      </trkpt>
      <trkpt lat="44.96214" lon="5.71971">
        <ele>796</ele>
        <time>2017-12-15T21:25:04Z</time>
      </trkpt>
      <trkpt lat="44.96209" lon="5.71957">
        <ele>796</ele>
        <time>2017-12-15T21:25:16Z</time>
      </trkpt>
      <trkpt lat="44.962" lon="5.71944">
        <ele>795</ele>
        <time>2017-12-15T21:25:18Z</time>
      </trkpt>
      <trkpt lat="44.96185" lon="5.71927">
        <ele>793</ele>
        <time>2017-12-15T21:25:29Z</time>
      </trkpt>
      <trkpt lat="44.96166" lon="5.71905">
        <ele>787</ele>
        <time>2017-12-15T21:25:36Z</time>
      </trkpt>
      <trkpt lat="44.96151" lon="5.71884">
        <ele>786</ele>
        <time>2017-12-15T21:25:39Z</time>
      </trkpt>
      <trkpt lat="44.96133" lon="5.71832">
        <ele>790</ele>
        <time>2017-12-15T21:25:42Z</time>
      </trkpt>
      <trkpt lat="44.96125" lon="5.71813">
        <ele>789</ele>
        <time>2017-12-15T21:25:57Z</time>
      </trkpt>
      <trkpt lat="44.96112" lon="5.71805">
        <ele>788</ele>
        <time>2017-12-15T21:26:00Z</time>
      </trkpt>
      <trkpt lat="44.96098" lon="5.71795">
        <ele>787</ele>
        <time>2017-12-15T21:26:17Z</time>
      </trkpt>
      <trkpt lat="44.96072" lon="5.71772">
        <ele>779</ele>
        <time>2017-12-15T21:26:33Z</time>
      </trkpt>
      <trkpt lat="44.96058" lon="5.71764">
        <ele>778</ele>
        <time>2017-12-15T21:26:46Z</time>
      </trkpt>
      <trkpt lat="44.96039" lon="5.71752">
        <ele>776</ele>
        <time>2017-12-15T21:26:58Z</time>
      </trkpt>
      <trkpt lat="44.96022" lon="5.71735">
        <ele>778</ele>
        <time>2017-12-15T21:27:16Z</time>
      </trkpt>
      <trkpt lat="44.96016" lon="5.71726">
        <ele>778</ele>
        <time>2017-12-15T21:27:19Z</time>
      </trkpt>
      <trkpt lat="44.96013" lon="5.71722">
        <ele>778</ele>
        <time>2017-12-15T21:27:26Z</time>
      </trkpt>
      <trkpt lat="44.95983" lon="5.71651">
        <ele>768</ele>
        <time>2017-12-15T21:27:40Z</time>
      </trkpt>
      <trkpt lat="44.95973" lon="5.71633">
        <ele>765</ele>
        <time>2017-12-15T21:27:43Z</time>
      </trkpt>
      <trkpt lat="44.95965" lon="5.71627">
        <ele>764</ele>
        <time>2017-12-15T21:27:53Z</time>
      </trkpt>
      <trkpt lat="44.95952" lon="5.71621">
        <ele>762</ele>
        <time>2017-12-15T21:27:55Z</time>
      </trkpt>
      <trkpt lat="44.9594" lon="5.71612">
        <ele>760</ele>
        <time>2017-12-15T21:28:12Z</time>
      </trkpt>
      <trkpt lat="44.95933" lon="5.71601">
        <ele>758</ele>
        <time>2017-12-15T21:28:19Z</time>
      </trkpt>
      <trkpt lat="44.95931" lon="5.71588">
        <ele>756</ele>
        <time>2017-12-15T21:28:21Z</time>
      </trkpt>
      <trkpt lat="44.95932" lon="5.71578">
        <ele>757</ele>
        <time>2017-12-15T21:28:29Z</time>
      </trkpt>
      <trkpt lat="44.95943" lon="5.71547">
        <ele>762</ele>
        <time>2017-12-15T21:28:39Z</time>
      </trkpt>
      <trkpt lat="44.95942" lon="5.7152">
        <ele>761</ele>
        <time>2017-12-15T21:28:54Z</time>
      </trkpt>
      <trkpt lat="44.95936" lon="5.71494">
        <ele>757</ele>
        <time>2017-12-15T21:29:06Z</time>
      </trkpt>
      <trkpt lat="44.95921" lon="5.71447">
        <ele>758</ele>
        <time>2017-12-15T21:29:18Z</time>
      </trkpt>
      <trkpt lat="44.95902" lon="5.71405">
        <ele>747</ele>
        <time>2017-12-15T21:29:36Z</time>
      </trkpt>
      <trkpt lat="44.95881" lon="5.71371">
        <ele>744</ele>
        <time>2017-12-15T21:29:52Z</time>
      </trkpt>
      <trkpt lat="44.95856" lon="5.71341">
        <ele>740</ele>
        <time>2017-12-15T21:30:04Z</time>
      </trkpt>
      <trkpt lat="44.95831" lon="5.71316">
        <ele>731</ele>
        <time>2017-12-15T21:30:23Z</time>
      </trkpt>
      <trkpt lat="44.95817" lon="5.71294">
        <ele>729</ele>
        <time>2017-12-15T21:30:43Z</time>
      </trkpt>
      <trkpt lat="44.95809" lon="5.71268">
        <ele>730</ele>
        <time>2017-12-15T21:30:57Z</time>
      </trkpt>
      <trkpt lat="44.95806" lon="5.71245">
        <ele>731</ele>
        <time>2017-12-15T21:31:08Z</time>
      </trkpt>
      <trkpt lat="44.95804" lon="5.71204">
        <ele>729</ele>
        <time>2017-12-15T21:31:25Z</time>
      </trkpt>
      <trkpt lat="44.95804" lon="5.7117">
        <ele>730</ele>
        <time>2017-12-15T21:31:42Z</time>
      </trkpt>
      <trkpt lat="44.95803" lon="5.71143">
        <ele>729</ele>
        <time>2017-12-15T21:31:51Z</time>
      </trkpt>
      <trkpt lat="44.95801" lon="5.71128">
        <ele>728</ele>
        <time>2017-12-15T21:32:08Z</time>
      </trkpt>
      <trkpt lat="44.9579" lon="5.71092">
        <ele>727</ele>
        <time>2017-12-15T21:32:12Z</time>
      </trkpt>
      <trkpt lat="44.95774" lon="5.71062">
        <ele>728</ele>
        <time>2017-12-15T21:32:16Z</time>
      </trkpt>
      <trkpt lat="44.95765" lon="5.71051">
        <ele>728</ele>
        <time>2017-12-15T21:32:30Z</time>
      </trkpt>
      <trkpt lat="44.95746" lon="5.71037">
        <ele>713</ele>
        <time>2017-12-15T21:32:41Z</time>
      </trkpt>
      <trkpt lat="44.95731" lon="5.71019">
        <ele>714</ele>
        <time>2017-12-15T21:33:01Z</time>
      </trkpt>
      <trkpt lat="44.95719" lon="5.70993">
        <ele>714</ele>
        <time>2017-12-15T21:33:03Z</time>
      </trkpt>
      <trkpt lat="44.9571" lon="5.70973">
        <ele>712</ele>
        <time>2017-12-15T21:33:18Z</time>
      </trkpt>
      <trkpt lat="44.95704" lon="5.70946">
        <ele>712</ele>
        <time>2017-12-15T21:33:27Z</time>
      </trkpt>
      <trkpt lat="44.95698" lon="5.70932">
        <ele>711</ele>
        <time>2017-12-15T21:33:46Z</time>
      </trkpt>
      <trkpt lat="44.95694" lon="5.7093">
        <ele>710</ele>
        <time>2017-12-15T21:33:58Z</time>
      </trkpt>
      <trkpt lat="44.95691" lon="5.70933">
        <ele>709</ele>
        <time>2017-12-15T21:34:04Z</time>
      </trkpt>
      <trkpt lat="44.95689" lon="5.70944">
        <ele>709</ele>
        <time>2017-12-15T21:34:11Z</time>
      </trkpt>
      <trkpt lat="44.9569" lon="5.70992">
        <ele>707</ele>
        <time>2017-12-15T21:34:27Z</time>
      </trkpt>
      <trkpt lat="44.95692" lon="5.71022">
        <ele>706</ele>
        <time>2017-12-15T21:34:33Z</time>
      </trkpt>
      <trkpt lat="44.957" lon="5.71051">
        <ele>707</ele>
        <time>2017-12-15T21:34:36Z</time>
      </trkpt>
      <trkpt lat="44.95705" lon="5.71064">
        <ele>707</ele>
        <time>2017-12-15T21:34:47Z</time>
      </trkpt>
      <trkpt lat="44.95707" lon="5.71082">
        <ele>707</ele>
        <time>2017-12-15T21:34:50Z</time>
      </trkpt>
      <trkpt lat="44.95706" lon="5.71098">
        <ele>704</ele>
        <time>2017-12-15T21:34:59Z</time>
      </trkpt>
      <trkpt lat="44.95711" lon="5.71127">
        <ele>704</ele>
        <time>2017-12-15T21:35:17Z</time>
      </trkpt>
      <trkpt lat="44.95711" lon="5.71162">
        <ele>703</ele>
        <time>2017-12-15T21:35:32Z</time>
      </trkpt>
      <trkpt lat="44.95703" lon="5.71198">
        <ele>699</ele>
        <time>2017-12-15T21:35:46Z</time>
      </trkpt>
      <trkpt lat="44.95694" lon="5.7123">
        <ele>697</ele>
        <time>2017-12-15T21:36:03Z</time>
      </trkpt>
      <trkpt lat="44.9569" lon="5.71271">
        <ele>693</ele>
        <time>2017-12-15T21:36:10Z</time>
      </trkpt>
      <trkpt lat="44.95693" lon="5.71355">
        <ele>686</ele>
        <time>2017-12-15T21:36:27Z</time>
      </trkpt>
      <trkpt lat="44.95699" lon="5.71376">
        <ele>687</ele>
        <time>2017-12-15T21:36:31Z</time>
      </trkpt>
      <trkpt lat="44.95708" lon="5.71398">
        <ele>688</ele>
        <time>2017-12-15T21:36:50Z</time>
      </trkpt>
      <trkpt lat="44.9571" lon="5.7141">
        <ele>688</ele>
        <time>2017-12-15T21:36:57Z</time>
      </trkpt>
      <trkpt lat="44.95706" lon="5.71416">
        <ele>687</ele>
        <time>2017-12-15T21:37:00Z</time>
      </trkpt>
      <trkpt lat="44.95701" lon="5.71415">
        <ele>685</ele>
        <time>2017-12-15T21:37:19Z</time>
      </trkpt>
      <trkpt lat="44.957" lon="5.71413">
        <ele>685</ele>
        <time>2017-12-15T21:37:28Z</time>
      </trkpt>
      <trkpt lat="44.95689" lon="5.71379">
        <ele>685</ele>
        <time>2017-12-15T21:37:35Z</time>
      </trkpt>
      <trkpt lat="44.95678" lon="5.71341">
        <ele>682</ele>
        <time>2017-12-15T21:37:43Z</time>
      </trkpt>
      <trkpt lat="44.9567" lon="5.71305">
        <ele>689</ele>
        <time>2017-12-15T21:37:58Z</time>
      </trkpt>
      <trkpt lat="44.95649" lon="5.71257">
        <ele>674</ele>
        <time>2017-12-15T21:38:06Z</time>
      </trkpt>
      <trkpt lat="44.95636" lon="5.71226">
        <ele>675</ele>
        <time>2017-12-15T21:38:21Z</time>
      </trkpt>
      <trkpt lat="44.95625" lon="5.7121">
        <ele>673</ele>
        <time>2017-12-15T21:38:25Z</time>
      </trkpt>
      <trkpt lat="44.956" lon="5.71183">
        <ele>668</ele>
        <time>2017-12-15T21:38:28Z</time>
      </trkpt>
      <trkpt lat="44.95593" lon="5.71173">
        <ele>666</ele>
        <time>2017-12-15T21:38:34Z</time>
      </trkpt>
      <trkpt lat="44.95586" lon="5.71171">
        <ele>663</ele>
        <time>2017-12-15T21:38:53Z</time>
      </trkpt>
      <trkpt lat="44.95584" lon="5.71177">
        <ele>665</ele>
        <time>2017-12-15T21:39:05Z</time>
      </trkpt>
      <trkpt lat="44.95584" lon="5.71182">
        <ele>666</ele>
        <time>2017-12-15T21:39:16Z</time>
      </trkpt>
      <trkpt lat="44.95588" lon="5.71193">
        <ele>668</ele>
        <time>2017-12-15T21:39:20Z</time>
      </trkpt>
      <trkpt lat="44.956" lon="5.7122">
        <ele>669</ele>
        <time>2017-12-15T21:39:39Z</time>
      </trkpt>
      <trkpt lat="44.95609" lon="5.71256">
        <ele>664</ele>
        <time>2017-12-15T21:39:50Z</time>
      </trkpt>
      <trkpt lat="44.95617" lon="5.71273">
        <ele>665</ele>
        <time>2017-12-15T21:40:08Z</time>
      </trkpt>
      <trkpt lat="44.95628" lon="5.7129">
        <ele>666</ele>
        <time>2017-12-15T21:40:21Z</time>
      </trkpt>
      <trkpt lat="44.95638" lon="5.71318">
        <ele>667</ele>
        <time>2017-12-15T21:40:38Z</time>
      </trkpt>
      <trkpt lat="44.95645" lon="5.71355">
        <ele>661</ele>
        <time>2017-12-15T21:40:52Z</time>
      </trkpt>
      <trkpt lat="44.95647" lon="5.71382">
        <ele>659</ele>
        <time>2017-12-15T21:40:57Z</time>
      </trkpt>
      <trkpt lat="44.95643" lon="5.71403">
        <ele>658</ele>
        <time>2017-12-15T21:41:05Z</time>
      </trkpt>
      <trkpt lat="44.95636" lon="5.7142">
        <ele>653</ele>
        <time>2017-12-15T21:41:24Z</time>
      </trkpt>
      <trkpt lat="44.95633" lon="5.7144">
        <ele>652</ele>
        <time>2017-12-15T21:41:30Z</time>
      </trkpt>
      <trkpt lat="44.95637" lon="5.71491">
        <ele>652</ele>
        <time>2017-12-15T21:41:33Z</time>
      </trkpt>
      <trkpt lat="44.95637" lon="5.71513">
        <ele>651</ele>
        <time>2017-12-15T21:41:51Z</time>
      </trkpt>
      <trkpt lat="44.95633" lon="5.71543">
        <ele>649</ele>
        <time>2017-12-15T21:42:09Z</time>
      </trkpt>
      <trkpt lat="44.95635" lon="5.71569">
        <ele>650</ele>
        <time>2017-12-15T21:42:12Z</time>
      </trkpt>
      <trkpt lat="44.95633" lon="5.71595">
        <ele>647</ele>
        <time>2017-12-15T21:42:32Z</time>
      </trkpt>
      <trkpt lat="44.95618" lon="5.71649">
        <ele>644</ele>
        <time>2017-12-15T21:42:51Z</time>
      </trkpt>
      <trkpt lat="44.95609" lon="5.71665">
        <ele>642</ele>
        <time>2017-12-15T21:43:05Z</time>
      </trkpt>
      <trkpt lat="44.95596" lon="5.71683">
        <ele>640</ele>
        <time>2017-12-15T21:43:10Z</time>
      </trkpt>
      <trkpt lat="44.9558" lon="5.7172">
        <ele>643</ele>
        <time>2017-12-15T21:43:14Z</time>
      </trkpt>
      <trkpt lat="44.95575" lon="5.71734">
        <ele>643</ele>
        <time>2017-12-15T21:43:27Z</time>
      </trkpt>
      <trkpt lat="44.95571" lon="5.71739">
        <ele>643</ele>
        <time>2017-12-15T21:43:30Z</time>
      </trkpt>
      <trkpt lat="44.95566" lon="5.71742">
        <ele>644</ele>
        <time>2017-12-15T21:43:39Z</time>
      </trkpt>
      <trkpt lat="44.95549" lon="5.71742">
        <ele>647</ele>
        <time>2017-12-15T21:43:42Z</time>
      </trkpt>
      <trkpt lat="44.95542" lon="5.71738">
        <ele>649</ele>
        <time>2017-12-15T21:43:48Z</time>
      </trkpt>
      <trkpt lat="44.95533" lon="5.71722">
        <ele>650</ele>
        <time>2017-12-15T21:43:55Z</time>
      </trkpt>
      <trkpt lat="44.95516" lon="5.71675">
        <ele>648</ele>
        <time>2017-12-15T21:44:05Z</time>
      </trkpt>
      <trkpt lat="44.95495" lon="5.71585">
        <ele>643</ele>
        <time>2017-12-15T21:44:22Z</time>
      </trkpt>
      <trkpt lat="44.95483" lon="5.71537">
        <ele>646</ele>
        <time>2017-12-15T21:44:31Z</time>
      </trkpt>
      <trkpt lat="44.95474" lon="5.71512">
        <ele>646</ele>
        <time>2017-12-15T21:44:34Z</time>
      </trkpt>
      <trkpt lat="44.95458" lon="5.71492">
        <ele>642</ele>
        <time>2017-12-15T21:44:49Z</time>
      </trkpt>
      <trkpt lat="44.95433" lon="5.71481">
        <ele>645</ele>
        <time>2017-12-15T21:44:54Z</time>
      </trkpt>
      <trkpt lat="44.95409" lon="5.71477">
        <ele>655</ele>
        <time>2017-12-15T21:45:08Z</time>
      </trkpt>
      <trkpt lat="44.95384" lon="5.71482">
        <ele>657</ele>
        <time>2017-12-15T21:45:14Z</time>
      </trkpt>
      <trkpt lat="44.95362" lon="5.71484">
        <ele>660</ele>
        <time>2017-12-15T21:45:24Z</time>
      </trkpt>
      <trkpt lat="44.95349" lon="5.71481">
        <ele>661</ele>
        <time>2017-12-15T21:45:38Z</time>
      </trkpt>
      <trkpt lat="44.95342" lon="5.71479">
        <ele>662</ele>
        <time>2017-12-15T21:45:50Z</time>
      </trkpt>
      <trkpt lat="44.95325" lon="5.7147">
        <ele>667</ele>
        <time>2017-12-15T21:46:09Z</time>
      </trkpt>
      <trkpt lat="44.95303" lon="5.71458">
        <ele>666</ele>
        <time>2017-12-15T21:46:14Z</time>
      </trkpt>
      <trkpt lat="44.95291" lon="5.71454">
        <ele>666</ele>
        <time>2017-12-15T21:46:18Z</time>
      </trkpt>
      <trkpt lat="44.95279" lon="5.71455">
        <ele>666</ele>
        <time>2017-12-15T21:46:20Z</time>
      </trkpt>
      <trkpt lat="44.95262" lon="5.71466">
        <ele>668</ele>
        <time>2017-12-15T21:46:39Z</time>
      </trkpt>
      <trkpt lat="44.95238" lon="5.71488">
        <ele>670</ele>
        <time>2017-12-15T21:46:44Z</time>
      </trkpt>
      <trkpt lat="44.95207" lon="5.71503">
        <ele>680</ele>
        <time>2017-12-15T21:47:03Z</time>
      </trkpt>
      <trkpt lat="44.95187" lon="5.7152">
        <ele>678</ele>
        <time>2017-12-15T21:47:09Z</time>
      </trkpt>
      <trkpt lat="44.95163" lon="5.7155">
        <ele>674</ele>
        <time>2017-12-15T21:47:13Z</time>
      </trkpt>
      <trkpt lat="44.95152" lon="5.7157">
        <ele>678</ele>
        <time>2017-12-15T21:47:30Z</time>
      </trkpt>
      <trkpt lat="44.95142" lon="5.71607">
        <ele>689</ele>
        <time>2017-12-15T21:47:46Z</time>
      </trkpt>
      <trkpt lat="44.95132" lon="5.71653">
        <ele>693</ele>
        <time>2017-12-15T21:47:55Z</time>
      </trkpt>
      <trkpt lat="44.95115" lon="5.717">
        <ele>703</ele>
        <time>2017-12-15T21:48:01Z</time>
      </trkpt>
      <trkpt lat="44.95102" lon="5.71734">
        <ele>703</ele>
        <time>2017-12-15T21:48:17Z</time>
      </trkpt>
      <trkpt lat="44.95093" lon="5.71744">
        <ele>701</ele>
        <time>2017-12-15T21:48:37Z</time>
      </trkpt>
      <trkpt lat="44.95085" lon="5.71747">
        <ele>700</ele>
        <time>2017-12-15T21:48:46Z</time>
      </trkpt>
      <trkpt lat="44.95068" lon="5.71744">
        <ele>697</ele>
        <time>2017-12-15T21:49:03Z</time>
      </trkpt>
      <trkpt lat="44.9502" lon="5.71726">
        <ele>697</ele>
        <time>2017-12-15T21:49:19Z</time>
      </trkpt>
      <trkpt lat="44.95009" lon="5.71725">
        <ele>697</ele>
        <time>2017-12-15T21:49:35Z</time>
      </trkpt>
      <trkpt lat="44.94999" lon="5.7173">
        <ele>697</ele>
        <time>2017-12-15T21:49:49Z</time>
      </trkpt>
      <trkpt lat="44.94981" lon="5.71747">
        <ele>697</ele>
        <time>2017-12-15T21:49:54Z</time>
      </trkpt>
      <trkpt lat="44.94942" lon="5.71783">
        <ele>700</ele>
        <time>2017-12-15T21:49:56Z</time>
      </trkpt>
      <trkpt lat="44.94917" lon="5.71811">
        <ele>701</ele>
        <time>2017-12-15T21:50:00Z</time>
      </trkpt>
      <trkpt lat="44.94908" lon="5.71819">
        <ele>699</ele>
        <time>2017-12-15T21:50:16Z</time>
      </trkpt>
      <trkpt lat="44.94902" lon="5.71822">
        <ele>699</ele>
        <time>2017-12-15T21:50:30Z</time>
      </trkpt>
      <trkpt lat="44.94889" lon="5.71824">
        <ele>698</ele>
        <time>2017-12-15T21:50:45Z</time>
      </trkpt>
      <trkpt lat="44.94859" lon="5.71829">
        <ele>697</ele>
        <time>2017-12-15T21:50:50Z</time>
      </trkpt>
      <trkpt lat="44.9483" lon="5.71839">
        <ele>700</ele>
        <time>2017-12-15T21:51:06Z</time>
      </trkpt>
      <trkpt lat="44.94807" lon="5.71851">
        <ele>703</ele>
        <time>2017-12-15T21:51:08Z</time>
      </trkpt>
      <trkpt lat="44.94787" lon="5.71885">
        <ele>707</ele>
        <time>2017-12-15T21:51:11Z</time>
      </trkpt>
      <trkpt lat="44.94779" lon="5.71891">
        <ele>709</ele>
        <time>2017-12-15T21:51:21Z</time>
      </trkpt>
      <trkpt lat="44.94764" lon="5.71895">
        <ele>710</ele>
        <time>2017-12-15T21:51:41Z</time>
      </trkpt>
      <trkpt lat="44.94734" lon="5.71893">
        <ele>717</ele>
        <time>2017-12-15T21:51:52Z</time>
      </trkpt>
      <trkpt lat="44.94707" lon="5.71888">
        <ele>719</ele>
        <time>2017-12-15T21:52:01Z</time>
      </trkpt>
      <trkpt lat="44.94692" lon="5.71881">
        <ele>719</ele>
        <time>2017-12-15T21:52:11Z</time>
      </trkpt>
      <trkpt lat="44.94675" lon="5.71867">
        <ele>718</ele>
        <time>2017-12-15T21:52:30Z</time>
      </trkpt>
      <trkpt lat="44.94643" lon="5.71826">
        <ele>711</ele>
        <time>2017-12-15T21:52:42Z</time>
      </trkpt>
      <trkpt lat="44.94639" lon="5.71819">
        <ele>711</ele>
        <time>2017-12-15T21:52:52Z</time>
      </trkpt>
      <trkpt lat="44.94634" lon="5.71803">
        <ele>711</ele>
        <time>2017-12-15T21:53:11Z</time>
      </trkpt>
      <trkpt lat="44.94628" lon="5.71792">
        <ele>711</ele>
        <time>2017-12-15T21:53:19Z</time>
      </trkpt>
      <trkpt lat="44.94621" lon="5.71786">
        <ele>711</ele>
        <time>2017-12-15T21:53:33Z</time>
      </trkpt>
      <trkpt lat="44.94611" lon="5.71785">
        <ele>711</ele>
        <time>2017-12-15T21:53:43Z</time>
      </trkpt>
      <trkpt lat="44.94601" lon="5.71789">
        <ele>712</ele>
        <time>2017-12-15T21:54:01Z</time>
      </trkpt>
      <trkpt lat="44.94563" lon="5.71824">
        <ele>726</ele>
        <time>2017-12-15T21:54:12Z</time>
      </trkpt>
      <trkpt lat="44.94554" lon="5.71829">
        <ele>726</ele>
        <time>2017-12-15T21:54:28Z</time>
      </trkpt>
      <trkpt lat="44.94545" lon="5.71827">
        <ele>727</ele>
        <time>2017-12-15T21:54:36Z</time>
      </trkpt>
      <trkpt lat="44.94535" lon="5.71816">
        <ele>728</ele>
        <time>2017-12-15T21:54:40Z</time>
      </trkpt>
      <trkpt lat="44.94531" lon="5.71804">
        <ele>728</ele>
        <time>2017-12-15T21:54:52Z</time>
      </trkpt>
      <trkpt lat="44.94527" lon="5.71796">
        <ele>728</ele>
        <time>2017-12-15T21:55:01Z</time>
      </trkpt>
      <trkpt lat="44.94526" lon="5.71787">
        <ele>729</ele>
        <time>2017-12-15T21:55:10Z</time>
      </trkpt>
      <trkpt lat="44.94529" lon="5.71769">
        <ele>729</ele>
        <time>2017-12-15T21:55:28Z</time>
      </trkpt>
      <trkpt lat="44.94538" lon="5.71751">
        <ele>728</ele>
        <time>2017-12-15T21:55:38Z</time>
      </trkpt>
      <trkpt lat="44.94586" lon="5.71669">
        <ele>720</ele>
        <time>2017-12-15T21:55:57Z</time>
      </trkpt>
      <trkpt lat="44.94596" lon="5.71651">
        <ele>717</ele>
        <time>2017-12-15T21:56:13Z</time>
      </trkpt>
      <trkpt lat="44.94601" lon="5.71632">
        <ele>716</ele>
        <time>2017-12-15T21:56:18Z</time>
      </trkpt>
      <trkpt lat="44.94604" lon="5.71606">
        <ele>718</ele>
        <time>2017-12-15T21:56:23Z</time>
      </trkpt>
      <trkpt lat="44.94603" lon="5.71588">
        <ele>720</ele>
        <time>2017-12-15T21:56:29Z</time>
      </trkpt>
      <trkpt lat="44.94598" lon="5.71569">
        <ele>722</ele>
        <time>2017-12-15T21:56:34Z</time>
      </trkpt>
      <trkpt lat="44.94588" lon="5.71542">
        <ele>722</ele>
        <time>2017-12-15T21:56:53Z</time>
      </trkpt>
      <trkpt lat="44.9458" lon="5.7151">
        <ele>736</ele>
        <time>2017-12-15T21:57:00Z</time>
      </trkpt>
      <trkpt lat="44.94576" lon="5.71479">
        <ele>744</ele>
        <time>2017-12-15T21:57:17Z</time>
      </trkpt>
      <trkpt lat="44.94568" lon="5.71437">
        <ele>749</ele>
        <time>2017-12-15T21:57:28Z</time>
      </trkpt>
      <trkpt lat="44.94569" lon="5.71427">
        <ele>748</ele>
        <time>2017-12-15T21:57:38Z</time>
      </trkpt>
      <trkpt lat="44.94572" lon="5.71413">
        <ele>750</ele>
        <time>2017-12-15T21:57:44Z</time>
      </trkpt>
      <trkpt lat="44.94578" lon="5.71396">
        <ele>754</ele>
        <time>2017-12-15T21:57:53Z</time>
      </trkpt>
      <trkpt lat="44.94581" lon="5.71382">
        <ele>757</ele>
        <time>2017-12-15T21:57:56Z</time>
      </trkpt>
      <trkpt lat="44.94583" lon="5.71366">
        <ele>758</ele>
        <time>2017-12-15T21:58:13Z</time>
      </trkpt>
      <trkpt lat="44.94587" lon="5.71353">
        <ele>739</ele>
        <time>2017-12-15T21:58:31Z</time>
      </trkpt>
      <trkpt lat="44.9461" lon="5.71322">
        <ele>741</ele>
        <time>2017-12-15T21:58:46Z</time>
      </trkpt>
      <trkpt lat="44.94627" lon="5.71295">
        <ele>738</ele>
        <time>2017-12-15T21:59:03Z</time>
      </trkpt>
      <trkpt lat="44.94636" lon="5.71279">
        <ele>738</ele>
        <time>2017-12-15T21:59:19Z</time>
      </trkpt>
      <trkpt lat="44.94663" lon="5.71212">
        <ele>746</ele>
        <time>2017-12-15T21:59:37Z</time>
      </trkpt>
      <trkpt lat="44.9468" lon="5.71164">
        <ele>741</ele>
        <time>2017-12-15T21:59:45Z</time>
      </trkpt>
      <trkpt lat="44.94687" lon="5.71135">
        <ele>739</ele>
        <time>2017-12-15T21:59:59Z</time>
      </trkpt>
      <trkpt lat="44.94687" lon="5.71091">
        <ele>743</ele>
        <time>2017-12-15T22:00:10Z</time>
      </trkpt>
      <trkpt lat="44.9472" lon="5.71006">
        <ele>741</ele>
        <time>2017-12-15T22:00:14Z</time>
      </trkpt>
      <trkpt lat="44.94762" lon="5.70908">
        <ele>754</ele>
        <time>2017-12-15T22:00:28Z</time>
      </trkpt>
      <trkpt lat="44.94777" lon="5.70882">
        <ele>756</ele>
        <time>2017-12-15T22:00:33Z</time>
      </trkpt>
      <trkpt lat="44.94789" lon="5.7087">
        <ele>757</ele>
        <time>2017-12-15T22:00:52Z</time>
      </trkpt>
      <trkpt lat="44.94815" lon="5.70857">
        <ele>754</ele>
        <time>2017-12-15T22:00:58Z</time>
      </trkpt>
      <trkpt lat="44.94855" lon="5.70826">
        <ele>752</ele>
        <time>2017-12-15T22:01:05Z</time>
      </trkpt>
      <trkpt lat="44.94884" lon="5.70799">
        <ele>750</ele>
        <time>2017-12-15T22:01:23Z</time>
      </trkpt>
      <trkpt lat="44.94916" lon="5.70763">
        <ele>749</ele>
        <time>2017-12-15T22:01:30Z</time>
      </trkpt>
      <trkpt lat="44.94936" lon="5.70735">
        <ele>746</ele>
        <time>2017-12-15T22:01:46Z</time>
      </trkpt>
      <trkpt lat="44.94951" lon="5.70709">
        <ele>746</ele>
        <time>2017-12-15T22:02:05Z</time>
      </trkpt>
      <trkpt lat="44.94967" lon="5.70671">
        <ele>745</ele>
        <time>2017-12-15T22:02:11Z</time>
      </trkpt>
      <trkpt lat="44.94977" lon="5.70639">
        <ele>760</ele>
        <time>2017-12-15T22:02:16Z</time>
      </trkpt>
      <trkpt lat="44.94998" lon="5.70542">
        <ele>774</ele>
        <time>2017-12-15T22:02:30Z</time>
      </trkpt>
      <trkpt lat="44.95003" lon="5.70509">
        <ele>747</ele>
        <time>2017-12-15T22:02:43Z</time>
      </trkpt>
      <trkpt lat="44.95003" lon="5.70476">
        <ele>735</ele>
        <time>2017-12-15T22:02:58Z</time>
      </trkpt>
      <trkpt lat="44.94995" lon="5.70441">
        <ele>767</ele>
        <time>2017-12-15T22:03:08Z</time>
      </trkpt>
      <trkpt lat="44.94961" lon="5.70339">
        <ele>770</ele>
        <time>2017-12-15T22:03:26Z</time>
      </trkpt>
      <trkpt lat="44.94955" lon="5.70262">
        <ele>766</ele>
        <time>2017-12-15T22:03:28Z</time>
      </trkpt>
      <trkpt lat="44.9495" lon="5.70185">
        <ele>758</ele>
        <time>2017-12-15T22:03:48Z</time>
      </trkpt>
      <trkpt lat="44.94948" lon="5.70167">
        <ele>759</ele>
        <time>2017-12-15T22:04:08Z</time>
      </trkpt>
      <trkpt lat="44.9494" lon="5.70144">
        <ele>755</ele>
        <time>2017-12-15T22:04:13Z</time>
      </trkpt>
      <trkpt lat="44.94921" lon="5.70109">
        <ele>758</ele>
        <time>2017-12-15T22:04:24Z</time>
      </trkpt>
      <trkpt lat="44.94917" lon="5.70084">
        <ele>772</ele>
        <time>2017-12-15T22:04:28Z</time>
      </trkpt>
      <trkpt lat="44.94915" lon="5.70051">
        <ele>783</ele>
        <time>2017-12-15T22:04:48Z</time>
      </trkpt>
      <trkpt lat="44.94906" lon="5.70013">
        <ele>775</ele>
        <time>2017-12-15T22:05:06Z</time>
      </trkpt>
      <trkpt lat="44.94894" lon="5.69972">
        <ele>772</ele>
        <time>2017-12-15T22:05:08Z</time>
      </trkpt>
      <trkpt lat="44.94885" lon="5.69948">
        <ele>772</ele>
        <time>2017-12-15T22:05:14Z</time>
      </trkpt>
      <trkpt lat="44.94872" lon="5.69923">
        <ele>774</ele>
        <time>2017-12-15T22:05:26Z</time>
      </trkpt>
      <trkpt lat="44.94851" lon="5.69893">
        <ele>773</ele>
        <time>2017-12-15T22:05:46Z</time>
      </trkpt>
      <trkpt lat="44.94843" lon="5.6988">
        <ele>773</ele>
        <time>2017-12-15T22:06:04Z</time>
      </trkpt>
      <trkpt lat="44.9484" lon="5.69871">
        <ele>773</ele>
        <time>2017-12-15T22:06:24Z</time>
      </trkpt>
      <trkpt lat="44.94839" lon="5.6986">
        <ele>774</ele>
        <time>2017-12-15T22:06:37Z</time>
      </trkpt>
      <trkpt lat="44.94843" lon="5.69839">
        <ele>779</ele>
        <time>2017-12-15T22:06:51Z</time>
      </trkpt>
      <trkpt lat="44.94851" lon="5.69803">
        <ele>770</ele>
        <time>2017-12-15T22:07:03Z</time>
      </trkpt>
      <trkpt lat="44.94859" lon="5.69749">
        <ele>775</ele>
        <time>2017-12-15T22:07:21Z</time>
      </trkpt>
      <trkpt lat="44.94866" lon="5.69659">
        <ele>777</ele>
        <time>2017-12-15T22:07:27Z</time>
      </trkpt>
      <trkpt lat="44.9487" lon="5.6961">
        <ele>776</ele>
        <time>2017-12-15T22:07:44Z</time>
      </trkpt>
      <trkpt lat="44.94878" lon="5.69569">
        <ele>774</ele>
        <time>2017-12-15T22:07:49Z</time>
      </trkpt>
      <trkpt lat="44.94901" lon="5.69481">
        <ele>762</ele>
        <time>2017-12-15T22:08:08Z</time>
      </trkpt>
      <trkpt lat="44.94903" lon="5.69462">
        <ele>763</ele>
        <time>2017-12-15T22:08:22Z</time>
      </trkpt>
      <trkpt lat="44.94898" lon="5.69446">
        <ele>762</ele>
        <time>2017-12-15T22:08:37Z</time>
      </trkpt>
      <trkpt lat="44.94884" lon="5.6943">
        <ele>763</ele>
        <time>2017-12-15T22:08:41Z</time>
      </trkpt>
      <trkpt lat="44.94838" lon="5.69402">
        <ele>757</ele>
        <time>2017-12-15T22:09:01Z</time>
      </trkpt>
      <trkpt lat="44.94817" lon="5.69398">
        <ele>760</ele>
        <time>2017-12-15T22:09:13Z</time>
      </trkpt>
      <trkpt lat="44.94799" lon="5.69397">
        <ele>758</ele>
        <time>2017-12-15T22:09:32Z</time>
      </trkpt>
      <trkpt lat="44.94789" lon="5.69397">
        <ele>758</ele>
        <time>2017-12-15T22:09:35Z</time>
      </trkpt>
      <trkpt lat="44.94748" lon="5.69406">
        <ele>764</ele>
        <time>2017-12-15T22:09:47Z</time>
      </trkpt>
      <trkpt lat="44.94699" lon="5.69418">
        <ele>789</ele>
        <time>2017-12-15T22:10:05Z</time>
      </trkpt>
      <trkpt lat="44.94685" lon="5.69419">
        <ele>787</ele>
        <time>2017-12-15T22:10:17Z</time>
      </trkpt>
      <trkpt lat="44.94668" lon="5.6941">
        <ele>772</ele>
        <time>2017-12-15T22:10:36Z</time>
      </trkpt>
      <trkpt lat="44.94645" lon="5.69392">
        <ele>765</ele>
        <time>2017-12-15T22:10:41Z</time>
      </trkpt>
      <trkpt lat="44.94626" lon="5.69379">
        <ele>762</ele>
        <time>2017-12-15T22:10:43Z</time>
      </trkpt>
      <trkpt lat="44.94606" lon="5.6937">
        <ele>761</ele>
        <time>2017-12-15T22:11:02Z</time>
      </trkpt>
      <trkpt lat="44.9459" lon="5.69366">
        <ele>760</ele>
        <time>2017-12-15T22:11:06Z</time>
      </trkpt>
      <trkpt lat="44.94563" lon="5.69363">
        <ele>762</ele>
        <time>2017-12-15T22:11:13Z</time>
      </trkpt>
      <trkpt lat="44.94534" lon="5.69363">
        <ele>762</ele>
        <time>2017-12-15T22:11:31Z</time>
      </trkpt>
      <trkpt lat="44.94501" lon="5.69366">
        <ele>761</ele>
        <time>2017-12-15T22:11:50Z</time>
      </trkpt>
      <trkpt lat="44.94478" lon="5.69371">
        <ele>755</ele>
        <time>2017-12-15T22:12:01Z</time>
      </trkpt>
      <trkpt lat="44.94457" lon="5.69383">
        <ele>755</ele>
        <time>2017-12-15T22:12:12Z</time>
      </trkpt>
      <trkpt lat="44.9442" lon="5.6942">
        <ele>767</ele>
        <time>2017-12-15T22:12:30Z</time>
      </trkpt>
      <trkpt lat="44.94405" lon="5.69429">
        <ele>767</ele>
        <time>2017-12-15T22:12:34Z</time>
      </trkpt>
      <trkpt lat="44.94397" lon="5.69428">
        <ele>767</ele>
        <time>2017-12-15T22:12:38Z</time>
      </trkpt>
      <trkpt lat="44.94384" lon="5.69418">
        <ele>766</ele>
        <time>2017-12-15T22:12:45Z</time>
      </trkpt>
      <trkpt lat="44.94376" lon="5.69414">
        <ele>744</ele>
        <time>2017-12-15T22:12:59Z</time>
      </trkpt>
      <trkpt lat="44.94367" lon="5.69416">
        <ele>743</ele>
        <time>2017-12-15T22:13:18Z</time>
      </trkpt>
      <trkpt lat="44.94356" lon="5.69424">
        <ele>761</ele>
        <time>2017-12-15T22:13:30Z</time>
      </trkpt>
      <trkpt lat="44.9435" lon="5.69432">
        <ele>761</ele>
        <time>2017-12-15T22:13:45Z</time>
      </trkpt>
      <trkpt lat="44.94334" lon="5.69464">
        <ele>771</ele>
        <time>2017-12-15T22:13:51Z</time>
      </trkpt>
      <trkpt lat="44.94323" lon="5.69478">
        <ele>772</ele>
        <time>2017-12-15T22:13:54Z</time>
      </trkpt>
      <trkpt lat="44.94315" lon="5.6948">
        <ele>771</ele>
        <time>2017-12-15T22:14:09Z</time>
      </trkpt>
      <trkpt lat="44.9431" lon="5.69478">
        <ele>770</ele>
        <time>2017-12-15T22:14:25Z</time>
      </trkpt>
      <trkpt lat="44.94294" lon="5.69463">
        <ele>766</ele>
        <time>2017-12-15T22:14:36Z</time>
      </trkpt>
      <trkpt lat="44.94269" lon="5.69451">
        <ele>763</ele>
        <time>2017-12-15T22:14:47Z</time>
      </trkpt>
      <trkpt lat="44.94244" lon="5.69436">
        <ele>761</ele>
        <time>2017-12-15T22:14:57Z</time>
      </trkpt>
      <trkpt lat="44.94225" lon="5.69426">
        <ele>763</ele>
        <time>2017-12-15T22:15:02Z</time>
      </trkpt>
      <trkpt lat="44.9421" lon="5.6941">
        <ele>739</ele>
        <time>2017-12-15T22:15:17Z</time>
      </trkpt>
      <trkpt lat="44.94198" lon="5.69401">
        <ele>740</ele>
        <time>2017-12-15T22:15:31Z</time>
      </trkpt>
      <trkpt lat="44.94171" lon="5.69394">
        <ele>744</ele>
        <time>2017-12-15T22:15:39Z</time>
      </trkpt>
      <trkpt lat="44.94119" lon="5.69384">
        <ele>744</ele>
        <time>2017-12-15T22:15:43Z</time>
      </trkpt>
      <trkpt lat="44.94094" lon="5.6938">
        <ele>743</ele>
        <time>2017-12-15T22:15:57Z</time>
      </trkpt>
      <trkpt lat="44.94076" lon="5.6938">
        <ele>746</ele>
        <time>2017-12-15T22:16:09Z</time>
      </trkpt>
      <trkpt lat="44.94052" lon="5.69392">
        <ele>749</ele>
        <time>2017-12-15T22:16:12Z</time>
      </trkpt>
      <trkpt lat="44.94039" lon="5.69402">
        <ele>752</ele>
        <time>2017-12-15T22:16:31Z</time>
      </trkpt>
      <trkpt lat="44.94031" lon="5.69403">
        <ele>753</ele>
        <time>2017-12-15T22:16:33Z</time>
      </trkpt>
      <trkpt lat="44.94019" lon="5.69399">
        <ele>754</ele>
        <time>2017-12-15T22:16:50Z</time>
      </trkpt>
      <trkpt lat="44.93998" lon="5.6938">
        <ele>754</ele>
        <time>2017-12-15T22:17:06Z</time>
      </trkpt>
      <trkpt lat="44.93975" lon="5.69369">
        <ele>751</ele>
        <time>2017-12-15T22:17:16Z</time>
      </trkpt>
      <trkpt lat="44.93883" lon="5.69337">
        <ele>757</ele>
        <time>2017-12-15T22:17:28Z</time>
      </trkpt>
      <trkpt lat="44.93866" lon="5.69336">
        <ele>759</ele>
        <time>2017-12-15T22:17:38Z</time>
      </trkpt>
      <trkpt lat="44.93853" lon="5.6933">
        <ele>737</ele>
        <time>2017-12-15T22:17:46Z</time>
      </trkpt>
      <trkpt lat="44.93842" lon="5.6932">
        <ele>738</ele>
        <time>2017-12-15T22:18:05Z</time>
      </trkpt>
      <trkpt lat="44.93814" lon="5.69297">
        <ele>734</ele>
        <time>2017-12-15T22:18:22Z</time>
      </trkpt>
      <trkpt lat="44.93787" lon="5.69284">
        <ele>731</ele>
        <time>2017-12-15T22:18:36Z</time>
      </trkpt>
      <trkpt lat="44.93768" lon="5.69282">
        <ele>730</ele>
        <time>2017-12-15T22:18:54Z</time>
      </trkpt>
      <trkpt lat="44.93746" lon="5.69294">
        <ele>739</ele>
        <time>2017-12-15T22:18:59Z</time>
      </trkpt>
      <trkpt lat="44.9372" lon="5.69309">
        <ele>743</ele>
        <time>2017-12-15T22:19:17Z</time>
      </trkpt>
      <trkpt lat="44.93704" lon="5.69312">
        <ele>745</ele>
        <time>2017-12-15T22:19:29Z</time>
      </trkpt>
      <trkpt lat="44.93695" lon="5.69309">
        <ele>745</ele>
        <time>2017-12-15T22:19:37Z</time>
      </trkpt>
      <trkpt lat="44.93692" lon="5.69305">
        <ele>745</ele>
        <time>2017-12-15T22:19:55Z</time>
      </trkpt>
      <trkpt lat="44.93674" lon="5.6925">
        <ele>723</ele>
        <time>2017-12-15T22:20:14Z</time>
      </trkpt>
      <trkpt lat="44.93662" lon="5.69231">
        <ele>724</ele>
        <time>2017-12-15T22:20:32Z</time>
      </trkpt>
      <trkpt lat="44.93648" lon="5.69219">
        <ele>721</ele>
        <time>2017-12-15T22:20:37Z</time>
      </trkpt>
      <trkpt lat="44.9363" lon="5.69212">
        <ele>720</ele>
        <time>2017-12-15T22:20:42Z</time>
      </trkpt>
      <trkpt lat="44.93588" lon="5.69204">
        <ele>721</ele>
        <time>2017-12-15T22:21:01Z</time>
      </trkpt>
      <trkpt lat="44.935" lon="5.69169">
        <ele>719</ele>
        <time>2017-12-15T22:21:19Z</time>
      </trkpt>
      <trkpt lat="44.93447" lon="5.69147">
        <ele>708</ele>
        <time>2017-12-15T22:21:26Z</time>
      </trkpt>
      <trkpt lat="44.93402" lon="5.69125">
        <ele>707</ele>
        <time>2017-12-15T22:21:45Z</time>
      </trkpt>
      <trkpt lat="44.93375" lon="5.69113">
        <ele>704</ele>
        <time>2017-12-15T22:21:51Z</time>
      </trkpt>
      <trkpt lat="44.9336" lon="5.6911">
        <ele>703</ele>
        <time>2017-12-15T22:22:04Z</time>
      </trkpt>
      <trkpt lat="44.93347" lon="5.69112">
        <ele>703</ele>
        <time>2017-12-15T22:22:22Z</time>
      </trkpt>
      <trkpt lat="44.93335" lon="5.69122">
        <ele>706</ele>
        <time>2017-12-15T22:22:33Z</time>
      </trkpt>
      <trkpt lat="44.93324" lon="5.69142">
        <ele>713</ele>
        <time>2017-12-15T22:22:35Z</time>
      </trkpt>
      <trkpt lat="44.93317" lon="5.69147">
        <ele>714</ele>
        <time>2017-12-15T22:22:44Z</time>
      </trkpt>
      <trkpt lat="44.93304" lon="5.69151">
        <ele>713</ele>
        <time>2017-12-15T22:22:48Z</time>
      </trkpt>
      <trkpt lat="44.933" lon="5.69149">
        <ele>712</ele>
        <time>2017-12-15T22:22:50Z</time>
      </trkpt>
      <trkpt lat="44.93296" lon="5.69145">
        <ele>711</ele>
        <time>2017-12-15T22:22:56Z</time>
      </trkpt>
      <trkpt lat="44.9329" lon="5.69134">
        <ele>708</ele>
        <time>2017-12-15T22:23:01Z</time>
      </trkpt>
      <trkpt lat="44.93285" lon="5.69117">
        <ele>704</ele>
        <time>2017-12-15T22:23:20Z</time>
      </trkpt>
      <trkpt lat="44.93281" lon="5.69112">
        <ele>702</ele>
        <time>2017-12-15T22:23:37Z</time>
      </trkpt>
      <trkpt lat="44.93269" lon="5.6911">
        <ele>701</ele>
        <time>2017-12-15T22:23:39Z</time>
      </trkpt>
      <trkpt lat="44.93254" lon="5.69113">
        <ele>701</ele>
        <time>2017-12-15T22:23:56Z</time>
      </trkpt>
      <trkpt lat="44.93235" lon="5.69114">
        <ele>698</ele>
        <time>2017-12-15T22:24:04Z</time>
      </trkpt>
      <trkpt lat="44.93218" lon="5.69119">
        <ele>699</ele>
        <time>2017-12-15T22:24:06Z</time>
      </trkpt>
      <trkpt lat="44.93195" lon="5.69132">
        <ele>702</ele>
        <time>2017-12-15T22:24:20Z</time>
      </trkpt>
      <trkpt lat="44.93183" lon="5.69135">
        <ele>703</ele>
        <time>2017-12-15T22:24:35Z</time>
      </trkpt>
      <trkpt lat="44.93169" lon="5.69134">
        <ele>702</ele>
        <time>2017-12-15T22:24:51Z</time>
      </trkpt>
      <trkpt lat="44.93158" lon="5.6913">
        <ele>698</ele>
        <time>2017-12-15T22:25:05Z</time>
      </trkpt>
      <trkpt lat="44.93144" lon="5.69125">
        <ele>696</ele>
        <time>2017-12-15T22:25:19Z</time>
      </trkpt>
      <trkpt lat="44.9313" lon="5.69123">
        <ele>695</ele>
        <time>2017-12-15T22:25:34Z</time>
      </trkpt>
      <trkpt lat="44.9312" lon="5.69125">
        <ele>695</ele>
        <time>2017-12-15T22:25:52Z</time>
      </trkpt>
      <trkpt lat="44.9311" lon="5.69131">
        <ele>697</ele>
        <time>2017-12-15T22:25:58Z</time>
      </trkpt>
      <trkpt lat="44.93102" lon="5.69133">
        <ele>697</ele>
        <time>2017-12-15T22:26:14Z</time>
      </trkpt>
      <trkpt lat="44.93089" lon="5.69127">
        <ele>696</ele>
        <time>2017-12-15T22:26:25Z</time>
      </trkpt>
      <trkpt lat="44.9308" lon="5.69121">
        <ele>689</ele>
        <time>2017-12-15T22:26:28Z</time>
      </trkpt>
      <trkpt lat="44.93066" lon="5.6912">
        <ele>688</ele>
        <time>2017-12-15T22:26:36Z</time>
      </trkpt>
      <trkpt lat="44.93036" lon="5.69131">
        <ele>690</ele>
        <time>2017-12-15T22:26:55Z</time>
      </trkpt>
      <trkpt lat="44.92988" lon="5.69154">
        <ele>689</ele>
        <time>2017-12-15T22:27:08Z</time>
      </trkpt>
      <trkpt lat="44.92975" lon="5.69158">
        <ele>685</ele>
        <time>2017-12-15T22:27:20Z</time>
      </trkpt>
      <trkpt lat="44.92954" lon="5.69154">
        <ele>681</ele>
        <time>2017-12-15T22:27:34Z</time>
      </trkpt>
      <trkpt lat="44.92941" lon="5.69153">
        <ele>680</ele>
        <time>2017-12-15T22:27:53Z</time>
      </trkpt>
      <trkpt lat="44.92931" lon="5.69155">
        <ele>680</ele>
        <time>2017-12-15T22:28:13Z</time>
      </trkpt>
      <trkpt lat="44.92916" lon="5.69165">
        <ele>684</ele>
        <time>2017-12-15T22:28:23Z</time>
      </trkpt>
      <trkpt lat="44.92903" lon="5.69186">
        <ele>695</ele>
        <time>2017-12-15T22:28:34Z</time>
      </trkpt>
      <trkpt lat="44.92892" lon="5.69202">
        <ele>700</ele>
        <time>2017-12-15T22:28:42Z</time>
      </trkpt>
      <trkpt lat="44.92882" lon="5.69206">
        <ele>701</ele>
        <time>2017-12-15T22:29:02Z</time>
      </trkpt>
      <trkpt lat="44.92874" lon="5.69205">
        <ele>700</ele>
        <time>2017-12-15T22:29:06Z</time>
      </trkpt>
      <trkpt lat="44.92866" lon="5.69199">
        <ele>698</ele>
        <time>2017-12-15T22:29:17Z</time>
      </trkpt>
      <trkpt lat="44.92851" lon="5.69175">
        <ele>689</ele>
        <time>2017-12-15T22:29:22Z</time>
      </trkpt>
      <trkpt lat="44.92838" lon="5.69165">
        <ele>674</ele>
        <time>2017-12-15T22:29:31Z</time>
      </trkpt>
      <trkpt lat="44.9279" lon="5.69157">
        <ele>668</ele>
        <time>2017-12-15T22:29:44Z</time>
      </trkpt>
      <trkpt lat="44.92763" lon="5.69157">
        <ele>672</ele>
        <time>2017-12-15T22:29:57Z</time>
      </trkpt>
      <trkpt lat="44.92738" lon="5.69168">
        <ele>691</ele>
        <time>2017-12-15T22:30:07Z</time>
      </trkpt>
      <trkpt lat="44.92724" lon="5.6917">
        <ele>697</ele>
        <time>2017-12-15T22:30:14Z</time>
      </trkpt>
      <trkpt lat="44.92709" lon="5.69163">
        <ele>673</ele>
        <time>2017-12-15T22:30:28Z</time>
      </trkpt>
      <trkpt lat="44.92691" lon="5.69157">
        <ele>674</ele>
        <time>2017-12-15T22:30:40Z</time>
      </trkpt>
      <trkpt lat="44.92678" lon="5.69155">
        <ele>677</ele>
        <time>2017-12-15T22:31:00Z</time>
      </trkpt>
      <trkpt lat="44.92667" lon="5.69147">
        <ele>675</ele>
        <time>2017-12-15T22:31:18Z</time>
      </trkpt>
      <trkpt lat="44.92652" lon="5.69142">
        <ele>679</ele>
        <time>2017-12-15T22:31:24Z</time>
      </trkpt>
      <trkpt lat="44.92636" lon="5.69135">
        <ele>678</ele>
        <time>2017-12-15T22:31:32Z</time>
      </trkpt>
      <trkpt lat="44.92622" lon="5.69123">
        <ele>677</ele>
        <time>2017-12-15T22:31:51Z</time>
      </trkpt>
      <trkpt lat="44.92609" lon="5.6912">
        <ele>677</ele>
        <time>2017-12-15T22:32:08Z</time>
      </trkpt>
      <trkpt lat="44.92591" lon="5.69111">
        <ele>676</ele>
        <time>2017-12-15T22:32:28Z</time>
      </trkpt>
      <trkpt lat="44.92573" lon="5.69101">
        <ele>677</ele>
        <time>2017-12-15T22:32:37Z</time>
      </trkpt>
      <trkpt lat="44.92557" lon="5.691">
        <ele>679</ele>
        <time>2017-12-15T22:32:51Z</time>
      </trkpt>
      <trkpt lat="44.92539" lon="5.69099">
        <ele>679</ele>
        <time>2017-12-15T22:33:05Z</time>
      </trkpt>
      <trkpt lat="44.92518" lon="5.69103">
        <ele>678</ele>
        <time>2017-12-15T22:33:10Z</time>
      </trkpt>
      <trkpt lat="44.92506" lon="5.69103">
        <ele>676</ele>
        <time>2017-12-15T22:33:30Z</time>
      </trkpt>
      <trkpt lat="44.92491" lon="5.69093">
        <ele>672</ele>
        <time>2017-12-15T22:33:41Z</time>
      </trkpt>
      <trkpt lat="44.92448" lon="5.6907">
        <ele>659</ele>
        <time>2017-12-15T22:33:56Z</time>
      </trkpt>
      <trkpt lat="44.92427" lon="5.69066">
        <ele>661</ele>
        <time>2017-12-15T22:34:09Z</time>
      </trkpt>
      <trkpt lat="44.92413" lon="5.69059">
        <ele>663</ele>
        <time>2017-12-15T22:34:20Z</time>
      </trkpt>
      <trkpt lat="44.92391" lon="5.6904">
        <ele>660</ele>
        <time>2017-12-15T22:34:24Z</time>
      </trkpt>
      <trkpt lat="44.92371" lon="5.69026">
        <ele>659</ele>
        <time>2017-12-15T22:34:26Z</time>
      </trkpt>
      <trkpt lat="44.92331" lon="5.69012">
        <ele>659</ele>
        <time>2017-12-15T22:34:28Z</time>
      </trkpt>
      <trkpt lat="44.92297" lon="5.69005">
        <ele>665</ele>
        <time>2017-12-15T22:34:32Z</time>
      </trkpt>
      <trkpt lat="44.92282" lon="5.68992">
        <ele>654</ele>
        <time>2017-12-15T22:34:48Z</time>
      </trkpt>
      <trkpt lat="44.9227" lon="5.68962">
        <ele>653</ele>
        <time>2017-12-15T22:34:54Z</time>
      </trkpt>
      <trkpt lat="44.92258" lon="5.68948">
        <ele>652</ele>
        <time>2017-12-15T22:35:07Z</time>
      </trkpt>
      <trkpt lat="44.9223" lon="5.68928">
        <ele>658</ele>
        <time>2017-12-15T22:35:25Z</time>
      </trkpt>
      <trkpt lat="44.92199" lon="5.68906">
        <ele>651</ele>
        <time>2017-12-15T22:35:33Z</time>
      </trkpt>
      <trkpt lat="44.92183" lon="5.689">
        <ele>653</ele>
        <time>2017-12-15T22:35:35Z</time>
      </trkpt>
      <trkpt lat="44.9217" lon="5.68901">
        <ele>654</ele>
        <time>2017-12-15T22:35:37Z</time>
      </trkpt>
      <trkpt lat="44.92147" lon="5.68913">
        <ele>654</ele>
        <time>2017-12-15T22:35:40Z</time>
      </trkpt>
      <trkpt lat="44.92115" lon="5.68937">
        <ele>662</ele>
        <time>2017-12-15T22:35:44Z</time>
      </trkpt>
      <trkpt lat="44.9208" lon="5.68962">
        <ele>662</ele>
        <time>2017-12-15T22:36:04Z</time>
      </trkpt>
      <trkpt lat="44.92049" lon="5.68973">
        <ele>664</ele>
        <time>2017-12-15T22:36:13Z</time>
      </trkpt>
      <trkpt lat="44.92028" lon="5.68975">
        <ele>665</ele>
        <time>2017-12-15T22:36:16Z</time>
      </trkpt>
      <trkpt lat="44.92006" lon="5.68973">
        <ele>666</ele>
        <time>2017-12-15T22:36:31Z</time>
      </trkpt>
      <trkpt lat="44.91985" lon="5.68968">
        <ele>668</ele>
        <time>2017-12-15T22:36:40Z</time>
      </trkpt>
      <trkpt lat="44.91965" lon="5.68956">
        <ele>666</ele>
        <time>2017-12-15T22:36:43Z</time>
      </trkpt>
      <trkpt lat="44.91937" lon="5.68936">
        <ele>663</ele>
        <time>2017-12-15T22:36:56Z</time>
      </trkpt>
      <trkpt lat="44.91915" lon="5.68925">
        <ele>659</ele>
        <time>2017-12-15T22:37:13Z</time>
      </trkpt>
      <trkpt lat="44.91886" lon="5.6892">
        <ele>665</ele>
        <time>2017-12-15T22:37:28Z</time>
      </trkpt>
      <trkpt lat="44.91852" lon="5.68915">
        <ele>651</ele>
        <time>2017-12-15T22:37:37Z</time>
      </trkpt>
      <trkpt lat="44.91822" lon="5.6891">
        <ele>653</ele>
        <time>2017-12-15T22:37:55Z</time>
      </trkpt>
      <trkpt lat="44.9179" lon="5.68897">
        <ele>649</ele>
        <time>2017-12-15T22:38:01Z</time>
      </trkpt>
      <trkpt lat="44.91749" lon="5.68879">
        <ele>646</ele>
        <time>2017-12-15T22:38:14Z</time>
      </trkpt>
      <trkpt lat="44.91722" lon="5.68872">
        <ele>645</ele>
        <time>2017-12-15T22:38:21Z</time>
      </trkpt>
      <trkpt lat="44.91642" lon="5.68879">
        <ele>643</ele>
        <time>2017-12-15T22:38:23Z</time>
      </trkpt>
      <trkpt lat="44.91479" lon="5.68895">
        <ele>635</ele>
        <time>2017-12-15T22:38:28Z</time>
      </trkpt>
      <trkpt lat="44.91442" lon="5.68896">
        <ele>634</ele>
        <time>2017-12-15T22:38:45Z</time>
      </trkpt>
      <trkpt lat="44.9142" lon="5.68895">
        <ele>634</ele>
        <time>2017-12-15T22:38:58Z</time>
      </trkpt>
      <trkpt lat="44.91384" lon="5.68892">
        <ele>632</ele>
        <time>2017-12-15T22:39:10Z</time>
      </trkpt>
      <trkpt lat="44.91321" lon="5.68892">
        <ele>632</ele>
        <time>2017-12-15T22:39:24Z</time>
      </trkpt>
      <trkpt lat="44.91291" lon="5.68892">
        <ele>631</ele>
        <time>2017-12-15T22:39:34Z</time>
      </trkpt>
      <trkpt lat="44.9126" lon="5.68898">
        <ele>632</ele>
        <time>2017-12-15T22:39:47Z</time>
      </trkpt>
      <trkpt lat="44.91228" lon="5.68911">
        <ele>631</ele>
        <time>2017-12-15T22:39:58Z</time>
      </trkpt>
      <trkpt lat="44.91177" lon="5.68933">
        <ele>635</ele>
        <time>2017-12-15T22:40:07Z</time>
      </trkpt>
      <trkpt lat="44.91053" lon="5.68992">
        <ele>636</ele>
        <time>2017-12-15T22:40:23Z</time>
      </trkpt>
      <trkpt lat="44.90919" lon="5.69055">
        <ele>644</ele>
        <time>2017-12-15T22:40:31Z</time>
      </trkpt>
      <trkpt lat="44.90866" lon="5.69078">
        <ele>646</ele>
        <time>2017-12-15T22:40:42Z</time>
      </trkpt>
      <trkpt lat="44.90827" lon="5.69085">
        <ele>650</ele>
        <time>2017-12-15T22:40:55Z</time>
      </trkpt>
      <trkpt lat="44.90766" lon="5.69096">
        <ele>653</ele>
        <time>2017-12-15T22:40:59Z</time>
      </trkpt>
      <trkpt lat="44.90724" lon="5.69094">
        <ele>655</ele>
        <time>2017-12-15T22:41:14Z</time>
      </trkpt>
      <trkpt lat="44.9067" lon="5.69094">
        <ele>654</ele>
        <time>2017-12-15T22:41:22Z</time>
      </trkpt>
      <trkpt lat="44.90617" lon="5.6909">
        <ele>658</ele>
        <time>2017-12-15T22:41:28Z</time>
      </trkpt>
      <trkpt lat="44.90573" lon="5.69089">
        <ele>658</ele>
        <time>2017-12-15T22:41:38Z</time>
      </trkpt>
      <trkpt lat="44.90519" lon="5.69094">
        <ele>662</ele>
        <time>2017-12-15T22:41:53Z</time>
      </trkpt>
      <trkpt lat="44.90427" lon="5.69112">
        <ele>665</ele>
        <time>2017-12-15T22:42:08Z</time>
      </trkpt>
      <trkpt lat="44.90382" lon="5.69122">
        <ele>666</ele>
        <time>2017-12-15T22:42:16Z</time>
      </trkpt>
      <trkpt lat="44.90361" lon="5.6913">
        <ele>666</ele>
        <time>2017-12-15T22:42:22Z</time>
      </trkpt>
      <trkpt lat="44.90274" lon="5.69175">
        <ele>673</ele>
        <time>2017-12-15T22:42:28Z</time>
      </trkpt>
      <trkpt lat="44.9021" lon="5.69208">
        <ele>673</ele>
        <time>2017-12-15T22:42:39Z</time>
      </trkpt>
      <trkpt lat="44.90162" lon="5.69232">
        <ele>673</ele>
        <time>2017-12-15T22:42:46Z</time>
      </trkpt>
      <trkpt lat="44.90109" lon="5.69248">
        <ele>672</ele>
        <time>2017-12-15T22:42:56Z</time>
      </trkpt>
      <trkpt lat="44.90073" lon="5.69255">
        <ele>676</ele>
        <time>2017-12-15T22:43:13Z</time>
      </trkpt>
      <trkpt lat="44.90031" lon="5.69261">
        <ele>677</ele>
        <time>2017-12-15T22:43:31Z</time>
      </trkpt>
      <trkpt lat="44.89964" lon="5.69277">
        <ele>678</ele>
        <time>2017-12-15T22:43:36Z</time>
      </trkpt>
      <trkpt lat="44.89922" lon="5.6929">
        <ele>679</ele>
        <time>2017-12-15T22:43:41Z</time>
      </trkpt>
      <trkpt lat="44.89869" lon="5.69314">
        <ele>679</ele>
        <time>2017-12-15T22:43:50Z</time>
      </trkpt>
      <trkpt lat="44.89843" lon="5.69328">
        <ele>681</ele>
        <time>2017-12-15T22:44:04Z</time>
      </trkpt>
      <trkpt lat="44.89816" lon="5.69354">
        <ele>685</ele>
        <time>2017-12-15T22:44:06Z</time>
      </trkpt>
      <trkpt lat="44.89766" lon="5.69411">
        <ele>686</ele>
        <time>2017-12-15T22:44:24Z</time>
      </trkpt>
      <trkpt lat="44.89737" lon="5.69441">
        <ele>689</ele>
        <time>2017-12-15T22:44:32Z</time>
      </trkpt>
      <trkpt lat="44.89723" lon="5.69452">
        <ele>690</ele>
        <time>2017-12-15T22:44:40Z</time>
      </trkpt>
      <trkpt lat="44.89635" lon="5.69503">
        <ele>696</ele>
        <time>2017-12-15T22:44:49Z</time>
      </trkpt>
      <trkpt lat="44.89603" lon="5.69525">
        <ele>696</ele>
        <time>2017-12-15T22:44:54Z</time>
      </trkpt>
      <trkpt lat="44.89574" lon="5.69555">
        <ele>695</ele>
        <time>2017-12-15T22:45:10Z</time>
      </trkpt>
      <trkpt lat="44.89543" lon="5.69576">
        <ele>695</ele>
        <time>2017-12-15T22:45:14Z</time>
      </trkpt>
      <trkpt lat="44.89505" lon="5.69594">
        <ele>700</ele>
        <time>2017-12-15T22:45:21Z</time>
      </trkpt>
      <trkpt lat="44.89495" lon="5.69596">
        <ele>700</ele>
        <time>2017-12-15T22:45:35Z</time>
      </trkpt>
      <trkpt lat="44.89483" lon="5.69594">
        <ele>701</ele>
        <time>2017-12-15T22:45:55Z</time>
      </trkpt>
      <trkpt lat="44.89453" lon="5.69585">
        <ele>701</ele>
        <time>2017-12-15T22:45:57Z</time>
      </trkpt>
      <trkpt lat="44.89437" lon="5.69583">
        <ele>695</ele>
        <time>2017-12-15T22:46:04Z</time>
      </trkpt>
      <trkpt lat="44.89397" lon="5.69598">
        <ele>703</ele>
        <time>2017-12-15T22:46:18Z</time>
      </trkpt>
      <trkpt lat="44.89322" lon="5.69626">
        <ele>707</ele>
        <time>2017-12-15T22:46:35Z</time>
      </trkpt>
      <trkpt lat="44.89307" lon="5.69631">
        <ele>707</ele>
        <time>2017-12-15T22:46:47Z</time>
      </trkpt>
      <trkpt lat="44.89294" lon="5.69632">
        <ele>707</ele>
        <time>2017-12-15T22:47:03Z</time>
      </trkpt>
      <trkpt lat="44.89248" lon="5.6963">
        <ele>709</ele>
        <time>2017-12-15T22:47:21Z</time>
      </trkpt>
      <trkpt lat="44.89206" lon="5.69626">
        <ele>709</ele>
        <time>2017-12-15T22:47:25Z</time>
      </trkpt>
      <trkpt lat="44.89192" lon="5.69626">
        <ele>709</ele>
        <time>2017-12-15T22:47:30Z</time>
      </trkpt>
      <trkpt lat="44.89174" lon="5.69628">
        <ele>710</ele>
        <time>2017-12-15T22:47:48Z</time>
      </trkpt>
      <trkpt lat="44.89159" lon="5.69632">
        <ele>713</ele>
        <time>2017-12-15T22:47:58Z</time>
      </trkpt>
      <trkpt lat="44.89146" lon="5.6964">
        <ele>713</ele>
        <time>2017-12-15T22:48:14Z</time>
      </trkpt>
      <trkpt lat="44.8912" lon="5.69654">
        <ele>714</ele>
        <time>2017-12-15T22:48:18Z</time>
      </trkpt>
      <trkpt lat="44.89106" lon="5.69654">
        <ele>715</ele>
        <time>2017-12-15T22:48:28Z</time>
      </trkpt>
      <trkpt lat="44.89085" lon="5.69644">
        <ele>715</ele>
        <time>2017-12-15T22:48:35Z</time>
      </trkpt>
      <trkpt lat="44.89053" lon="5.69625">
        <ele>716</ele>
        <time>2017-12-15T22:48:50Z</time>
      </trkpt>
      <trkpt lat="44.8904" lon="5.69621">
        <ele>716</ele>
        <time>2017-12-15T22:48:55Z</time>
      </trkpt>
      <trkpt lat="44.89031" lon="5.6962">
        <ele>716</ele>
        <time>2017-12-15T22:49:13Z</time>
      </trkpt>
      <trkpt lat="44.89012" lon="5.69626">
        <ele>717</ele>
        <time>2017-12-15T22:49:21Z</time>
      </trkpt>
      <trkpt lat="44.88995" lon="5.69636">
        <ele>716</ele>
        <time>2017-12-15T22:49:34Z</time>
      </trkpt>
      <trkpt lat="44.88988" lon="5.69644">
        <ele>717</ele>
        <time>2017-12-15T22:49:39Z</time>
      </trkpt>
      <trkpt lat="44.88961" lon="5.69689">
        <ele>721</ele>
        <time>2017-12-15T22:49:48Z</time>
      </trkpt>
      <trkpt lat="44.88926" lon="5.69786">
        <ele>727</ele>
        <time>2017-12-15T22:49:53Z</time>
      </trkpt>
      <trkpt lat="44.88895" lon="5.69872">
        <ele>726</ele>
        <time>2017-12-15T22:50:01Z</time>
      </trkpt>
      <trkpt lat="44.88884" lon="5.69898">
        <ele>726</ele>
        <time>2017-12-15T22:50:12Z</time>
      </trkpt>
      <trkpt lat="44.88878" lon="5.69908">
        <ele>726</ele>
        <time>2017-12-15T22:50:25Z</time>
      </trkpt>
      <trkpt lat="44.88864" lon="5.69923">
        <ele>730</ele>
        <time>2017-12-15T22:50:34Z</time>
      </trkpt>
      <trkpt lat="44.88841" lon="5.69942">
        <ele>730</ele>
        <time>2017-12-15T22:50:54Z</time>
      </trkpt>
      <trkpt lat="44.88776" lon="5.69984">
        <ele>726</ele>
        <time>2017-12-15T22:51:10Z</time>
      </trkpt>
      <trkpt lat="44.88757" lon="5.69995">
        <ele>726</ele>
        <time>2017-12-15T22:51:20Z</time>
      </trkpt>
      <trkpt lat="44.88745" lon="5.7">
        <ele>726</ele>
        <time>2017-12-15T22:51:34Z</time>
      </trkpt>
      <trkpt lat="44.88731" lon="5.70001">
        <ele>727</ele>
        <time>2017-12-15T22:51:40Z</time>
      </trkpt>
      <trkpt lat="44.88556" lon="5.69994">
        <ele>713</ele>
        <time>2017-12-15T22:51:49Z</time>
      </trkpt>
      <trkpt lat="44.88542" lon="5.69996">
        <ele>712</ele>
        <time>2017-12-15T22:51:58Z</time>
      </trkpt>
      <trkpt lat="44.88528" lon="5.70002">
        <ele>715</ele>
        <time>2017-12-15T22:52:18Z</time>
      </trkpt>
      <trkpt lat="44.88515" lon="5.70012">
        <ele>714</ele>
        <time>2017-12-15T22:52:30Z</time>
      </trkpt>
      <trkpt lat="44.88506" lon="5.70024">
        <ele>715</ele>
        <time>2017-12-15T22:52:35Z</time>
      </trkpt>
      <trkpt lat="44.8849" lon="5.70052">
        <ele>709</ele>
        <time>2017-12-15T22:52:47Z</time>
      </trkpt>
      <trkpt lat="44.88476" lon="5.70087">
        <ele>713</ele>
        <time>2017-12-15T22:52:59Z</time>
      </trkpt>
      <trkpt lat="44.8846" lon="5.70127">
        <ele>712</ele>
        <time>2017-12-15T22:53:02Z</time>
      </trkpt>
      <trkpt lat="44.88451" lon="5.70154">
        <ele>712</ele>
        <time>2017-12-15T22:53:19Z</time>
      </trkpt>
      <trkpt lat="44.88444" lon="5.7017">
        <ele>719</ele>
        <time>2017-12-15T22:53:33Z</time>
      </trkpt>
      <trkpt lat="44.88433" lon="5.70181">
        <ele>718</ele>
        <time>2017-12-15T22:53:51Z</time>
      </trkpt>
      <trkpt lat="44.88423" lon="5.70188">
        <ele>718</ele>
        <time>2017-12-15T22:53:58Z</time>
      </trkpt>
      <trkpt lat="44.88386" lon="5.70209">
        <ele>712</ele>
        <time>2017-12-15T22:54:02Z</time>
      </trkpt>
      <trkpt lat="44.88357" lon="5.70224">
        <ele>711</ele>
        <time>2017-12-15T22:54:22Z</time>
      </trkpt>
      <trkpt lat="44.88345" lon="5.70233">
        <ele>710</ele>
        <time>2017-12-15T22:54:38Z</time>
      </trkpt>
      <trkpt lat="44.88319" lon="5.70255">
        <ele>707</ele>
        <time>2017-12-15T22:54:41Z</time>
      </trkpt>
      <trkpt lat="44.88295" lon="5.7028">
        <ele>704</ele>
        <time>2017-12-15T22:54:43Z</time>
      </trkpt>
      <trkpt lat="44.88288" lon="5.70291">
        <ele>703</ele>
        <time>2017-12-15T22:54:48Z</time>
      </trkpt>
      <trkpt lat="44.88283" lon="5.70302">
        <ele>703</ele>
        <time>2017-12-15T22:54:53Z</time>
      </trkpt>
      <trkpt lat="44.88282" lon="5.70314">
        <ele>703</ele>
        <time>2017-12-15T22:54:58Z</time>
      </trkpt>
      <trkpt lat="44.88283" lon="5.70325">
        <ele>703</ele>
        <time>2017-12-15T22:55:10Z</time>
      </trkpt>
      <trkpt lat="44.88291" lon="5.70374">
        <ele>709</ele>
        <time>2017-12-15T22:55:14Z</time>
      </trkpt>
      <trkpt lat="44.88292" lon="5.70387">
        <ele>709</ele>
        <time>2017-12-15T22:55:20Z</time>
      </trkpt>
      <trkpt lat="44.8829" lon="5.70398">
        <ele>709</ele>
        <time>2017-12-15T22:55:40Z</time>
      </trkpt>
      <trkpt lat="44.88279" lon="5.70419">
        <ele>708</ele>
        <time>2017-12-15T22:55:56Z</time>
      </trkpt>
      <trkpt lat="44.88258" lon="5.70441">
        <ele>706</ele>
        <time>2017-12-15T22:55:59Z</time>
      </trkpt>
      <trkpt lat="44.88237" lon="5.70454">
        <ele>700</ele>
        <time>2017-12-15T22:56:14Z</time>
      </trkpt>
      <trkpt lat="44.88227" lon="5.70458">
        <ele>700</ele>
        <time>2017-12-15T22:56:31Z</time>
      </trkpt>
      <trkpt lat="44.88215" lon="5.7046">
        <ele>700</ele>
        <time>2017-12-15T22:56:44Z</time>
      </trkpt>
      <trkpt lat="44.88163" lon="5.7046">
        <ele>700</ele>
        <time>2017-12-15T22:57:04Z</time>
      </trkpt>
      <trkpt lat="44.88151" lon="5.70458">
        <ele>700</ele>
        <time>2017-12-15T22:57:21Z</time>
      </trkpt>
      <trkpt lat="44.8814" lon="5.70451">
        <ele>700</ele>
        <time>2017-12-15T22:57:38Z</time>
      </trkpt>
      <trkpt lat="44.88123" lon="5.70436">
        <ele>700</ele>
        <time>2017-12-15T22:57:56Z</time>
      </trkpt>
      <trkpt lat="44.88101" lon="5.70421">
        <ele>700</ele>
        <time>2017-12-15T22:58:12Z</time>
      </trkpt>
      <trkpt lat="44.88082" lon="5.70408">
        <ele>697</ele>
        <time>2017-12-15T22:58:28Z</time>
      </trkpt>
      <trkpt lat="44.8806" lon="5.70397">
        <ele>694</ele>
        <time>2017-12-15T22:58:48Z</time>
      </trkpt>
      <trkpt lat="44.88031" lon="5.70386">
        <ele>693</ele>
        <time>2017-12-15T22:58:53Z</time>
      </trkpt>
      <trkpt lat="44.88003" lon="5.70378">
        <ele>692</ele>
        <time>2017-12-15T22:59:05Z</time>
      </trkpt>
      <trkpt lat="44.87989" lon="5.70377">
        <ele>691</ele>
        <time>2017-12-15T22:59:21Z</time>
      </trkpt>
      <trkpt lat="44.87976" lon="5.7038">
        <ele>691</ele>
        <time>2017-12-15T22:59:26Z</time>
      </trkpt>
      <trkpt lat="44.87873" lon="5.70416">
        <ele>682</ele>
        <time>2017-12-15T22:59:45Z</time>
      </trkpt>
      <trkpt lat="44.87784" lon="5.70448">
        <ele>681</ele>
        <time>2017-12-15T22:59:53Z</time>
      </trkpt>
      <trkpt lat="44.8776" lon="5.7046">
        <ele>681</ele>
        <time>2017-12-15T23:00:02Z</time>
      </trkpt>
      <trkpt lat="44.87715" lon="5.70487">
        <ele>674</ele>
        <time>2017-12-15T23:00:11Z</time>
      </trkpt>
      <trkpt lat="44.87703" lon="5.70504">
        <ele>674</ele>
        <time>2017-12-15T23:00:20Z</time>
      </trkpt>
      <trkpt lat="44.87696" lon="5.70523">
        <ele>673</ele>
        <time>2017-12-15T23:00:23Z</time>
      </trkpt>
      <trkpt lat="44.87693" lon="5.70544">
        <ele>673</ele>
        <time>2017-12-15T23:00:25Z</time>
      </trkpt>
      <trkpt lat="44.87696" lon="5.70563">
        <ele>673</ele>
        <time>2017-12-15T23:00:31Z</time>
      </trkpt>
      <trkpt lat="44.87703" lon="5.70585">
        <ele>673</ele>
        <time>2017-12-15T23:00:33Z</time>
      </trkpt>
      <trkpt lat="44.87712" lon="5.70605">
        <ele>674</ele>
        <time>2017-12-15T23:00:44Z</time>
      </trkpt>
      <trkpt lat="44.87715" lon="5.70622">
        <ele>674</ele>
        <time>2017-12-15T23:00:48Z</time>
      </trkpt>
      <trkpt lat="44.87716" lon="5.70643">
        <ele>674</ele>
        <time>2017-12-15T23:01:07Z</time>
      </trkpt>
      <trkpt lat="44.87714" lon="5.70657">
        <ele>673</ele>
        <time>2017-12-15T23:01:27Z</time>
      </trkpt>
      <trkpt lat="44.87704" lon="5.70679">
        <ele>671</ele>
        <time>2017-12-15T23:01:42Z</time>
      </trkpt>
      <trkpt lat="44.87685" lon="5.70712">
        <ele>670</ele>
        <time>2017-12-15T23:01:46Z</time>
      </trkpt>
      <trkpt lat="44.87679" lon="5.70731">
        <ele>668</ele>
        <time>2017-12-15T23:02:00Z</time>
      </trkpt>
      <trkpt lat="44.87681" lon="5.70765">
        <ele>669</ele>
        <time>2017-12-15T23:02:07Z</time>
      </trkpt>
      <trkpt lat="44.87682" lon="5.70795">
        <ele>671</ele>
        <time>2017-12-15T23:02:23Z</time>
      </trkpt>
      <trkpt lat="44.87678" lon="5.70821">
        <ele>669</ele>
        <time>2017-12-15T23:02:43Z</time>
      </trkpt>
      <trkpt lat="44.87668" lon="5.70849">
        <ele>672</ele>
        <time>2017-12-15T23:02:52Z</time>
      </trkpt>
      <trkpt lat="44.8765" lon="5.70877">
        <ele>664</ele>
        <time>2017-12-15T23:02:57Z</time>
      </trkpt>
      <trkpt lat="44.87629" lon="5.70907">
        <ele>664</ele>
        <time>2017-12-15T23:03:10Z</time>
      </trkpt>
      <trkpt lat="44.87616" lon="5.70919">
        <ele>674</ele>
        <time>2017-12-15T23:03:26Z</time>
      </trkpt>
      <trkpt lat="44.87551" lon="5.70956">
        <ele>660</ele>
        <time>2017-12-15T23:03:40Z</time>
      </trkpt>
      <trkpt lat="44.87513" lon="5.70976">
        <ele>659</ele>
        <time>2017-12-15T23:03:42Z</time>
      </trkpt>
      <trkpt lat="44.87479" lon="5.70993">
        <ele>648</ele>
        <time>2017-12-15T23:03:51Z</time>
      </trkpt>
      <trkpt lat="44.87448" lon="5.71013">
        <ele>655</ele>
        <time>2017-12-15T23:04:08Z</time>
      </trkpt>
      <trkpt lat="44.87432" lon="5.71023">
        <ele>653</ele>
        <time>2017-12-15T23:04:25Z</time>
      </trkpt>
      <trkpt lat="44.87416" lon="5.71043">
        <ele>640</ele>
        <time>2017-12-15T23:04:41Z</time>
      </trkpt>
      <trkpt lat="44.87408" lon="5.71061">
        <ele>643</ele>
        <time>2017-12-15T23:04:55Z</time>
      </trkpt>
      <trkpt lat="44.87406" lon="5.71081">
        <ele>648</ele>
        <time>2017-12-15T23:04:58Z</time>
      </trkpt>
      <trkpt lat="44.87404" lon="5.71119">
        <ele>650</ele>
        <time>2017-12-15T23:05:04Z</time>
      </trkpt>
      <trkpt lat="44.87395" lon="5.71169">
        <ele>660</ele>
        <time>2017-12-15T23:05:13Z</time>
      </trkpt>
      <trkpt lat="44.87377" lon="5.71225">
        <ele>658</ele>
        <time>2017-12-15T23:05:22Z</time>
      </trkpt>
      <trkpt lat="44.87365" lon="5.7127">
        <ele>662</ele>
        <time>2017-12-15T23:05:24Z</time>
      </trkpt>
      <trkpt lat="44.87353" lon="5.71316">
        <ele>660</ele>
        <time>2017-12-15T23:05:42Z</time>
      </trkpt>
      <trkpt lat="44.8733" lon="5.7137">
        <ele>646</ele>
        <time>2017-12-15T23:05:47Z</time>
      </trkpt>
      <trkpt lat="44.87321" lon="5.71413">
        <ele>649</ele>
        <time>2017-12-15T23:06:05Z</time>
      </trkpt>
      <trkpt lat="44.8732" lon="5.71462">
        <ele>648</ele>
        <time>2017-12-15T23:06:18Z</time>
      </trkpt>
      <trkpt lat="44.87324" lon="5.71495">
        <ele>651</ele>
        <time>2017-12-15T23:06:32Z</time>
      </trkpt>
      <trkpt lat="44.87331" lon="5.71526">
        <ele>650</ele>
        <time>2017-12-15T23:06:52Z</time>
      </trkpt>
      <trkpt lat="44.87344" lon="5.71572">
        <ele>661</ele>
        <time>2017-12-15T23:06:56Z</time>
      </trkpt>
      <trkpt lat="44.87355" lon="5.71612">
        <ele>665</ele>
        <time>2017-12-15T23:07:01Z</time>
      </trkpt>
      <trkpt lat="44.87359" lon="5.71642">
        <ele>666</ele>
        <time>2017-12-15T23:07:07Z</time>
      </trkpt>
      <trkpt lat="44.87355" lon="5.7167">
        <ele>667</ele>
        <time>2017-12-15T23:07:25Z</time>
      </trkpt>
      <trkpt lat="44.8734" lon="5.71726">
        <ele>668</ele>
        <time>2017-12-15T23:07:45Z</time>
      </trkpt>
      <trkpt lat="44.87328" lon="5.71776">
        <ele>660</ele>
        <time>2017-12-15T23:07:49Z</time>
      </trkpt>
      <trkpt lat="44.87327" lon="5.71804">
        <ele>661</ele>
        <time>2017-12-15T23:08:08Z</time>
      </trkpt>
      <trkpt lat="44.87332" lon="5.71832">
        <ele>665</ele>
        <time>2017-12-15T23:08:22Z</time>
      </trkpt>
      <trkpt lat="44.87358" lon="5.71897">
        <ele>671</ele>
        <time>2017-12-15T23:08:42Z</time>
      </trkpt>
      <trkpt lat="44.87399" lon="5.71994">
        <ele>672</ele>
        <time>2017-12-15T23:08:58Z</time>
      </trkpt>
      <trkpt lat="44.87404" lon="5.72009">
        <ele>671</ele>
        <time>2017-12-15T23:09:03Z</time>
      </trkpt>
      <trkpt lat="44.87411" lon="5.72041">
        <ele>670</ele>
        <time>2017-12-15T23:09:11Z</time>
      </trkpt>
      <trkpt lat="44.87424" lon="5.72131">
        <ele>681</ele>
        <time>2017-12-15T23:09:19Z</time>
      </trkpt>
      <trkpt lat="44.87425" lon="5.7215">
        <ele>679</ele>
        <time>2017-12-15T23:09:27Z</time>
      </trkpt>
      <trkpt lat="44.87421" lon="5.72189">
        <ele>681</ele>
        <time>2017-12-15T23:09:32Z</time>
      </trkpt>
      <trkpt lat="44.87412" lon="5.72252">
        <ele>681</ele>
        <time>2017-12-15T23:09:46Z</time>
      </trkpt>
      <trkpt lat="44.87402" lon="5.72276">
        <ele>680</ele>
        <time>2017-12-15T23:09:51Z</time>
      </trkpt>
      <trkpt lat="44.87376" lon="5.72317">
        <ele>680</ele>
        <time>2017-12-15T23:09:55Z</time>
      </trkpt>
      <trkpt lat="44.87357" lon="5.72348">
        <ele>683</ele>
        <time>2017-12-15T23:10:06Z</time>
      </trkpt>
      <trkpt lat="44.87354" lon="5.72356">
        <ele>683</ele>
        <time>2017-12-15T23:10:19Z</time>
      </trkpt>
      <trkpt lat="44.87355" lon="5.72387">
        <ele>683</ele>
        <time>2017-12-15T23:10:35Z</time>
      </trkpt>
      <trkpt lat="44.87361" lon="5.72442">
        <ele>683</ele>
        <time>2017-12-15T23:10:42Z</time>
      </trkpt>
      <trkpt lat="44.87365" lon="5.7245">
        <ele>683</ele>
        <time>2017-12-15T23:10:50Z</time>
      </trkpt>
      <trkpt lat="44.87373" lon="5.72459">
        <ele>684</ele>
        <time>2017-12-15T23:11:00Z</time>
      </trkpt>
      <trkpt lat="44.87391" lon="5.72465">
        <ele>684</ele>
        <time>2017-12-15T23:11:12Z</time>
      </trkpt>
      <trkpt lat="44.87408" lon="5.72466">
        <ele>685</ele>
        <time>2017-12-15T23:11:17Z</time>
      </trkpt>
      <trkpt lat="44.87418" lon="5.7247">
        <ele>691</ele>
        <time>2017-12-15T23:11:34Z</time>
      </trkpt>
      <trkpt lat="44.87433" lon="5.72486">
        <ele>690</ele>
        <time>2017-12-15T23:11:50Z</time>
      </trkpt>
      <trkpt lat="44.87481" lon="5.72585">
        <ele>688</ele>
        <time>2017-12-15T23:11:54Z</time>
      </trkpt>
      <trkpt lat="44.87489" lon="5.72602">
        <ele>687</ele>
        <time>2017-12-15T23:12:14Z</time>
      </trkpt>
      <trkpt lat="44.87515" lon="5.72661">
        <ele>691</ele>
        <time>2017-12-15T23:12:29Z</time>
      </trkpt>
      <trkpt lat="44.87529" lon="5.72703">
        <ele>694</ele>
        <time>2017-12-15T23:12:40Z</time>
      </trkpt>
      <trkpt lat="44.87532" lon="5.72718">
        <ele>694</ele>
        <time>2017-12-15T23:12:49Z</time>
      </trkpt>
      <trkpt lat="44.87532" lon="5.72737">
        <ele>694</ele>
        <time>2017-12-15T23:12:52Z</time>
      </trkpt>
      <trkpt lat="44.87527" lon="5.72753">
        <ele>697</ele>
        <time>2017-12-15T23:12:58Z</time>
      </trkpt>
      <trkpt lat="44.87492" lon="5.72805">
        <ele>684</ele>
        <time>2017-12-15T23:13:00Z</time>
      </trkpt>
      <trkpt lat="44.87475" lon="5.72828">
        <ele>684</ele>
        <time>2017-12-15T23:13:11Z</time>
      </trkpt>
      <trkpt lat="44.87427" lon="5.72908">
        <ele>680</ele>
        <time>2017-12-15T23:13:14Z</time>
      </trkpt>
      <trkpt lat="44.8742" lon="5.72922">
        <ele>676</ele>
        <time>2017-12-15T23:13:32Z</time>
      </trkpt>
      <trkpt lat="44.8742" lon="5.7293">
        <ele>677</ele>
        <time>2017-12-15T23:13:35Z</time>
      </trkpt>
      <trkpt lat="44.87422" lon="5.72939">
        <ele>677</ele>
        <time>2017-12-15T23:13:43Z</time>
      </trkpt>
      <trkpt lat="44.87427" lon="5.72948">
        <ele>676</ele>
        <time>2017-12-15T23:14:00Z</time>
      </trkpt>
      <trkpt lat="44.87443" lon="5.72964">
        <ele>676</ele>
        <time>2017-12-15T23:14:13Z</time>
      </trkpt>
      <trkpt lat="44.8748" lon="5.72986">
        <ele>679</ele>
        <time>2017-12-15T23:14:15Z</time>
      </trkpt>
      <trkpt lat="44.87502" lon="5.72995">
        <ele>681</ele>
        <time>2017-12-15T23:14:25Z</time>
      </trkpt>
      <trkpt lat="44.87523" lon="5.72995">
        <ele>686</ele>
        <time>2017-12-15T23:14:41Z</time>
      </trkpt>
      <trkpt lat="44.87603" lon="5.72978">
        <ele>687</ele>
        <time>2017-12-15T23:14:45Z</time>
      </trkpt>
      <trkpt lat="44.87627" lon="5.72972">
        <ele>689</ele>
        <time>2017-12-15T23:14:54Z</time>
      </trkpt>
      <trkpt lat="44.87639" lon="5.72967">
        <ele>689</ele>
        <time>2017-12-15T23:15:00Z</time>
      </trkpt>
      <trkpt lat="44.87656" lon="5.72961">
        <ele>690</ele>
        <time>2017-12-15T23:15:04Z</time>
      </trkpt>
      <trkpt lat="44.87674" lon="5.72964">
        <ele>688</ele>
        <time>2017-12-15T23:15:21Z</time>
      </trkpt>
      <trkpt lat="44.87712" lon="5.72962">
        <ele>690</ele>
        <time>2017-12-15T23:15:40Z</time>
      </trkpt>
      <trkpt lat="44.87743" lon="5.72962">
        <ele>690</ele>
        <time>2017-12-15T23:15:44Z</time>
      </trkpt>
      <trkpt lat="44.87805" lon="5.72974">
        <ele>695</ele>
        <time>2017-12-15T23:15:50Z</time>
      </trkpt>
      <trkpt lat="44.8783" lon="5.72982">
        <ele>693</ele>
        <time>2017-12-15T23:15:57Z</time>
      </trkpt>
      <trkpt lat="44.87845" lon="5.7299">
        <ele>697</ele>
        <time>2017-12-15T23:16:15Z</time>
      </trkpt>
      <trkpt lat="44.87862" lon="5.73005">
        <ele>697</ele>
        <time>2017-12-15T23:16:18Z</time>
      </trkpt>
      <trkpt lat="44.87864" lon="5.73014">
        <ele>698</ele>
        <time>2017-12-15T23:16:32Z</time>
      </trkpt>
      <trkpt lat="44.87862" lon="5.7303">
        <ele>698</ele>
        <time>2017-12-15T23:16:49Z</time>
      </trkpt>
      <trkpt lat="44.87846" lon="5.73051">
        <ele>697</ele>
        <time>2017-12-15T23:17:06Z</time>
      </trkpt>
      <trkpt lat="44.87832" lon="5.73063">
        <ele>687</ele>
        <time>2017-12-15T23:17:11Z</time>
      </trkpt>
      <trkpt lat="44.8781" lon="5.73069">
        <ele>685</ele>
        <time>2017-12-15T23:17:30Z</time>
      </trkpt>
      <trkpt lat="44.87773" lon="5.73072">
        <ele>681</ele>
        <time>2017-12-15T23:17:42Z</time>
      </trkpt>
      <trkpt lat="44.87764" lon="5.73076">
        <ele>680</ele>
        <time>2017-12-15T23:17:52Z</time>
      </trkpt>
      <trkpt lat="44.87753" lon="5.73086">
        <ele>681</ele>
        <time>2017-12-15T23:18:02Z</time>
      </trkpt>
      <trkpt lat="44.87726" lon="5.7313">
        <ele>680</ele>
        <time>2017-12-15T23:18:16Z</time>
      </trkpt>
      <trkpt lat="44.87705" lon="5.73164">
        <ele>679</ele>
        <time>2017-12-15T23:18:26Z</time>
      </trkpt>
      <trkpt lat="44.877" lon="5.73179">
        <ele>686</ele>
        <time>2017-12-15T23:18:32Z</time>
      </trkpt>
      <trkpt lat="44.87698" lon="5.73203">
        <ele>687</ele>
        <time>2017-12-15T23:18:40Z</time>
      </trkpt>
      <trkpt lat="44.87698" lon="5.73249">
        <ele>687</ele>
        <time>2017-12-15T23:18:49Z</time>
      </trkpt>
      <trkpt lat="44.87697" lon="5.73265">
        <ele>692</ele>
        <time>2017-12-15T23:18:51Z</time>
      </trkpt>
      <trkpt lat="44.87693" lon="5.73279">
        <ele>692</ele>
        <time>2017-12-15T23:19:10Z</time>
      </trkpt>
      <trkpt lat="44.87682" lon="5.73306">
        <ele>692</ele>
        <time>2017-12-15T23:19:20Z</time>
      </trkpt>
      <trkpt lat="44.8768" lon="5.73315">
        <ele>691</ele>
        <time>2017-12-15T23:19:29Z</time>
      </trkpt>
      <trkpt lat="44.8768" lon="5.73346">
        <ele>694</ele>
        <time>2017-12-15T23:19:48Z</time>
      </trkpt>
      <trkpt lat="44.87678" lon="5.73376">
        <ele>698</ele>
        <time>2017-12-15T23:19:55Z</time>
      </trkpt>
      <trkpt lat="44.87672" lon="5.73388">
        <ele>697</ele>
        <time>2017-12-15T23:20:12Z</time>
      </trkpt>
      <trkpt lat="44.87649" lon="5.73406">
        <ele>685</ele>
        <time>2017-12-15T23:20:20Z</time>
      </trkpt>
      <trkpt lat="44.8764" lon="5.73418">
        <ele>690</ele>
        <time>2017-12-15T23:20:36Z</time>
      </trkpt>
      <trkpt lat="44.87634" lon="5.73432">
        <ele>690</ele>
        <time>2017-12-15T23:20:49Z</time>
      </trkpt>
      <trkpt lat="44.87626" lon="5.73475">
        <ele>692</ele>
        <time>2017-12-15T23:20:55Z</time>
      </trkpt>
      <trkpt lat="44.87616" lon="5.73506">
        <ele>700</ele>
        <time>2017-12-15T23:21:10Z</time>
      </trkpt>
      <trkpt lat="44.87609" lon="5.73512">
        <ele>700</ele>
        <time>2017-12-15T23:21:27Z</time>
      </trkpt>
      <trkpt lat="44.87599" lon="5.73515">
        <ele>699</ele>
        <time>2017-12-15T23:21:30Z</time>
      </trkpt>
      <trkpt lat="44.8759" lon="5.73512">
        <ele>698</ele>
        <time>2017-12-15T23:21:41Z</time>
      </trkpt>
      <trkpt lat="44.87578" lon="5.73499">
        <ele>694</ele>
        <time>2017-12-15T23:21:44Z</time>
      </trkpt>
      <trkpt lat="44.8755" lon="5.73457">
        <ele>688</ele>
        <time>2017-12-15T23:22:04Z</time>
      </trkpt>
      <trkpt lat="44.87541" lon="5.73445">
        <ele>687</ele>
        <time>2017-12-15T23:22:12Z</time>
      </trkpt>
      <trkpt lat="44.87528" lon="5.73438">
        <ele>687</ele>
        <time>2017-12-15T23:22:22Z</time>
      </trkpt>
      <trkpt lat="44.87516" lon="5.73437">
        <ele>686</ele>
        <time>2017-12-15T23:22:24Z</time>
      </trkpt>
      <trkpt lat="44.87501" lon="5.7344">
        <ele>686</ele>
        <time>2017-12-15T23:22:37Z</time>
      </trkpt>
      <trkpt lat="44.87482" lon="5.73454">
        <ele>685</ele>
        <time>2017-12-15T23:22:57Z</time>
      </trkpt>
      <trkpt lat="44.87452" lon="5.73483">
        <ele>685</ele>
        <time>2017-12-15T23:23:05Z</time>
      </trkpt>
      <trkpt lat="44.8742" lon="5.7352">
        <ele>692</ele>
        <time>2017-12-15T23:23:21Z</time>
      </trkpt>
      <trkpt lat="44.87352" lon="5.73593">
        <ele>696</ele>
        <time>2017-12-15T23:23:34Z</time>
      </trkpt>
      <trkpt lat="44.87318" lon="5.73641">
        <ele>688</ele>
        <time>2017-12-15T23:23:48Z</time>
      </trkpt>
      <trkpt lat="44.87313" lon="5.7365">
        <ele>689</ele>
        <time>2017-12-15T23:24:08Z</time>
      </trkpt>
      <trkpt lat="44.87299" lon="5.73692">
        <ele>693</ele>
        <time>2017-12-15T23:24:21Z</time>
      </trkpt>
      <trkpt lat="44.87289" lon="5.73788">
        <ele>699</ele>
        <time>2017-12-15T23:24:41Z</time>
      </trkpt>
      <trkpt lat="44.87273" lon="5.73923">
        <ele>707</ele>
        <time>2017-12-15T23:24:54Z</time>
      </trkpt>
      <trkpt lat="44.8727" lon="5.73959">
        <ele>709</ele>
        <time>2017-12-15T23:25:14Z</time>
      </trkpt>
      <trkpt lat="44.8727" lon="5.73988">
        <ele>709</ele>
        <time>2017-12-15T23:25:23Z</time>
      </trkpt>
      <trkpt lat="44.87276" lon="5.7408">
        <ele>711</ele>
        <time>2017-12-15T23:25:42Z</time>
      </trkpt>
      <trkpt lat="44.87278" lon="5.74118">
        <ele>713</ele>
        <time>2017-12-15T23:25:49Z</time>
      </trkpt>
      <trkpt lat="44.87281" lon="5.74166">
        <ele>713</ele>
        <time>2017-12-15T23:26:08Z</time>
      </trkpt>
      <trkpt lat="44.87285" lon="5.74186">
        <ele>713</ele>
        <time>2017-12-15T23:26:19Z</time>
      </trkpt>
      <trkpt lat="44.87293" lon="5.74206">
        <ele>714</ele>
        <time>2017-12-15T23:26:30Z</time>
      </trkpt>
      <trkpt lat="44.87306" lon="5.74225">
        <ele>715</ele>
        <time>2017-12-15T23:26:33Z</time>
      </trkpt>
      <trkpt lat="44.8733" lon="5.74251">
        <ele>718</ele>
        <time>2017-12-15T23:26:41Z</time>
      </trkpt>
      <trkpt lat="44.87346" lon="5.7427">
        <ele>722</ele>
        <time>2017-12-15T23:26:58Z</time>
      </trkpt>
      <trkpt lat="44.87358" lon="5.74278">
        <ele>723</ele>
        <time>2017-12-15T23:27:18Z</time>
      </trkpt>
      <trkpt lat="44.87388" lon="5.74282">
        <ele>726</ele>
        <time>2017-12-15T23:27:36Z</time>
      </trkpt>
      <trkpt lat="44.87402" lon="5.74288">
        <ele>727</ele>
        <time>2017-12-15T23:27:52Z</time>
      </trkpt>
      <trkpt lat="44.87414" lon="5.743">
        <ele>727</ele>
        <time>2017-12-15T23:28:01Z</time>
      </trkpt>
      <trkpt lat="44.8742" lon="5.74315">
        <ele>736</ele>
        <time>2017-12-15T23:28:21Z</time>
      </trkpt>
      <trkpt lat="44.87422" lon="5.74334">
        <ele>734</ele>
        <time>2017-12-15T23:28:40Z</time>
      </trkpt>
      <trkpt lat="44.87421" lon="5.74352">
        <ele>740</ele>
        <time>2017-12-15T23:29:00Z</time>
      </trkpt>
      <trkpt lat="44.87415" lon="5.74369">
        <ele>727</ele>
        <time>2017-12-15T23:29:19Z</time>
      </trkpt>
      <trkpt lat="44.8738" lon="5.74437">
        <ele>731</ele>
        <time>2017-12-15T23:29:24Z</time>
      </trkpt>
      <trkpt lat="44.87372" lon="5.74454">
        <ele>731</ele>
        <time>2017-12-15T23:29:28Z</time>
      </trkpt>
      <trkpt lat="44.87368" lon="5.74474">
        <ele>731</ele>
        <time>2017-12-15T23:29:43Z</time>
      </trkpt>
      <trkpt lat="44.8737" lon="5.74519">
        <ele>735</ele>
        <time>2017-12-15T23:29:59Z</time>
      </trkpt>
      <trkpt lat="44.87375" lon="5.74569">
        <ele>735</ele>
        <time>2017-12-15T23:30:12Z</time>
      </trkpt>
      <trkpt lat="44.87397" lon="5.74658">
        <ele>738</ele>
        <time>2017-12-15T23:30:29Z</time>
      </trkpt>
      <trkpt lat="44.8741" lon="5.74697">
        <ele>737</ele>
        <time>2017-12-15T23:30:40Z</time>
      </trkpt>
      <trkpt lat="44.87413" lon="5.74719">
        <ele>737</ele>
        <time>2017-12-15T23:30:47Z</time>
      </trkpt>
      <trkpt lat="44.87412" lon="5.74743">
        <ele>743</ele>
        <time>2017-12-15T23:30:59Z</time>
      </trkpt>
      <trkpt lat="44.874" lon="5.74813">
        <ele>740</ele>
        <time>2017-12-15T23:31:09Z</time>
      </trkpt>
      <trkpt lat="44.87396" lon="5.74841">
        <ele>740</ele>
        <time>2017-12-15T23:31:12Z</time>
      </trkpt>
      <trkpt lat="44.87397" lon="5.7486">
        <ele>738</ele>
        <time>2017-12-15T23:31:28Z</time>
      </trkpt>
      <trkpt lat="44.87405" lon="5.7489">
        <ele>738</ele>
        <time>2017-12-15T23:31:45Z</time>
      </trkpt>
      <trkpt lat="44.87416" lon="5.74909">
        <ele>745</ele>
        <time>2017-12-15T23:32:04Z</time>
      </trkpt>
      <trkpt lat="44.87435" lon="5.74931">
        <ele>751</ele>
        <time>2017-12-15T23:32:07Z</time>
      </trkpt>
      <trkpt lat="44.87466" lon="5.74968">
        <ele>753</ele>
        <time>2017-12-15T23:32:16Z</time>
      </trkpt>
      <trkpt lat="44.87479" lon="5.7498">
        <ele>753</ele>
        <time>2017-12-15T23:32:35Z</time>
      </trkpt>
      <trkpt lat="44.87544" lon="5.75021">
        <ele>760</ele>
        <time>2017-12-15T23:32:41Z</time>
      </trkpt>
      <trkpt lat="44.87583" lon="5.75052">
        <ele>760</ele>
        <time>2017-12-15T23:32:54Z</time>
      </trkpt>
      <trkpt lat="44.87603" lon="5.75078">
        <ele>775</ele>
        <time>2017-12-15T23:33:04Z</time>
      </trkpt>
      <trkpt lat="44.87661" lon="5.75154">
        <ele>762</ele>
        <time>2017-12-15T23:33:17Z</time>
      </trkpt>
      <trkpt lat="44.87679" lon="5.75176">
        <ele>767</ele>
        <time>2017-12-15T23:33:25Z</time>
      </trkpt>
      <trkpt lat="44.87703" lon="5.75199">
        <ele>771</ele>
        <time>2017-12-15T23:33:44Z</time>
      </trkpt>
      <trkpt lat="44.87741" lon="5.75235">
        <ele>772</ele>
        <time>2017-12-15T23:33:58Z</time>
      </trkpt>
      <trkpt lat="44.87774" lon="5.75259">
        <ele>778</ele>
        <time>2017-12-15T23:34:00Z</time>
      </trkpt>
      <trkpt lat="44.87813" lon="5.75298">
        <ele>780</ele>
        <time>2017-12-15T23:34:14Z</time>
      </trkpt>
      <trkpt lat="44.87833" lon="5.75313">
        <ele>779</ele>
        <time>2017-12-15T23:34:22Z</time>
      </trkpt>
      <trkpt lat="44.87864" lon="5.75328">
        <ele>790</ele>
        <time>2017-12-15T23:34:40Z</time>
      </trkpt>
      <trkpt lat="44.87872" lon="5.75341">
        <ele>792</ele>
        <time>2017-12-15T23:34:51Z</time>
      </trkpt>
      <trkpt lat="44.87874" lon="5.75356">
        <ele>794</ele>
        <time>2017-12-15T23:35:05Z</time>
      </trkpt>
      <trkpt lat="44.87873" lon="5.75364">
        <ele>795</ele>
        <time>2017-12-15T23:35:20Z</time>
      </trkpt>
      <trkpt lat="44.8787" lon="5.7537">
        <ele>795</ele>
        <time>2017-12-15T23:35:37Z</time>
      </trkpt>
      <trkpt lat="44.87859" lon="5.75376">
        <ele>795</ele>
        <time>2017-12-15T23:35:39Z</time>
      </trkpt>
      <trkpt lat="44.87799" lon="5.75389">
        <ele>788</ele>
        <time>2017-12-15T23:35:50Z</time>
      </trkpt>
      <trkpt lat="44.87751" lon="5.75401">
        <ele>789</ele>
        <time>2017-12-15T23:36:06Z</time>
      </trkpt>
      <trkpt lat="44.87699" lon="5.75428">
        <ele>799</ele>
        <time>2017-12-15T23:36:22Z</time>
      </trkpt>
      <trkpt lat="44.87673" lon="5.75435">
        <ele>794</ele>
        <time>2017-12-15T23:36:25Z</time>
      </trkpt>
      <trkpt lat="44.87649" lon="5.75438">
        <ele>790</ele>
        <time>2017-12-15T23:36:34Z</time>
      </trkpt>
      <trkpt lat="44.87618" lon="5.75439">
        <ele>790</ele>
        <time>2017-12-15T23:36:54Z</time>
      </trkpt>
      <trkpt lat="44.87607" lon="5.75442">
        <ele>789</ele>
        <time>2017-12-15T23:36:56Z</time>
      </trkpt>
      <trkpt lat="44.87592" lon="5.75451">
        <ele>791</ele>
        <time>2017-12-15T23:37:04Z</time>
      </trkpt>
      <trkpt lat="44.87555" lon="5.75477">
        <ele>781</ele>
        <time>2017-12-15T23:37:17Z</time>
      </trkpt>
      <trkpt lat="44.87547" lon="5.75485">
        <ele>780</ele>
        <time>2017-12-15T23:37:29Z</time>
      </trkpt>
      <trkpt lat="44.87544" lon="5.75491">
        <ele>779</ele>
        <time>2017-12-15T23:37:38Z</time>
      </trkpt>
      <trkpt lat="44.87543" lon="5.755">
        <ele>780</ele>
        <time>2017-12-15T23:37:42Z</time>
      </trkpt>
      <trkpt lat="44.87544" lon="5.75509">
        <ele>788</ele>
        <time>2017-12-15T23:37:48Z</time>
      </trkpt>
      <trkpt lat="44.87553" lon="5.7553">
        <ele>791</ele>
        <time>2017-12-15T23:37:53Z</time>
      </trkpt>
      <trkpt lat="44.87557" lon="5.75546">
        <ele>792</ele>
        <time>2017-12-15T23:38:05Z</time>
      </trkpt>
      <trkpt lat="44.87557" lon="5.7556">
        <ele>794</ele>
        <time>2017-12-15T23:38:14Z</time>
      </trkpt>
      <trkpt lat="44.87555" lon="5.75594">
        <ele>791</ele>
        <time>2017-12-15T23:38:32Z</time>
      </trkpt>
      <trkpt lat="44.87558" lon="5.75615">
        <ele>789</ele>
        <time>2017-12-15T23:38:43Z</time>
      </trkpt>
      <trkpt lat="44.87565" lon="5.75631">
        <ele>789</ele>
        <time>2017-12-15T23:38:46Z</time>
      </trkpt>
      <trkpt lat="44.8758" lon="5.7567">
        <ele>801</ele>
        <time>2017-12-15T23:39:01Z</time>
      </trkpt>
      <trkpt lat="44.87606" lon="5.75763">
        <ele>806</ele>
        <time>2017-12-15T23:39:18Z</time>
      </trkpt>
      <trkpt lat="44.87633" lon="5.75842">
        <ele>799</ele>
        <time>2017-12-15T23:39:25Z</time>
      </trkpt>
      <trkpt lat="44.87642" lon="5.75854">
        <ele>801</ele>
        <time>2017-12-15T23:39:45Z</time>
      </trkpt>
      <trkpt lat="44.87655" lon="5.75865">
        <ele>802</ele>
        <time>2017-12-15T23:39:58Z</time>
      </trkpt>
      <trkpt lat="44.87669" lon="5.75876">
        <ele>826</ele>
        <time>2017-12-15T23:40:05Z</time>
      </trkpt>
      <trkpt lat="44.87685" lon="5.75893">
        <ele>824</ele>
        <time>2017-12-15T23:40:20Z</time>
      </trkpt>
      <trkpt lat="44.8774" lon="5.75962">
        <ele>818</ele>
        <time>2017-12-15T23:40:39Z</time>
      </trkpt>
      <trkpt lat="44.8775" lon="5.75981">
        <ele>819</ele>
        <time>2017-12-15T23:40:42Z</time>
      </trkpt>
      <trkpt lat="44.87753" lon="5.76012">
        <ele>831</ele>
        <time>2017-12-15T23:40:50Z</time>
      </trkpt>
      <trkpt lat="44.87756" lon="5.76046">
        <ele>834</ele>
        <time>2017-12-15T23:40:53Z</time>
      </trkpt>
      <trkpt lat="44.87763" lon="5.76089">
        <ele>823</ele>
        <time>2017-12-15T23:40:59Z</time>
      </trkpt>
      <trkpt lat="44.87774" lon="5.76133">
        <ele>829</ele>
        <time>2017-12-15T23:41:16Z</time>
      </trkpt>
      <trkpt lat="44.87782" lon="5.76191">
        <ele>825</ele>
        <time>2017-12-15T23:41:34Z</time>
      </trkpt>
      <trkpt lat="44.87781" lon="5.7625">
        <ele>818</ele>
        <time>2017-12-15T23:41:49Z</time>
      </trkpt>
      <trkpt lat="44.87784" lon="5.76277">
        <ele>818</ele>
        <time>2017-12-15T23:42:03Z</time>
      </trkpt>
      <trkpt lat="44.87791" lon="5.76303">
        <ele>818</ele>
        <time>2017-12-15T23:42:08Z</time>
      </trkpt>
      <trkpt lat="44.87805" lon="5.76336">
        <ele>815</ele>
        <time>2017-12-15T23:42:18Z</time>
      </trkpt>
      <trkpt lat="44.87819" lon="5.76358">
        <ele>816</ele>
        <time>2017-12-15T23:42:21Z</time>
      </trkpt>
      <trkpt lat="44.87849" lon="5.76399">
        <ele>827</ele>
        <time>2017-12-15T23:42:36Z</time>
      </trkpt>
      <trkpt lat="44.87883" lon="5.7644">
        <ele>825</ele>
        <time>2017-12-15T23:42:54Z</time>
      </trkpt>
      <trkpt lat="44.87949" lon="5.76516">
        <ele>827</ele>
        <time>2017-12-15T23:42:57Z</time>
      </trkpt>
      <trkpt lat="44.87966" lon="5.76536">
        <ele>828</ele>
        <time>2017-12-15T23:43:01Z</time>
      </trkpt>
      <trkpt lat="44.87988" lon="5.76556">
        <ele>829</ele>
        <time>2017-12-15T23:43:14Z</time>
      </trkpt>
      <trkpt lat="44.8801" lon="5.76571">
        <ele>838</ele>
        <time>2017-12-15T23:43:16Z</time>
      </trkpt>
      <trkpt lat="44.88047" lon="5.76593">
        <ele>832</ele>
        <time>2017-12-15T23:43:27Z</time>
      </trkpt>
      <trkpt lat="44.88076" lon="5.76607">
        <ele>834</ele>
        <time>2017-12-15T23:43:30Z</time>
      </trkpt>
      <trkpt lat="44.88102" lon="5.76624">
        <ele>839</ele>
        <time>2017-12-15T23:43:48Z</time>
      </trkpt>
      <trkpt lat="44.88142" lon="5.76645">
        <ele>837</ele>
        <time>2017-12-15T23:44:08Z</time>
      </trkpt>
      <trkpt lat="44.88169" lon="5.76648">
        <ele>833</ele>
        <time>2017-12-15T23:44:12Z</time>
      </trkpt>
      <trkpt lat="44.88182" lon="5.76647">
        <ele>833</ele>
        <time>2017-12-15T23:44:32Z</time>
      </trkpt>
      <trkpt lat="44.88189" lon="5.76643">
        <ele>833</ele>
        <time>2017-12-15T23:44:41Z</time>
      </trkpt>
      <trkpt lat="44.88196" lon="5.76636">
        <ele>834</ele>
        <time>2017-12-15T23:44:51Z</time>
      </trkpt>
      <trkpt lat="44.88206" lon="5.76619">
        <ele>836</ele>
        <time>2017-12-15T23:45:10Z</time>
      </trkpt>
      <trkpt lat="44.88224" lon="5.76585">
        <ele>840</ele>
        <time>2017-12-15T23:45:29Z</time>
      </trkpt>
      <trkpt lat="44.88234" lon="5.76574">
        <ele>853</ele>
        <time>2017-12-15T23:45:38Z</time>
      </trkpt>
      <trkpt lat="44.88265" lon="5.76547">
        <ele>844</ele>
        <time>2017-12-15T23:45:47Z</time>
      </trkpt>
      <trkpt lat="44.88318" lon="5.76505">
        <ele>843</ele>
        <time>2017-12-15T23:45:52Z</time>
      </trkpt>
      <trkpt lat="44.88372" lon="5.76443">
        <ele>846</ele>
        <time>2017-12-15T23:46:08Z</time>
      </trkpt>
      <trkpt lat="44.88379" lon="5.7643">
        <ele>846</ele>
        <time>2017-12-15T23:46:22Z</time>
      </trkpt>
      <trkpt lat="44.88386" lon="5.7642">
        <ele>846</ele>
        <time>2017-12-15T23:46:27Z</time>
      </trkpt>
      <trkpt lat="44.88403" lon="5.76416">
        <ele>856</ele>
        <time>2017-12-15T23:46:44Z</time>
      </trkpt>
      <trkpt lat="44.88417" lon="5.7641">
        <ele>845</ele>
        <time>2017-12-15T23:46:59Z</time>
      </trkpt>
      <trkpt lat="44.88428" lon="5.76397">
        <ele>846</ele>
        <time>2017-12-15T23:47:18Z</time>
      </trkpt>
      <trkpt lat="44.88445" lon="5.76395">
        <ele>845</ele>
        <time>2017-12-15T23:47:24Z</time>
      </trkpt>
      <trkpt lat="44.88462" lon="5.76387">
        <ele>843</ele>
        <time>2017-12-15T23:47:43Z</time>
      </trkpt>
      <trkpt lat="44.88476" lon="5.76378">
        <ele>843</ele>
        <time>2017-12-15T23:47:48Z</time>
      </trkpt>
      <trkpt lat="44.88493" lon="5.76356">
        <ele>846</ele>
        <time>2017-12-15T23:48:02Z</time>
      </trkpt>
      <trkpt lat="44.88502" lon="5.76337">
        <ele>846</ele>
        <time>2017-12-15T23:48:04Z</time>
      </trkpt>
      <trkpt lat="44.8851" lon="5.76311">
        <ele>849</ele>
        <time>2017-12-15T23:48:22Z</time>
      </trkpt>
      <trkpt lat="44.88523" lon="5.76257">
        <ele>852</ele>
        <time>2017-12-15T23:48:38Z</time>
      </trkpt>
      <trkpt lat="44.88537" lon="5.76228">
        <ele>856</ele>
        <time>2017-12-15T23:48:42Z</time>
      </trkpt>
      <trkpt lat="44.88568" lon="5.76195">
        <ele>855</ele>
        <time>2017-12-15T23:48:53Z</time>
      </trkpt>
      <trkpt lat="44.88608" lon="5.76158">
        <ele>854</ele>
        <time>2017-12-15T23:49:11Z</time>
      </trkpt>
      <trkpt lat="44.88624" lon="5.76144">
        <ele>854</ele>
        <time>2017-12-15T23:49:17Z</time>
      </trkpt>
      <trkpt lat="44.88642" lon="5.7613">
        <ele>854</ele>
        <time>2017-12-15T23:49:37Z</time>
      </trkpt>
      <trkpt lat="44.88658" lon="5.76125">
        <ele>855</ele>
        <time>2017-12-15T23:49:41Z</time>
      </trkpt>
      <trkpt lat="44.88667" lon="5.76127">
        <ele>856</ele>
        <time>2017-12-15T23:49:57Z</time>
      </trkpt>
      <trkpt lat="44.88673" lon="5.76132">
        <ele>856</ele>
        <time>2017-12-15T23:49:59Z</time>
      </trkpt>
      <trkpt lat="44.88683" lon="5.76142">
        <ele>855</ele>
        <time>2017-12-15T23:50:17Z</time>
      </trkpt>
      <trkpt lat="44.88693" lon="5.76157">
        <ele>854</ele>
        <time>2017-12-15T23:50:23Z</time>
      </trkpt>
      <trkpt lat="44.88701" lon="5.76176">
        <ele>845</ele>
        <time>2017-12-15T23:50:36Z</time>
      </trkpt>
      <trkpt lat="44.88708" lon="5.76183">
        <ele>845</ele>
        <time>2017-12-15T23:50:55Z</time>
      </trkpt>
      <trkpt lat="44.88718" lon="5.76187">
        <ele>845</ele>
        <time>2017-12-15T23:51:13Z</time>
      </trkpt>
      <trkpt lat="44.88735" lon="5.76185">
        <ele>846</ele>
        <time>2017-12-15T23:51:15Z</time>
      </trkpt>
      <trkpt lat="44.88768" lon="5.76173">
        <ele>848</ele>
        <time>2017-12-15T23:51:29Z</time>
      </trkpt>
      <trkpt lat="44.88806" lon="5.76162">
        <ele>861</ele>
        <time>2017-12-15T23:51:49Z</time>
      </trkpt>
      <trkpt lat="44.88816" lon="5.76161">
        <ele>860</ele>
        <time>2017-12-15T23:52:06Z</time>
      </trkpt>
      <trkpt lat="44.88828" lon="5.76163">
        <ele>857</ele>
        <time>2017-12-15T23:52:11Z</time>
      </trkpt>
      <trkpt lat="44.88849" lon="5.76172">
        <ele>852</ele>
        <time>2017-12-15T23:52:15Z</time>
      </trkpt>
      <trkpt lat="44.88869" lon="5.76179">
        <ele>851</ele>
        <time>2017-12-15T23:52:18Z</time>
      </trkpt>
      <trkpt lat="44.88877" lon="5.76182">
        <ele>852</ele>
        <time>2017-12-15T23:52:28Z</time>
      </trkpt>
      <trkpt lat="44.88885" lon="5.76188">
        <ele>852</ele>
        <time>2017-12-15T23:52:43Z</time>
      </trkpt>
      <trkpt lat="44.88893" lon="5.76199">
        <ele>851</ele>
        <time>2017-12-15T23:53:01Z</time>
      </trkpt>
      <trkpt lat="44.88898" lon="5.76218">
        <ele>850</ele>
        <time>2017-12-15T23:53:12Z</time>
      </trkpt>
      <trkpt lat="44.88894" lon="5.76252">
        <ele>844</ele>
        <time>2017-12-15T23:53:27Z</time>
      </trkpt>
      <trkpt lat="44.88887" lon="5.76305">
        <ele>840</ele>
        <time>2017-12-15T23:53:37Z</time>
      </trkpt>
      <trkpt lat="44.88893" lon="5.76328">
        <ele>840</ele>
        <time>2017-12-15T23:53:46Z</time>
      </trkpt>
      <trkpt lat="44.88901" lon="5.7634">
        <ele>836</ele>
        <time>2017-12-15T23:53:50Z</time>
      </trkpt>
      <trkpt lat="44.88909" lon="5.76348">
        <ele>836</ele>
        <time>2017-12-15T23:54:06Z</time>
      </trkpt>
      <trkpt lat="44.88927" lon="5.76351">
        <ele>840</ele>
        <time>2017-12-15T23:54:08Z</time>
      </trkpt>
      <trkpt lat="44.88941" lon="5.76349">
        <ele>839</ele>
        <time>2017-12-15T23:54:14Z</time>
      </trkpt>
      <trkpt lat="44.88961" lon="5.76341">
        <ele>839</ele>
        <time>2017-12-15T23:54:20Z</time>
      </trkpt>
      <trkpt lat="44.8898" lon="5.7633">
        <ele>847</ele>
        <time>2017-12-15T23:54:32Z</time>
      </trkpt>
      <trkpt lat="44.88993" lon="5.7632">
        <ele>847</ele>
        <time>2017-12-15T23:54:47Z</time>
      </trkpt>
      <trkpt lat="44.89005" lon="5.76307">
        <ele>847</ele>
        <time>2017-12-15T23:54:52Z</time>
      </trkpt>
      <trkpt lat="44.89014" lon="5.76296">
        <ele>848</ele>
        <time>2017-12-15T23:55:12Z</time>
      </trkpt>
      <trkpt lat="44.89042" lon="5.76256">
        <ele>849</ele>
        <time>2017-12-15T23:55:30Z</time>
      </trkpt>
      <trkpt lat="44.8906" lon="5.76235">
        <ele>857</ele>
        <time>2017-12-15T23:55:40Z</time>
      </trkpt>
      <trkpt lat="44.89082" lon="5.76216">
        <ele>859</ele>
        <time>2017-12-15T23:55:56Z</time>
      </trkpt>
      <trkpt lat="44.89115" lon="5.76185">
        <ele>856</ele>
        <time>2017-12-15T23:56:14Z</time>
      </trkpt>
      <trkpt lat="44.89128" lon="5.7617">
        <ele>855</ele>
        <time>2017-12-15T23:56:18Z</time>
      </trkpt>
      <trkpt lat="44.89135" lon="5.76159">
        <ele>865</ele>
        <time>2017-12-15T23:56:31Z</time>
      </trkpt>
      <trkpt lat="44.89148" lon="5.76151">
        <ele>863</ele>
        <time>2017-12-15T23:56:43Z</time>
      </trkpt>
      <trkpt lat="44.89157" lon="5.76149">
        <ele>862</ele>
        <time>2017-12-15T23:57:00Z</time>
      </trkpt>
      <trkpt lat="44.89184" lon="5.7616">
        <ele>857</ele>
        <time>2017-12-15T23:57:07Z</time>
      </trkpt>
      <trkpt lat="44.8929" lon="5.76216">
        <ele>856</ele>
        <time>2017-12-15T23:57:17Z</time>
      </trkpt>
      <trkpt lat="44.89297" lon="5.76223">
        <ele>856</ele>
        <time>2017-12-15T23:57:22Z</time>
      </trkpt>
      <trkpt lat="44.893" lon="5.76232">
        <ele>856</ele>
        <time>2017-12-15T23:57:38Z</time>
      </trkpt>
      <trkpt lat="44.893" lon="5.76236">
        <ele>856</ele>
        <time>2017-12-15T23:57:47Z</time>
      </trkpt>
      <trkpt lat="44.89294" lon="5.7625">
        <ele>854</ele>
        <time>2017-12-15T23:58:04Z</time>
      </trkpt>
      <trkpt lat="44.89267" lon="5.76293">
        <ele>853</ele>
        <time>2017-12-15T23:58:08Z</time>
      </trkpt>
      <trkpt lat="44.89261" lon="5.76307">
        <ele>854</ele>
        <time>2017-12-15T23:58:21Z</time>
      </trkpt>
      <trkpt lat="44.89256" lon="5.76324">
        <ele>853</ele>
        <time>2017-12-15T23:58:35Z</time>
      </trkpt>
      <trkpt lat="44.89255" lon="5.76348">
        <ele>854</ele>
        <time>2017-12-15T23:58:37Z</time>
      </trkpt>
      <trkpt lat="44.89258" lon="5.76368">
        <ele>855</ele>
        <time>2017-12-15T23:58:46Z</time>
      </trkpt>
      <trkpt lat="44.89269" lon="5.7639">
        <ele>855</ele>
        <time>2017-12-15T23:58:55Z</time>
      </trkpt>
      <trkpt lat="44.89293" lon="5.7642">
        <ele>856</ele>
        <time>2017-12-15T23:59:02Z</time>
      </trkpt>
      <trkpt lat="44.89321" lon="5.76512">
        <ele>858</ele>
        <time>2017-12-15T23:59:09Z</time>
      </trkpt>
      <trkpt lat="44.89324" lon="5.76585">
        <ele>857</ele>
        <time>2017-12-15T23:59:28Z</time>
      </trkpt>
      <trkpt lat="44.8932" lon="5.7664">
        <ele>852</ele>
        <time>2017-12-15T23:59:32Z</time>
      </trkpt>
      <trkpt lat="44.89319" lon="5.76672">
        <ele>852</ele>
        <time>2017-12-15T23:59:50Z</time>
      </trkpt>
      <trkpt lat="44.89324" lon="5.76698">
        <ele>848</ele>
        <time>2017-12-15T23:59:59Z</time>
      </trkpt>
      <trkpt lat="44.89333" lon="5.76725">
        <ele>847</ele>
        <time>2017-12-16T00:00:02Z</time>
      </trkpt>
      <trkpt lat="44.89347" lon="5.7676">
        <ele>852</ele>
        <time>2017-12-16T00:00:06Z</time>
      </trkpt>
      <trkpt lat="44.8936" lon="5.76777">
        <ele>852</ele>
        <time>2017-12-16T00:00:08Z</time>
      </trkpt>
      <trkpt lat="44.89401" lon="5.76807">
        <ele>853</ele>
        <time>2017-12-16T00:00:13Z</time>
      </trkpt>
      <trkpt lat="44.89452" lon="5.76839">
        <ele>854</ele>
        <time>2017-12-16T00:00:22Z</time>
      </trkpt>
      <trkpt lat="44.8948" lon="5.76857">
        <ele>855</ele>
        <time>2017-12-16T00:00:41Z</time>
      </trkpt>
      <trkpt lat="44.89531" lon="5.76887">
        <ele>861</ele>
        <time>2017-12-16T00:00:44Z</time>
      </trkpt>
      <trkpt lat="44.89556" lon="5.76913">
        <ele>863</ele>
        <time>2017-12-16T00:01:02Z</time>
      </trkpt>
      <trkpt lat="44.89583" lon="5.76962">
        <ele>853</ele>
        <time>2017-12-16T00:01:16Z</time>
      </trkpt>
      <trkpt lat="44.89601" lon="5.76997">
        <ele>861</ele>
        <time>2017-12-16T00:01:24Z</time>
      </trkpt>
      <trkpt lat="44.89632" lon="5.77037">
        <ele>855</ele>
        <time>2017-12-16T00:01:38Z</time>
      </trkpt>
      <trkpt lat="44.89666" lon="5.77071">
        <ele>854</ele>
        <time>2017-12-16T00:01:55Z</time>
      </trkpt>
      <trkpt lat="44.89724" lon="5.77127">
        <ele>849</ele>
        <time>2017-12-16T00:02:10Z</time>
      </trkpt>
      <trkpt lat="44.8975" lon="5.77149">
        <ele>853</ele>
        <time>2017-12-16T00:02:13Z</time>
      </trkpt>
      <trkpt lat="44.89767" lon="5.77155">
        <ele>853</ele>
        <time>2017-12-16T00:02:17Z</time>
      </trkpt>
      <trkpt lat="44.89809" lon="5.7716">
        <ele>855</ele>
        <time>2017-12-16T00:02:23Z</time>
      </trkpt>
      <trkpt lat="44.89875" lon="5.77166">
        <ele>859</ele>
        <time>2017-12-16T00:02:28Z</time>
      </trkpt>
      <trkpt lat="44.89912" lon="5.77173">
        <ele>858</ele>
        <time>2017-12-16T00:02:48Z</time>
      </trkpt>
      <trkpt lat="44.89931" lon="5.77184">
        <ele>859</ele>
        <time>2017-12-16T00:03:07Z</time>
      </trkpt>
      <trkpt lat="44.89979" lon="5.77222">
        <ele>859</ele>
        <time>2017-12-16T00:03:24Z</time>
      </trkpt>
      <trkpt lat="44.89994" lon="5.77241">
        <ele>859</ele>
        <time>2017-12-16T00:03:41Z</time>
      </trkpt>
      <trkpt lat="44.90006" lon="5.7726">
        <ele>859</ele>
        <time>2017-12-16T00:03:53Z</time>
      </trkpt>
      <trkpt lat="44.90034" lon="5.77314">
        <ele>859</ele>
        <time>2017-12-16T00:03:58Z</time>
      </trkpt>
      <trkpt lat="44.90069" lon="5.77407">
        <ele>858</ele>
        <time>2017-12-16T00:04:02Z</time>
      </trkpt>
      <trkpt lat="44.90109" lon="5.77579">
        <ele>860</ele>
        <time>2017-12-16T00:04:11Z</time>
      </trkpt>
      <trkpt lat="44.90113" lon="5.776">
        <ele>862</ele>
        <time>2017-12-16T00:04:31Z</time>
      </trkpt>
      <trkpt lat="44.90115" lon="5.77639">
        <ele>862</ele>
        <time>2017-12-16T00:04:45Z</time>
      </trkpt>
      <trkpt lat="44.90113" lon="5.77676">
        <ele>865</ele>
        <time>2017-12-16T00:05:00Z</time>
      </trkpt>
      <trkpt lat="44.90108" lon="5.77703">
        <ele>866</ele>
        <time>2017-12-16T00:05:05Z</time>
      </trkpt>
      <trkpt lat="44.90088" lon="5.77757">
        <ele>867</ele>
        <time>2017-12-16T00:05:22Z</time>
      </trkpt>
      <trkpt lat="44.90065" lon="5.77804">
        <ele>864</ele>
        <time>2017-12-16T00:05:26Z</time>
      </trkpt>
      <trkpt lat="44.90038" lon="5.77848">
        <ele>870</ele>
        <time>2017-12-16T00:05:38Z</time>
      </trkpt>
      <trkpt lat="44.90022" lon="5.77882">
        <ele>870</ele>
        <time>2017-12-16T00:05:54Z</time>
      </trkpt>
      <trkpt lat="44.89992" lon="5.77962">
        <ele>864</ele>
        <time>2017-12-16T00:06:08Z</time>
      </trkpt>
      <trkpt lat="44.89985" lon="5.77996">
        <ele>865</ele>
        <time>2017-12-16T00:06:14Z</time>
      </trkpt>
      <trkpt lat="44.89987" lon="5.78019">
        <ele>866</ele>
        <time>2017-12-16T00:06:24Z</time>
      </trkpt>
      <trkpt lat="44.89991" lon="5.78026">
        <ele>865</ele>
        <time>2017-12-16T00:06:42Z</time>
      </trkpt>
      <trkpt lat="44.90003" lon="5.78037">
        <ele>869</ele>
        <time>2017-12-16T00:06:58Z</time>
      </trkpt>
      <trkpt lat="44.90034" lon="5.78053">
        <ele>870</ele>
        <time>2017-12-16T00:07:12Z</time>
      </trkpt>
      <trkpt lat="44.90053" lon="5.78069">
        <ele>869</ele>
        <time>2017-12-16T00:07:21Z</time>
      </trkpt>
      <trkpt lat="44.90068" lon="5.78106">
        <ele>868</ele>
        <time>2017-12-16T00:07:28Z</time>
      </trkpt>
      <trkpt lat="44.90099" lon="5.78185">
        <ele>868</ele>
        <time>2017-12-16T00:07:34Z</time>
      </trkpt>
      <trkpt lat="44.9011" lon="5.78179">
        <ele>868</ele>
        <time>2017-12-16T00:07:41Z</time>
      </trkpt>
      <trkpt lat="44.90128" lon="5.78161">
        <ele>868</ele>
        <time>2017-12-16T00:07:50Z</time>
      </trkpt>
      <trkpt lat="44.90162" lon="5.78132">
        <ele>869</ele>
        <time>2017-12-16T00:07:58Z</time>
      </trkpt>
      <trkpt lat="44.90173" lon="5.78126">
        <ele>874</ele>
        <time>2017-12-16T00:08:06Z</time>
      </trkpt>
      <trkpt lat="44.90195" lon="5.78124">
        <ele>875</ele>
        <time>2017-12-16T00:08:08Z</time>
      </trkpt>
      <trkpt lat="44.9024" lon="5.78128">
        <ele>878</ele>
        <time>2017-12-16T00:08:23Z</time>
      </trkpt>
      <trkpt lat="44.90271" lon="5.7813">
        <ele>884</ele>
        <time>2017-12-16T00:08:38Z</time>
      </trkpt>
      <trkpt lat="44.90291" lon="5.78135">
        <ele>884</ele>
        <time>2017-12-16T00:08:51Z</time>
      </trkpt>
      <trkpt lat="44.9031" lon="5.78142">
        <ele>883</ele>
        <time>2017-12-16T00:09:09Z</time>
      </trkpt>
      <trkpt lat="44.90337" lon="5.78155">
        <ele>883</ele>
        <time>2017-12-16T00:09:23Z</time>
      </trkpt>
      <trkpt lat="44.90397" lon="5.78185">
        <ele>878</ele>
        <time>2017-12-16T00:09:27Z</time>
      </trkpt>
      <trkpt lat="44.90476" lon="5.78232">
        <ele>876</ele>
        <time>2017-12-16T00:09:36Z</time>
      </trkpt>
      <trkpt lat="44.90489" lon="5.78239">
        <ele>875</ele>
        <time>2017-12-16T00:09:44Z</time>
      </trkpt>
      <trkpt lat="44.90516" lon="5.78247">
        <ele>875</ele>
        <time>2017-12-16T00:09:51Z</time>
      </trkpt>
      <trkpt lat="44.90634" lon="5.78289">
        <ele>877</ele>
        <time>2017-12-16T00:10:04Z</time>
      </trkpt>
      <trkpt lat="44.90635" lon="5.78331">
        <ele>877</ele>
        <time>2017-12-16T00:10:21Z</time>
      </trkpt>
      <trkpt lat="44.90632" lon="5.78369">
        <ele>881</ele>
        <time>2017-12-16T00:10:26Z</time>
      </trkpt>
      <trkpt lat="44.90629" lon="5.78397">
        <ele>882</ele>
        <time>2017-12-16T00:10:45Z</time>
      </trkpt>
      <trkpt lat="44.90627" lon="5.78399">
        <ele>882</ele>
        <time>2017-12-16T00:11:02Z</time>
      </trkpt>
      <trkpt lat="44.90621" lon="5.78399">
        <ele>882</ele>
        <time>2017-12-16T00:11:18Z</time>
      </trkpt>
      <trkpt lat="44.90616" lon="5.78399">
        <ele>882</ele>
        <time>2017-12-16T00:11:35Z</time>
      </trkpt>
      <trkpt lat="44.90614" lon="5.78405">
        <ele>883</ele>
        <time>2017-12-16T00:11:48Z</time>
      </trkpt>
      <trkpt lat="44.90613" lon="5.7841">
        <ele>883</ele>
        <time>2017-12-16T00:12:08Z</time>
      </trkpt>
      <trkpt lat="44.90626" lon="5.78419">
        <ele>885</ele>
        <time>2017-12-16T00:12:17Z</time>
      </trkpt>
      <trkpt lat="44.90632" lon="5.78423">
        <ele>885</ele>
        <time>2017-12-16T00:12:24Z</time>
      </trkpt>
      <trkpt lat="44.90631" lon="5.78437">
        <ele>885</ele>
        <time>2017-12-16T00:12:41Z</time>
      </trkpt>
      <trkpt lat="44.90629" lon="5.78484">
        <ele>885</ele>
        <time>2017-12-16T00:12:46Z</time>
      </trkpt>
      <trkpt lat="44.90636" lon="5.78505">
        <ele>883</ele>
        <time>2017-12-16T00:12:55Z</time>
      </trkpt>
      <trkpt lat="44.90657" lon="5.7849">
        <ele>884</ele>
        <time>2017-12-16T00:13:03Z</time>
      </trkpt>
      <trkpt lat="44.90652" lon="5.78493">
        <ele>884</ele>
        <time>2017-12-15T18:46:17Z</time>
      </trkpt>
      <trkpt lat="44.90666" lon="5.78486">
        <ele>884</ele>
        <time>2017-12-15T18:46:32Z</time>
      </trkpt>
      <trkpt lat="44.9067" lon="5.78517">
        <ele>886</ele>
        <time>2017-12-15T18:46:34Z</time>
      </trkpt>
      <trkpt lat="44.90681" lon="5.78564">
        <ele>886</ele>
        <time>2017-12-15T18:46:49Z</time>
      </trkpt>
      <trkpt lat="44.90689" lon="5.78609">
        <ele>885</ele>
        <time>2017-12-15T18:46:56Z</time>
      </trkpt>
      <trkpt lat="44.90689" lon="5.78625">
        <ele>885</ele>
        <time>2017-12-15T18:47:16Z</time>
      </trkpt>
      <trkpt lat="44.90686" lon="5.78655">
        <ele>884</ele>
        <time>2017-12-15T18:47:26Z</time>
      </trkpt>
      <trkpt lat="44.90681" lon="5.7868">
        <ele>881</ele>
        <time>2017-12-15T18:47:37Z</time>
      </trkpt>
      <trkpt lat="44.90667" lon="5.78729">
        <ele>880</ele>
        <time>2017-12-15T18:47:48Z</time>
      </trkpt>
      <trkpt lat="44.90654" lon="5.78761">
        <ele>876</ele>
        <time>2017-12-15T18:48:02Z</time>
      </trkpt>
      <trkpt lat="44.90642" lon="5.78783">
        <ele>875</ele>
        <time>2017-12-15T18:48:05Z</time>
      </trkpt>
      <trkpt lat="44.90631" lon="5.78783">
        <ele>875</ele>
        <time>2017-12-15T18:48:21Z</time>
      </trkpt>
      <trkpt lat="44.90611" lon="5.78774">
        <ele>875</ele>
        <time>2017-12-15T18:48:32Z</time>
      </trkpt>
      <trkpt lat="44.90564" lon="5.78748">
        <ele>875</ele>
        <time>2017-12-15T18:48:41Z</time>
      </trkpt>
      <trkpt lat="44.90559" lon="5.78748">
        <ele>875</ele>
        <time>2017-12-15T18:49:00Z</time>
      </trkpt>
      <trkpt lat="44.90555" lon="5.7875">
        <ele>875</ele>
        <time>2017-12-15T18:49:14Z</time>
      </trkpt>
      <trkpt lat="44.90552" lon="5.78759">
        <ele>874</ele>
        <time>2017-12-15T18:49:31Z</time>
      </trkpt>
      <trkpt lat="44.9054" lon="5.79109">
        <ele>859</ele>
        <time>2017-12-15T18:49:33Z</time>
      </trkpt>
      <trkpt lat="44.90537" lon="5.79144">
        <ele>858</ele>
        <time>2017-12-15T18:49:51Z</time>
      </trkpt>
      <trkpt lat="44.90536" lon="5.79179">
        <ele>854</ele>
        <time>2017-12-15T18:50:08Z</time>
      </trkpt>
      <trkpt lat="44.90535" lon="5.79209">
        <ele>854</ele>
        <time>2017-12-15T18:50:19Z</time>
      </trkpt>
      <trkpt lat="44.90534" lon="5.79268">
        <ele>850</ele>
        <time>2017-12-15T18:50:21Z</time>
      </trkpt>
      <trkpt lat="44.90535" lon="5.79304">
        <ele>849</ele>
        <time>2017-12-15T18:50:31Z</time>
      </trkpt>
      <trkpt lat="44.90535" lon="5.7933">
        <ele>849</ele>
        <time>2017-12-15T18:50:40Z</time>
      </trkpt>
      <trkpt lat="44.90533" lon="5.79392">
        <ele>846</ele>
        <time>2017-12-15T18:50:54Z</time>
      </trkpt>
      <trkpt lat="44.90531" lon="5.79496">
        <ele>839</ele>
        <time>2017-12-15T18:51:14Z</time>
      </trkpt>
      <trkpt lat="44.90526" lon="5.79671">
        <ele>824</ele>
        <time>2017-12-15T18:51:19Z</time>
      </trkpt>
      <trkpt lat="44.90515" lon="5.7971">
        <ele>824</ele>
        <time>2017-12-15T18:51:24Z</time>
      </trkpt>
      <trkpt lat="44.90503" lon="5.79732">
        <ele>823</ele>
        <time>2017-12-15T18:51:36Z</time>
      </trkpt>
      <trkpt lat="44.90494" lon="5.79744">
        <ele>821</ele>
        <time>2017-12-15T18:51:41Z</time>
      </trkpt>
      <trkpt lat="44.90471" lon="5.79765">
        <ele>820</ele>
        <time>2017-12-15T18:51:49Z</time>
      </trkpt>
      <trkpt lat="44.90446" lon="5.79776">
        <ele>819</ele>
        <time>2017-12-15T18:52:00Z</time>
      </trkpt>
      <trkpt lat="44.90393" lon="5.79788">
        <ele>815</ele>
        <time>2017-12-15T18:52:17Z</time>
      </trkpt>
      <trkpt lat="44.90342" lon="5.79799">
        <ele>813</ele>
        <time>2017-12-15T18:52:26Z</time>
      </trkpt>
      <trkpt lat="44.90295" lon="5.79818">
        <ele>810</ele>
        <time>2017-12-15T18:52:40Z</time>
      </trkpt>
      <trkpt lat="44.90256" lon="5.79845">
        <ele>809</ele>
        <time>2017-12-15T18:52:51Z</time>
      </trkpt>
      <trkpt lat="44.9023" lon="5.79864">
        <ele>808</ele>
        <time>2017-12-15T18:52:53Z</time>
      </trkpt>
      <trkpt lat="44.90224" lon="5.79861">
        <ele>808</ele>
        <time>2017-12-15T18:52:58Z</time>
      </trkpt>
      <trkpt lat="44.90214" lon="5.79863">
        <ele>808</ele>
        <time>2017-12-15T18:53:17Z</time>
      </trkpt>
      <trkpt lat="44.90204" lon="5.79863">
        <ele>808</ele>
        <time>2017-12-15T18:53:21Z</time>
      </trkpt>
      <trkpt lat="44.90199" lon="5.79863">
        <ele>808</ele>
        <time>2017-12-15T18:53:39Z</time>
      </trkpt>
      <trkpt lat="44.90198" lon="5.79861">
        <ele>808</ele>
        <time>2017-12-15T18:53:49Z</time>
      </trkpt>
      <trkpt lat="44.90196" lon="5.79858">
        <ele>808</ele>
        <time>2017-12-15T18:53:59Z</time>
      </trkpt>
      <trkpt lat="44.90189" lon="5.79856">
        <ele>808</ele>
        <time>2017-12-15T18:54:05Z</time>
      </trkpt>
      <trkpt lat="44.90182" lon="5.79859">
        <ele>808</ele>
        <time>2017-12-15T18:54:12Z</time>
      </trkpt>
      <trkpt lat="44.90178" lon="5.79866">
        <ele>808</ele>
        <time>2017-12-15T18:54:17Z</time>
      </trkpt>
      <trkpt lat="44.90176" lon="5.79876">
        <ele>808</ele>
        <time>2017-12-15T18:54:22Z</time>
      </trkpt>
      <trkpt lat="44.90166" lon="5.79907">
        <ele>808</ele>
        <time>2017-12-15T18:54:24Z</time>
      </trkpt>
      <trkpt lat="44.90147" lon="5.79946">
        <ele>807</ele>
        <time>2017-12-15T18:54:33Z</time>
      </trkpt>
      <trkpt lat="44.90142" lon="5.79954">
        <ele>807</ele>
        <time>2017-12-15T18:54:51Z</time>
      </trkpt>
      <trkpt lat="44.90101" lon="5.8001">
        <ele>804</ele>
        <time>2017-12-15T18:55:10Z</time>
      </trkpt>
      <trkpt lat="44.90075" lon="5.80041">
        <ele>802</ele>
        <time>2017-12-15T18:55:22Z</time>
      </trkpt>
      <trkpt lat="44.90049" lon="5.80062">
        <ele>801</ele>
        <time>2017-12-15T18:55:32Z</time>
      </trkpt>
      <trkpt lat="44.89992" lon="5.80095">
        <ele>797</ele>
        <time>2017-12-15T18:55:45Z</time>
      </trkpt>
      <trkpt lat="44.89975" lon="5.80106">
        <ele>797</ele>
        <time>2017-12-15T18:55:52Z</time>
      </trkpt>
      <trkpt lat="44.89965" lon="5.8012">
        <ele>797</ele>
        <time>2017-12-15T18:56:04Z</time>
      </trkpt>
      <trkpt lat="44.89939" lon="5.80174">
        <ele>794</ele>
        <time>2017-12-15T18:56:19Z</time>
      </trkpt>
      <trkpt lat="44.89915" lon="5.80235">
        <ele>790</ele>
        <time>2017-12-15T18:56:32Z</time>
      </trkpt>
      <trkpt lat="44.89899" lon="5.80279">
        <ele>786</ele>
        <time>2017-12-15T18:56:36Z</time>
      </trkpt>
      <trkpt lat="44.89895" lon="5.80303">
        <ele>784</ele>
        <time>2017-12-15T18:56:51Z</time>
      </trkpt>
      <trkpt lat="44.89891" lon="5.80325">
        <ele>783</ele>
        <time>2017-12-15T18:56:59Z</time>
      </trkpt>
      <trkpt lat="44.8989" lon="5.80344">
        <ele>779</ele>
        <time>2017-12-15T18:57:06Z</time>
      </trkpt>
      <trkpt lat="44.8989" lon="5.80402">
        <ele>778</ele>
        <time>2017-12-15T18:57:16Z</time>
      </trkpt>
      <trkpt lat="44.89889" lon="5.80452">
        <ele>774</ele>
        <time>2017-12-15T18:57:24Z</time>
      </trkpt>
      <trkpt lat="44.89882" lon="5.80494">
        <ele>773</ele>
        <time>2017-12-15T18:57:36Z</time>
      </trkpt>
      <trkpt lat="44.89865" lon="5.80564">
        <ele>767</ele>
        <time>2017-12-15T18:57:52Z</time>
      </trkpt>
      <trkpt lat="44.89846" lon="5.80619">
        <ele>761</ele>
        <time>2017-12-15T18:58:11Z</time>
      </trkpt>
      <trkpt lat="44.89822" lon="5.80666">
        <ele>763</ele>
        <time>2017-12-15T18:58:17Z</time>
      </trkpt>
      <trkpt lat="44.89802" lon="5.80694">
        <ele>758</ele>
        <time>2017-12-15T18:58:27Z</time>
      </trkpt>
      <trkpt lat="44.89731" lon="5.80792">
        <ele>747</ele>
        <time>2017-12-15T18:58:34Z</time>
      </trkpt>
      <trkpt lat="44.8973" lon="5.80799">
        <ele>747</ele>
        <time>2017-12-15T18:58:43Z</time>
      </trkpt>
      <trkpt lat="44.89731" lon="5.80806">
        <ele>746</ele>
        <time>2017-12-15T18:59:03Z</time>
      </trkpt>
      <trkpt lat="44.89737" lon="5.80811">
        <ele>746</ele>
        <time>2017-12-15T18:59:21Z</time>
      </trkpt>
      <trkpt lat="44.89811" lon="5.80798">
        <ele>744</ele>
        <time>2017-12-15T18:59:30Z</time>
      </trkpt>
      <trkpt lat="44.89835" lon="5.80789">
        <ele>738</ele>
        <time>2017-12-15T18:59:44Z</time>
      </trkpt>
      <trkpt lat="44.8987" lon="5.80772">
        <ele>737</ele>
        <time>2017-12-15T18:59:55Z</time>
      </trkpt>
      <trkpt lat="44.89916" lon="5.80742">
        <ele>738</ele>
        <time>2017-12-15T19:00:07Z</time>
      </trkpt>
      <trkpt lat="44.89929" lon="5.8074">
        <ele>738</ele>
        <time>2017-12-15T19:00:22Z</time>
      </trkpt>
      <trkpt lat="44.89936" lon="5.80741">
        <ele>739</ele>
        <time>2017-12-15T19:00:28Z</time>
      </trkpt>
      <trkpt lat="44.89949" lon="5.80748">
        <ele>739</ele>
        <time>2017-12-15T19:00:38Z</time>
      </trkpt>
      <trkpt lat="44.90006" lon="5.80798">
        <ele>733</ele>
        <time>2017-12-15T19:00:46Z</time>
      </trkpt>
      <trkpt lat="44.90029" lon="5.80827">
        <ele>732</ele>
        <time>2017-12-15T19:01:06Z</time>
      </trkpt>
      <trkpt lat="44.9005" lon="5.80875">
        <ele>726</ele>
        <time>2017-12-15T19:01:17Z</time>
      </trkpt>
      <trkpt lat="44.90062" lon="5.80912">
        <ele>726</ele>
        <time>2017-12-15T19:01:34Z</time>
      </trkpt>
      <trkpt lat="44.90064" lon="5.80931">
        <ele>722</ele>
        <time>2017-12-15T19:01:47Z</time>
      </trkpt>
      <trkpt lat="44.90056" lon="5.80961">
        <ele>720</ele>
        <time>2017-12-15T19:02:01Z</time>
      </trkpt>
      <trkpt lat="44.90022" lon="5.81045">
        <ele>713</ele>
        <time>2017-12-15T19:02:08Z</time>
      </trkpt>
      <trkpt lat="44.90017" lon="5.81069">
        <ele>710</ele>
        <time>2017-12-15T19:02:15Z</time>
      </trkpt>
      <trkpt lat="44.90017" lon="5.81083">
        <ele>709</ele>
        <time>2017-12-15T19:02:27Z</time>
      </trkpt>
      <trkpt lat="44.90021" lon="5.81109">
        <ele>712</ele>
        <time>2017-12-15T19:02:41Z</time>
      </trkpt>
      <trkpt lat="44.90022" lon="5.81131">
        <ele>713</ele>
        <time>2017-12-15T19:02:46Z</time>
      </trkpt>
      <trkpt lat="44.90017" lon="5.81154">
        <ele>710</ele>
        <time>2017-12-15T19:03:06Z</time>
      </trkpt>
      <trkpt lat="44.90004" lon="5.81179">
        <ele>705</ele>
        <time>2017-12-15T19:03:12Z</time>
      </trkpt>
      <trkpt lat="44.89997" lon="5.812">
        <ele>690</ele>
        <time>2017-12-15T19:03:17Z</time>
      </trkpt>
      <trkpt lat="44.89994" lon="5.81233">
        <ele>691</ele>
        <time>2017-12-15T19:03:21Z</time>
      </trkpt>
      <trkpt lat="44.89995" lon="5.81243">
        <ele>694</ele>
        <time>2017-12-15T19:03:27Z</time>
      </trkpt>
      <trkpt lat="44.9" lon="5.81256">
        <ele>693</ele>
        <time>2017-12-15T19:03:42Z</time>
      </trkpt>
      <trkpt lat="44.90013" lon="5.81272">
        <ele>696</ele>
        <time>2017-12-15T19:03:57Z</time>
      </trkpt>
      <trkpt lat="44.90016" lon="5.81284">
        <ele>694</ele>
        <time>2017-12-15T19:04:07Z</time>
      </trkpt>
      <trkpt lat="44.90015" lon="5.81289">
        <ele>694</ele>
        <time>2017-12-15T19:04:19Z</time>
      </trkpt>
      <trkpt lat="44.9001" lon="5.81292">
        <ele>693</ele>
        <time>2017-12-15T19:04:22Z</time>
      </trkpt>
      <trkpt lat="44.90007" lon="5.81292">
        <ele>693</ele>
        <time>2017-12-15T19:04:39Z</time>
      </trkpt>
      <trkpt lat="44.89997" lon="5.81283">
        <ele>679</ele>
        <time>2017-12-15T19:04:54Z</time>
      </trkpt>
      <trkpt lat="44.89984" lon="5.81264">
        <ele>682</ele>
        <time>2017-12-15T19:04:58Z</time>
      </trkpt>
      <trkpt lat="44.89977" lon="5.81241">
        <ele>688</ele>
        <time>2017-12-15T19:05:06Z</time>
      </trkpt>
      <trkpt lat="44.89973" lon="5.81202">
        <ele>686</ele>
        <time>2017-12-15T19:05:20Z</time>
      </trkpt>
      <trkpt lat="44.89977" lon="5.81176">
        <ele>689</ele>
        <time>2017-12-15T19:05:39Z</time>
      </trkpt>
      <trkpt lat="44.89985" lon="5.81151">
        <ele>694</ele>
        <time>2017-12-15T19:05:48Z</time>
      </trkpt>
      <trkpt lat="44.89988" lon="5.81135">
        <ele>693</ele>
        <time>2017-12-15T19:06:00Z</time>
      </trkpt>
      <trkpt lat="44.89985" lon="5.81118">
        <ele>693</ele>
        <time>2017-12-15T19:06:05Z</time>
      </trkpt>
      <trkpt lat="44.89974" lon="5.81087">
        <ele>694</ele>
        <time>2017-12-15T19:06:13Z</time>
      </trkpt>
      <trkpt lat="44.89958" lon="5.81022">
        <ele>701</ele>
        <time>2017-12-15T19:06:18Z</time>
      </trkpt>
      <trkpt lat="44.89951" lon="5.81011">
        <ele>702</ele>
        <time>2017-12-15T19:06:26Z</time>
      </trkpt>
      <trkpt lat="44.89945" lon="5.81009">
        <ele>702</ele>
        <time>2017-12-15T19:06:38Z</time>
      </trkpt>
      <trkpt lat="44.8994" lon="5.81012">
        <ele>702</ele>
        <time>2017-12-15T19:06:58Z</time>
      </trkpt>
      <trkpt lat="44.89933" lon="5.81021">
        <ele>702</ele>
        <time>2017-12-15T19:07:08Z</time>
      </trkpt>
      <trkpt lat="44.89913" lon="5.81069">
        <ele>695</ele>
        <time>2017-12-15T19:07:14Z</time>
      </trkpt>
      <trkpt lat="44.89892" lon="5.81118">
        <ele>686</ele>
        <time>2017-12-15T19:07:18Z</time>
      </trkpt>
      <trkpt lat="44.8988" lon="5.81134">
        <ele>686</ele>
        <time>2017-12-15T19:07:23Z</time>
      </trkpt>
      <trkpt lat="44.89862" lon="5.81157">
        <ele>686</ele>
        <time>2017-12-15T19:07:25Z</time>
      </trkpt>
      <trkpt lat="44.89854" lon="5.81173">
        <ele>676</ele>
        <time>2017-12-15T19:07:35Z</time>
      </trkpt>
      <trkpt lat="44.89844" lon="5.81218">
        <ele>669</ele>
        <time>2017-12-15T19:07:52Z</time>
      </trkpt>
      <trkpt lat="44.89837" lon="5.81229">
        <ele>667</ele>
        <time>2017-12-15T19:08:00Z</time>
      </trkpt>
      <trkpt lat="44.89826" lon="5.81235">
        <ele>664</ele>
        <time>2017-12-15T19:08:18Z</time>
      </trkpt>
      <trkpt lat="44.89802" lon="5.81239">
        <ele>664</ele>
        <time>2017-12-15T19:08:34Z</time>
      </trkpt>
      <trkpt lat="44.89798" lon="5.81244">
        <ele>663</ele>
        <time>2017-12-15T19:08:36Z</time>
      </trkpt>
      <trkpt lat="44.89798" lon="5.81253">
        <ele>645</ele>
        <time>2017-12-15T19:08:56Z</time>
      </trkpt>
      <trkpt lat="44.898" lon="5.81255">
        <ele>645</ele>
        <time>2017-12-15T19:08:59Z</time>
      </trkpt>
      <trkpt lat="44.89804" lon="5.81257">
        <ele>646</ele>
        <time>2017-12-15T19:09:11Z</time>
      </trkpt>
      <trkpt lat="44.89833" lon="5.81251">
        <ele>660</ele>
        <time>2017-12-15T19:09:17Z</time>
      </trkpt>
      <trkpt lat="44.89846" lon="5.81244">
        <ele>665</ele>
        <time>2017-12-15T19:09:30Z</time>
      </trkpt>
      <trkpt lat="44.89863" lon="5.81227">
        <ele>668</ele>
        <time>2017-12-15T19:09:49Z</time>
      </trkpt>
      <trkpt lat="44.8988" lon="5.81216">
        <ele>669</ele>
        <time>2017-12-15T19:10:06Z</time>
      </trkpt>
      <trkpt lat="44.89886" lon="5.81214">
        <ele>668</ele>
        <time>2017-12-15T19:10:21Z</time>
      </trkpt>
      <trkpt lat="44.89897" lon="5.81217">
        <ele>668</ele>
        <time>2017-12-15T19:10:36Z</time>
      </trkpt>
      <trkpt lat="44.89907" lon="5.81228">
        <ele>666</ele>
        <time>2017-12-15T19:10:43Z</time>
      </trkpt>
      <trkpt lat="44.89913" lon="5.81243">
        <ele>663</ele>
        <time>2017-12-15T19:10:47Z</time>
      </trkpt>
      <trkpt lat="44.89916" lon="5.81274">
        <ele>654</ele>
        <time>2017-12-15T19:11:07Z</time>
      </trkpt>
      <trkpt lat="44.89919" lon="5.81336">
        <ele>647</ele>
        <time>2017-12-15T19:11:13Z</time>
      </trkpt>
      <trkpt lat="44.89924" lon="5.81354">
        <ele>648</ele>
        <time>2017-12-15T19:11:21Z</time>
      </trkpt>
      <trkpt lat="44.89934" lon="5.81376">
        <ele>647</ele>
        <time>2017-12-15T19:11:38Z</time>
      </trkpt>
      <trkpt lat="44.89967" lon="5.81418">
        <ele>630</ele>
        <time>2017-12-15T19:11:49Z</time>
      </trkpt>
      <trkpt lat="44.89983" lon="5.81431">
        <ele>632</ele>
        <time>2017-12-15T19:12:08Z</time>
      </trkpt>
      <trkpt lat="44.89994" lon="5.81435">
        <ele>633</ele>
        <time>2017-12-15T19:12:13Z</time>
      </trkpt>
      <trkpt lat="44.9001" lon="5.81434">
        <ele>638</ele>
        <time>2017-12-15T19:12:31Z</time>
      </trkpt>
      <trkpt lat="44.90039" lon="5.81431">
        <ele>638</ele>
        <time>2017-12-15T19:12:40Z</time>
      </trkpt>
      <trkpt lat="44.90052" lon="5.81438">
        <ele>638</ele>
        <time>2017-12-15T19:12:55Z</time>
      </trkpt>
      <trkpt lat="44.90078" lon="5.81468">
        <ele>632</ele>
        <time>2017-12-15T19:13:11Z</time>
      </trkpt>
      <trkpt lat="44.90099" lon="5.81502">
        <ele>622</ele>
        <time>2017-12-15T19:13:21Z</time>
      </trkpt>
      <trkpt lat="44.90122" lon="5.81534">
        <ele>622</ele>
        <time>2017-12-15T19:13:33Z</time>
      </trkpt>
      <trkpt lat="44.90209" lon="5.81625">
        <ele>616</ele>
        <time>2017-12-15T19:13:53Z</time>
      </trkpt>
      <trkpt lat="44.90217" lon="5.81643">
        <ele>615</ele>
        <time>2017-12-15T19:14:10Z</time>
      </trkpt>
      <trkpt lat="44.90218" lon="5.81657">
        <ele>613</ele>
        <time>2017-12-15T19:14:24Z</time>
      </trkpt>
      <trkpt lat="44.90215" lon="5.81668">
        <ele>603</ele>
        <time>2017-12-15T19:14:40Z</time>
      </trkpt>
      <trkpt lat="44.90209" lon="5.81681">
        <ele>602</ele>
        <time>2017-12-15T19:14:49Z</time>
      </trkpt>
      <trkpt lat="44.90176" lon="5.81725">
        <ele>600</ele>
        <time>2017-12-15T19:15:03Z</time>
      </trkpt>
      <trkpt lat="44.90135" lon="5.81779">
        <ele>612</ele>
        <time>2017-12-15T19:15:19Z</time>
      </trkpt>
      <trkpt lat="44.90132" lon="5.81783">
        <ele>613</ele>
        <time>2017-12-15T19:15:27Z</time>
      </trkpt>
      <trkpt lat="44.90127" lon="5.81783">
        <ele>613</ele>
        <time>2017-12-15T19:15:43Z</time>
      </trkpt>
      <trkpt lat="44.90114" lon="5.81786">
        <ele>616</ele>
        <time>2017-12-15T19:15:47Z</time>
      </trkpt>
      <trkpt lat="44.90106" lon="5.81782">
        <ele>617</ele>
        <time>2017-12-15T19:15:53Z</time>
      </trkpt>
      <trkpt lat="44.90098" lon="5.81769">
        <ele>618</ele>
        <time>2017-12-15T19:16:04Z</time>
      </trkpt>
      <trkpt lat="44.90076" lon="5.81724">
        <ele>626</ele>
        <time>2017-12-15T19:16:16Z</time>
      </trkpt>
      <trkpt lat="44.90053" lon="5.81671">
        <ele>623</ele>
        <time>2017-12-15T19:16:36Z</time>
      </trkpt>
      <trkpt lat="44.90045" lon="5.81659">
        <ele>611</ele>
        <time>2017-12-15T19:16:56Z</time>
      </trkpt>
      <trkpt lat="44.90034" lon="5.8165">
        <ele>612</ele>
        <time>2017-12-15T19:17:11Z</time>
      </trkpt>
      <trkpt lat="44.90019" lon="5.81646">
        <ele>614</ele>
        <time>2017-12-15T19:17:26Z</time>
      </trkpt>
      <trkpt lat="44.90002" lon="5.81647">
        <ele>617</ele>
        <time>2017-12-15T19:17:46Z</time>
      </trkpt>
      <trkpt lat="44.89983" lon="5.81651">
        <ele>622</ele>
        <time>2017-12-15T19:17:59Z</time>
      </trkpt>
      <trkpt lat="44.89959" lon="5.8165">
        <ele>621</ele>
        <time>2017-12-15T19:18:02Z</time>
      </trkpt>
      <trkpt lat="44.89914" lon="5.81641">
        <ele>626</ele>
        <time>2017-12-15T19:18:06Z</time>
      </trkpt>
      <trkpt lat="44.89866" lon="5.81634">
        <ele>624</ele>
        <time>2017-12-15T19:18:19Z</time>
      </trkpt>
      <trkpt lat="44.89845" lon="5.81634">
        <ele>625</ele>
        <time>2017-12-15T19:18:34Z</time>
      </trkpt>
      <trkpt lat="44.8982" lon="5.81643">
        <ele>628</ele>
        <time>2017-12-15T19:18:42Z</time>
      </trkpt>
      <trkpt lat="44.89803" lon="5.81654">
        <ele>628</ele>
        <time>2017-12-15T19:18:56Z</time>
      </trkpt>
      <trkpt lat="44.89783" lon="5.81675">
        <ele>650</ele>
        <time>2017-12-15T19:19:14Z</time>
      </trkpt>
      <trkpt lat="44.89762" lon="5.81697">
        <ele>652</ele>
        <time>2017-12-15T19:19:22Z</time>
      </trkpt>
      <trkpt lat="44.89751" lon="5.81701">
        <ele>653</ele>
        <time>2017-12-15T19:19:25Z</time>
      </trkpt>
      <trkpt lat="44.89738" lon="5.817">
        <ele>656</ele>
        <time>2017-12-15T19:19:31Z</time>
      </trkpt>
      <trkpt lat="44.89726" lon="5.81692">
        <ele>655</ele>
        <time>2017-12-15T19:19:48Z</time>
      </trkpt>
      <trkpt lat="44.89711" lon="5.81671">
        <ele>655</ele>
        <time>2017-12-15T19:19:55Z</time>
      </trkpt>
      <trkpt lat="44.89698" lon="5.81658">
        <ele>639</ele>
        <time>2017-12-15T19:20:00Z</time>
      </trkpt>
      <trkpt lat="44.89687" lon="5.81653">
        <ele>641</ele>
        <time>2017-12-15T19:20:04Z</time>
      </trkpt>
      <trkpt lat="44.89675" lon="5.81652">
        <ele>643</ele>
        <time>2017-12-15T19:20:07Z</time>
      </trkpt>
      <trkpt lat="44.89656" lon="5.81659">
        <ele>649</ele>
        <time>2017-12-15T19:20:15Z</time>
      </trkpt>
      <trkpt lat="44.8961" lon="5.81693">
        <ele>660</ele>
        <time>2017-12-15T19:20:17Z</time>
      </trkpt>
      <trkpt lat="44.89558" lon="5.81744">
        <ele>665</ele>
        <time>2017-12-15T19:20:27Z</time>
      </trkpt>
      <trkpt lat="44.89548" lon="5.81746">
        <ele>666</ele>
        <time>2017-12-15T19:20:40Z</time>
      </trkpt>
      <trkpt lat="44.89538" lon="5.81745">
        <ele>666</ele>
        <time>2017-12-15T19:20:44Z</time>
      </trkpt>
      <trkpt lat="44.89529" lon="5.8174">
        <ele>667</ele>
        <time>2017-12-15T19:21:00Z</time>
      </trkpt>
      <trkpt lat="44.89491" lon="5.81712">
        <ele>673</ele>
        <time>2017-12-15T19:21:10Z</time>
      </trkpt>
      <trkpt lat="44.89465" lon="5.81687">
        <ele>673</ele>
        <time>2017-12-15T19:21:16Z</time>
      </trkpt>
      <trkpt lat="44.89433" lon="5.81655">
        <ele>667</ele>
        <time>2017-12-15T19:21:26Z</time>
      </trkpt>
      <trkpt lat="44.89409" lon="5.81624">
        <ele>677</ele>
        <time>2017-12-15T19:21:34Z</time>
      </trkpt>
      <trkpt lat="44.89392" lon="5.81605">
        <ele>677</ele>
        <time>2017-12-15T19:21:48Z</time>
      </trkpt>
      <trkpt lat="44.89367" lon="5.8159">
        <ele>681</ele>
        <time>2017-12-15T19:21:57Z</time>
      </trkpt>
      <trkpt lat="44.89342" lon="5.81581">
        <ele>679</ele>
        <time>2017-12-15T19:22:04Z</time>
      </trkpt>
      <trkpt lat="44.8932" lon="5.81568">
        <ele>687</ele>
        <time>2017-12-15T19:22:08Z</time>
      </trkpt>
      <trkpt lat="44.89284" lon="5.81526">
        <ele>688</ele>
        <time>2017-12-15T19:22:15Z</time>
      </trkpt>
      <trkpt lat="44.89255" lon="5.81499">
        <ele>689</ele>
        <time>2017-12-15T19:22:21Z</time>
      </trkpt>
      <trkpt lat="44.8923" lon="5.81475">
        <ele>692</ele>
        <time>2017-12-15T19:22:38Z</time>
      </trkpt>
      <trkpt lat="44.89211" lon="5.81464">
        <ele>692</ele>
        <time>2017-12-15T19:22:52Z</time>
      </trkpt>
      <trkpt lat="44.8916" lon="5.81443">
        <ele>693</ele>
        <time>2017-12-15T19:22:57Z</time>
      </trkpt>
      <trkpt lat="44.89152" lon="5.81442">
        <ele>693</ele>
        <time>2017-12-15T19:23:01Z</time>
      </trkpt>
      <trkpt lat="44.89146" lon="5.81445">
        <ele>693</ele>
        <time>2017-12-15T19:23:11Z</time>
      </trkpt>
      <trkpt lat="44.89143" lon="5.81453">
        <ele>694</ele>
        <time>2017-12-15T19:23:25Z</time>
      </trkpt>
      <trkpt lat="44.89145" lon="5.8146">
        <ele>694</ele>
        <time>2017-12-15T19:23:33Z</time>
      </trkpt>
      <trkpt lat="44.89149" lon="5.81465">
        <ele>695</ele>
        <time>2017-12-15T19:23:48Z</time>
      </trkpt>
      <trkpt lat="44.89156" lon="5.81468">
        <ele>696</ele>
        <time>2017-12-15T19:24:02Z</time>
      </trkpt>
      <trkpt lat="44.89176" lon="5.81479">
        <ele>696</ele>
        <time>2017-12-15T19:24:19Z</time>
      </trkpt>
      <trkpt lat="44.89184" lon="5.81486">
        <ele>696</ele>
        <time>2017-12-15T19:24:30Z</time>
      </trkpt>
      <trkpt lat="44.89209" lon="5.81519">
        <ele>703</ele>
        <time>2017-12-15T19:24:32Z</time>
      </trkpt>
      <trkpt lat="44.8923" lon="5.81553">
        <ele>705</ele>
        <time>2017-12-15T19:24:42Z</time>
      </trkpt>
      <trkpt lat="44.89274" lon="5.81659">
        <ele>709</ele>
        <time>2017-12-15T19:24:52Z</time>
      </trkpt>
      <trkpt lat="44.8929" lon="5.81707">
        <ele>717</ele>
        <time>2017-12-15T19:24:59Z</time>
      </trkpt>
      <trkpt lat="44.89302" lon="5.81761">
        <ele>725</ele>
        <time>2017-12-15T19:25:12Z</time>
      </trkpt>
      <trkpt lat="44.89314" lon="5.81784">
        <ele>725</ele>
        <time>2017-12-15T19:25:20Z</time>
      </trkpt>
      <trkpt lat="44.89341" lon="5.81804">
        <ele>717</ele>
        <time>2017-12-15T19:25:29Z</time>
      </trkpt>
      <trkpt lat="44.89368" lon="5.8183">
        <ele>717</ele>
        <time>2017-12-15T19:25:48Z</time>
      </trkpt>
      <trkpt lat="44.89378" lon="5.81851">
        <ele>726</ele>
        <time>2017-12-15T19:26:08Z</time>
      </trkpt>
      <trkpt lat="44.8938" lon="5.81856">
        <ele>726</ele>
        <time>2017-12-15T19:26:11Z</time>
      </trkpt>
      <trkpt lat="44.89387" lon="5.81879">
        <ele>727</ele>
        <time>2017-12-15T19:26:20Z</time>
      </trkpt>
      <trkpt lat="44.89392" lon="5.81923">
        <ele>734</ele>
        <time>2017-12-15T19:26:32Z</time>
      </trkpt>
      <trkpt lat="44.89393" lon="5.8195">
        <ele>736</ele>
        <time>2017-12-15T19:26:42Z</time>
      </trkpt>
      <trkpt lat="44.89384" lon="5.81945">
        <ele>736</ele>
        <time>2017-12-15T19:26:55Z</time>
      </trkpt>
      <trkpt lat="44.89364" lon="5.81909">
        <ele>731</ele>
        <time>2017-12-15T19:27:12Z</time>
      </trkpt>
      <trkpt lat="44.89355" lon="5.819">
        <ele>731</ele>
        <time>2017-12-15T19:27:16Z</time>
      </trkpt>
      <trkpt lat="44.89342" lon="5.81894">
        <ele>732</ele>
        <time>2017-12-15T19:27:34Z</time>
      </trkpt>
      <trkpt lat="44.89241" lon="5.81872">
        <ele>749</ele>
        <time>2017-12-15T19:27:49Z</time>
      </trkpt>
      <trkpt lat="44.89223" lon="5.81862">
        <ele>750</ele>
        <time>2017-12-15T19:27:53Z</time>
      </trkpt>
      <trkpt lat="44.89195" lon="5.81828">
        <ele>745</ele>
        <time>2017-12-15T19:28:13Z</time>
      </trkpt>
      <trkpt lat="44.89178" lon="5.8181">
        <ele>745</ele>
        <time>2017-12-15T19:28:20Z</time>
      </trkpt>
      <trkpt lat="44.89169" lon="5.81803">
        <ele>745</ele>
        <time>2017-12-15T19:28:30Z</time>
      </trkpt>
      <trkpt lat="44.89147" lon="5.81792">
        <ele>752</ele>
        <time>2017-12-15T19:28:36Z</time>
      </trkpt>
      <trkpt lat="44.89085" lon="5.81778">
        <ele>754</ele>
        <time>2017-12-15T19:28:56Z</time>
      </trkpt>
      <trkpt lat="44.89039" lon="5.8177">
        <ele>761</ele>
        <time>2017-12-15T19:29:11Z</time>
      </trkpt>
      <trkpt lat="44.88996" lon="5.81772">
        <ele>766</ele>
        <time>2017-12-15T19:29:20Z</time>
      </trkpt>
      <trkpt lat="44.88982" lon="5.8177">
        <ele>767</ele>
        <time>2017-12-15T19:29:24Z</time>
      </trkpt>
      <trkpt lat="44.88967" lon="5.81766">
        <ele>769</ele>
        <time>2017-12-15T19:29:42Z</time>
      </trkpt>
      <trkpt lat="44.88911" lon="5.81735">
        <ele>763</ele>
        <time>2017-12-15T19:29:58Z</time>
      </trkpt>
      <trkpt lat="44.88889" lon="5.81725">
        <ele>761</ele>
        <time>2017-12-15T19:30:01Z</time>
      </trkpt>
      <trkpt lat="44.88872" lon="5.8172">
        <ele>761</ele>
        <time>2017-12-15T19:30:06Z</time>
      </trkpt>
      <trkpt lat="44.88854" lon="5.81718">
        <ele>761</ele>
        <time>2017-12-15T19:30:21Z</time>
      </trkpt>
      <trkpt lat="44.88798" lon="5.81715">
        <ele>767</ele>
        <time>2017-12-15T19:30:33Z</time>
      </trkpt>
      <trkpt lat="44.8874" lon="5.81704">
        <ele>774</ele>
        <time>2017-12-15T19:30:46Z</time>
      </trkpt>
      <trkpt lat="44.88711" lon="5.81696">
        <ele>774</ele>
        <time>2017-12-15T19:30:59Z</time>
      </trkpt>
      <trkpt lat="44.88645" lon="5.81674">
        <ele>778</ele>
        <time>2017-12-15T19:31:01Z</time>
      </trkpt>
      <trkpt lat="44.88539" lon="5.81629">
        <ele>775</ele>
        <time>2017-12-15T19:31:18Z</time>
      </trkpt>
      <trkpt lat="44.88506" lon="5.81613">
        <ele>774</ele>
        <time>2017-12-15T19:31:26Z</time>
      </trkpt>
      <trkpt lat="44.88492" lon="5.816">
        <ele>781</ele>
        <time>2017-12-15T19:31:31Z</time>
      </trkpt>
      <trkpt lat="44.8848" lon="5.81584">
        <ele>781</ele>
        <time>2017-12-15T19:31:35Z</time>
      </trkpt>
      <trkpt lat="44.88465" lon="5.81555">
        <ele>775</ele>
        <time>2017-12-15T19:31:37Z</time>
      </trkpt>
      <trkpt lat="44.88441" lon="5.81507">
        <ele>776</ele>
        <time>2017-12-15T19:31:39Z</time>
      </trkpt>
      <trkpt lat="44.88427" lon="5.81465">
        <ele>770</ele>
        <time>2017-12-15T19:31:51Z</time>
      </trkpt>
      <trkpt lat="44.88413" lon="5.81408">
        <ele>776</ele>
        <time>2017-12-15T19:32:11Z</time>
      </trkpt>
      <trkpt lat="44.88402" lon="5.81348">
        <ele>775</ele>
        <time>2017-12-15T19:32:17Z</time>
      </trkpt>
      <trkpt lat="44.88391" lon="5.81317">
        <ele>771</ele>
        <time>2017-12-15T19:32:23Z</time>
      </trkpt>
      <trkpt lat="44.88375" lon="5.81297">
        <ele>772</ele>
        <time>2017-12-15T19:32:38Z</time>
      </trkpt>
      <trkpt lat="44.88339" lon="5.81271">
        <ele>771</ele>
        <time>2017-12-15T19:32:46Z</time>
      </trkpt>
      <trkpt lat="44.8828" lon="5.81244">
        <ele>771</ele>
        <time>2017-12-15T19:32:55Z</time>
      </trkpt>
      <trkpt lat="44.88239" lon="5.81218">
        <ele>778</ele>
        <time>2017-12-15T19:32:58Z</time>
      </trkpt>
      <trkpt lat="44.88211" lon="5.81188">
        <ele>776</ele>
        <time>2017-12-15T19:33:13Z</time>
      </trkpt>
      <trkpt lat="44.88195" lon="5.81161">
        <ele>766</ele>
        <time>2017-12-15T19:33:32Z</time>
      </trkpt>
      <trkpt lat="44.88184" lon="5.81146">
        <ele>766</ele>
        <time>2017-12-15T19:33:37Z</time>
      </trkpt>
      <trkpt lat="44.88173" lon="5.81137">
        <ele>766</ele>
        <time>2017-12-15T19:33:53Z</time>
      </trkpt>
      <trkpt lat="44.88162" lon="5.8113">
        <ele>767</ele>
        <time>2017-12-15T19:34:03Z</time>
      </trkpt>
      <trkpt lat="44.88147" lon="5.81126">
        <ele>766</ele>
        <time>2017-12-15T19:34:07Z</time>
      </trkpt>
      <trkpt lat="44.88058" lon="5.81129">
        <ele>759</ele>
        <time>2017-12-15T19:34:17Z</time>
      </trkpt>
      <trkpt lat="44.88046" lon="5.8113">
        <ele>758</ele>
        <time>2017-12-15T19:34:24Z</time>
      </trkpt>
      <trkpt lat="44.88034" lon="5.81135">
        <ele>758</ele>
        <time>2017-12-15T19:34:37Z</time>
      </trkpt>
      <trkpt lat="44.88019" lon="5.81151">
        <ele>757</ele>
        <time>2017-12-15T19:34:39Z</time>
      </trkpt>
      <trkpt lat="44.88005" lon="5.81173">
        <ele>760</ele>
        <time>2017-12-15T19:34:42Z</time>
      </trkpt>
      <trkpt lat="44.87993" lon="5.81186">
        <ele>757</ele>
        <time>2017-12-15T19:35:02Z</time>
      </trkpt>
      <trkpt lat="44.87979" lon="5.81197">
        <ele>757</ele>
        <time>2017-12-15T19:35:08Z</time>
      </trkpt>
      <trkpt lat="44.87939" lon="5.81218">
        <ele>755</ele>
        <time>2017-12-15T19:35:17Z</time>
      </trkpt>
      <trkpt lat="44.87905" lon="5.8124">
        <ele>748</ele>
        <time>2017-12-15T19:35:25Z</time>
      </trkpt>
      <trkpt lat="44.87889" lon="5.81256">
        <ele>752</ele>
        <time>2017-12-15T19:35:44Z</time>
      </trkpt>
      <trkpt lat="44.8788" lon="5.8127">
        <ele>751</ele>
        <time>2017-12-15T19:36:04Z</time>
      </trkpt>
      <trkpt lat="44.87864" lon="5.81321">
        <ele>752</ele>
        <time>2017-12-15T19:36:09Z</time>
      </trkpt>
      <trkpt lat="44.87834" lon="5.81377">
        <ele>756</ele>
        <time>2017-12-15T19:36:22Z</time>
      </trkpt>
      <trkpt lat="44.87812" lon="5.81414">
        <ele>746</ele>
        <time>2017-12-15T19:36:26Z</time>
      </trkpt>
      <trkpt lat="44.87794" lon="5.81433">
        <ele>748</ele>
        <time>2017-12-15T19:36:34Z</time>
      </trkpt>
      <trkpt lat="44.87778" lon="5.81447">
        <ele>747</ele>
        <time>2017-12-15T19:36:41Z</time>
      </trkpt>
      <trkpt lat="44.87768" lon="5.81463">
        <ele>747</ele>
        <time>2017-12-15T19:36:46Z</time>
      </trkpt>
      <trkpt lat="44.87759" lon="5.81496">
        <ele>747</ele>
        <time>2017-12-15T19:36:52Z</time>
      </trkpt>
      <trkpt lat="44.8775" lon="5.8154">
        <ele>743</ele>
        <time>2017-12-15T19:36:55Z</time>
      </trkpt>
      <trkpt lat="44.87722" lon="5.81653">
        <ele>749</ele>
        <time>2017-12-15T19:37:04Z</time>
      </trkpt>
      <trkpt lat="44.87693" lon="5.81747">
        <ele>749</ele>
        <time>2017-12-15T19:37:06Z</time>
      </trkpt>
      <trkpt lat="44.87664" lon="5.8183">
        <ele>748</ele>
        <time>2017-12-15T19:37:08Z</time>
      </trkpt>
      <trkpt lat="44.87611" lon="5.81978">
        <ele>748</ele>
        <time>2017-12-15T19:37:25Z</time>
      </trkpt>
      <trkpt lat="44.87606" lon="5.81995">
        <ele>748</ele>
        <time>2017-12-15T19:37:28Z</time>
      </trkpt>
      <trkpt lat="44.8755" lon="5.82167">
        <ele>752</ele>
        <time>2017-12-15T19:37:38Z</time>
      </trkpt>
      <trkpt lat="44.87529" lon="5.82246">
        <ele>751</ele>
        <time>2017-12-15T19:37:40Z</time>
      </trkpt>
      <trkpt lat="44.87501" lon="5.82306">
        <ele>754</ele>
        <time>2017-12-15T19:37:57Z</time>
      </trkpt>
      <trkpt lat="44.87487" lon="5.82342">
        <ele>750</ele>
        <time>2017-12-15T19:38:04Z</time>
      </trkpt>
      <trkpt lat="44.87481" lon="5.82371">
        <ele>749</ele>
        <time>2017-12-15T19:38:15Z</time>
      </trkpt>
      <trkpt lat="44.87465" lon="5.82443">
        <ele>752</ele>
        <time>2017-12-15T19:38:22Z</time>
      </trkpt>
      <trkpt lat="44.87456" lon="5.82465">
        <ele>752</ele>
        <time>2017-12-15T19:38:40Z</time>
      </trkpt>
      <trkpt lat="44.87425" lon="5.82505">
        <ele>750</ele>
        <time>2017-12-15T19:38:46Z</time>
      </trkpt>
      <trkpt lat="44.87406" lon="5.82526">
        <ele>746</ele>
        <time>2017-12-15T19:38:55Z</time>
      </trkpt>
      <trkpt lat="44.8739" lon="5.82548">
        <ele>746</ele>
        <time>2017-12-15T19:39:02Z</time>
      </trkpt>
      <trkpt lat="44.87377" lon="5.8257">
        <ele>745</ele>
        <time>2017-12-15T19:39:10Z</time>
      </trkpt>
      <trkpt lat="44.87362" lon="5.82599">
        <ele>747</ele>
        <time>2017-12-15T19:39:14Z</time>
      </trkpt>
      <trkpt lat="44.87354" lon="5.82627">
        <ele>748</ele>
        <time>2017-12-15T19:39:22Z</time>
      </trkpt>
      <trkpt lat="44.87342" lon="5.82686">
        <ele>751</ele>
        <time>2017-12-15T19:39:38Z</time>
      </trkpt>
      <trkpt lat="44.87342" lon="5.82711">
        <ele>753</ele>
        <time>2017-12-15T19:39:58Z</time>
      </trkpt>
      <trkpt lat="44.87338" lon="5.82743">
        <ele>753</ele>
        <time>2017-12-15T19:40:02Z</time>
      </trkpt>
      <trkpt lat="44.87324" lon="5.82784">
        <ele>752</ele>
        <time>2017-12-15T19:40:10Z</time>
      </trkpt>
      <trkpt lat="44.87308" lon="5.82809">
        <ele>754</ele>
        <time>2017-12-15T19:40:17Z</time>
      </trkpt>
      <trkpt lat="44.87287" lon="5.82828">
        <ele>752</ele>
        <time>2017-12-15T19:40:19Z</time>
      </trkpt>
      <trkpt lat="44.87272" lon="5.82844">
        <ele>756</ele>
        <time>2017-12-15T19:40:35Z</time>
      </trkpt>
      <trkpt lat="44.87266" lon="5.82854">
        <ele>756</ele>
        <time>2017-12-15T19:40:53Z</time>
      </trkpt>
      <trkpt lat="44.87263" lon="5.82869">
        <ele>757</ele>
        <time>2017-12-15T19:41:13Z</time>
      </trkpt>
      <trkpt lat="44.87263" lon="5.82891">
        <ele>758</ele>
        <time>2017-12-15T19:41:16Z</time>
      </trkpt>
      <trkpt lat="44.87266" lon="5.82921">
        <ele>760</ele>
        <time>2017-12-15T19:41:19Z</time>
      </trkpt>
      <trkpt lat="44.87266" lon="5.8298">
        <ele>763</ele>
        <time>2017-12-15T19:41:39Z</time>
      </trkpt>
      <trkpt lat="44.87263" lon="5.83019">
        <ele>766</ele>
        <time>2017-12-15T19:41:47Z</time>
      </trkpt>
      <trkpt lat="44.87259" lon="5.83039">
        <ele>768</ele>
        <time>2017-12-15T19:42:01Z</time>
      </trkpt>
      <trkpt lat="44.87251" lon="5.83062">
        <ele>769</ele>
        <time>2017-12-15T19:42:20Z</time>
      </trkpt>
      <trkpt lat="44.87241" lon="5.83084">
        <ele>764</ele>
        <time>2017-12-15T19:42:33Z</time>
      </trkpt>
      <trkpt lat="44.87225" lon="5.83109">
        <ele>760</ele>
        <time>2017-12-15T19:42:47Z</time>
      </trkpt>
      <trkpt lat="44.87215" lon="5.83131">
        <ele>759</ele>
        <time>2017-12-15T19:43:07Z</time>
      </trkpt>
      <trkpt lat="44.87213" lon="5.8315">
        <ele>760</ele>
        <time>2017-12-15T19:43:27Z</time>
      </trkpt>
      <trkpt lat="44.87216" lon="5.83168">
        <ele>764</ele>
        <time>2017-12-15T19:43:33Z</time>
      </trkpt>
      <trkpt lat="44.87226" lon="5.83189">
        <ele>765</ele>
        <time>2017-12-15T19:43:52Z</time>
      </trkpt>
      <trkpt lat="44.87251" lon="5.83233">
        <ele>778</ele>
        <time>2017-12-15T19:44:09Z</time>
      </trkpt>
      <trkpt lat="44.87279" lon="5.83296">
        <ele>785</ele>
        <time>2017-12-15T19:44:16Z</time>
      </trkpt>
      <trkpt lat="44.87284" lon="5.83322">
        <ele>786</ele>
        <time>2017-12-15T19:44:36Z</time>
      </trkpt>
      <trkpt lat="44.87284" lon="5.83365">
        <ele>792</ele>
        <time>2017-12-15T19:44:44Z</time>
      </trkpt>
      <trkpt lat="44.87286" lon="5.834">
        <ele>794</ele>
        <time>2017-12-15T19:44:47Z</time>
      </trkpt>
      <trkpt lat="44.87284" lon="5.83411">
        <ele>795</ele>
        <time>2017-12-15T19:44:53Z</time>
      </trkpt>
      <trkpt lat="44.87279" lon="5.83418">
        <ele>804</ele>
        <time>2017-12-15T19:45:11Z</time>
      </trkpt>
      <trkpt lat="44.87272" lon="5.83422">
        <ele>803</ele>
        <time>2017-12-15T19:45:30Z</time>
      </trkpt>
      <trkpt lat="44.87264" lon="5.8342">
        <ele>802</ele>
        <time>2017-12-15T19:45:48Z</time>
      </trkpt>
      <trkpt lat="44.87249" lon="5.83404">
        <ele>793</ele>
        <time>2017-12-15T19:46:07Z</time>
      </trkpt>
      <trkpt lat="44.87232" lon="5.83375">
        <ele>788</ele>
        <time>2017-12-15T19:46:21Z</time>
      </trkpt>
      <trkpt lat="44.87215" lon="5.83361">
        <ele>787</ele>
        <time>2017-12-15T19:46:26Z</time>
      </trkpt>
      <trkpt lat="44.87201" lon="5.83349">
        <ele>786</ele>
        <time>2017-12-15T19:46:34Z</time>
      </trkpt>
      <trkpt lat="44.87191" lon="5.83342">
        <ele>785</ele>
        <time>2017-12-15T19:46:45Z</time>
      </trkpt>
      <trkpt lat="44.87186" lon="5.83342">
        <ele>785</ele>
        <time>2017-12-15T19:47:03Z</time>
      </trkpt>
      <trkpt lat="44.87164" lon="5.83346">
        <ele>782</ele>
        <time>2017-12-15T19:47:05Z</time>
      </trkpt>
      <trkpt lat="44.87124" lon="5.83352">
        <ele>782</ele>
        <time>2017-12-15T19:47:14Z</time>
      </trkpt>
      <trkpt lat="44.87113" lon="5.83358">
        <ele>782</ele>
        <time>2017-12-15T19:47:17Z</time>
      </trkpt>
      <trkpt lat="44.87101" lon="5.83371">
        <ele>783</ele>
        <time>2017-12-15T19:47:28Z</time>
      </trkpt>
      <trkpt lat="44.87086" lon="5.83394">
        <ele>786</ele>
        <time>2017-12-15T19:47:44Z</time>
      </trkpt>
      <trkpt lat="44.87076" lon="5.83403">
        <ele>782</ele>
        <time>2017-12-15T19:47:50Z</time>
      </trkpt>
      <trkpt lat="44.8705" lon="5.83424">
        <ele>787</ele>
        <time>2017-12-15T19:48:01Z</time>
      </trkpt>
      <trkpt lat="44.87013" lon="5.83468">
        <ele>787</ele>
        <time>2017-12-15T19:48:16Z</time>
      </trkpt>
      <trkpt lat="44.87005" lon="5.83482">
        <ele>787</ele>
        <time>2017-12-15T19:48:30Z</time>
      </trkpt>
      <trkpt lat="44.87003" lon="5.83499">
        <ele>787</ele>
        <time>2017-12-15T19:48:45Z</time>
      </trkpt>
      <trkpt lat="44.87003" lon="5.8351">
        <ele>791</ele>
        <time>2017-12-15T19:49:04Z</time>
      </trkpt>
      <trkpt lat="44.87006" lon="5.83535">
        <ele>795</ele>
        <time>2017-12-15T19:49:19Z</time>
      </trkpt>
      <trkpt lat="44.87002" lon="5.83572">
        <ele>793</ele>
        <time>2017-12-15T19:49:26Z</time>
      </trkpt>
      <trkpt lat="44.87001" lon="5.83589">
        <ele>793</ele>
        <time>2017-12-15T19:49:38Z</time>
      </trkpt>
      <trkpt lat="44.87004" lon="5.83603">
        <ele>797</ele>
        <time>2017-12-15T19:49:54Z</time>
      </trkpt>
      <trkpt lat="44.87014" lon="5.83652">
        <ele>798</ele>
        <time>2017-12-15T19:50:10Z</time>
      </trkpt>
      <trkpt lat="44.87015" lon="5.83673">
        <ele>799</ele>
        <time>2017-12-15T19:50:18Z</time>
      </trkpt>
      <trkpt lat="44.87013" lon="5.83701">
        <ele>802</ele>
        <time>2017-12-15T19:50:33Z</time>
      </trkpt>
      <trkpt lat="44.87007" lon="5.83733">
        <ele>802</ele>
        <time>2017-12-15T19:50:45Z</time>
      </trkpt>
      <trkpt lat="44.87003" lon="5.83765">
        <ele>804</ele>
        <time>2017-12-15T19:51:01Z</time>
      </trkpt>
      <trkpt lat="44.87002" lon="5.83804">
        <ele>809</ele>
        <time>2017-12-15T19:51:09Z</time>
      </trkpt>
      <trkpt lat="44.87003" lon="5.8383">
        <ele>808</ele>
        <time>2017-12-15T19:51:29Z</time>
      </trkpt>
      <trkpt lat="44.87" lon="5.83846">
        <ele>804</ele>
        <time>2017-12-15T19:51:42Z</time>
      </trkpt>
      <trkpt lat="44.86992" lon="5.83859">
        <ele>802</ele>
        <time>2017-12-15T19:51:50Z</time>
      </trkpt>
      <trkpt lat="44.86976" lon="5.83875">
        <ele>801</ele>
        <time>2017-12-15T19:52:04Z</time>
      </trkpt>
      <trkpt lat="44.8697" lon="5.83886">
        <ele>801</ele>
        <time>2017-12-15T19:52:07Z</time>
      </trkpt>
      <trkpt lat="44.86968" lon="5.839">
        <ele>801</ele>
        <time>2017-12-15T19:52:13Z</time>
      </trkpt>
      <trkpt lat="44.8697" lon="5.83936">
        <ele>808</ele>
        <time>2017-12-15T19:52:23Z</time>
      </trkpt>
      <trkpt lat="44.86965" lon="5.83994">
        <ele>811</ele>
        <time>2017-12-15T19:52:27Z</time>
      </trkpt>
      <trkpt lat="44.86961" lon="5.8404">
        <ele>817</ele>
        <time>2017-12-15T19:52:41Z</time>
      </trkpt>
      <trkpt lat="44.8696" lon="5.84083">
        <ele>819</ele>
        <time>2017-12-15T19:52:58Z</time>
      </trkpt>
      <trkpt lat="44.86958" lon="5.84114">
        <ele>826</ele>
        <time>2017-12-15T19:53:18Z</time>
      </trkpt>
      <trkpt lat="44.86948" lon="5.84144">
        <ele>826</ele>
        <time>2017-12-15T19:53:35Z</time>
      </trkpt>
      <trkpt lat="44.86926" lon="5.84182">
        <ele>829</ele>
        <time>2017-12-15T19:53:52Z</time>
      </trkpt>
      <trkpt lat="44.86907" lon="5.84204">
        <ele>822</ele>
        <time>2017-12-15T19:54:08Z</time>
      </trkpt>
      <trkpt lat="44.86877" lon="5.84234">
        <ele>822</ele>
        <time>2017-12-15T19:54:18Z</time>
      </trkpt>
      <trkpt lat="44.86861" lon="5.84255">
        <ele>825</ele>
        <time>2017-12-15T19:54:37Z</time>
      </trkpt>
      <trkpt lat="44.86856" lon="5.84268">
        <ele>825</ele>
        <time>2017-12-15T19:54:44Z</time>
      </trkpt>
      <trkpt lat="44.86857" lon="5.84281">
        <ele>826</ele>
        <time>2017-12-15T19:54:48Z</time>
      </trkpt>
      <trkpt lat="44.86874" lon="5.84322">
        <ele>828</ele>
        <time>2017-12-15T19:55:05Z</time>
      </trkpt>
      <trkpt lat="44.86878" lon="5.84345">
        <ele>831</ele>
        <time>2017-12-15T19:55:15Z</time>
      </trkpt>
      <trkpt lat="44.86879" lon="5.84375">
        <ele>831</ele>
        <time>2017-12-15T19:55:24Z</time>
      </trkpt>
      <trkpt lat="44.86878" lon="5.84395">
        <ele>831</ele>
        <time>2017-12-15T19:55:42Z</time>
      </trkpt>
      <trkpt lat="44.86883" lon="5.84408">
        <ele>832</ele>
        <time>2017-12-15T19:55:50Z</time>
      </trkpt>
      <trkpt lat="44.86878" lon="5.84426">
        <ele>831</ele>
        <time>2017-12-15T19:56:03Z</time>
      </trkpt>
      <trkpt lat="44.86876" lon="5.84431">
        <ele>831</ele>
        <time>2017-12-15T19:56:21Z</time>
      </trkpt>
      <trkpt lat="44.86878" lon="5.84432">
        <ele>831</ele>
        <time>2017-12-15T19:56:41Z</time>
      </trkpt>
      <trkpt lat="44.8688" lon="5.84434">
        <ele>832</ele>
        <time>2017-12-15T19:56:55Z</time>
      </trkpt>
      <trkpt lat="44.86881" lon="5.84437">
        <ele>832</ele>
        <time>2017-12-15T19:57:12Z</time>
      </trkpt>
      <trkpt lat="44.86881" lon="5.84442">
        <ele>832</ele>
        <time>2017-12-15T19:57:32Z</time>
      </trkpt>
      <trkpt lat="44.86876" lon="5.8446">
        <ele>831</ele>
        <time>2017-12-15T19:57:42Z</time>
      </trkpt>
      <trkpt lat="44.86868" lon="5.84485">
        <ele>829</ele>
        <time>2017-12-15T19:57:51Z</time>
      </trkpt>
      <trkpt lat="44.86862" lon="5.84512">
        <ele>828</ele>
        <time>2017-12-15T19:58:09Z</time>
      </trkpt>
      <trkpt lat="44.86857" lon="5.84549">
        <ele>828</ele>
        <time>2017-12-15T19:58:12Z</time>
      </trkpt>
      <trkpt lat="44.86859" lon="5.84582">
        <ele>826</ele>
        <time>2017-12-15T19:58:17Z</time>
      </trkpt>
      <trkpt lat="44.86866" lon="5.84618">
        <ele>830</ele>
        <time>2017-12-15T19:58:37Z</time>
      </trkpt>
      <trkpt lat="44.86871" lon="5.84663">
        <ele>831</ele>
        <time>2017-12-15T19:58:57Z</time>
      </trkpt>
      <trkpt lat="44.86872" lon="5.84709">
        <ele>836</ele>
        <time>2017-12-15T19:59:01Z</time>
      </trkpt>
      <trkpt lat="44.86868" lon="5.84743">
        <ele>836</ele>
        <time>2017-12-15T19:59:07Z</time>
      </trkpt>
      <trkpt lat="44.86847" lon="5.8485">
        <ele>851</ele>
        <time>2017-12-15T19:59:10Z</time>
      </trkpt>
      <trkpt lat="44.86838" lon="5.84872">
        <ele>855</ele>
        <time>2017-12-15T19:59:14Z</time>
      </trkpt>
      <trkpt lat="44.86825" lon="5.84898">
        <ele>839</ele>
        <time>2017-12-15T19:59:21Z</time>
      </trkpt>
      <trkpt lat="44.86815" lon="5.84921">
        <ele>845</ele>
        <time>2017-12-15T19:59:28Z</time>
      </trkpt>
      <trkpt lat="44.86796" lon="5.84999">
        <ele>843</ele>
        <time>2017-12-15T19:59:43Z</time>
      </trkpt>
      <trkpt lat="44.86796" lon="5.85">
        <ele>843</ele>
        <time>2017-12-15T20:00:02Z</time>
      </trkpt>
      <trkpt lat="44.86782" lon="5.85089">
        <ele>854</ele>
        <time>2017-12-15T20:00:11Z</time>
      </trkpt>
      <trkpt lat="44.86778" lon="5.85144">
        <ele>855</ele>
        <time>2017-12-15T20:00:22Z</time>
      </trkpt>
      <trkpt lat="44.86781" lon="5.85171">
        <ele>857</ele>
        <time>2017-12-15T20:00:29Z</time>
      </trkpt>
      <trkpt lat="44.86793" lon="5.85215">
        <ele>860</ele>
        <time>2017-12-15T20:00:36Z</time>
      </trkpt>
      <trkpt lat="44.86797" lon="5.85238">
        <ele>861</ele>
        <time>2017-12-15T20:00:45Z</time>
      </trkpt>
      <trkpt lat="44.86799" lon="5.85311">
        <ele>868</ele>
        <time>2017-12-15T20:01:03Z</time>
      </trkpt>
      <trkpt lat="44.86795" lon="5.85334">
        <ele>879</ele>
        <time>2017-12-15T20:01:07Z</time>
      </trkpt>
      <trkpt lat="44.86789" lon="5.85347">
        <ele>878</ele>
        <time>2017-12-15T20:01:21Z</time>
      </trkpt>
      <trkpt lat="44.86771" lon="5.85372">
        <ele>877</ele>
        <time>2017-12-15T20:01:41Z</time>
      </trkpt>
      <trkpt lat="44.86751" lon="5.85409">
        <ele>876</ele>
        <time>2017-12-15T20:02:01Z</time>
      </trkpt>
      <trkpt lat="44.86743" lon="5.85421">
        <ele>873</ele>
        <time>2017-12-15T20:02:05Z</time>
      </trkpt>
      <trkpt lat="44.86728" lon="5.85433">
        <ele>872</ele>
        <time>2017-12-15T20:02:14Z</time>
      </trkpt>
      <trkpt lat="44.86708" lon="5.85445">
        <ele>870</ele>
        <time>2017-12-15T20:02:28Z</time>
      </trkpt>
      <trkpt lat="44.867" lon="5.85454">
        <ele>870</ele>
        <time>2017-12-15T20:02:46Z</time>
      </trkpt>
      <trkpt lat="44.86695" lon="5.8547">
        <ele>871</ele>
        <time>2017-12-15T20:02:59Z</time>
      </trkpt>
      <trkpt lat="44.86692" lon="5.85502">
        <ele>880</ele>
        <time>2017-12-15T20:03:06Z</time>
      </trkpt>
      <trkpt lat="44.86686" lon="5.85536">
        <ele>883</ele>
        <time>2017-12-15T20:03:12Z</time>
      </trkpt>
      <trkpt lat="44.86676" lon="5.85557">
        <ele>884</ele>
        <time>2017-12-15T20:03:29Z</time>
      </trkpt>
      <trkpt lat="44.86637" lon="5.85607">
        <ele>874</ele>
        <time>2017-12-15T20:03:49Z</time>
      </trkpt>
      <trkpt lat="44.86628" lon="5.85627">
        <ele>873</ele>
        <time>2017-12-15T20:04:01Z</time>
      </trkpt>
      <trkpt lat="44.86623" lon="5.85655">
        <ele>873</ele>
        <time>2017-12-15T20:04:03Z</time>
      </trkpt>
      <trkpt lat="44.86621" lon="5.85729">
        <ele>878</ele>
        <time>2017-12-15T20:04:23Z</time>
      </trkpt>
      <trkpt lat="44.86622" lon="5.85761">
        <ele>879</ele>
        <time>2017-12-15T20:04:40Z</time>
      </trkpt>
      <trkpt lat="44.86627" lon="5.85779">
        <ele>880</ele>
        <time>2017-12-15T20:04:44Z</time>
      </trkpt>
      <trkpt lat="44.86636" lon="5.85796">
        <ele>880</ele>
        <time>2017-12-15T20:05:02Z</time>
      </trkpt>
      <trkpt lat="44.86649" lon="5.85807">
        <ele>881</ele>
        <time>2017-12-15T20:05:14Z</time>
      </trkpt>
      <trkpt lat="44.86668" lon="5.8581">
        <ele>890</ele>
        <time>2017-12-15T20:05:18Z</time>
      </trkpt>
      <trkpt lat="44.86728" lon="5.85802">
        <ele>893</ele>
        <time>2017-12-15T20:05:23Z</time>
      </trkpt>
      <trkpt lat="44.86749" lon="5.85803">
        <ele>893</ele>
        <time>2017-12-15T20:05:41Z</time>
      </trkpt>
      <trkpt lat="44.86908" lon="5.85834">
        <ele>908</ele>
        <time>2017-12-15T20:05:52Z</time>
      </trkpt>
      <trkpt lat="44.86929" lon="5.85839">
        <ele>914</ele>
        <time>2017-12-15T20:05:57Z</time>
      </trkpt>
      <trkpt lat="44.86942" lon="5.85849">
        <ele>916</ele>
        <time>2017-12-15T20:06:16Z</time>
      </trkpt>
      <trkpt lat="44.8695" lon="5.85866">
        <ele>917</ele>
        <time>2017-12-15T20:06:18Z</time>
      </trkpt>
      <trkpt lat="44.86952" lon="5.85888">
        <ele>917</ele>
        <time>2017-12-15T20:06:21Z</time>
      </trkpt>
      <trkpt lat="44.86942" lon="5.85985">
        <ele>916</ele>
        <time>2017-12-15T20:06:27Z</time>
      </trkpt>
      <trkpt lat="44.86934" lon="5.86033">
        <ele>916</ele>
        <time>2017-12-15T20:06:32Z</time>
      </trkpt>
      <trkpt lat="44.86934" lon="5.86065">
        <ele>914</ele>
        <time>2017-12-15T20:06:43Z</time>
      </trkpt>
      <trkpt lat="44.86938" lon="5.86084">
        <ele>908</ele>
        <time>2017-12-15T20:07:03Z</time>
      </trkpt>
      <trkpt lat="44.8695" lon="5.86105">
        <ele>909</ele>
        <time>2017-12-15T20:07:06Z</time>
      </trkpt>
      <trkpt lat="44.86968" lon="5.86122">
        <ele>910</ele>
        <time>2017-12-15T20:07:22Z</time>
      </trkpt>
      <trkpt lat="44.86985" lon="5.86134">
        <ele>911</ele>
        <time>2017-12-15T20:07:42Z</time>
      </trkpt>
      <trkpt lat="44.87" lon="5.86138">
        <ele>912</ele>
        <time>2017-12-15T20:07:50Z</time>
      </trkpt>
      <trkpt lat="44.87036" lon="5.86139">
        <ele>926</ele>
        <time>2017-12-15T20:07:53Z</time>
      </trkpt>
      <trkpt lat="44.87071" lon="5.86138">
        <ele>928</ele>
        <time>2017-12-15T20:08:11Z</time>
      </trkpt>
      <trkpt lat="44.8712" lon="5.86131">
        <ele>937</ele>
        <time>2017-12-15T20:08:19Z</time>
      </trkpt>
      <trkpt lat="44.87153" lon="5.8613">
        <ele>938</ele>
        <time>2017-12-15T20:08:29Z</time>
      </trkpt>
      <trkpt lat="44.87183" lon="5.86139">
        <ele>944</ele>
        <time>2017-12-15T20:08:40Z</time>
      </trkpt>
      <trkpt lat="44.87208" lon="5.86158">
        <ele>945</ele>
        <time>2017-12-15T20:08:42Z</time>
      </trkpt>
      <trkpt lat="44.8723" lon="5.86169">
        <ele>940</ele>
        <time>2017-12-15T20:08:48Z</time>
      </trkpt>
      <trkpt lat="44.87249" lon="5.86178">
        <ele>942</ele>
        <time>2017-12-15T20:09:06Z</time>
      </trkpt>
      <trkpt lat="44.87276" lon="5.862">
        <ele>953</ele>
        <time>2017-12-15T20:09:19Z</time>
      </trkpt>
      <trkpt lat="44.87294" lon="5.86209">
        <ele>955</ele>
        <time>2017-12-15T20:09:24Z</time>
      </trkpt>
      <trkpt lat="44.87315" lon="5.86214">
        <ele>957</ele>
        <time>2017-12-15T20:09:39Z</time>
      </trkpt>
      <trkpt lat="44.87324" lon="5.86223">
        <ele>957</ele>
        <time>2017-12-15T20:09:53Z</time>
      </trkpt>
      <trkpt lat="44.87326" lon="5.86235">
        <ele>957</ele>
        <time>2017-12-15T20:10:07Z</time>
      </trkpt>
      <trkpt lat="44.87323" lon="5.86246">
        <ele>958</ele>
        <time>2017-12-15T20:10:12Z</time>
      </trkpt>
      <trkpt lat="44.87316" lon="5.86254">
        <ele>960</ele>
        <time>2017-12-15T20:10:14Z</time>
      </trkpt>
      <trkpt lat="44.87305" lon="5.86259">
        <ele>960</ele>
        <time>2017-12-15T20:10:25Z</time>
      </trkpt>
      <trkpt lat="44.87236" lon="5.86286">
        <ele>950</ele>
        <time>2017-12-15T20:10:38Z</time>
      </trkpt>
      <trkpt lat="44.87211" lon="5.86302">
        <ele>951</ele>
        <time>2017-12-15T20:10:48Z</time>
      </trkpt>
      <trkpt lat="44.87182" lon="5.86331">
        <ele>952</ele>
        <time>2017-12-15T20:10:54Z</time>
      </trkpt>
      <trkpt lat="44.87158" lon="5.86359">
        <ele>953</ele>
        <time>2017-12-15T20:11:13Z</time>
      </trkpt>
      <trkpt lat="44.87132" lon="5.86399">
        <ele>956</ele>
        <time>2017-12-15T20:11:30Z</time>
      </trkpt>
      <trkpt lat="44.87104" lon="5.86448">
        <ele>969</ele>
        <time>2017-12-15T20:11:50Z</time>
      </trkpt>
      <trkpt lat="44.87084" lon="5.86488">
        <ele>971</ele>
        <time>2017-12-15T20:11:56Z</time>
      </trkpt>
      <trkpt lat="44.87061" lon="5.86597">
        <ele>980</ele>
        <time>2017-12-15T20:12:09Z</time>
      </trkpt>
      <trkpt lat="44.87049" lon="5.86632">
        <ele>981</ele>
        <time>2017-12-15T20:12:17Z</time>
      </trkpt>
      <trkpt lat="44.87039" lon="5.86654">
        <ele>981</ele>
        <time>2017-12-15T20:12:23Z</time>
      </trkpt>
      <trkpt lat="44.87026" lon="5.86677">
        <ele>994</ele>
        <time>2017-12-15T20:12:39Z</time>
      </trkpt>
      <trkpt lat="44.87017" lon="5.86689">
        <ele>994</ele>
        <time>2017-12-15T20:12:53Z</time>
      </trkpt>
      <trkpt lat="44.87006" lon="5.86697">
        <ele>995</ele>
        <time>2017-12-15T20:13:01Z</time>
      </trkpt>
      <trkpt lat="44.86996" lon="5.86699">
        <ele>983</ele>
        <time>2017-12-15T20:13:13Z</time>
      </trkpt>
      <trkpt lat="44.86971" lon="5.86699">
        <ele>982</ele>
        <time>2017-12-15T20:13:24Z</time>
      </trkpt>
      <trkpt lat="44.86957" lon="5.86705">
        <ele>982</ele>
        <time>2017-12-15T20:13:39Z</time>
      </trkpt>
      <trkpt lat="44.86939" lon="5.86721">
        <ele>984</ele>
        <time>2017-12-15T20:13:57Z</time>
      </trkpt>
      <trkpt lat="44.86923" lon="5.86744">
        <ele>988</ele>
        <time>2017-12-15T20:14:17Z</time>
      </trkpt>
      <trkpt lat="44.86913" lon="5.8676">
        <ele>990</ele>
        <time>2017-12-15T20:14:34Z</time>
      </trkpt>
      <trkpt lat="44.86855" lon="5.86819">
        <ele>991</ele>
        <time>2017-12-15T20:14:47Z</time>
      </trkpt>
      <trkpt lat="44.86796" lon="5.86896">
        <ele>992</ele>
        <time>2017-12-15T20:14:57Z</time>
      </trkpt>
      <trkpt lat="44.86775" lon="5.86931">
        <ele>1003</ele>
        <time>2017-12-15T20:15:14Z</time>
      </trkpt>
      <trkpt lat="44.86762" lon="5.86967">
        <ele>1005</ele>
        <time>2017-12-15T20:15:19Z</time>
      </trkpt>
      <trkpt lat="44.86759" lon="5.86997">
        <ele>1001</ele>
        <time>2017-12-15T20:15:33Z</time>
      </trkpt>
      <trkpt lat="44.86767" lon="5.87061">
        <ele>1007</ele>
        <time>2017-12-15T20:15:51Z</time>
      </trkpt>
      <trkpt lat="44.86774" lon="5.87077">
        <ele>1006</ele>
        <time>2017-12-15T20:16:07Z</time>
      </trkpt>
      <trkpt lat="44.8679" lon="5.87089">
        <ele>1000</ele>
        <time>2017-12-15T20:16:23Z</time>
      </trkpt>
      <trkpt lat="44.86823" lon="5.87108">
        <ele>1008</ele>
        <time>2017-12-15T20:16:42Z</time>
      </trkpt>
      <trkpt lat="44.86858" lon="5.87143">
        <ele>1032</ele>
        <time>2017-12-15T20:16:52Z</time>
      </trkpt>
      <trkpt lat="44.86887" lon="5.87189">
        <ele>1025</ele>
        <time>2017-12-15T20:17:06Z</time>
      </trkpt>
      <trkpt lat="44.869" lon="5.87216">
        <ele>1025</ele>
        <time>2017-12-15T20:17:21Z</time>
      </trkpt>
      <trkpt lat="44.86907" lon="5.87239">
        <ele>1029</ele>
        <time>2017-12-15T20:17:32Z</time>
      </trkpt>
      <trkpt lat="44.86914" lon="5.87278">
        <ele>1022</ele>
        <time>2017-12-15T20:17:37Z</time>
      </trkpt>
      <trkpt lat="44.86918" lon="5.87357">
        <ele>1058</ele>
        <time>2017-12-15T20:17:41Z</time>
      </trkpt>
      <trkpt lat="44.86918" lon="5.87375">
        <ele>1063</ele>
        <time>2017-12-15T20:17:45Z</time>
      </trkpt>
      <trkpt lat="44.86913" lon="5.87387">
        <ele>1037</ele>
        <time>2017-12-15T20:17:59Z</time>
      </trkpt>
      <trkpt lat="44.86906" lon="5.87395">
        <ele>1039</ele>
        <time>2017-12-15T20:18:14Z</time>
      </trkpt>
      <trkpt lat="44.86897" lon="5.87397">
        <ele>1037</ele>
        <time>2017-12-15T20:18:18Z</time>
      </trkpt>
      <trkpt lat="44.86883" lon="5.87394">
        <ele>1032</ele>
        <time>2017-12-15T20:18:31Z</time>
      </trkpt>
      <trkpt lat="44.86869" lon="5.87394">
        <ele>1029</ele>
        <time>2017-12-15T20:18:47Z</time>
      </trkpt>
      <trkpt lat="44.86859" lon="5.874">
        <ele>1028</ele>
        <time>2017-12-15T20:18:56Z</time>
      </trkpt>
      <trkpt lat="44.86852" lon="5.87409">
        <ele>1028</ele>
        <time>2017-12-15T20:19:09Z</time>
      </trkpt>
      <trkpt lat="44.86801" lon="5.87512">
        <ele>1042</ele>
        <time>2017-12-15T20:19:16Z</time>
      </trkpt>
      <trkpt lat="44.86797" lon="5.87533">
        <ele>1042</ele>
        <time>2017-12-15T20:19:27Z</time>
      </trkpt>
      <trkpt lat="44.86798" lon="5.87565">
        <ele>1046</ele>
        <time>2017-12-15T20:19:34Z</time>
      </trkpt>
      <trkpt lat="44.86798" lon="5.87581">
        <ele>1048</ele>
        <time>2017-12-15T20:19:52Z</time>
      </trkpt>
      <trkpt lat="44.8679" lon="5.87627">
        <ele>1057</ele>
        <time>2017-12-15T20:20:09Z</time>
      </trkpt>
      <trkpt lat="44.86772" lon="5.87696">
        <ele>1064</ele>
        <time>2017-12-15T20:20:25Z</time>
      </trkpt>
      <trkpt lat="44.86763" lon="5.87734">
        <ele>1063</ele>
        <time>2017-12-15T20:20:30Z</time>
      </trkpt>
      <trkpt lat="44.8676" lon="5.87763">
        <ele>1064</ele>
        <time>2017-12-15T20:20:39Z</time>
      </trkpt>
      <trkpt lat="44.8676" lon="5.87791">
        <ele>1070</ele>
        <time>2017-12-15T20:20:41Z</time>
      </trkpt>
      <trkpt lat="44.86763" lon="5.87802">
        <ele>1069</ele>
        <time>2017-12-15T20:20:47Z</time>
      </trkpt>
      <trkpt lat="44.86775" lon="5.87824">
        <ele>1070</ele>
        <time>2017-12-15T20:21:03Z</time>
      </trkpt>
      <trkpt lat="44.86786" lon="5.87849">
        <ele>1071</ele>
        <time>2017-12-15T20:21:18Z</time>
      </trkpt>
      <trkpt lat="44.86789" lon="5.87863">
        <ele>1072</ele>
        <time>2017-12-15T20:21:25Z</time>
      </trkpt>
      <trkpt lat="44.86792" lon="5.87894">
        <ele>1070</ele>
        <time>2017-12-15T20:21:44Z</time>
      </trkpt>
      <trkpt lat="44.86797" lon="5.87906">
        <ele>1072</ele>
        <time>2017-12-15T20:21:57Z</time>
      </trkpt>
      <trkpt lat="44.86805" lon="5.87921">
        <ele>1068</ele>
        <time>2017-12-15T20:22:04Z</time>
      </trkpt>
      <trkpt lat="44.86828" lon="5.87954">
        <ele>1069</ele>
        <time>2017-12-15T20:22:12Z</time>
      </trkpt>
      <trkpt lat="44.86838" lon="5.87971">
        <ele>1103</ele>
        <time>2017-12-15T20:22:16Z</time>
      </trkpt>
      <trkpt lat="44.86841" lon="5.8798">
        <ele>1100</ele>
        <time>2017-12-15T20:22:20Z</time>
      </trkpt>
      <trkpt lat="44.86842" lon="5.87996">
        <ele>1091</ele>
        <time>2017-12-15T20:22:31Z</time>
      </trkpt>
      <trkpt lat="44.86841" lon="5.88004">
        <ele>1090</ele>
        <time>2017-12-15T20:22:46Z</time>
      </trkpt>
      <trkpt lat="44.86826" lon="5.8804">
        <ele>1072</ele>
        <time>2017-12-15T20:22:53Z</time>
      </trkpt>
      <trkpt lat="44.86799" lon="5.881">
        <ele>1087</ele>
        <time>2017-12-15T20:23:06Z</time>
      </trkpt>
      <trkpt lat="44.8679" lon="5.88126">
        <ele>1086</ele>
        <time>2017-12-15T20:23:14Z</time>
      </trkpt>
      <trkpt lat="44.86782" lon="5.88158">
        <ele>1086</ele>
        <time>2017-12-15T20:23:33Z</time>
      </trkpt>
      <trkpt lat="44.86765" lon="5.88246">
        <ele>1095</ele>
        <time>2017-12-15T20:23:42Z</time>
      </trkpt>
      <trkpt lat="44.86758" lon="5.88317">
        <ele>1107</ele>
        <time>2017-12-15T20:23:53Z</time>
      </trkpt>
      <trkpt lat="44.86755" lon="5.8844">
        <ele>1113</ele>
        <time>2017-12-15T20:23:59Z</time>
      </trkpt>
      <trkpt lat="44.86758" lon="5.88456">
        <ele>1115</ele>
        <time>2017-12-15T20:24:18Z</time>
      </trkpt>
      <trkpt lat="44.86764" lon="5.88471">
        <ele>1115</ele>
        <time>2017-12-15T20:24:30Z</time>
      </trkpt>
      <trkpt lat="44.86785" lon="5.88496">
        <ele>1120</ele>
        <time>2017-12-15T20:24:48Z</time>
      </trkpt>
      <trkpt lat="44.86793" lon="5.88508">
        <ele>1123</ele>
        <time>2017-12-15T20:25:03Z</time>
      </trkpt>
      <trkpt lat="44.86795" lon="5.88524">
        <ele>1124</ele>
        <time>2017-12-15T20:25:13Z</time>
      </trkpt>
      <trkpt lat="44.86794" lon="5.88534">
        <ele>1124</ele>
        <time>2017-12-15T20:25:22Z</time>
      </trkpt>
      <trkpt lat="44.86771" lon="5.88592">
        <ele>1125</ele>
        <time>2017-12-15T20:25:38Z</time>
      </trkpt>
      <trkpt lat="44.86756" lon="5.88627">
        <ele>1132</ele>
        <time>2017-12-15T20:25:52Z</time>
      </trkpt>
      <trkpt lat="44.86733" lon="5.88684">
        <ele>1119</ele>
        <time>2017-12-15T20:26:06Z</time>
      </trkpt>
      <trkpt lat="44.86723" lon="5.88729">
        <ele>1123</ele>
        <time>2017-12-15T20:26:17Z</time>
      </trkpt>
      <trkpt lat="44.86718" lon="5.88747">
        <ele>1124</ele>
        <time>2017-12-15T20:26:19Z</time>
      </trkpt>
      <trkpt lat="44.86709" lon="5.88763">
        <ele>1138</ele>
        <time>2017-12-15T20:26:33Z</time>
      </trkpt>
      <trkpt lat="44.86688" lon="5.88782">
        <ele>1135</ele>
        <time>2017-12-15T20:26:38Z</time>
      </trkpt>
      <trkpt lat="44.86677" lon="5.88798">
        <ele>1137</ele>
        <time>2017-12-15T20:26:41Z</time>
      </trkpt>
      <trkpt lat="44.8666" lon="5.8884">
        <ele>1133</ele>
        <time>2017-12-15T20:26:47Z</time>
      </trkpt>
      <trkpt lat="44.8664" lon="5.88898">
        <ele>1133</ele>
        <time>2017-12-15T20:26:50Z</time>
      </trkpt>
      <trkpt lat="44.86624" lon="5.88949">
        <ele>1139</ele>
        <time>2017-12-15T20:27:05Z</time>
      </trkpt>
      <trkpt lat="44.86616" lon="5.88994">
        <ele>1139</ele>
        <time>2017-12-15T20:27:18Z</time>
      </trkpt>
      <trkpt lat="44.86615" lon="5.89013">
        <ele>1139</ele>
        <time>2017-12-15T20:27:28Z</time>
      </trkpt>
      <trkpt lat="44.86616" lon="5.8904">
        <ele>1139</ele>
        <time>2017-12-15T20:27:48Z</time>
      </trkpt>
      <trkpt lat="44.86622" lon="5.89076">
        <ele>1139</ele>
        <time>2017-12-15T20:27:56Z</time>
      </trkpt>
      <trkpt lat="44.86643" lon="5.89144">
        <ele>1138</ele>
        <time>2017-12-15T20:28:15Z</time>
      </trkpt>
      <trkpt lat="44.86657" lon="5.8918">
        <ele>1136</ele>
        <time>2017-12-15T20:28:32Z</time>
      </trkpt>
      <trkpt lat="44.86672" lon="5.89203">
        <ele>1153</ele>
        <time>2017-12-15T20:28:39Z</time>
      </trkpt>
      <trkpt lat="44.86687" lon="5.89213">
        <ele>1154</ele>
        <time>2017-12-15T20:28:59Z</time>
      </trkpt>
      <trkpt lat="44.86714" lon="5.89228">
        <ele>1157</ele>
        <time>2017-12-15T20:29:13Z</time>
      </trkpt>
      <trkpt lat="44.86722" lon="5.89236">
        <ele>1158</ele>
        <time>2017-12-15T20:29:32Z</time>
      </trkpt>
      <trkpt lat="44.86749" lon="5.89274">
        <ele>1149</ele>
        <time>2017-12-15T20:29:41Z</time>
      </trkpt>
      <trkpt lat="44.8678" lon="5.89316">
        <ele>1163</ele>
        <time>2017-12-15T20:29:57Z</time>
      </trkpt>
      <trkpt lat="44.86792" lon="5.89326">
        <ele>1165</ele>
        <time>2017-12-15T20:30:14Z</time>
      </trkpt>
      <trkpt lat="44.86807" lon="5.89334">
        <ele>1158</ele>
        <time>2017-12-15T20:30:31Z</time>
      </trkpt>
      <trkpt lat="44.8683" lon="5.89341">
        <ele>1164</ele>
        <time>2017-12-15T20:30:51Z</time>
      </trkpt>
      <trkpt lat="44.86873" lon="5.89354">
        <ele>1176</ele>
        <time>2017-12-15T20:30:55Z</time>
      </trkpt>
      <trkpt lat="44.86909" lon="5.89366">
        <ele>1180</ele>
        <time>2017-12-15T20:31:08Z</time>
      </trkpt>
      <trkpt lat="44.86918" lon="5.89375">
        <ele>1193</ele>
        <time>2017-12-15T20:31:11Z</time>
      </trkpt>
      <trkpt lat="44.86922" lon="5.89386">
        <ele>1192</ele>
        <time>2017-12-15T20:31:16Z</time>
      </trkpt>
      <trkpt lat="44.86922" lon="5.89396">
        <ele>1190</ele>
        <time>2017-12-15T20:31:18Z</time>
      </trkpt>
      <trkpt lat="44.86917" lon="5.89409">
        <ele>1185</ele>
        <time>2017-12-15T20:31:29Z</time>
      </trkpt>
      <trkpt lat="44.86906" lon="5.8942">
        <ele>1180</ele>
        <time>2017-12-15T20:31:46Z</time>
      </trkpt>
      <trkpt lat="44.86857" lon="5.89462">
        <ele>1178</ele>
        <time>2017-12-15T20:31:49Z</time>
      </trkpt>
      <trkpt lat="44.86834" lon="5.89492">
        <ele>1178</ele>
        <time>2017-12-15T20:32:09Z</time>
      </trkpt>
      <trkpt lat="44.86821" lon="5.89521">
        <ele>1172</ele>
        <time>2017-12-15T20:32:20Z</time>
      </trkpt>
      <trkpt lat="44.86807" lon="5.89575">
        <ele>1175</ele>
        <time>2017-12-15T20:32:36Z</time>
      </trkpt>
      <trkpt lat="44.86804" lon="5.89602">
        <ele>1181</ele>
        <time>2017-12-15T20:32:54Z</time>
      </trkpt>
      <trkpt lat="44.86805" lon="5.89662">
        <ele>1184</ele>
        <time>2017-12-15T20:33:10Z</time>
      </trkpt>
      <trkpt lat="44.86808" lon="5.89713">
        <ele>1189</ele>
        <time>2017-12-15T20:33:20Z</time>
      </trkpt>
      <trkpt lat="44.86813" lon="5.89748">
        <ele>1191</ele>
        <time>2017-12-15T20:33:34Z</time>
      </trkpt>
      <trkpt lat="44.86818" lon="5.898">
        <ele>1194</ele>
        <time>2017-12-15T20:33:42Z</time>
      </trkpt>
      <trkpt lat="44.86816" lon="5.89826">
        <ele>1196</ele>
        <time>2017-12-15T20:33:49Z</time>
      </trkpt>
      <trkpt lat="44.86807" lon="5.89882">
        <ele>1197</ele>
        <time>2017-12-15T20:34:01Z</time>
      </trkpt>
      <trkpt lat="44.86808" lon="5.89893">
        <ele>1198</ele>
        <time>2017-12-15T20:34:05Z</time>
      </trkpt>
      <trkpt lat="44.86814" lon="5.89907">
        <ele>1199</ele>
        <time>2017-12-15T20:34:18Z</time>
      </trkpt>
      <trkpt lat="44.86818" lon="5.89923">
        <ele>1201</ele>
        <time>2017-12-15T20:34:36Z</time>
      </trkpt>
      <trkpt lat="44.86813" lon="5.89952">
        <ele>1200</ele>
        <time>2017-12-15T20:34:47Z</time>
      </trkpt>
      <trkpt lat="44.86814" lon="5.89959">
        <ele>1200</ele>
        <time>2017-12-15T20:34:58Z</time>
      </trkpt>
      <trkpt lat="44.86818" lon="5.89971">
        <ele>1201</ele>
        <time>2017-12-15T20:35:14Z</time>
      </trkpt>
      <trkpt lat="44.86834" lon="5.89996">
        <ele>1206</ele>
        <time>2017-12-15T20:35:27Z</time>
      </trkpt>
      <trkpt lat="44.86861" lon="5.90062">
        <ele>1206</ele>
        <time>2017-12-15T20:35:42Z</time>
      </trkpt>
      <trkpt lat="44.86891" lon="5.90119">
        <ele>1205</ele>
        <time>2017-12-15T20:35:44Z</time>
      </trkpt>
      <trkpt lat="44.86924" lon="5.90173">
        <ele>1206</ele>
        <time>2017-12-15T20:35:58Z</time>
      </trkpt>
      <trkpt lat="44.86954" lon="5.9021">
        <ele>1207</ele>
        <time>2017-12-15T20:36:10Z</time>
      </trkpt>
      <trkpt lat="44.86961" lon="5.90223">
        <ele>1207</ele>
        <time>2017-12-15T20:36:20Z</time>
      </trkpt>
      <trkpt lat="44.86968" lon="5.90243">
        <ele>1207</ele>
        <time>2017-12-15T20:36:22Z</time>
      </trkpt>
      <trkpt lat="44.86994" lon="5.90374">
        <ele>1198</ele>
        <time>2017-12-15T20:36:29Z</time>
      </trkpt>
      <trkpt lat="44.87003" lon="5.90403">
        <ele>1207</ele>
        <time>2017-12-15T20:36:34Z</time>
      </trkpt>
      <trkpt lat="44.87016" lon="5.90433">
        <ele>1206</ele>
        <time>2017-12-15T20:36:42Z</time>
      </trkpt>
      <trkpt lat="44.87046" lon="5.90489">
        <ele>1209</ele>
        <time>2017-12-15T20:36:47Z</time>
      </trkpt>
      <trkpt lat="44.87053" lon="5.90506">
        <ele>1208</ele>
        <time>2017-12-15T20:36:54Z</time>
      </trkpt>
      <trkpt lat="44.87056" lon="5.90523">
        <ele>1208</ele>
        <time>2017-12-15T20:36:56Z</time>
      </trkpt>
      <trkpt lat="44.87055" lon="5.90531">
        <ele>1208</ele>
        <time>2017-12-15T20:37:01Z</time>
      </trkpt>
      <trkpt lat="44.87048" lon="5.90545">
        <ele>1208</ele>
        <time>2017-12-15T20:37:04Z</time>
      </trkpt>
      <trkpt lat="44.87037" lon="5.90557">
        <ele>1208</ele>
        <time>2017-12-15T20:37:17Z</time>
      </trkpt>
      <trkpt lat="44.87029" lon="5.9056">
        <ele>1207</ele>
        <time>2017-12-15T20:37:35Z</time>
      </trkpt>
      <trkpt lat="44.87019" lon="5.9056">
        <ele>1207</ele>
        <time>2017-12-15T20:37:42Z</time>
      </trkpt>
      <trkpt lat="44.86995" lon="5.90554">
        <ele>1205</ele>
        <time>2017-12-15T20:37:58Z</time>
      </trkpt>
      <trkpt lat="44.86982" lon="5.90555">
        <ele>1204</ele>
        <time>2017-12-15T20:38:00Z</time>
      </trkpt>
      <trkpt lat="44.86956" lon="5.90564">
        <ele>1204</ele>
        <time>2017-12-15T20:38:17Z</time>
      </trkpt>
      <trkpt lat="44.86938" lon="5.90577">
        <ele>1204</ele>
        <time>2017-12-15T20:38:31Z</time>
      </trkpt>
      <trkpt lat="44.86923" lon="5.90594">
        <ele>1208</ele>
        <time>2017-12-15T20:38:40Z</time>
      </trkpt>
      <trkpt lat="44.86879" lon="5.90661">
        <ele>1209</ele>
        <time>2017-12-15T20:38:45Z</time>
      </trkpt>
      <trkpt lat="44.86861" lon="5.90697">
        <ele>1215</ele>
        <time>2017-12-15T20:38:55Z</time>
      </trkpt>
      <trkpt lat="44.86839" lon="5.9075">
        <ele>1217</ele>
        <time>2017-12-15T20:39:03Z</time>
      </trkpt>
      <trkpt lat="44.86809" lon="5.90825">
        <ele>1219</ele>
        <time>2017-12-15T20:39:09Z</time>
      </trkpt>
      <trkpt lat="44.86802" lon="5.90835">
        <ele>1224</ele>
        <time>2017-12-15T20:39:24Z</time>
      </trkpt>
      <trkpt lat="44.86777" lon="5.90857">
        <ele>1223</ele>
        <time>2017-12-15T20:39:43Z</time>
      </trkpt>
      <trkpt lat="44.86763" lon="5.90866">
        <ele>1223</ele>
        <time>2017-12-15T20:39:53Z</time>
      </trkpt>
      <trkpt lat="44.86758" lon="5.90868">
        <ele>1223</ele>
        <time>2017-12-15T20:40:08Z</time>
      </trkpt>
      <trkpt lat="44.86745" lon="5.90865">
        <ele>1220</ele>
        <time>2017-12-15T20:40:17Z</time>
      </trkpt>
      <trkpt lat="44.86711" lon="5.90846">
        <ele>1219</ele>
        <time>2017-12-15T20:40:28Z</time>
      </trkpt>
      <trkpt lat="44.86689" lon="5.90836">
        <ele>1217</ele>
        <time>2017-12-15T20:40:39Z</time>
      </trkpt>
      <trkpt lat="44.86659" lon="5.90827">
        <ele>1210</ele>
        <time>2017-12-15T20:40:56Z</time>
      </trkpt>
      <trkpt lat="44.86649" lon="5.90828">
        <ele>1209</ele>
        <time>2017-12-15T20:41:06Z</time>
      </trkpt>
      <trkpt lat="44.8664" lon="5.90834">
        <ele>1210</ele>
        <time>2017-12-15T20:41:26Z</time>
      </trkpt>
      <trkpt lat="44.86633" lon="5.90844">
        <ele>1210</ele>
        <time>2017-12-15T20:41:43Z</time>
      </trkpt>
      <trkpt lat="44.86625" lon="5.90861">
        <ele>1210</ele>
        <time>2017-12-15T20:41:46Z</time>
      </trkpt>
      <trkpt lat="44.86618" lon="5.9089">
        <ele>1210</ele>
        <time>2017-12-15T20:42:01Z</time>
      </trkpt>
      <trkpt lat="44.86614" lon="5.90911">
        <ele>1209</ele>
        <time>2017-12-15T20:42:08Z</time>
      </trkpt>
      <trkpt lat="44.86612" lon="5.90941">
        <ele>1212</ele>
        <time>2017-12-15T20:42:15Z</time>
      </trkpt>
      <trkpt lat="44.86611" lon="5.90983">
        <ele>1212</ele>
        <time>2017-12-15T20:42:22Z</time>
      </trkpt>
      <trkpt lat="44.86612" lon="5.91018">
        <ele>1215</ele>
        <time>2017-12-15T20:42:28Z</time>
      </trkpt>
      <trkpt lat="44.86609" lon="5.91086">
        <ele>1217</ele>
        <time>2017-12-15T20:42:43Z</time>
      </trkpt>
      <trkpt lat="44.86604" lon="5.91162">
        <ele>1218</ele>
        <time>2017-12-15T20:42:52Z</time>
      </trkpt>
      <trkpt lat="44.86601" lon="5.91183">
        <ele>1220</ele>
        <time>2017-12-15T20:42:58Z</time>
      </trkpt>
      <trkpt lat="44.8659" lon="5.91224">
        <ele>1220</ele>
        <time>2017-12-15T20:43:13Z</time>
      </trkpt>
      <trkpt lat="44.86588" lon="5.91239">
        <ele>1216</ele>
        <time>2017-12-15T20:43:29Z</time>
      </trkpt>
      <trkpt lat="44.8659" lon="5.91258">
        <ele>1215</ele>
        <time>2017-12-15T20:43:37Z</time>
      </trkpt>
      <trkpt lat="44.86601" lon="5.91297">
        <ele>1220</ele>
        <time>2017-12-15T20:43:46Z</time>
      </trkpt>
      <trkpt lat="44.86615" lon="5.91334">
        <ele>1217</ele>
        <time>2017-12-15T20:43:56Z</time>
      </trkpt>
      <trkpt lat="44.8663" lon="5.91415">
        <ele>1219</ele>
        <time>2017-12-15T20:44:11Z</time>
      </trkpt>
      <trkpt lat="44.86635" lon="5.91431">
        <ele>1215</ele>
        <time>2017-12-15T20:44:27Z</time>
      </trkpt>
      <trkpt lat="44.86648" lon="5.91457">
        <ele>1215</ele>
        <time>2017-12-15T20:44:43Z</time>
      </trkpt>
      <trkpt lat="44.86689" lon="5.9152">
        <ele>1221</ele>
        <time>2017-12-15T20:44:56Z</time>
      </trkpt>
      <trkpt lat="44.8671" lon="5.91542">
        <ele>1223</ele>
        <time>2017-12-15T20:45:01Z</time>
      </trkpt>
      <trkpt lat="44.86736" lon="5.91564">
        <ele>1223</ele>
        <time>2017-12-15T20:45:04Z</time>
      </trkpt>
      <trkpt lat="44.86748" lon="5.91571">
        <ele>1223</ele>
        <time>2017-12-15T20:45:24Z</time>
      </trkpt>
      <trkpt lat="44.86768" lon="5.91583">
        <ele>1234</ele>
        <time>2017-12-15T20:45:41Z</time>
      </trkpt>
      <trkpt lat="44.86772" lon="5.91593">
        <ele>1229</ele>
        <time>2017-12-15T20:45:54Z</time>
      </trkpt>
      <trkpt lat="44.86772" lon="5.91604">
        <ele>1229</ele>
        <time>2017-12-15T20:46:01Z</time>
      </trkpt>
      <trkpt lat="44.86766" lon="5.91611">
        <ele>1229</ele>
        <time>2017-12-15T20:46:07Z</time>
      </trkpt>
      <trkpt lat="44.8675" lon="5.91616">
        <ele>1223</ele>
        <time>2017-12-15T20:46:13Z</time>
      </trkpt>
      <trkpt lat="44.86715" lon="5.91616">
        <ele>1222</ele>
        <time>2017-12-15T20:46:33Z</time>
      </trkpt>
      <trkpt lat="44.86673" lon="5.91611">
        <ele>1220</ele>
        <time>2017-12-15T20:46:38Z</time>
      </trkpt>
      <trkpt lat="44.86645" lon="5.91602">
        <ele>1222</ele>
        <time>2017-12-15T20:46:44Z</time>
      </trkpt>
      <trkpt lat="44.86631" lon="5.91595">
        <ele>1223</ele>
        <time>2017-12-15T20:46:56Z</time>
      </trkpt>
      <trkpt lat="44.86618" lon="5.91585">
        <ele>1223</ele>
        <time>2017-12-15T20:47:02Z</time>
      </trkpt>
      <trkpt lat="44.86559" lon="5.91523">
        <ele>1219</ele>
        <time>2017-12-15T20:47:06Z</time>
      </trkpt>
      <trkpt lat="44.86533" lon="5.9149">
        <ele>1213</ele>
        <time>2017-12-15T20:47:19Z</time>
      </trkpt>
      <trkpt lat="44.86515" lon="5.91464">
        <ele>1213</ele>
        <time>2017-12-15T20:47:21Z</time>
      </trkpt>
      <trkpt lat="44.86467" lon="5.91374">
        <ele>1217</ele>
        <time>2017-12-15T20:47:27Z</time>
      </trkpt>
      <trkpt lat="44.86448" lon="5.91336">
        <ele>1218</ele>
        <time>2017-12-15T20:47:39Z</time>
      </trkpt>
      <trkpt lat="44.86441" lon="5.91315">
        <ele>1210</ele>
        <time>2017-12-15T20:47:53Z</time>
      </trkpt>
      <trkpt lat="44.86424" lon="5.91253">
        <ele>1209</ele>
        <time>2017-12-15T20:47:57Z</time>
      </trkpt>
      <trkpt lat="44.86401" lon="5.91205">
        <ele>1222</ele>
        <time>2017-12-15T20:48:10Z</time>
      </trkpt>
      <trkpt lat="44.86383" lon="5.91151">
        <ele>1215</ele>
        <time>2017-12-15T20:48:21Z</time>
      </trkpt>
      <trkpt lat="44.86336" lon="5.91033">
        <ele>1204</ele>
        <time>2017-12-15T20:48:33Z</time>
      </trkpt>
      <trkpt lat="44.86317" lon="5.90992">
        <ele>1214</ele>
        <time>2017-12-15T20:48:42Z</time>
      </trkpt>
      <trkpt lat="44.86284" lon="5.90936">
        <ele>1219</ele>
        <time>2017-12-15T20:49:02Z</time>
      </trkpt>
      <trkpt lat="44.86268" lon="5.90894">
        <ele>1211</ele>
        <time>2017-12-15T20:49:12Z</time>
      </trkpt>
      <trkpt lat="44.86233" lon="5.90784">
        <ele>1222</ele>
        <time>2017-12-15T20:49:21Z</time>
      </trkpt>
      <trkpt lat="44.86216" lon="5.90738">
        <ele>1213</ele>
        <time>2017-12-15T20:49:38Z</time>
      </trkpt>
      <trkpt lat="44.86211" lon="5.90716">
        <ele>1213</ele>
        <time>2017-12-15T20:49:51Z</time>
      </trkpt>
      <trkpt lat="44.86203" lon="5.90652">
        <ele>1201</ele>
        <time>2017-12-15T20:49:54Z</time>
      </trkpt>
      <trkpt lat="44.86198" lon="5.90639">
        <ele>1200</ele>
        <time>2017-12-15T20:50:01Z</time>
      </trkpt>
      <trkpt lat="44.86179" lon="5.90619">
        <ele>1201</ele>
        <time>2017-12-15T20:50:20Z</time>
      </trkpt>
      <trkpt lat="44.8616" lon="5.90585">
        <ele>1211</ele>
        <time>2017-12-15T20:50:32Z</time>
      </trkpt>
      <trkpt lat="44.86121" lon="5.90534">
        <ele>1210</ele>
        <time>2017-12-15T20:50:43Z</time>
      </trkpt>
      <trkpt lat="44.86115" lon="5.90516">
        <ele>1210</ele>
        <time>2017-12-15T20:50:50Z</time>
      </trkpt>
      <trkpt lat="44.86112" lon="5.90497">
        <ele>1203</ele>
        <time>2017-12-15T20:51:04Z</time>
      </trkpt>
      <trkpt lat="44.86113" lon="5.90461">
        <ele>1199</ele>
        <time>2017-12-15T20:51:21Z</time>
      </trkpt>
      <trkpt lat="44.86109" lon="5.9041">
        <ele>1192</ele>
        <time>2017-12-15T20:51:27Z</time>
      </trkpt>
      <trkpt lat="44.86084" lon="5.90337">
        <ele>1192</ele>
        <time>2017-12-15T20:51:32Z</time>
      </trkpt>
      <trkpt lat="44.86076" lon="5.90323">
        <ele>1188</ele>
        <time>2017-12-15T20:51:37Z</time>
      </trkpt>
      <trkpt lat="44.86067" lon="5.90314">
        <ele>1185</ele>
        <time>2017-12-15T20:51:55Z</time>
      </trkpt>
      <trkpt lat="44.86053" lon="5.9031">
        <ele>1184</ele>
        <time>2017-12-15T20:52:00Z</time>
      </trkpt>
      <trkpt lat="44.86043" lon="5.90312">
        <ele>1183</ele>
        <time>2017-12-15T20:52:04Z</time>
      </trkpt>
      <trkpt lat="44.86025" lon="5.90325">
        <ele>1184</ele>
        <time>2017-12-15T20:52:21Z</time>
      </trkpt>
      <trkpt lat="44.85987" lon="5.90355">
        <ele>1193</ele>
        <time>2017-12-15T20:52:41Z</time>
      </trkpt>
      <trkpt lat="44.85951" lon="5.90369">
        <ele>1194</ele>
        <time>2017-12-15T20:52:58Z</time>
      </trkpt>
      <trkpt lat="44.85903" lon="5.90387">
        <ele>1193</ele>
        <time>2017-12-15T20:53:16Z</time>
      </trkpt>
      <trkpt lat="44.8582" lon="5.9042">
        <ele>1201</ele>
        <time>2017-12-15T20:53:26Z</time>
      </trkpt>
      <trkpt lat="44.8574" lon="5.90446">
        <ele>1202</ele>
        <time>2017-12-15T20:53:41Z</time>
      </trkpt>
      <trkpt lat="44.85713" lon="5.90451">
        <ele>1203</ele>
        <time>2017-12-15T20:53:52Z</time>
      </trkpt>
      <trkpt lat="44.85627" lon="5.90463">
        <ele>1208</ele>
        <time>2017-12-15T20:54:06Z</time>
      </trkpt>
      <trkpt lat="44.8559" lon="5.90471">
        <ele>1209</ele>
        <time>2017-12-15T20:54:23Z</time>
      </trkpt>
      <trkpt lat="44.85572" lon="5.90469">
        <ele>1211</ele>
        <time>2017-12-15T20:54:34Z</time>
      </trkpt>
      <trkpt lat="44.85544" lon="5.90462">
        <ele>1211</ele>
        <time>2017-12-15T20:54:39Z</time>
      </trkpt>
      <trkpt lat="44.85528" lon="5.90466">
        <ele>1212</ele>
        <time>2017-12-15T20:54:43Z</time>
      </trkpt>
      <trkpt lat="44.85513" lon="5.90477">
        <ele>1211</ele>
        <time>2017-12-15T20:54:48Z</time>
      </trkpt>
      <trkpt lat="44.85488" lon="5.90511">
        <ele>1209</ele>
        <time>2017-12-15T20:54:51Z</time>
      </trkpt>
      <trkpt lat="44.85437" lon="5.90608">
        <ele>1203</ele>
        <time>2017-12-15T20:54:57Z</time>
      </trkpt>
      <trkpt lat="44.85422" lon="5.90631">
        <ele>1203</ele>
        <time>2017-12-15T20:55:13Z</time>
      </trkpt>
      <trkpt lat="44.85405" lon="5.90646">
        <ele>1199</ele>
        <time>2017-12-15T20:55:19Z</time>
      </trkpt>
      <trkpt lat="44.85376" lon="5.90662">
        <ele>1198</ele>
        <time>2017-12-15T20:55:30Z</time>
      </trkpt>
      <trkpt lat="44.85322" lon="5.90688">
        <ele>1192</ele>
        <time>2017-12-15T20:55:38Z</time>
      </trkpt>
      <trkpt lat="44.85302" lon="5.907">
        <ele>1191</ele>
        <time>2017-12-15T20:55:56Z</time>
      </trkpt>
      <trkpt lat="44.85273" lon="5.90728">
        <ele>1189</ele>
        <time>2017-12-15T20:56:07Z</time>
      </trkpt>
      <trkpt lat="44.8526" lon="5.90742">
        <ele>1187</ele>
        <time>2017-12-15T20:56:24Z</time>
      </trkpt>
      <trkpt lat="44.85257" lon="5.9075">
        <ele>1186</ele>
        <time>2017-12-15T20:56:31Z</time>
      </trkpt>
      <trkpt lat="44.85255" lon="5.90776">
        <ele>1185</ele>
        <time>2017-12-15T20:56:38Z</time>
      </trkpt>
      <trkpt lat="44.85255" lon="5.90846">
        <ele>1182</ele>
        <time>2017-12-15T20:56:43Z</time>
      </trkpt>
      <trkpt lat="44.85246" lon="5.90871">
        <ele>1174</ele>
        <time>2017-12-15T20:56:53Z</time>
      </trkpt>
      <trkpt lat="44.85211" lon="5.90934">
        <ele>1172</ele>
        <time>2017-12-15T20:57:12Z</time>
      </trkpt>
      <trkpt lat="44.85174" lon="5.91026">
        <ele>1171</ele>
        <time>2017-12-15T20:57:18Z</time>
      </trkpt>
      <trkpt lat="44.85139" lon="5.91119">
        <ele>1160</ele>
        <time>2017-12-15T20:57:32Z</time>
      </trkpt>
      <trkpt lat="44.85132" lon="5.91131">
        <ele>1159</ele>
        <time>2017-12-15T20:57:52Z</time>
      </trkpt>
      <trkpt lat="44.85127" lon="5.91132">
        <ele>1158</ele>
        <time>2017-12-15T20:58:01Z</time>
      </trkpt>
      <trkpt lat="44.85123" lon="5.9113">
        <ele>1158</ele>
        <time>2017-12-15T20:58:04Z</time>
      </trkpt>
      <trkpt lat="44.85123" lon="5.91122">
        <ele>1158</ele>
        <time>2017-12-15T20:58:16Z</time>
      </trkpt>
      <trkpt lat="44.85125" lon="5.91096">
        <ele>1157</ele>
        <time>2017-12-15T20:58:32Z</time>
      </trkpt>
      <trkpt lat="44.85122" lon="5.91043">
        <ele>1155</ele>
        <time>2017-12-15T20:58:41Z</time>
      </trkpt>
      <trkpt lat="44.8512" lon="5.91029">
        <ele>1155</ele>
        <time>2017-12-15T20:58:46Z</time>
      </trkpt>
      <trkpt lat="44.85116" lon="5.91021">
        <ele>1154</ele>
        <time>2017-12-15T20:59:05Z</time>
      </trkpt>
      <trkpt lat="44.85109" lon="5.91017">
        <ele>1154</ele>
        <time>2017-12-15T20:59:16Z</time>
      </trkpt>
      <trkpt lat="44.851" lon="5.91016">
        <ele>1153</ele>
        <time>2017-12-15T20:59:18Z</time>
      </trkpt>
      <trkpt lat="44.85096" lon="5.91022">
        <ele>1153</ele>
        <time>2017-12-15T20:59:27Z</time>
      </trkpt>
      <trkpt lat="44.85082" lon="5.9104">
        <ele>1148</ele>
        <time>2017-12-15T20:59:38Z</time>
      </trkpt>
      <trkpt lat="44.85055" lon="5.91067">
        <ele>1147</ele>
        <time>2017-12-15T20:59:51Z</time>
      </trkpt>
      <trkpt lat="44.85009" lon="5.91112">
        <ele>1141</ele>
        <time>2017-12-15T21:00:10Z</time>
      </trkpt>
      <trkpt lat="44.8499" lon="5.91128">
        <ele>1136</ele>
        <time>2017-12-15T21:00:18Z</time>
      </trkpt>
      <trkpt lat="44.84975" lon="5.91151">
        <ele>1135</ele>
        <time>2017-12-15T21:00:33Z</time>
      </trkpt>
      <trkpt lat="44.8494" lon="5.91239">
        <ele>1131</ele>
        <time>2017-12-15T21:00:38Z</time>
      </trkpt>
      <trkpt lat="44.84929" lon="5.91279">
        <ele>1137</ele>
        <time>2017-12-15T21:00:42Z</time>
      </trkpt>
      <trkpt lat="44.84924" lon="5.91291">
        <ele>1139</ele>
        <time>2017-12-15T21:00:48Z</time>
      </trkpt>
      <trkpt lat="44.84918" lon="5.91299">
        <ele>1140</ele>
        <time>2017-12-15T21:00:51Z</time>
      </trkpt>
      <trkpt lat="44.84907" lon="5.91303">
        <ele>1138</ele>
        <time>2017-12-15T21:00:59Z</time>
      </trkpt>
      <trkpt lat="44.84895" lon="5.91297">
        <ele>1137</ele>
        <time>2017-12-15T21:01:15Z</time>
      </trkpt>
      <trkpt lat="44.84878" lon="5.91287">
        <ele>1136</ele>
        <time>2017-12-15T21:01:28Z</time>
      </trkpt>
      <trkpt lat="44.84864" lon="5.91281">
        <ele>1135</ele>
        <time>2017-12-15T21:01:32Z</time>
      </trkpt>
      <trkpt lat="44.84846" lon="5.91278">
        <ele>1134</ele>
        <time>2017-12-15T21:01:34Z</time>
      </trkpt>
      <trkpt lat="44.84804" lon="5.91278">
        <ele>1131</ele>
        <time>2017-12-15T21:01:49Z</time>
      </trkpt>
      <trkpt lat="44.84774" lon="5.91285">
        <ele>1131</ele>
        <time>2017-12-15T21:02:01Z</time>
      </trkpt>
      <trkpt lat="44.8475" lon="5.91296">
        <ele>1123</ele>
        <time>2017-12-15T21:02:05Z</time>
      </trkpt>
      <trkpt lat="44.84726" lon="5.91313">
        <ele>1124</ele>
        <time>2017-12-15T21:02:22Z</time>
      </trkpt>
      <trkpt lat="44.84687" lon="5.91346">
        <ele>1132</ele>
        <time>2017-12-15T21:02:40Z</time>
      </trkpt>
      <trkpt lat="44.84654" lon="5.91382">
        <ele>1121</ele>
        <time>2017-12-15T21:02:59Z</time>
      </trkpt>
      <trkpt lat="44.84624" lon="5.91424">
        <ele>1134</ele>
        <time>2017-12-15T21:03:08Z</time>
      </trkpt>
      <trkpt lat="44.84609" lon="5.91448">
        <ele>1133</ele>
        <time>2017-12-15T21:03:14Z</time>
      </trkpt>
      <trkpt lat="44.84591" lon="5.91488">
        <ele>1134</ele>
        <time>2017-12-15T21:03:27Z</time>
      </trkpt>
      <trkpt lat="44.84586" lon="5.91501">
        <ele>1134</ele>
        <time>2017-12-15T21:03:36Z</time>
      </trkpt>
      <trkpt lat="44.84577" lon="5.91513">
        <ele>1132</ele>
        <time>2017-12-15T21:03:54Z</time>
      </trkpt>
      <trkpt lat="44.84561" lon="5.91521">
        <ele>1132</ele>
        <time>2017-12-15T21:04:02Z</time>
      </trkpt>
      <trkpt lat="44.84537" lon="5.91531">
        <ele>1130</ele>
        <time>2017-12-15T21:04:17Z</time>
      </trkpt>
      <trkpt lat="44.8451" lon="5.9155">
        <ele>1131</ele>
        <time>2017-12-15T21:04:35Z</time>
      </trkpt>
      <trkpt lat="44.84469" lon="5.91585">
        <ele>1137</ele>
        <time>2017-12-15T21:04:38Z</time>
      </trkpt>
      <trkpt lat="44.84413" lon="5.91629">
        <ele>1123</ele>
        <time>2017-12-15T21:04:43Z</time>
      </trkpt>
      <trkpt lat="44.84393" lon="5.91642">
        <ele>1125</ele>
        <time>2017-12-15T21:04:57Z</time>
      </trkpt>
      <trkpt lat="44.84374" lon="5.91652">
        <ele>1124</ele>
        <time>2017-12-15T21:05:14Z</time>
      </trkpt>
      <trkpt lat="44.84341" lon="5.91663">
        <ele>1126</ele>
        <time>2017-12-15T21:05:27Z</time>
      </trkpt>
      <trkpt lat="44.84309" lon="5.91666">
        <ele>1117</ele>
        <time>2017-12-15T21:05:32Z</time>
      </trkpt>
      <trkpt lat="44.84279" lon="5.91659">
        <ele>1115</ele>
        <time>2017-12-15T21:05:38Z</time>
      </trkpt>
      <trkpt lat="44.84261" lon="5.91651">
        <ele>1116</ele>
        <time>2017-12-15T21:05:51Z</time>
      </trkpt>
      <trkpt lat="44.84233" lon="5.91636">
        <ele>1107</ele>
        <time>2017-12-15T21:06:07Z</time>
      </trkpt>
      <trkpt lat="44.84216" lon="5.91629">
        <ele>1103</ele>
        <time>2017-12-15T21:06:10Z</time>
      </trkpt>
      <trkpt lat="44.84205" lon="5.91632">
        <ele>1103</ele>
        <time>2017-12-15T21:06:29Z</time>
      </trkpt>
      <trkpt lat="44.84198" lon="5.91636">
        <ele>1103</ele>
        <time>2017-12-15T21:06:35Z</time>
      </trkpt>
      <trkpt lat="44.84193" lon="5.91641">
        <ele>1104</ele>
        <time>2017-12-15T21:06:50Z</time>
      </trkpt>
      <trkpt lat="44.84189" lon="5.91649">
        <ele>1105</ele>
        <time>2017-12-15T21:07:05Z</time>
      </trkpt>
      <trkpt lat="44.84185" lon="5.91663">
        <ele>1107</ele>
        <time>2017-12-15T21:07:24Z</time>
      </trkpt>
      <trkpt lat="44.84186" lon="5.9168">
        <ele>1118</ele>
        <time>2017-12-15T21:07:29Z</time>
      </trkpt>
      <trkpt lat="44.84197" lon="5.9172">
        <ele>1122</ele>
        <time>2017-12-15T21:07:38Z</time>
      </trkpt>
      <trkpt lat="44.842" lon="5.91738">
        <ele>1123</ele>
        <time>2017-12-15T21:07:47Z</time>
      </trkpt>
      <trkpt lat="44.84198" lon="5.91804">
        <ele>1126</ele>
        <time>2017-12-15T21:07:49Z</time>
      </trkpt>
      <trkpt lat="44.84191" lon="5.9186">
        <ele>1125</ele>
        <time>2017-12-15T21:07:55Z</time>
      </trkpt>
      <trkpt lat="44.84175" lon="5.91913">
        <ele>1117</ele>
        <time>2017-12-15T21:08:08Z</time>
      </trkpt>
      <trkpt lat="44.84164" lon="5.91948">
        <ele>1099</ele>
        <time>2017-12-15T21:08:28Z</time>
      </trkpt>
      <trkpt lat="44.84162" lon="5.91966">
        <ele>1098</ele>
        <time>2017-12-15T21:08:33Z</time>
      </trkpt>
      <trkpt lat="44.84164" lon="5.91983">
        <ele>1100</ele>
        <time>2017-12-15T21:08:50Z</time>
      </trkpt>
      <trkpt lat="44.84169" lon="5.92">
        <ele>1108</ele>
        <time>2017-12-15T21:09:08Z</time>
      </trkpt>
      <trkpt lat="44.84179" lon="5.92019">
        <ele>1107</ele>
        <time>2017-12-15T21:09:24Z</time>
      </trkpt>
      <trkpt lat="44.84202" lon="5.92044">
        <ele>1106</ele>
        <time>2017-12-15T21:09:44Z</time>
      </trkpt>
      <trkpt lat="44.84246" lon="5.9207">
        <ele>1109</ele>
        <time>2017-12-15T21:10:02Z</time>
      </trkpt>
      <trkpt lat="44.84271" lon="5.92087">
        <ele>1110</ele>
        <time>2017-12-15T21:10:17Z</time>
      </trkpt>
      <trkpt lat="44.8429" lon="5.92104">
        <ele>1112</ele>
        <time>2017-12-15T21:10:24Z</time>
      </trkpt>
      <trkpt lat="44.84303" lon="5.9212">
        <ele>1112</ele>
        <time>2017-12-15T21:10:41Z</time>
      </trkpt>
      <trkpt lat="44.84313" lon="5.92137">
        <ele>1111</ele>
        <time>2017-12-15T21:10:43Z</time>
      </trkpt>
      <trkpt lat="44.84334" lon="5.92188">
        <ele>1119</ele>
        <time>2017-12-15T21:10:55Z</time>
      </trkpt>
      <trkpt lat="44.84343" lon="5.92212">
        <ele>1121</ele>
        <time>2017-12-15T21:10:58Z</time>
      </trkpt>
      <trkpt lat="44.84346" lon="5.92225">
        <ele>1120</ele>
        <time>2017-12-15T21:11:18Z</time>
      </trkpt>
      <trkpt lat="44.84344" lon="5.92237">
        <ele>1117</ele>
        <time>2017-12-15T21:11:36Z</time>
      </trkpt>
      <trkpt lat="44.8434" lon="5.92244">
        <ele>1114</ele>
        <time>2017-12-15T21:11:47Z</time>
      </trkpt>
      <trkpt lat="44.84332" lon="5.92247">
        <ele>1107</ele>
        <time>2017-12-15T21:11:54Z</time>
      </trkpt>
      <trkpt lat="44.84326" lon="5.92245">
        <ele>1106</ele>
        <time>2017-12-15T21:12:11Z</time>
      </trkpt>
      <trkpt lat="44.84317" lon="5.92234">
        <ele>1103</ele>
        <time>2017-12-15T21:12:15Z</time>
      </trkpt>
      <trkpt lat="44.84302" lon="5.92217">
        <ele>1100</ele>
        <time>2017-12-15T21:12:21Z</time>
      </trkpt>
      <trkpt lat="44.84291" lon="5.92212">
        <ele>1099</ele>
        <time>2017-12-15T21:12:27Z</time>
      </trkpt>
      <trkpt lat="44.8428" lon="5.92212">
        <ele>1098</ele>
        <time>2017-12-15T21:12:38Z</time>
      </trkpt>
      <trkpt lat="44.8427" lon="5.92215">
        <ele>1097</ele>
        <time>2017-12-15T21:12:56Z</time>
      </trkpt>
      <trkpt lat="44.8424" lon="5.92234">
        <ele>1087</ele>
        <time>2017-12-15T21:13:01Z</time>
      </trkpt>
      <trkpt lat="44.84207" lon="5.92261">
        <ele>1093</ele>
        <time>2017-12-15T21:13:07Z</time>
      </trkpt>
      <trkpt lat="44.84171" lon="5.92292">
        <ele>1093</ele>
        <time>2017-12-15T21:13:12Z</time>
      </trkpt>
      <trkpt lat="44.84144" lon="5.9233">
        <ele>1090</ele>
        <time>2017-12-15T21:13:26Z</time>
      </trkpt>
      <trkpt lat="44.84127" lon="5.92344">
        <ele>1099</ele>
        <time>2017-12-15T21:13:41Z</time>
      </trkpt>
      <trkpt lat="44.84114" lon="5.92352">
        <ele>1098</ele>
        <time>2017-12-15T21:13:54Z</time>
      </trkpt>
      <trkpt lat="44.84091" lon="5.92366">
        <ele>1098</ele>
        <time>2017-12-15T21:14:13Z</time>
      </trkpt>
      <trkpt lat="44.84078" lon="5.92372">
        <ele>1093</ele>
        <time>2017-12-15T21:14:21Z</time>
      </trkpt>
      <trkpt lat="44.84047" lon="5.9238">
        <ele>1093</ele>
        <time>2017-12-15T21:14:30Z</time>
      </trkpt>
      <trkpt lat="44.84003" lon="5.92399">
        <ele>1093</ele>
        <time>2017-12-15T21:14:46Z</time>
      </trkpt>
      <trkpt lat="44.83958" lon="5.92411">
        <ele>1081</ele>
        <time>2017-12-15T21:14:50Z</time>
      </trkpt>
      <trkpt lat="44.83838" lon="5.9246">
        <ele>1081</ele>
        <time>2017-12-15T21:15:02Z</time>
      </trkpt>
      <trkpt lat="44.83805" lon="5.92466">
        <ele>1075</ele>
        <time>2017-12-15T21:15:13Z</time>
      </trkpt>
      <trkpt lat="44.83773" lon="5.92461">
        <ele>1073</ele>
        <time>2017-12-15T21:15:30Z</time>
      </trkpt>
      <trkpt lat="44.83756" lon="5.92458">
        <ele>1072</ele>
        <time>2017-12-15T21:15:44Z</time>
      </trkpt>
      <trkpt lat="44.83743" lon="5.92458">
        <ele>1067</ele>
        <time>2017-12-15T21:15:55Z</time>
      </trkpt>
      <trkpt lat="44.83723" lon="5.92461">
        <ele>1067</ele>
        <time>2017-12-15T21:16:14Z</time>
      </trkpt>
      <trkpt lat="44.8371" lon="5.92463">
        <ele>1067</ele>
        <time>2017-12-15T21:16:32Z</time>
      </trkpt>
      <trkpt lat="44.83661" lon="5.92475">
        <ele>1061</ele>
        <time>2017-12-15T21:16:40Z</time>
      </trkpt>
      <trkpt lat="44.83625" lon="5.92486">
        <ele>1057</ele>
        <time>2017-12-15T21:16:55Z</time>
      </trkpt>
      <trkpt lat="44.83594" lon="5.92502">
        <ele>1062</ele>
        <time>2017-12-15T21:17:12Z</time>
      </trkpt>
      <trkpt lat="44.83582" lon="5.92511">
        <ele>1055</ele>
        <time>2017-12-15T21:17:27Z</time>
      </trkpt>
      <trkpt lat="44.83573" lon="5.92522">
        <ele>1055</ele>
        <time>2017-12-15T21:17:43Z</time>
      </trkpt>
      <trkpt lat="44.83564" lon="5.92543">
        <ele>1056</ele>
        <time>2017-12-15T21:17:51Z</time>
      </trkpt>
      <trkpt lat="44.83552" lon="5.92577">
        <ele>1059</ele>
        <time>2017-12-15T21:17:58Z</time>
      </trkpt>
      <trkpt lat="44.83543" lon="5.92591">
        <ele>1068</ele>
        <time>2017-12-15T21:18:08Z</time>
      </trkpt>
      <trkpt lat="44.83536" lon="5.92597">
        <ele>1067</ele>
        <time>2017-12-15T21:18:20Z</time>
      </trkpt>
      <trkpt lat="44.8353" lon="5.92599">
        <ele>1066</ele>
        <time>2017-12-15T21:18:33Z</time>
      </trkpt>
      <trkpt lat="44.8352" lon="5.92599">
        <ele>1064</ele>
        <time>2017-12-15T21:18:48Z</time>
      </trkpt>
      <trkpt lat="44.83509" lon="5.92593">
        <ele>1060</ele>
        <time>2017-12-15T21:18:58Z</time>
      </trkpt>
      <trkpt lat="44.83493" lon="5.92579">
        <ele>1048</ele>
        <time>2017-12-15T21:19:09Z</time>
      </trkpt>
      <trkpt lat="44.83481" lon="5.92572">
        <ele>1044</ele>
        <time>2017-12-15T21:19:20Z</time>
      </trkpt>
      <trkpt lat="44.83468" lon="5.92569">
        <ele>1041</ele>
        <time>2017-12-15T21:19:30Z</time>
      </trkpt>
      <trkpt lat="44.83453" lon="5.9257">
        <ele>1040</ele>
        <time>2017-12-15T21:19:42Z</time>
      </trkpt>
      <trkpt lat="44.83439" lon="5.92575">
        <ele>1039</ele>
        <time>2017-12-15T21:20:01Z</time>
      </trkpt>
      <trkpt lat="44.8341" lon="5.92593">
        <ele>1040</ele>
        <time>2017-12-15T21:20:18Z</time>
      </trkpt>
      <trkpt lat="44.83389" lon="5.92616">
        <ele>1040</ele>
        <time>2017-12-15T21:20:33Z</time>
      </trkpt>
      <trkpt lat="44.83328" lon="5.92696">
        <ele>1031</ele>
        <time>2017-12-15T21:20:47Z</time>
      </trkpt>
      <trkpt lat="44.83277" lon="5.9278">
        <ele>1034</ele>
        <time>2017-12-15T21:21:00Z</time>
      </trkpt>
      <trkpt lat="44.83259" lon="5.92816">
        <ele>1032</ele>
        <time>2017-12-15T21:21:12Z</time>
      </trkpt>
      <trkpt lat="44.83241" lon="5.92864">
        <ele>1018</ele>
        <time>2017-12-15T21:21:30Z</time>
      </trkpt>
      <trkpt lat="44.83233" lon="5.92897">
        <ele>1018</ele>
        <time>2017-12-15T21:21:37Z</time>
      </trkpt>
      <trkpt lat="44.8323" lon="5.92941">
        <ele>1016</ele>
        <time>2017-12-15T21:21:46Z</time>
      </trkpt>
      <trkpt lat="44.83231" lon="5.92962">
        <ele>1015</ele>
        <time>2017-12-15T21:21:52Z</time>
      </trkpt>
      <trkpt lat="44.83234" lon="5.92984">
        <ele>1017</ele>
        <time>2017-12-15T21:22:04Z</time>
      </trkpt>
      <trkpt lat="44.83249" lon="5.9303">
        <ele>1010</ele>
        <time>2017-12-15T21:22:18Z</time>
      </trkpt>
      <trkpt lat="44.83265" lon="5.93071">
        <ele>1022</ele>
        <time>2017-12-15T21:22:30Z</time>
      </trkpt>
      <trkpt lat="44.83275" lon="5.9309">
        <ele>1015</ele>
        <time>2017-12-15T21:22:50Z</time>
      </trkpt>
      <trkpt lat="44.83291" lon="5.93113">
        <ele>1018</ele>
        <time>2017-12-15T21:23:00Z</time>
      </trkpt>
      <trkpt lat="44.83306" lon="5.93134">
        <ele>1019</ele>
        <time>2017-12-15T21:23:16Z</time>
      </trkpt>
      <trkpt lat="44.83314" lon="5.93148">
        <ele>1020</ele>
        <time>2017-12-15T21:23:32Z</time>
      </trkpt>
      <trkpt lat="44.83321" lon="5.93169">
        <ele>1018</ele>
        <time>2017-12-15T21:23:43Z</time>
      </trkpt>
      <trkpt lat="44.83328" lon="5.932">
        <ele>1012</ele>
        <time>2017-12-15T21:23:58Z</time>
      </trkpt>
      <trkpt lat="44.8333" lon="5.93243">
        <ele>1015</ele>
        <time>2017-12-15T21:24:12Z</time>
      </trkpt>
      <trkpt lat="44.83323" lon="5.93303">
        <ele>1006</ele>
        <time>2017-12-15T21:24:18Z</time>
      </trkpt>
      <trkpt lat="44.83323" lon="5.93328">
        <ele>1009</ele>
        <time>2017-12-15T21:24:38Z</time>
      </trkpt>
      <trkpt lat="44.83325" lon="5.93344">
        <ele>1006</ele>
        <time>2017-12-15T21:24:54Z</time>
      </trkpt>
      <trkpt lat="44.83335" lon="5.9338">
        <ele>1018</ele>
        <time>2017-12-15T21:25:03Z</time>
      </trkpt>
      <trkpt lat="44.83354" lon="5.93423">
        <ele>1015</ele>
        <time>2017-12-15T21:25:06Z</time>
      </trkpt>
      <trkpt lat="44.83361" lon="5.9344">
        <ele>1019</ele>
        <time>2017-12-15T21:25:18Z</time>
      </trkpt>
      <trkpt lat="44.83363" lon="5.93453">
        <ele>1020</ele>
        <time>2017-12-15T21:25:31Z</time>
      </trkpt>
      <trkpt lat="44.83362" lon="5.93478">
        <ele>1020</ele>
        <time>2017-12-15T21:25:42Z</time>
      </trkpt>
      <trkpt lat="44.83354" lon="5.935">
        <ele>1017</ele>
        <time>2017-12-15T21:26:00Z</time>
      </trkpt>
      <trkpt lat="44.8328" lon="5.93608">
        <ele>1010</ele>
        <time>2017-12-15T21:26:12Z</time>
      </trkpt>
      <trkpt lat="44.83251" lon="5.93666">
        <ele>1005</ele>
        <time>2017-12-15T21:26:31Z</time>
      </trkpt>
      <trkpt lat="44.83246" lon="5.9368">
        <ele>1001</ele>
        <time>2017-12-15T21:26:37Z</time>
      </trkpt>
      <trkpt lat="44.83242" lon="5.93698">
        <ele>999</ele>
        <time>2017-12-15T21:26:47Z</time>
      </trkpt>
      <trkpt lat="44.83242" lon="5.93717">
        <ele>1000</ele>
        <time>2017-12-15T21:27:05Z</time>
      </trkpt>
      <trkpt lat="44.83249" lon="5.93755">
        <ele>1008</ele>
        <time>2017-12-15T21:27:19Z</time>
      </trkpt>
      <trkpt lat="44.83256" lon="5.93796">
        <ele>1012</ele>
        <time>2017-12-15T21:27:24Z</time>
      </trkpt>
      <trkpt lat="44.83262" lon="5.93814">
        <ele>1010</ele>
        <time>2017-12-15T21:27:40Z</time>
      </trkpt>
      <trkpt lat="44.83269" lon="5.93829">
        <ele>1009</ele>
        <time>2017-12-15T21:27:50Z</time>
      </trkpt>
      <trkpt lat="44.8328" lon="5.93839">
        <ele>1002</ele>
        <time>2017-12-15T21:28:01Z</time>
      </trkpt>
      <trkpt lat="44.83293" lon="5.93848">
        <ele>1003</ele>
        <time>2017-12-15T21:28:08Z</time>
      </trkpt>
      <trkpt lat="44.83318" lon="5.93862">
        <ele>1005</ele>
        <time>2017-12-15T21:28:14Z</time>
      </trkpt>
      <trkpt lat="44.83343" lon="5.9388">
        <ele>1015</ele>
        <time>2017-12-15T21:28:34Z</time>
      </trkpt>
      <trkpt lat="44.83401" lon="5.93926">
        <ele>1013</ele>
        <time>2017-12-15T21:28:46Z</time>
      </trkpt>
      <trkpt lat="44.83407" lon="5.93933">
        <ele>1013</ele>
        <time>2017-12-15T21:28:58Z</time>
      </trkpt>
      <trkpt lat="44.83411" lon="5.93944">
        <ele>1011</ele>
        <time>2017-12-15T21:29:08Z</time>
      </trkpt>
      <trkpt lat="44.8341" lon="5.93955">
        <ele>1010</ele>
        <time>2017-12-15T21:29:18Z</time>
      </trkpt>
      <trkpt lat="44.83406" lon="5.93961">
        <ele>1009</ele>
        <time>2017-12-15T21:29:26Z</time>
      </trkpt>
      <trkpt lat="44.83399" lon="5.93966">
        <ele>1008</ele>
        <time>2017-12-15T21:29:46Z</time>
      </trkpt>
      <trkpt lat="44.83375" lon="5.93974">
        <ele>1005</ele>
        <time>2017-12-15T21:30:01Z</time>
      </trkpt>
      <trkpt lat="44.83366" lon="5.93982">
        <ele>1004</ele>
        <time>2017-12-15T21:30:20Z</time>
      </trkpt>
      <trkpt lat="44.83356" lon="5.94">
        <ele>1002</ele>
        <time>2017-12-15T21:30:39Z</time>
      </trkpt>
      <trkpt lat="44.83336" lon="5.94024">
        <ele>1003</ele>
        <time>2017-12-15T21:30:48Z</time>
      </trkpt>
      <trkpt lat="44.83327" lon="5.9403">
        <ele>999</ele>
        <time>2017-12-15T21:30:57Z</time>
      </trkpt>
      <trkpt lat="44.83293" lon="5.94038">
        <ele>998</ele>
        <time>2017-12-15T21:31:15Z</time>
      </trkpt>
      <trkpt lat="44.83258" lon="5.94045">
        <ele>998</ele>
        <time>2017-12-15T21:31:23Z</time>
      </trkpt>
      <trkpt lat="44.83225" lon="5.94055">
        <ele>997</ele>
        <time>2017-12-15T21:31:27Z</time>
      </trkpt>
      <trkpt lat="44.83188" lon="5.94069">
        <ele>1000</ele>
        <time>2017-12-15T21:31:47Z</time>
      </trkpt>
      <trkpt lat="44.83175" lon="5.94072">
        <ele>1002</ele>
        <time>2017-12-15T21:31:55Z</time>
      </trkpt>
      <trkpt lat="44.83163" lon="5.94072">
        <ele>1007</ele>
        <time>2017-12-15T21:32:12Z</time>
      </trkpt>
      <trkpt lat="44.83151" lon="5.94065">
        <ele>1008</ele>
        <time>2017-12-15T21:32:14Z</time>
      </trkpt>
      <trkpt lat="44.83141" lon="5.94054">
        <ele>1008</ele>
        <time>2017-12-15T21:32:24Z</time>
      </trkpt>
      <trkpt lat="44.83118" lon="5.94027">
        <ele>1006</ele>
        <time>2017-12-15T21:32:26Z</time>
      </trkpt>
      <trkpt lat="44.8308" lon="5.93986">
        <ele>1000</ele>
        <time>2017-12-15T21:32:35Z</time>
      </trkpt>
      <trkpt lat="44.83027" lon="5.93932">
        <ele>999</ele>
        <time>2017-12-15T21:32:47Z</time>
      </trkpt>
      <trkpt lat="44.82999" lon="5.93889">
        <ele>996</ele>
        <time>2017-12-15T21:33:04Z</time>
      </trkpt>
      <trkpt lat="44.82984" lon="5.9386">
        <ele>992</ele>
        <time>2017-12-15T21:33:24Z</time>
      </trkpt>
      <trkpt lat="44.82964" lon="5.93807">
        <ele>983</ele>
        <time>2017-12-15T21:33:28Z</time>
      </trkpt>
      <trkpt lat="44.82938" lon="5.93731">
        <ele>974</ele>
        <time>2017-12-15T21:33:35Z</time>
      </trkpt>
      <trkpt lat="44.82929" lon="5.93671">
        <ele>972</ele>
        <time>2017-12-15T21:33:41Z</time>
      </trkpt>
      <trkpt lat="44.82926" lon="5.93622">
        <ele>966</ele>
        <time>2017-12-15T21:33:56Z</time>
      </trkpt>
      <trkpt lat="44.82932" lon="5.93566">
        <ele>964</ele>
        <time>2017-12-15T21:34:11Z</time>
      </trkpt>
      <trkpt lat="44.82934" lon="5.93548">
        <ele>960</ele>
        <time>2017-12-15T21:34:19Z</time>
      </trkpt>
      <trkpt lat="44.82934" lon="5.93532">
        <ele>959</ele>
        <time>2017-12-15T21:34:35Z</time>
      </trkpt>
      <trkpt lat="44.8293" lon="5.93517">
        <ele>958</ele>
        <time>2017-12-15T21:34:44Z</time>
      </trkpt>
      <trkpt lat="44.82923" lon="5.93506">
        <ele>960</ele>
        <time>2017-12-15T21:34:47Z</time>
      </trkpt>
      <trkpt lat="44.82913" lon="5.93497">
        <ele>959</ele>
        <time>2017-12-15T21:35:05Z</time>
      </trkpt>
      <trkpt lat="44.82901" lon="5.93491">
        <ele>955</ele>
        <time>2017-12-15T21:35:25Z</time>
      </trkpt>
      <trkpt lat="44.82883" lon="5.93487">
        <ele>953</ele>
        <time>2017-12-15T21:35:36Z</time>
      </trkpt>
      <trkpt lat="44.82847" lon="5.93488">
        <ele>955</ele>
        <time>2017-12-15T21:35:39Z</time>
      </trkpt>
      <trkpt lat="44.82806" lon="5.93499">
        <ele>947</ele>
        <time>2017-12-15T21:35:52Z</time>
      </trkpt>
      <trkpt lat="44.8279" lon="5.93509">
        <ele>954</ele>
        <time>2017-12-15T21:36:08Z</time>
      </trkpt>
      <trkpt lat="44.82782" lon="5.93522">
        <ele>953</ele>
        <time>2017-12-15T21:36:21Z</time>
      </trkpt>
      <trkpt lat="44.82777" lon="5.93536">
        <ele>953</ele>
        <time>2017-12-15T21:36:39Z</time>
      </trkpt>
      <trkpt lat="44.82774" lon="5.93616">
        <ele>959</ele>
        <time>2017-12-15T21:36:42Z</time>
      </trkpt>
      <trkpt lat="44.82773" lon="5.93657">
        <ele>957</ele>
        <time>2017-12-15T21:36:59Z</time>
      </trkpt>
      <trkpt lat="44.82777" lon="5.93712">
        <ele>956</ele>
        <time>2017-12-15T21:37:02Z</time>
      </trkpt>
      <trkpt lat="44.82778" lon="5.93787">
        <ele>953</ele>
        <time>2017-12-15T21:37:04Z</time>
      </trkpt>
      <trkpt lat="44.82773" lon="5.93911">
        <ele>947</ele>
        <time>2017-12-15T21:37:16Z</time>
      </trkpt>
      <trkpt lat="44.8277" lon="5.93934">
        <ele>950</ele>
        <time>2017-12-15T21:37:29Z</time>
      </trkpt>
      <trkpt lat="44.82763" lon="5.93957">
        <ele>951</ele>
        <time>2017-12-15T21:37:43Z</time>
      </trkpt>
      <trkpt lat="44.82713" lon="5.94078">
        <ele>936</ele>
        <time>2017-12-15T21:38:01Z</time>
      </trkpt>
      <trkpt lat="44.827" lon="5.94103">
        <ele>942</ele>
        <time>2017-12-15T21:38:05Z</time>
      </trkpt>
      <trkpt lat="44.82676" lon="5.94133">
        <ele>941</ele>
        <time>2017-12-15T21:38:09Z</time>
      </trkpt>
      <trkpt lat="44.82651" lon="5.94157">
        <ele>926</ele>
        <time>2017-12-15T21:38:23Z</time>
      </trkpt>
      <trkpt lat="44.82604" lon="5.94194">
        <ele>928</ele>
        <time>2017-12-15T21:38:32Z</time>
      </trkpt>
      <trkpt lat="44.8257" lon="5.94221">
        <ele>913</ele>
        <time>2017-12-15T21:38:50Z</time>
      </trkpt>
      <trkpt lat="44.82541" lon="5.94246">
        <ele>910</ele>
        <time>2017-12-15T21:38:57Z</time>
      </trkpt>
      <trkpt lat="44.82527" lon="5.94261">
        <ele>916</ele>
        <time>2017-12-15T21:39:07Z</time>
      </trkpt>
      <trkpt lat="44.82503" lon="5.943">
        <ele>917</ele>
        <time>2017-12-15T21:39:22Z</time>
      </trkpt>
      <trkpt lat="44.82492" lon="5.94337">
        <ele>908</ele>
        <time>2017-12-15T21:39:37Z</time>
      </trkpt>
      <trkpt lat="44.8249" lon="5.94351">
        <ele>904</ele>
        <time>2017-12-15T21:39:55Z</time>
      </trkpt>
      <trkpt lat="44.82493" lon="5.94378">
        <ele>901</ele>
        <time>2017-12-15T21:40:15Z</time>
      </trkpt>
      <trkpt lat="44.82495" lon="5.94404">
        <ele>904</ele>
        <time>2017-12-15T21:40:22Z</time>
      </trkpt>
      <trkpt lat="44.82492" lon="5.94438">
        <ele>903</ele>
        <time>2017-12-15T21:40:30Z</time>
      </trkpt>
      <trkpt lat="44.82486" lon="5.94464">
        <ele>901</ele>
        <time>2017-12-15T21:40:38Z</time>
      </trkpt>
      <trkpt lat="44.82481" lon="5.94477">
        <ele>902</ele>
        <time>2017-12-15T21:40:49Z</time>
      </trkpt>
      <trkpt lat="44.82469" lon="5.94495">
        <ele>901</ele>
        <time>2017-12-15T21:41:01Z</time>
      </trkpt>
      <trkpt lat="44.82452" lon="5.94512">
        <ele>901</ele>
        <time>2017-12-15T21:41:04Z</time>
      </trkpt>
      <trkpt lat="44.82431" lon="5.9455">
        <ele>901</ele>
        <time>2017-12-15T21:41:19Z</time>
      </trkpt>
      <trkpt lat="44.82404" lon="5.94603">
        <ele>894</ele>
        <time>2017-12-15T21:41:32Z</time>
      </trkpt>
      <trkpt lat="44.82349" lon="5.94719">
        <ele>896</ele>
        <time>2017-12-15T21:41:46Z</time>
      </trkpt>
      <trkpt lat="44.82326" lon="5.94773">
        <ele>889</ele>
        <time>2017-12-15T21:41:55Z</time>
      </trkpt>
      <trkpt lat="44.82317" lon="5.94808">
        <ele>888</ele>
        <time>2017-12-15T21:42:13Z</time>
      </trkpt>
      <trkpt lat="44.82314" lon="5.94835">
        <ele>890</ele>
        <time>2017-12-15T21:42:25Z</time>
      </trkpt>
      <trkpt lat="44.82307" lon="5.94856">
        <ele>889</ele>
        <time>2017-12-15T21:42:27Z</time>
      </trkpt>
      <trkpt lat="44.82297" lon="5.9487">
        <ele>888</ele>
        <time>2017-12-15T21:42:37Z</time>
      </trkpt>
      <trkpt lat="44.82295" lon="5.94987">
        <ele>889</ele>
        <time>2017-12-15T21:42:50Z</time>
      </trkpt>
      <trkpt lat="44.82299" lon="5.95104">
        <ele>893</ele>
        <time>2017-12-15T21:43:08Z</time>
      </trkpt>
      <trkpt lat="44.82305" lon="5.95161">
        <ele>894</ele>
        <time>2017-12-15T21:43:22Z</time>
      </trkpt>
      <trkpt lat="44.82313" lon="5.95205">
        <ele>896</ele>
        <time>2017-12-15T21:43:26Z</time>
      </trkpt>
      <trkpt lat="44.82315" lon="5.95224">
        <ele>896</ele>
        <time>2017-12-15T21:43:31Z</time>
      </trkpt>
      <trkpt lat="44.82313" lon="5.95236">
        <ele>896</ele>
        <time>2017-12-15T21:43:40Z</time>
      </trkpt>
      <trkpt lat="44.8231" lon="5.95245">
        <ele>896</ele>
        <time>2017-12-15T21:44:00Z</time>
      </trkpt>
      <trkpt lat="44.82304" lon="5.95254">
        <ele>900</ele>
        <time>2017-12-15T21:44:07Z</time>
      </trkpt>
      <trkpt lat="44.82298" lon="5.95261">
        <ele>901</ele>
        <time>2017-12-15T21:44:12Z</time>
      </trkpt>
      <trkpt lat="44.82292" lon="5.95263">
        <ele>901</ele>
        <time>2017-12-15T21:44:20Z</time>
      </trkpt>
      <trkpt lat="44.82281" lon="5.95264">
        <ele>902</ele>
        <time>2017-12-15T21:44:31Z</time>
      </trkpt>
      <trkpt lat="44.82273" lon="5.9526">
        <ele>903</ele>
        <time>2017-12-15T21:44:38Z</time>
      </trkpt>
      <trkpt lat="44.82265" lon="5.9525">
        <ele>900</ele>
        <time>2017-12-15T21:44:46Z</time>
      </trkpt>
      <trkpt lat="44.82255" lon="5.95229">
        <ele>899</ele>
        <time>2017-12-15T21:44:50Z</time>
      </trkpt>
      <trkpt lat="44.82229" lon="5.95131">
        <ele>910</ele>
        <time>2017-12-15T21:45:04Z</time>
      </trkpt>
      <trkpt lat="44.82217" lon="5.95096">
        <ele>911</ele>
        <time>2017-12-15T21:45:17Z</time>
      </trkpt>
      <trkpt lat="44.82179" lon="5.95015">
        <ele>910</ele>
        <time>2017-12-15T21:45:37Z</time>
      </trkpt>
      <trkpt lat="44.82159" lon="5.94983">
        <ele>921</ele>
        <time>2017-12-15T21:45:39Z</time>
      </trkpt>
      <trkpt lat="44.82127" lon="5.94937">
        <ele>925</ele>
        <time>2017-12-15T21:45:56Z</time>
      </trkpt>
      <trkpt lat="44.82102" lon="5.94894">
        <ele>919</ele>
        <time>2017-12-15T21:46:11Z</time>
      </trkpt>
      <trkpt lat="44.82085" lon="5.94847">
        <ele>916</ele>
        <time>2017-12-15T21:46:26Z</time>
      </trkpt>
      <trkpt lat="44.82071" lon="5.94796">
        <ele>923</ele>
        <time>2017-12-15T21:46:41Z</time>
      </trkpt>
      <trkpt lat="44.82047" lon="5.94724">
        <ele>922</ele>
        <time>2017-12-15T21:46:53Z</time>
      </trkpt>
      <trkpt lat="44.82017" lon="5.94635">
        <ele>923</ele>
        <time>2017-12-15T21:47:01Z</time>
      </trkpt>
      <trkpt lat="44.82012" lon="5.94626">
        <ele>923</ele>
        <time>2017-12-15T21:47:20Z</time>
      </trkpt>
      <trkpt lat="44.82009" lon="5.94623">
        <ele>923</ele>
        <time>2017-12-15T21:47:40Z</time>
      </trkpt>
      <trkpt lat="44.81982" lon="5.94625">
        <ele>932</ele>
        <time>2017-12-15T21:47:57Z</time>
      </trkpt>
      <trkpt lat="44.81981" lon="5.94625">
        <ele>932</ele>
        <time>2017-12-15T21:48:07Z</time>
      </trkpt>
      <trkpt lat="44.8198" lon="5.94624">
        <ele>932</ele>
        <time>2017-12-15T21:48:10Z</time>
      </trkpt>
      <trkpt lat="44.81977" lon="5.94624">
        <ele>932</ele>
        <time>2017-12-15T21:48:13Z</time>
      </trkpt>
      <trkpt lat="44.81974" lon="5.94628">
        <ele>932</ele>
        <time>2017-12-15T21:48:17Z</time>
      </trkpt>
      <trkpt lat="44.81973" lon="5.94635">
        <ele>933</ele>
        <time>2017-12-15T21:48:21Z</time>
      </trkpt>
      <trkpt lat="44.81971" lon="5.94692">
        <ele>935</ele>
        <time>2017-12-15T21:48:32Z</time>
      </trkpt>
      <trkpt lat="44.81969" lon="5.9471">
        <ele>936</ele>
        <time>2017-12-15T21:48:47Z</time>
      </trkpt>
      <trkpt lat="44.81965" lon="5.94722">
        <ele>936</ele>
        <time>2017-12-15T21:48:49Z</time>
      </trkpt>
      <trkpt lat="44.8195" lon="5.94747">
        <ele>937</ele>
        <time>2017-12-15T21:49:02Z</time>
      </trkpt>
      <trkpt lat="44.81935" lon="5.94768">
        <ele>940</ele>
        <time>2017-12-15T21:49:16Z</time>
      </trkpt>
      <trkpt lat="44.81927" lon="5.94773">
        <ele>940</ele>
        <time>2017-12-15T21:49:18Z</time>
      </trkpt>
      <trkpt lat="44.81917" lon="5.94775">
        <ele>941</ele>
        <time>2017-12-15T21:49:33Z</time>
      </trkpt>
      <trkpt lat="44.81906" lon="5.94773">
        <ele>944</ele>
        <time>2017-12-15T21:49:43Z</time>
      </trkpt>
      <trkpt lat="44.81875" lon="5.94757">
        <ele>944</ele>
        <time>2017-12-15T21:49:45Z</time>
      </trkpt>
      <trkpt lat="44.8181" lon="5.94736">
        <ele>941</ele>
        <time>2017-12-15T21:49:49Z</time>
      </trkpt>
      <trkpt lat="44.81802" lon="5.94737">
        <ele>940</ele>
        <time>2017-12-15T21:49:51Z</time>
      </trkpt>
      <trkpt lat="44.81797" lon="5.9474">
        <ele>940</ele>
        <time>2017-12-15T21:49:55Z</time>
      </trkpt>
      <trkpt lat="44.8179" lon="5.94751">
        <ele>943</ele>
        <time>2017-12-15T21:50:08Z</time>
      </trkpt>
      <trkpt lat="44.81776" lon="5.9479">
        <ele>943</ele>
        <time>2017-12-15T21:50:12Z</time>
      </trkpt>
      <trkpt lat="44.81767" lon="5.94823">
        <ele>943</ele>
        <time>2017-12-15T21:50:15Z</time>
      </trkpt>
      <trkpt lat="44.81764" lon="5.94849">
        <ele>947</ele>
        <time>2017-12-15T21:50:30Z</time>
      </trkpt>
      <trkpt lat="44.81761" lon="5.94856">
        <ele>948</ele>
        <time>2017-12-15T21:50:45Z</time>
      </trkpt>
      <trkpt lat="44.81756" lon="5.94862">
        <ele>948</ele>
        <time>2017-12-15T21:50:57Z</time>
      </trkpt>
      <trkpt lat="44.81748" lon="5.94866">
        <ele>949</ele>
        <time>2017-12-15T21:51:13Z</time>
      </trkpt>
      <trkpt lat="44.81743" lon="5.94864">
        <ele>949</ele>
        <time>2017-12-15T21:51:16Z</time>
      </trkpt>
      <trkpt lat="44.81735" lon="5.94857">
        <ele>949</ele>
        <time>2017-12-15T21:51:29Z</time>
      </trkpt>
      <trkpt lat="44.81729" lon="5.94845">
        <ele>948</ele>
        <time>2017-12-15T21:51:44Z</time>
      </trkpt>
      <trkpt lat="44.81723" lon="5.94815">
        <ele>943</ele>
        <time>2017-12-15T21:51:51Z</time>
      </trkpt>
      <trkpt lat="44.81712" lon="5.94776">
        <ele>942</ele>
        <time>2017-12-15T21:52:06Z</time>
      </trkpt>
      <trkpt lat="44.81703" lon="5.94763">
        <ele>942</ele>
        <time>2017-12-15T21:52:11Z</time>
      </trkpt>
      <trkpt lat="44.81688" lon="5.94749">
        <ele>939</ele>
        <time>2017-12-15T21:52:28Z</time>
      </trkpt>
      <trkpt lat="44.81675" lon="5.94742">
        <ele>939</ele>
        <time>2017-12-15T21:52:45Z</time>
      </trkpt>
      <trkpt lat="44.81648" lon="5.94737">
        <ele>939</ele>
        <time>2017-12-15T21:53:05Z</time>
      </trkpt>
      <trkpt lat="44.81519" lon="5.94721">
        <ele>938</ele>
        <time>2017-12-15T21:53:23Z</time>
      </trkpt>
      <trkpt lat="44.81482" lon="5.9472">
        <ele>931</ele>
        <time>2017-12-15T21:53:29Z</time>
      </trkpt>
      <trkpt lat="44.81469" lon="5.94721">
        <ele>930</ele>
        <time>2017-12-15T21:53:48Z</time>
      </trkpt>
      <trkpt lat="44.81459" lon="5.94725">
        <ele>929</ele>
        <time>2017-12-15T21:54:06Z</time>
      </trkpt>
      <trkpt lat="44.81446" lon="5.94733">
        <ele>929</ele>
        <time>2017-12-15T21:54:23Z</time>
      </trkpt>
      <trkpt lat="44.8141" lon="5.9477">
        <ele>934</ele>
        <time>2017-12-15T21:54:29Z</time>
      </trkpt>
      <trkpt lat="44.81382" lon="5.94789">
        <ele>935</ele>
        <time>2017-12-15T21:54:47Z</time>
      </trkpt>
      <trkpt lat="44.81351" lon="5.94799">
        <ele>934</ele>
        <time>2017-12-15T21:55:05Z</time>
      </trkpt>
      <trkpt lat="44.81321" lon="5.94818">
        <ele>924</ele>
        <time>2017-12-15T21:55:18Z</time>
      </trkpt>
      <trkpt lat="44.81307" lon="5.94831">
        <ele>920</ele>
        <time>2017-12-15T21:55:23Z</time>
      </trkpt>
      <trkpt lat="44.81293" lon="5.9485">
        <ele>936</ele>
        <time>2017-12-15T21:55:39Z</time>
      </trkpt>
      <trkpt lat="44.81256" lon="5.94902">
        <ele>938</ele>
        <time>2017-12-15T21:55:47Z</time>
      </trkpt>
      <trkpt lat="44.81224" lon="5.94947">
        <ele>946</ele>
        <time>2017-12-15T21:55:59Z</time>
      </trkpt>
      <trkpt lat="44.81215" lon="5.94954">
        <ele>947</ele>
        <time>2017-12-15T21:56:19Z</time>
      </trkpt>
      <trkpt lat="44.81205" lon="5.94957">
        <ele>947</ele>
        <time>2017-12-15T21:56:39Z</time>
      </trkpt>
      <trkpt lat="44.81187" lon="5.94956">
        <ele>945</ele>
        <time>2017-12-15T21:56:57Z</time>
      </trkpt>
      <trkpt lat="44.81146" lon="5.94944">
        <ele>935</ele>
        <time>2017-12-15T21:57:03Z</time>
      </trkpt>
      <trkpt lat="44.81113" lon="5.94939">
        <ele>931</ele>
        <time>2017-12-15T21:57:10Z</time>
      </trkpt>
      <trkpt lat="44.81104" lon="5.94941">
        <ele>931</ele>
        <time>2017-12-15T21:57:18Z</time>
      </trkpt>
      <trkpt lat="44.81082" lon="5.9496">
        <ele>921</ele>
        <time>2017-12-15T21:57:37Z</time>
      </trkpt>
      <trkpt lat="44.81023" lon="5.95058">
        <ele>949</ele>
        <time>2017-12-15T21:57:45Z</time>
      </trkpt>
      <trkpt lat="44.81008" lon="5.9507">
        <ele>952</ele>
        <time>2017-12-15T21:58:03Z</time>
      </trkpt>
      <trkpt lat="44.80987" lon="5.9507">
        <ele>946</ele>
        <time>2017-12-15T21:58:05Z</time>
      </trkpt>
      <trkpt lat="44.80924" lon="5.95053">
        <ele>941</ele>
        <time>2017-12-15T21:58:20Z</time>
      </trkpt>
      <trkpt lat="44.80903" lon="5.95049">
        <ele>929</ele>
        <time>2017-12-15T21:58:34Z</time>
      </trkpt>
      <trkpt lat="44.8089" lon="5.9505">
        <ele>928</ele>
        <time>2017-12-15T21:58:53Z</time>
      </trkpt>
      <trkpt lat="44.80876" lon="5.95053">
        <ele>926</ele>
        <time>2017-12-15T21:58:55Z</time>
      </trkpt>
      <trkpt lat="44.80861" lon="5.95061">
        <ele>925</ele>
        <time>2017-12-15T21:59:10Z</time>
      </trkpt>
      <trkpt lat="44.80847" lon="5.95075">
        <ele>927</ele>
        <time>2017-12-15T21:59:12Z</time>
      </trkpt>
      <trkpt lat="44.80838" lon="5.9509">
        <ele>938</ele>
        <time>2017-12-15T21:59:32Z</time>
      </trkpt>
      <trkpt lat="44.8081" lon="5.95134">
        <ele>926</ele>
        <time>2017-12-15T21:59:36Z</time>
      </trkpt>
      <trkpt lat="44.80767" lon="5.95185">
        <ele>935</ele>
        <time>2017-12-15T21:59:49Z</time>
      </trkpt>
      <trkpt lat="44.80722" lon="5.95235">
        <ele>912</ele>
        <time>2017-12-15T21:59:58Z</time>
      </trkpt>
      <trkpt lat="44.80706" lon="5.9526">
        <ele>920</ele>
        <time>2017-12-15T22:00:14Z</time>
      </trkpt>
      <trkpt lat="44.80693" lon="5.95314">
        <ele>920</ele>
        <time>2017-12-15T22:00:22Z</time>
      </trkpt>
      <trkpt lat="44.80678" lon="5.9539">
        <ele>933</ele>
        <time>2017-12-15T22:00:30Z</time>
      </trkpt>
      <trkpt lat="44.80673" lon="5.95408">
        <ele>929</ele>
        <time>2017-12-15T22:00:47Z</time>
      </trkpt>
      <trkpt lat="44.80665" lon="5.95427">
        <ele>928</ele>
        <time>2017-12-15T22:01:05Z</time>
      </trkpt>
      <trkpt lat="44.80661" lon="5.95432">
        <ele>929</ele>
        <time>2017-12-15T22:01:07Z</time>
      </trkpt>
      <trkpt lat="44.80654" lon="5.95435">
        <ele>930</ele>
        <time>2017-12-15T22:01:20Z</time>
      </trkpt>
      <trkpt lat="44.80609" lon="5.95436">
        <ele>927</ele>
        <time>2017-12-15T22:01:26Z</time>
      </trkpt>
      <trkpt lat="44.80594" lon="5.95438">
        <ele>925</ele>
        <time>2017-12-15T22:01:28Z</time>
      </trkpt>
      <trkpt lat="44.80582" lon="5.95444">
        <ele>912</ele>
        <time>2017-12-15T22:01:38Z</time>
      </trkpt>
      <trkpt lat="44.80561" lon="5.95459">
        <ele>913</ele>
        <time>2017-12-15T22:01:50Z</time>
      </trkpt>
      <trkpt lat="44.80545" lon="5.95479">
        <ele>913</ele>
        <time>2017-12-15T22:01:58Z</time>
      </trkpt>
      <trkpt lat="44.80538" lon="5.95502">
        <ele>925</ele>
        <time>2017-12-15T22:02:09Z</time>
      </trkpt>
      <trkpt lat="44.80539" lon="5.9552">
        <ele>926</ele>
        <time>2017-12-15T22:02:23Z</time>
      </trkpt>
      <trkpt lat="44.80542" lon="5.95538">
        <ele>928</ele>
        <time>2017-12-15T22:02:27Z</time>
      </trkpt>
      <trkpt lat="44.8055" lon="5.95562">
        <ele>932</ele>
        <time>2017-12-15T22:02:30Z</time>
      </trkpt>
      <trkpt lat="44.80556" lon="5.95596">
        <ele>947</ele>
        <time>2017-12-15T22:02:35Z</time>
      </trkpt>
      <trkpt lat="44.80551" lon="5.9562">
        <ele>949</ele>
        <time>2017-12-15T22:02:46Z</time>
      </trkpt>
      <trkpt lat="44.80538" lon="5.95636">
        <ele>949</ele>
        <time>2017-12-15T22:03:04Z</time>
      </trkpt>
      <trkpt lat="44.80517" lon="5.95648">
        <ele>948</ele>
        <time>2017-12-15T22:03:13Z</time>
      </trkpt>
      <trkpt lat="44.80434" lon="5.95667">
        <ele>945</ele>
        <time>2017-12-15T22:03:30Z</time>
      </trkpt>
      <trkpt lat="44.80416" lon="5.95675">
        <ele>936</ele>
        <time>2017-12-15T22:03:49Z</time>
      </trkpt>
      <trkpt lat="44.80399" lon="5.95689">
        <ele>935</ele>
        <time>2017-12-15T22:04:08Z</time>
      </trkpt>
      <trkpt lat="44.80377" lon="5.95719">
        <ele>936</ele>
        <time>2017-12-15T22:04:14Z</time>
      </trkpt>
      <trkpt lat="44.80354" lon="5.95778">
        <ele>950</ele>
        <time>2017-12-15T22:04:24Z</time>
      </trkpt>
      <trkpt lat="44.8033" lon="5.95856">
        <ele>938</ele>
        <time>2017-12-15T22:04:30Z</time>
      </trkpt>
      <trkpt lat="44.80322" lon="5.95897">
        <ele>940</ele>
        <time>2017-12-15T22:04:33Z</time>
      </trkpt>
      <trkpt lat="44.80319" lon="5.95931">
        <ele>946</ele>
        <time>2017-12-15T22:04:35Z</time>
      </trkpt>
      <trkpt lat="44.80318" lon="5.95963">
        <ele>944</ele>
        <time>2017-12-15T22:04:49Z</time>
      </trkpt>
      <trkpt lat="44.80321" lon="5.95996">
        <ele>952</ele>
        <time>2017-12-15T22:04:55Z</time>
      </trkpt>
      <trkpt lat="44.80319" lon="5.96024">
        <ele>952</ele>
        <time>2017-12-15T22:05:15Z</time>
      </trkpt>
      <trkpt lat="44.80305" lon="5.96123">
        <ele>958</ele>
        <time>2017-12-15T22:05:24Z</time>
      </trkpt>
      <trkpt lat="44.80298" lon="5.96151">
        <ele>958</ele>
        <time>2017-12-15T22:05:29Z</time>
      </trkpt>
      <trkpt lat="44.80289" lon="5.96175">
        <ele>964</ele>
        <time>2017-12-15T22:05:49Z</time>
      </trkpt>
      <trkpt lat="44.80245" lon="5.96252">
        <ele>951</ele>
        <time>2017-12-15T22:06:08Z</time>
      </trkpt>
      <trkpt lat="44.80241" lon="5.96258">
        <ele>949</ele>
        <time>2017-12-15T22:06:12Z</time>
      </trkpt>
      <trkpt lat="44.80231" lon="5.96272">
        <ele>946</ele>
        <time>2017-12-15T22:06:29Z</time>
      </trkpt>
      <trkpt lat="44.80214" lon="5.96291">
        <ele>944</ele>
        <time>2017-12-15T22:06:33Z</time>
      </trkpt>
      <trkpt lat="44.80194" lon="5.96317">
        <ele>941</ele>
        <time>2017-12-15T22:06:45Z</time>
      </trkpt>
      <trkpt lat="44.80182" lon="5.96342">
        <ele>943</ele>
        <time>2017-12-15T22:07:03Z</time>
      </trkpt>
      <trkpt lat="44.8017" lon="5.96385">
        <ele>944</ele>
        <time>2017-12-15T22:07:07Z</time>
      </trkpt>
      <trkpt lat="44.80165" lon="5.96411">
        <ele>932</ele>
        <time>2017-12-15T22:07:22Z</time>
      </trkpt>
      <trkpt lat="44.80165" lon="5.96442">
        <ele>927</ele>
        <time>2017-12-15T22:07:40Z</time>
      </trkpt>
      <trkpt lat="44.80169" lon="5.96494">
        <ele>934</ele>
        <time>2017-12-15T22:07:57Z</time>
      </trkpt>
      <trkpt lat="44.80168" lon="5.96513">
        <ele>936</ele>
        <time>2017-12-15T22:08:15Z</time>
      </trkpt>
      <trkpt lat="44.80155" lon="5.9656">
        <ele>924</ele>
        <time>2017-12-15T22:08:26Z</time>
      </trkpt>
      <trkpt lat="44.80099" lon="5.96733">
        <ele>915</ele>
        <time>2017-12-15T22:08:30Z</time>
      </trkpt>
      <trkpt lat="44.80081" lon="5.96786">
        <ele>909</ele>
        <time>2017-12-15T22:08:43Z</time>
      </trkpt>
      <trkpt lat="44.80069" lon="5.96811">
        <ele>910</ele>
        <time>2017-12-15T22:08:54Z</time>
      </trkpt>
      <trkpt lat="44.80056" lon="5.9683">
        <ele>910</ele>
        <time>2017-12-15T22:09:03Z</time>
      </trkpt>
      <trkpt lat="44.80038" lon="5.96868">
        <ele>910</ele>
        <time>2017-12-15T22:09:14Z</time>
      </trkpt>
      <trkpt lat="44.80023" lon="5.96893">
        <ele>909</ele>
        <time>2017-12-15T22:09:18Z</time>
      </trkpt>
      <trkpt lat="44.79972" lon="5.96959">
        <ele>903</ele>
        <time>2017-12-15T22:09:21Z</time>
      </trkpt>
      <trkpt lat="44.79949" lon="5.9699">
        <ele>903</ele>
        <time>2017-12-15T22:09:41Z</time>
      </trkpt>
      <trkpt lat="44.79935" lon="5.97016">
        <ele>904</ele>
        <time>2017-12-15T22:09:50Z</time>
      </trkpt>
      <trkpt lat="44.79925" lon="5.97049">
        <ele>904</ele>
        <time>2017-12-15T22:10:08Z</time>
      </trkpt>
      <trkpt lat="44.7992" lon="5.97079">
        <ele>900</ele>
        <time>2017-12-15T22:10:19Z</time>
      </trkpt>
      <trkpt lat="44.79921" lon="5.97116">
        <ele>902</ele>
        <time>2017-12-15T22:10:29Z</time>
      </trkpt>
      <trkpt lat="44.79923" lon="5.97136">
        <ele>902</ele>
        <time>2017-12-15T22:10:44Z</time>
      </trkpt>
      <trkpt lat="44.79977" lon="5.97266">
        <ele>898</ele>
        <time>2017-12-15T22:10:54Z</time>
      </trkpt>
      <trkpt lat="44.79986" lon="5.97295">
        <ele>898</ele>
        <time>2017-12-15T22:11:10Z</time>
      </trkpt>
      <trkpt lat="44.79988" lon="5.97312">
        <ele>898</ele>
        <time>2017-12-15T22:11:12Z</time>
      </trkpt>
      <trkpt lat="44.79991" lon="5.9734">
        <ele>900</ele>
        <time>2017-12-15T22:11:22Z</time>
      </trkpt>
      <trkpt lat="44.79991" lon="5.97372">
        <ele>896</ele>
        <time>2017-12-15T22:11:42Z</time>
      </trkpt>
      <trkpt lat="44.79989" lon="5.97403">
        <ele>898</ele>
        <time>2017-12-15T22:11:59Z</time>
      </trkpt>
      <trkpt lat="44.79982" lon="5.97427">
        <ele>898</ele>
        <time>2017-12-15T22:12:15Z</time>
      </trkpt>
      <trkpt lat="44.79956" lon="5.97468">
        <ele>895</ele>
        <time>2017-12-15T22:12:19Z</time>
      </trkpt>
      <trkpt lat="44.79938" lon="5.97482">
        <ele>893</ele>
        <time>2017-12-15T22:12:29Z</time>
      </trkpt>
      <trkpt lat="44.79919" lon="5.97488">
        <ele>891</ele>
        <time>2017-12-15T22:12:48Z</time>
      </trkpt>
      <trkpt lat="44.79894" lon="5.97489">
        <ele>885</ele>
        <time>2017-12-15T22:13:05Z</time>
      </trkpt>
      <trkpt lat="44.79879" lon="5.97482">
        <ele>884</ele>
        <time>2017-12-15T22:13:12Z</time>
      </trkpt>
      <trkpt lat="44.79853" lon="5.97462">
        <ele>882</ele>
        <time>2017-12-15T22:13:26Z</time>
      </trkpt>
      <trkpt lat="44.79836" lon="5.97452">
        <ele>882</ele>
        <time>2017-12-15T22:13:44Z</time>
      </trkpt>
      <trkpt lat="44.7982" lon="5.97452">
        <ele>873</ele>
        <time>2017-12-15T22:13:55Z</time>
      </trkpt>
      <trkpt lat="44.7981" lon="5.97457">
        <ele>873</ele>
        <time>2017-12-15T22:14:05Z</time>
      </trkpt>
      <trkpt lat="44.79802" lon="5.97469">
        <ele>872</ele>
        <time>2017-12-15T22:14:10Z</time>
      </trkpt>
      <trkpt lat="44.79797" lon="5.97492">
        <ele>872</ele>
        <time>2017-12-15T22:14:27Z</time>
      </trkpt>
      <trkpt lat="44.79801" lon="5.97547">
        <ele>871</ele>
        <time>2017-12-15T22:14:46Z</time>
      </trkpt>
      <trkpt lat="44.79807" lon="5.97595">
        <ele>871</ele>
        <time>2017-12-15T22:14:49Z</time>
      </trkpt>
      <trkpt lat="44.79812" lon="5.97644">
        <ele>871</ele>
        <time>2017-12-15T22:15:02Z</time>
      </trkpt>
      <trkpt lat="44.79806" lon="5.97673">
        <ele>873</ele>
        <time>2017-12-15T22:15:22Z</time>
      </trkpt>
      <trkpt lat="44.79788" lon="5.97714">
        <ele>870</ele>
        <time>2017-12-15T22:15:40Z</time>
      </trkpt>
      <trkpt lat="44.79771" lon="5.97736">
        <ele>867</ele>
        <time>2017-12-15T22:15:51Z</time>
      </trkpt>
      <trkpt lat="44.7975" lon="5.97756">
        <ele>859</ele>
        <time>2017-12-15T22:15:58Z</time>
      </trkpt>
      <trkpt lat="44.79709" lon="5.97787">
        <ele>859</ele>
        <time>2017-12-15T22:16:13Z</time>
      </trkpt>
      <trkpt lat="44.79693" lon="5.97796">
        <ele>859</ele>
        <time>2017-12-15T22:16:30Z</time>
      </trkpt>
      <trkpt lat="44.79678" lon="5.97801">
        <ele>859</ele>
        <time>2017-12-15T22:16:45Z</time>
      </trkpt>
      <trkpt lat="44.79661" lon="5.978">
        <ele>854</ele>
        <time>2017-12-15T22:16:51Z</time>
      </trkpt>
      <trkpt lat="44.79649" lon="5.97795">
        <ele>853</ele>
        <time>2017-12-15T22:16:57Z</time>
      </trkpt>
      <trkpt lat="44.79632" lon="5.97781">
        <ele>851</ele>
        <time>2017-12-15T22:17:05Z</time>
      </trkpt>
      <trkpt lat="44.79611" lon="5.97761">
        <ele>848</ele>
        <time>2017-12-15T22:17:19Z</time>
      </trkpt>
      <trkpt lat="44.79592" lon="5.97753">
        <ele>843</ele>
        <time>2017-12-15T22:17:39Z</time>
      </trkpt>
      <trkpt lat="44.79534" lon="5.9775">
        <ele>838</ele>
        <time>2017-12-15T22:17:50Z</time>
      </trkpt>
      <trkpt lat="44.79515" lon="5.97748">
        <ele>833</ele>
        <time>2017-12-15T22:18:04Z</time>
      </trkpt>
      <trkpt lat="44.79498" lon="5.97739">
        <ele>831</ele>
        <time>2017-12-15T22:18:12Z</time>
      </trkpt>
      <trkpt lat="44.79474" lon="5.97715">
        <ele>821</ele>
        <time>2017-12-15T22:18:27Z</time>
      </trkpt>
      <trkpt lat="44.79463" lon="5.97707">
        <ele>819</ele>
        <time>2017-12-15T22:18:30Z</time>
      </trkpt>
      <trkpt lat="44.79444" lon="5.97701">
        <ele>817</ele>
        <time>2017-12-15T22:18:36Z</time>
      </trkpt>
      <trkpt lat="44.79427" lon="5.97705">
        <ele>817</ele>
        <time>2017-12-15T22:18:43Z</time>
      </trkpt>
      <trkpt lat="44.79411" lon="5.97716">
        <ele>806</ele>
        <time>2017-12-15T22:18:47Z</time>
      </trkpt>
      <trkpt lat="44.79399" lon="5.97729">
        <ele>807</ele>
        <time>2017-12-15T22:19:07Z</time>
      </trkpt>
      <trkpt lat="44.7939" lon="5.97747">
        <ele>807</ele>
        <time>2017-12-15T22:19:18Z</time>
      </trkpt>
      <trkpt lat="44.79379" lon="5.97778">
        <ele>814</ele>
        <time>2017-12-15T22:19:20Z</time>
      </trkpt>
      <trkpt lat="44.79366" lon="5.97803">
        <ele>814</ele>
        <time>2017-12-15T22:19:39Z</time>
      </trkpt>
      <trkpt lat="44.79348" lon="5.97827">
        <ele>809</ele>
        <time>2017-12-15T22:19:58Z</time>
      </trkpt>
      <trkpt lat="44.79326" lon="5.97851">
        <ele>800</ele>
        <time>2017-12-15T22:20:04Z</time>
      </trkpt>
      <trkpt lat="44.79297" lon="5.97887">
        <ele>799</ele>
        <time>2017-12-15T22:20:24Z</time>
      </trkpt>
      <trkpt lat="44.79263" lon="5.97936">
        <ele>798</ele>
        <time>2017-12-15T22:20:43Z</time>
      </trkpt>
      <trkpt lat="44.79245" lon="5.97954">
        <ele>789</ele>
        <time>2017-12-15T22:20:54Z</time>
      </trkpt>
      <trkpt lat="44.79243" lon="5.97939">
        <ele>788</ele>
        <time>2017-12-15T22:21:00Z</time>
      </trkpt>
      <trkpt lat="44.79245" lon="5.97923">
        <ele>788</ele>
        <time>2017-12-15T22:21:11Z</time>
      </trkpt>
      <trkpt lat="44.79257" lon="5.97886">
        <ele>793</ele>
        <time>2017-12-15T22:21:17Z</time>
      </trkpt>
      <trkpt lat="44.79289" lon="5.97814">
        <ele>789</ele>
        <time>2017-12-15T22:21:30Z</time>
      </trkpt>
      <trkpt lat="44.79322" lon="5.97762">
        <ele>790</ele>
        <time>2017-12-15T22:21:48Z</time>
      </trkpt>
      <trkpt lat="44.79338" lon="5.97723">
        <ele>796</ele>
        <time>2017-12-15T22:22:07Z</time>
      </trkpt>
      <trkpt lat="44.79354" lon="5.9769">
        <ele>795</ele>
        <time>2017-12-15T22:22:11Z</time>
      </trkpt>
      <trkpt lat="44.79373" lon="5.97663">
        <ele>790</ele>
        <time>2017-12-15T22:22:16Z</time>
      </trkpt>
      <trkpt lat="44.79388" lon="5.97646">
        <ele>792</ele>
        <time>2017-12-15T22:22:19Z</time>
      </trkpt>
      <trkpt lat="44.79421" lon="5.97619">
        <ele>802</ele>
        <time>2017-12-15T22:22:27Z</time>
      </trkpt>
      <trkpt lat="44.7943" lon="5.97602">
        <ele>800</ele>
        <time>2017-12-15T22:22:35Z</time>
      </trkpt>
      <trkpt lat="44.7944" lon="5.97596">
        <ele>801</ele>
        <time>2017-12-15T22:22:49Z</time>
      </trkpt>
      <trkpt lat="44.7947" lon="5.97565">
        <ele>801</ele>
        <time>2017-12-15T22:23:02Z</time>
      </trkpt>
      <trkpt lat="44.79482" lon="5.97544">
        <ele>801</ele>
        <time>2017-12-15T22:23:08Z</time>
      </trkpt>
      <trkpt lat="44.79495" lon="5.97498">
        <ele>805</ele>
        <time>2017-12-15T22:23:19Z</time>
      </trkpt>
      <trkpt lat="44.79519" lon="5.97389">
        <ele>812</ele>
        <time>2017-12-15T22:23:36Z</time>
      </trkpt>
      <trkpt lat="44.79524" lon="5.97348">
        <ele>811</ele>
        <time>2017-12-15T22:23:42Z</time>
      </trkpt>
      <trkpt lat="44.79526" lon="5.97318">
        <ele>810</ele>
        <time>2017-12-15T22:23:56Z</time>
      </trkpt>
      <trkpt lat="44.79522" lon="5.97283">
        <ele>810</ele>
        <time>2017-12-15T22:24:07Z</time>
      </trkpt>
      <trkpt lat="44.79515" lon="5.97258">
        <ele>808</ele>
        <time>2017-12-15T22:24:18Z</time>
      </trkpt>
      <trkpt lat="44.79496" lon="5.97218">
        <ele>804</ele>
        <time>2017-12-15T22:24:35Z</time>
      </trkpt>
      <trkpt lat="44.79468" lon="5.97188">
        <ele>804</ele>
        <time>2017-12-15T22:24:37Z</time>
      </trkpt>
      <trkpt lat="44.79434" lon="5.97174">
        <ele>800</ele>
        <time>2017-12-15T22:24:46Z</time>
      </trkpt>
      <trkpt lat="44.79409" lon="5.97149">
        <ele>799</ele>
        <time>2017-12-15T22:24:52Z</time>
      </trkpt>
      <trkpt lat="44.79405" lon="5.97129">
        <ele>799</ele>
        <time>2017-12-15T22:24:57Z</time>
      </trkpt>
      <trkpt lat="44.79406" lon="5.97111">
        <ele>799</ele>
        <time>2017-12-15T22:24:59Z</time>
      </trkpt>
      <trkpt lat="44.79413" lon="5.9709">
        <ele>796</ele>
        <time>2017-12-15T22:25:17Z</time>
      </trkpt>
      <trkpt lat="44.79425" lon="5.97073">
        <ele>797</ele>
        <time>2017-12-15T22:25:34Z</time>
      </trkpt>
      <trkpt lat="44.79458" lon="5.97059">
        <ele>804</ele>
        <time>2017-12-15T22:25:41Z</time>
      </trkpt>
      <trkpt lat="44.79471" lon="5.97046">
        <ele>805</ele>
        <time>2017-12-15T22:25:50Z</time>
      </trkpt>
      <trkpt lat="44.79482" lon="5.97027">
        <ele>804</ele>
        <time>2017-12-15T22:26:02Z</time>
      </trkpt>
      <trkpt lat="44.79489" lon="5.97002">
        <ele>804</ele>
        <time>2017-12-15T22:26:12Z</time>
      </trkpt>
      <trkpt lat="44.79498" lon="5.96957">
        <ele>793</ele>
        <time>2017-12-15T22:26:23Z</time>
      </trkpt>
      <trkpt lat="44.79504" lon="5.9693">
        <ele>789</ele>
        <time>2017-12-15T22:26:41Z</time>
      </trkpt>
      <trkpt lat="44.79516" lon="5.96919">
        <ele>790</ele>
        <time>2017-12-15T22:26:48Z</time>
      </trkpt>
      <trkpt lat="44.79533" lon="5.96916">
        <ele>788</ele>
        <time>2017-12-15T22:26:58Z</time>
      </trkpt>
      <trkpt lat="44.79547" lon="5.96923">
        <ele>800</ele>
        <time>2017-12-15T22:27:05Z</time>
      </trkpt>
      <trkpt lat="44.79567" lon="5.9692">
        <ele>802</ele>
        <time>2017-12-15T22:27:07Z</time>
      </trkpt>
      <trkpt lat="44.79571" lon="5.9691">
        <ele>797</ele>
        <time>2017-12-15T22:27:23Z</time>
      </trkpt>
      <trkpt lat="44.79572" lon="5.969">
        <ele>795</ele>
        <time>2017-12-15T22:27:31Z</time>
      </trkpt>
      <trkpt lat="44.79562" lon="5.96881">
        <ele>793</ele>
        <time>2017-12-15T22:27:49Z</time>
      </trkpt>
      <trkpt lat="44.7953" lon="5.96835">
        <ele>786</ele>
        <time>2017-12-15T22:28:00Z</time>
      </trkpt>
      <trkpt lat="44.79521" lon="5.96828">
        <ele>781</ele>
        <time>2017-12-15T22:28:09Z</time>
      </trkpt>
      <trkpt lat="44.79507" lon="5.96829">
        <ele>777</ele>
        <time>2017-12-15T22:28:21Z</time>
      </trkpt>
      <trkpt lat="44.79488" lon="5.96836">
        <ele>779</ele>
        <time>2017-12-15T22:28:34Z</time>
      </trkpt>
      <trkpt lat="44.79476" lon="5.96837">
        <ele>783</ele>
        <time>2017-12-15T22:28:53Z</time>
      </trkpt>
      <trkpt lat="44.79467" lon="5.96836">
        <ele>785</ele>
        <time>2017-12-15T22:29:06Z</time>
      </trkpt>
      <trkpt lat="44.7945" lon="5.96829">
        <ele>788</ele>
        <time>2017-12-15T22:29:15Z</time>
      </trkpt>
      <trkpt lat="44.79436" lon="5.96817">
        <ele>790</ele>
        <time>2017-12-15T22:29:17Z</time>
      </trkpt>
      <trkpt lat="44.79427" lon="5.96809">
        <ele>791</ele>
        <time>2017-12-15T22:29:19Z</time>
      </trkpt>
      <trkpt lat="44.79423" lon="5.96795">
        <ele>790</ele>
        <time>2017-12-15T22:29:23Z</time>
      </trkpt>
      <trkpt lat="44.7943" lon="5.96755">
        <ele>792</ele>
        <time>2017-12-15T22:29:33Z</time>
      </trkpt>
      <trkpt lat="44.79426" lon="5.96712">
        <ele>789</ele>
        <time>2017-12-15T22:29:36Z</time>
      </trkpt>
      <trkpt lat="44.79433" lon="5.96678">
        <ele>791</ele>
        <time>2017-12-15T22:29:55Z</time>
      </trkpt>
      <trkpt lat="44.79432" lon="5.96659">
        <ele>794</ele>
        <time>2017-12-15T22:30:05Z</time>
      </trkpt>
      <trkpt lat="44.79425" lon="5.96642">
        <ele>793</ele>
        <time>2017-12-15T22:30:13Z</time>
      </trkpt>
      <trkpt lat="44.79422" lon="5.96637">
        <ele>793</ele>
        <time>2017-12-15T22:30:30Z</time>
      </trkpt>
      <trkpt lat="44.79422" lon="5.9663">
        <ele>793</ele>
        <time>2017-12-15T22:30:45Z</time>
      </trkpt>
      <trkpt lat="44.79429" lon="5.96617">
        <ele>793</ele>
        <time>2017-12-15T22:30:48Z</time>
      </trkpt>
      <trkpt lat="44.79437" lon="5.96595">
        <ele>795</ele>
        <time>2017-12-15T22:30:50Z</time>
      </trkpt>
      <trkpt lat="44.79456" lon="5.96529">
        <ele>795</ele>
        <time>2017-12-15T22:30:53Z</time>
      </trkpt>
      <trkpt lat="44.79473" lon="5.96423">
        <ele>797</ele>
        <time>2017-12-15T22:31:13Z</time>
      </trkpt>
      <trkpt lat="44.79479" lon="5.96373">
        <ele>801</ele>
        <time>2017-12-15T22:31:30Z</time>
      </trkpt>
      <trkpt lat="44.79478" lon="5.96258">
        <ele>803</ele>
        <time>2017-12-15T22:31:46Z</time>
      </trkpt>
      <trkpt lat="44.7948" lon="5.96195">
        <ele>805</ele>
        <time>2017-12-15T22:31:57Z</time>
      </trkpt>
      <trkpt lat="44.79487" lon="5.96148">
        <ele>801</ele>
        <time>2017-12-15T22:32:05Z</time>
      </trkpt>
      <trkpt lat="44.79498" lon="5.96076">
        <ele>798</ele>
        <time>2017-12-15T22:32:21Z</time>
      </trkpt>
      <trkpt lat="44.79496" lon="5.96058">
        <ele>802</ele>
        <time>2017-12-15T22:32:37Z</time>
      </trkpt>
      <trkpt lat="44.79484" lon="5.96039">
        <ele>805</ele>
        <time>2017-12-15T22:32:50Z</time>
      </trkpt>
      <trkpt lat="44.7947" lon="5.96007">
        <ele>807</ele>
        <time>2017-12-15T22:33:09Z</time>
      </trkpt>
      <trkpt lat="44.79471" lon="5.95992">
        <ele>816</ele>
        <time>2017-12-15T22:33:13Z</time>
      </trkpt>
      <trkpt lat="44.79476" lon="5.95979">
        <ele>816</ele>
        <time>2017-12-15T22:33:17Z</time>
      </trkpt>
      <trkpt lat="44.79486" lon="5.95962">
        <ele>818</ele>
        <time>2017-12-15T22:33:21Z</time>
      </trkpt>
      <trkpt lat="44.79504" lon="5.95952">
        <ele>802</ele>
        <time>2017-12-15T22:33:32Z</time>
      </trkpt>
      <trkpt lat="44.79521" lon="5.95944">
        <ele>802</ele>
        <time>2017-12-15T22:33:45Z</time>
      </trkpt>
      <trkpt lat="44.79532" lon="5.95932">
        <ele>801</ele>
        <time>2017-12-15T22:33:52Z</time>
      </trkpt>
      <trkpt lat="44.79541" lon="5.95895">
        <ele>818</ele>
        <time>2017-12-15T22:34:00Z</time>
      </trkpt>
      <trkpt lat="44.79549" lon="5.95874">
        <ele>820</ele>
        <time>2017-12-15T22:34:03Z</time>
      </trkpt>
      <trkpt lat="44.79559" lon="5.95861">
        <ele>822</ele>
        <time>2017-12-15T22:34:10Z</time>
      </trkpt>
      <trkpt lat="44.79584" lon="5.95839">
        <ele>822</ele>
        <time>2017-12-15T22:34:21Z</time>
      </trkpt>
      <trkpt lat="44.79604" lon="5.95828">
        <ele>835</ele>
        <time>2017-12-15T22:34:27Z</time>
      </trkpt>
      <trkpt lat="44.7963" lon="5.95822">
        <ele>835</ele>
        <time>2017-12-15T22:34:32Z</time>
      </trkpt>
      <trkpt lat="44.79661" lon="5.95822">
        <ele>826</ele>
        <time>2017-12-15T22:34:36Z</time>
      </trkpt>
      <trkpt lat="44.7972" lon="5.9583">
        <ele>826</ele>
        <time>2017-12-15T22:34:47Z</time>
      </trkpt>
      <trkpt lat="44.79733" lon="5.95839">
        <ele>808</ele>
        <time>2017-12-15T22:35:04Z</time>
      </trkpt>
      <trkpt lat="44.7975" lon="5.95862">
        <ele>804</ele>
        <time>2017-12-15T22:35:18Z</time>
      </trkpt>
      <trkpt lat="44.7976" lon="5.95869">
        <ele>799</ele>
        <time>2017-12-15T22:35:27Z</time>
      </trkpt>
      <trkpt lat="44.79768" lon="5.9587">
        <ele>798</ele>
        <time>2017-12-15T22:35:40Z</time>
      </trkpt>
      <trkpt lat="44.79775" lon="5.9587">
        <ele>797</ele>
        <time>2017-12-15T22:35:54Z</time>
      </trkpt>
      <trkpt lat="44.79784" lon="5.95864">
        <ele>798</ele>
        <time>2017-12-15T22:36:06Z</time>
      </trkpt>
      <trkpt lat="44.79793" lon="5.95854">
        <ele>798</ele>
        <time>2017-12-15T22:36:24Z</time>
      </trkpt>
      <trkpt lat="44.79804" lon="5.95816">
        <ele>813</ele>
        <time>2017-12-15T22:36:38Z</time>
      </trkpt>
      <trkpt lat="44.79818" lon="5.9576">
        <ele>814</ele>
        <time>2017-12-15T22:36:44Z</time>
      </trkpt>
      <trkpt lat="44.79821" lon="5.95745">
        <ele>818</ele>
        <time>2017-12-15T22:36:55Z</time>
      </trkpt>
      <trkpt lat="44.7982" lon="5.95726">
        <ele>822</ele>
        <time>2017-12-15T22:37:03Z</time>
      </trkpt>
      <trkpt lat="44.7981" lon="5.95666">
        <ele>826</ele>
        <time>2017-12-15T22:37:11Z</time>
      </trkpt>
      <trkpt lat="44.79807" lon="5.95644">
        <ele>829</ele>
        <time>2017-12-15T22:37:16Z</time>
      </trkpt>
      <trkpt lat="44.79801" lon="5.95625">
        <ele>831</ele>
        <time>2017-12-15T22:37:25Z</time>
      </trkpt>
      <trkpt lat="44.79794" lon="5.95609">
        <ele>833</ele>
        <time>2017-12-15T22:37:41Z</time>
      </trkpt>
      <trkpt lat="44.79792" lon="5.95592">
        <ele>833</ele>
        <time>2017-12-15T22:37:43Z</time>
      </trkpt>
      <trkpt lat="44.79788" lon="5.95561">
        <ele>832</ele>
        <time>2017-12-15T22:37:47Z</time>
      </trkpt>
      <trkpt lat="44.79782" lon="5.95535">
        <ele>833</ele>
        <time>2017-12-15T22:37:52Z</time>
      </trkpt>
      <trkpt lat="44.79776" lon="5.95507">
        <ele>837</ele>
        <time>2017-12-15T22:38:10Z</time>
      </trkpt>
      <trkpt lat="44.79776" lon="5.95488">
        <ele>832</ele>
        <time>2017-12-15T22:38:18Z</time>
      </trkpt>
      <trkpt lat="44.79771" lon="5.95432">
        <ele>831</ele>
        <time>2017-12-15T22:38:36Z</time>
      </trkpt>
      <trkpt lat="44.79764" lon="5.95398">
        <ele>829</ele>
        <time>2017-12-15T22:38:52Z</time>
      </trkpt>
      <trkpt lat="44.79749" lon="5.95373">
        <ele>864</ele>
        <time>2017-12-15T22:39:12Z</time>
      </trkpt>
      <trkpt lat="44.79742" lon="5.95339">
        <ele>854</ele>
        <time>2017-12-15T22:39:21Z</time>
      </trkpt>
      <trkpt lat="44.79751" lon="5.95306">
        <ele>831</ele>
        <time>2017-12-15T22:39:37Z</time>
      </trkpt>
      <trkpt lat="44.79758" lon="5.95287">
        <ele>831</ele>
        <time>2017-12-15T22:39:45Z</time>
      </trkpt>
      <trkpt lat="44.79765" lon="5.95242">
        <ele>845</ele>
        <time>2017-12-15T22:39:52Z</time>
      </trkpt>
      <trkpt lat="44.79778" lon="5.95165">
        <ele>856</ele>
        <time>2017-12-15T22:40:04Z</time>
      </trkpt>
      <trkpt lat="44.79781" lon="5.95142">
        <ele>855</ele>
        <time>2017-12-15T22:40:07Z</time>
      </trkpt>
      <trkpt lat="44.79789" lon="5.95123">
        <ele>854</ele>
        <time>2017-12-15T22:40:12Z</time>
      </trkpt>
      <trkpt lat="44.79798" lon="5.95104">
        <ele>853</ele>
        <time>2017-12-15T22:40:15Z</time>
      </trkpt>
      <trkpt lat="44.79806" lon="5.95076">
        <ele>863</ele>
        <time>2017-12-15T22:40:34Z</time>
      </trkpt>
      <trkpt lat="44.79822" lon="5.95035">
        <ele>868</ele>
        <time>2017-12-15T22:40:44Z</time>
      </trkpt>
      <trkpt lat="44.79842" lon="5.94987">
        <ele>852</ele>
        <time>2017-12-15T22:40:56Z</time>
      </trkpt>
      <trkpt lat="44.79856" lon="5.94935">
        <ele>856</ele>
        <time>2017-12-15T22:41:11Z</time>
      </trkpt>
      <trkpt lat="44.79867" lon="5.94912">
        <ele>872</ele>
        <time>2017-12-15T22:41:22Z</time>
      </trkpt>
      <trkpt lat="44.79876" lon="5.94898">
        <ele>870</ele>
        <time>2017-12-15T22:41:28Z</time>
      </trkpt>
      <trkpt lat="44.79901" lon="5.94841">
        <ele>869</ele>
        <time>2017-12-15T22:41:38Z</time>
      </trkpt>
      <trkpt lat="44.79925" lon="5.94791">
        <ele>848</ele>
        <time>2017-12-15T22:41:48Z</time>
      </trkpt>
      <trkpt lat="44.79946" lon="5.94753">
        <ele>848</ele>
        <time>2017-12-15T22:42:03Z</time>
      </trkpt>
      <trkpt lat="44.79945" lon="5.94738">
        <ele>850</ele>
        <time>2017-12-15T22:42:13Z</time>
      </trkpt>
      <trkpt lat="44.79937" lon="5.94722">
        <ele>850</ele>
        <time>2017-12-15T22:42:24Z</time>
      </trkpt>
      <trkpt lat="44.79926" lon="5.94707">
        <ele>850</ele>
        <time>2017-12-15T22:42:29Z</time>
      </trkpt>
      <trkpt lat="44.79908" lon="5.94688">
        <ele>875</ele>
        <time>2017-12-15T22:42:46Z</time>
      </trkpt>
      <trkpt lat="44.79856" lon="5.94643">
        <ele>881</ele>
        <time>2017-12-15T22:42:52Z</time>
      </trkpt>
      <trkpt lat="44.79816" lon="5.94603">
        <ele>903</ele>
        <time>2017-12-15T22:43:04Z</time>
      </trkpt>
      <trkpt lat="44.79805" lon="5.94593">
        <ele>905</ele>
        <time>2017-12-15T22:43:14Z</time>
      </trkpt>
      <trkpt lat="44.79801" lon="5.94582">
        <ele>902</ele>
        <time>2017-12-15T22:43:17Z</time>
      </trkpt>
      <trkpt lat="44.79801" lon="5.94561">
        <ele>904</ele>
        <time>2017-12-15T22:43:22Z</time>
      </trkpt>
      <trkpt lat="44.79802" lon="5.94553">
        <ele>905</ele>
        <time>2017-12-15T22:43:39Z</time>
      </trkpt>
      <trkpt lat="44.79807" lon="5.94544">
        <ele>905</ele>
        <time>2017-12-15T22:43:55Z</time>
      </trkpt>
      <trkpt lat="44.79828" lon="5.94532">
        <ele>904</ele>
        <time>2017-12-15T22:44:15Z</time>
      </trkpt>
      <trkpt lat="44.79837" lon="5.94522">
        <ele>891</ele>
        <time>2017-12-15T22:44:20Z</time>
      </trkpt>
      <trkpt lat="44.7985" lon="5.945">
        <ele>894</ele>
        <time>2017-12-15T22:44:31Z</time>
      </trkpt>
      <trkpt lat="44.79862" lon="5.94491">
        <ele>911</ele>
        <time>2017-12-15T22:44:46Z</time>
      </trkpt>
      <trkpt lat="44.79874" lon="5.94486">
        <ele>911</ele>
        <time>2017-12-15T22:45:05Z</time>
      </trkpt>
      <trkpt lat="44.79912" lon="5.94481">
        <ele>902</ele>
        <time>2017-12-15T22:45:10Z</time>
      </trkpt>
      <trkpt lat="44.79934" lon="5.94468">
        <ele>903</ele>
        <time>2017-12-15T22:45:21Z</time>
      </trkpt>
      <trkpt lat="44.79978" lon="5.94463">
        <ele>905</ele>
        <time>2017-12-15T22:45:38Z</time>
      </trkpt>
      <trkpt lat="44.79991" lon="5.94463">
        <ele>904</ele>
        <time>2017-12-15T22:45:58Z</time>
      </trkpt>
      <trkpt lat="44.8003" lon="5.9447">
        <ele>904</ele>
        <time>2017-12-15T22:46:17Z</time>
      </trkpt>
      <trkpt lat="44.80076" lon="5.94474">
        <ele>904</ele>
        <time>2017-12-15T22:46:23Z</time>
      </trkpt>
      <trkpt lat="44.80094" lon="5.94481">
        <ele>903</ele>
        <time>2017-12-15T22:46:41Z</time>
      </trkpt>
      <trkpt lat="44.80111" lon="5.94483">
        <ele>905</ele>
        <time>2017-12-15T22:46:46Z</time>
      </trkpt>
      <trkpt lat="44.80128" lon="5.94482">
        <ele>906</ele>
        <time>2017-12-15T22:46:58Z</time>
      </trkpt>
      <trkpt lat="44.80141" lon="5.94478">
        <ele>906</ele>
        <time>2017-12-15T22:47:13Z</time>
      </trkpt>
      <trkpt lat="44.80181" lon="5.94471">
        <ele>901</ele>
        <time>2017-12-15T22:47:17Z</time>
      </trkpt>
      <trkpt lat="44.80202" lon="5.94467">
        <ele>901</ele>
        <time>2017-12-15T22:47:31Z</time>
      </trkpt>
      <trkpt lat="44.80216" lon="5.9446">
        <ele>901</ele>
        <time>2017-12-15T22:47:45Z</time>
      </trkpt>
      <trkpt lat="44.8023" lon="5.94445">
        <ele>902</ele>
        <time>2017-12-15T22:47:48Z</time>
      </trkpt>
      <trkpt lat="44.80238" lon="5.9443">
        <ele>903</ele>
        <time>2017-12-15T22:47:53Z</time>
      </trkpt>
      <trkpt lat="44.8025" lon="5.94405">
        <ele>899</ele>
        <time>2017-12-15T22:48:08Z</time>
      </trkpt>
      <trkpt lat="44.8026" lon="5.94359">
        <ele>900</ele>
        <time>2017-12-15T22:48:20Z</time>
      </trkpt>
      <trkpt lat="44.80263" lon="5.94336">
        <ele>907</ele>
        <time>2017-12-15T22:48:26Z</time>
      </trkpt>
      <trkpt lat="44.80253" lon="5.94213">
        <ele>908</ele>
        <time>2017-12-15T22:48:33Z</time>
      </trkpt>
      <trkpt lat="44.80248" lon="5.94169">
        <ele>923</ele>
        <time>2017-12-15T22:48:53Z</time>
      </trkpt>
      <trkpt lat="44.80252" lon="5.9414">
        <ele>915</ele>
        <time>2017-12-15T22:48:59Z</time>
      </trkpt>
      <trkpt lat="44.80263" lon="5.94105">
        <ele>915</ele>
        <time>2017-12-15T22:49:05Z</time>
      </trkpt>
      <trkpt lat="44.8026" lon="5.94085">
        <ele>919</ele>
        <time>2017-12-15T22:49:16Z</time>
      </trkpt>
      <trkpt lat="44.80257" lon="5.94075">
        <ele>920</ele>
        <time>2017-12-15T22:49:26Z</time>
      </trkpt>
      <trkpt lat="44.80226" lon="5.93973">
        <ele>925</ele>
        <time>2017-12-15T22:49:46Z</time>
      </trkpt>
      <trkpt lat="44.80226" lon="5.93947">
        <ele>925</ele>
        <time>2017-12-15T22:50:03Z</time>
      </trkpt>
      <trkpt lat="44.80235" lon="5.93876">
        <ele>925</ele>
        <time>2017-12-15T22:50:11Z</time>
      </trkpt>
      <trkpt lat="44.80254" lon="5.93808">
        <ele>921</ele>
        <time>2017-12-15T22:50:15Z</time>
      </trkpt>
      <trkpt lat="44.80349" lon="5.93486">
        <ele>922</ele>
        <time>2017-12-15T22:50:28Z</time>
      </trkpt>
      <trkpt lat="44.80354" lon="5.93474">
        <ele>922</ele>
        <time>2017-12-15T22:50:45Z</time>
      </trkpt>
      <trkpt lat="44.80366" lon="5.93467">
        <ele>921</ele>
        <time>2017-12-15T22:50:53Z</time>
      </trkpt>
      <trkpt lat="44.80382" lon="5.93458">
        <ele>921</ele>
        <time>2017-12-15T22:51:01Z</time>
      </trkpt>
      <trkpt lat="44.8039" lon="5.93449">
        <ele>921</ele>
        <time>2017-12-15T22:51:11Z</time>
      </trkpt>
      <trkpt lat="44.804" lon="5.93428">
        <ele>920</ele>
        <time>2017-12-15T22:51:21Z</time>
      </trkpt>
      <trkpt lat="44.80432" lon="5.93359">
        <ele>912</ele>
        <time>2017-12-15T22:51:28Z</time>
      </trkpt>
      <trkpt lat="44.80448" lon="5.933">
        <ele>910</ele>
        <time>2017-12-15T22:51:37Z</time>
      </trkpt>
      <trkpt lat="44.80469" lon="5.93253">
        <ele>908</ele>
        <time>2017-12-15T22:51:44Z</time>
      </trkpt>
      <trkpt lat="44.80503" lon="5.93166">
        <ele>906</ele>
        <time>2017-12-15T22:52:01Z</time>
      </trkpt>
      <trkpt lat="44.80519" lon="5.93129">
        <ele>902</ele>
        <time>2017-12-15T22:52:15Z</time>
      </trkpt>
      <trkpt lat="44.80537" lon="5.93097">
        <ele>902</ele>
        <time>2017-12-15T22:52:32Z</time>
      </trkpt>
      <trkpt lat="44.80546" lon="5.93078">
        <ele>905</ele>
        <time>2017-12-15T22:52:49Z</time>
      </trkpt>
      <trkpt lat="44.80548" lon="5.93066">
        <ele>905</ele>
        <time>2017-12-15T22:53:08Z</time>
      </trkpt>
      <trkpt lat="44.80542" lon="5.93032">
        <ele>906</ele>
        <time>2017-12-15T22:53:26Z</time>
      </trkpt>
      <trkpt lat="44.80537" lon="5.93025">
        <ele>906</ele>
        <time>2017-12-15T22:53:30Z</time>
      </trkpt>
      <trkpt lat="44.80531" lon="5.93023">
        <ele>906</ele>
        <time>2017-12-15T22:53:44Z</time>
      </trkpt>
      <trkpt lat="44.80508" lon="5.93019">
        <ele>906</ele>
        <time>2017-12-15T22:53:50Z</time>
      </trkpt>
      <trkpt lat="44.805" lon="5.93015">
        <ele>908</ele>
        <time>2017-12-15T22:53:58Z</time>
      </trkpt>
      <trkpt lat="44.80494" lon="5.93004">
        <ele>907</ele>
        <time>2017-12-15T22:54:14Z</time>
      </trkpt>
      <trkpt lat="44.80486" lon="5.9297">
        <ele>904</ele>
        <time>2017-12-15T22:54:23Z</time>
      </trkpt>
      <trkpt lat="44.80477" lon="5.92915">
        <ele>893</ele>
        <time>2017-12-15T22:54:26Z</time>
      </trkpt>
      <trkpt lat="44.8047" lon="5.92897">
        <ele>892</ele>
        <time>2017-12-15T22:54:45Z</time>
      </trkpt>
      <trkpt lat="44.80451" lon="5.92888">
        <ele>893</ele>
        <time>2017-12-15T22:54:54Z</time>
      </trkpt>
      <trkpt lat="44.80436" lon="5.92885">
        <ele>894</ele>
        <time>2017-12-15T22:55:07Z</time>
      </trkpt>
      <trkpt lat="44.80396" lon="5.92886">
        <ele>892</ele>
        <time>2017-12-15T22:55:17Z</time>
      </trkpt>
      <trkpt lat="44.8038" lon="5.9289">
        <ele>891</ele>
        <time>2017-12-15T22:55:29Z</time>
      </trkpt>
      <trkpt lat="44.80373" lon="5.92894">
        <ele>891</ele>
        <time>2017-12-15T22:55:31Z</time>
      </trkpt>
      <trkpt lat="44.80362" lon="5.92907">
        <ele>891</ele>
        <time>2017-12-15T22:55:37Z</time>
      </trkpt>
      <trkpt lat="44.80353" lon="5.92929">
        <ele>900</ele>
        <time>2017-12-15T22:55:44Z</time>
      </trkpt>
      <trkpt lat="44.80341" lon="5.92978">
        <ele>905</ele>
        <time>2017-12-15T22:55:58Z</time>
      </trkpt>
      <trkpt lat="44.80328" lon="5.9301">
        <ele>907</ele>
        <time>2017-12-15T22:56:01Z</time>
      </trkpt>
      <trkpt lat="44.80304" lon="5.93047">
        <ele>908</ele>
        <time>2017-12-15T22:56:09Z</time>
      </trkpt>
      <trkpt lat="44.80295" lon="5.93059">
        <ele>908</ele>
        <time>2017-12-15T22:56:27Z</time>
      </trkpt>
      <trkpt lat="44.80285" lon="5.93068">
        <ele>908</ele>
        <time>2017-12-15T22:56:39Z</time>
      </trkpt>
      <trkpt lat="44.80268" lon="5.9308">
        <ele>909</ele>
        <time>2017-12-15T22:56:45Z</time>
      </trkpt>
      <trkpt lat="44.80251" lon="5.93088">
        <ele>912</ele>
        <time>2017-12-15T22:56:54Z</time>
      </trkpt>
      <trkpt lat="44.80232" lon="5.93093">
        <ele>914</ele>
        <time>2017-12-15T22:57:14Z</time>
      </trkpt>
      <trkpt lat="44.80204" lon="5.93096">
        <ele>914</ele>
        <time>2017-12-15T22:57:24Z</time>
      </trkpt>
      <trkpt lat="44.80166" lon="5.93098">
        <ele>913</ele>
        <time>2017-12-15T22:57:35Z</time>
      </trkpt>
      <trkpt lat="44.80155" lon="5.93096">
        <ele>914</ele>
        <time>2017-12-15T22:57:55Z</time>
      </trkpt>
      <trkpt lat="44.8013" lon="5.93083">
        <ele>906</ele>
        <time>2017-12-15T22:57:58Z</time>
      </trkpt>
      <trkpt lat="44.80079" lon="5.93064">
        <ele>916</ele>
        <time>2017-12-15T22:58:17Z</time>
      </trkpt>
      <trkpt lat="44.80047" lon="5.93054">
        <ele>914</ele>
        <time>2017-12-15T22:58:24Z</time>
      </trkpt>
      <trkpt lat="44.80014" lon="5.9304">
        <ele>914</ele>
        <time>2017-12-15T22:58:28Z</time>
      </trkpt>
      <trkpt lat="44.79951" lon="5.93013">
        <ele>920</ele>
        <time>2017-12-15T22:58:38Z</time>
      </trkpt>
      <trkpt lat="44.79901" lon="5.9299">
        <ele>915</ele>
        <time>2017-12-15T22:58:47Z</time>
      </trkpt>
      <trkpt lat="44.79836" lon="5.92967">
        <ele>915</ele>
        <time>2017-12-15T22:59:07Z</time>
      </trkpt>
      <trkpt lat="44.79801" lon="5.92957">
        <ele>921</ele>
        <time>2017-12-15T22:59:18Z</time>
      </trkpt>
      <trkpt lat="44.79758" lon="5.92936">
        <ele>920</ele>
        <time>2017-12-15T22:59:37Z</time>
      </trkpt>
      <trkpt lat="44.79718" lon="5.92915">
        <ele>918</ele>
        <time>2017-12-15T22:59:51Z</time>
      </trkpt>
      <trkpt lat="44.79668" lon="5.92865">
        <ele>918</ele>
        <time>2017-12-15T23:00:01Z</time>
      </trkpt>
      <trkpt lat="44.79642" lon="5.92842">
        <ele>927</ele>
        <time>2017-12-15T23:00:17Z</time>
      </trkpt>
      <trkpt lat="44.79606" lon="5.92816">
        <ele>919</ele>
        <time>2017-12-15T23:00:35Z</time>
      </trkpt>
      <trkpt lat="44.79549" lon="5.9278">
        <ele>924</ele>
        <time>2017-12-15T23:00:45Z</time>
      </trkpt>
      <trkpt lat="44.79515" lon="5.92767">
        <ele>923</ele>
        <time>2017-12-15T23:01:04Z</time>
      </trkpt>
      <trkpt lat="44.79489" lon="5.92766">
        <ele>927</ele>
        <time>2017-12-15T23:01:16Z</time>
      </trkpt>
      <trkpt lat="44.79451" lon="5.92771">
        <ele>931</ele>
        <time>2017-12-15T23:01:19Z</time>
      </trkpt>
      <trkpt lat="44.79431" lon="5.92772">
        <ele>930</ele>
        <time>2017-12-15T23:01:23Z</time>
      </trkpt>
      <trkpt lat="44.79403" lon="5.9278">
        <ele>934</ele>
        <time>2017-12-15T23:01:43Z</time>
      </trkpt>
      <trkpt lat="44.79353" lon="5.92781">
        <ele>934</ele>
        <time>2017-12-15T23:01:45Z</time>
      </trkpt>
      <trkpt lat="44.79323" lon="5.92782">
        <ele>937</ele>
        <time>2017-12-15T23:02:00Z</time>
      </trkpt>
      <trkpt lat="44.79298" lon="5.9279">
        <ele>940</ele>
        <time>2017-12-15T23:02:14Z</time>
      </trkpt>
      <trkpt lat="44.79288" lon="5.9279">
        <ele>941</ele>
        <time>2017-12-15T23:02:24Z</time>
      </trkpt>
      <trkpt lat="44.79279" lon="5.92785">
        <ele>940</ele>
        <time>2017-12-15T23:02:32Z</time>
      </trkpt>
      <trkpt lat="44.79254" lon="5.92769">
        <ele>936</ele>
        <time>2017-12-15T23:02:38Z</time>
      </trkpt>
      <trkpt lat="44.79234" lon="5.92761">
        <ele>942</ele>
        <time>2017-12-15T23:02:45Z</time>
      </trkpt>
      <trkpt lat="44.79211" lon="5.92747">
        <ele>926</ele>
        <time>2017-12-15T23:03:03Z</time>
      </trkpt>
      <trkpt lat="44.79188" lon="5.92736">
        <ele>929</ele>
        <time>2017-12-15T23:03:08Z</time>
      </trkpt>
      <trkpt lat="44.79165" lon="5.92733">
        <ele>935</ele>
        <time>2017-12-15T23:03:27Z</time>
      </trkpt>
      <trkpt lat="44.79095" lon="5.92726">
        <ele>933</ele>
        <time>2017-12-15T23:03:34Z</time>
      </trkpt>
      <trkpt lat="44.79037" lon="5.92718">
        <ele>933</ele>
        <time>2017-12-15T23:03:50Z</time>
      </trkpt>
      <trkpt lat="44.79011" lon="5.92717">
        <ele>934</ele>
        <time>2017-12-15T23:04:00Z</time>
      </trkpt>
      <trkpt lat="44.78998" lon="5.92721">
        <ele>935</ele>
        <time>2017-12-15T23:04:03Z</time>
      </trkpt>
      <trkpt lat="44.78987" lon="5.9272">
        <ele>934</ele>
        <time>2017-12-15T23:04:20Z</time>
      </trkpt>
      <trkpt lat="44.78975" lon="5.92714">
        <ele>931</ele>
        <time>2017-12-15T23:04:25Z</time>
      </trkpt>
      <trkpt lat="44.78961" lon="5.92713">
        <ele>930</ele>
        <time>2017-12-15T23:04:35Z</time>
      </trkpt>
      <trkpt lat="44.78939" lon="5.92721">
        <ele>931</ele>
        <time>2017-12-15T23:04:39Z</time>
      </trkpt>
      <trkpt lat="44.78926" lon="5.92728">
        <ele>933</ele>
        <time>2017-12-15T23:04:57Z</time>
      </trkpt>
      <trkpt lat="44.78904" lon="5.92734">
        <ele>928</ele>
        <time>2017-12-15T23:05:15Z</time>
      </trkpt>
      <trkpt lat="44.78892" lon="5.92743">
        <ele>927</ele>
        <time>2017-12-15T23:05:24Z</time>
      </trkpt>
      <trkpt lat="44.78876" lon="5.9277">
        <ele>947</ele>
        <time>2017-12-15T23:05:27Z</time>
      </trkpt>
      <trkpt lat="44.78866" lon="5.9278">
        <ele>948</ele>
        <time>2017-12-15T23:05:45Z</time>
      </trkpt>
      <trkpt lat="44.78848" lon="5.9279">
        <ele>949</ele>
        <time>2017-12-15T23:05:54Z</time>
      </trkpt>
      <trkpt lat="44.78824" lon="5.9281">
        <ele>955</ele>
        <time>2017-12-15T23:06:03Z</time>
      </trkpt>
      <trkpt lat="44.78814" lon="5.92819">
        <ele>957</ele>
        <time>2017-12-15T23:06:05Z</time>
      </trkpt>
      <trkpt lat="44.78804" lon="5.92822">
        <ele>957</ele>
        <time>2017-12-15T23:06:14Z</time>
      </trkpt>
      <trkpt lat="44.78787" lon="5.92821">
        <ele>958</ele>
        <time>2017-12-15T23:06:20Z</time>
      </trkpt>
      <trkpt lat="44.78775" lon="5.92816">
        <ele>960</ele>
        <time>2017-12-15T23:06:34Z</time>
      </trkpt>
      <trkpt lat="44.7877" lon="5.9281">
        <ele>959</ele>
        <time>2017-12-15T23:06:47Z</time>
      </trkpt>
      <trkpt lat="44.78765" lon="5.928">
        <ele>958</ele>
        <time>2017-12-15T23:06:59Z</time>
      </trkpt>
      <trkpt lat="44.7876" lon="5.92752">
        <ele>955</ele>
        <time>2017-12-15T23:07:15Z</time>
      </trkpt>
      <trkpt lat="44.78759" lon="5.92698">
        <ele>936</ele>
        <time>2017-12-15T23:07:28Z</time>
      </trkpt>
      <trkpt lat="44.78749" lon="5.92636">
        <ele>947</ele>
        <time>2017-12-15T23:07:46Z</time>
      </trkpt>
      <trkpt lat="44.78731" lon="5.92595">
        <ele>941</ele>
        <time>2017-12-15T23:07:51Z</time>
      </trkpt>
      <trkpt lat="44.7871" lon="5.9257">
        <ele>927</ele>
        <time>2017-12-15T23:07:59Z</time>
      </trkpt>
      <trkpt lat="44.78687" lon="5.9255">
        <ele>927</ele>
        <time>2017-12-15T23:08:16Z</time>
      </trkpt>
      <trkpt lat="44.78626" lon="5.92518">
        <ele>935</ele>
        <time>2017-12-15T23:08:18Z</time>
      </trkpt>
      <trkpt lat="44.78573" lon="5.92504">
        <ele>934</ele>
        <time>2017-12-15T23:08:36Z</time>
      </trkpt>
      <trkpt lat="44.78503" lon="5.92494">
        <ele>923</ele>
        <time>2017-12-15T23:08:41Z</time>
      </trkpt>
      <trkpt lat="44.78446" lon="5.92489">
        <ele>912</ele>
        <time>2017-12-15T23:08:43Z</time>
      </trkpt>
      <trkpt lat="44.78382" lon="5.925">
        <ele>905</ele>
        <time>2017-12-15T23:09:02Z</time>
      </trkpt>
      <trkpt lat="44.78357" lon="5.9251">
        <ele>922</ele>
        <time>2017-12-15T23:09:15Z</time>
      </trkpt>
      <trkpt lat="44.7834" lon="5.9252">
        <ele>921</ele>
        <time>2017-12-15T23:09:19Z</time>
      </trkpt>
      <trkpt lat="44.78318" lon="5.92532">
        <ele>908</ele>
        <time>2017-12-15T23:09:21Z</time>
      </trkpt>
      <trkpt lat="44.78302" lon="5.92544">
        <ele>907</ele>
        <time>2017-12-15T23:09:25Z</time>
      </trkpt>
      <trkpt lat="44.78293" lon="5.92558">
        <ele>908</ele>
        <time>2017-12-15T23:09:36Z</time>
      </trkpt>
      <trkpt lat="44.78282" lon="5.9259">
        <ele>919</ele>
        <time>2017-12-15T23:09:49Z</time>
      </trkpt>
      <trkpt lat="44.78258" lon="5.92671">
        <ele>919</ele>
        <time>2017-12-15T23:09:59Z</time>
      </trkpt>
      <trkpt lat="44.78246" lon="5.92747">
        <ele>919</ele>
        <time>2017-12-15T23:10:08Z</time>
      </trkpt>
      <trkpt lat="44.78232" lon="5.92814">
        <ele>927</ele>
        <time>2017-12-15T23:10:19Z</time>
      </trkpt>
      <trkpt lat="44.7822" lon="5.92855">
        <ele>938</ele>
        <time>2017-12-15T23:10:35Z</time>
      </trkpt>
      <trkpt lat="44.78218" lon="5.92858">
        <ele>938</ele>
        <time>2017-12-15T23:10:52Z</time>
      </trkpt>
      <trkpt lat="44.78208" lon="5.92859">
        <ele>938</ele>
        <time>2017-12-15T23:10:54Z</time>
      </trkpt>
      <trkpt lat="44.78201" lon="5.92858">
        <ele>938</ele>
        <time>2017-12-15T23:11:13Z</time>
      </trkpt>
      <trkpt lat="44.78186" lon="5.92831">
        <ele>929</ele>
        <time>2017-12-15T23:11:25Z</time>
      </trkpt>
      <trkpt lat="44.78175" lon="5.92809">
        <ele>927</ele>
        <time>2017-12-15T23:11:40Z</time>
      </trkpt>
      <trkpt lat="44.78147" lon="5.92771">
        <ele>921</ele>
        <time>2017-12-15T23:11:49Z</time>
      </trkpt>
      <trkpt lat="44.78112" lon="5.92726">
        <ele>905</ele>
        <time>2017-12-15T23:11:57Z</time>
      </trkpt>
      <trkpt lat="44.78106" lon="5.92724">
        <ele>906</ele>
        <time>2017-12-15T23:12:06Z</time>
      </trkpt>
      <trkpt lat="44.781" lon="5.92727">
        <ele>907</ele>
        <time>2017-12-15T23:12:16Z</time>
      </trkpt>
      <trkpt lat="44.78083" lon="5.92747">
        <ele>916</ele>
        <time>2017-12-15T23:12:28Z</time>
      </trkpt>
      <trkpt lat="44.78063" lon="5.9277">
        <ele>923</ele>
        <time>2017-12-15T23:12:40Z</time>
      </trkpt>
      <trkpt lat="44.78035" lon="5.92796">
        <ele>925</ele>
        <time>2017-12-15T23:12:56Z</time>
      </trkpt>
      <trkpt lat="44.78021" lon="5.92812">
        <ele>927</ele>
        <time>2017-12-15T23:12:58Z</time>
      </trkpt>
      <trkpt lat="44.78009" lon="5.92822">
        <ele>929</ele>
        <time>2017-12-15T23:13:00Z</time>
      </trkpt>
      <trkpt lat="44.77982" lon="5.9284">
        <ele>941</ele>
        <time>2017-12-15T23:13:15Z</time>
      </trkpt>
      <trkpt lat="44.7797" lon="5.92853">
        <ele>945</ele>
        <time>2017-12-15T23:13:34Z</time>
      </trkpt>
      <trkpt lat="44.77959" lon="5.92863">
        <ele>948</ele>
        <time>2017-12-15T23:13:54Z</time>
      </trkpt>
      <trkpt lat="44.77945" lon="5.92868">
        <ele>948</ele>
        <time>2017-12-15T23:14:09Z</time>
      </trkpt>
      <trkpt lat="44.77915" lon="5.92871">
        <ele>951</ele>
        <time>2017-12-15T23:14:17Z</time>
      </trkpt>
      <trkpt lat="44.77902" lon="5.92874">
        <ele>952</ele>
        <time>2017-12-15T23:14:31Z</time>
      </trkpt>
      <trkpt lat="44.77887" lon="5.92882">
        <ele>955</ele>
        <time>2017-12-15T23:14:35Z</time>
      </trkpt>
      <trkpt lat="44.77878" lon="5.92882">
        <ele>955</ele>
        <time>2017-12-15T23:14:37Z</time>
      </trkpt>
      <trkpt lat="44.77875" lon="5.9288">
        <ele>955</ele>
        <time>2017-12-15T23:14:44Z</time>
      </trkpt>
      <trkpt lat="44.77871" lon="5.92876">
        <ele>955</ele>
        <time>2017-12-15T23:14:59Z</time>
      </trkpt>
      <trkpt lat="44.77865" lon="5.92862">
        <ele>954</ele>
        <time>2017-12-15T23:15:02Z</time>
      </trkpt>
      <trkpt lat="44.7786" lon="5.92835">
        <ele>953</ele>
        <time>2017-12-15T23:15:20Z</time>
      </trkpt>
      <trkpt lat="44.77864" lon="5.92805">
        <ele>946</ele>
        <time>2017-12-15T23:15:40Z</time>
      </trkpt>
      <trkpt lat="44.77867" lon="5.92761">
        <ele>945</ele>
        <time>2017-12-15T23:15:46Z</time>
      </trkpt>
      <trkpt lat="44.77867" lon="5.92724">
        <ele>945</ele>
        <time>2017-12-15T23:16:02Z</time>
      </trkpt>
      <trkpt lat="44.77871" lon="5.92692">
        <ele>944</ele>
        <time>2017-12-15T23:16:08Z</time>
      </trkpt>
      <trkpt lat="44.77873" lon="5.92648">
        <ele>943</ele>
        <time>2017-12-15T23:16:24Z</time>
      </trkpt>
      <trkpt lat="44.7787" lon="5.92615">
        <ele>942</ele>
        <time>2017-12-15T23:16:41Z</time>
      </trkpt>
      <trkpt lat="44.77868" lon="5.92608">
        <ele>942</ele>
        <time>2017-12-15T23:17:01Z</time>
      </trkpt>
      <trkpt lat="44.77861" lon="5.92601">
        <ele>943</ele>
        <time>2017-12-15T23:17:04Z</time>
      </trkpt>
      <trkpt lat="44.77841" lon="5.92602">
        <ele>944</ele>
        <time>2017-12-15T23:17:12Z</time>
      </trkpt>
      <trkpt lat="44.77812" lon="5.92627">
        <ele>952</ele>
        <time>2017-12-15T23:17:16Z</time>
      </trkpt>
      <trkpt lat="44.77775" lon="5.92648">
        <ele>954</ele>
        <time>2017-12-15T23:17:22Z</time>
      </trkpt>
      <trkpt lat="44.77769" lon="5.92651">
        <ele>955</ele>
        <time>2017-12-15T23:17:32Z</time>
      </trkpt>
      <trkpt lat="44.77757" lon="5.9265">
        <ele>956</ele>
        <time>2017-12-15T23:17:49Z</time>
      </trkpt>
      <trkpt lat="44.77735" lon="5.92639">
        <ele>963</ele>
        <time>2017-12-15T23:18:04Z</time>
      </trkpt>
      <trkpt lat="44.77725" lon="5.92631">
        <ele>964</ele>
        <time>2017-12-15T23:18:16Z</time>
      </trkpt>
      <trkpt lat="44.7772" lon="5.92624">
        <ele>964</ele>
        <time>2017-12-15T23:18:24Z</time>
      </trkpt>
      <trkpt lat="44.77717" lon="5.92602">
        <ele>963</ele>
        <time>2017-12-15T23:18:36Z</time>
      </trkpt>
      <trkpt lat="44.77721" lon="5.9257">
        <ele>957</ele>
        <time>2017-12-15T23:18:52Z</time>
      </trkpt>
      <trkpt lat="44.77721" lon="5.92554">
        <ele>957</ele>
        <time>2017-12-15T23:19:04Z</time>
      </trkpt>
      <trkpt lat="44.77718" lon="5.92539">
        <ele>956</ele>
        <time>2017-12-15T23:19:21Z</time>
      </trkpt>
      <trkpt lat="44.77703" lon="5.92535">
        <ele>958</ele>
        <time>2017-12-15T23:19:31Z</time>
      </trkpt>
      <trkpt lat="44.77687" lon="5.92526">
        <ele>959</ele>
        <time>2017-12-15T23:19:39Z</time>
      </trkpt>
      <trkpt lat="44.7768" lon="5.92506">
        <ele>961</ele>
        <time>2017-12-15T23:19:47Z</time>
      </trkpt>
      <trkpt lat="44.77681" lon="5.92481">
        <ele>957</ele>
        <time>2017-12-15T23:19:52Z</time>
      </trkpt>
      <trkpt lat="44.77697" lon="5.92421">
        <ele>953</ele>
        <time>2017-12-15T23:20:11Z</time>
      </trkpt>
      <trkpt lat="44.77701" lon="5.92389">
        <ele>950</ele>
        <time>2017-12-15T23:20:20Z</time>
      </trkpt>
      <trkpt lat="44.77706" lon="5.92304">
        <ele>946</ele>
        <time>2017-12-15T23:20:36Z</time>
      </trkpt>
      <trkpt lat="44.77707" lon="5.92259">
        <ele>945</ele>
        <time>2017-12-15T23:20:46Z</time>
      </trkpt>
      <trkpt lat="44.77704" lon="5.92226">
        <ele>938</ele>
        <time>2017-12-15T23:21:06Z</time>
      </trkpt>
      <trkpt lat="44.77693" lon="5.92194">
        <ele>936</ele>
        <time>2017-12-15T23:21:24Z</time>
      </trkpt>
      <trkpt lat="44.77684" lon="5.92184">
        <ele>937</ele>
        <time>2017-12-15T23:21:34Z</time>
      </trkpt>
      <trkpt lat="44.77674" lon="5.92179">
        <ele>937</ele>
        <time>2017-12-15T23:21:39Z</time>
      </trkpt>
      <trkpt lat="44.77659" lon="5.92176">
        <ele>941</ele>
        <time>2017-12-15T23:21:46Z</time>
      </trkpt>
      <trkpt lat="44.77623" lon="5.92177">
        <ele>943</ele>
        <time>2017-12-15T23:21:50Z</time>
      </trkpt>
      <trkpt lat="44.77579" lon="5.92178">
        <ele>942</ele>
        <time>2017-12-15T23:21:54Z</time>
      </trkpt>
      <trkpt lat="44.77553" lon="5.92171">
        <ele>945</ele>
        <time>2017-12-15T23:22:14Z</time>
      </trkpt>
      <trkpt lat="44.77537" lon="5.9217">
        <ele>946</ele>
        <time>2017-12-15T23:22:25Z</time>
      </trkpt>
      <trkpt lat="44.77518" lon="5.92171">
        <ele>945</ele>
        <time>2017-12-15T23:22:27Z</time>
      </trkpt>
      <trkpt lat="44.77509" lon="5.92169">
        <ele>944</ele>
        <time>2017-12-15T23:22:40Z</time>
      </trkpt>
      <trkpt lat="44.77504" lon="5.92164">
        <ele>939</ele>
        <time>2017-12-15T23:22:45Z</time>
      </trkpt>
      <trkpt lat="44.77499" lon="5.92154">
        <ele>940</ele>
        <time>2017-12-15T23:22:51Z</time>
      </trkpt>
      <trkpt lat="44.77484" lon="5.92128">
        <ele>938</ele>
        <time>2017-12-15T23:22:58Z</time>
      </trkpt>
      <trkpt lat="44.77454" lon="5.92097">
        <ele>939</ele>
        <time>2017-12-15T23:23:03Z</time>
      </trkpt>
      <trkpt lat="44.77447" lon="5.92089">
        <ele>940</ele>
        <time>2017-12-15T23:23:23Z</time>
      </trkpt>
      <trkpt lat="44.77447" lon="5.92084">
        <ele>939</ele>
        <time>2017-12-15T23:23:43Z</time>
      </trkpt>
      <trkpt lat="44.77433" lon="5.92074">
        <ele>934</ele>
        <time>2017-12-15T23:23:53Z</time>
      </trkpt>
      <trkpt lat="44.77426" lon="5.92066">
        <ele>934</ele>
        <time>2017-12-15T23:23:56Z</time>
      </trkpt>
      <trkpt lat="44.7742" lon="5.92053">
        <ele>932</ele>
        <time>2017-12-15T23:24:10Z</time>
      </trkpt>
      <trkpt lat="44.77418" lon="5.92042">
        <ele>931</ele>
        <time>2017-12-15T23:24:13Z</time>
      </trkpt>
      <trkpt lat="44.7742" lon="5.92029">
        <ele>930</ele>
        <time>2017-12-15T23:24:31Z</time>
      </trkpt>
      <trkpt lat="44.77439" lon="5.91962">
        <ele>915</ele>
        <time>2017-12-15T23:24:46Z</time>
      </trkpt>
      <trkpt lat="44.77442" lon="5.91948">
        <ele>913</ele>
        <time>2017-12-15T23:24:57Z</time>
      </trkpt>
      <trkpt lat="44.77441" lon="5.91941">
        <ele>913</ele>
        <time>2017-12-15T23:25:07Z</time>
      </trkpt>
      <trkpt lat="44.77425" lon="5.91928">
        <ele>916</ele>
        <time>2017-12-15T23:25:16Z</time>
      </trkpt>
      <trkpt lat="44.77384" lon="5.91894">
        <ele>925</ele>
        <time>2017-12-15T23:25:23Z</time>
      </trkpt>
      <trkpt lat="44.77373" lon="5.91879">
        <ele>925</ele>
        <time>2017-12-15T23:25:41Z</time>
      </trkpt>
      <trkpt lat="44.77368" lon="5.91865">
        <ele>925</ele>
        <time>2017-12-15T23:25:44Z</time>
      </trkpt>
      <trkpt lat="44.77363" lon="5.91828">
        <ele>908</ele>
        <time>2017-12-15T23:26:04Z</time>
      </trkpt>
      <trkpt lat="44.7735" lon="5.91803">
        <ele>908</ele>
        <time>2017-12-15T23:26:19Z</time>
      </trkpt>
      <trkpt lat="44.77336" lon="5.91763">
        <ele>911</ele>
        <time>2017-12-15T23:26:35Z</time>
      </trkpt>
      <trkpt lat="44.77326" lon="5.91716">
        <ele>918</ele>
        <time>2017-12-15T23:26:41Z</time>
      </trkpt>
      <trkpt lat="44.77323" lon="5.91689">
        <ele>913</ele>
        <time>2017-12-15T23:26:59Z</time>
      </trkpt>
      <trkpt lat="44.77319" lon="5.91676">
        <ele>910</ele>
        <time>2017-12-15T23:27:18Z</time>
      </trkpt>
      <trkpt lat="44.77311" lon="5.91662">
        <ele>900</ele>
        <time>2017-12-15T23:27:22Z</time>
      </trkpt>
      <trkpt lat="44.77305" lon="5.91652">
        <ele>900</ele>
        <time>2017-12-15T23:27:42Z</time>
      </trkpt>
      <trkpt lat="44.77292" lon="5.91645">
        <ele>900</ele>
        <time>2017-12-15T23:27:57Z</time>
      </trkpt>
      <trkpt lat="44.77263" lon="5.91641">
        <ele>904</ele>
        <time>2017-12-15T23:28:00Z</time>
      </trkpt>
      <trkpt lat="44.77239" lon="5.91639">
        <ele>909</ele>
        <time>2017-12-15T23:28:10Z</time>
      </trkpt>
      <trkpt lat="44.77216" lon="5.91635">
        <ele>908</ele>
        <time>2017-12-15T23:28:17Z</time>
      </trkpt>
      <trkpt lat="44.77185" lon="5.91625">
        <ele>907</ele>
        <time>2017-12-15T23:28:37Z</time>
      </trkpt>
      <trkpt lat="44.77145" lon="5.91608">
        <ele>908</ele>
        <time>2017-12-15T23:28:43Z</time>
      </trkpt>
      <trkpt lat="44.77126" lon="5.916">
        <ele>909</ele>
        <time>2017-12-15T23:28:49Z</time>
      </trkpt>
      <trkpt lat="44.77109" lon="5.9159">
        <ele>909</ele>
        <time>2017-12-15T23:29:09Z</time>
      </trkpt>
      <trkpt lat="44.77101" lon="5.91581">
        <ele>903</ele>
        <time>2017-12-15T23:29:14Z</time>
      </trkpt>
      <trkpt lat="44.77098" lon="5.91574">
        <ele>903</ele>
        <time>2017-12-15T23:29:29Z</time>
      </trkpt>
      <trkpt lat="44.77096" lon="5.91547">
        <ele>901</ele>
        <time>2017-12-15T23:29:48Z</time>
      </trkpt>
      <trkpt lat="44.771" lon="5.91519">
        <ele>901</ele>
        <time>2017-12-15T23:29:53Z</time>
      </trkpt>
      <trkpt lat="44.77099" lon="5.91495">
        <ele>901</ele>
        <time>2017-12-15T23:30:09Z</time>
      </trkpt>
      <trkpt lat="44.77108" lon="5.91476">
        <ele>899</ele>
        <time>2017-12-15T23:30:25Z</time>
      </trkpt>
      <trkpt lat="44.77115" lon="5.91451">
        <ele>899</ele>
        <time>2017-12-15T23:30:45Z</time>
      </trkpt>
      <trkpt lat="44.77124" lon="5.91425">
        <ele>898</ele>
        <time>2017-12-15T23:31:03Z</time>
      </trkpt>
      <trkpt lat="44.77129" lon="5.91411">
        <ele>898</ele>
        <time>2017-12-15T23:31:18Z</time>
      </trkpt>
      <trkpt lat="44.77132" lon="5.91388">
        <ele>897</ele>
        <time>2017-12-15T23:31:28Z</time>
      </trkpt>
      <trkpt lat="44.77133" lon="5.9134">
        <ele>896</ele>
        <time>2017-12-15T23:31:43Z</time>
      </trkpt>
      <trkpt lat="44.77126" lon="5.9129">
        <ele>893</ele>
        <time>2017-12-15T23:31:56Z</time>
      </trkpt>
      <trkpt lat="44.77117" lon="5.91262">
        <ele>894</ele>
        <time>2017-12-15T23:32:07Z</time>
      </trkpt>
      <trkpt lat="44.77101" lon="5.91228">
        <ele>889</ele>
        <time>2017-12-15T23:32:18Z</time>
      </trkpt>
      <trkpt lat="44.77076" lon="5.9118">
        <ele>906</ele>
        <time>2017-12-15T23:32:20Z</time>
      </trkpt>
      <trkpt lat="44.77068" lon="5.91154">
        <ele>901</ele>
        <time>2017-12-15T23:32:22Z</time>
      </trkpt>
      <trkpt lat="44.77061" lon="5.91123">
        <ele>904</ele>
        <time>2017-12-15T23:32:25Z</time>
      </trkpt>
      <trkpt lat="44.77055" lon="5.91082">
        <ele>894</ele>
        <time>2017-12-15T23:32:33Z</time>
      </trkpt>
      <trkpt lat="44.77045" lon="5.9104">
        <ele>896</ele>
        <time>2017-12-15T23:32:47Z</time>
      </trkpt>
      <trkpt lat="44.77023" lon="5.91003">
        <ele>900</ele>
        <time>2017-12-15T23:32:51Z</time>
      </trkpt>
      <trkpt lat="44.77008" lon="5.9097">
        <ele>894</ele>
        <time>2017-12-15T23:32:57Z</time>
      </trkpt>
      <trkpt lat="44.76996" lon="5.90929">
        <ele>904</ele>
        <time>2017-12-15T23:33:01Z</time>
      </trkpt>
      <trkpt lat="44.76991" lon="5.90913">
        <ele>899</ele>
        <time>2017-12-15T23:33:03Z</time>
      </trkpt>
      <trkpt lat="44.76981" lon="5.90903">
        <ele>899</ele>
        <time>2017-12-15T23:33:19Z</time>
      </trkpt>
      <trkpt lat="44.76967" lon="5.90893">
        <ele>900</ele>
        <time>2017-12-15T23:33:29Z</time>
      </trkpt>
      <trkpt lat="44.76956" lon="5.9089">
        <ele>902</ele>
        <time>2017-12-15T23:33:40Z</time>
      </trkpt>
      <trkpt lat="44.76945" lon="5.90894">
        <ele>904</ele>
        <time>2017-12-15T23:33:50Z</time>
      </trkpt>
      <trkpt lat="44.76926" lon="5.90903">
        <ele>910</ele>
        <time>2017-12-15T23:34:03Z</time>
      </trkpt>
      <trkpt lat="44.76919" lon="5.90901">
        <ele>911</ele>
        <time>2017-12-15T23:34:21Z</time>
      </trkpt>
      <trkpt lat="44.76912" lon="5.90894">
        <ele>926</ele>
        <time>2017-12-15T23:34:29Z</time>
      </trkpt>
      <trkpt lat="44.76899" lon="5.90869">
        <ele>926</ele>
        <time>2017-12-15T23:34:43Z</time>
      </trkpt>
      <trkpt lat="44.76888" lon="5.90852">
        <ele>926</ele>
        <time>2017-12-15T23:34:48Z</time>
      </trkpt>
      <trkpt lat="44.76885" lon="5.90842">
        <ele>927</ele>
        <time>2017-12-15T23:34:55Z</time>
      </trkpt>
      <trkpt lat="44.76885" lon="5.9083">
        <ele>920</ele>
        <time>2017-12-15T23:35:04Z</time>
      </trkpt>
      <trkpt lat="44.76888" lon="5.90802">
        <ele>919</ele>
        <time>2017-12-15T23:35:13Z</time>
      </trkpt>
      <trkpt lat="44.76887" lon="5.90784">
        <ele>918</ele>
        <time>2017-12-15T23:35:29Z</time>
      </trkpt>
      <trkpt lat="44.76882" lon="5.90759">
        <ele>917</ele>
        <time>2017-12-15T23:35:41Z</time>
      </trkpt>
      <trkpt lat="44.76874" lon="5.90735">
        <ele>911</ele>
        <time>2017-12-15T23:36:01Z</time>
      </trkpt>
      <trkpt lat="44.76865" lon="5.90722">
        <ele>913</ele>
        <time>2017-12-15T23:36:16Z</time>
      </trkpt>
      <trkpt lat="44.76862" lon="5.9071">
        <ele>912</ele>
        <time>2017-12-15T23:36:24Z</time>
      </trkpt>
      <trkpt lat="44.76861" lon="5.90694">
        <ele>911</ele>
        <time>2017-12-15T23:36:43Z</time>
      </trkpt>
      <trkpt lat="44.76855" lon="5.90673">
        <ele>914</ele>
        <time>2017-12-15T23:36:46Z</time>
      </trkpt>
      <trkpt lat="44.7684" lon="5.90648">
        <ele>908</ele>
        <time>2017-12-15T23:37:00Z</time>
      </trkpt>
      <trkpt lat="44.76835" lon="5.90618">
        <ele>900</ele>
        <time>2017-12-15T23:37:13Z</time>
      </trkpt>
      <trkpt lat="44.76822" lon="5.9056">
        <ele>923</ele>
        <time>2017-12-15T23:37:18Z</time>
      </trkpt>
      <trkpt lat="44.768" lon="5.9048">
        <ele>910</ele>
        <time>2017-12-15T23:37:36Z</time>
      </trkpt>
      <trkpt lat="44.76784" lon="5.90434">
        <ele>911</ele>
        <time>2017-12-15T23:37:45Z</time>
      </trkpt>
      <trkpt lat="44.76771" lon="5.90412">
        <ele>900</ele>
        <time>2017-12-15T23:37:54Z</time>
      </trkpt>
      <trkpt lat="44.76757" lon="5.904">
        <ele>903</ele>
        <time>2017-12-15T23:38:14Z</time>
      </trkpt>
      <trkpt lat="44.76736" lon="5.90389">
        <ele>922</ele>
        <time>2017-12-15T23:38:19Z</time>
      </trkpt>
      <trkpt lat="44.76679" lon="5.90367">
        <ele>927</ele>
        <time>2017-12-15T23:38:24Z</time>
      </trkpt>
      <trkpt lat="44.76669" lon="5.90358">
        <ele>926</ele>
        <time>2017-12-15T23:38:36Z</time>
      </trkpt>
      <trkpt lat="44.7666" lon="5.90341">
        <ele>933</ele>
        <time>2017-12-15T23:38:54Z</time>
      </trkpt>
      <trkpt lat="44.76649" lon="5.90307">
        <ele>921</ele>
        <time>2017-12-15T23:38:59Z</time>
      </trkpt>
      <trkpt lat="44.76643" lon="5.90305">
        <ele>921</ele>
        <time>2017-12-15T23:39:14Z</time>
      </trkpt>
      <trkpt lat="44.76636" lon="5.9031">
        <ele>923</ele>
        <time>2017-12-15T23:39:21Z</time>
      </trkpt>
      <trkpt lat="44.76618" lon="5.90319">
        <ele>928</ele>
        <time>2017-12-15T23:39:30Z</time>
      </trkpt>
      <trkpt lat="44.76606" lon="5.90321">
        <ele>931</ele>
        <time>2017-12-15T23:39:40Z</time>
      </trkpt>
      <trkpt lat="44.76599" lon="5.90316">
        <ele>932</ele>
        <time>2017-12-15T23:39:46Z</time>
      </trkpt>
      <trkpt lat="44.76593" lon="5.90307">
        <ele>931</ele>
        <time>2017-12-15T23:39:59Z</time>
      </trkpt>
      <trkpt lat="44.7659" lon="5.90294">
        <ele>928</ele>
        <time>2017-12-15T23:40:03Z</time>
      </trkpt>
      <trkpt lat="44.76593" lon="5.90275">
        <ele>926</ele>
        <time>2017-12-15T23:40:23Z</time>
      </trkpt>
      <trkpt lat="44.76598" lon="5.90254">
        <ele>926</ele>
        <time>2017-12-15T23:40:35Z</time>
      </trkpt>
      <trkpt lat="44.76596" lon="5.90232">
        <ele>912</ele>
        <time>2017-12-15T23:40:55Z</time>
      </trkpt>
      <trkpt lat="44.76589" lon="5.9021">
        <ele>906</ele>
        <time>2017-12-15T23:41:11Z</time>
      </trkpt>
      <trkpt lat="44.76569" lon="5.90179">
        <ele>927</ele>
        <time>2017-12-15T23:41:30Z</time>
      </trkpt>
      <trkpt lat="44.76547" lon="5.9014">
        <ele>920</ele>
        <time>2017-12-15T23:41:46Z</time>
      </trkpt>
      <trkpt lat="44.76532" lon="5.90102">
        <ele>921</ele>
        <time>2017-12-15T23:42:01Z</time>
      </trkpt>
      <trkpt lat="44.76504" lon="5.89991">
        <ele>902</ele>
        <time>2017-12-15T23:42:12Z</time>
      </trkpt>
      <trkpt lat="44.76489" lon="5.89876">
        <ele>904</ele>
        <time>2017-12-15T23:42:31Z</time>
      </trkpt>
      <trkpt lat="44.76484" lon="5.89853">
        <ele>898</ele>
        <time>2017-12-15T23:42:38Z</time>
      </trkpt>
      <trkpt lat="44.76477" lon="5.89838">
        <ele>897</ele>
        <time>2017-12-15T23:42:40Z</time>
      </trkpt>
      <trkpt lat="44.76445" lon="5.89805">
        <ele>892</ele>
        <time>2017-12-15T23:42:55Z</time>
      </trkpt>
      <trkpt lat="44.76418" lon="5.8976">
        <ele>888</ele>
        <time>2017-12-15T23:42:59Z</time>
      </trkpt>
      <trkpt lat="44.76369" lon="5.89702">
        <ele>896</ele>
        <time>2017-12-15T23:43:14Z</time>
      </trkpt>
      <trkpt lat="44.76329" lon="5.89634">
        <ele>896</ele>
        <time>2017-12-15T23:43:24Z</time>
      </trkpt>
      <trkpt lat="44.76311" lon="5.89608">
        <ele>892</ele>
        <time>2017-12-15T23:43:31Z</time>
      </trkpt>
      <trkpt lat="44.76289" lon="5.89585">
        <ele>897</ele>
        <time>2017-12-15T23:43:40Z</time>
      </trkpt>
      <trkpt lat="44.76267" lon="5.89559">
        <ele>884</ele>
        <time>2017-12-15T23:43:54Z</time>
      </trkpt>
      <trkpt lat="44.76254" lon="5.89538">
        <ele>881</ele>
        <time>2017-12-15T23:44:05Z</time>
      </trkpt>
      <trkpt lat="44.76243" lon="5.89512">
        <ele>895</ele>
        <time>2017-12-15T23:44:22Z</time>
      </trkpt>
      <trkpt lat="44.76235" lon="5.89476">
        <ele>889</ele>
        <time>2017-12-15T23:44:36Z</time>
      </trkpt>
      <trkpt lat="44.76214" lon="5.89422">
        <ele>889</ele>
        <time>2017-12-15T23:44:50Z</time>
      </trkpt>
      <trkpt lat="44.76208" lon="5.894">
        <ele>881</ele>
        <time>2017-12-15T23:45:09Z</time>
      </trkpt>
      <trkpt lat="44.76205" lon="5.89365">
        <ele>880</ele>
        <time>2017-12-15T23:45:27Z</time>
      </trkpt>
      <trkpt lat="44.76206" lon="5.8933">
        <ele>873</ele>
        <time>2017-12-15T23:45:34Z</time>
      </trkpt>
      <trkpt lat="44.76201" lon="5.89299">
        <ele>873</ele>
        <time>2017-12-15T23:45:41Z</time>
      </trkpt>
      <trkpt lat="44.76172" lon="5.89218">
        <ele>869</ele>
        <time>2017-12-15T23:45:58Z</time>
      </trkpt>
      <trkpt lat="44.76152" lon="5.8919">
        <ele>881</ele>
        <time>2017-12-15T23:46:14Z</time>
      </trkpt>
      <trkpt lat="44.76129" lon="5.89154">
        <ele>875</ele>
        <time>2017-12-15T23:46:16Z</time>
      </trkpt>
      <trkpt lat="44.76092" lon="5.89102">
        <ele>875</ele>
        <time>2017-12-15T23:46:34Z</time>
      </trkpt>
      <trkpt lat="44.7607" lon="5.89054">
        <ele>888</ele>
        <time>2017-12-15T23:46:42Z</time>
      </trkpt>
      <trkpt lat="44.76046" lon="5.88973">
        <ele>887</ele>
        <time>2017-12-15T23:46:58Z</time>
      </trkpt>
      <trkpt lat="44.76038" lon="5.88953">
        <ele>888</ele>
        <time>2017-12-15T23:47:07Z</time>
      </trkpt>
      <trkpt lat="44.76026" lon="5.8893">
        <ele>887</ele>
        <time>2017-12-15T23:47:26Z</time>
      </trkpt>
      <trkpt lat="44.76006" lon="5.88913">
        <ele>885</ele>
        <time>2017-12-15T23:47:39Z</time>
      </trkpt>
      <trkpt lat="44.75955" lon="5.88868">
        <ele>891</ele>
        <time>2017-12-15T23:47:57Z</time>
      </trkpt>
      <trkpt lat="44.75947" lon="5.88861">
        <ele>891</ele>
        <time>2017-12-15T23:48:07Z</time>
      </trkpt>
      <trkpt lat="44.75919" lon="5.88815">
        <ele>884</ele>
        <time>2017-12-15T23:48:12Z</time>
      </trkpt>
      <trkpt lat="44.75911" lon="5.8881">
        <ele>887</ele>
        <time>2017-12-15T23:48:14Z</time>
      </trkpt>
      <trkpt lat="44.7587" lon="5.88812">
        <ele>888</ele>
        <time>2017-12-15T23:48:18Z</time>
      </trkpt>
      <trkpt lat="44.7585" lon="5.88812">
        <ele>890</ele>
        <time>2017-12-15T23:48:37Z</time>
      </trkpt>
      <trkpt lat="44.75844" lon="5.88809">
        <ele>890</ele>
        <time>2017-12-15T23:48:50Z</time>
      </trkpt>
      <trkpt lat="44.75838" lon="5.88803">
        <ele>889</ele>
        <time>2017-12-15T23:48:59Z</time>
      </trkpt>
      <trkpt lat="44.7583" lon="5.88786">
        <ele>890</ele>
        <time>2017-12-15T23:49:13Z</time>
      </trkpt>
      <trkpt lat="44.75822" lon="5.88755">
        <ele>885</ele>
        <time>2017-12-15T23:49:20Z</time>
      </trkpt>
      <trkpt lat="44.75808" lon="5.88718">
        <ele>887</ele>
        <time>2017-12-15T23:49:32Z</time>
      </trkpt>
      <trkpt lat="44.75804" lon="5.88712">
        <ele>888</ele>
        <time>2017-12-15T23:49:34Z</time>
      </trkpt>
      <trkpt lat="44.75799" lon="5.8871">
        <ele>888</ele>
        <time>2017-12-15T23:49:40Z</time>
      </trkpt>
      <trkpt lat="44.75726" lon="5.88704">
        <ele>894</ele>
        <time>2017-12-15T23:49:54Z</time>
      </trkpt>
      <trkpt lat="44.75698" lon="5.88708">
        <ele>895</ele>
        <time>2017-12-15T23:50:14Z</time>
      </trkpt>
      <trkpt lat="44.7568" lon="5.88708">
        <ele>895</ele>
        <time>2017-12-15T23:50:22Z</time>
      </trkpt>
      <trkpt lat="44.7567" lon="5.88703">
        <ele>896</ele>
        <time>2017-12-15T23:50:25Z</time>
      </trkpt>
      <trkpt lat="44.75651" lon="5.88688">
        <ele>900</ele>
        <time>2017-12-15T23:50:34Z</time>
      </trkpt>
      <trkpt lat="44.75612" lon="5.8866">
        <ele>911</ele>
        <time>2017-12-15T23:50:53Z</time>
      </trkpt>
      <trkpt lat="44.75604" lon="5.88658">
        <ele>910</ele>
        <time>2017-12-15T23:51:11Z</time>
      </trkpt>
      <trkpt lat="44.75588" lon="5.88658">
        <ele>906</ele>
        <time>2017-12-15T23:51:18Z</time>
      </trkpt>
      <trkpt lat="44.75565" lon="5.88655">
        <ele>906</ele>
        <time>2017-12-15T23:51:29Z</time>
      </trkpt>
      <trkpt lat="44.75546" lon="5.88632">
        <ele>908</ele>
        <time>2017-12-15T23:51:41Z</time>
      </trkpt>
      <trkpt lat="44.75489" lon="5.88546">
        <ele>912</ele>
        <time>2017-12-15T23:51:57Z</time>
      </trkpt>
      <trkpt lat="44.75479" lon="5.88535">
        <ele>913</ele>
        <time>2017-12-15T23:52:09Z</time>
      </trkpt>
      <trkpt lat="44.75445" lon="5.88511">
        <ele>912</ele>
        <time>2017-12-15T23:52:20Z</time>
      </trkpt>
      <trkpt lat="44.75406" lon="5.88488">
        <ele>913</ele>
        <time>2017-12-15T23:52:29Z</time>
      </trkpt>
      <trkpt lat="44.75369" lon="5.88463">
        <ele>913</ele>
        <time>2017-12-15T23:52:35Z</time>
      </trkpt>
      <trkpt lat="44.75334" lon="5.88438">
        <ele>915</ele>
        <time>2017-12-15T23:52:53Z</time>
      </trkpt>
      <trkpt lat="44.75303" lon="5.88425">
        <ele>915</ele>
        <time>2017-12-15T23:53:11Z</time>
      </trkpt>
      <trkpt lat="44.75253" lon="5.88409">
        <ele>922</ele>
        <time>2017-12-15T23:53:28Z</time>
      </trkpt>
      <trkpt lat="44.75185" lon="5.88393">
        <ele>928</ele>
        <time>2017-12-15T23:53:37Z</time>
      </trkpt>
      <trkpt lat="44.75176" lon="5.88391">
        <ele>928</ele>
        <time>2017-12-15T23:53:49Z</time>
      </trkpt>
      <trkpt lat="44.75158" lon="5.88392">
        <ele>929</ele>
        <time>2017-12-15T23:53:56Z</time>
      </trkpt>
      <trkpt lat="44.75141" lon="5.88396">
        <ele>930</ele>
        <time>2017-12-15T23:54:08Z</time>
      </trkpt>
      <trkpt lat="44.75129" lon="5.88398">
        <ele>930</ele>
        <time>2017-12-15T23:54:23Z</time>
      </trkpt>
      <trkpt lat="44.75124" lon="5.88397">
        <ele>931</ele>
        <time>2017-12-15T23:54:27Z</time>
      </trkpt>
      <trkpt lat="44.75115" lon="5.88388">
        <ele>932</ele>
        <time>2017-12-15T23:54:32Z</time>
      </trkpt>
      <trkpt lat="44.75108" lon="5.88379">
        <ele>933</ele>
        <time>2017-12-15T23:54:45Z</time>
      </trkpt>
      <trkpt lat="44.75103" lon="5.88394">
        <ele>931</ele>
        <time>2017-12-15T23:54:59Z</time>
      </trkpt>
      <trkpt lat="44.75099" lon="5.8845">
        <ele>923</ele>
        <time>2017-12-15T23:55:07Z</time>
      </trkpt>
      <trkpt lat="44.75094" lon="5.88478">
        <ele>923</ele>
        <time>2017-12-15T23:55:14Z</time>
      </trkpt>
      <trkpt lat="44.75091" lon="5.8849">
        <ele>923</ele>
        <time>2017-12-15T23:55:33Z</time>
      </trkpt>
      <trkpt lat="44.75087" lon="5.88494">
        <ele>923</ele>
        <time>2017-12-15T23:55:40Z</time>
      </trkpt>
      <trkpt lat="44.75083" lon="5.88496">
        <ele>924</ele>
        <time>2017-12-15T23:55:50Z</time>
      </trkpt>
      <trkpt lat="44.75017" lon="5.88508">
        <ele>926</ele>
        <time>2017-12-15T23:56:01Z</time>
      </trkpt>
      <trkpt lat="44.75002" lon="5.88506">
        <ele>926</ele>
        <time>2017-12-15T23:56:10Z</time>
      </trkpt>
      <trkpt lat="44.74982" lon="5.88493">
        <ele>932</ele>
        <time>2017-12-15T23:56:16Z</time>
      </trkpt>
      <trkpt lat="44.7497" lon="5.8849">
        <ele>934</ele>
        <time>2017-12-15T23:56:20Z</time>
      </trkpt>
      <trkpt lat="44.74962" lon="5.88489">
        <ele>935</ele>
        <time>2017-12-15T23:56:29Z</time>
      </trkpt>
      <trkpt lat="44.74952" lon="5.88492">
        <ele>936</ele>
        <time>2017-12-15T23:56:39Z</time>
      </trkpt>
      <trkpt lat="44.74896" lon="5.88522">
        <ele>943</ele>
        <time>2017-12-15T23:56:42Z</time>
      </trkpt>
      <trkpt lat="44.74875" lon="5.88528">
        <ele>943</ele>
        <time>2017-12-15T23:56:46Z</time>
      </trkpt>
      <trkpt lat="44.74856" lon="5.88529">
        <ele>942</ele>
        <time>2017-12-15T23:56:57Z</time>
      </trkpt>
      <trkpt lat="44.74819" lon="5.8852">
        <ele>939</ele>
        <time>2017-12-15T23:57:07Z</time>
      </trkpt>
      <trkpt lat="44.74808" lon="5.88521">
        <ele>940</ele>
        <time>2017-12-15T23:57:25Z</time>
      </trkpt>
      <trkpt lat="44.74786" lon="5.88532">
        <ele>943</ele>
        <time>2017-12-15T23:57:38Z</time>
      </trkpt>
      <trkpt lat="44.74769" lon="5.88531">
        <ele>944</ele>
        <time>2017-12-15T23:57:43Z</time>
      </trkpt>
      <trkpt lat="44.74754" lon="5.88538">
        <ele>945</ele>
        <time>2017-12-15T23:57:57Z</time>
      </trkpt>
      <trkpt lat="44.74748" lon="5.88546">
        <ele>957</ele>
        <time>2017-12-15T23:58:04Z</time>
      </trkpt>
      <trkpt lat="44.74725" lon="5.88579">
        <ele>957</ele>
        <time>2017-12-15T23:58:20Z</time>
      </trkpt>
      <trkpt lat="44.74719" lon="5.88595">
        <ele>969</ele>
        <time>2017-12-15T23:58:33Z</time>
      </trkpt>
      <trkpt lat="44.74692" lon="5.88641">
        <ele>978</ele>
        <time>2017-12-15T23:58:35Z</time>
      </trkpt>
      <trkpt lat="44.7467" lon="5.88671">
        <ele>982</ele>
        <time>2017-12-15T23:58:55Z</time>
      </trkpt>
      <trkpt lat="44.74658" lon="5.88683">
        <ele>982</ele>
        <time>2017-12-15T23:59:11Z</time>
      </trkpt>
      <trkpt lat="44.74642" lon="5.88693">
        <ele>985</ele>
        <time>2017-12-15T23:59:27Z</time>
      </trkpt>
      <trkpt lat="44.74629" lon="5.88702">
        <ele>987</ele>
        <time>2017-12-15T23:59:40Z</time>
      </trkpt>
      <trkpt lat="44.746" lon="5.8875">
        <ele>996</ele>
        <time>2017-12-15T23:59:59Z</time>
      </trkpt>
      <trkpt lat="44.7458" lon="5.88772">
        <ele>986</ele>
        <time>2017-12-16T00:00:19Z</time>
      </trkpt>
      <trkpt lat="44.74561" lon="5.88787">
        <ele>990</ele>
        <time>2017-12-16T00:00:26Z</time>
      </trkpt>
      <trkpt lat="44.74545" lon="5.88793">
        <ele>990</ele>
        <time>2017-12-16T00:00:44Z</time>
      </trkpt>
      <trkpt lat="44.74515" lon="5.88791">
        <ele>987</ele>
        <time>2017-12-16T00:00:56Z</time>
      </trkpt>
      <trkpt lat="44.74488" lon="5.88796">
        <ele>1002</ele>
        <time>2017-12-16T00:01:13Z</time>
      </trkpt>
      <trkpt lat="44.74463" lon="5.88809">
        <ele>1008</ele>
        <time>2017-12-16T00:01:19Z</time>
      </trkpt>
      <trkpt lat="44.74449" lon="5.88827">
        <ele>1009</ele>
        <time>2017-12-16T00:01:24Z</time>
      </trkpt>
      <trkpt lat="44.74438" lon="5.88858">
        <ele>995</ele>
        <time>2017-12-16T00:01:33Z</time>
      </trkpt>
      <trkpt lat="44.74427" lon="5.88924">
        <ele>992</ele>
        <time>2017-12-16T00:01:46Z</time>
      </trkpt>
      <trkpt lat="44.74414" lon="5.88965">
        <ele>996</ele>
        <time>2017-12-16T00:01:52Z</time>
      </trkpt>
      <trkpt lat="44.74399" lon="5.88998">
        <ele>996</ele>
        <time>2017-12-16T00:02:05Z</time>
      </trkpt>
      <trkpt lat="44.74383" lon="5.89023">
        <ele>1008</ele>
        <time>2017-12-16T00:02:12Z</time>
      </trkpt>
      <trkpt lat="44.74371" lon="5.89033">
        <ele>1009</ele>
        <time>2017-12-16T00:02:15Z</time>
      </trkpt>
      <trkpt lat="44.74339" lon="5.89052">
        <ele>1006</ele>
        <time>2017-12-16T00:02:19Z</time>
      </trkpt>
      <trkpt lat="44.74315" lon="5.89067">
        <ele>1000</ele>
        <time>2017-12-16T00:02:28Z</time>
      </trkpt>
      <trkpt lat="44.74298" lon="5.89076">
        <ele>1000</ele>
        <time>2017-12-16T00:02:37Z</time>
      </trkpt>
      <trkpt lat="44.74286" lon="5.89072">
        <ele>1001</ele>
        <time>2017-12-16T00:02:42Z</time>
      </trkpt>
      <trkpt lat="44.74276" lon="5.89058">
        <ele>1002</ele>
        <time>2017-12-16T00:02:49Z</time>
      </trkpt>
      <trkpt lat="44.74266" lon="5.89051">
        <ele>1003</ele>
        <time>2017-12-16T00:03:02Z</time>
      </trkpt>
      <trkpt lat="44.74257" lon="5.89052">
        <ele>1003</ele>
        <time>2017-12-16T00:03:09Z</time>
      </trkpt>
      <trkpt lat="44.74239" lon="5.89065">
        <ele>1016</ele>
        <time>2017-12-16T00:03:12Z</time>
      </trkpt>
      <trkpt lat="44.74183" lon="5.89115">
        <ele>1010</ele>
        <time>2017-12-16T00:03:15Z</time>
      </trkpt>
      <trkpt lat="44.74159" lon="5.8913">
        <ele>1022</ele>
        <time>2017-12-16T00:03:33Z</time>
      </trkpt>
      <trkpt lat="44.74116" lon="5.89145">
        <ele>1026</ele>
        <time>2017-12-16T00:03:45Z</time>
      </trkpt>
      <trkpt lat="44.74075" lon="5.89159">
        <ele>1030</ele>
        <time>2017-12-16T00:04:05Z</time>
      </trkpt>
      <trkpt lat="44.74018" lon="5.89172">
        <ele>1026</ele>
        <time>2017-12-16T00:04:22Z</time>
      </trkpt>
      <trkpt lat="44.73995" lon="5.8918">
        <ele>1024</ele>
        <time>2017-12-16T00:04:24Z</time>
      </trkpt>
      <trkpt lat="44.73964" lon="5.89192">
        <ele>1021</ele>
        <time>2017-12-16T00:04:28Z</time>
      </trkpt>
      <trkpt lat="44.73943" lon="5.89197">
        <ele>1020</ele>
        <time>2017-12-16T00:04:34Z</time>
      </trkpt>
      <trkpt lat="44.7389" lon="5.89199">
        <ele>1016</ele>
        <time>2017-12-16T00:04:47Z</time>
      </trkpt>
      <trkpt lat="44.73871" lon="5.89186">
        <ele>1016</ele>
        <time>2017-12-16T00:04:51Z</time>
      </trkpt>
      <trkpt lat="44.73859" lon="5.89173">
        <ele>1016</ele>
        <time>2017-12-16T00:05:06Z</time>
      </trkpt>
      <trkpt lat="44.73841" lon="5.8915">
        <ele>1024</ele>
        <time>2017-12-16T00:05:23Z</time>
      </trkpt>
      <trkpt lat="44.73828" lon="5.89139">
        <ele>1026</ele>
        <time>2017-12-16T00:05:35Z</time>
      </trkpt>
      <trkpt lat="44.73807" lon="5.89128">
        <ele>1029</ele>
        <time>2017-12-16T00:05:45Z</time>
      </trkpt>
      <trkpt lat="44.73788" lon="5.89127">
        <ele>1030</ele>
        <time>2017-12-16T00:06:00Z</time>
      </trkpt>
      <trkpt lat="44.73776" lon="5.8913">
        <ele>1030</ele>
        <time>2017-12-16T00:06:10Z</time>
      </trkpt>
      <trkpt lat="44.73759" lon="5.89142">
        <ele>1028</ele>
        <time>2017-12-16T00:06:30Z</time>
      </trkpt>
      <trkpt lat="44.73747" lon="5.89156">
        <ele>1031</ele>
        <time>2017-12-16T00:06:36Z</time>
      </trkpt>
      <trkpt lat="44.73727" lon="5.8919">
        <ele>1029</ele>
        <time>2017-12-16T00:06:52Z</time>
      </trkpt>
      <trkpt lat="44.73646" lon="5.89359">
        <ele>1030</ele>
        <time>2017-12-16T00:07:06Z</time>
      </trkpt>
      <trkpt lat="44.73639" lon="5.89388">
        <ele>1031</ele>
        <time>2017-12-16T00:07:16Z</time>
      </trkpt>
      <trkpt lat="44.73639" lon="5.89439">
        <ele>1031</ele>
        <time>2017-12-16T00:07:26Z</time>
      </trkpt>
      <trkpt lat="44.73639" lon="5.89452">
        <ele>1031</ele>
        <time>2017-12-16T00:07:29Z</time>
      </trkpt>
      <trkpt lat="44.73635" lon="5.89465">
        <ele>1032</ele>
        <time>2017-12-16T00:07:43Z</time>
      </trkpt>
      <trkpt lat="44.73625" lon="5.89476">
        <ele>1032</ele>
        <time>2017-12-16T00:07:54Z</time>
      </trkpt>
      <trkpt lat="44.73614" lon="5.89478">
        <ele>1032</ele>
        <time>2017-12-16T00:08:01Z</time>
      </trkpt>
      <trkpt lat="44.73598" lon="5.8947">
        <ele>1032</ele>
        <time>2017-12-16T00:08:08Z</time>
      </trkpt>
      <trkpt lat="44.73579" lon="5.89452">
        <ele>1035</ele>
        <time>2017-12-16T00:08:13Z</time>
      </trkpt>
      <trkpt lat="44.73559" lon="5.89438">
        <ele>1036</ele>
        <time>2017-12-16T00:08:20Z</time>
      </trkpt>
      <trkpt lat="44.73551" lon="5.89436">
        <ele>1037</ele>
        <time>2017-12-16T00:08:22Z</time>
      </trkpt>
      <trkpt lat="44.73525" lon="5.8944">
        <ele>1038</ele>
        <time>2017-12-16T00:08:33Z</time>
      </trkpt>
      <trkpt lat="44.73506" lon="5.89449">
        <ele>1038</ele>
        <time>2017-12-16T00:08:50Z</time>
      </trkpt>
      <trkpt lat="44.7346" lon="5.89476">
        <ele>1043</ele>
        <time>2017-12-16T00:08:56Z</time>
      </trkpt>
      <trkpt lat="44.73442" lon="5.89492">
        <ele>1043</ele>
        <time>2017-12-16T00:09:01Z</time>
      </trkpt>
      <trkpt lat="44.73432" lon="5.89516">
        <ele>1038</ele>
        <time>2017-12-16T00:09:10Z</time>
      </trkpt>
      <trkpt lat="44.73423" lon="5.89546">
        <ele>1035</ele>
        <time>2017-12-16T00:09:18Z</time>
      </trkpt>
      <trkpt lat="44.73419" lon="5.89558">
        <ele>1034</ele>
        <time>2017-12-16T00:09:20Z</time>
      </trkpt>
      <trkpt lat="44.73413" lon="5.89563">
        <ele>1037</ele>
        <time>2017-12-16T00:09:37Z</time>
      </trkpt>
      <trkpt lat="44.73391" lon="5.8957">
        <ele>1039</ele>
        <time>2017-12-16T00:09:40Z</time>
      </trkpt>
      <trkpt lat="44.73382" lon="5.89571">
        <ele>1039</ele>
        <time>2017-12-16T00:10:00Z</time>
      </trkpt>
      <trkpt lat="44.73374" lon="5.89568">
        <ele>1040</ele>
        <time>2017-12-16T00:10:14Z</time>
      </trkpt>
      <trkpt lat="44.73346" lon="5.89552">
        <ele>1042</ele>
        <time>2017-12-16T00:10:16Z</time>
      </trkpt>
      <trkpt lat="44.73329" lon="5.89542">
        <ele>1052</ele>
        <time>2017-12-16T00:10:24Z</time>
      </trkpt>
      <trkpt lat="44.73313" lon="5.89539">
        <ele>1053</ele>
        <time>2017-12-16T00:10:31Z</time>
      </trkpt>
      <trkpt lat="44.73298" lon="5.89541">
        <ele>1054</ele>
        <time>2017-12-16T00:10:41Z</time>
      </trkpt>
      <trkpt lat="44.73289" lon="5.89546">
        <ele>1054</ele>
        <time>2017-12-16T00:10:47Z</time>
      </trkpt>
      <trkpt lat="44.73275" lon="5.8956">
        <ele>1054</ele>
        <time>2017-12-16T00:11:01Z</time>
      </trkpt>
      <trkpt lat="44.73273" lon="5.89563">
        <ele>1054</ele>
        <time>2017-12-16T00:11:12Z</time>
      </trkpt>
      <trkpt lat="44.73243" lon="5.89598">
        <ele>1052</ele>
        <time>2017-12-16T00:11:21Z</time>
      </trkpt>
      <trkpt lat="44.73205" lon="5.89623">
        <ele>1054</ele>
        <time>2017-12-16T00:11:26Z</time>
      </trkpt>
      <trkpt lat="44.73152" lon="5.89649">
        <ele>1059</ele>
        <time>2017-12-16T00:11:39Z</time>
      </trkpt>
      <trkpt lat="44.73118" lon="5.89671">
        <ele>1050</ele>
        <time>2017-12-16T00:11:53Z</time>
      </trkpt>
      <trkpt lat="44.73062" lon="5.89721">
        <ele>1051</ele>
        <time>2017-12-16T00:11:56Z</time>
      </trkpt>
      <trkpt lat="44.73053" lon="5.89735">
        <ele>1050</ele>
        <time>2017-12-16T00:12:16Z</time>
      </trkpt>
      <trkpt lat="44.73048" lon="5.89755">
        <ele>1042</ele>
        <time>2017-12-16T00:12:18Z</time>
      </trkpt>
      <trkpt lat="44.73048" lon="5.89761">
        <ele>1042</ele>
        <time>2017-12-16T00:12:33Z</time>
      </trkpt>
      <trkpt lat="44.7305" lon="5.89813">
        <ele>1040</ele>
        <time>2017-12-16T00:12:40Z</time>
      </trkpt>
      <trkpt lat="44.73048" lon="5.89854">
        <ele>1037</ele>
        <time>2017-12-16T00:12:48Z</time>
      </trkpt>
      <trkpt lat="44.73045" lon="5.89888">
        <ele>1037</ele>
        <time>2017-12-16T00:13:08Z</time>
      </trkpt>
      <trkpt lat="44.73043" lon="5.89911">
        <ele>1037</ele>
        <time>2017-12-16T00:13:23Z</time>
      </trkpt>
      <trkpt lat="44.73039" lon="5.89945">
        <ele>1037</ele>
        <time>2017-12-16T00:13:26Z</time>
      </trkpt>
      <trkpt lat="44.73032" lon="5.89978">
        <ele>1038</ele>
        <time>2017-12-16T00:13:30Z</time>
      </trkpt>
      <trkpt lat="44.73027" lon="5.90009">
        <ele>1040</ele>
        <time>2017-12-16T00:13:48Z</time>
      </trkpt>
      <trkpt lat="44.73028" lon="5.90031">
        <ele>1041</ele>
        <time>2017-12-16T00:13:51Z</time>
      </trkpt>
      <trkpt lat="44.73039" lon="5.90082">
        <ele>1042</ele>
        <time>2017-12-16T00:14:05Z</time>
      </trkpt>
      <trkpt lat="44.73044" lon="5.90105">
        <ele>1046</ele>
        <time>2017-12-16T00:14:18Z</time>
      </trkpt>
      <trkpt lat="44.73045" lon="5.90133">
        <ele>1047</ele>
        <time>2017-12-16T00:14:25Z</time>
      </trkpt>
      <trkpt lat="44.73038" lon="5.90175">
        <ele>1050</ele>
        <time>2017-12-16T00:14:42Z</time>
      </trkpt>
      <trkpt lat="44.73031" lon="5.90196">
        <ele>1051</ele>
        <time>2017-12-16T00:14:47Z</time>
      </trkpt>
      <trkpt lat="44.73022" lon="5.90214">
        <ele>1051</ele>
        <time>2017-12-16T00:14:59Z</time>
      </trkpt>
      <trkpt lat="44.73011" lon="5.90228">
        <ele>1052</ele>
        <time>2017-12-16T00:15:11Z</time>
      </trkpt>
      <trkpt lat="44.72994" lon="5.90245">
        <ele>1054</ele>
        <time>2017-12-16T00:15:15Z</time>
      </trkpt>
      <trkpt lat="44.72978" lon="5.90258">
        <ele>1054</ele>
        <time>2017-12-16T00:15:32Z</time>
      </trkpt>
      <trkpt lat="44.72958" lon="5.90278">
        <ele>1055</ele>
        <time>2017-12-16T00:15:37Z</time>
      </trkpt>
      <trkpt lat="44.72915" lon="5.90324">
        <ele>1060</ele>
        <time>2017-12-16T00:15:57Z</time>
      </trkpt>
      <trkpt lat="44.72899" lon="5.90338">
        <ele>1059</ele>
        <time>2017-12-16T00:16:13Z</time>
      </trkpt>
      <trkpt lat="44.72866" lon="5.90358">
        <ele>1062</ele>
        <time>2017-12-16T00:16:15Z</time>
      </trkpt>
      <trkpt lat="44.72849" lon="5.90369">
        <ele>1063</ele>
        <time>2017-12-16T00:16:26Z</time>
      </trkpt>
      <trkpt lat="44.72834" lon="5.90383">
        <ele>1063</ele>
        <time>2017-12-16T00:16:32Z</time>
      </trkpt>
      <trkpt lat="44.72821" lon="5.904">
        <ele>1074</ele>
        <time>2017-12-16T00:16:35Z</time>
      </trkpt>
      <trkpt lat="44.72793" lon="5.90441">
        <ele>1074</ele>
        <time>2017-12-16T00:16:38Z</time>
      </trkpt>
      <trkpt lat="44.72765" lon="5.90486">
        <ele>1077</ele>
        <time>2017-12-16T00:16:51Z</time>
      </trkpt>
      <trkpt lat="44.72744" lon="5.90534">
        <ele>1086</ele>
        <time>2017-12-16T00:17:02Z</time>
      </trkpt>
      <trkpt lat="44.72733" lon="5.90565">
        <ele>1085</ele>
        <time>2017-12-16T00:17:20Z</time>
      </trkpt>
      <trkpt lat="44.72725" lon="5.90584">
        <ele>1081</ele>
        <time>2017-12-16T00:17:35Z</time>
      </trkpt>
      <trkpt lat="44.72704" lon="5.90616">
        <ele>1083</ele>
        <time>2017-12-16T00:17:49Z</time>
      </trkpt>
      <trkpt lat="44.72676" lon="5.90653">
        <ele>1087</ele>
        <time>2017-12-16T00:18:05Z</time>
      </trkpt>
      <trkpt lat="44.7266" lon="5.90687">
        <ele>1096</ele>
        <time>2017-12-16T00:18:20Z</time>
      </trkpt>
      <trkpt lat="44.72649" lon="5.90727">
        <ele>1096</ele>
        <time>2017-12-16T00:18:29Z</time>
      </trkpt>
      <trkpt lat="44.72643" lon="5.90747">
        <ele>1095</ele>
        <time>2017-12-16T00:18:32Z</time>
      </trkpt>
      <trkpt lat="44.72635" lon="5.90764">
        <ele>1093</ele>
        <time>2017-12-16T00:18:49Z</time>
      </trkpt>
      <trkpt lat="44.72614" lon="5.90791">
        <ele>1095</ele>
        <time>2017-12-16T00:18:55Z</time>
      </trkpt>
      <trkpt lat="44.72598" lon="5.9081">
        <ele>1097</ele>
        <time>2017-12-16T00:19:09Z</time>
      </trkpt>
      <trkpt lat="44.72588" lon="5.90826">
        <ele>1099</ele>
        <time>2017-12-16T00:19:23Z</time>
      </trkpt>
      <trkpt lat="44.72572" lon="5.90863">
        <ele>1103</ele>
        <time>2017-12-16T00:19:40Z</time>
      </trkpt>
      <trkpt lat="44.72558" lon="5.90903">
        <ele>1101</ele>
        <time>2017-12-16T00:19:43Z</time>
      </trkpt>
      <trkpt lat="44.72542" lon="5.90937">
        <ele>1097</ele>
        <time>2017-12-16T00:20:02Z</time>
      </trkpt>
      <trkpt lat="44.72532" lon="5.90953">
        <ele>1097</ele>
        <time>2017-12-16T00:20:15Z</time>
      </trkpt>
      <trkpt lat="44.72516" lon="5.90972">
        <ele>1098</ele>
        <time>2017-12-16T00:20:17Z</time>
      </trkpt>
      <trkpt lat="44.72448" lon="5.91038">
        <ele>1108</ele>
        <time>2017-12-16T00:20:25Z</time>
      </trkpt>
      <trkpt lat="44.72418" lon="5.9108">
        <ele>1110</ele>
        <time>2017-12-16T00:20:38Z</time>
      </trkpt>
      <trkpt lat="44.72407" lon="5.91096">
        <ele>1110</ele>
        <time>2017-12-16T00:20:54Z</time>
      </trkpt>
      <trkpt lat="44.72394" lon="5.91109">
        <ele>1110</ele>
        <time>2017-12-16T00:21:14Z</time>
      </trkpt>
      <trkpt lat="44.7238" lon="5.9112">
        <ele>1110</ele>
        <time>2017-12-16T00:21:16Z</time>
      </trkpt>
      <trkpt lat="44.72365" lon="5.91129">
        <ele>1110</ele>
        <time>2017-12-16T00:21:22Z</time>
      </trkpt>
      <trkpt lat="44.72317" lon="5.91143">
        <ele>1119</ele>
        <time>2017-12-16T00:21:37Z</time>
      </trkpt>
      <trkpt lat="44.72285" lon="5.91157">
        <ele>1122</ele>
        <time>2017-12-16T00:21:53Z</time>
      </trkpt>
      <trkpt lat="44.72261" lon="5.91171">
        <ele>1119</ele>
        <time>2017-12-16T00:22:08Z</time>
      </trkpt>
      <trkpt lat="44.72213" lon="5.91198">
        <ele>1124</ele>
        <time>2017-12-16T00:22:12Z</time>
      </trkpt>
      <trkpt lat="44.72172" lon="5.91223">
        <ele>1124</ele>
        <time>2017-12-16T00:22:19Z</time>
      </trkpt>
      <trkpt lat="44.72072" lon="5.91297">
        <ele>1136</ele>
        <time>2017-12-16T00:22:22Z</time>
      </trkpt>
      <trkpt lat="44.72036" lon="5.91322">
        <ele>1138</ele>
        <time>2017-12-16T00:22:30Z</time>
      </trkpt>
      <trkpt lat="44.71997" lon="5.91344">
        <ele>1140</ele>
        <time>2017-12-16T00:22:44Z</time>
      </trkpt>
      <trkpt lat="44.71929" lon="5.91377">
        <ele>1142</ele>
        <time>2017-12-16T00:22:56Z</time>
      </trkpt>
      <trkpt lat="44.71911" lon="5.91389">
        <ele>1143</ele>
        <time>2017-12-16T00:23:16Z</time>
      </trkpt>
      <trkpt lat="44.71887" lon="5.91413">
        <ele>1143</ele>
        <time>2017-12-16T00:23:27Z</time>
      </trkpt>
      <trkpt lat="44.71848" lon="5.91458">
        <ele>1146</ele>
        <time>2017-12-16T00:23:35Z</time>
      </trkpt>
      <trkpt lat="44.71766" lon="5.9153">
        <ele>1151</ele>
        <time>2017-12-16T00:23:49Z</time>
      </trkpt>
      <trkpt lat="44.71748" lon="5.91542">
        <ele>1154</ele>
        <time>2017-12-16T00:23:59Z</time>
      </trkpt>
      <trkpt lat="44.71731" lon="5.9155">
        <ele>1155</ele>
        <time>2017-12-16T00:24:17Z</time>
      </trkpt>
      <trkpt lat="44.71713" lon="5.91554">
        <ele>1156</ele>
        <time>2017-12-16T00:24:27Z</time>
      </trkpt>
      <trkpt lat="44.71697" lon="5.91556">
        <ele>1157</ele>
        <time>2017-12-16T00:24:31Z</time>
      </trkpt>
      <trkpt lat="44.71681" lon="5.91553">
        <ele>1158</ele>
        <time>2017-12-16T00:24:34Z</time>
      </trkpt>
      <trkpt lat="44.71668" lon="5.91546">
        <ele>1157</ele>
        <time>2017-12-16T00:24:50Z</time>
      </trkpt>
      <trkpt lat="44.71653" lon="5.91537">
        <ele>1163</ele>
        <time>2017-12-16T00:24:52Z</time>
      </trkpt>
      <trkpt lat="44.71645" lon="5.91537">
        <ele>1163</ele>
        <time>2017-12-16T00:25:07Z</time>
      </trkpt>
      <trkpt lat="44.7164" lon="5.91537">
        <ele>1164</ele>
        <time>2017-12-16T00:25:14Z</time>
      </trkpt>
      <trkpt lat="44.7164" lon="5.91541">
        <ele>1164</ele>
        <time>2017-12-16T00:25:26Z</time>
      </trkpt>
      <trkpt lat="44.71639" lon="5.91548">
        <ele>1165</ele>
        <time>2017-12-16T00:25:41Z</time>
      </trkpt>
      <trkpt lat="44.71641" lon="5.91556">
        <ele>1166</ele>
        <time>2017-12-16T00:25:51Z</time>
      </trkpt>
      <trkpt lat="44.71645" lon="5.91561">
        <ele>1166</ele>
        <time>2017-12-16T00:26:01Z</time>
      </trkpt>
      <trkpt lat="44.71676" lon="5.91569">
        <ele>1161</ele>
        <time>2017-12-16T00:26:21Z</time>
      </trkpt>
      <trkpt lat="44.71703" lon="5.91573">
        <ele>1158</ele>
        <time>2017-12-16T00:26:26Z</time>
      </trkpt>
      <trkpt lat="44.71715" lon="5.91578">
        <ele>1158</ele>
        <time>2017-12-16T00:26:32Z</time>
      </trkpt>
      <trkpt lat="44.71724" lon="5.91584">
        <ele>1166</ele>
        <time>2017-12-16T00:26:41Z</time>
      </trkpt>
      <trkpt lat="44.71728" lon="5.9159">
        <ele>1166</ele>
        <time>2017-12-16T00:26:52Z</time>
      </trkpt>
      <trkpt lat="44.71731" lon="5.91603">
        <ele>1166</ele>
        <time>2017-12-16T00:27:10Z</time>
      </trkpt>
      <trkpt lat="44.7173" lon="5.91612">
        <ele>1168</ele>
        <time>2017-12-16T00:27:27Z</time>
      </trkpt>
      <trkpt lat="44.71725" lon="5.91623">
        <ele>1169</ele>
        <time>2017-12-16T00:27:33Z</time>
      </trkpt>
      <trkpt lat="44.71717" lon="5.91632">
        <ele>1170</ele>
        <time>2017-12-16T00:27:39Z</time>
      </trkpt>
      <trkpt lat="44.71689" lon="5.9165">
        <ele>1173</ele>
        <time>2017-12-16T00:27:57Z</time>
      </trkpt>
      <trkpt lat="44.71624" lon="5.91686">
        <ele>1190</ele>
        <time>2017-12-16T00:28:13Z</time>
      </trkpt>
      <trkpt lat="44.71575" lon="5.9171">
        <ele>1196</ele>
        <time>2017-12-16T00:28:19Z</time>
      </trkpt>
      <trkpt lat="44.71558" lon="5.91715">
        <ele>1197</ele>
        <time>2017-12-16T00:28:32Z</time>
      </trkpt>
      <trkpt lat="44.71481" lon="5.91727">
        <ele>1202</ele>
        <time>2017-12-16T00:28:40Z</time>
      </trkpt>
      <trkpt lat="44.71362" lon="5.91746">
        <ele>1210</ele>
        <time>2017-12-16T00:28:45Z</time>
      </trkpt>
      <trkpt lat="44.71295" lon="5.91751">
        <ele>1214</ele>
        <time>2017-12-16T00:29:02Z</time>
      </trkpt>
      <trkpt lat="44.71251" lon="5.91748">
        <ele>1215</ele>
        <time>2017-12-16T00:29:22Z</time>
      </trkpt>
      <trkpt lat="44.71219" lon="5.91748">
        <ele>1224</ele>
        <time>2017-12-16T00:29:28Z</time>
      </trkpt>
      <trkpt lat="44.71197" lon="5.91751">
        <ele>1222</ele>
        <time>2017-12-16T00:29:34Z</time>
      </trkpt>
      <trkpt lat="44.71046" lon="5.91784">
        <ele>1234</ele>
        <time>2017-12-16T00:29:46Z</time>
      </trkpt>
      <trkpt lat="44.70953" lon="5.91814">
        <ele>1236</ele>
        <time>2017-12-16T00:29:48Z</time>
      </trkpt>
      <trkpt lat="44.70882" lon="5.91842">
        <ele>1238</ele>
        <time>2017-12-16T00:30:04Z</time>
      </trkpt>
      <trkpt lat="44.70853" lon="5.91858">
        <ele>1240</ele>
        <time>2017-12-16T00:30:24Z</time>
      </trkpt>
      <trkpt lat="44.70825" lon="5.91878">
        <ele>1244</ele>
        <time>2017-12-16T00:30:44Z</time>
      </trkpt>
      <trkpt lat="44.708" lon="5.91901">
        <ele>1245</ele>
        <time>2017-12-16T00:30:51Z</time>
      </trkpt>
      <trkpt lat="44.70782" lon="5.91923">
        <ele>1247</ele>
        <time>2017-12-16T00:30:53Z</time>
      </trkpt>
      <trkpt lat="44.70758" lon="5.91967">
        <ele>1247</ele>
        <time>2017-12-16T00:30:55Z</time>
      </trkpt>
      <trkpt lat="44.70733" lon="5.92028">
        <ele>1250</ele>
        <time>2017-12-16T00:31:03Z</time>
      </trkpt>
      <trkpt lat="44.70721" lon="5.92051">
        <ele>1251</ele>
        <time>2017-12-16T00:31:09Z</time>
      </trkpt>
      <trkpt lat="44.70692" lon="5.92091">
        <ele>1248</ele>
        <time>2017-12-16T00:31:28Z</time>
      </trkpt>
      <trkpt lat="44.70643" lon="5.92143">
        <ele>1246</ele>
        <time>2017-12-16T00:31:40Z</time>
      </trkpt>
      <trkpt lat="44.70583" lon="5.92207">
        <ele>1243</ele>
        <time>2017-12-16T00:31:51Z</time>
      </trkpt>
      <trkpt lat="44.70572" lon="5.92222">
        <ele>1243</ele>
        <time>2017-12-16T00:31:57Z</time>
      </trkpt>
      <trkpt lat="44.70557" lon="5.92251">
        <ele>1240</ele>
        <time>2017-12-16T00:32:17Z</time>
      </trkpt>
      <trkpt lat="44.70539" lon="5.92322">
        <ele>1239</ele>
        <time>2017-12-16T00:32:29Z</time>
      </trkpt>
      <trkpt lat="44.70527" lon="5.92357">
        <ele>1236</ele>
        <time>2017-12-16T00:32:36Z</time>
      </trkpt>
      <trkpt lat="44.70513" lon="5.92382">
        <ele>1235</ele>
        <time>2017-12-16T00:32:56Z</time>
      </trkpt>
      <trkpt lat="44.7048" lon="5.9243">
        <ele>1235</ele>
        <time>2017-12-16T00:33:14Z</time>
      </trkpt>
      <trkpt lat="44.70462" lon="5.9245">
        <ele>1235</ele>
        <time>2017-12-16T00:33:26Z</time>
      </trkpt>
      <trkpt lat="44.7043" lon="5.92471">
        <ele>1235</ele>
        <time>2017-12-16T00:33:36Z</time>
      </trkpt>
      <trkpt lat="44.70366" lon="5.92511">
        <ele>1235</ele>
        <time>2017-12-16T00:33:40Z</time>
      </trkpt>
      <trkpt lat="44.70307" lon="5.92547">
        <ele>1238</ele>
        <time>2017-12-16T00:33:54Z</time>
      </trkpt>
      <trkpt lat="44.70285" lon="5.92558">
        <ele>1238</ele>
        <time>2017-12-16T00:34:12Z</time>
      </trkpt>
      <trkpt lat="44.70267" lon="5.92571">
        <ele>1237</ele>
        <time>2017-12-16T00:34:20Z</time>
      </trkpt>
      <trkpt lat="44.70242" lon="5.92598">
        <ele>1237</ele>
        <time>2017-12-16T00:34:23Z</time>
      </trkpt>
      <trkpt lat="44.70206" lon="5.92643">
        <ele>1238</ele>
        <time>2017-12-16T00:34:33Z</time>
      </trkpt>
      <trkpt lat="44.70183" lon="5.92661">
        <ele>1239</ele>
        <time>2017-12-16T00:34:48Z</time>
      </trkpt>
      <trkpt lat="44.70138" lon="5.92686">
        <ele>1243</ele>
        <time>2017-12-16T00:35:01Z</time>
      </trkpt>
      <trkpt lat="44.70124" lon="5.92697">
        <ele>1245</ele>
        <time>2017-12-16T00:35:04Z</time>
      </trkpt>
      <trkpt lat="44.70113" lon="5.92711">
        <ele>1246</ele>
        <time>2017-12-16T00:35:08Z</time>
      </trkpt>
      <trkpt lat="44.70106" lon="5.9273">
        <ele>1246</ele>
        <time>2017-12-16T00:35:18Z</time>
      </trkpt>
      <trkpt lat="44.70103" lon="5.92751">
        <ele>1244</ele>
        <time>2017-12-16T00:35:28Z</time>
      </trkpt>
      <trkpt lat="44.70104" lon="5.92772">
        <ele>1241</ele>
        <time>2017-12-16T00:35:37Z</time>
      </trkpt>
      <trkpt lat="44.70114" lon="5.92825">
        <ele>1238</ele>
        <time>2017-12-16T00:35:52Z</time>
      </trkpt>
      <trkpt lat="44.70115" lon="5.92847">
        <ele>1233</ele>
        <time>2017-12-16T00:36:10Z</time>
      </trkpt>
      <trkpt lat="44.70112" lon="5.9288">
        <ele>1231</ele>
        <time>2017-12-16T00:36:20Z</time>
      </trkpt>
      <trkpt lat="44.70107" lon="5.92897">
        <ele>1231</ele>
        <time>2017-12-16T00:36:29Z</time>
      </trkpt>
      <trkpt lat="44.701" lon="5.92911">
        <ele>1232</ele>
        <time>2017-12-16T00:36:45Z</time>
      </trkpt>
      <trkpt lat="44.70091" lon="5.92921">
        <ele>1233</ele>
        <time>2017-12-16T00:36:58Z</time>
      </trkpt>
      <trkpt lat="44.70082" lon="5.92927">
        <ele>1237</ele>
        <time>2017-12-16T00:37:14Z</time>
      </trkpt>
      <trkpt lat="44.70047" lon="5.92939">
        <ele>1239</ele>
        <time>2017-12-16T00:37:33Z</time>
      </trkpt>
      <trkpt lat="44.70035" lon="5.92943">
        <ele>1240</ele>
        <time>2017-12-16T00:37:52Z</time>
      </trkpt>
      <trkpt lat="44.70035" lon="5.92963">
        <ele>1238</ele>
        <time>2017-12-16T00:38:00Z</time>
      </trkpt>
      <trkpt lat="44.70041" lon="5.93034">
        <ele>1238</ele>
        <time>2017-12-16T00:38:13Z</time>
      </trkpt>
      <trkpt lat="44.70037" lon="5.9306">
        <ele>1241</ele>
        <time>2017-12-16T00:38:26Z</time>
      </trkpt>
      <trkpt lat="44.70028" lon="5.93079">
        <ele>1243</ele>
        <time>2017-12-16T00:38:37Z</time>
      </trkpt>
      <trkpt lat="44.70017" lon="5.93084">
        <ele>1257</ele>
        <time>2017-12-16T00:38:39Z</time>
      </trkpt>
      <trkpt lat="44.70004" lon="5.93083">
        <ele>1248</ele>
        <time>2017-12-16T00:38:58Z</time>
      </trkpt>
      <trkpt lat="44.69969" lon="5.93071">
        <ele>1245</ele>
        <time>2017-12-16T00:39:00Z</time>
      </trkpt>
      <trkpt lat="44.69949" lon="5.93067">
        <ele>1244</ele>
        <time>2017-12-16T00:39:12Z</time>
      </trkpt>
      <trkpt lat="44.69927" lon="5.93069">
        <ele>1245</ele>
        <time>2017-12-16T00:39:24Z</time>
      </trkpt>
      <trkpt lat="44.6991" lon="5.93077">
        <ele>1250</ele>
        <time>2017-12-16T00:39:42Z</time>
      </trkpt>
      <trkpt lat="44.69905" lon="5.93085">
        <ele>1251</ele>
        <time>2017-12-16T00:40:01Z</time>
      </trkpt>
      <trkpt lat="44.699" lon="5.93103">
        <ele>1254</ele>
        <time>2017-12-16T00:40:20Z</time>
      </trkpt>
      <trkpt lat="44.69896" lon="5.93134">
        <ele>1259</ele>
        <time>2017-12-16T00:40:22Z</time>
      </trkpt>
      <trkpt lat="44.69874" lon="5.93184">
        <ele>1277</ele>
        <time>2017-12-16T00:40:37Z</time>
      </trkpt>
      <trkpt lat="44.69853" lon="5.93224">
        <ele>1282</ele>
        <time>2017-12-16T00:40:39Z</time>
      </trkpt>
      <trkpt lat="44.6984" lon="5.93244">
        <ele>1283</ele>
        <time>2017-12-16T00:40:48Z</time>
      </trkpt>
      <trkpt lat="44.69819" lon="5.93258">
        <ele>1289</ele>
        <time>2017-12-16T00:41:04Z</time>
      </trkpt>
      <trkpt lat="44.69778" lon="5.9327">
        <ele>1291</ele>
        <time>2017-12-16T00:41:06Z</time>
      </trkpt>
      <trkpt lat="44.69748" lon="5.9328">
        <ele>1291</ele>
        <time>2017-12-16T00:41:09Z</time>
      </trkpt>
      <trkpt lat="44.69721" lon="5.93294">
        <ele>1294</ele>
        <time>2017-12-16T00:41:24Z</time>
      </trkpt>
      <trkpt lat="44.69691" lon="5.93312">
        <ele>1295</ele>
        <time>2017-12-16T00:41:41Z</time>
      </trkpt>
      <trkpt lat="44.6968" lon="5.93325">
        <ele>1293</ele>
        <time>2017-12-16T00:41:52Z</time>
      </trkpt>
      <trkpt lat="44.69678" lon="5.93332">
        <ele>1293</ele>
        <time>2017-12-16T00:42:09Z</time>
      </trkpt>
      <trkpt lat="44.69679" lon="5.93347">
        <ele>1291</ele>
        <time>2017-12-16T00:42:14Z</time>
      </trkpt>
      <trkpt lat="44.69689" lon="5.93385">
        <ele>1290</ele>
        <time>2017-12-16T00:42:21Z</time>
      </trkpt>
      <trkpt lat="44.69691" lon="5.93406">
        <ele>1288</ele>
        <time>2017-12-16T00:42:36Z</time>
      </trkpt>
      <trkpt lat="44.69687" lon="5.93417">
        <ele>1285</ele>
        <time>2017-12-16T00:42:41Z</time>
      </trkpt>
      <trkpt lat="44.69678" lon="5.93428">
        <ele>1284</ele>
        <time>2017-12-16T00:42:59Z</time>
      </trkpt>
      <trkpt lat="44.69653" lon="5.93453">
        <ele>1281</ele>
        <time>2017-12-16T00:43:06Z</time>
      </trkpt>
      <trkpt lat="44.69636" lon="5.93467">
        <ele>1281</ele>
        <time>2017-12-16T00:43:21Z</time>
      </trkpt>
      <trkpt lat="44.69629" lon="5.93477">
        <ele>1280</ele>
        <time>2017-12-16T00:43:35Z</time>
      </trkpt>
      <trkpt lat="44.69626" lon="5.93486">
        <ele>1279</ele>
        <time>2017-12-16T00:43:39Z</time>
      </trkpt>
      <trkpt lat="44.69626" lon="5.93497">
        <ele>1278</ele>
        <time>2017-12-16T00:43:54Z</time>
      </trkpt>
      <trkpt lat="44.69629" lon="5.93511">
        <ele>1278</ele>
        <time>2017-12-16T00:44:10Z</time>
      </trkpt>
      <trkpt lat="44.69629" lon="5.93522">
        <ele>1278</ele>
        <time>2017-12-16T00:44:18Z</time>
      </trkpt>
      <trkpt lat="44.69627" lon="5.93532">
        <ele>1278</ele>
        <time>2017-12-16T00:44:20Z</time>
      </trkpt>
      <trkpt lat="44.69592" lon="5.93603">
        <ele>1285</ele>
        <time>2017-12-16T00:44:25Z</time>
      </trkpt>
      <trkpt lat="44.69585" lon="5.93618">
        <ele>1291</ele>
        <time>2017-12-16T00:44:34Z</time>
      </trkpt>
      <trkpt lat="44.69563" lon="5.9365">
        <ele>1279</ele>
        <time>2017-12-16T00:44:46Z</time>
      </trkpt>
      <trkpt lat="44.69539" lon="5.93685">
        <ele>1278</ele>
        <time>2017-12-16T00:45:00Z</time>
      </trkpt>
      <trkpt lat="44.69524" lon="5.93712">
        <ele>1276</ele>
        <time>2017-12-16T00:45:16Z</time>
      </trkpt>
      <trkpt lat="44.69515" lon="5.93734">
        <ele>1275</ele>
        <time>2017-12-16T00:45:27Z</time>
      </trkpt>
      <trkpt lat="44.69506" lon="5.93765">
        <ele>1278</ele>
        <time>2017-12-16T00:45:46Z</time>
      </trkpt>
      <trkpt lat="44.69489" lon="5.93845">
        <ele>1275</ele>
        <time>2017-12-16T00:45:57Z</time>
      </trkpt>
      <trkpt lat="44.6947" lon="5.9394">
        <ele>1278</ele>
        <time>2017-12-16T00:46:08Z</time>
      </trkpt>
      <trkpt lat="44.69463" lon="5.93958">
        <ele>1278</ele>
        <time>2017-12-16T00:46:14Z</time>
      </trkpt>
      <trkpt lat="44.6943" lon="5.94021">
        <ele>1282</ele>
        <time>2017-12-16T00:46:21Z</time>
      </trkpt>
      <trkpt lat="44.69428" lon="5.94024">
        <ele>1283</ele>
        <time>2017-12-15T18:49:43Z</time>
      </trkpt>
      <trkpt lat="44.69463" lon="5.93958">
        <ele>1278</ele>
        <time>2017-12-15T18:49:58Z</time>
      </trkpt>
      <trkpt lat="44.6947" lon="5.9394">
        <ele>1278</ele>
        <time>2017-12-15T18:50:08Z</time>
      </trkpt>
      <trkpt lat="44.69489" lon="5.93845">
        <ele>1275</ele>
        <time>2017-12-15T18:50:27Z</time>
      </trkpt>
      <trkpt lat="44.69506" lon="5.93765">
        <ele>1278</ele>
        <time>2017-12-15T18:50:35Z</time>
      </trkpt>
      <trkpt lat="44.69515" lon="5.93734">
        <ele>1275</ele>
        <time>2017-12-15T18:50:46Z</time>
      </trkpt>
      <trkpt lat="44.69524" lon="5.93712">
        <ele>1276</ele>
        <time>2017-12-15T18:50:59Z</time>
      </trkpt>
      <trkpt lat="44.69539" lon="5.93685">
        <ele>1278</ele>
        <time>2017-12-15T18:51:13Z</time>
      </trkpt>
      <trkpt lat="44.69563" lon="5.9365">
        <ele>1279</ele>
        <time>2017-12-15T18:51:16Z</time>
      </trkpt>
      <trkpt lat="44.69585" lon="5.93618">
        <ele>1291</ele>
        <time>2017-12-15T18:51:33Z</time>
      </trkpt>
      <trkpt lat="44.69592" lon="5.93603">
        <ele>1285</ele>
        <time>2017-12-15T18:51:52Z</time>
      </trkpt>
      <trkpt lat="44.69613" lon="5.93558">
        <ele>1277</ele>
        <time>2017-12-15T18:52:09Z</time>
      </trkpt>
      <trkpt lat="44.69627" lon="5.93532">
        <ele>1278</ele>
        <time>2017-12-15T18:52:17Z</time>
      </trkpt>
      <trkpt lat="44.69629" lon="5.93522">
        <ele>1278</ele>
        <time>2017-12-15T18:52:34Z</time>
      </trkpt>
      <trkpt lat="44.69629" lon="5.93511">
        <ele>1278</ele>
        <time>2017-12-15T18:52:36Z</time>
      </trkpt>
      <trkpt lat="44.69626" lon="5.93497">
        <ele>1278</ele>
        <time>2017-12-15T18:52:46Z</time>
      </trkpt>
      <trkpt lat="44.69626" lon="5.93486">
        <ele>1279</ele>
        <time>2017-12-15T18:52:58Z</time>
      </trkpt>
      <trkpt lat="44.69629" lon="5.93477">
        <ele>1280</ele>
        <time>2017-12-15T18:53:06Z</time>
      </trkpt>
      <trkpt lat="44.69636" lon="5.93467">
        <ele>1281</ele>
        <time>2017-12-15T18:53:20Z</time>
      </trkpt>
      <trkpt lat="44.69653" lon="5.93453">
        <ele>1281</ele>
        <time>2017-12-15T18:53:39Z</time>
      </trkpt>
      <trkpt lat="44.69672" lon="5.93434">
        <ele>1284</ele>
        <time>2017-12-15T18:53:46Z</time>
      </trkpt>
      <trkpt lat="44.69678" lon="5.93428">
        <ele>1284</ele>
        <time>2017-12-15T18:53:59Z</time>
      </trkpt>
      <trkpt lat="44.69687" lon="5.93417">
        <ele>1285</ele>
        <time>2017-12-15T18:54:01Z</time>
      </trkpt>
      <trkpt lat="44.69691" lon="5.93406">
        <ele>1288</ele>
        <time>2017-12-15T18:54:03Z</time>
      </trkpt>
      <trkpt lat="44.69689" lon="5.93385">
        <ele>1290</ele>
        <time>2017-12-15T18:54:15Z</time>
      </trkpt>
      <trkpt lat="44.69679" lon="5.93347">
        <ele>1291</ele>
        <time>2017-12-15T18:54:35Z</time>
      </trkpt>
      <trkpt lat="44.69678" lon="5.93332">
        <ele>1293</ele>
        <time>2017-12-15T18:54:52Z</time>
      </trkpt>
      <trkpt lat="44.6968" lon="5.93325">
        <ele>1293</ele>
        <time>2017-12-15T18:55:08Z</time>
      </trkpt>
      <trkpt lat="44.69691" lon="5.93312">
        <ele>1295</ele>
        <time>2017-12-15T18:55:15Z</time>
      </trkpt>
      <trkpt lat="44.69721" lon="5.93294">
        <ele>1294</ele>
        <time>2017-12-15T18:55:27Z</time>
      </trkpt>
      <trkpt lat="44.69748" lon="5.9328">
        <ele>1291</ele>
        <time>2017-12-15T18:55:35Z</time>
      </trkpt>
      <trkpt lat="44.69778" lon="5.9327">
        <ele>1291</ele>
        <time>2017-12-15T18:55:47Z</time>
      </trkpt>
      <trkpt lat="44.69819" lon="5.93258">
        <ele>1289</ele>
        <time>2017-12-15T18:55:55Z</time>
      </trkpt>
      <trkpt lat="44.6984" lon="5.93244">
        <ele>1283</ele>
        <time>2017-12-15T18:56:03Z</time>
      </trkpt>
      <trkpt lat="44.69853" lon="5.93224">
        <ele>1282</ele>
        <time>2017-12-15T18:56:12Z</time>
      </trkpt>
      <trkpt lat="44.69874" lon="5.93184">
        <ele>1277</ele>
        <time>2017-12-15T18:56:28Z</time>
      </trkpt>
      <trkpt lat="44.69896" lon="5.93134">
        <ele>1259</ele>
        <time>2017-12-15T18:56:31Z</time>
      </trkpt>
      <trkpt lat="44.699" lon="5.93103">
        <ele>1254</ele>
        <time>2017-12-15T18:56:37Z</time>
      </trkpt>
      <trkpt lat="44.69905" lon="5.93085">
        <ele>1251</ele>
        <time>2017-12-15T18:56:44Z</time>
      </trkpt>
      <trkpt lat="44.6991" lon="5.93077">
        <ele>1250</ele>
        <time>2017-12-15T18:57:00Z</time>
      </trkpt>
      <trkpt lat="44.69927" lon="5.93069">
        <ele>1245</ele>
        <time>2017-12-15T18:57:16Z</time>
      </trkpt>
      <trkpt lat="44.69949" lon="5.93067">
        <ele>1244</ele>
        <time>2017-12-15T18:57:23Z</time>
      </trkpt>
      <trkpt lat="44.69969" lon="5.93071">
        <ele>1245</ele>
        <time>2017-12-15T18:57:25Z</time>
      </trkpt>
      <trkpt lat="44.70004" lon="5.93083">
        <ele>1248</ele>
        <time>2017-12-15T18:57:29Z</time>
      </trkpt>
      <trkpt lat="44.70017" lon="5.93084">
        <ele>1257</ele>
        <time>2017-12-15T18:57:36Z</time>
      </trkpt>
      <trkpt lat="44.70028" lon="5.93079">
        <ele>1243</ele>
        <time>2017-12-15T18:57:54Z</time>
      </trkpt>
      <trkpt lat="44.70037" lon="5.9306">
        <ele>1241</ele>
        <time>2017-12-15T18:57:57Z</time>
      </trkpt>
      <trkpt lat="44.70041" lon="5.93034">
        <ele>1238</ele>
        <time>2017-12-15T18:58:06Z</time>
      </trkpt>
      <trkpt lat="44.70035" lon="5.92963">
        <ele>1238</ele>
        <time>2017-12-15T18:58:11Z</time>
      </trkpt>
      <trkpt lat="44.70036" lon="5.92934">
        <ele>1241</ele>
        <time>2017-12-15T18:58:17Z</time>
      </trkpt>
      <trkpt lat="44.70039" lon="5.92926">
        <ele>1241</ele>
        <time>2017-12-15T18:58:23Z</time>
      </trkpt>
      <trkpt lat="44.70047" lon="5.92915">
        <ele>1251</ele>
        <time>2017-12-15T18:58:35Z</time>
      </trkpt>
      <trkpt lat="44.70072" lon="5.92898">
        <ele>1247</ele>
        <time>2017-12-15T18:58:39Z</time>
      </trkpt>
      <trkpt lat="44.70084" lon="5.92881">
        <ele>1234</ele>
        <time>2017-12-15T18:58:59Z</time>
      </trkpt>
      <trkpt lat="44.70089" lon="5.92862">
        <ele>1236</ele>
        <time>2017-12-15T18:59:14Z</time>
      </trkpt>
      <trkpt lat="44.70092" lon="5.92837">
        <ele>1243</ele>
        <time>2017-12-15T18:59:29Z</time>
      </trkpt>
      <trkpt lat="44.70092" lon="5.92821">
        <ele>1244</ele>
        <time>2017-12-15T18:59:48Z</time>
      </trkpt>
      <trkpt lat="44.70089" lon="5.92804">
        <ele>1242</ele>
        <time>2017-12-15T19:00:04Z</time>
      </trkpt>
      <trkpt lat="44.7008" lon="5.9277">
        <ele>1262</ele>
        <time>2017-12-15T19:00:24Z</time>
      </trkpt>
      <trkpt lat="44.70076" lon="5.92733">
        <ele>1267</ele>
        <time>2017-12-15T19:00:29Z</time>
      </trkpt>
      <trkpt lat="44.70077" lon="5.92684">
        <ele>1270</ele>
        <time>2017-12-15T19:00:39Z</time>
      </trkpt>
      <trkpt lat="44.70079" lon="5.92646">
        <ele>1276</ele>
        <time>2017-12-15T19:00:45Z</time>
      </trkpt>
      <trkpt lat="44.70082" lon="5.9263">
        <ele>1281</ele>
        <time>2017-12-15T19:00:54Z</time>
      </trkpt>
      <trkpt lat="44.70088" lon="5.92617">
        <ele>1262</ele>
        <time>2017-12-15T19:01:10Z</time>
      </trkpt>
      <trkpt lat="44.70097" lon="5.92608">
        <ele>1263</ele>
        <time>2017-12-15T19:01:17Z</time>
      </trkpt>
      <trkpt lat="44.70108" lon="5.92604">
        <ele>1262</ele>
        <time>2017-12-15T19:01:34Z</time>
      </trkpt>
      <trkpt lat="44.70125" lon="5.92604">
        <ele>1260</ele>
        <time>2017-12-15T19:01:49Z</time>
      </trkpt>
      <trkpt lat="44.70138" lon="5.926">
        <ele>1260</ele>
        <time>2017-12-15T19:02:08Z</time>
      </trkpt>
      <trkpt lat="44.70148" lon="5.92591">
        <ele>1260</ele>
        <time>2017-12-15T19:02:11Z</time>
      </trkpt>
      <trkpt lat="44.70156" lon="5.92577">
        <ele>1267</ele>
        <time>2017-12-15T19:02:28Z</time>
      </trkpt>
      <trkpt lat="44.70163" lon="5.9256">
        <ele>1270</ele>
        <time>2017-12-15T19:02:43Z</time>
      </trkpt>
      <trkpt lat="44.70172" lon="5.92518">
        <ele>1265</ele>
        <time>2017-12-15T19:03:02Z</time>
      </trkpt>
      <trkpt lat="44.70177" lon="5.92463">
        <ele>1270</ele>
        <time>2017-12-15T19:03:16Z</time>
      </trkpt>
      <trkpt lat="44.70181" lon="5.92419">
        <ele>1274</ele>
        <time>2017-12-15T19:03:29Z</time>
      </trkpt>
      <trkpt lat="44.70184" lon="5.92399">
        <ele>1278</ele>
        <time>2017-12-15T19:03:34Z</time>
      </trkpt>
      <trkpt lat="44.70195" lon="5.92372">
        <ele>1279</ele>
        <time>2017-12-15T19:03:49Z</time>
      </trkpt>
      <trkpt lat="44.70204" lon="5.92356">
        <ele>1279</ele>
        <time>2017-12-15T19:04:02Z</time>
      </trkpt>
      <trkpt lat="44.70233" lon="5.92325">
        <ele>1284</ele>
        <time>2017-12-15T19:04:05Z</time>
      </trkpt>
      <trkpt lat="44.70242" lon="5.92309">
        <ele>1285</ele>
        <time>2017-12-15T19:04:20Z</time>
      </trkpt>
      <trkpt lat="44.70249" lon="5.92291">
        <ele>1287</ele>
        <time>2017-12-15T19:04:22Z</time>
      </trkpt>
      <trkpt lat="44.70254" lon="5.92262">
        <ele>1284</ele>
        <time>2017-12-15T19:04:29Z</time>
      </trkpt>
      <trkpt lat="44.70253" lon="5.92224">
        <ele>1285</ele>
        <time>2017-12-15T19:04:42Z</time>
      </trkpt>
      <trkpt lat="44.7025" lon="5.92207">
        <ele>1285</ele>
        <time>2017-12-15T19:04:56Z</time>
      </trkpt>
      <trkpt lat="44.70233" lon="5.92158">
        <ele>1297</ele>
        <time>2017-12-15T19:05:10Z</time>
      </trkpt>
      <trkpt lat="44.70231" lon="5.92142">
        <ele>1298</ele>
        <time>2017-12-15T19:05:22Z</time>
      </trkpt>
      <trkpt lat="44.70231" lon="5.92119">
        <ele>1299</ele>
        <time>2017-12-15T19:05:33Z</time>
      </trkpt>
      <trkpt lat="44.7024" lon="5.92076">
        <ele>1301</ele>
        <time>2017-12-15T19:05:36Z</time>
      </trkpt>
      <trkpt lat="44.70254" lon="5.92031">
        <ele>1298</ele>
        <time>2017-12-15T19:05:47Z</time>
      </trkpt>
      <trkpt lat="44.70262" lon="5.92009">
        <ele>1300</ele>
        <time>2017-12-15T19:06:03Z</time>
      </trkpt>
      <trkpt lat="44.70277" lon="5.9198">
        <ele>1305</ele>
        <time>2017-12-15T19:06:18Z</time>
      </trkpt>
      <trkpt lat="44.70299" lon="5.91944">
        <ele>1306</ele>
        <time>2017-12-15T19:06:36Z</time>
      </trkpt>
      <trkpt lat="44.70367" lon="5.91835">
        <ele>1311</ele>
        <time>2017-12-15T19:06:43Z</time>
      </trkpt>
      <trkpt lat="44.70374" lon="5.91809">
        <ele>1314</ele>
        <time>2017-12-15T19:07:00Z</time>
      </trkpt>
      <trkpt lat="44.70378" lon="5.91759">
        <ele>1315</ele>
        <time>2017-12-15T19:07:02Z</time>
      </trkpt>
      <trkpt lat="44.70374" lon="5.91719">
        <ele>1319</ele>
        <time>2017-12-15T19:07:13Z</time>
      </trkpt>
      <trkpt lat="44.70368" lon="5.9165">
        <ele>1326</ele>
        <time>2017-12-15T19:07:28Z</time>
      </trkpt>
      <trkpt lat="44.70368" lon="5.91625">
        <ele>1327</ele>
        <time>2017-12-15T19:07:42Z</time>
      </trkpt>
      <trkpt lat="44.70372" lon="5.91601">
        <ele>1328</ele>
        <time>2017-12-15T19:07:53Z</time>
      </trkpt>
      <trkpt lat="44.70378" lon="5.91579">
        <ele>1335</ele>
        <time>2017-12-15T19:07:56Z</time>
      </trkpt>
      <trkpt lat="44.7039" lon="5.91548">
        <ele>1336</ele>
        <time>2017-12-15T19:08:00Z</time>
      </trkpt>
      <trkpt lat="44.7042" lon="5.91487">
        <ele>1332</ele>
        <time>2017-12-15T19:08:20Z</time>
      </trkpt>
      <trkpt lat="44.70448" lon="5.91422">
        <ele>1334</ele>
        <time>2017-12-15T19:08:39Z</time>
      </trkpt>
      <trkpt lat="44.70463" lon="5.91375">
        <ele>1339</ele>
        <time>2017-12-15T19:08:51Z</time>
      </trkpt>
      <trkpt lat="44.70487" lon="5.91267">
        <ele>1348</ele>
        <time>2017-12-15T19:09:09Z</time>
      </trkpt>
      <trkpt lat="44.70496" lon="5.9124">
        <ele>1352</ele>
        <time>2017-12-15T19:09:22Z</time>
      </trkpt>
      <trkpt lat="44.70507" lon="5.91213">
        <ele>1345</ele>
        <time>2017-12-15T19:09:26Z</time>
      </trkpt>
      <trkpt lat="44.70562" lon="5.9111">
        <ele>1351</ele>
        <time>2017-12-15T19:09:39Z</time>
      </trkpt>
      <trkpt lat="44.7057" lon="5.91091">
        <ele>1351</ele>
        <time>2017-12-15T19:09:54Z</time>
      </trkpt>
      <trkpt lat="44.70577" lon="5.91071">
        <ele>1354</ele>
        <time>2017-12-15T19:10:08Z</time>
      </trkpt>
      <trkpt lat="44.7058" lon="5.9105">
        <ele>1358</ele>
        <time>2017-12-15T19:10:24Z</time>
      </trkpt>
      <trkpt lat="44.70582" lon="5.91028">
        <ele>1359</ele>
        <time>2017-12-15T19:10:33Z</time>
      </trkpt>
      <trkpt lat="44.70581" lon="5.90917">
        <ele>1363</ele>
        <time>2017-12-15T19:10:35Z</time>
      </trkpt>
      <trkpt lat="44.70579" lon="5.90878">
        <ele>1360</ele>
        <time>2017-12-15T19:10:48Z</time>
      </trkpt>
      <trkpt lat="44.70575" lon="5.90862">
        <ele>1359</ele>
        <time>2017-12-15T19:11:02Z</time>
      </trkpt>
      <trkpt lat="44.70567" lon="5.90841">
        <ele>1358</ele>
        <time>2017-12-15T19:11:11Z</time>
      </trkpt>
      <trkpt lat="44.7055" lon="5.90816">
        <ele>1356</ele>
        <time>2017-12-15T19:11:20Z</time>
      </trkpt>
      <trkpt lat="44.7054" lon="5.90808">
        <ele>1356</ele>
        <time>2017-12-15T19:11:26Z</time>
      </trkpt>
      <trkpt lat="44.7053" lon="5.90804">
        <ele>1356</ele>
        <time>2017-12-15T19:11:32Z</time>
      </trkpt>
      <trkpt lat="44.70519" lon="5.90804">
        <ele>1357</ele>
        <time>2017-12-15T19:11:38Z</time>
      </trkpt>
      <trkpt lat="44.70509" lon="5.90807">
        <ele>1358</ele>
        <time>2017-12-15T19:11:41Z</time>
      </trkpt>
      <trkpt lat="44.70477" lon="5.90819">
        <ele>1359</ele>
        <time>2017-12-15T19:11:45Z</time>
      </trkpt>
      <trkpt lat="44.70457" lon="5.90822">
        <ele>1359</ele>
        <time>2017-12-15T19:11:59Z</time>
      </trkpt>
      <trkpt lat="44.70432" lon="5.90821">
        <ele>1359</ele>
        <time>2017-12-15T19:12:07Z</time>
      </trkpt>
      <trkpt lat="44.70406" lon="5.90814">
        <ele>1359</ele>
        <time>2017-12-15T19:12:19Z</time>
      </trkpt>
      <trkpt lat="44.70389" lon="5.90805">
        <ele>1359</ele>
        <time>2017-12-15T19:12:32Z</time>
      </trkpt>
      <trkpt lat="44.70374" lon="5.90791">
        <ele>1359</ele>
        <time>2017-12-15T19:12:39Z</time>
      </trkpt>
      <trkpt lat="44.70367" lon="5.90779">
        <ele>1359</ele>
        <time>2017-12-15T19:12:43Z</time>
      </trkpt>
      <trkpt lat="44.70363" lon="5.90765">
        <ele>1359</ele>
        <time>2017-12-15T19:12:49Z</time>
      </trkpt>
      <trkpt lat="44.70362" lon="5.9075">
        <ele>1361</ele>
        <time>2017-12-15T19:13:09Z</time>
      </trkpt>
      <trkpt lat="44.70364" lon="5.90734">
        <ele>1361</ele>
        <time>2017-12-15T19:13:21Z</time>
      </trkpt>
      <trkpt lat="44.70369" lon="5.9072">
        <ele>1362</ele>
        <time>2017-12-15T19:13:41Z</time>
      </trkpt>
      <trkpt lat="44.70376" lon="5.90708">
        <ele>1363</ele>
        <time>2017-12-15T19:13:49Z</time>
      </trkpt>
      <trkpt lat="44.70386" lon="5.90699">
        <ele>1363</ele>
        <time>2017-12-15T19:14:08Z</time>
      </trkpt>
      <trkpt lat="44.70417" lon="5.9068">
        <ele>1364</ele>
        <time>2017-12-15T19:14:19Z</time>
      </trkpt>
      <trkpt lat="44.70445" lon="5.90667">
        <ele>1363</ele>
        <time>2017-12-15T19:14:23Z</time>
      </trkpt>
      <trkpt lat="44.70479" lon="5.90656">
        <ele>1372</ele>
        <time>2017-12-15T19:14:29Z</time>
      </trkpt>
      <trkpt lat="44.70551" lon="5.90642">
        <ele>1373</ele>
        <time>2017-12-15T19:14:46Z</time>
      </trkpt>
      <trkpt lat="44.70556" lon="5.90635">
        <ele>1374</ele>
        <time>2017-12-15T19:15:05Z</time>
      </trkpt>
      <trkpt lat="44.70554" lon="5.90624">
        <ele>1375</ele>
        <time>2017-12-15T19:15:21Z</time>
      </trkpt>
      <trkpt lat="44.7055" lon="5.9062">
        <ele>1375</ele>
        <time>2017-12-15T19:15:28Z</time>
      </trkpt>
      <trkpt lat="44.70544" lon="5.90618">
        <ele>1375</ele>
        <time>2017-12-15T19:15:44Z</time>
      </trkpt>
      <trkpt lat="44.70499" lon="5.90618">
        <ele>1376</ele>
        <time>2017-12-15T19:16:02Z</time>
      </trkpt>
      <trkpt lat="44.70472" lon="5.90615">
        <ele>1377</ele>
        <time>2017-12-15T19:16:15Z</time>
      </trkpt>
      <trkpt lat="44.70438" lon="5.90607">
        <ele>1378</ele>
        <time>2017-12-15T19:16:25Z</time>
      </trkpt>
      <trkpt lat="44.70396" lon="5.90593">
        <ele>1380</ele>
        <time>2017-12-15T19:16:30Z</time>
      </trkpt>
      <trkpt lat="44.70379" lon="5.90589">
        <ele>1379</ele>
        <time>2017-12-15T19:16:34Z</time>
      </trkpt>
      <trkpt lat="44.70338" lon="5.90587">
        <ele>1381</ele>
        <time>2017-12-15T19:16:41Z</time>
      </trkpt>
      <trkpt lat="44.70309" lon="5.90584">
        <ele>1377</ele>
        <time>2017-12-15T19:16:43Z</time>
      </trkpt>
      <trkpt lat="44.70296" lon="5.90577">
        <ele>1382</ele>
        <time>2017-12-15T19:16:50Z</time>
      </trkpt>
      <trkpt lat="44.70286" lon="5.90565">
        <ele>1382</ele>
        <time>2017-12-15T19:17:01Z</time>
      </trkpt>
      <trkpt lat="44.7028" lon="5.9055">
        <ele>1382</ele>
        <time>2017-12-15T19:17:20Z</time>
      </trkpt>
      <trkpt lat="44.70278" lon="5.90531">
        <ele>1383</ele>
        <time>2017-12-15T19:17:28Z</time>
      </trkpt>
      <trkpt lat="44.70279" lon="5.90511">
        <ele>1384</ele>
        <time>2017-12-15T19:17:42Z</time>
      </trkpt>
      <trkpt lat="44.70296" lon="5.90421">
        <ele>1393</ele>
        <time>2017-12-15T19:17:50Z</time>
      </trkpt>
      <trkpt lat="44.703" lon="5.90386">
        <ele>1397</ele>
        <time>2017-12-15T19:17:57Z</time>
      </trkpt>
      <trkpt lat="44.70299" lon="5.90362">
        <ele>1398</ele>
        <time>2017-12-15T19:18:13Z</time>
      </trkpt>
      <trkpt lat="44.70295" lon="5.9034">
        <ele>1398</ele>
        <time>2017-12-15T19:18:33Z</time>
      </trkpt>
      <trkpt lat="44.70289" lon="5.90319">
        <ele>1402</ele>
        <time>2017-12-15T19:18:46Z</time>
      </trkpt>
      <trkpt lat="44.70241" lon="5.90183">
        <ele>1405</ele>
        <time>2017-12-15T19:18:48Z</time>
      </trkpt>
      <trkpt lat="44.702" lon="5.90072">
        <ele>1413</ele>
        <time>2017-12-15T19:18:54Z</time>
      </trkpt>
      <trkpt lat="44.70193" lon="5.9004">
        <ele>1414</ele>
        <time>2017-12-15T19:19:07Z</time>
      </trkpt>
      <trkpt lat="44.70189" lon="5.89995">
        <ele>1417</ele>
        <time>2017-12-15T19:19:14Z</time>
      </trkpt>
      <trkpt lat="44.70187" lon="5.89961">
        <ele>1419</ele>
        <time>2017-12-15T19:19:20Z</time>
      </trkpt>
      <trkpt lat="44.70186" lon="5.89901">
        <ele>1421</ele>
        <time>2017-12-15T19:19:24Z</time>
      </trkpt>
      <trkpt lat="44.7018" lon="5.89859">
        <ele>1422</ele>
        <time>2017-12-15T19:19:32Z</time>
      </trkpt>
      <trkpt lat="44.70176" lon="5.89844">
        <ele>1421</ele>
        <time>2017-12-15T19:19:47Z</time>
      </trkpt>
      <trkpt lat="44.70158" lon="5.89803">
        <ele>1420</ele>
        <time>2017-12-15T19:19:55Z</time>
      </trkpt>
      <trkpt lat="44.70096" lon="5.89691">
        <ele>1420</ele>
        <time>2017-12-15T19:20:04Z</time>
      </trkpt>
      <trkpt lat="44.70082" lon="5.89669">
        <ele>1420</ele>
        <time>2017-12-15T19:20:23Z</time>
      </trkpt>
      <trkpt lat="44.70069" lon="5.89652">
        <ele>1421</ele>
        <time>2017-12-15T19:20:26Z</time>
      </trkpt>
      <trkpt lat="44.70032" lon="5.89613">
        <ele>1422</ele>
        <time>2017-12-15T19:20:37Z</time>
      </trkpt>
      <trkpt lat="44.69971" lon="5.89553">
        <ele>1424</ele>
        <time>2017-12-15T19:20:41Z</time>
      </trkpt>
      <trkpt lat="44.69946" lon="5.89519">
        <ele>1424</ele>
        <time>2017-12-15T19:21:01Z</time>
      </trkpt>
      <trkpt lat="44.69872" lon="5.89359">
        <ele>1429</ele>
        <time>2017-12-15T19:21:19Z</time>
      </trkpt>
      <trkpt lat="44.69866" lon="5.89328">
        <ele>1428</ele>
        <time>2017-12-15T19:21:29Z</time>
      </trkpt>
      <trkpt lat="44.69859" lon="5.89267">
        <ele>1427</ele>
        <time>2017-12-15T19:21:38Z</time>
      </trkpt>
      <trkpt lat="44.69852" lon="5.8924">
        <ele>1423</ele>
        <time>2017-12-15T19:21:49Z</time>
      </trkpt>
      <trkpt lat="44.69838" lon="5.89202">
        <ele>1420</ele>
        <time>2017-12-15T19:21:53Z</time>
      </trkpt>
      <trkpt lat="44.69815" lon="5.8916">
        <ele>1419</ele>
        <time>2017-12-15T19:22:11Z</time>
      </trkpt>
      <trkpt lat="44.69766" lon="5.89088">
        <ele>1417</ele>
        <time>2017-12-15T19:22:26Z</time>
      </trkpt>
      <trkpt lat="44.69741" lon="5.89059">
        <ele>1413</ele>
        <time>2017-12-15T19:22:37Z</time>
      </trkpt>
      <trkpt lat="44.69717" lon="5.89042">
        <ele>1411</ele>
        <time>2017-12-15T19:22:39Z</time>
      </trkpt>
      <trkpt lat="44.69693" lon="5.8903">
        <ele>1410</ele>
        <time>2017-12-15T19:22:57Z</time>
      </trkpt>
      <trkpt lat="44.6964" lon="5.89019">
        <ele>1409</ele>
        <time>2017-12-15T19:23:05Z</time>
      </trkpt>
      <trkpt lat="44.69605" lon="5.89015">
        <ele>1408</ele>
        <time>2017-12-15T19:23:23Z</time>
      </trkpt>
      <trkpt lat="44.69555" lon="5.89015">
        <ele>1411</ele>
        <time>2017-12-15T19:23:32Z</time>
      </trkpt>
      <trkpt lat="44.69545" lon="5.89013">
        <ele>1411</ele>
        <time>2017-12-15T19:23:35Z</time>
      </trkpt>
      <trkpt lat="44.69524" lon="5.89005">
        <ele>1411</ele>
        <time>2017-12-15T19:23:55Z</time>
      </trkpt>
      <trkpt lat="44.69478" lon="5.88949">
        <ele>1397</ele>
        <time>2017-12-15T19:24:04Z</time>
      </trkpt>
      <trkpt lat="44.69458" lon="5.88937">
        <ele>1397</ele>
        <time>2017-12-15T19:24:21Z</time>
      </trkpt>
      <trkpt lat="44.69399" lon="5.88908">
        <ele>1389</ele>
        <time>2017-12-15T19:24:23Z</time>
      </trkpt>
      <trkpt lat="44.69375" lon="5.8889">
        <ele>1389</ele>
        <time>2017-12-15T19:24:28Z</time>
      </trkpt>
      <trkpt lat="44.69359" lon="5.8887">
        <ele>1388</ele>
        <time>2017-12-15T19:24:33Z</time>
      </trkpt>
      <trkpt lat="44.6934" lon="5.88821">
        <ele>1380</ele>
        <time>2017-12-15T19:24:48Z</time>
      </trkpt>
      <trkpt lat="44.69337" lon="5.88814">
        <ele>1378</ele>
        <time>2017-12-15T19:24:58Z</time>
      </trkpt>
      <trkpt lat="44.69328" lon="5.88803">
        <ele>1379</ele>
        <time>2017-12-15T19:25:13Z</time>
      </trkpt>
      <trkpt lat="44.69317" lon="5.88795">
        <ele>1377</ele>
        <time>2017-12-15T19:25:26Z</time>
      </trkpt>
      <trkpt lat="44.69307" lon="5.88792">
        <ele>1377</ele>
        <time>2017-12-15T19:25:32Z</time>
      </trkpt>
      <trkpt lat="44.69293" lon="5.88793">
        <ele>1378</ele>
        <time>2017-12-15T19:25:49Z</time>
      </trkpt>
      <trkpt lat="44.69273" lon="5.88801">
        <ele>1379</ele>
        <time>2017-12-15T19:25:52Z</time>
      </trkpt>
      <trkpt lat="44.69266" lon="5.88805">
        <ele>1380</ele>
        <time>2017-12-15T19:25:58Z</time>
      </trkpt>
      <trkpt lat="44.69257" lon="5.88805">
        <ele>1381</ele>
        <time>2017-12-15T19:26:09Z</time>
      </trkpt>
      <trkpt lat="44.69243" lon="5.88803">
        <ele>1390</ele>
        <time>2017-12-15T19:26:22Z</time>
      </trkpt>
      <trkpt lat="44.69232" lon="5.88793">
        <ele>1390</ele>
        <time>2017-12-15T19:26:31Z</time>
      </trkpt>
      <trkpt lat="44.69219" lon="5.88768">
        <ele>1389</ele>
        <time>2017-12-15T19:26:36Z</time>
      </trkpt>
      <trkpt lat="44.69216" lon="5.88739">
        <ele>1381</ele>
        <time>2017-12-15T19:26:41Z</time>
      </trkpt>
      <trkpt lat="44.69213" lon="5.88698">
        <ele>1379</ele>
        <time>2017-12-15T19:26:47Z</time>
      </trkpt>
      <trkpt lat="44.69208" lon="5.88678">
        <ele>1379</ele>
        <time>2017-12-15T19:26:59Z</time>
      </trkpt>
      <trkpt lat="44.69199" lon="5.88661">
        <ele>1370</ele>
        <time>2017-12-15T19:27:02Z</time>
      </trkpt>
      <trkpt lat="44.69192" lon="5.88651">
        <ele>1370</ele>
        <time>2017-12-15T19:27:16Z</time>
      </trkpt>
      <trkpt lat="44.6918" lon="5.8864">
        <ele>1370</ele>
        <time>2017-12-15T19:27:26Z</time>
      </trkpt>
      <trkpt lat="44.69087" lon="5.88582">
        <ele>1370</ele>
        <time>2017-12-15T19:27:38Z</time>
      </trkpt>
      <trkpt lat="44.69044" lon="5.88556">
        <ele>1368</ele>
        <time>2017-12-15T19:27:48Z</time>
      </trkpt>
      <trkpt lat="44.6903" lon="5.88542">
        <ele>1367</ele>
        <time>2017-12-15T19:27:57Z</time>
      </trkpt>
      <trkpt lat="44.6901" lon="5.88515">
        <ele>1363</ele>
        <time>2017-12-15T19:28:15Z</time>
      </trkpt>
      <trkpt lat="44.69" lon="5.8849">
        <ele>1360</ele>
        <time>2017-12-15T19:28:30Z</time>
      </trkpt>
      <trkpt lat="44.68972" lon="5.88385">
        <ele>1352</ele>
        <time>2017-12-15T19:28:39Z</time>
      </trkpt>
      <trkpt lat="44.68947" lon="5.88326">
        <ele>1347</ele>
        <time>2017-12-15T19:28:59Z</time>
      </trkpt>
      <trkpt lat="44.68912" lon="5.8826">
        <ele>1348</ele>
        <time>2017-12-15T19:29:01Z</time>
      </trkpt>
      <trkpt lat="44.68844" lon="5.88155">
        <ele>1341</ele>
        <time>2017-12-15T19:29:15Z</time>
      </trkpt>
      <trkpt lat="44.68813" lon="5.88115">
        <ele>1341</ele>
        <time>2017-12-15T19:29:23Z</time>
      </trkpt>
      <trkpt lat="44.68793" lon="5.88101">
        <ele>1341</ele>
        <time>2017-12-15T19:29:29Z</time>
      </trkpt>
      <trkpt lat="44.68755" lon="5.88089">
        <ele>1339</ele>
        <time>2017-12-15T19:29:34Z</time>
      </trkpt>
      <trkpt lat="44.68701" lon="5.88077">
        <ele>1337</ele>
        <time>2017-12-15T19:29:51Z</time>
      </trkpt>
      <trkpt lat="44.68676" lon="5.88068">
        <ele>1338</ele>
        <time>2017-12-15T19:30:00Z</time>
      </trkpt>
      <trkpt lat="44.68655" lon="5.88054">
        <ele>1341</ele>
        <time>2017-12-15T19:30:20Z</time>
      </trkpt>
      <trkpt lat="44.68622" lon="5.88019">
        <ele>1340</ele>
        <time>2017-12-15T19:30:22Z</time>
      </trkpt>
      <trkpt lat="44.68559" lon="5.87945">
        <ele>1337</ele>
        <time>2017-12-15T19:30:26Z</time>
      </trkpt>
      <trkpt lat="44.68532" lon="5.87908">
        <ele>1330</ele>
        <time>2017-12-15T19:30:43Z</time>
      </trkpt>
      <trkpt lat="44.68512" lon="5.8787">
        <ele>1329</ele>
        <time>2017-12-15T19:30:58Z</time>
      </trkpt>
      <trkpt lat="44.68508" lon="5.87861">
        <ele>1328</ele>
        <time>2017-12-15T19:31:04Z</time>
      </trkpt>
      <trkpt lat="44.68503" lon="5.87833">
        <ele>1326</ele>
        <time>2017-12-15T19:31:20Z</time>
      </trkpt>
      <trkpt lat="44.68492" lon="5.87792">
        <ele>1325</ele>
        <time>2017-12-15T19:31:25Z</time>
      </trkpt>
      <trkpt lat="44.68473" lon="5.87747">
        <ele>1319</ele>
        <time>2017-12-15T19:31:32Z</time>
      </trkpt>
      <trkpt lat="44.68445" lon="5.877">
        <ele>1319</ele>
        <time>2017-12-15T19:31:42Z</time>
      </trkpt>
      <trkpt lat="44.68422" lon="5.87667">
        <ele>1319</ele>
        <time>2017-12-15T19:31:49Z</time>
      </trkpt>
      <trkpt lat="44.68404" lon="5.87646">
        <ele>1317</ele>
        <time>2017-12-15T19:31:55Z</time>
      </trkpt>
      <trkpt lat="44.68363" lon="5.87614">
        <ele>1316</ele>
        <time>2017-12-15T19:32:06Z</time>
      </trkpt>
      <trkpt lat="44.68292" lon="5.87572">
        <ele>1316</ele>
        <time>2017-12-15T19:32:18Z</time>
      </trkpt>
      <trkpt lat="44.68222" lon="5.87518">
        <ele>1320</ele>
        <time>2017-12-15T19:32:23Z</time>
      </trkpt>
      <trkpt lat="44.68174" lon="5.87467">
        <ele>1316</ele>
        <time>2017-12-15T19:32:32Z</time>
      </trkpt>
      <trkpt lat="44.68018" lon="5.87286">
        <ele>1322</ele>
        <time>2017-12-15T19:32:52Z</time>
      </trkpt>
      <trkpt lat="44.6798" lon="5.87241">
        <ele>1326</ele>
        <time>2017-12-15T19:33:08Z</time>
      </trkpt>
      <trkpt lat="44.67965" lon="5.87218">
        <ele>1327</ele>
        <time>2017-12-15T19:33:26Z</time>
      </trkpt>
      <trkpt lat="44.67953" lon="5.87201">
        <ele>1327</ele>
        <time>2017-12-15T19:33:41Z</time>
      </trkpt>
      <trkpt lat="44.67927" lon="5.87161">
        <ele>1328</ele>
        <time>2017-12-15T19:33:53Z</time>
      </trkpt>
      <trkpt lat="44.67925" lon="5.87149">
        <ele>1326</ele>
        <time>2017-12-15T19:34:12Z</time>
      </trkpt>
      <trkpt lat="44.6791" lon="5.87115">
        <ele>1330</ele>
        <time>2017-12-15T19:34:29Z</time>
      </trkpt>
      <trkpt lat="44.67877" lon="5.87065">
        <ele>1327</ele>
        <time>2017-12-15T19:34:33Z</time>
      </trkpt>
      <trkpt lat="44.67882" lon="5.87054">
        <ele>1326</ele>
        <time>2017-12-15T19:34:45Z</time>
      </trkpt>
      <trkpt lat="44.67901" lon="5.87063">
        <ele>1325</ele>
        <time>2017-12-15T19:34:52Z</time>
      </trkpt>
      <trkpt lat="44.67918" lon="5.87072">
        <ele>1322</ele>
        <time>2017-12-15T19:34:54Z</time>
      </trkpt>
      <trkpt lat="44.67965" lon="5.87105">
        <ele>1321</ele>
        <time>2017-12-15T19:35:07Z</time>
      </trkpt>
      <trkpt lat="44.68011" lon="5.87143">
        <ele>1313</ele>
        <time>2017-12-15T19:35:22Z</time>
      </trkpt>
      <trkpt lat="44.68135" lon="5.87242">
        <ele>1305</ele>
        <time>2017-12-15T19:35:35Z</time>
      </trkpt>
      <trkpt lat="44.68177" lon="5.8727">
        <ele>1303</ele>
        <time>2017-12-15T19:35:54Z</time>
      </trkpt>
      <trkpt lat="44.68197" lon="5.87278">
        <ele>1303</ele>
        <time>2017-12-15T19:36:04Z</time>
      </trkpt>
      <trkpt lat="44.68211" lon="5.87287">
        <ele>1302</ele>
        <time>2017-12-15T19:36:17Z</time>
      </trkpt>
      <trkpt lat="44.68236" lon="5.87316">
        <ele>1302</ele>
        <time>2017-12-15T19:36:29Z</time>
      </trkpt>
      <trkpt lat="44.68259" lon="5.87353">
        <ele>1300</ele>
        <time>2017-12-15T19:36:33Z</time>
      </trkpt>
      <trkpt lat="44.68274" lon="5.87374">
        <ele>1300</ele>
        <time>2017-12-15T19:36:41Z</time>
      </trkpt>
      <trkpt lat="44.68292" lon="5.87383">
        <ele>1300</ele>
        <time>2017-12-15T19:36:54Z</time>
      </trkpt>
      <trkpt lat="44.68322" lon="5.87391">
        <ele>1299</ele>
        <time>2017-12-15T19:37:01Z</time>
      </trkpt>
      <trkpt lat="44.68339" lon="5.87399">
        <ele>1295</ele>
        <time>2017-12-15T19:37:10Z</time>
      </trkpt>
      <trkpt lat="44.68369" lon="5.87423">
        <ele>1297</ele>
        <time>2017-12-15T19:37:16Z</time>
      </trkpt>
      <trkpt lat="44.684" lon="5.87442">
        <ele>1295</ele>
        <time>2017-12-15T19:37:23Z</time>
      </trkpt>
      <trkpt lat="44.68463" lon="5.87472">
        <ele>1290</ele>
        <time>2017-12-15T19:37:36Z</time>
      </trkpt>
      <trkpt lat="44.68563" lon="5.87524">
        <ele>1289</ele>
        <time>2017-12-15T19:37:38Z</time>
      </trkpt>
      <trkpt lat="44.68586" lon="5.87544">
        <ele>1286</ele>
        <time>2017-12-15T19:37:40Z</time>
      </trkpt>
      <trkpt lat="44.68607" lon="5.87575">
        <ele>1286</ele>
        <time>2017-12-15T19:37:47Z</time>
      </trkpt>
      <trkpt lat="44.68652" lon="5.87605">
        <ele>1288</ele>
        <time>2017-12-15T19:37:56Z</time>
      </trkpt>
      <trkpt lat="44.68707" lon="5.87634">
        <ele>1284</ele>
        <time>2017-12-15T19:38:08Z</time>
      </trkpt>
      <trkpt lat="44.68721" lon="5.87644">
        <ele>1284</ele>
        <time>2017-12-15T19:38:27Z</time>
      </trkpt>
      <trkpt lat="44.68752" lon="5.87672">
        <ele>1284</ele>
        <time>2017-12-15T19:38:42Z</time>
      </trkpt>
      <trkpt lat="44.68801" lon="5.87717">
        <ele>1284</ele>
        <time>2017-12-15T19:38:55Z</time>
      </trkpt>
      <trkpt lat="44.68829" lon="5.87734">
        <ele>1283</ele>
        <time>2017-12-15T19:39:04Z</time>
      </trkpt>
      <trkpt lat="44.68859" lon="5.87745">
        <ele>1278</ele>
        <time>2017-12-15T19:39:12Z</time>
      </trkpt>
      <trkpt lat="44.6889" lon="5.87752">
        <ele>1280</ele>
        <time>2017-12-15T19:39:18Z</time>
      </trkpt>
      <trkpt lat="44.68921" lon="5.87767">
        <ele>1275</ele>
        <time>2017-12-15T19:39:33Z</time>
      </trkpt>
      <trkpt lat="44.68948" lon="5.87785">
        <ele>1274</ele>
        <time>2017-12-15T19:39:50Z</time>
      </trkpt>
      <trkpt lat="44.69053" lon="5.8787">
        <ele>1271</ele>
        <time>2017-12-15T19:39:58Z</time>
      </trkpt>
      <trkpt lat="44.69145" lon="5.87941">
        <ele>1268</ele>
        <time>2017-12-15T19:40:05Z</time>
      </trkpt>
      <trkpt lat="44.69177" lon="5.87974">
        <ele>1264</ele>
        <time>2017-12-15T19:40:18Z</time>
      </trkpt>
      <trkpt lat="44.69237" lon="5.8804">
        <ele>1267</ele>
        <time>2017-12-15T19:40:26Z</time>
      </trkpt>
      <trkpt lat="44.69261" lon="5.8807">
        <ele>1264</ele>
        <time>2017-12-15T19:40:30Z</time>
      </trkpt>
      <trkpt lat="44.69281" lon="5.8809">
        <ele>1268</ele>
        <time>2017-12-15T19:40:40Z</time>
      </trkpt>
      <trkpt lat="44.69308" lon="5.8811">
        <ele>1267</ele>
        <time>2017-12-15T19:40:50Z</time>
      </trkpt>
      <trkpt lat="44.69374" lon="5.88163">
        <ele>1263</ele>
        <time>2017-12-15T19:41:07Z</time>
      </trkpt>
      <trkpt lat="44.69391" lon="5.88173">
        <ele>1266</ele>
        <time>2017-12-15T19:41:20Z</time>
      </trkpt>
      <trkpt lat="44.69402" lon="5.88176">
        <ele>1265</ele>
        <time>2017-12-15T19:41:33Z</time>
      </trkpt>
      <trkpt lat="44.69416" lon="5.88189">
        <ele>1266</ele>
        <time>2017-12-15T19:41:45Z</time>
      </trkpt>
      <trkpt lat="44.69429" lon="5.88205">
        <ele>1263</ele>
        <time>2017-12-15T19:41:57Z</time>
      </trkpt>
      <trkpt lat="44.69453" lon="5.88218">
        <ele>1263</ele>
        <time>2017-12-15T19:42:15Z</time>
      </trkpt>
      <trkpt lat="44.6948" lon="5.88226">
        <ele>1262</ele>
        <time>2017-12-15T19:42:26Z</time>
      </trkpt>
      <trkpt lat="44.69494" lon="5.88229">
        <ele>1263</ele>
        <time>2017-12-15T19:42:32Z</time>
      </trkpt>
      <trkpt lat="44.69513" lon="5.88229">
        <ele>1258</ele>
        <time>2017-12-15T19:42:44Z</time>
      </trkpt>
      <trkpt lat="44.69537" lon="5.88233">
        <ele>1256</ele>
        <time>2017-12-15T19:43:01Z</time>
      </trkpt>
      <trkpt lat="44.69548" lon="5.88237">
        <ele>1256</ele>
        <time>2017-12-15T19:43:04Z</time>
      </trkpt>
      <trkpt lat="44.69556" lon="5.88235">
        <ele>1255</ele>
        <time>2017-12-15T19:43:08Z</time>
      </trkpt>
      <trkpt lat="44.69564" lon="5.88224">
        <ele>1255</ele>
        <time>2017-12-15T19:43:20Z</time>
      </trkpt>
      <trkpt lat="44.69553" lon="5.88214">
        <ele>1254</ele>
        <time>2017-12-15T19:43:37Z</time>
      </trkpt>
      <trkpt lat="44.69545" lon="5.88212">
        <ele>1255</ele>
        <time>2017-12-15T19:43:41Z</time>
      </trkpt>
      <trkpt lat="44.69535" lon="5.88206">
        <ele>1255</ele>
        <time>2017-12-15T19:43:48Z</time>
      </trkpt>
      <trkpt lat="44.69524" lon="5.88192">
        <ele>1254</ele>
        <time>2017-12-15T19:43:50Z</time>
      </trkpt>
      <trkpt lat="44.69496" lon="5.88132">
        <ele>1253</ele>
        <time>2017-12-15T19:44:02Z</time>
      </trkpt>
      <trkpt lat="44.69491" lon="5.88115">
        <ele>1252</ele>
        <time>2017-12-15T19:44:14Z</time>
      </trkpt>
      <trkpt lat="44.6949" lon="5.88104">
        <ele>1252</ele>
        <time>2017-12-15T19:44:31Z</time>
      </trkpt>
      <trkpt lat="44.69493" lon="5.88092">
        <ele>1250</ele>
        <time>2017-12-15T19:44:33Z</time>
      </trkpt>
      <trkpt lat="44.69551" lon="5.88094">
        <ele>1247</ele>
        <time>2017-12-15T19:44:35Z</time>
      </trkpt>
      <trkpt lat="44.6959" lon="5.88093">
        <ele>1246</ele>
        <time>2017-12-15T19:44:48Z</time>
      </trkpt>
      <trkpt lat="44.69663" lon="5.88094">
        <ele>1246</ele>
        <time>2017-12-15T19:44:52Z</time>
      </trkpt>
      <trkpt lat="44.69722" lon="5.88106">
        <ele>1246</ele>
        <time>2017-12-15T19:44:54Z</time>
      </trkpt>
      <trkpt lat="44.69774" lon="5.88123">
        <ele>1247</ele>
        <time>2017-12-15T19:44:58Z</time>
      </trkpt>
      <trkpt lat="44.69805" lon="5.88142">
        <ele>1247</ele>
        <time>2017-12-15T19:45:06Z</time>
      </trkpt>
      <trkpt lat="44.6992" lon="5.88227">
        <ele>1247</ele>
        <time>2017-12-15T19:45:24Z</time>
      </trkpt>
      <trkpt lat="44.69975" lon="5.88259">
        <ele>1242</ele>
        <time>2017-12-15T19:45:35Z</time>
      </trkpt>
      <trkpt lat="44.70005" lon="5.88278">
        <ele>1244</ele>
        <time>2017-12-15T19:45:39Z</time>
      </trkpt>
      <trkpt lat="44.70038" lon="5.88304">
        <ele>1243</ele>
        <time>2017-12-15T19:45:48Z</time>
      </trkpt>
      <trkpt lat="44.70065" lon="5.88318">
        <ele>1243</ele>
        <time>2017-12-15T19:45:55Z</time>
      </trkpt>
      <trkpt lat="44.7012" lon="5.88339">
        <ele>1239</ele>
        <time>2017-12-15T19:46:15Z</time>
      </trkpt>
      <trkpt lat="44.70168" lon="5.88351">
        <ele>1242</ele>
        <time>2017-12-15T19:46:18Z</time>
      </trkpt>
      <trkpt lat="44.70225" lon="5.88366">
        <ele>1241</ele>
        <time>2017-12-15T19:46:34Z</time>
      </trkpt>
      <trkpt lat="44.70355" lon="5.88431">
        <ele>1237</ele>
        <time>2017-12-15T19:46:36Z</time>
      </trkpt>
      <trkpt lat="44.7038" lon="5.88442">
        <ele>1238</ele>
        <time>2017-12-15T19:46:52Z</time>
      </trkpt>
      <trkpt lat="44.70392" lon="5.88451">
        <ele>1237</ele>
        <time>2017-12-15T19:47:04Z</time>
      </trkpt>
      <trkpt lat="44.70418" lon="5.88477">
        <ele>1239</ele>
        <time>2017-12-15T19:47:18Z</time>
      </trkpt>
      <trkpt lat="44.70439" lon="5.88502">
        <ele>1234</ele>
        <time>2017-12-15T19:47:24Z</time>
      </trkpt>
      <trkpt lat="44.70454" lon="5.88531">
        <ele>1235</ele>
        <time>2017-12-15T19:47:38Z</time>
      </trkpt>
      <trkpt lat="44.70462" lon="5.88564">
        <ele>1234</ele>
        <time>2017-12-15T19:47:42Z</time>
      </trkpt>
      <trkpt lat="44.70469" lon="5.88584">
        <ele>1232</ele>
        <time>2017-12-15T19:48:02Z</time>
      </trkpt>
      <trkpt lat="44.70478" lon="5.88598">
        <ele>1232</ele>
        <time>2017-12-15T19:48:12Z</time>
      </trkpt>
      <trkpt lat="44.70494" lon="5.88621">
        <ele>1231</ele>
        <time>2017-12-15T19:48:28Z</time>
      </trkpt>
      <trkpt lat="44.70507" lon="5.88653">
        <ele>1231</ele>
        <time>2017-12-15T19:48:35Z</time>
      </trkpt>
      <trkpt lat="44.7052" lon="5.88678">
        <ele>1229</ele>
        <time>2017-12-15T19:48:52Z</time>
      </trkpt>
      <trkpt lat="44.70541" lon="5.88698">
        <ele>1231</ele>
        <time>2017-12-15T19:49:05Z</time>
      </trkpt>
      <trkpt lat="44.70554" lon="5.88714">
        <ele>1231</ele>
        <time>2017-12-15T19:49:25Z</time>
      </trkpt>
      <trkpt lat="44.7056" lon="5.88727">
        <ele>1231</ele>
        <time>2017-12-15T19:49:37Z</time>
      </trkpt>
      <trkpt lat="44.70562" lon="5.8874">
        <ele>1231</ele>
        <time>2017-12-15T19:49:49Z</time>
      </trkpt>
      <trkpt lat="44.70565" lon="5.88753">
        <ele>1229</ele>
        <time>2017-12-15T19:50:06Z</time>
      </trkpt>
      <trkpt lat="44.70571" lon="5.88764">
        <ele>1229</ele>
        <time>2017-12-15T19:50:15Z</time>
      </trkpt>
      <trkpt lat="44.70578" lon="5.88774">
        <ele>1229</ele>
        <time>2017-12-15T19:50:17Z</time>
      </trkpt>
      <trkpt lat="44.70595" lon="5.88782">
        <ele>1233</ele>
        <time>2017-12-15T19:50:35Z</time>
      </trkpt>
      <trkpt lat="44.70615" lon="5.88796">
        <ele>1234</ele>
        <time>2017-12-15T19:50:44Z</time>
      </trkpt>
      <trkpt lat="44.70626" lon="5.88809">
        <ele>1234</ele>
        <time>2017-12-15T19:50:59Z</time>
      </trkpt>
      <trkpt lat="44.70631" lon="5.88822">
        <ele>1234</ele>
        <time>2017-12-15T19:51:12Z</time>
      </trkpt>
      <trkpt lat="44.70637" lon="5.88851">
        <ele>1229</ele>
        <time>2017-12-15T19:51:29Z</time>
      </trkpt>
      <trkpt lat="44.70644" lon="5.88886">
        <ele>1228</ele>
        <time>2017-12-15T19:51:38Z</time>
      </trkpt>
      <trkpt lat="44.70651" lon="5.88903">
        <ele>1228</ele>
        <time>2017-12-15T19:51:58Z</time>
      </trkpt>
      <trkpt lat="44.70671" lon="5.88924">
        <ele>1228</ele>
        <time>2017-12-15T19:52:14Z</time>
      </trkpt>
      <trkpt lat="44.70686" lon="5.88943">
        <ele>1227</ele>
        <time>2017-12-15T19:52:25Z</time>
      </trkpt>
      <trkpt lat="44.70697" lon="5.88958">
        <ele>1226</ele>
        <time>2017-12-15T19:52:43Z</time>
      </trkpt>
      <trkpt lat="44.70709" lon="5.88966">
        <ele>1226</ele>
        <time>2017-12-15T19:52:46Z</time>
      </trkpt>
      <trkpt lat="44.70737" lon="5.88973">
        <ele>1226</ele>
        <time>2017-12-15T19:52:54Z</time>
      </trkpt>
      <trkpt lat="44.70757" lon="5.88981">
        <ele>1230</ele>
        <time>2017-12-15T19:53:13Z</time>
      </trkpt>
      <trkpt lat="44.70786" lon="5.89003">
        <ele>1223</ele>
        <time>2017-12-15T19:53:20Z</time>
      </trkpt>
      <trkpt lat="44.7082" lon="5.89043">
        <ele>1221</ele>
        <time>2017-12-15T19:53:37Z</time>
      </trkpt>
      <trkpt lat="44.70836" lon="5.8907">
        <ele>1219</ele>
        <time>2017-12-15T19:53:49Z</time>
      </trkpt>
      <trkpt lat="44.70853" lon="5.8909">
        <ele>1214</ele>
        <time>2017-12-15T19:54:09Z</time>
      </trkpt>
      <trkpt lat="44.7087" lon="5.89101">
        <ele>1214</ele>
        <time>2017-12-15T19:54:12Z</time>
      </trkpt>
      <trkpt lat="44.70919" lon="5.89115">
        <ele>1213</ele>
        <time>2017-12-15T19:54:19Z</time>
      </trkpt>
      <trkpt lat="44.70972" lon="5.89128">
        <ele>1211</ele>
        <time>2017-12-15T19:54:24Z</time>
      </trkpt>
      <trkpt lat="44.71003" lon="5.89131">
        <ele>1207</ele>
        <time>2017-12-15T19:54:33Z</time>
      </trkpt>
      <trkpt lat="44.71027" lon="5.89133">
        <ele>1206</ele>
        <time>2017-12-15T19:54:40Z</time>
      </trkpt>
      <trkpt lat="44.71052" lon="5.89142">
        <ele>1204</ele>
        <time>2017-12-15T19:54:47Z</time>
      </trkpt>
      <trkpt lat="44.71075" lon="5.89148">
        <ele>1201</ele>
        <time>2017-12-15T19:55:03Z</time>
      </trkpt>
      <trkpt lat="44.71097" lon="5.89148">
        <ele>1196</ele>
        <time>2017-12-15T19:55:16Z</time>
      </trkpt>
      <trkpt lat="44.71118" lon="5.89141">
        <ele>1195</ele>
        <time>2017-12-15T19:55:20Z</time>
      </trkpt>
      <trkpt lat="44.71125" lon="5.89136">
        <ele>1195</ele>
        <time>2017-12-15T19:55:28Z</time>
      </trkpt>
      <trkpt lat="44.7115" lon="5.89122">
        <ele>1195</ele>
        <time>2017-12-15T19:55:45Z</time>
      </trkpt>
      <trkpt lat="44.71161" lon="5.89119">
        <ele>1195</ele>
        <time>2017-12-15T19:55:55Z</time>
      </trkpt>
      <trkpt lat="44.71184" lon="5.89117">
        <ele>1189</ele>
        <time>2017-12-15T19:56:01Z</time>
      </trkpt>
      <trkpt lat="44.71203" lon="5.89112">
        <ele>1189</ele>
        <time>2017-12-15T19:56:15Z</time>
      </trkpt>
      <trkpt lat="44.71226" lon="5.8911">
        <ele>1188</ele>
        <time>2017-12-15T19:56:32Z</time>
      </trkpt>
      <trkpt lat="44.71239" lon="5.89109">
        <ele>1188</ele>
        <time>2017-12-15T19:56:39Z</time>
      </trkpt>
      <trkpt lat="44.71257" lon="5.89093">
        <ele>1187</ele>
        <time>2017-12-15T19:56:46Z</time>
      </trkpt>
      <trkpt lat="44.71273" lon="5.89077">
        <ele>1192</ele>
        <time>2017-12-15T19:56:56Z</time>
      </trkpt>
      <trkpt lat="44.71284" lon="5.8907">
        <ele>1191</ele>
        <time>2017-12-15T19:57:09Z</time>
      </trkpt>
      <trkpt lat="44.7132" lon="5.8906">
        <ele>1187</ele>
        <time>2017-12-15T19:57:26Z</time>
      </trkpt>
      <trkpt lat="44.71334" lon="5.89057">
        <ele>1177</ele>
        <time>2017-12-15T19:57:46Z</time>
      </trkpt>
      <trkpt lat="44.71353" lon="5.89058">
        <ele>1176</ele>
        <time>2017-12-15T19:58:02Z</time>
      </trkpt>
      <trkpt lat="44.71368" lon="5.89059">
        <ele>1174</ele>
        <time>2017-12-15T19:58:06Z</time>
      </trkpt>
      <trkpt lat="44.71381" lon="5.89051">
        <ele>1173</ele>
        <time>2017-12-15T19:58:15Z</time>
      </trkpt>
      <trkpt lat="44.71392" lon="5.89038">
        <ele>1172</ele>
        <time>2017-12-15T19:58:24Z</time>
      </trkpt>
      <trkpt lat="44.71408" lon="5.89002">
        <ele>1170</ele>
        <time>2017-12-15T19:58:28Z</time>
      </trkpt>
      <trkpt lat="44.71432" lon="5.88953">
        <ele>1162</ele>
        <time>2017-12-15T19:58:30Z</time>
      </trkpt>
      <trkpt lat="44.71444" lon="5.88929">
        <ele>1162</ele>
        <time>2017-12-15T19:58:33Z</time>
      </trkpt>
      <trkpt lat="44.71451" lon="5.88904">
        <ele>1161</ele>
        <time>2017-12-15T19:58:42Z</time>
      </trkpt>
      <trkpt lat="44.71453" lon="5.88872">
        <ele>1159</ele>
        <time>2017-12-15T19:58:45Z</time>
      </trkpt>
      <trkpt lat="44.71452" lon="5.88839">
        <ele>1159</ele>
        <time>2017-12-15T19:58:53Z</time>
      </trkpt>
      <trkpt lat="44.71447" lon="5.88814">
        <ele>1153</ele>
        <time>2017-12-15T19:59:12Z</time>
      </trkpt>
      <trkpt lat="44.71434" lon="5.88791">
        <ele>1153</ele>
        <time>2017-12-15T19:59:31Z</time>
      </trkpt>
      <trkpt lat="44.71417" lon="5.88748">
        <ele>1155</ele>
        <time>2017-12-15T19:59:49Z</time>
      </trkpt>
      <trkpt lat="44.71401" lon="5.88692">
        <ele>1156</ele>
        <time>2017-12-15T20:00:03Z</time>
      </trkpt>
      <trkpt lat="44.71389" lon="5.88661">
        <ele>1151</ele>
        <time>2017-12-15T20:00:14Z</time>
      </trkpt>
      <trkpt lat="44.71372" lon="5.88628">
        <ele>1154</ele>
        <time>2017-12-15T20:00:20Z</time>
      </trkpt>
      <trkpt lat="44.71362" lon="5.886">
        <ele>1154</ele>
        <time>2017-12-15T20:00:32Z</time>
      </trkpt>
      <trkpt lat="44.71362" lon="5.88585">
        <ele>1154</ele>
        <time>2017-12-15T20:00:48Z</time>
      </trkpt>
      <trkpt lat="44.7137" lon="5.88591">
        <ele>1154</ele>
        <time>2017-12-15T20:00:58Z</time>
      </trkpt>
      <trkpt lat="44.71426" lon="5.88648">
        <ele>1146</ele>
        <time>2017-12-15T20:01:03Z</time>
      </trkpt>
      <trkpt lat="44.71446" lon="5.88662">
        <ele>1146</ele>
        <time>2017-12-15T20:01:07Z</time>
      </trkpt>
      <trkpt lat="44.71481" lon="5.88668">
        <ele>1142</ele>
        <time>2017-12-15T20:01:14Z</time>
      </trkpt>
      <trkpt lat="44.715" lon="5.88675">
        <ele>1140</ele>
        <time>2017-12-15T20:01:16Z</time>
      </trkpt>
      <trkpt lat="44.71508" lon="5.88681">
        <ele>1139</ele>
        <time>2017-12-15T20:01:23Z</time>
      </trkpt>
      <trkpt lat="44.71522" lon="5.887">
        <ele>1137</ele>
        <time>2017-12-15T20:01:37Z</time>
      </trkpt>
      <trkpt lat="44.71537" lon="5.88717">
        <ele>1135</ele>
        <time>2017-12-15T20:01:53Z</time>
      </trkpt>
      <trkpt lat="44.71551" lon="5.88728">
        <ele>1134</ele>
        <time>2017-12-15T20:02:10Z</time>
      </trkpt>
      <trkpt lat="44.71571" lon="5.88735">
        <ele>1131</ele>
        <time>2017-12-15T20:02:19Z</time>
      </trkpt>
      <trkpt lat="44.71601" lon="5.88734">
        <ele>1131</ele>
        <time>2017-12-15T20:02:39Z</time>
      </trkpt>
      <trkpt lat="44.71642" lon="5.88726">
        <ele>1132</ele>
        <time>2017-12-15T20:02:57Z</time>
      </trkpt>
      <trkpt lat="44.71663" lon="5.88729">
        <ele>1130</ele>
        <time>2017-12-15T20:03:00Z</time>
      </trkpt>
      <trkpt lat="44.71685" lon="5.88734">
        <ele>1129</ele>
        <time>2017-12-15T20:03:17Z</time>
      </trkpt>
      <trkpt lat="44.71697" lon="5.88742">
        <ele>1130</ele>
        <time>2017-12-15T20:03:31Z</time>
      </trkpt>
      <trkpt lat="44.71721" lon="5.88765">
        <ele>1118</ele>
        <time>2017-12-15T20:03:46Z</time>
      </trkpt>
      <trkpt lat="44.71742" lon="5.88773">
        <ele>1119</ele>
        <time>2017-12-15T20:03:52Z</time>
      </trkpt>
      <trkpt lat="44.71757" lon="5.88788">
        <ele>1117</ele>
        <time>2017-12-15T20:04:03Z</time>
      </trkpt>
      <trkpt lat="44.71773" lon="5.88812">
        <ele>1115</ele>
        <time>2017-12-15T20:04:10Z</time>
      </trkpt>
      <trkpt lat="44.71792" lon="5.88831">
        <ele>1115</ele>
        <time>2017-12-15T20:04:28Z</time>
      </trkpt>
      <trkpt lat="44.71801" lon="5.88835">
        <ele>1109</ele>
        <time>2017-12-15T20:04:43Z</time>
      </trkpt>
      <trkpt lat="44.71807" lon="5.88835">
        <ele>1109</ele>
        <time>2017-12-15T20:04:48Z</time>
      </trkpt>
      <trkpt lat="44.71819" lon="5.88832">
        <ele>1114</ele>
        <time>2017-12-15T20:04:58Z</time>
      </trkpt>
      <trkpt lat="44.71832" lon="5.88824">
        <ele>1114</ele>
        <time>2017-12-15T20:05:07Z</time>
      </trkpt>
      <trkpt lat="44.71845" lon="5.88822">
        <ele>1121</ele>
        <time>2017-12-15T20:05:17Z</time>
      </trkpt>
      <trkpt lat="44.71849" lon="5.88823">
        <ele>1122</ele>
        <time>2017-12-15T20:05:34Z</time>
      </trkpt>
      <trkpt lat="44.71853" lon="5.88826">
        <ele>1123</ele>
        <time>2017-12-15T20:05:45Z</time>
      </trkpt>
      <trkpt lat="44.71855" lon="5.88834">
        <ele>1118</ele>
        <time>2017-12-15T20:05:54Z</time>
      </trkpt>
      <trkpt lat="44.71867" lon="5.88877">
        <ele>1119</ele>
        <time>2017-12-15T20:06:05Z</time>
      </trkpt>
      <trkpt lat="44.71879" lon="5.88897">
        <ele>1120</ele>
        <time>2017-12-15T20:06:24Z</time>
      </trkpt>
      <trkpt lat="44.71892" lon="5.88933">
        <ele>1114</ele>
        <time>2017-12-15T20:06:37Z</time>
      </trkpt>
      <trkpt lat="44.719" lon="5.88952">
        <ele>1112</ele>
        <time>2017-12-15T20:06:41Z</time>
      </trkpt>
      <trkpt lat="44.71917" lon="5.8898">
        <ele>1122</ele>
        <time>2017-12-15T20:06:59Z</time>
      </trkpt>
      <trkpt lat="44.71974" lon="5.89077">
        <ele>1116</ele>
        <time>2017-12-15T20:07:18Z</time>
      </trkpt>
      <trkpt lat="44.72008" lon="5.89137">
        <ele>1115</ele>
        <time>2017-12-15T20:07:20Z</time>
      </trkpt>
      <trkpt lat="44.72048" lon="5.89188">
        <ele>1106</ele>
        <time>2017-12-15T20:07:22Z</time>
      </trkpt>
      <trkpt lat="44.72118" lon="5.89268">
        <ele>1103</ele>
        <time>2017-12-15T20:07:39Z</time>
      </trkpt>
      <trkpt lat="44.72141" lon="5.89292">
        <ele>1104</ele>
        <time>2017-12-15T20:07:44Z</time>
      </trkpt>
      <trkpt lat="44.72188" lon="5.89335">
        <ele>1100</ele>
        <time>2017-12-15T20:07:59Z</time>
      </trkpt>
      <trkpt lat="44.72218" lon="5.8938">
        <ele>1102</ele>
        <time>2017-12-15T20:08:06Z</time>
      </trkpt>
      <trkpt lat="44.72235" lon="5.89415">
        <ele>1103</ele>
        <time>2017-12-15T20:08:10Z</time>
      </trkpt>
      <trkpt lat="44.72249" lon="5.8945">
        <ele>1099</ele>
        <time>2017-12-15T20:08:18Z</time>
      </trkpt>
      <trkpt lat="44.7227" lon="5.89482">
        <ele>1107</ele>
        <time>2017-12-15T20:08:22Z</time>
      </trkpt>
      <trkpt lat="44.72288" lon="5.89518">
        <ele>1101</ele>
        <time>2017-12-15T20:08:35Z</time>
      </trkpt>
      <trkpt lat="44.72298" lon="5.89536">
        <ele>1101</ele>
        <time>2017-12-15T20:08:46Z</time>
      </trkpt>
      <trkpt lat="44.72306" lon="5.89545">
        <ele>1100</ele>
        <time>2017-12-15T20:08:54Z</time>
      </trkpt>
      <trkpt lat="44.72335" lon="5.89567">
        <ele>1106</ele>
        <time>2017-12-15T20:08:59Z</time>
      </trkpt>
      <trkpt lat="44.72359" lon="5.8958">
        <ele>1110</ele>
        <time>2017-12-15T20:09:02Z</time>
      </trkpt>
      <trkpt lat="44.72434" lon="5.89627">
        <ele>1106</ele>
        <time>2017-12-15T20:09:09Z</time>
      </trkpt>
      <trkpt lat="44.72455" lon="5.89639">
        <ele>1105</ele>
        <time>2017-12-15T20:09:22Z</time>
      </trkpt>
      <trkpt lat="44.72473" lon="5.89645">
        <ele>1104</ele>
        <time>2017-12-15T20:09:40Z</time>
      </trkpt>
      <trkpt lat="44.72511" lon="5.89658">
        <ele>1105</ele>
        <time>2017-12-15T20:09:55Z</time>
      </trkpt>
      <trkpt lat="44.72543" lon="5.89668">
        <ele>1093</ele>
        <time>2017-12-15T20:10:03Z</time>
      </trkpt>
      <trkpt lat="44.7258" lon="5.89686">
        <ele>1096</ele>
        <time>2017-12-15T20:10:07Z</time>
      </trkpt>
      <trkpt lat="44.72602" lon="5.89696">
        <ele>1096</ele>
        <time>2017-12-15T20:10:14Z</time>
      </trkpt>
      <trkpt lat="44.72623" lon="5.8971">
        <ele>1093</ele>
        <time>2017-12-15T20:10:17Z</time>
      </trkpt>
      <trkpt lat="44.72644" lon="5.89718">
        <ele>1091</ele>
        <time>2017-12-15T20:10:33Z</time>
      </trkpt>
      <trkpt lat="44.7267" lon="5.8972">
        <ele>1091</ele>
        <time>2017-12-15T20:10:37Z</time>
      </trkpt>
      <trkpt lat="44.72692" lon="5.89725">
        <ele>1090</ele>
        <time>2017-12-15T20:10:43Z</time>
      </trkpt>
      <trkpt lat="44.72703" lon="5.89729">
        <ele>1090</ele>
        <time>2017-12-15T20:10:48Z</time>
      </trkpt>
      <trkpt lat="44.72717" lon="5.8973">
        <ele>1089</ele>
        <time>2017-12-15T20:10:52Z</time>
      </trkpt>
      <trkpt lat="44.72738" lon="5.89729">
        <ele>1087</ele>
        <time>2017-12-15T20:11:03Z</time>
      </trkpt>
      <trkpt lat="44.72749" lon="5.89727">
        <ele>1087</ele>
        <time>2017-12-15T20:11:10Z</time>
      </trkpt>
      <trkpt lat="44.72765" lon="5.89726">
        <ele>1086</ele>
        <time>2017-12-15T20:11:23Z</time>
      </trkpt>
      <trkpt lat="44.72788" lon="5.89731">
        <ele>1085</ele>
        <time>2017-12-15T20:11:40Z</time>
      </trkpt>
      <trkpt lat="44.72798" lon="5.89732">
        <ele>1084</ele>
        <time>2017-12-15T20:11:43Z</time>
      </trkpt>
      <trkpt lat="44.7281" lon="5.89728">
        <ele>1084</ele>
        <time>2017-12-15T20:12:02Z</time>
      </trkpt>
      <trkpt lat="44.72831" lon="5.89719">
        <ele>1085</ele>
        <time>2017-12-15T20:12:10Z</time>
      </trkpt>
      <trkpt lat="44.7284" lon="5.89716">
        <ele>1082</ele>
        <time>2017-12-15T20:12:15Z</time>
      </trkpt>
      <trkpt lat="44.72851" lon="5.89718">
        <ele>1082</ele>
        <time>2017-12-15T20:12:23Z</time>
      </trkpt>
      <trkpt lat="44.72892" lon="5.89729">
        <ele>1078</ele>
        <time>2017-12-15T20:12:38Z</time>
      </trkpt>
      <trkpt lat="44.72906" lon="5.89732">
        <ele>1076</ele>
        <time>2017-12-15T20:12:54Z</time>
      </trkpt>
      <trkpt lat="44.72916" lon="5.89731">
        <ele>1075</ele>
        <time>2017-12-15T20:12:58Z</time>
      </trkpt>
      <trkpt lat="44.7294" lon="5.89714">
        <ele>1071</ele>
        <time>2017-12-15T20:13:16Z</time>
      </trkpt>
      <trkpt lat="44.72966" lon="5.89693">
        <ele>1070</ele>
        <time>2017-12-15T20:13:34Z</time>
      </trkpt>
      <trkpt lat="44.73002" lon="5.89667">
        <ele>1067</ele>
        <time>2017-12-15T20:13:52Z</time>
      </trkpt>
      <trkpt lat="44.73045" lon="5.89648">
        <ele>1072</ele>
        <time>2017-12-15T20:14:00Z</time>
      </trkpt>
      <trkpt lat="44.73087" lon="5.89639">
        <ele>1064</ele>
        <time>2017-12-15T20:14:04Z</time>
      </trkpt>
      <trkpt lat="44.73136" lon="5.89634">
        <ele>1063</ele>
        <time>2017-12-15T20:14:17Z</time>
      </trkpt>
      <trkpt lat="44.73182" lon="5.89627">
        <ele>1055</ele>
        <time>2017-12-15T20:14:35Z</time>
      </trkpt>
      <trkpt lat="44.73186" lon="5.89628">
        <ele>1055</ele>
        <time>2017-12-15T20:14:47Z</time>
      </trkpt>
      <trkpt lat="44.73189" lon="5.89632">
        <ele>1054</ele>
        <time>2017-12-15T20:14:51Z</time>
      </trkpt>
      <trkpt lat="44.73205" lon="5.89623">
        <ele>1054</ele>
        <time>2017-12-15T20:14:55Z</time>
      </trkpt>
      <trkpt lat="44.73243" lon="5.89598">
        <ele>1052</ele>
        <time>2017-12-15T20:15:00Z</time>
      </trkpt>
      <trkpt lat="44.73275" lon="5.8956">
        <ele>1054</ele>
        <time>2017-12-15T20:15:17Z</time>
      </trkpt>
      <trkpt lat="44.73289" lon="5.89546">
        <ele>1054</ele>
        <time>2017-12-15T20:15:34Z</time>
      </trkpt>
      <trkpt lat="44.73298" lon="5.89541">
        <ele>1054</ele>
        <time>2017-12-15T20:15:47Z</time>
      </trkpt>
      <trkpt lat="44.73313" lon="5.89539">
        <ele>1053</ele>
        <time>2017-12-15T20:15:54Z</time>
      </trkpt>
      <trkpt lat="44.73329" lon="5.89542">
        <ele>1052</ele>
        <time>2017-12-15T20:16:00Z</time>
      </trkpt>
      <trkpt lat="44.73346" lon="5.89552">
        <ele>1042</ele>
        <time>2017-12-15T20:16:06Z</time>
      </trkpt>
      <trkpt lat="44.73374" lon="5.89568">
        <ele>1040</ele>
        <time>2017-12-15T20:16:24Z</time>
      </trkpt>
      <trkpt lat="44.73382" lon="5.89571">
        <ele>1039</ele>
        <time>2017-12-15T20:16:32Z</time>
      </trkpt>
      <trkpt lat="44.73391" lon="5.8957">
        <ele>1039</ele>
        <time>2017-12-15T20:16:44Z</time>
      </trkpt>
      <trkpt lat="44.73413" lon="5.89563">
        <ele>1037</ele>
        <time>2017-12-15T20:17:00Z</time>
      </trkpt>
      <trkpt lat="44.73419" lon="5.89558">
        <ele>1034</ele>
        <time>2017-12-15T20:17:04Z</time>
      </trkpt>
      <trkpt lat="44.73423" lon="5.89546">
        <ele>1035</ele>
        <time>2017-12-15T20:17:20Z</time>
      </trkpt>
      <trkpt lat="44.73432" lon="5.89516">
        <ele>1038</ele>
        <time>2017-12-15T20:17:26Z</time>
      </trkpt>
      <trkpt lat="44.73442" lon="5.89492">
        <ele>1043</ele>
        <time>2017-12-15T20:17:43Z</time>
      </trkpt>
      <trkpt lat="44.7346" lon="5.89476">
        <ele>1043</ele>
        <time>2017-12-15T20:17:50Z</time>
      </trkpt>
      <trkpt lat="44.73506" lon="5.89449">
        <ele>1038</ele>
        <time>2017-12-15T20:17:57Z</time>
      </trkpt>
      <trkpt lat="44.73525" lon="5.8944">
        <ele>1038</ele>
        <time>2017-12-15T20:18:05Z</time>
      </trkpt>
      <trkpt lat="44.73551" lon="5.89436">
        <ele>1037</ele>
        <time>2017-12-15T20:18:09Z</time>
      </trkpt>
      <trkpt lat="44.73559" lon="5.89438">
        <ele>1036</ele>
        <time>2017-12-15T20:18:13Z</time>
      </trkpt>
      <trkpt lat="44.73579" lon="5.89452">
        <ele>1035</ele>
        <time>2017-12-15T20:18:17Z</time>
      </trkpt>
      <trkpt lat="44.73598" lon="5.8947">
        <ele>1032</ele>
        <time>2017-12-15T20:18:20Z</time>
      </trkpt>
      <trkpt lat="44.73614" lon="5.89478">
        <ele>1032</ele>
        <time>2017-12-15T20:18:31Z</time>
      </trkpt>
      <trkpt lat="44.73625" lon="5.89476">
        <ele>1032</ele>
        <time>2017-12-15T20:18:37Z</time>
      </trkpt>
      <trkpt lat="44.73635" lon="5.89465">
        <ele>1032</ele>
        <time>2017-12-15T20:18:52Z</time>
      </trkpt>
      <trkpt lat="44.73639" lon="5.89452">
        <ele>1031</ele>
        <time>2017-12-15T20:18:59Z</time>
      </trkpt>
      <trkpt lat="44.73639" lon="5.89439">
        <ele>1031</ele>
        <time>2017-12-15T20:19:13Z</time>
      </trkpt>
      <trkpt lat="44.73638" lon="5.89404">
        <ele>1031</ele>
        <time>2017-12-15T20:19:24Z</time>
      </trkpt>
      <trkpt lat="44.73639" lon="5.89388">
        <ele>1031</ele>
        <time>2017-12-15T20:19:39Z</time>
      </trkpt>
      <trkpt lat="44.73646" lon="5.89359">
        <ele>1030</ele>
        <time>2017-12-15T20:19:50Z</time>
      </trkpt>
      <trkpt lat="44.73727" lon="5.8919">
        <ele>1029</ele>
        <time>2017-12-15T20:19:52Z</time>
      </trkpt>
      <trkpt lat="44.73747" lon="5.89156">
        <ele>1031</ele>
        <time>2017-12-15T20:20:06Z</time>
      </trkpt>
      <trkpt lat="44.73759" lon="5.89142">
        <ele>1028</ele>
        <time>2017-12-15T20:20:11Z</time>
      </trkpt>
      <trkpt lat="44.73776" lon="5.8913">
        <ele>1030</ele>
        <time>2017-12-15T20:20:17Z</time>
      </trkpt>
      <trkpt lat="44.73788" lon="5.89127">
        <ele>1030</ele>
        <time>2017-12-15T20:20:27Z</time>
      </trkpt>
      <trkpt lat="44.73807" lon="5.89128">
        <ele>1029</ele>
        <time>2017-12-15T20:20:43Z</time>
      </trkpt>
      <trkpt lat="44.73828" lon="5.89139">
        <ele>1026</ele>
        <time>2017-12-15T20:21:02Z</time>
      </trkpt>
      <trkpt lat="44.73841" lon="5.8915">
        <ele>1024</ele>
        <time>2017-12-15T20:21:15Z</time>
      </trkpt>
      <trkpt lat="44.73859" lon="5.89173">
        <ele>1016</ele>
        <time>2017-12-15T20:21:33Z</time>
      </trkpt>
      <trkpt lat="44.73871" lon="5.89186">
        <ele>1016</ele>
        <time>2017-12-15T20:21:43Z</time>
      </trkpt>
      <trkpt lat="44.7389" lon="5.89199">
        <ele>1016</ele>
        <time>2017-12-15T20:21:47Z</time>
      </trkpt>
      <trkpt lat="44.73923" lon="5.89198">
        <ele>1019</ele>
        <time>2017-12-15T20:21:50Z</time>
      </trkpt>
      <trkpt lat="44.73943" lon="5.89197">
        <ele>1020</ele>
        <time>2017-12-15T20:22:00Z</time>
      </trkpt>
      <trkpt lat="44.73964" lon="5.89192">
        <ele>1021</ele>
        <time>2017-12-15T20:22:11Z</time>
      </trkpt>
      <trkpt lat="44.74018" lon="5.89172">
        <ele>1026</ele>
        <time>2017-12-15T20:22:25Z</time>
      </trkpt>
      <trkpt lat="44.74075" lon="5.89159">
        <ele>1030</ele>
        <time>2017-12-15T20:22:32Z</time>
      </trkpt>
      <trkpt lat="44.74116" lon="5.89145">
        <ele>1026</ele>
        <time>2017-12-15T20:22:43Z</time>
      </trkpt>
      <trkpt lat="44.74148" lon="5.89134">
        <ele>1023</ele>
        <time>2017-12-15T20:22:50Z</time>
      </trkpt>
      <trkpt lat="44.74171" lon="5.89123">
        <ele>1010</ele>
        <time>2017-12-15T20:22:52Z</time>
      </trkpt>
      <trkpt lat="44.74206" lon="5.89096">
        <ele>1008</ele>
        <time>2017-12-15T20:23:04Z</time>
      </trkpt>
      <trkpt lat="44.74239" lon="5.89065">
        <ele>1016</ele>
        <time>2017-12-15T20:23:08Z</time>
      </trkpt>
      <trkpt lat="44.74257" lon="5.89052">
        <ele>1003</ele>
        <time>2017-12-15T20:23:13Z</time>
      </trkpt>
      <trkpt lat="44.74269" lon="5.89052">
        <ele>1003</ele>
        <time>2017-12-15T20:23:27Z</time>
      </trkpt>
      <trkpt lat="44.74281" lon="5.89065">
        <ele>1001</ele>
        <time>2017-12-15T20:23:32Z</time>
      </trkpt>
      <trkpt lat="44.74286" lon="5.89072">
        <ele>1001</ele>
        <time>2017-12-15T20:23:45Z</time>
      </trkpt>
      <trkpt lat="44.74295" lon="5.89077">
        <ele>1000</ele>
        <time>2017-12-15T20:24:05Z</time>
      </trkpt>
      <trkpt lat="44.743" lon="5.89075">
        <ele>1000</ele>
        <time>2017-12-15T20:24:18Z</time>
      </trkpt>
      <trkpt lat="44.7433" lon="5.89058">
        <ele>1000</ele>
        <time>2017-12-15T20:24:24Z</time>
      </trkpt>
      <trkpt lat="44.74354" lon="5.89044">
        <ele>1008</ele>
        <time>2017-12-15T20:24:44Z</time>
      </trkpt>
      <trkpt lat="44.74383" lon="5.89023">
        <ele>1008</ele>
        <time>2017-12-15T20:24:55Z</time>
      </trkpt>
      <trkpt lat="44.74399" lon="5.88998">
        <ele>996</ele>
        <time>2017-12-15T20:25:12Z</time>
      </trkpt>
      <trkpt lat="44.74414" lon="5.88965">
        <ele>996</ele>
        <time>2017-12-15T20:25:30Z</time>
      </trkpt>
      <trkpt lat="44.74427" lon="5.88924">
        <ele>992</ele>
        <time>2017-12-15T20:25:42Z</time>
      </trkpt>
      <trkpt lat="44.74431" lon="5.88895">
        <ele>989</ele>
        <time>2017-12-15T20:25:48Z</time>
      </trkpt>
      <trkpt lat="44.74442" lon="5.88844">
        <ele>996</ele>
        <time>2017-12-15T20:26:06Z</time>
      </trkpt>
      <trkpt lat="44.74453" lon="5.88821">
        <ele>1009</ele>
        <time>2017-12-15T20:26:25Z</time>
      </trkpt>
      <trkpt lat="44.74468" lon="5.88805">
        <ele>1007</ele>
        <time>2017-12-15T20:26:32Z</time>
      </trkpt>
      <trkpt lat="44.74488" lon="5.88796">
        <ele>1002</ele>
        <time>2017-12-15T20:26:38Z</time>
      </trkpt>
      <trkpt lat="44.74515" lon="5.88791">
        <ele>987</ele>
        <time>2017-12-15T20:26:43Z</time>
      </trkpt>
      <trkpt lat="44.74545" lon="5.88793">
        <ele>990</ele>
        <time>2017-12-15T20:26:47Z</time>
      </trkpt>
      <trkpt lat="44.74561" lon="5.88787">
        <ele>990</ele>
        <time>2017-12-15T20:26:50Z</time>
      </trkpt>
      <trkpt lat="44.7458" lon="5.88772">
        <ele>986</ele>
        <time>2017-12-15T20:26:56Z</time>
      </trkpt>
      <trkpt lat="44.746" lon="5.8875">
        <ele>996</ele>
        <time>2017-12-15T20:27:10Z</time>
      </trkpt>
      <trkpt lat="44.74633" lon="5.88698">
        <ele>986</ele>
        <time>2017-12-15T20:27:19Z</time>
      </trkpt>
      <trkpt lat="44.74677" lon="5.88673">
        <ele>990</ele>
        <time>2017-12-15T20:27:38Z</time>
      </trkpt>
      <trkpt lat="44.74689" lon="5.88662">
        <ele>979</ele>
        <time>2017-12-15T20:27:58Z</time>
      </trkpt>
      <trkpt lat="44.74717" lon="5.88611">
        <ele>973</ele>
        <time>2017-12-15T20:28:11Z</time>
      </trkpt>
      <trkpt lat="44.74718" lon="5.88608">
        <ele>972</ele>
        <time>2017-12-15T20:28:22Z</time>
      </trkpt>
      <trkpt lat="44.74719" lon="5.88595">
        <ele>969</ele>
        <time>2017-12-15T20:28:40Z</time>
      </trkpt>
      <trkpt lat="44.74725" lon="5.88579">
        <ele>957</ele>
        <time>2017-12-15T20:28:50Z</time>
      </trkpt>
      <trkpt lat="44.74751" lon="5.88541">
        <ele>945</ele>
        <time>2017-12-15T20:28:57Z</time>
      </trkpt>
      <trkpt lat="44.74764" lon="5.88533">
        <ele>945</ele>
        <time>2017-12-15T20:29:09Z</time>
      </trkpt>
      <trkpt lat="44.74781" lon="5.88533">
        <ele>944</ele>
        <time>2017-12-15T20:29:25Z</time>
      </trkpt>
      <trkpt lat="44.74804" lon="5.88524">
        <ele>941</ele>
        <time>2017-12-15T20:29:35Z</time>
      </trkpt>
      <trkpt lat="44.74811" lon="5.8852">
        <ele>940</ele>
        <time>2017-12-15T20:29:39Z</time>
      </trkpt>
      <trkpt lat="44.74837" lon="5.88525">
        <ele>939</ele>
        <time>2017-12-15T20:29:53Z</time>
      </trkpt>
      <trkpt lat="44.74866" lon="5.8853">
        <ele>943</ele>
        <time>2017-12-15T20:30:06Z</time>
      </trkpt>
      <trkpt lat="44.74896" lon="5.88522">
        <ele>943</ele>
        <time>2017-12-15T20:30:18Z</time>
      </trkpt>
      <trkpt lat="44.74952" lon="5.88492">
        <ele>936</ele>
        <time>2017-12-15T20:30:23Z</time>
      </trkpt>
      <trkpt lat="44.74962" lon="5.88489">
        <ele>935</ele>
        <time>2017-12-15T20:30:43Z</time>
      </trkpt>
      <trkpt lat="44.74982" lon="5.88493">
        <ele>932</ele>
        <time>2017-12-15T20:30:48Z</time>
      </trkpt>
      <trkpt lat="44.75008" lon="5.88508">
        <ele>926</ele>
        <time>2017-12-15T20:31:02Z</time>
      </trkpt>
      <trkpt lat="44.75057" lon="5.88499">
        <ele>926</ele>
        <time>2017-12-15T20:31:19Z</time>
      </trkpt>
      <trkpt lat="44.75085" lon="5.88496">
        <ele>924</ele>
        <time>2017-12-15T20:31:38Z</time>
      </trkpt>
      <trkpt lat="44.75089" lon="5.88493">
        <ele>923</ele>
        <time>2017-12-15T20:31:45Z</time>
      </trkpt>
      <trkpt lat="44.75092" lon="5.88486">
        <ele>923</ele>
        <time>2017-12-15T20:31:52Z</time>
      </trkpt>
      <trkpt lat="44.75097" lon="5.88467">
        <ele>923</ele>
        <time>2017-12-15T20:32:10Z</time>
      </trkpt>
      <trkpt lat="44.75101" lon="5.88412">
        <ele>929</ele>
        <time>2017-12-15T20:32:24Z</time>
      </trkpt>
      <trkpt lat="44.75108" lon="5.88379">
        <ele>933</ele>
        <time>2017-12-15T20:32:40Z</time>
      </trkpt>
      <trkpt lat="44.75115" lon="5.88357">
        <ele>936</ele>
        <time>2017-12-15T20:32:47Z</time>
      </trkpt>
      <trkpt lat="44.7512" lon="5.88351">
        <ele>936</ele>
        <time>2017-12-15T20:33:03Z</time>
      </trkpt>
      <trkpt lat="44.75132" lon="5.88342">
        <ele>936</ele>
        <time>2017-12-15T20:33:21Z</time>
      </trkpt>
      <trkpt lat="44.7515" lon="5.88341">
        <ele>936</ele>
        <time>2017-12-15T20:33:31Z</time>
      </trkpt>
      <trkpt lat="44.75204" lon="5.88357">
        <ele>933</ele>
        <time>2017-12-15T20:33:36Z</time>
      </trkpt>
      <trkpt lat="44.75256" lon="5.88369">
        <ele>934</ele>
        <time>2017-12-15T20:33:47Z</time>
      </trkpt>
      <trkpt lat="44.75298" lon="5.88376">
        <ele>933</ele>
        <time>2017-12-15T20:33:50Z</time>
      </trkpt>
      <trkpt lat="44.75312" lon="5.88373">
        <ele>934</ele>
        <time>2017-12-15T20:34:06Z</time>
      </trkpt>
      <trkpt lat="44.75331" lon="5.88372">
        <ele>934</ele>
        <time>2017-12-15T20:34:24Z</time>
      </trkpt>
      <trkpt lat="44.75353" lon="5.88374">
        <ele>936</ele>
        <time>2017-12-15T20:34:35Z</time>
      </trkpt>
      <trkpt lat="44.75389" lon="5.88379">
        <ele>936</ele>
        <time>2017-12-15T20:34:43Z</time>
      </trkpt>
      <trkpt lat="44.75457" lon="5.88383">
        <ele>945</ele>
        <time>2017-12-15T20:34:54Z</time>
      </trkpt>
      <trkpt lat="44.75484" lon="5.88389">
        <ele>946</ele>
        <time>2017-12-15T20:34:58Z</time>
      </trkpt>
      <trkpt lat="44.755" lon="5.88397">
        <ele>955</ele>
        <time>2017-12-15T20:35:13Z</time>
      </trkpt>
      <trkpt lat="44.75512" lon="5.88408">
        <ele>952</ele>
        <time>2017-12-15T20:35:27Z</time>
      </trkpt>
      <trkpt lat="44.7552" lon="5.88418">
        <ele>943</ele>
        <time>2017-12-15T20:35:31Z</time>
      </trkpt>
      <trkpt lat="44.75529" lon="5.88441">
        <ele>944</ele>
        <time>2017-12-15T20:35:35Z</time>
      </trkpt>
      <trkpt lat="44.75544" lon="5.88497">
        <ele>943</ele>
        <time>2017-12-15T20:35:37Z</time>
      </trkpt>
      <trkpt lat="44.75553" lon="5.8851">
        <ele>933</ele>
        <time>2017-12-15T20:35:49Z</time>
      </trkpt>
      <trkpt lat="44.75566" lon="5.88521">
        <ele>934</ele>
        <time>2017-12-15T20:35:51Z</time>
      </trkpt>
      <trkpt lat="44.75625" lon="5.88552">
        <ele>942</ele>
        <time>2017-12-15T20:36:06Z</time>
      </trkpt>
      <trkpt lat="44.75648" lon="5.88558">
        <ele>941</ele>
        <time>2017-12-15T20:36:23Z</time>
      </trkpt>
      <trkpt lat="44.75665" lon="5.88557">
        <ele>941</ele>
        <time>2017-12-15T20:36:41Z</time>
      </trkpt>
      <trkpt lat="44.75684" lon="5.88551">
        <ele>939</ele>
        <time>2017-12-15T20:36:59Z</time>
      </trkpt>
      <trkpt lat="44.75706" lon="5.88544">
        <ele>939</ele>
        <time>2017-12-15T20:37:07Z</time>
      </trkpt>
      <trkpt lat="44.75712" lon="5.8854">
        <ele>939</ele>
        <time>2017-12-15T20:37:26Z</time>
      </trkpt>
      <trkpt lat="44.75723" lon="5.88522">
        <ele>941</ele>
        <time>2017-12-15T20:37:46Z</time>
      </trkpt>
      <trkpt lat="44.75747" lon="5.8849">
        <ele>957</ele>
        <time>2017-12-15T20:38:04Z</time>
      </trkpt>
      <trkpt lat="44.758" lon="5.88462">
        <ele>959</ele>
        <time>2017-12-15T20:38:12Z</time>
      </trkpt>
      <trkpt lat="44.75835" lon="5.88453">
        <ele>957</ele>
        <time>2017-12-15T20:38:16Z</time>
      </trkpt>
      <trkpt lat="44.75862" lon="5.88457">
        <ele>956</ele>
        <time>2017-12-15T20:38:27Z</time>
      </trkpt>
      <trkpt lat="44.75916" lon="5.88483">
        <ele>949</ele>
        <time>2017-12-15T20:38:42Z</time>
      </trkpt>
      <trkpt lat="44.75984" lon="5.88514">
        <ele>944</ele>
        <time>2017-12-15T20:38:57Z</time>
      </trkpt>
      <trkpt lat="44.76014" lon="5.8852">
        <ele>955</ele>
        <time>2017-12-15T20:39:01Z</time>
      </trkpt>
      <trkpt lat="44.76041" lon="5.88531">
        <ele>956</ele>
        <time>2017-12-15T20:39:12Z</time>
      </trkpt>
      <trkpt lat="44.76054" lon="5.88535">
        <ele>957</ele>
        <time>2017-12-15T20:39:15Z</time>
      </trkpt>
      <trkpt lat="44.7607" lon="5.88535">
        <ele>960</ele>
        <time>2017-12-15T20:39:30Z</time>
      </trkpt>
      <trkpt lat="44.76076" lon="5.88537">
        <ele>960</ele>
        <time>2017-12-15T20:39:42Z</time>
      </trkpt>
      <trkpt lat="44.76084" lon="5.88544">
        <ele>981</ele>
        <time>2017-12-15T20:39:58Z</time>
      </trkpt>
      <trkpt lat="44.76089" lon="5.8855">
        <ele>980</ele>
        <time>2017-12-15T20:40:05Z</time>
      </trkpt>
      <trkpt lat="44.76104" lon="5.88607">
        <ele>965</ele>
        <time>2017-12-15T20:40:20Z</time>
      </trkpt>
      <trkpt lat="44.76114" lon="5.88629">
        <ele>965</ele>
        <time>2017-12-15T20:40:24Z</time>
      </trkpt>
      <trkpt lat="44.76135" lon="5.88656">
        <ele>967</ele>
        <time>2017-12-15T20:40:37Z</time>
      </trkpt>
      <trkpt lat="44.76172" lon="5.88703">
        <ele>976</ele>
        <time>2017-12-15T20:40:51Z</time>
      </trkpt>
      <trkpt lat="44.76195" lon="5.88719">
        <ele>978</ele>
        <time>2017-12-15T20:41:09Z</time>
      </trkpt>
      <trkpt lat="44.762" lon="5.88725">
        <ele>978</ele>
        <time>2017-12-15T20:41:15Z</time>
      </trkpt>
      <trkpt lat="44.76212" lon="5.8877">
        <ele>969</ele>
        <time>2017-12-15T20:41:19Z</time>
      </trkpt>
      <trkpt lat="44.76224" lon="5.88804">
        <ele>970</ele>
        <time>2017-12-15T20:41:34Z</time>
      </trkpt>
      <trkpt lat="44.7623" lon="5.88833">
        <ele>973</ele>
        <time>2017-12-15T20:41:52Z</time>
      </trkpt>
      <trkpt lat="44.76236" lon="5.88864">
        <ele>959</ele>
        <time>2017-12-15T20:42:08Z</time>
      </trkpt>
      <trkpt lat="44.76247" lon="5.88884">
        <ele>956</ele>
        <time>2017-12-15T20:42:20Z</time>
      </trkpt>
      <trkpt lat="44.76271" lon="5.88897">
        <ele>978</ele>
        <time>2017-12-15T20:42:39Z</time>
      </trkpt>
      <trkpt lat="44.76309" lon="5.88923">
        <ele>972</ele>
        <time>2017-12-15T20:42:41Z</time>
      </trkpt>
      <trkpt lat="44.76345" lon="5.88948">
        <ele>993</ele>
        <time>2017-12-15T20:42:57Z</time>
      </trkpt>
      <trkpt lat="44.76368" lon="5.88972">
        <ele>993</ele>
        <time>2017-12-15T20:43:12Z</time>
      </trkpt>
      <trkpt lat="44.76382" lon="5.88998">
        <ele>994</ele>
        <time>2017-12-15T20:43:28Z</time>
      </trkpt>
      <trkpt lat="44.76398" lon="5.89041">
        <ele>973</ele>
        <time>2017-12-15T20:43:32Z</time>
      </trkpt>
      <trkpt lat="44.76408" lon="5.89056">
        <ele>972</ele>
        <time>2017-12-15T20:43:34Z</time>
      </trkpt>
      <trkpt lat="44.76441" lon="5.89096">
        <ele>978</ele>
        <time>2017-12-15T20:43:42Z</time>
      </trkpt>
      <trkpt lat="44.76483" lon="5.89131">
        <ele>982</ele>
        <time>2017-12-15T20:43:54Z</time>
      </trkpt>
      <trkpt lat="44.76498" lon="5.89147">
        <ele>982</ele>
        <time>2017-12-15T20:44:02Z</time>
      </trkpt>
      <trkpt lat="44.76526" lon="5.89182">
        <ele>985</ele>
        <time>2017-12-15T20:44:20Z</time>
      </trkpt>
      <trkpt lat="44.76547" lon="5.89209">
        <ele>985</ele>
        <time>2017-12-15T20:44:28Z</time>
      </trkpt>
      <trkpt lat="44.76581" lon="5.89259">
        <ele>979</ele>
        <time>2017-12-15T20:44:31Z</time>
      </trkpt>
      <trkpt lat="44.76594" lon="5.89271">
        <ele>986</ele>
        <time>2017-12-15T20:44:49Z</time>
      </trkpt>
      <trkpt lat="44.76638" lon="5.89297">
        <ele>986</ele>
        <time>2017-12-15T20:44:56Z</time>
      </trkpt>
      <trkpt lat="44.7666" lon="5.89314">
        <ele>987</ele>
        <time>2017-12-15T20:45:07Z</time>
      </trkpt>
      <trkpt lat="44.76681" lon="5.89335">
        <ele>987</ele>
        <time>2017-12-15T20:45:21Z</time>
      </trkpt>
      <trkpt lat="44.76729" lon="5.89388">
        <ele>984</ele>
        <time>2017-12-15T20:45:25Z</time>
      </trkpt>
      <trkpt lat="44.76742" lon="5.89395">
        <ele>984</ele>
        <time>2017-12-15T20:45:27Z</time>
      </trkpt>
      <trkpt lat="44.76751" lon="5.89396">
        <ele>992</ele>
        <time>2017-12-15T20:45:46Z</time>
      </trkpt>
      <trkpt lat="44.76805" lon="5.89402">
        <ele>997</ele>
        <time>2017-12-15T20:46:01Z</time>
      </trkpt>
      <trkpt lat="44.76857" lon="5.89416">
        <ele>1000</ele>
        <time>2017-12-15T20:46:16Z</time>
      </trkpt>
      <trkpt lat="44.7687" lon="5.89417">
        <ele>987</ele>
        <time>2017-12-15T20:46:34Z</time>
      </trkpt>
      <trkpt lat="44.76876" lon="5.89415">
        <ele>1001</ele>
        <time>2017-12-15T20:46:40Z</time>
      </trkpt>
      <trkpt lat="44.76896" lon="5.89402">
        <ele>1002</ele>
        <time>2017-12-15T20:46:43Z</time>
      </trkpt>
      <trkpt lat="44.76904" lon="5.89398">
        <ele>1002</ele>
        <time>2017-12-15T20:46:59Z</time>
      </trkpt>
      <trkpt lat="44.76907" lon="5.89398">
        <ele>1002</ele>
        <time>2017-12-15T20:47:08Z</time>
      </trkpt>
      <trkpt lat="44.76918" lon="5.89406">
        <ele>1003</ele>
        <time>2017-12-15T20:47:16Z</time>
      </trkpt>
      <trkpt lat="44.76919" lon="5.89409">
        <ele>1002</ele>
        <time>2017-12-15T20:47:24Z</time>
      </trkpt>
      <trkpt lat="44.76928" lon="5.89439">
        <ele>996</ele>
        <time>2017-12-15T20:47:32Z</time>
      </trkpt>
      <trkpt lat="44.76935" lon="5.89516">
        <ele>981</ele>
        <time>2017-12-15T20:47:42Z</time>
      </trkpt>
      <trkpt lat="44.7694" lon="5.89552">
        <ele>979</ele>
        <time>2017-12-15T20:47:49Z</time>
      </trkpt>
      <trkpt lat="44.76951" lon="5.89567">
        <ele>979</ele>
        <time>2017-12-15T20:48:09Z</time>
      </trkpt>
      <trkpt lat="44.76995" lon="5.896">
        <ele>979</ele>
        <time>2017-12-15T20:48:24Z</time>
      </trkpt>
      <trkpt lat="44.77012" lon="5.89623">
        <ele>991</ele>
        <time>2017-12-15T20:48:29Z</time>
      </trkpt>
      <trkpt lat="44.77023" lon="5.89644">
        <ele>990</ele>
        <time>2017-12-15T20:48:36Z</time>
      </trkpt>
      <trkpt lat="44.77046" lon="5.89723">
        <ele>986</ele>
        <time>2017-12-15T20:48:48Z</time>
      </trkpt>
      <trkpt lat="44.77048" lon="5.89759">
        <ele>985</ele>
        <time>2017-12-15T20:48:54Z</time>
      </trkpt>
      <trkpt lat="44.77041" lon="5.89786">
        <ele>983</ele>
        <time>2017-12-15T20:48:58Z</time>
      </trkpt>
      <trkpt lat="44.77028" lon="5.89818">
        <ele>978</ele>
        <time>2017-12-15T20:49:15Z</time>
      </trkpt>
      <trkpt lat="44.77025" lon="5.89842">
        <ele>968</ele>
        <time>2017-12-15T20:49:33Z</time>
      </trkpt>
      <trkpt lat="44.77028" lon="5.89856">
        <ele>968</ele>
        <time>2017-12-15T20:49:37Z</time>
      </trkpt>
      <trkpt lat="44.77035" lon="5.8987">
        <ele>968</ele>
        <time>2017-12-15T20:49:47Z</time>
      </trkpt>
      <trkpt lat="44.77059" lon="5.89894">
        <ele>971</ele>
        <time>2017-12-15T20:49:52Z</time>
      </trkpt>
      <trkpt lat="44.77114" lon="5.89937">
        <ele>970</ele>
        <time>2017-12-15T20:49:54Z</time>
      </trkpt>
      <trkpt lat="44.77131" lon="5.89951">
        <ele>968</ele>
        <time>2017-12-15T20:50:04Z</time>
      </trkpt>
      <trkpt lat="44.77143" lon="5.89958">
        <ele>968</ele>
        <time>2017-12-15T20:50:10Z</time>
      </trkpt>
      <trkpt lat="44.77156" lon="5.89961">
        <ele>968</ele>
        <time>2017-12-15T20:50:25Z</time>
      </trkpt>
      <trkpt lat="44.7717" lon="5.8996">
        <ele>971</ele>
        <time>2017-12-15T20:50:31Z</time>
      </trkpt>
      <trkpt lat="44.77183" lon="5.89953">
        <ele>972</ele>
        <time>2017-12-15T20:50:40Z</time>
      </trkpt>
      <trkpt lat="44.77195" lon="5.89943">
        <ele>973</ele>
        <time>2017-12-15T20:50:51Z</time>
      </trkpt>
      <trkpt lat="44.77234" lon="5.89899">
        <ele>983</ele>
        <time>2017-12-15T20:51:00Z</time>
      </trkpt>
      <trkpt lat="44.77249" lon="5.89886">
        <ele>986</ele>
        <time>2017-12-15T20:51:12Z</time>
      </trkpt>
      <trkpt lat="44.77265" lon="5.89874">
        <ele>980</ele>
        <time>2017-12-15T20:51:16Z</time>
      </trkpt>
      <trkpt lat="44.77282" lon="5.89866">
        <ele>981</ele>
        <time>2017-12-15T20:51:29Z</time>
      </trkpt>
      <trkpt lat="44.773" lon="5.89862">
        <ele>980</ele>
        <time>2017-12-15T20:51:42Z</time>
      </trkpt>
      <trkpt lat="44.77317" lon="5.89859">
        <ele>980</ele>
        <time>2017-12-15T20:51:47Z</time>
      </trkpt>
      <trkpt lat="44.77341" lon="5.89859">
        <ele>975</ele>
        <time>2017-12-15T20:51:54Z</time>
      </trkpt>
      <trkpt lat="44.77355" lon="5.89863">
        <ele>974</ele>
        <time>2017-12-15T20:51:57Z</time>
      </trkpt>
      <trkpt lat="44.77375" lon="5.89871">
        <ele>973</ele>
        <time>2017-12-15T20:52:07Z</time>
      </trkpt>
      <trkpt lat="44.77393" lon="5.89876">
        <ele>972</ele>
        <time>2017-12-15T20:52:13Z</time>
      </trkpt>
      <trkpt lat="44.7741" lon="5.89875">
        <ele>971</ele>
        <time>2017-12-15T20:52:25Z</time>
      </trkpt>
      <trkpt lat="44.77421" lon="5.8987">
        <ele>967</ele>
        <time>2017-12-15T20:52:34Z</time>
      </trkpt>
      <trkpt lat="44.77431" lon="5.89861">
        <ele>968</ele>
        <time>2017-12-15T20:52:40Z</time>
      </trkpt>
      <trkpt lat="44.77447" lon="5.89834">
        <ele>968</ele>
        <time>2017-12-15T20:52:55Z</time>
      </trkpt>
      <trkpt lat="44.77463" lon="5.89791">
        <ele>984</ele>
        <time>2017-12-15T20:53:12Z</time>
      </trkpt>
      <trkpt lat="44.77471" lon="5.89786">
        <ele>985</ele>
        <time>2017-12-15T20:53:15Z</time>
      </trkpt>
      <trkpt lat="44.77478" lon="5.89785">
        <ele>985</ele>
        <time>2017-12-15T20:53:20Z</time>
      </trkpt>
      <trkpt lat="44.775" lon="5.89796">
        <ele>981</ele>
        <time>2017-12-15T20:53:35Z</time>
      </trkpt>
      <trkpt lat="44.77513" lon="5.89796">
        <ele>978</ele>
        <time>2017-12-15T20:53:50Z</time>
      </trkpt>
      <trkpt lat="44.7754" lon="5.8979">
        <ele>979</ele>
        <time>2017-12-15T20:54:02Z</time>
      </trkpt>
      <trkpt lat="44.77561" lon="5.8979">
        <ele>979</ele>
        <time>2017-12-15T20:54:17Z</time>
      </trkpt>
      <trkpt lat="44.77576" lon="5.89798">
        <ele>977</ele>
        <time>2017-12-15T20:54:29Z</time>
      </trkpt>
      <trkpt lat="44.77593" lon="5.89814">
        <ele>977</ele>
        <time>2017-12-15T20:54:43Z</time>
      </trkpt>
      <trkpt lat="44.77612" lon="5.89838">
        <ele>976</ele>
        <time>2017-12-15T20:54:54Z</time>
      </trkpt>
      <trkpt lat="44.77619" lon="5.89854">
        <ele>979</ele>
        <time>2017-12-15T20:55:14Z</time>
      </trkpt>
      <trkpt lat="44.77621" lon="5.89869">
        <ele>980</ele>
        <time>2017-12-15T20:55:28Z</time>
      </trkpt>
      <trkpt lat="44.77616" lon="5.89882">
        <ele>980</ele>
        <time>2017-12-15T20:55:41Z</time>
      </trkpt>
      <trkpt lat="44.77609" lon="5.89892">
        <ele>980</ele>
        <time>2017-12-15T20:55:51Z</time>
      </trkpt>
      <trkpt lat="44.77601" lon="5.899">
        <ele>978</ele>
        <time>2017-12-15T20:56:09Z</time>
      </trkpt>
      <trkpt lat="44.7759" lon="5.89904">
        <ele>977</ele>
        <time>2017-12-15T20:56:12Z</time>
      </trkpt>
      <trkpt lat="44.77579" lon="5.89905">
        <ele>969</ele>
        <time>2017-12-15T20:56:25Z</time>
      </trkpt>
      <trkpt lat="44.77563" lon="5.89903">
        <ele>967</ele>
        <time>2017-12-15T20:56:36Z</time>
      </trkpt>
      <trkpt lat="44.77555" lon="5.89903">
        <ele>965</ele>
        <time>2017-12-15T20:56:39Z</time>
      </trkpt>
      <trkpt lat="44.77549" lon="5.89906">
        <ele>965</ele>
        <time>2017-12-15T20:56:50Z</time>
      </trkpt>
      <trkpt lat="44.77544" lon="5.89911">
        <ele>964</ele>
        <time>2017-12-15T20:56:54Z</time>
      </trkpt>
      <trkpt lat="44.77537" lon="5.89923">
        <ele>964</ele>
        <time>2017-12-15T20:56:58Z</time>
      </trkpt>
      <trkpt lat="44.77525" lon="5.89961">
        <ele>964</ele>
        <time>2017-12-15T20:57:04Z</time>
      </trkpt>
      <trkpt lat="44.77503" lon="5.90001">
        <ele>960</ele>
        <time>2017-12-15T20:57:16Z</time>
      </trkpt>
      <trkpt lat="44.77496" lon="5.90012">
        <ele>956</ele>
        <time>2017-12-15T20:57:24Z</time>
      </trkpt>
      <trkpt lat="44.77485" lon="5.90043">
        <ele>954</ele>
        <time>2017-12-15T20:57:26Z</time>
      </trkpt>
      <trkpt lat="44.77472" lon="5.90093">
        <ele>955</ele>
        <time>2017-12-15T20:57:37Z</time>
      </trkpt>
      <trkpt lat="44.77466" lon="5.90121">
        <ele>953</ele>
        <time>2017-12-15T20:57:39Z</time>
      </trkpt>
      <trkpt lat="44.77459" lon="5.90167">
        <ele>958</ele>
        <time>2017-12-15T20:57:53Z</time>
      </trkpt>
      <trkpt lat="44.77449" lon="5.90214">
        <ele>959</ele>
        <time>2017-12-15T20:58:08Z</time>
      </trkpt>
      <trkpt lat="44.77432" lon="5.90268">
        <ele>964</ele>
        <time>2017-12-15T20:58:26Z</time>
      </trkpt>
      <trkpt lat="44.77415" lon="5.90331">
        <ele>955</ele>
        <time>2017-12-15T20:58:31Z</time>
      </trkpt>
      <trkpt lat="44.774" lon="5.90375">
        <ele>947</ele>
        <time>2017-12-15T20:58:49Z</time>
      </trkpt>
      <trkpt lat="44.77397" lon="5.90396">
        <ele>950</ele>
        <time>2017-12-15T20:59:06Z</time>
      </trkpt>
      <trkpt lat="44.77404" lon="5.90446">
        <ele>950</ele>
        <time>2017-12-15T20:59:24Z</time>
      </trkpt>
      <trkpt lat="44.77426" lon="5.90549">
        <ele>971</ele>
        <time>2017-12-15T20:59:34Z</time>
      </trkpt>
      <trkpt lat="44.77433" lon="5.9059">
        <ele>955</ele>
        <time>2017-12-15T20:59:42Z</time>
      </trkpt>
      <trkpt lat="44.77436" lon="5.90622">
        <ele>957</ele>
        <time>2017-12-15T20:59:53Z</time>
      </trkpt>
      <trkpt lat="44.77437" lon="5.90661">
        <ele>950</ele>
        <time>2017-12-15T20:59:58Z</time>
      </trkpt>
      <trkpt lat="44.77444" lon="5.90679">
        <ele>937</ele>
        <time>2017-12-15T21:00:06Z</time>
      </trkpt>
      <trkpt lat="44.77452" lon="5.90687">
        <ele>937</ele>
        <time>2017-12-15T21:00:08Z</time>
      </trkpt>
      <trkpt lat="44.7746" lon="5.9069">
        <ele>938</ele>
        <time>2017-12-15T21:00:14Z</time>
      </trkpt>
      <trkpt lat="44.77473" lon="5.90688">
        <ele>941</ele>
        <time>2017-12-15T21:00:29Z</time>
      </trkpt>
      <trkpt lat="44.77493" lon="5.90677">
        <ele>952</ele>
        <time>2017-12-15T21:00:49Z</time>
      </trkpt>
      <trkpt lat="44.775" lon="5.90677">
        <ele>953</ele>
        <time>2017-12-15T21:01:06Z</time>
      </trkpt>
      <trkpt lat="44.77508" lon="5.90678">
        <ele>958</ele>
        <time>2017-12-15T21:01:24Z</time>
      </trkpt>
      <trkpt lat="44.77522" lon="5.90685">
        <ele>955</ele>
        <time>2017-12-15T21:01:31Z</time>
      </trkpt>
      <trkpt lat="44.77554" lon="5.90698">
        <ele>954</ele>
        <time>2017-12-15T21:01:48Z</time>
      </trkpt>
      <trkpt lat="44.77649" lon="5.90714">
        <ele>956</ele>
        <time>2017-12-15T21:02:05Z</time>
      </trkpt>
      <trkpt lat="44.77878" lon="5.90759">
        <ele>948</ele>
        <time>2017-12-15T21:02:11Z</time>
      </trkpt>
      <trkpt lat="44.78072" lon="5.90795">
        <ele>947</ele>
        <time>2017-12-15T21:02:24Z</time>
      </trkpt>
      <trkpt lat="44.78448" lon="5.90866">
        <ele>941</ele>
        <time>2017-12-15T21:02:38Z</time>
      </trkpt>
      <trkpt lat="44.78777" lon="5.90927">
        <ele>935</ele>
        <time>2017-12-15T21:02:58Z</time>
      </trkpt>
      <trkpt lat="44.79085" lon="5.90984">
        <ele>935</ele>
        <time>2017-12-15T21:03:00Z</time>
      </trkpt>
      <trkpt lat="44.79611" lon="5.91051">
        <ele>925</ele>
        <time>2017-12-15T21:03:20Z</time>
      </trkpt>
      <trkpt lat="44.79649" lon="5.91056">
        <ele>924</ele>
        <time>2017-12-15T21:03:34Z</time>
      </trkpt>
      <trkpt lat="44.79668" lon="5.90981">
        <ele>925</ele>
        <time>2017-12-15T21:03:49Z</time>
      </trkpt>
      <trkpt lat="44.79709" lon="5.90851">
        <ele>925</ele>
        <time>2017-12-15T21:03:53Z</time>
      </trkpt>
      <trkpt lat="44.79741" lon="5.90749">
        <ele>925</ele>
        <time>2017-12-15T21:04:10Z</time>
      </trkpt>
      <trkpt lat="44.79752" lon="5.90713">
        <ele>927</ele>
        <time>2017-12-15T21:04:14Z</time>
      </trkpt>
      <trkpt lat="44.79761" lon="5.90693">
        <ele>927</ele>
        <time>2017-12-15T21:04:16Z</time>
      </trkpt>
      <trkpt lat="44.79773" lon="5.90676">
        <ele>928</ele>
        <time>2017-12-15T21:04:32Z</time>
      </trkpt>
      <trkpt lat="44.79789" lon="5.90666">
        <ele>933</ele>
        <time>2017-12-15T21:04:51Z</time>
      </trkpt>
      <trkpt lat="44.79819" lon="5.90664">
        <ele>934</ele>
        <time>2017-12-15T21:05:09Z</time>
      </trkpt>
      <trkpt lat="44.79858" lon="5.90667">
        <ele>934</ele>
        <time>2017-12-15T21:05:12Z</time>
      </trkpt>
      <trkpt lat="44.79871" lon="5.90671">
        <ele>934</ele>
        <time>2017-12-15T21:05:24Z</time>
      </trkpt>
      <trkpt lat="44.79886" lon="5.9068">
        <ele>935</ele>
        <time>2017-12-15T21:05:26Z</time>
      </trkpt>
      <trkpt lat="44.79916" lon="5.90712">
        <ele>935</ele>
        <time>2017-12-15T21:05:30Z</time>
      </trkpt>
      <trkpt lat="44.79933" lon="5.90734">
        <ele>939</ele>
        <time>2017-12-15T21:05:44Z</time>
      </trkpt>
      <trkpt lat="44.79948" lon="5.90768">
        <ele>935</ele>
        <time>2017-12-15T21:05:54Z</time>
      </trkpt>
      <trkpt lat="44.79955" lon="5.90783">
        <ele>935</ele>
        <time>2017-12-15T21:06:03Z</time>
      </trkpt>
      <trkpt lat="44.79965" lon="5.90789">
        <ele>935</ele>
        <time>2017-12-15T21:06:17Z</time>
      </trkpt>
      <trkpt lat="44.7998" lon="5.90798">
        <ele>935</ele>
        <time>2017-12-15T21:06:29Z</time>
      </trkpt>
      <trkpt lat="44.79994" lon="5.90798">
        <ele>935</ele>
        <time>2017-12-15T21:06:46Z</time>
      </trkpt>
      <trkpt lat="44.80004" lon="5.90794">
        <ele>936</ele>
        <time>2017-12-15T21:06:55Z</time>
      </trkpt>
      <trkpt lat="44.8001" lon="5.90789">
        <ele>936</ele>
        <time>2017-12-15T21:07:01Z</time>
      </trkpt>
      <trkpt lat="44.80044" lon="5.90754">
        <ele>938</ele>
        <time>2017-12-15T21:07:09Z</time>
      </trkpt>
      <trkpt lat="44.8014" lon="5.90661">
        <ele>945</ele>
        <time>2017-12-15T21:07:25Z</time>
      </trkpt>
      <trkpt lat="44.80368" lon="5.90443">
        <ele>937</ele>
        <time>2017-12-15T21:07:44Z</time>
      </trkpt>
      <trkpt lat="44.80518" lon="5.90298">
        <ele>926</ele>
        <time>2017-12-15T21:08:01Z</time>
      </trkpt>
      <trkpt lat="44.80554" lon="5.90254">
        <ele>926</ele>
        <time>2017-12-15T21:08:10Z</time>
      </trkpt>
      <trkpt lat="44.80574" lon="5.9022">
        <ele>922</ele>
        <time>2017-12-15T21:08:27Z</time>
      </trkpt>
      <trkpt lat="44.8059" lon="5.90186">
        <ele>921</ele>
        <time>2017-12-15T21:08:45Z</time>
      </trkpt>
      <trkpt lat="44.8061" lon="5.90131">
        <ele>919</ele>
        <time>2017-12-15T21:08:55Z</time>
      </trkpt>
      <trkpt lat="44.80633" lon="5.90023">
        <ele>916</ele>
        <time>2017-12-15T21:09:07Z</time>
      </trkpt>
      <trkpt lat="44.80679" lon="5.89782">
        <ele>915</ele>
        <time>2017-12-15T21:09:21Z</time>
      </trkpt>
      <trkpt lat="44.80687" lon="5.89747">
        <ele>914</ele>
        <time>2017-12-15T21:09:26Z</time>
      </trkpt>
      <trkpt lat="44.80693" lon="5.89736">
        <ele>914</ele>
        <time>2017-12-15T21:09:41Z</time>
      </trkpt>
      <trkpt lat="44.80692" lon="5.89711">
        <ele>913</ele>
        <time>2017-12-15T21:09:46Z</time>
      </trkpt>
      <trkpt lat="44.80722" lon="5.89558">
        <ele>910</ele>
        <time>2017-12-15T21:09:49Z</time>
      </trkpt>
      <trkpt lat="44.80746" lon="5.89442">
        <ele>909</ele>
        <time>2017-12-15T21:09:57Z</time>
      </trkpt>
      <trkpt lat="44.80782" lon="5.89337">
        <ele>909</ele>
        <time>2017-12-15T21:09:59Z</time>
      </trkpt>
      <trkpt lat="44.80939" lon="5.88891">
        <ele>908</ele>
        <time>2017-12-15T21:10:12Z</time>
      </trkpt>
      <trkpt lat="44.81013" lon="5.88677">
        <ele>906</ele>
        <time>2017-12-15T21:10:29Z</time>
      </trkpt>
      <trkpt lat="44.81028" lon="5.88644">
        <ele>907</ele>
        <time>2017-12-15T21:10:32Z</time>
      </trkpt>
      <trkpt lat="44.81093" lon="5.88531">
        <ele>902</ele>
        <time>2017-12-15T21:10:39Z</time>
      </trkpt>
      <trkpt lat="44.81131" lon="5.88462">
        <ele>907</ele>
        <time>2017-12-15T21:10:57Z</time>
      </trkpt>
      <trkpt lat="44.81156" lon="5.88412">
        <ele>908</ele>
        <time>2017-12-15T21:11:04Z</time>
      </trkpt>
      <trkpt lat="44.81171" lon="5.88376">
        <ele>904</ele>
        <time>2017-12-15T21:11:18Z</time>
      </trkpt>
      <trkpt lat="44.81198" lon="5.88275">
        <ele>908</ele>
        <time>2017-12-15T21:11:29Z</time>
      </trkpt>
      <trkpt lat="44.81221" lon="5.88183">
        <ele>907</ele>
        <time>2017-12-15T21:11:42Z</time>
      </trkpt>
      <trkpt lat="44.81226" lon="5.88149">
        <ele>907</ele>
        <time>2017-12-15T21:11:46Z</time>
      </trkpt>
      <trkpt lat="44.81226" lon="5.88133">
        <ele>907</ele>
        <time>2017-12-15T21:11:55Z</time>
      </trkpt>
      <trkpt lat="44.81221" lon="5.88116">
        <ele>908</ele>
        <time>2017-12-15T21:12:12Z</time>
      </trkpt>
      <trkpt lat="44.81202" lon="5.88072">
        <ele>907</ele>
        <time>2017-12-15T21:12:16Z</time>
      </trkpt>
      <trkpt lat="44.81157" lon="5.87972">
        <ele>910</ele>
        <time>2017-12-15T21:12:32Z</time>
      </trkpt>
      <trkpt lat="44.8111" lon="5.87877">
        <ele>907</ele>
        <time>2017-12-15T21:12:41Z</time>
      </trkpt>
      <trkpt lat="44.81087" lon="5.87829">
        <ele>909</ele>
        <time>2017-12-15T21:12:49Z</time>
      </trkpt>
      <trkpt lat="44.81081" lon="5.87805">
        <ele>923</ele>
        <time>2017-12-15T21:13:03Z</time>
      </trkpt>
      <trkpt lat="44.8108" lon="5.87781">
        <ele>924</ele>
        <time>2017-12-15T21:13:21Z</time>
      </trkpt>
      <trkpt lat="44.81087" lon="5.87704">
        <ele>902</ele>
        <time>2017-12-15T21:13:28Z</time>
      </trkpt>
      <trkpt lat="44.81092" lon="5.87647">
        <ele>902</ele>
        <time>2017-12-15T21:13:43Z</time>
      </trkpt>
      <trkpt lat="44.81092" lon="5.87614">
        <ele>899</ele>
        <time>2017-12-15T21:13:51Z</time>
      </trkpt>
      <trkpt lat="44.81086" lon="5.87574">
        <ele>902</ele>
        <time>2017-12-15T21:13:54Z</time>
      </trkpt>
      <trkpt lat="44.81086" lon="5.87539">
        <ele>895</ele>
        <time>2017-12-15T21:14:07Z</time>
      </trkpt>
      <trkpt lat="44.81085" lon="5.87395">
        <ele>896</ele>
        <time>2017-12-15T21:14:17Z</time>
      </trkpt>
      <trkpt lat="44.81081" lon="5.87291">
        <ele>903</ele>
        <time>2017-12-15T21:14:20Z</time>
      </trkpt>
      <trkpt lat="44.81075" lon="5.87274">
        <ele>900</ele>
        <time>2017-12-15T21:14:38Z</time>
      </trkpt>
      <trkpt lat="44.81057" lon="5.87249">
        <ele>890</ele>
        <time>2017-12-15T21:14:53Z</time>
      </trkpt>
      <trkpt lat="44.8103" lon="5.87225">
        <ele>892</ele>
        <time>2017-12-15T21:14:59Z</time>
      </trkpt>
      <trkpt lat="44.81003" lon="5.87207">
        <ele>892</ele>
        <time>2017-12-15T21:15:05Z</time>
      </trkpt>
      <trkpt lat="44.80981" lon="5.87182">
        <ele>903</ele>
        <time>2017-12-15T21:15:24Z</time>
      </trkpt>
      <trkpt lat="44.80937" lon="5.87115">
        <ele>890</ele>
        <time>2017-12-15T21:15:30Z</time>
      </trkpt>
      <trkpt lat="44.80925" lon="5.87098">
        <ele>889</ele>
        <time>2017-12-15T21:15:40Z</time>
      </trkpt>
      <trkpt lat="44.80902" lon="5.87076">
        <ele>888</ele>
        <time>2017-12-15T21:15:50Z</time>
      </trkpt>
      <trkpt lat="44.80872" lon="5.87047">
        <ele>886</ele>
        <time>2017-12-15T21:16:07Z</time>
      </trkpt>
      <trkpt lat="44.80856" lon="5.87037">
        <ele>886</ele>
        <time>2017-12-15T21:16:13Z</time>
      </trkpt>
      <trkpt lat="44.80842" lon="5.87035">
        <ele>886</ele>
        <time>2017-12-15T21:16:31Z</time>
      </trkpt>
      <trkpt lat="44.80801" lon="5.87036">
        <ele>894</ele>
        <time>2017-12-15T21:16:45Z</time>
      </trkpt>
      <trkpt lat="44.80731" lon="5.87034">
        <ele>899</ele>
        <time>2017-12-15T21:16:53Z</time>
      </trkpt>
      <trkpt lat="44.80704" lon="5.87027">
        <ele>899</ele>
        <time>2017-12-15T21:17:05Z</time>
      </trkpt>
      <trkpt lat="44.80688" lon="5.87015">
        <ele>897</ele>
        <time>2017-12-15T21:17:13Z</time>
      </trkpt>
      <trkpt lat="44.80679" lon="5.87005">
        <ele>895</ele>
        <time>2017-12-15T21:17:26Z</time>
      </trkpt>
      <trkpt lat="44.80673" lon="5.86992">
        <ele>892</ele>
        <time>2017-12-15T21:17:28Z</time>
      </trkpt>
      <trkpt lat="44.80673" lon="5.86978">
        <ele>893</ele>
        <time>2017-12-15T21:17:37Z</time>
      </trkpt>
      <trkpt lat="44.80675" lon="5.8697">
        <ele>894</ele>
        <time>2017-12-15T21:17:46Z</time>
      </trkpt>
      <trkpt lat="44.80681" lon="5.86961">
        <ele>895</ele>
        <time>2017-12-15T21:17:53Z</time>
      </trkpt>
      <trkpt lat="44.80692" lon="5.86954">
        <ele>895</ele>
        <time>2017-12-15T21:18:07Z</time>
      </trkpt>
      <trkpt lat="44.80752" lon="5.86946">
        <ele>894</ele>
        <time>2017-12-15T21:18:26Z</time>
      </trkpt>
      <trkpt lat="44.80765" lon="5.86942">
        <ele>894</ele>
        <time>2017-12-15T21:18:41Z</time>
      </trkpt>
      <trkpt lat="44.80789" lon="5.86917">
        <ele>894</ele>
        <time>2017-12-15T21:18:57Z</time>
      </trkpt>
      <trkpt lat="44.808" lon="5.86909">
        <ele>910</ele>
        <time>2017-12-15T21:18:59Z</time>
      </trkpt>
      <trkpt lat="44.80816" lon="5.86902">
        <ele>908</ele>
        <time>2017-12-15T21:19:07Z</time>
      </trkpt>
      <trkpt lat="44.8086" lon="5.86897">
        <ele>905</ele>
        <time>2017-12-15T21:19:16Z</time>
      </trkpt>
      <trkpt lat="44.80884" lon="5.86889">
        <ele>906</ele>
        <time>2017-12-15T21:19:35Z</time>
      </trkpt>
      <trkpt lat="44.80929" lon="5.86854">
        <ele>914</ele>
        <time>2017-12-15T21:19:51Z</time>
      </trkpt>
      <trkpt lat="44.80948" lon="5.86849">
        <ele>913</ele>
        <time>2017-12-15T21:20:09Z</time>
      </trkpt>
      <trkpt lat="44.80972" lon="5.86858">
        <ele>910</ele>
        <time>2017-12-15T21:20:19Z</time>
      </trkpt>
      <trkpt lat="44.81016" lon="5.86869">
        <ele>910</ele>
        <time>2017-12-15T21:20:25Z</time>
      </trkpt>
      <trkpt lat="44.8104" lon="5.86877">
        <ele>909</ele>
        <time>2017-12-15T21:20:42Z</time>
      </trkpt>
      <trkpt lat="44.8108" lon="5.86883">
        <ele>909</ele>
        <time>2017-12-15T21:20:52Z</time>
      </trkpt>
      <trkpt lat="44.81118" lon="5.86897">
        <ele>913</ele>
        <time>2017-12-15T21:21:03Z</time>
      </trkpt>
      <trkpt lat="44.81143" lon="5.86902">
        <ele>915</ele>
        <time>2017-12-15T21:21:18Z</time>
      </trkpt>
      <trkpt lat="44.8116" lon="5.8691">
        <ele>914</ele>
        <time>2017-12-15T21:21:32Z</time>
      </trkpt>
      <trkpt lat="44.81174" lon="5.86934">
        <ele>912</ele>
        <time>2017-12-15T21:21:39Z</time>
      </trkpt>
      <trkpt lat="44.81191" lon="5.86969">
        <ele>909</ele>
        <time>2017-12-15T21:21:56Z</time>
      </trkpt>
      <trkpt lat="44.812" lon="5.86973">
        <ele>910</ele>
        <time>2017-12-15T21:22:05Z</time>
      </trkpt>
      <trkpt lat="44.81217" lon="5.86973">
        <ele>911</ele>
        <time>2017-12-15T21:22:19Z</time>
      </trkpt>
      <trkpt lat="44.81232" lon="5.86968">
        <ele>913</ele>
        <time>2017-12-15T21:22:25Z</time>
      </trkpt>
      <trkpt lat="44.81365" lon="5.86903">
        <ele>917</ele>
        <time>2017-12-15T21:22:41Z</time>
      </trkpt>
      <trkpt lat="44.81701" lon="5.86738">
        <ele>906</ele>
        <time>2017-12-15T21:22:49Z</time>
      </trkpt>
      <trkpt lat="44.81718" lon="5.8672">
        <ele>905</ele>
        <time>2017-12-15T21:23:07Z</time>
      </trkpt>
      <trkpt lat="44.81731" lon="5.86693">
        <ele>905</ele>
        <time>2017-12-15T21:23:10Z</time>
      </trkpt>
      <trkpt lat="44.81735" lon="5.86665">
        <ele>903</ele>
        <time>2017-12-15T21:23:21Z</time>
      </trkpt>
      <trkpt lat="44.81732" lon="5.86646">
        <ele>902</ele>
        <time>2017-12-15T21:23:28Z</time>
      </trkpt>
      <trkpt lat="44.81727" lon="5.86636">
        <ele>901</ele>
        <time>2017-12-15T21:23:46Z</time>
      </trkpt>
      <trkpt lat="44.81721" lon="5.8663">
        <ele>900</ele>
        <time>2017-12-15T21:23:58Z</time>
      </trkpt>
      <trkpt lat="44.81606" lon="5.86569">
        <ele>900</ele>
        <time>2017-12-15T21:24:01Z</time>
      </trkpt>
      <trkpt lat="44.81588" lon="5.86554">
        <ele>899</ele>
        <time>2017-12-15T21:24:17Z</time>
      </trkpt>
      <trkpt lat="44.81548" lon="5.86526">
        <ele>898</ele>
        <time>2017-12-15T21:24:30Z</time>
      </trkpt>
      <trkpt lat="44.81522" lon="5.86524">
        <ele>897</ele>
        <time>2017-12-15T21:24:39Z</time>
      </trkpt>
      <trkpt lat="44.8147" lon="5.86547">
        <ele>896</ele>
        <time>2017-12-15T21:24:53Z</time>
      </trkpt>
      <trkpt lat="44.81438" lon="5.86554">
        <ele>896</ele>
        <time>2017-12-15T21:25:02Z</time>
      </trkpt>
      <trkpt lat="44.81382" lon="5.86559">
        <ele>890</ele>
        <time>2017-12-15T21:25:13Z</time>
      </trkpt>
      <trkpt lat="44.81352" lon="5.8656">
        <ele>890</ele>
        <time>2017-12-15T21:25:29Z</time>
      </trkpt>
      <trkpt lat="44.81335" lon="5.86557">
        <ele>890</ele>
        <time>2017-12-15T21:25:43Z</time>
      </trkpt>
      <trkpt lat="44.81319" lon="5.86552">
        <ele>889</ele>
        <time>2017-12-15T21:25:54Z</time>
      </trkpt>
      <trkpt lat="44.81294" lon="5.86537">
        <ele>888</ele>
        <time>2017-12-15T21:26:11Z</time>
      </trkpt>
      <trkpt lat="44.81241" lon="5.86494">
        <ele>882</ele>
        <time>2017-12-15T21:26:23Z</time>
      </trkpt>
      <trkpt lat="44.8122" lon="5.86484">
        <ele>884</ele>
        <time>2017-12-15T21:26:39Z</time>
      </trkpt>
      <trkpt lat="44.81211" lon="5.86472">
        <ele>884</ele>
        <time>2017-12-15T21:26:51Z</time>
      </trkpt>
      <trkpt lat="44.81207" lon="5.86457">
        <ele>884</ele>
        <time>2017-12-15T21:26:58Z</time>
      </trkpt>
      <trkpt lat="44.81207" lon="5.86436">
        <ele>883</ele>
        <time>2017-12-15T21:27:10Z</time>
      </trkpt>
      <trkpt lat="44.8121" lon="5.8641">
        <ele>886</ele>
        <time>2017-12-15T21:27:28Z</time>
      </trkpt>
      <trkpt lat="44.81217" lon="5.86401">
        <ele>885</ele>
        <time>2017-12-15T21:27:47Z</time>
      </trkpt>
      <trkpt lat="44.81241" lon="5.8638">
        <ele>886</ele>
        <time>2017-12-15T21:27:52Z</time>
      </trkpt>
      <trkpt lat="44.81269" lon="5.86349">
        <ele>882</ele>
        <time>2017-12-15T21:27:55Z</time>
      </trkpt>
      <trkpt lat="44.81282" lon="5.86318">
        <ele>889</ele>
        <time>2017-12-15T21:27:58Z</time>
      </trkpt>
      <trkpt lat="44.81302" lon="5.86261">
        <ele>891</ele>
        <time>2017-12-15T21:28:01Z</time>
      </trkpt>
      <trkpt lat="44.81319" lon="5.86223">
        <ele>900</ele>
        <time>2017-12-15T21:28:21Z</time>
      </trkpt>
      <trkpt lat="44.81332" lon="5.86205">
        <ele>901</ele>
        <time>2017-12-15T21:28:31Z</time>
      </trkpt>
      <trkpt lat="44.81363" lon="5.86182">
        <ele>898</ele>
        <time>2017-12-15T21:28:47Z</time>
      </trkpt>
      <trkpt lat="44.8142" lon="5.8614">
        <ele>907</ele>
        <time>2017-12-15T21:29:04Z</time>
      </trkpt>
      <trkpt lat="44.81438" lon="5.86128">
        <ele>909</ele>
        <time>2017-12-15T21:29:10Z</time>
      </trkpt>
      <trkpt lat="44.81452" lon="5.86123">
        <ele>910</ele>
        <time>2017-12-15T21:29:28Z</time>
      </trkpt>
      <trkpt lat="44.81493" lon="5.86122">
        <ele>911</ele>
        <time>2017-12-15T21:29:38Z</time>
      </trkpt>
      <trkpt lat="44.81516" lon="5.86123">
        <ele>912</ele>
        <time>2017-12-15T21:29:57Z</time>
      </trkpt>
      <trkpt lat="44.81545" lon="5.86116">
        <ele>913</ele>
        <time>2017-12-15T21:30:13Z</time>
      </trkpt>
      <trkpt lat="44.81593" lon="5.86088">
        <ele>916</ele>
        <time>2017-12-15T21:30:22Z</time>
      </trkpt>
      <trkpt lat="44.8162" lon="5.86049">
        <ele>924</ele>
        <time>2017-12-15T21:30:42Z</time>
      </trkpt>
      <trkpt lat="44.8166" lon="5.85979">
        <ele>934</ele>
        <time>2017-12-15T21:30:53Z</time>
      </trkpt>
      <trkpt lat="44.81672" lon="5.85943">
        <ele>938</ele>
        <time>2017-12-15T21:31:08Z</time>
      </trkpt>
      <trkpt lat="44.81679" lon="5.85911">
        <ele>946</ele>
        <time>2017-12-15T21:31:13Z</time>
      </trkpt>
      <trkpt lat="44.81686" lon="5.85905">
        <ele>948</ele>
        <time>2017-12-15T21:31:17Z</time>
      </trkpt>
      <trkpt lat="44.8169" lon="5.85905">
        <ele>949</ele>
        <time>2017-12-15T21:31:31Z</time>
      </trkpt>
      <trkpt lat="44.81704" lon="5.8592">
        <ele>941</ele>
        <time>2017-12-15T21:31:35Z</time>
      </trkpt>
      <trkpt lat="44.81715" lon="5.85941">
        <ele>940</ele>
        <time>2017-12-15T21:31:46Z</time>
      </trkpt>
      <trkpt lat="44.8174" lon="5.85973">
        <ele>939</ele>
        <time>2017-12-15T21:31:55Z</time>
      </trkpt>
      <trkpt lat="44.81752" lon="5.85989">
        <ele>942</ele>
        <time>2017-12-15T21:32:08Z</time>
      </trkpt>
      <trkpt lat="44.81777" lon="5.86015">
        <ele>938</ele>
        <time>2017-12-15T21:32:16Z</time>
      </trkpt>
      <trkpt lat="44.81794" lon="5.86027">
        <ele>939</ele>
        <time>2017-12-15T21:32:28Z</time>
      </trkpt>
      <trkpt lat="44.8183" lon="5.86034">
        <ele>941</ele>
        <time>2017-12-15T21:32:32Z</time>
      </trkpt>
      <trkpt lat="44.81843" lon="5.86041">
        <ele>947</ele>
        <time>2017-12-15T21:32:43Z</time>
      </trkpt>
      <trkpt lat="44.81866" lon="5.86067">
        <ele>946</ele>
        <time>2017-12-15T21:33:03Z</time>
      </trkpt>
      <trkpt lat="44.81875" lon="5.86071">
        <ele>946</ele>
        <time>2017-12-15T21:33:16Z</time>
      </trkpt>
      <trkpt lat="44.81883" lon="5.86069">
        <ele>947</ele>
        <time>2017-12-15T21:33:28Z</time>
      </trkpt>
      <trkpt lat="44.81892" lon="5.86063">
        <ele>947</ele>
        <time>2017-12-15T21:33:31Z</time>
      </trkpt>
      <trkpt lat="44.81904" lon="5.86045">
        <ele>948</ele>
        <time>2017-12-15T21:33:41Z</time>
      </trkpt>
      <trkpt lat="44.81914" lon="5.86016">
        <ele>950</ele>
        <time>2017-12-15T21:33:59Z</time>
      </trkpt>
      <trkpt lat="44.81923" lon="5.85915">
        <ele>956</ele>
        <time>2017-12-15T21:34:07Z</time>
      </trkpt>
      <trkpt lat="44.81931" lon="5.8586">
        <ele>954</ele>
        <time>2017-12-15T21:34:12Z</time>
      </trkpt>
      <trkpt lat="44.81943" lon="5.8582">
        <ele>957</ele>
        <time>2017-12-15T21:34:15Z</time>
      </trkpt>
      <trkpt lat="44.81968" lon="5.85759">
        <ele>955</ele>
        <time>2017-12-15T21:34:22Z</time>
      </trkpt>
      <trkpt lat="44.81976" lon="5.85733">
        <ele>957</ele>
        <time>2017-12-15T21:34:25Z</time>
      </trkpt>
      <trkpt lat="44.8198" lon="5.85695">
        <ele>958</ele>
        <time>2017-12-15T21:34:27Z</time>
      </trkpt>
      <trkpt lat="44.81982" lon="5.85683">
        <ele>957</ele>
        <time>2017-12-15T21:34:29Z</time>
      </trkpt>
      <trkpt lat="44.81989" lon="5.85656">
        <ele>958</ele>
        <time>2017-12-15T21:34:40Z</time>
      </trkpt>
      <trkpt lat="44.81997" lon="5.8564">
        <ele>961</ele>
        <time>2017-12-15T21:34:57Z</time>
      </trkpt>
      <trkpt lat="44.82013" lon="5.85623">
        <ele>947</ele>
        <time>2017-12-15T21:35:03Z</time>
      </trkpt>
      <trkpt lat="44.82023" lon="5.85617">
        <ele>946</ele>
        <time>2017-12-15T21:35:07Z</time>
      </trkpt>
      <trkpt lat="44.82041" lon="5.85602">
        <ele>945</ele>
        <time>2017-12-15T21:35:26Z</time>
      </trkpt>
      <trkpt lat="44.82064" lon="5.85573">
        <ele>946</ele>
        <time>2017-12-15T21:35:39Z</time>
      </trkpt>
      <trkpt lat="44.8209" lon="5.85525">
        <ele>940</ele>
        <time>2017-12-15T21:35:59Z</time>
      </trkpt>
      <trkpt lat="44.82104" lon="5.85489">
        <ele>948</ele>
        <time>2017-12-15T21:36:01Z</time>
      </trkpt>
      <trkpt lat="44.82119" lon="5.85429">
        <ele>949</ele>
        <time>2017-12-15T21:36:19Z</time>
      </trkpt>
      <trkpt lat="44.8213" lon="5.85409">
        <ele>955</ele>
        <time>2017-12-15T21:36:38Z</time>
      </trkpt>
      <trkpt lat="44.82205" lon="5.85332">
        <ele>946</ele>
        <time>2017-12-15T21:36:54Z</time>
      </trkpt>
      <trkpt lat="44.82225" lon="5.85303">
        <ele>944</ele>
        <time>2017-12-15T21:37:06Z</time>
      </trkpt>
      <trkpt lat="44.82241" lon="5.85274">
        <ele>944</ele>
        <time>2017-12-15T21:37:25Z</time>
      </trkpt>
      <trkpt lat="44.82261" lon="5.85224">
        <ele>937</ele>
        <time>2017-12-15T21:37:37Z</time>
      </trkpt>
      <trkpt lat="44.82284" lon="5.8516">
        <ele>943</ele>
        <time>2017-12-15T21:37:52Z</time>
      </trkpt>
      <trkpt lat="44.82291" lon="5.85145">
        <ele>942</ele>
        <time>2017-12-15T21:38:09Z</time>
      </trkpt>
      <trkpt lat="44.82303" lon="5.85134">
        <ele>941</ele>
        <time>2017-12-15T21:38:18Z</time>
      </trkpt>
      <trkpt lat="44.82317" lon="5.85128">
        <ele>940</ele>
        <time>2017-12-15T21:38:30Z</time>
      </trkpt>
      <trkpt lat="44.82325" lon="5.85127">
        <ele>939</ele>
        <time>2017-12-15T21:38:39Z</time>
      </trkpt>
      <trkpt lat="44.82351" lon="5.85129">
        <ele>929</ele>
        <time>2017-12-15T21:38:57Z</time>
      </trkpt>
      <trkpt lat="44.82362" lon="5.85125">
        <ele>928</ele>
        <time>2017-12-15T21:39:14Z</time>
      </trkpt>
      <trkpt lat="44.8237" lon="5.85119">
        <ele>928</ele>
        <time>2017-12-15T21:39:16Z</time>
      </trkpt>
      <trkpt lat="44.82386" lon="5.85102">
        <ele>929</ele>
        <time>2017-12-15T21:39:22Z</time>
      </trkpt>
      <trkpt lat="44.82402" lon="5.85081">
        <ele>936</ele>
        <time>2017-12-15T21:39:26Z</time>
      </trkpt>
      <trkpt lat="44.82419" lon="5.85049">
        <ele>933</ele>
        <time>2017-12-15T21:39:32Z</time>
      </trkpt>
      <trkpt lat="44.82468" lon="5.84971">
        <ele>938</ele>
        <time>2017-12-15T21:39:37Z</time>
      </trkpt>
      <trkpt lat="44.82514" lon="5.84896">
        <ele>930</ele>
        <time>2017-12-15T21:39:47Z</time>
      </trkpt>
      <trkpt lat="44.8256" lon="5.84819">
        <ele>928</ele>
        <time>2017-12-15T21:39:52Z</time>
      </trkpt>
      <trkpt lat="44.82576" lon="5.84782">
        <ele>928</ele>
        <time>2017-12-15T21:40:02Z</time>
      </trkpt>
      <trkpt lat="44.8259" lon="5.84743">
        <ele>924</ele>
        <time>2017-12-15T21:40:07Z</time>
      </trkpt>
      <trkpt lat="44.82606" lon="5.8471">
        <ele>922</ele>
        <time>2017-12-15T21:40:24Z</time>
      </trkpt>
      <trkpt lat="44.82627" lon="5.84682">
        <ele>921</ele>
        <time>2017-12-15T21:40:35Z</time>
      </trkpt>
      <trkpt lat="44.82666" lon="5.84637">
        <ele>922</ele>
        <time>2017-12-15T21:40:39Z</time>
      </trkpt>
      <trkpt lat="44.82693" lon="5.84606">
        <ele>915</ele>
        <time>2017-12-15T21:40:50Z</time>
      </trkpt>
      <trkpt lat="44.82724" lon="5.84551">
        <ele>914</ele>
        <time>2017-12-15T21:40:55Z</time>
      </trkpt>
      <trkpt lat="44.82736" lon="5.84526">
        <ele>914</ele>
        <time>2017-12-15T21:41:02Z</time>
      </trkpt>
      <trkpt lat="44.82741" lon="5.84511">
        <ele>913</ele>
        <time>2017-12-15T21:41:08Z</time>
      </trkpt>
      <trkpt lat="44.82743" lon="5.8448">
        <ele>914</ele>
        <time>2017-12-15T21:41:11Z</time>
      </trkpt>
      <trkpt lat="44.82739" lon="5.84431">
        <ele>914</ele>
        <time>2017-12-15T21:41:24Z</time>
      </trkpt>
      <trkpt lat="44.82731" lon="5.84373">
        <ele>911</ele>
        <time>2017-12-15T21:41:40Z</time>
      </trkpt>
      <trkpt lat="44.82723" lon="5.84323">
        <ele>905</ele>
        <time>2017-12-15T21:41:57Z</time>
      </trkpt>
      <trkpt lat="44.82718" lon="5.84304">
        <ele>905</ele>
        <time>2017-12-15T21:42:08Z</time>
      </trkpt>
      <trkpt lat="44.82696" lon="5.84246">
        <ele>902</ele>
        <time>2017-12-15T21:42:21Z</time>
      </trkpt>
      <trkpt lat="44.82691" lon="5.8422">
        <ele>902</ele>
        <time>2017-12-15T21:42:36Z</time>
      </trkpt>
      <trkpt lat="44.8269" lon="5.8419">
        <ele>902</ele>
        <time>2017-12-15T21:42:48Z</time>
      </trkpt>
      <trkpt lat="44.82693" lon="5.8417">
        <ele>902</ele>
        <time>2017-12-15T21:43:01Z</time>
      </trkpt>
      <trkpt lat="44.827" lon="5.84153">
        <ele>902</ele>
        <time>2017-12-15T21:43:08Z</time>
      </trkpt>
      <trkpt lat="44.82738" lon="5.8408">
        <ele>903</ele>
        <time>2017-12-15T21:43:12Z</time>
      </trkpt>
      <trkpt lat="44.82767" lon="5.84029">
        <ele>902</ele>
        <time>2017-12-15T21:43:21Z</time>
      </trkpt>
      <trkpt lat="44.82777" lon="5.84009">
        <ele>903</ele>
        <time>2017-12-15T21:43:38Z</time>
      </trkpt>
      <trkpt lat="44.82789" lon="5.83982">
        <ele>903</ele>
        <time>2017-12-15T21:43:53Z</time>
      </trkpt>
      <trkpt lat="44.8282" lon="5.83926">
        <ele>901</ele>
        <time>2017-12-15T21:44:09Z</time>
      </trkpt>
      <trkpt lat="44.82835" lon="5.83907">
        <ele>900</ele>
        <time>2017-12-15T21:44:16Z</time>
      </trkpt>
      <trkpt lat="44.82857" lon="5.83886">
        <ele>899</ele>
        <time>2017-12-15T21:44:31Z</time>
      </trkpt>
      <trkpt lat="44.82956" lon="5.83812">
        <ele>895</ele>
        <time>2017-12-15T21:44:48Z</time>
      </trkpt>
      <trkpt lat="44.82988" lon="5.83788">
        <ele>894</ele>
        <time>2017-12-15T21:45:04Z</time>
      </trkpt>
      <trkpt lat="44.82998" lon="5.8377">
        <ele>893</ele>
        <time>2017-12-15T21:45:12Z</time>
      </trkpt>
      <trkpt lat="44.83002" lon="5.83739">
        <ele>891</ele>
        <time>2017-12-15T21:45:28Z</time>
      </trkpt>
      <trkpt lat="44.82999" lon="5.83693">
        <ele>893</ele>
        <time>2017-12-15T21:45:41Z</time>
      </trkpt>
      <trkpt lat="44.82999" lon="5.83672">
        <ele>892</ele>
        <time>2017-12-15T21:45:54Z</time>
      </trkpt>
      <trkpt lat="44.83005" lon="5.83653">
        <ele>891</ele>
        <time>2017-12-15T21:46:06Z</time>
      </trkpt>
      <trkpt lat="44.83013" lon="5.83643">
        <ele>891</ele>
        <time>2017-12-15T21:46:24Z</time>
      </trkpt>
      <trkpt lat="44.8303" lon="5.83641">
        <ele>891</ele>
        <time>2017-12-15T21:46:32Z</time>
      </trkpt>
      <trkpt lat="44.83052" lon="5.83652">
        <ele>889</ele>
        <time>2017-12-15T21:46:50Z</time>
      </trkpt>
      <trkpt lat="44.83103" lon="5.83682">
        <ele>884</ele>
        <time>2017-12-15T21:47:09Z</time>
      </trkpt>
      <trkpt lat="44.8315" lon="5.83706">
        <ele>883</ele>
        <time>2017-12-15T21:47:24Z</time>
      </trkpt>
      <trkpt lat="44.83183" lon="5.83714">
        <ele>882</ele>
        <time>2017-12-15T21:47:38Z</time>
      </trkpt>
      <trkpt lat="44.83198" lon="5.83714">
        <ele>882</ele>
        <time>2017-12-15T21:47:46Z</time>
      </trkpt>
      <trkpt lat="44.8322" lon="5.83709">
        <ele>882</ele>
        <time>2017-12-15T21:48:04Z</time>
      </trkpt>
      <trkpt lat="44.83237" lon="5.83698">
        <ele>882</ele>
        <time>2017-12-15T21:48:22Z</time>
      </trkpt>
      <trkpt lat="44.83267" lon="5.8367">
        <ele>882</ele>
        <time>2017-12-15T21:48:38Z</time>
      </trkpt>
      <trkpt lat="44.83308" lon="5.83628">
        <ele>882</ele>
        <time>2017-12-15T21:48:58Z</time>
      </trkpt>
      <trkpt lat="44.83384" lon="5.83548">
        <ele>880</ele>
        <time>2017-12-15T21:49:02Z</time>
      </trkpt>
      <trkpt lat="44.8349" lon="5.83439">
        <ele>882</ele>
        <time>2017-12-15T21:49:04Z</time>
      </trkpt>
      <trkpt lat="44.83517" lon="5.83406">
        <ele>882</ele>
        <time>2017-12-15T21:49:21Z</time>
      </trkpt>
      <trkpt lat="44.8364" lon="5.83228">
        <ele>885</ele>
        <time>2017-12-15T21:49:24Z</time>
      </trkpt>
      <trkpt lat="44.83677" lon="5.83174">
        <ele>884</ele>
        <time>2017-12-15T21:49:38Z</time>
      </trkpt>
      <trkpt lat="44.83692" lon="5.83159">
        <ele>886</ele>
        <time>2017-12-15T21:49:58Z</time>
      </trkpt>
      <trkpt lat="44.83716" lon="5.83142">
        <ele>886</ele>
        <time>2017-12-15T21:50:02Z</time>
      </trkpt>
      <trkpt lat="44.83752" lon="5.83126">
        <ele>884</ele>
        <time>2017-12-15T21:50:05Z</time>
      </trkpt>
      <trkpt lat="44.83786" lon="5.83109">
        <ele>885</ele>
        <time>2017-12-15T21:50:10Z</time>
      </trkpt>
      <trkpt lat="44.83808" lon="5.83095">
        <ele>886</ele>
        <time>2017-12-15T21:50:14Z</time>
      </trkpt>
      <trkpt lat="44.83824" lon="5.83083">
        <ele>890</ele>
        <time>2017-12-15T21:50:34Z</time>
      </trkpt>
      <trkpt lat="44.83839" lon="5.83068">
        <ele>888</ele>
        <time>2017-12-15T21:50:45Z</time>
      </trkpt>
      <trkpt lat="44.83862" lon="5.83041">
        <ele>888</ele>
        <time>2017-12-15T21:50:52Z</time>
      </trkpt>
      <trkpt lat="44.83877" lon="5.83015">
        <ele>888</ele>
        <time>2017-12-15T21:51:03Z</time>
      </trkpt>
      <trkpt lat="44.83916" lon="5.8293">
        <ele>891</ele>
        <time>2017-12-15T21:51:21Z</time>
      </trkpt>
      <trkpt lat="44.83931" lon="5.82896">
        <ele>888</ele>
        <time>2017-12-15T21:51:36Z</time>
      </trkpt>
      <trkpt lat="44.83953" lon="5.82836">
        <ele>889</ele>
        <time>2017-12-15T21:51:49Z</time>
      </trkpt>
      <trkpt lat="44.83974" lon="5.82788">
        <ele>891</ele>
        <time>2017-12-15T21:51:56Z</time>
      </trkpt>
      <trkpt lat="44.84" lon="5.82747">
        <ele>888</ele>
        <time>2017-12-15T21:52:07Z</time>
      </trkpt>
      <trkpt lat="44.84027" lon="5.8272">
        <ele>888</ele>
        <time>2017-12-15T21:52:11Z</time>
      </trkpt>
      <trkpt lat="44.84057" lon="5.82698">
        <ele>887</ele>
        <time>2017-12-15T21:52:31Z</time>
      </trkpt>
      <trkpt lat="44.84087" lon="5.82661">
        <ele>887</ele>
        <time>2017-12-15T21:52:45Z</time>
      </trkpt>
      <trkpt lat="44.8411" lon="5.82627">
        <ele>889</ele>
        <time>2017-12-15T21:53:04Z</time>
      </trkpt>
      <trkpt lat="44.84146" lon="5.82561">
        <ele>894</ele>
        <time>2017-12-15T21:53:08Z</time>
      </trkpt>
      <trkpt lat="44.84169" lon="5.82531">
        <ele>892</ele>
        <time>2017-12-15T21:53:25Z</time>
      </trkpt>
      <trkpt lat="44.84188" lon="5.82507">
        <ele>892</ele>
        <time>2017-12-15T21:53:43Z</time>
      </trkpt>
      <trkpt lat="44.84227" lon="5.8245">
        <ele>894</ele>
        <time>2017-12-15T21:53:50Z</time>
      </trkpt>
      <trkpt lat="44.84269" lon="5.82384">
        <ele>892</ele>
        <time>2017-12-15T21:54:01Z</time>
      </trkpt>
      <trkpt lat="44.84289" lon="5.82353">
        <ele>891</ele>
        <time>2017-12-15T21:54:06Z</time>
      </trkpt>
      <trkpt lat="44.84302" lon="5.82324">
        <ele>892</ele>
        <time>2017-12-15T21:54:23Z</time>
      </trkpt>
      <trkpt lat="44.84316" lon="5.82285">
        <ele>893</ele>
        <time>2017-12-15T21:54:26Z</time>
      </trkpt>
      <trkpt lat="44.84333" lon="5.82224">
        <ele>897</ele>
        <time>2017-12-15T21:54:44Z</time>
      </trkpt>
      <trkpt lat="44.84355" lon="5.82139">
        <ele>892</ele>
        <time>2017-12-15T21:54:47Z</time>
      </trkpt>
      <trkpt lat="44.84369" lon="5.82063">
        <ele>894</ele>
        <time>2017-12-15T21:54:59Z</time>
      </trkpt>
      <trkpt lat="44.84396" lon="5.81857">
        <ele>899</ele>
        <time>2017-12-15T21:55:03Z</time>
      </trkpt>
      <trkpt lat="44.84401" lon="5.81808">
        <ele>901</ele>
        <time>2017-12-15T21:55:14Z</time>
      </trkpt>
      <trkpt lat="44.84399" lon="5.81778">
        <ele>902</ele>
        <time>2017-12-15T21:55:18Z</time>
      </trkpt>
      <trkpt lat="44.84395" lon="5.81751">
        <ele>902</ele>
        <time>2017-12-15T21:55:33Z</time>
      </trkpt>
      <trkpt lat="44.84384" lon="5.81702">
        <ele>901</ele>
        <time>2017-12-15T21:55:50Z</time>
      </trkpt>
      <trkpt lat="44.84377" lon="5.81658">
        <ele>900</ele>
        <time>2017-12-15T21:56:08Z</time>
      </trkpt>
      <trkpt lat="44.84375" lon="5.81632">
        <ele>900</ele>
        <time>2017-12-15T21:56:18Z</time>
      </trkpt>
      <trkpt lat="44.84376" lon="5.81605">
        <ele>900</ele>
        <time>2017-12-15T21:56:23Z</time>
      </trkpt>
      <trkpt lat="44.84386" lon="5.81528">
        <ele>900</ele>
        <time>2017-12-15T21:56:34Z</time>
      </trkpt>
      <trkpt lat="44.84429" lon="5.81226">
        <ele>899</ele>
        <time>2017-12-15T21:56:37Z</time>
      </trkpt>
      <trkpt lat="44.84433" lon="5.81172">
        <ele>899</ele>
        <time>2017-12-15T21:56:46Z</time>
      </trkpt>
      <trkpt lat="44.84497" lon="5.81179">
        <ele>897</ele>
        <time>2017-12-15T21:57:02Z</time>
      </trkpt>
      <trkpt lat="44.84512" lon="5.81176">
        <ele>896</ele>
        <time>2017-12-15T21:57:19Z</time>
      </trkpt>
      <trkpt lat="44.84524" lon="5.81168">
        <ele>895</ele>
        <time>2017-12-15T21:57:34Z</time>
      </trkpt>
      <trkpt lat="44.84539" lon="5.81144">
        <ele>894</ele>
        <time>2017-12-15T21:57:47Z</time>
      </trkpt>
      <trkpt lat="44.84547" lon="5.81115">
        <ele>893</ele>
        <time>2017-12-15T21:58:04Z</time>
      </trkpt>
      <trkpt lat="44.84551" lon="5.81079">
        <ele>892</ele>
        <time>2017-12-15T21:58:15Z</time>
      </trkpt>
      <trkpt lat="44.84559" lon="5.8103">
        <ele>891</ele>
        <time>2017-12-15T21:58:17Z</time>
      </trkpt>
      <trkpt lat="44.84579" lon="5.80946">
        <ele>888</ele>
        <time>2017-12-15T21:58:36Z</time>
      </trkpt>
      <trkpt lat="44.8459" lon="5.80883">
        <ele>885</ele>
        <time>2017-12-15T21:58:42Z</time>
      </trkpt>
      <trkpt lat="44.84592" lon="5.80799">
        <ele>883</ele>
        <time>2017-12-15T21:58:49Z</time>
      </trkpt>
      <trkpt lat="44.84591" lon="5.80667">
        <ele>883</ele>
        <time>2017-12-15T21:59:02Z</time>
      </trkpt>
      <trkpt lat="44.84596" lon="5.80591">
        <ele>881</ele>
        <time>2017-12-15T21:59:06Z</time>
      </trkpt>
      <trkpt lat="44.84607" lon="5.80505">
        <ele>879</ele>
        <time>2017-12-15T21:59:11Z</time>
      </trkpt>
      <trkpt lat="44.84615" lon="5.80462">
        <ele>878</ele>
        <time>2017-12-15T21:59:26Z</time>
      </trkpt>
      <trkpt lat="44.84621" lon="5.80427">
        <ele>878</ele>
        <time>2017-12-15T21:59:35Z</time>
      </trkpt>
      <trkpt lat="44.84621" lon="5.80405">
        <ele>877</ele>
        <time>2017-12-15T21:59:47Z</time>
      </trkpt>
      <trkpt lat="44.84617" lon="5.8035">
        <ele>876</ele>
        <time>2017-12-15T22:00:06Z</time>
      </trkpt>
      <trkpt lat="44.84612" lon="5.80272">
        <ele>873</ele>
        <time>2017-12-15T22:00:13Z</time>
      </trkpt>
      <trkpt lat="44.84615" lon="5.80227">
        <ele>872</ele>
        <time>2017-12-15T22:00:22Z</time>
      </trkpt>
      <trkpt lat="44.84625" lon="5.80182">
        <ele>872</ele>
        <time>2017-12-15T22:00:31Z</time>
      </trkpt>
      <trkpt lat="44.84662" lon="5.80087">
        <ele>872</ele>
        <time>2017-12-15T22:00:33Z</time>
      </trkpt>
      <trkpt lat="44.84678" lon="5.80037">
        <ele>871</ele>
        <time>2017-12-15T22:00:37Z</time>
      </trkpt>
      <trkpt lat="44.8469" lon="5.80007">
        <ele>871</ele>
        <time>2017-12-15T22:00:45Z</time>
      </trkpt>
      <trkpt lat="44.84716" lon="5.79957">
        <ele>870</ele>
        <time>2017-12-15T22:00:57Z</time>
      </trkpt>
      <trkpt lat="44.84726" lon="5.79944">
        <ele>870</ele>
        <time>2017-12-15T22:01:13Z</time>
      </trkpt>
      <trkpt lat="44.84735" lon="5.79942">
        <ele>870</ele>
        <time>2017-12-15T22:01:24Z</time>
      </trkpt>
      <trkpt lat="44.84743" lon="5.79943">
        <ele>870</ele>
        <time>2017-12-15T22:01:38Z</time>
      </trkpt>
      <trkpt lat="44.84751" lon="5.79948">
        <ele>869</ele>
        <time>2017-12-15T22:01:56Z</time>
      </trkpt>
      <trkpt lat="44.84769" lon="5.79954">
        <ele>869</ele>
        <time>2017-12-15T22:02:02Z</time>
      </trkpt>
      <trkpt lat="44.84778" lon="5.79953">
        <ele>869</ele>
        <time>2017-12-15T22:02:16Z</time>
      </trkpt>
      <trkpt lat="44.84791" lon="5.79945">
        <ele>869</ele>
        <time>2017-12-15T22:02:18Z</time>
      </trkpt>
      <trkpt lat="44.84804" lon="5.79927">
        <ele>868</ele>
        <time>2017-12-15T22:02:35Z</time>
      </trkpt>
      <trkpt lat="44.8481" lon="5.79905">
        <ele>867</ele>
        <time>2017-12-15T22:02:38Z</time>
      </trkpt>
      <trkpt lat="44.84809" lon="5.79883">
        <ele>867</ele>
        <time>2017-12-15T22:02:47Z</time>
      </trkpt>
      <trkpt lat="44.84801" lon="5.79849">
        <ele>866</ele>
        <time>2017-12-15T22:02:49Z</time>
      </trkpt>
      <trkpt lat="44.84799" lon="5.79831">
        <ele>865</ele>
        <time>2017-12-15T22:02:52Z</time>
      </trkpt>
      <trkpt lat="44.84803" lon="5.79793">
        <ele>865</ele>
        <time>2017-12-15T22:03:02Z</time>
      </trkpt>
      <trkpt lat="44.84813" lon="5.79734">
        <ele>865</ele>
        <time>2017-12-15T22:03:07Z</time>
      </trkpt>
      <trkpt lat="44.84822" lon="5.7969">
        <ele>865</ele>
        <time>2017-12-15T22:03:23Z</time>
      </trkpt>
      <trkpt lat="44.84828" lon="5.79671">
        <ele>865</ele>
        <time>2017-12-15T22:03:33Z</time>
      </trkpt>
      <trkpt lat="44.8484" lon="5.79657">
        <ele>865</ele>
        <time>2017-12-15T22:03:52Z</time>
      </trkpt>
      <trkpt lat="44.84852" lon="5.7965">
        <ele>865</ele>
        <time>2017-12-15T22:04:10Z</time>
      </trkpt>
      <trkpt lat="44.84881" lon="5.79641">
        <ele>865</ele>
        <time>2017-12-15T22:04:27Z</time>
      </trkpt>
      <trkpt lat="44.84912" lon="5.79629">
        <ele>865</ele>
        <time>2017-12-15T22:04:33Z</time>
      </trkpt>
      <trkpt lat="44.84943" lon="5.7961">
        <ele>863</ele>
        <time>2017-12-15T22:04:40Z</time>
      </trkpt>
      <trkpt lat="44.84964" lon="5.79594">
        <ele>863</ele>
        <time>2017-12-15T22:04:58Z</time>
      </trkpt>
      <trkpt lat="44.84967" lon="5.7959">
        <ele>863</ele>
        <time>2017-12-15T22:05:03Z</time>
      </trkpt>
      <trkpt lat="44.84971" lon="5.79593">
        <ele>863</ele>
        <time>2017-12-15T22:05:06Z</time>
      </trkpt>
      <trkpt lat="44.84976" lon="5.79593">
        <ele>863</ele>
        <time>2017-12-15T22:05:13Z</time>
      </trkpt>
      <trkpt lat="44.85028" lon="5.79584">
        <ele>861</ele>
        <time>2017-12-15T22:05:26Z</time>
      </trkpt>
      <trkpt lat="44.85251" lon="5.79547">
        <ele>859</ele>
        <time>2017-12-15T22:05:41Z</time>
      </trkpt>
      <trkpt lat="44.85327" lon="5.79533">
        <ele>859</ele>
        <time>2017-12-15T22:06:01Z</time>
      </trkpt>
      <trkpt lat="44.85437" lon="5.79495">
        <ele>860</ele>
        <time>2017-12-15T22:06:04Z</time>
      </trkpt>
      <trkpt lat="44.8548" lon="5.79478">
        <ele>861</ele>
        <time>2017-12-15T22:06:24Z</time>
      </trkpt>
      <trkpt lat="44.85522" lon="5.79464">
        <ele>860</ele>
        <time>2017-12-15T22:06:35Z</time>
      </trkpt>
      <trkpt lat="44.85561" lon="5.79453">
        <ele>861</ele>
        <time>2017-12-15T22:06:53Z</time>
      </trkpt>
      <trkpt lat="44.85608" lon="5.79434">
        <ele>859</ele>
        <time>2017-12-15T22:07:00Z</time>
      </trkpt>
      <trkpt lat="44.85695" lon="5.79401">
        <ele>862</ele>
        <time>2017-12-15T22:07:04Z</time>
      </trkpt>
      <trkpt lat="44.85726" lon="5.79388">
        <ele>861</ele>
        <time>2017-12-15T22:07:22Z</time>
      </trkpt>
      <trkpt lat="44.85757" lon="5.7939">
        <ele>857</ele>
        <time>2017-12-15T22:07:31Z</time>
      </trkpt>
      <trkpt lat="44.85772" lon="5.7939">
        <ele>857</ele>
        <time>2017-12-15T22:07:49Z</time>
      </trkpt>
      <trkpt lat="44.85777" lon="5.79388">
        <ele>857</ele>
        <time>2017-12-15T22:08:09Z</time>
      </trkpt>
      <trkpt lat="44.85791" lon="5.79376">
        <ele>858</ele>
        <time>2017-12-15T22:08:16Z</time>
      </trkpt>
      <trkpt lat="44.85811" lon="5.79357">
        <ele>861</ele>
        <time>2017-12-15T22:08:26Z</time>
      </trkpt>
      <trkpt lat="44.85826" lon="5.79351">
        <ele>863</ele>
        <time>2017-12-15T22:08:33Z</time>
      </trkpt>
      <trkpt lat="44.85849" lon="5.79354">
        <ele>862</ele>
        <time>2017-12-15T22:08:51Z</time>
      </trkpt>
      <trkpt lat="44.85863" lon="5.79364">
        <ele>860</ele>
        <time>2017-12-15T22:09:02Z</time>
      </trkpt>
      <trkpt lat="44.85867" lon="5.79369">
        <ele>860</ele>
        <time>2017-12-15T22:09:04Z</time>
      </trkpt>
      <trkpt lat="44.85872" lon="5.7938">
        <ele>858</ele>
        <time>2017-12-15T22:09:12Z</time>
      </trkpt>
      <trkpt lat="44.85874" lon="5.79402">
        <ele>856</ele>
        <time>2017-12-15T22:09:29Z</time>
      </trkpt>
      <trkpt lat="44.85874" lon="5.79441">
        <ele>843</ele>
        <time>2017-12-15T22:09:37Z</time>
      </trkpt>
      <trkpt lat="44.85879" lon="5.7946">
        <ele>842</ele>
        <time>2017-12-15T22:09:47Z</time>
      </trkpt>
      <trkpt lat="44.85886" lon="5.79469">
        <ele>841</ele>
        <time>2017-12-15T22:10:05Z</time>
      </trkpt>
      <trkpt lat="44.85896" lon="5.79475">
        <ele>841</ele>
        <time>2017-12-15T22:10:13Z</time>
      </trkpt>
      <trkpt lat="44.85935" lon="5.79484">
        <ele>840</ele>
        <time>2017-12-15T22:10:16Z</time>
      </trkpt>
      <trkpt lat="44.85967" lon="5.79489">
        <ele>840</ele>
        <time>2017-12-15T22:10:26Z</time>
      </trkpt>
      <trkpt lat="44.86012" lon="5.79504">
        <ele>833</ele>
        <time>2017-12-15T22:10:37Z</time>
      </trkpt>
      <trkpt lat="44.86048" lon="5.79522">
        <ele>832</ele>
        <time>2017-12-15T22:10:39Z</time>
      </trkpt>
      <trkpt lat="44.86091" lon="5.79545">
        <ele>834</ele>
        <time>2017-12-15T22:10:53Z</time>
      </trkpt>
      <trkpt lat="44.86117" lon="5.79562">
        <ele>833</ele>
        <time>2017-12-15T22:10:58Z</time>
      </trkpt>
      <trkpt lat="44.86134" lon="5.79582">
        <ele>832</ele>
        <time>2017-12-15T22:11:09Z</time>
      </trkpt>
      <trkpt lat="44.8616" lon="5.79626">
        <ele>823</ele>
        <time>2017-12-15T22:11:15Z</time>
      </trkpt>
      <trkpt lat="44.86175" lon="5.79652">
        <ele>821</ele>
        <time>2017-12-15T22:11:19Z</time>
      </trkpt>
      <trkpt lat="44.86195" lon="5.79678">
        <ele>817</ele>
        <time>2017-12-15T22:11:33Z</time>
      </trkpt>
      <trkpt lat="44.86207" lon="5.79688">
        <ele>817</ele>
        <time>2017-12-15T22:11:44Z</time>
      </trkpt>
      <trkpt lat="44.86239" lon="5.79702">
        <ele>817</ele>
        <time>2017-12-15T22:11:54Z</time>
      </trkpt>
      <trkpt lat="44.86256" lon="5.79706">
        <ele>815</ele>
        <time>2017-12-15T22:11:57Z</time>
      </trkpt>
      <trkpt lat="44.86283" lon="5.79708">
        <ele>814</ele>
        <time>2017-12-15T22:12:07Z</time>
      </trkpt>
      <trkpt lat="44.86339" lon="5.79722">
        <ele>811</ele>
        <time>2017-12-15T22:12:20Z</time>
      </trkpt>
      <trkpt lat="44.86365" lon="5.79721">
        <ele>811</ele>
        <time>2017-12-15T22:12:25Z</time>
      </trkpt>
      <trkpt lat="44.8642" lon="5.79705">
        <ele>809</ele>
        <time>2017-12-15T22:12:37Z</time>
      </trkpt>
      <trkpt lat="44.86472" lon="5.79693">
        <ele>809</ele>
        <time>2017-12-15T22:12:42Z</time>
      </trkpt>
      <trkpt lat="44.86508" lon="5.79683">
        <ele>807</ele>
        <time>2017-12-15T22:12:45Z</time>
      </trkpt>
      <trkpt lat="44.8652" lon="5.79676">
        <ele>806</ele>
        <time>2017-12-15T22:13:05Z</time>
      </trkpt>
      <trkpt lat="44.86531" lon="5.79664">
        <ele>813</ele>
        <time>2017-12-15T22:13:19Z</time>
      </trkpt>
      <trkpt lat="44.8655" lon="5.79644">
        <ele>813</ele>
        <time>2017-12-15T22:13:21Z</time>
      </trkpt>
      <trkpt lat="44.86571" lon="5.79637">
        <ele>813</ele>
        <time>2017-12-15T22:13:30Z</time>
      </trkpt>
      <trkpt lat="44.86595" lon="5.79637">
        <ele>808</ele>
        <time>2017-12-15T22:13:48Z</time>
      </trkpt>
      <trkpt lat="44.86622" lon="5.79647">
        <ele>807</ele>
        <time>2017-12-15T22:14:08Z</time>
      </trkpt>
      <trkpt lat="44.86653" lon="5.79665">
        <ele>802</ele>
        <time>2017-12-15T22:14:28Z</time>
      </trkpt>
      <trkpt lat="44.8668" lon="5.79682">
        <ele>790</ele>
        <time>2017-12-15T22:14:32Z</time>
      </trkpt>
      <trkpt lat="44.86694" lon="5.79685">
        <ele>788</ele>
        <time>2017-12-15T22:14:34Z</time>
      </trkpt>
      <trkpt lat="44.86705" lon="5.79682">
        <ele>787</ele>
        <time>2017-12-15T22:14:36Z</time>
      </trkpt>
      <trkpt lat="44.86715" lon="5.79672">
        <ele>787</ele>
        <time>2017-12-15T22:14:39Z</time>
      </trkpt>
      <trkpt lat="44.86723" lon="5.79657">
        <ele>797</ele>
        <time>2017-12-15T22:14:44Z</time>
      </trkpt>
      <trkpt lat="44.86731" lon="5.79603">
        <ele>801</ele>
        <time>2017-12-15T22:14:49Z</time>
      </trkpt>
      <trkpt lat="44.86738" lon="5.79587">
        <ele>801</ele>
        <time>2017-12-15T22:15:00Z</time>
      </trkpt>
      <trkpt lat="44.86745" lon="5.79582">
        <ele>804</ele>
        <time>2017-12-15T22:15:02Z</time>
      </trkpt>
      <trkpt lat="44.86753" lon="5.79584">
        <ele>801</ele>
        <time>2017-12-15T22:15:18Z</time>
      </trkpt>
      <trkpt lat="44.86766" lon="5.79603">
        <ele>799</ele>
        <time>2017-12-15T22:15:23Z</time>
      </trkpt>
      <trkpt lat="44.86782" lon="5.79661">
        <ele>795</ele>
        <time>2017-12-15T22:15:40Z</time>
      </trkpt>
      <trkpt lat="44.86791" lon="5.79678">
        <ele>787</ele>
        <time>2017-12-15T22:16:00Z</time>
      </trkpt>
      <trkpt lat="44.86805" lon="5.79687">
        <ele>788</ele>
        <time>2017-12-15T22:16:15Z</time>
      </trkpt>
      <trkpt lat="44.86816" lon="5.79688">
        <ele>789</ele>
        <time>2017-12-15T22:16:28Z</time>
      </trkpt>
      <trkpt lat="44.86849" lon="5.79685">
        <ele>792</ele>
        <time>2017-12-15T22:16:37Z</time>
      </trkpt>
      <trkpt lat="44.86885" lon="5.79688">
        <ele>792</ele>
        <time>2017-12-15T22:16:47Z</time>
      </trkpt>
      <trkpt lat="44.8693" lon="5.79699">
        <ele>795</ele>
        <time>2017-12-15T22:17:05Z</time>
      </trkpt>
      <trkpt lat="44.86963" lon="5.79716">
        <ele>794</ele>
        <time>2017-12-15T22:17:21Z</time>
      </trkpt>
      <trkpt lat="44.87014" lon="5.79746">
        <ele>794</ele>
        <time>2017-12-15T22:17:36Z</time>
      </trkpt>
      <trkpt lat="44.87046" lon="5.79758">
        <ele>784</ele>
        <time>2017-12-15T22:17:39Z</time>
      </trkpt>
      <trkpt lat="44.8707" lon="5.79763">
        <ele>787</ele>
        <time>2017-12-15T22:17:53Z</time>
      </trkpt>
      <trkpt lat="44.87086" lon="5.79762">
        <ele>790</ele>
        <time>2017-12-15T22:18:00Z</time>
      </trkpt>
      <trkpt lat="44.87101" lon="5.79759">
        <ele>788</ele>
        <time>2017-12-15T22:18:13Z</time>
      </trkpt>
      <trkpt lat="44.87115" lon="5.79757">
        <ele>787</ele>
        <time>2017-12-15T22:18:21Z</time>
      </trkpt>
      <trkpt lat="44.87128" lon="5.79758">
        <ele>786</ele>
        <time>2017-12-15T22:18:26Z</time>
      </trkpt>
      <trkpt lat="44.87145" lon="5.79765">
        <ele>787</ele>
        <time>2017-12-15T22:18:40Z</time>
      </trkpt>
      <trkpt lat="44.87176" lon="5.79781">
        <ele>784</ele>
        <time>2017-12-15T22:18:57Z</time>
      </trkpt>
      <trkpt lat="44.87197" lon="5.79784">
        <ele>782</ele>
        <time>2017-12-15T22:19:14Z</time>
      </trkpt>
      <trkpt lat="44.8722" lon="5.79782">
        <ele>782</ele>
        <time>2017-12-15T22:19:17Z</time>
      </trkpt>
      <trkpt lat="44.87243" lon="5.79773">
        <ele>786</ele>
        <time>2017-12-15T22:19:23Z</time>
      </trkpt>
      <trkpt lat="44.8726" lon="5.79762">
        <ele>782</ele>
        <time>2017-12-15T22:19:35Z</time>
      </trkpt>
      <trkpt lat="44.87284" lon="5.79742">
        <ele>793</ele>
        <time>2017-12-15T22:19:50Z</time>
      </trkpt>
      <trkpt lat="44.87304" lon="5.79721">
        <ele>791</ele>
        <time>2017-12-15T22:20:09Z</time>
      </trkpt>
      <trkpt lat="44.87338" lon="5.79686">
        <ele>783</ele>
        <time>2017-12-15T22:20:29Z</time>
      </trkpt>
      <trkpt lat="44.87349" lon="5.7967">
        <ele>785</ele>
        <time>2017-12-15T22:20:33Z</time>
      </trkpt>
      <trkpt lat="44.87355" lon="5.79657">
        <ele>794</ele>
        <time>2017-12-15T22:20:50Z</time>
      </trkpt>
      <trkpt lat="44.87358" lon="5.79631">
        <ele>796</ele>
        <time>2017-12-15T22:21:04Z</time>
      </trkpt>
      <trkpt lat="44.8736" lon="5.7961">
        <ele>798</ele>
        <time>2017-12-15T22:21:12Z</time>
      </trkpt>
      <trkpt lat="44.87369" lon="5.79589">
        <ele>798</ele>
        <time>2017-12-15T22:21:26Z</time>
      </trkpt>
      <trkpt lat="44.8738" lon="5.79579">
        <ele>809</ele>
        <time>2017-12-15T22:21:34Z</time>
      </trkpt>
      <trkpt lat="44.87392" lon="5.79575">
        <ele>807</ele>
        <time>2017-12-15T22:21:48Z</time>
      </trkpt>
      <trkpt lat="44.87402" lon="5.79576">
        <ele>804</ele>
        <time>2017-12-15T22:21:52Z</time>
      </trkpt>
      <trkpt lat="44.8741" lon="5.7958">
        <ele>800</ele>
        <time>2017-12-15T22:22:04Z</time>
      </trkpt>
      <trkpt lat="44.87421" lon="5.79595">
        <ele>798</ele>
        <time>2017-12-15T22:22:08Z</time>
      </trkpt>
      <trkpt lat="44.87434" lon="5.7963">
        <ele>796</ele>
        <time>2017-12-15T22:22:14Z</time>
      </trkpt>
      <trkpt lat="44.87461" lon="5.79683">
        <ele>782</ele>
        <time>2017-12-15T22:22:19Z</time>
      </trkpt>
      <trkpt lat="44.87482" lon="5.79733">
        <ele>781</ele>
        <time>2017-12-15T22:22:34Z</time>
      </trkpt>
      <trkpt lat="44.87494" lon="5.79774">
        <ele>767</ele>
        <time>2017-12-15T22:22:40Z</time>
      </trkpt>
      <trkpt lat="44.875" lon="5.79795">
        <ele>775</ele>
        <time>2017-12-15T22:22:52Z</time>
      </trkpt>
      <trkpt lat="44.87507" lon="5.79803">
        <ele>778</ele>
        <time>2017-12-15T22:23:06Z</time>
      </trkpt>
      <trkpt lat="44.87516" lon="5.79807">
        <ele>778</ele>
        <time>2017-12-15T22:23:22Z</time>
      </trkpt>
      <trkpt lat="44.87551" lon="5.79818">
        <ele>780</ele>
        <time>2017-12-15T22:23:42Z</time>
      </trkpt>
      <trkpt lat="44.87578" lon="5.79825">
        <ele>780</ele>
        <time>2017-12-15T22:23:44Z</time>
      </trkpt>
      <trkpt lat="44.876" lon="5.79828">
        <ele>777</ele>
        <time>2017-12-15T22:23:49Z</time>
      </trkpt>
      <trkpt lat="44.87612" lon="5.79824">
        <ele>776</ele>
        <time>2017-12-15T22:24:03Z</time>
      </trkpt>
      <trkpt lat="44.87625" lon="5.79811">
        <ele>774</ele>
        <time>2017-12-15T22:24:08Z</time>
      </trkpt>
      <trkpt lat="44.87646" lon="5.79782">
        <ele>776</ele>
        <time>2017-12-15T22:24:21Z</time>
      </trkpt>
      <trkpt lat="44.87666" lon="5.7975">
        <ele>779</ele>
        <time>2017-12-15T22:24:23Z</time>
      </trkpt>
      <trkpt lat="44.87668" lon="5.79745">
        <ele>773</ele>
        <time>2017-12-15T22:24:35Z</time>
      </trkpt>
      <trkpt lat="44.87693" lon="5.79691">
        <ele>760</ele>
        <time>2017-12-15T22:24:45Z</time>
      </trkpt>
      <trkpt lat="44.87725" lon="5.7964">
        <ele>768</ele>
        <time>2017-12-15T22:25:04Z</time>
      </trkpt>
      <trkpt lat="44.87738" lon="5.79609">
        <ele>770</ele>
        <time>2017-12-15T22:25:15Z</time>
      </trkpt>
      <trkpt lat="44.87751" lon="5.79569">
        <ele>752</ele>
        <time>2017-12-15T22:25:27Z</time>
      </trkpt>
      <trkpt lat="44.87771" lon="5.79502">
        <ele>755</ele>
        <time>2017-12-15T22:25:31Z</time>
      </trkpt>
      <trkpt lat="44.87784" lon="5.79469">
        <ele>755</ele>
        <time>2017-12-15T22:25:43Z</time>
      </trkpt>
      <trkpt lat="44.87802" lon="5.79432">
        <ele>749</ele>
        <time>2017-12-15T22:26:03Z</time>
      </trkpt>
      <trkpt lat="44.87807" lon="5.79418">
        <ele>746</ele>
        <time>2017-12-15T22:26:16Z</time>
      </trkpt>
      <trkpt lat="44.8781" lon="5.79392">
        <ele>756</ele>
        <time>2017-12-15T22:26:18Z</time>
      </trkpt>
      <trkpt lat="44.87814" lon="5.79373">
        <ele>758</ele>
        <time>2017-12-15T22:26:38Z</time>
      </trkpt>
      <trkpt lat="44.87822" lon="5.79353">
        <ele>754</ele>
        <time>2017-12-15T22:26:43Z</time>
      </trkpt>
      <trkpt lat="44.8783" lon="5.79335">
        <ele>742</ele>
        <time>2017-12-15T22:26:58Z</time>
      </trkpt>
      <trkpt lat="44.87839" lon="5.79309">
        <ele>722</ele>
        <time>2017-12-15T22:27:02Z</time>
      </trkpt>
      <trkpt lat="44.87843" lon="5.79303">
        <ele>720</ele>
        <time>2017-12-15T22:27:09Z</time>
      </trkpt>
      <trkpt lat="44.87846" lon="5.79304">
        <ele>719</ele>
        <time>2017-12-15T22:27:11Z</time>
      </trkpt>
      <trkpt lat="44.87848" lon="5.7931">
        <ele>719</ele>
        <time>2017-12-15T22:27:24Z</time>
      </trkpt>
      <trkpt lat="44.87838" lon="5.79329">
        <ele>731</ele>
        <time>2017-12-15T22:27:29Z</time>
      </trkpt>
      <trkpt lat="44.87815" lon="5.7938">
        <ele>757</ele>
        <time>2017-12-15T22:27:33Z</time>
      </trkpt>
      <trkpt lat="44.87811" lon="5.79414">
        <ele>750</ele>
        <time>2017-12-15T22:27:40Z</time>
      </trkpt>
      <trkpt lat="44.87806" lon="5.79431">
        <ele>747</ele>
        <time>2017-12-15T22:27:49Z</time>
      </trkpt>
      <trkpt lat="44.87786" lon="5.79484">
        <ele>754</ele>
        <time>2017-12-15T22:28:05Z</time>
      </trkpt>
      <trkpt lat="44.87783" lon="5.79509">
        <ele>745</ele>
        <time>2017-12-15T22:28:19Z</time>
      </trkpt>
      <trkpt lat="44.87779" lon="5.79591">
        <ele>725</ele>
        <time>2017-12-15T22:28:24Z</time>
      </trkpt>
      <trkpt lat="44.87769" lon="5.79658">
        <ele>717</ele>
        <time>2017-12-15T22:28:39Z</time>
      </trkpt>
      <trkpt lat="44.87773" lon="5.79667">
        <ele>695</ele>
        <time>2017-12-15T22:28:52Z</time>
      </trkpt>
      <trkpt lat="44.87779" lon="5.79664">
        <ele>712</ele>
        <time>2017-12-15T22:29:12Z</time>
      </trkpt>
      <trkpt lat="44.87787" lon="5.79642">
        <ele>710</ele>
        <time>2017-12-15T22:29:18Z</time>
      </trkpt>
      <trkpt lat="44.87815" lon="5.79562">
        <ele>722</ele>
        <time>2017-12-15T22:29:34Z</time>
      </trkpt>
      <trkpt lat="44.87863" lon="5.79354">
        <ele>706</ele>
        <time>2017-12-15T22:29:39Z</time>
      </trkpt>
      <trkpt lat="44.87868" lon="5.7934">
        <ele>705</ele>
        <time>2017-12-15T22:29:48Z</time>
      </trkpt>
      <trkpt lat="44.87872" lon="5.79334">
        <ele>703</ele>
        <time>2017-12-15T22:29:55Z</time>
      </trkpt>
      <trkpt lat="44.87875" lon="5.79334">
        <ele>701</ele>
        <time>2017-12-15T22:30:06Z</time>
      </trkpt>
      <trkpt lat="44.8788" lon="5.79335">
        <ele>698</ele>
        <time>2017-12-15T22:30:26Z</time>
      </trkpt>
      <trkpt lat="44.87881" lon="5.79338">
        <ele>697</ele>
        <time>2017-12-15T22:30:43Z</time>
      </trkpt>
      <trkpt lat="44.87883" lon="5.79348">
        <ele>696</ele>
        <time>2017-12-15T22:30:54Z</time>
      </trkpt>
      <trkpt lat="44.87857" lon="5.79539">
        <ele>675</ele>
        <time>2017-12-15T22:31:14Z</time>
      </trkpt>
      <trkpt lat="44.8786" lon="5.79589">
        <ele>657</ele>
        <time>2017-12-15T22:31:32Z</time>
      </trkpt>
      <trkpt lat="44.87865" lon="5.79618">
        <ele>646</ele>
        <time>2017-12-15T22:31:37Z</time>
      </trkpt>
      <trkpt lat="44.87868" lon="5.79669">
        <ele>615</ele>
        <time>2017-12-15T22:31:44Z</time>
      </trkpt>
      <trkpt lat="44.87863" lon="5.79697">
        <ele>611</ele>
        <time>2017-12-15T22:31:49Z</time>
      </trkpt>
      <trkpt lat="44.87862" lon="5.79707">
        <ele>608</ele>
        <time>2017-12-15T22:31:52Z</time>
      </trkpt>
      <trkpt lat="44.87864" lon="5.79713">
        <ele>605</ele>
        <time>2017-12-15T22:31:54Z</time>
      </trkpt>
      <trkpt lat="44.87866" lon="5.79713">
        <ele>604</ele>
        <time>2017-12-15T22:32:10Z</time>
      </trkpt>
      <trkpt lat="44.87868" lon="5.79711">
        <ele>604</ele>
        <time>2017-12-15T22:32:25Z</time>
      </trkpt>
      <trkpt lat="44.87871" lon="5.79694">
        <ele>607</ele>
        <time>2017-12-15T22:32:38Z</time>
      </trkpt>
      <trkpt lat="44.87876" lon="5.79658">
        <ele>633</ele>
        <time>2017-12-15T22:32:57Z</time>
      </trkpt>
      <trkpt lat="44.87881" lon="5.79586">
        <ele>643</ele>
        <time>2017-12-15T22:33:11Z</time>
      </trkpt>
      <trkpt lat="44.87883" lon="5.79544">
        <ele>665</ele>
        <time>2017-12-15T22:33:20Z</time>
      </trkpt>
      <trkpt lat="44.87887" lon="5.79504">
        <ele>666</ele>
        <time>2017-12-15T22:33:22Z</time>
      </trkpt>
      <trkpt lat="44.87895" lon="5.79457">
        <ele>679</ele>
        <time>2017-12-15T22:33:28Z</time>
      </trkpt>
      <trkpt lat="44.87894" lon="5.79426">
        <ele>678</ele>
        <time>2017-12-15T22:33:36Z</time>
      </trkpt>
      <trkpt lat="44.87899" lon="5.79386">
        <ele>688</ele>
        <time>2017-12-15T22:33:53Z</time>
      </trkpt>
      <trkpt lat="44.8791" lon="5.79336">
        <ele>679</ele>
        <time>2017-12-15T22:34:02Z</time>
      </trkpt>
      <trkpt lat="44.87918" lon="5.79298">
        <ele>658</ele>
        <time>2017-12-15T22:34:08Z</time>
      </trkpt>
      <trkpt lat="44.87919" lon="5.79284">
        <ele>659</ele>
        <time>2017-12-15T22:34:14Z</time>
      </trkpt>
      <trkpt lat="44.87921" lon="5.79279">
        <ele>660</ele>
        <time>2017-12-15T22:34:29Z</time>
      </trkpt>
      <trkpt lat="44.87924" lon="5.79278">
        <ele>660</ele>
        <time>2017-12-15T22:34:45Z</time>
      </trkpt>
      <trkpt lat="44.87927" lon="5.7928">
        <ele>658</ele>
        <time>2017-12-15T22:34:58Z</time>
      </trkpt>
      <trkpt lat="44.87927" lon="5.79288">
        <ele>657</ele>
        <time>2017-12-15T22:35:07Z</time>
      </trkpt>
      <trkpt lat="44.87918" lon="5.79319">
        <ele>663</ele>
        <time>2017-12-15T22:35:16Z</time>
      </trkpt>
      <trkpt lat="44.87911" lon="5.79354">
        <ele>686</ele>
        <time>2017-12-15T22:35:33Z</time>
      </trkpt>
      <trkpt lat="44.87907" lon="5.79417">
        <ele>669</ele>
        <time>2017-12-15T22:35:49Z</time>
      </trkpt>
      <trkpt lat="44.87905" lon="5.7954">
        <ele>658</ele>
        <time>2017-12-15T22:36:08Z</time>
      </trkpt>
      <trkpt lat="44.87905" lon="5.79576">
        <ele>642</ele>
        <time>2017-12-15T22:36:14Z</time>
      </trkpt>
      <trkpt lat="44.87907" lon="5.79582">
        <ele>638</ele>
        <time>2017-12-15T22:36:28Z</time>
      </trkpt>
      <trkpt lat="44.8791" lon="5.79582">
        <ele>634</ele>
        <time>2017-12-15T22:36:31Z</time>
      </trkpt>
      <trkpt lat="44.87914" lon="5.79577">
        <ele>634</ele>
        <time>2017-12-15T22:36:40Z</time>
      </trkpt>
      <trkpt lat="44.87914" lon="5.79531">
        <ele>658</ele>
        <time>2017-12-15T22:37:00Z</time>
      </trkpt>
      <trkpt lat="44.8794" lon="5.79408">
        <ele>649</ele>
        <time>2017-12-15T22:37:02Z</time>
      </trkpt>
      <trkpt lat="44.87953" lon="5.79349">
        <ele>647</ele>
        <time>2017-12-15T22:37:06Z</time>
      </trkpt>
      <trkpt lat="44.87965" lon="5.79319">
        <ele>645</ele>
        <time>2017-12-15T22:37:09Z</time>
      </trkpt>
      <trkpt lat="44.87976" lon="5.79294">
        <ele>642</ele>
        <time>2017-12-15T22:37:11Z</time>
      </trkpt>
      <trkpt lat="44.87981" lon="5.79294">
        <ele>641</ele>
        <time>2017-12-15T22:37:14Z</time>
      </trkpt>
      <trkpt lat="44.87983" lon="5.79301">
        <ele>640</ele>
        <time>2017-12-15T22:37:19Z</time>
      </trkpt>
      <trkpt lat="44.87978" lon="5.79312">
        <ele>641</ele>
        <time>2017-12-15T22:37:28Z</time>
      </trkpt>
      <trkpt lat="44.8797" lon="5.79331">
        <ele>643</ele>
        <time>2017-12-15T22:37:35Z</time>
      </trkpt>
      <trkpt lat="44.87967" lon="5.79348">
        <ele>642</ele>
        <time>2017-12-15T22:37:44Z</time>
      </trkpt>
      <trkpt lat="44.87968" lon="5.7939">
        <ele>641</ele>
        <time>2017-12-15T22:37:57Z</time>
      </trkpt>
      <trkpt lat="44.87967" lon="5.79433">
        <ele>633</ele>
        <time>2017-12-15T22:38:07Z</time>
      </trkpt>
      <trkpt lat="44.87965" lon="5.79475">
        <ele>629</ele>
        <time>2017-12-15T22:38:13Z</time>
      </trkpt>
      <trkpt lat="44.87963" lon="5.795">
        <ele>628</ele>
        <time>2017-12-15T22:38:19Z</time>
      </trkpt>
      <trkpt lat="44.87965" lon="5.79504">
        <ele>611</ele>
        <time>2017-12-15T22:38:32Z</time>
      </trkpt>
      <trkpt lat="44.87972" lon="5.79506">
        <ele>609</ele>
        <time>2017-12-15T22:38:48Z</time>
      </trkpt>
      <trkpt lat="44.87977" lon="5.79502">
        <ele>607</ele>
        <time>2017-12-15T22:39:07Z</time>
      </trkpt>
      <trkpt lat="44.8799" lon="5.79481">
        <ele>619</ele>
        <time>2017-12-15T22:39:15Z</time>
      </trkpt>
      <trkpt lat="44.88006" lon="5.79443">
        <ele>598</ele>
        <time>2017-12-15T22:39:27Z</time>
      </trkpt>
      <trkpt lat="44.88039" lon="5.79361">
        <ele>594</ele>
        <time>2017-12-15T22:39:46Z</time>
      </trkpt>
      <trkpt lat="44.88042" lon="5.7934">
        <ele>593</ele>
        <time>2017-12-15T22:40:04Z</time>
      </trkpt>
      <trkpt lat="44.88039" lon="5.79309">
        <ele>588</ele>
        <time>2017-12-15T22:40:21Z</time>
      </trkpt>
      <trkpt lat="44.8804" lon="5.79299">
        <ele>587</ele>
        <time>2017-12-15T22:40:39Z</time>
      </trkpt>
      <trkpt lat="44.88044" lon="5.7929">
        <ele>584</ele>
        <time>2017-12-15T22:40:41Z</time>
      </trkpt>
      <trkpt lat="44.88043" lon="5.79283">
        <ele>584</ele>
        <time>2017-12-15T22:40:55Z</time>
      </trkpt>
      <trkpt lat="44.8804" lon="5.79271">
        <ele>585</ele>
        <time>2017-12-15T22:41:04Z</time>
      </trkpt>
      <trkpt lat="44.8803" lon="5.79255">
        <ele>590</ele>
        <time>2017-12-15T22:41:11Z</time>
      </trkpt>
      <trkpt lat="44.88011" lon="5.79239">
        <ele>596</ele>
        <time>2017-12-15T22:41:29Z</time>
      </trkpt>
      <trkpt lat="44.87997" lon="5.79225">
        <ele>625</ele>
        <time>2017-12-15T22:41:48Z</time>
      </trkpt>
      <trkpt lat="44.8799" lon="5.79209">
        <ele>625</ele>
        <time>2017-12-15T22:41:52Z</time>
      </trkpt>
      <trkpt lat="44.8798" lon="5.79169">
        <ele>615</ele>
        <time>2017-12-15T22:42:02Z</time>
      </trkpt>
      <trkpt lat="44.87953" lon="5.79113">
        <ele>610</ele>
        <time>2017-12-15T22:42:15Z</time>
      </trkpt>
      <trkpt lat="44.87917" lon="5.79061">
        <ele>607</ele>
        <time>2017-12-15T22:42:27Z</time>
      </trkpt>
      <trkpt lat="44.87912" lon="5.79047">
        <ele>645</ele>
        <time>2017-12-15T22:42:30Z</time>
      </trkpt>
      <trkpt lat="44.87907" lon="5.79011">
        <ele>634</ele>
        <time>2017-12-15T22:42:44Z</time>
      </trkpt>
      <trkpt lat="44.87906" lon="5.78974">
        <ele>646</ele>
        <time>2017-12-15T22:42:53Z</time>
      </trkpt>
      <trkpt lat="44.8791" lon="5.7896">
        <ele>650</ele>
        <time>2017-12-15T22:42:56Z</time>
      </trkpt>
      <trkpt lat="44.87922" lon="5.78938">
        <ele>609</ele>
        <time>2017-12-15T22:43:06Z</time>
      </trkpt>
      <trkpt lat="44.87926" lon="5.78918">
        <ele>619</ele>
        <time>2017-12-15T22:43:09Z</time>
      </trkpt>
      <trkpt lat="44.87923" lon="5.78897">
        <ele>619</ele>
        <time>2017-12-15T22:43:29Z</time>
      </trkpt>
      <trkpt lat="44.87925" lon="5.78885">
        <ele>617</ele>
        <time>2017-12-15T22:43:42Z</time>
      </trkpt>
      <trkpt lat="44.87928" lon="5.78877">
        <ele>617</ele>
        <time>2017-12-15T22:43:55Z</time>
      </trkpt>
      <trkpt lat="44.87938" lon="5.78867">
        <ele>615</ele>
        <time>2017-12-15T22:44:08Z</time>
      </trkpt>
      <trkpt lat="44.8795" lon="5.78857">
        <ele>612</ele>
        <time>2017-12-15T22:44:14Z</time>
      </trkpt>
      <trkpt lat="44.87957" lon="5.78847">
        <ele>609</ele>
        <time>2017-12-15T22:44:29Z</time>
      </trkpt>
      <trkpt lat="44.8796" lon="5.78785">
        <ele>610</ele>
        <time>2017-12-15T22:44:47Z</time>
      </trkpt>
      <trkpt lat="44.87957" lon="5.78764">
        <ele>611</ele>
        <time>2017-12-15T22:44:57Z</time>
      </trkpt>
      <trkpt lat="44.8795" lon="5.7875">
        <ele>607</ele>
        <time>2017-12-15T22:45:15Z</time>
      </trkpt>
      <trkpt lat="44.87938" lon="5.78733">
        <ele>613</ele>
        <time>2017-12-15T22:45:23Z</time>
      </trkpt>
      <trkpt lat="44.8793" lon="5.78714">
        <ele>609</ele>
        <time>2017-12-15T22:45:27Z</time>
      </trkpt>
      <trkpt lat="44.87924" lon="5.78699">
        <ele>607</ele>
        <time>2017-12-15T22:45:30Z</time>
      </trkpt>
      <trkpt lat="44.87917" lon="5.7868">
        <ele>611</ele>
        <time>2017-12-15T22:45:46Z</time>
      </trkpt>
      <trkpt lat="44.87916" lon="5.78655">
        <ele>623</ele>
        <time>2017-12-15T22:45:48Z</time>
      </trkpt>
      <trkpt lat="44.87915" lon="5.78635">
        <ele>623</ele>
        <time>2017-12-15T22:46:02Z</time>
      </trkpt>
      <trkpt lat="44.87909" lon="5.78616">
        <ele>618</ele>
        <time>2017-12-15T22:46:06Z</time>
      </trkpt>
      <trkpt lat="44.87898" lon="5.786">
        <ele>614</ele>
        <time>2017-12-15T22:46:17Z</time>
      </trkpt>
      <trkpt lat="44.87879" lon="5.78583">
        <ele>595</ele>
        <time>2017-12-15T22:46:33Z</time>
      </trkpt>
      <trkpt lat="44.87843" lon="5.78573">
        <ele>617</ele>
        <time>2017-12-15T22:46:38Z</time>
      </trkpt>
      <trkpt lat="44.87822" lon="5.78568">
        <ele>633</ele>
        <time>2017-12-15T22:46:49Z</time>
      </trkpt>
      <trkpt lat="44.87794" lon="5.78555">
        <ele>633</ele>
        <time>2017-12-15T22:47:00Z</time>
      </trkpt>
      <trkpt lat="44.87753" lon="5.78534">
        <ele>631</ele>
        <time>2017-12-15T22:47:05Z</time>
      </trkpt>
      <trkpt lat="44.87722" lon="5.78515">
        <ele>650</ele>
        <time>2017-12-15T22:47:12Z</time>
      </trkpt>
      <trkpt lat="44.87705" lon="5.78487">
        <ele>619</ele>
        <time>2017-12-15T22:47:32Z</time>
      </trkpt>
      <trkpt lat="44.87691" lon="5.78479">
        <ele>622</ele>
        <time>2017-12-15T22:47:40Z</time>
      </trkpt>
      <trkpt lat="44.87674" lon="5.78478">
        <ele>627</ele>
        <time>2017-12-15T22:47:43Z</time>
      </trkpt>
      <trkpt lat="44.87647" lon="5.78472">
        <ele>644</ele>
        <time>2017-12-15T22:47:47Z</time>
      </trkpt>
      <trkpt lat="44.87632" lon="5.78465">
        <ele>644</ele>
        <time>2017-12-15T22:48:06Z</time>
      </trkpt>
      <trkpt lat="44.87614" lon="5.78445">
        <ele>640</ele>
        <time>2017-12-15T22:48:25Z</time>
      </trkpt>
      <trkpt lat="44.876" lon="5.78441">
        <ele>640</ele>
        <time>2017-12-15T22:48:34Z</time>
      </trkpt>
      <trkpt lat="44.87576" lon="5.78448">
        <ele>662</ele>
        <time>2017-12-15T22:48:45Z</time>
      </trkpt>
      <trkpt lat="44.8757" lon="5.78448">
        <ele>663</ele>
        <time>2017-12-15T22:49:03Z</time>
      </trkpt>
      <trkpt lat="44.87561" lon="5.78442">
        <ele>663</ele>
        <time>2017-12-15T22:49:06Z</time>
      </trkpt>
      <trkpt lat="44.87547" lon="5.78434">
        <ele>664</ele>
        <time>2017-12-15T22:49:18Z</time>
      </trkpt>
      <trkpt lat="44.87533" lon="5.78433">
        <ele>668</ele>
        <time>2017-12-15T22:49:29Z</time>
      </trkpt>
      <trkpt lat="44.87524" lon="5.78428">
        <ele>668</ele>
        <time>2017-12-15T22:49:42Z</time>
      </trkpt>
      <trkpt lat="44.87516" lon="5.78421">
        <ele>667</ele>
        <time>2017-12-15T22:50:02Z</time>
      </trkpt>
      <trkpt lat="44.87506" lon="5.78405">
        <ele>648</ele>
        <time>2017-12-15T22:50:09Z</time>
      </trkpt>
      <trkpt lat="44.87493" lon="5.78381">
        <ele>662</ele>
        <time>2017-12-15T22:50:14Z</time>
      </trkpt>
      <trkpt lat="44.87466" lon="5.78351">
        <ele>660</ele>
        <time>2017-12-15T22:50:23Z</time>
      </trkpt>
      <trkpt lat="44.87457" lon="5.78321">
        <ele>632</ele>
        <time>2017-12-15T22:50:33Z</time>
      </trkpt>
      <trkpt lat="44.87451" lon="5.78312">
        <ele>632</ele>
        <time>2017-12-15T22:50:53Z</time>
      </trkpt>
      <trkpt lat="44.87443" lon="5.78306">
        <ele>634</ele>
        <time>2017-12-15T22:50:55Z</time>
      </trkpt>
      <trkpt lat="44.87428" lon="5.78306">
        <ele>640</ele>
        <time>2017-12-15T22:51:05Z</time>
      </trkpt>
      <trkpt lat="44.87407" lon="5.78296">
        <ele>676</ele>
        <time>2017-12-15T22:51:11Z</time>
      </trkpt>
      <trkpt lat="44.87393" lon="5.78282">
        <ele>676</ele>
        <time>2017-12-15T22:51:18Z</time>
      </trkpt>
      <trkpt lat="44.87383" lon="5.78268">
        <ele>676</ele>
        <time>2017-12-15T22:51:21Z</time>
      </trkpt>
      <trkpt lat="44.87362" lon="5.78237">
        <ele>665</ele>
        <time>2017-12-15T22:51:37Z</time>
      </trkpt>
      <trkpt lat="44.8735" lon="5.78217">
        <ele>664</ele>
        <time>2017-12-15T22:51:42Z</time>
      </trkpt>
      <trkpt lat="44.87334" lon="5.78164">
        <ele>669</ele>
        <time>2017-12-15T22:51:50Z</time>
      </trkpt>
      <trkpt lat="44.87323" lon="5.78118">
        <ele>680</ele>
        <time>2017-12-15T22:52:10Z</time>
      </trkpt>
      <trkpt lat="44.87324" lon="5.78099">
        <ele>675</ele>
        <time>2017-12-15T22:52:30Z</time>
      </trkpt>
      <trkpt lat="44.87331" lon="5.78075">
        <ele>664</ele>
        <time>2017-12-15T22:52:45Z</time>
      </trkpt>
      <trkpt lat="44.87333" lon="5.78064">
        <ele>664</ele>
        <time>2017-12-15T22:52:55Z</time>
      </trkpt>
      <trkpt lat="44.87331" lon="5.78056">
        <ele>664</ele>
        <time>2017-12-15T22:53:12Z</time>
      </trkpt>
      <trkpt lat="44.87327" lon="5.78049">
        <ele>664</ele>
        <time>2017-12-15T22:53:26Z</time>
      </trkpt>
      <trkpt lat="44.87319" lon="5.78047">
        <ele>665</ele>
        <time>2017-12-15T22:53:45Z</time>
      </trkpt>
      <trkpt lat="44.87305" lon="5.78049">
        <ele>666</ele>
        <time>2017-12-15T22:53:49Z</time>
      </trkpt>
      <trkpt lat="44.87282" lon="5.78053">
        <ele>670</ele>
        <time>2017-12-15T22:53:55Z</time>
      </trkpt>
      <trkpt lat="44.8725" lon="5.78062">
        <ele>677</ele>
        <time>2017-12-15T22:54:02Z</time>
      </trkpt>
      <trkpt lat="44.87218" lon="5.78078">
        <ele>683</ele>
        <time>2017-12-15T22:54:18Z</time>
      </trkpt>
      <trkpt lat="44.87185" lon="5.78089">
        <ele>703</ele>
        <time>2017-12-15T22:54:30Z</time>
      </trkpt>
      <trkpt lat="44.87176" lon="5.7809">
        <ele>700</ele>
        <time>2017-12-15T22:54:36Z</time>
      </trkpt>
      <trkpt lat="44.8716" lon="5.78089">
        <ele>701</ele>
        <time>2017-12-15T22:54:38Z</time>
      </trkpt>
      <trkpt lat="44.87101" lon="5.7807">
        <ele>694</ele>
        <time>2017-12-15T22:54:53Z</time>
      </trkpt>
      <trkpt lat="44.87068" lon="5.78055">
        <ele>708</ele>
        <time>2017-12-15T22:54:55Z</time>
      </trkpt>
      <trkpt lat="44.87062" lon="5.78051">
        <ele>708</ele>
        <time>2017-12-15T22:55:09Z</time>
      </trkpt>
      <trkpt lat="44.87049" lon="5.78037">
        <ele>709</ele>
        <time>2017-12-15T22:55:22Z</time>
      </trkpt>
      <trkpt lat="44.87031" lon="5.78009">
        <ele>710</ele>
        <time>2017-12-15T22:55:39Z</time>
      </trkpt>
      <trkpt lat="44.87007" lon="5.77966">
        <ele>697</ele>
        <time>2017-12-15T22:55:47Z</time>
      </trkpt>
      <trkpt lat="44.86991" lon="5.77932">
        <ele>705</ele>
        <time>2017-12-15T22:55:54Z</time>
      </trkpt>
      <trkpt lat="44.8698" lon="5.77909">
        <ele>693</ele>
        <time>2017-12-15T22:55:56Z</time>
      </trkpt>
      <trkpt lat="44.86968" lon="5.77894">
        <ele>692</ele>
        <time>2017-12-15T22:56:01Z</time>
      </trkpt>
      <trkpt lat="44.86958" lon="5.77889">
        <ele>693</ele>
        <time>2017-12-15T22:56:18Z</time>
      </trkpt>
      <trkpt lat="44.86948" lon="5.77888">
        <ele>693</ele>
        <time>2017-12-15T22:56:30Z</time>
      </trkpt>
      <trkpt lat="44.86931" lon="5.77895">
        <ele>697</ele>
        <time>2017-12-15T22:56:39Z</time>
      </trkpt>
      <trkpt lat="44.86892" lon="5.77922">
        <ele>713</ele>
        <time>2017-12-15T22:56:46Z</time>
      </trkpt>
      <trkpt lat="44.86854" lon="5.7794">
        <ele>712</ele>
        <time>2017-12-15T22:57:04Z</time>
      </trkpt>
      <trkpt lat="44.8682" lon="5.77951">
        <ele>708</ele>
        <time>2017-12-15T22:57:13Z</time>
      </trkpt>
      <trkpt lat="44.86801" lon="5.7796">
        <ele>709</ele>
        <time>2017-12-15T22:57:15Z</time>
      </trkpt>
      <trkpt lat="44.86785" lon="5.77976">
        <ele>710</ele>
        <time>2017-12-15T22:57:28Z</time>
      </trkpt>
      <trkpt lat="44.86761" lon="5.78">
        <ele>719</ele>
        <time>2017-12-15T22:57:31Z</time>
      </trkpt>
      <trkpt lat="44.86741" lon="5.78015">
        <ele>721</ele>
        <time>2017-12-15T22:57:40Z</time>
      </trkpt>
      <trkpt lat="44.86722" lon="5.78025">
        <ele>726</ele>
        <time>2017-12-15T22:57:58Z</time>
      </trkpt>
      <trkpt lat="44.86706" lon="5.78028">
        <ele>728</ele>
        <time>2017-12-15T22:58:13Z</time>
      </trkpt>
      <trkpt lat="44.86689" lon="5.78025">
        <ele>728</ele>
        <time>2017-12-15T22:58:21Z</time>
      </trkpt>
      <trkpt lat="44.86682" lon="5.7802">
        <ele>728</ele>
        <time>2017-12-15T22:58:40Z</time>
      </trkpt>
      <trkpt lat="44.86676" lon="5.78011">
        <ele>728</ele>
        <time>2017-12-15T22:58:46Z</time>
      </trkpt>
      <trkpt lat="44.86666" lon="5.77982">
        <ele>735</ele>
        <time>2017-12-15T22:59:06Z</time>
      </trkpt>
      <trkpt lat="44.86656" lon="5.7796">
        <ele>738</ele>
        <time>2017-12-15T22:59:24Z</time>
      </trkpt>
      <trkpt lat="44.86638" lon="5.77922">
        <ele>737</ele>
        <time>2017-12-15T22:59:27Z</time>
      </trkpt>
      <trkpt lat="44.8663" lon="5.779">
        <ele>731</ele>
        <time>2017-12-15T22:59:33Z</time>
      </trkpt>
      <trkpt lat="44.86619" lon="5.77842">
        <ele>731</ele>
        <time>2017-12-15T22:59:45Z</time>
      </trkpt>
      <trkpt lat="44.86604" lon="5.77825">
        <ele>726</ele>
        <time>2017-12-15T23:00:00Z</time>
      </trkpt>
      <trkpt lat="44.86559" lon="5.77808">
        <ele>741</ele>
        <time>2017-12-15T23:00:20Z</time>
      </trkpt>
      <trkpt lat="44.86529" lon="5.77793">
        <ele>743</ele>
        <time>2017-12-15T23:00:24Z</time>
      </trkpt>
      <trkpt lat="44.86514" lon="5.77776">
        <ele>742</ele>
        <time>2017-12-15T23:00:30Z</time>
      </trkpt>
      <trkpt lat="44.86504" lon="5.77752">
        <ele>739</ele>
        <time>2017-12-15T23:00:50Z</time>
      </trkpt>
      <trkpt lat="44.86493" lon="5.77698">
        <ele>742</ele>
        <time>2017-12-15T23:00:55Z</time>
      </trkpt>
      <trkpt lat="44.86485" lon="5.7767">
        <ele>739</ele>
        <time>2017-12-15T23:01:01Z</time>
      </trkpt>
      <trkpt lat="44.86478" lon="5.77651">
        <ele>740</ele>
        <time>2017-12-15T23:01:18Z</time>
      </trkpt>
      <trkpt lat="44.86469" lon="5.77637">
        <ele>742</ele>
        <time>2017-12-15T23:01:23Z</time>
      </trkpt>
      <trkpt lat="44.86442" lon="5.77597">
        <ele>746</ele>
        <time>2017-12-15T23:01:36Z</time>
      </trkpt>
      <trkpt lat="44.86435" lon="5.77574">
        <ele>745</ele>
        <time>2017-12-15T23:01:51Z</time>
      </trkpt>
      <trkpt lat="44.86426" lon="5.7753">
        <ele>742</ele>
        <time>2017-12-15T23:02:08Z</time>
      </trkpt>
      <trkpt lat="44.8641" lon="5.77485">
        <ele>746</ele>
        <time>2017-12-15T23:02:15Z</time>
      </trkpt>
      <trkpt lat="44.86385" lon="5.77438">
        <ele>748</ele>
        <time>2017-12-15T23:02:21Z</time>
      </trkpt>
      <trkpt lat="44.86374" lon="5.77414">
        <ele>743</ele>
        <time>2017-12-15T23:02:36Z</time>
      </trkpt>
      <trkpt lat="44.86357" lon="5.77388">
        <ele>744</ele>
        <time>2017-12-15T23:02:38Z</time>
      </trkpt>
      <trkpt lat="44.86298" lon="5.77315">
        <ele>756</ele>
        <time>2017-12-15T23:02:51Z</time>
      </trkpt>
      <trkpt lat="44.86282" lon="5.7728">
        <ele>757</ele>
        <time>2017-12-15T23:03:04Z</time>
      </trkpt>
      <trkpt lat="44.86257" lon="5.77196">
        <ele>755</ele>
        <time>2017-12-15T23:03:11Z</time>
      </trkpt>
      <trkpt lat="44.86244" lon="5.77164">
        <ele>765</ele>
        <time>2017-12-15T23:03:19Z</time>
      </trkpt>
      <trkpt lat="44.8623" lon="5.77143">
        <ele>768</ele>
        <time>2017-12-15T23:03:27Z</time>
      </trkpt>
      <trkpt lat="44.86208" lon="5.77108">
        <ele>769</ele>
        <time>2017-12-15T23:03:34Z</time>
      </trkpt>
      <trkpt lat="44.86202" lon="5.77082">
        <ele>768</ele>
        <time>2017-12-15T23:03:40Z</time>
      </trkpt>
      <trkpt lat="44.86201" lon="5.77068">
        <ele>769</ele>
        <time>2017-12-15T23:03:48Z</time>
      </trkpt>
      <trkpt lat="44.86205" lon="5.77021">
        <ele>768</ele>
        <time>2017-12-15T23:03:59Z</time>
      </trkpt>
      <trkpt lat="44.86207" lon="5.76994">
        <ele>769</ele>
        <time>2017-12-15T23:04:02Z</time>
      </trkpt>
      <trkpt lat="44.86205" lon="5.7698">
        <ele>769</ele>
        <time>2017-12-15T23:04:05Z</time>
      </trkpt>
      <trkpt lat="44.86199" lon="5.76964">
        <ele>770</ele>
        <time>2017-12-15T23:04:25Z</time>
      </trkpt>
      <trkpt lat="44.86158" lon="5.76908">
        <ele>781</ele>
        <time>2017-12-15T23:04:31Z</time>
      </trkpt>
      <trkpt lat="44.86151" lon="5.76883">
        <ele>784</ele>
        <time>2017-12-15T23:04:45Z</time>
      </trkpt>
      <trkpt lat="44.8615" lon="5.76869">
        <ele>784</ele>
        <time>2017-12-15T23:04:57Z</time>
      </trkpt>
      <trkpt lat="44.86155" lon="5.76821">
        <ele>784</ele>
        <time>2017-12-15T23:05:08Z</time>
      </trkpt>
      <trkpt lat="44.86172" lon="5.76709">
        <ele>777</ele>
        <time>2017-12-15T23:05:13Z</time>
      </trkpt>
      <trkpt lat="44.86173" lon="5.76682">
        <ele>780</ele>
        <time>2017-12-15T23:05:30Z</time>
      </trkpt>
      <trkpt lat="44.86171" lon="5.76672">
        <ele>783</ele>
        <time>2017-12-15T23:05:46Z</time>
      </trkpt>
      <trkpt lat="44.86164" lon="5.76657">
        <ele>785</ele>
        <time>2017-12-15T23:06:06Z</time>
      </trkpt>
      <trkpt lat="44.86158" lon="5.7665">
        <ele>784</ele>
        <time>2017-12-15T23:06:21Z</time>
      </trkpt>
      <trkpt lat="44.86146" lon="5.76645">
        <ele>784</ele>
        <time>2017-12-15T23:06:37Z</time>
      </trkpt>
      <trkpt lat="44.86133" lon="5.76645">
        <ele>784</ele>
        <time>2017-12-15T23:06:57Z</time>
      </trkpt>
      <trkpt lat="44.86121" lon="5.76653">
        <ele>785</ele>
        <time>2017-12-15T23:07:01Z</time>
      </trkpt>
      <trkpt lat="44.86093" lon="5.7669">
        <ele>790</ele>
        <time>2017-12-15T23:07:21Z</time>
      </trkpt>
      <trkpt lat="44.86081" lon="5.76703">
        <ele>794</ele>
        <time>2017-12-15T23:07:37Z</time>
      </trkpt>
      <trkpt lat="44.8607" lon="5.76707">
        <ele>795</ele>
        <time>2017-12-15T23:07:41Z</time>
      </trkpt>
      <trkpt lat="44.86048" lon="5.76709">
        <ele>795</ele>
        <time>2017-12-15T23:07:59Z</time>
      </trkpt>
      <trkpt lat="44.86005" lon="5.7671">
        <ele>796</ele>
        <time>2017-12-15T23:08:08Z</time>
      </trkpt>
      <trkpt lat="44.85983" lon="5.76708">
        <ele>799</ele>
        <time>2017-12-15T23:08:18Z</time>
      </trkpt>
      <trkpt lat="44.85962" lon="5.76704">
        <ele>799</ele>
        <time>2017-12-15T23:08:38Z</time>
      </trkpt>
      <trkpt lat="44.85942" lon="5.76696">
        <ele>800</ele>
        <time>2017-12-15T23:08:53Z</time>
      </trkpt>
      <trkpt lat="44.85918" lon="5.76688">
        <ele>800</ele>
        <time>2017-12-15T23:08:58Z</time>
      </trkpt>
      <trkpt lat="44.85895" lon="5.76683">
        <ele>805</ele>
        <time>2017-12-15T23:09:08Z</time>
      </trkpt>
      <trkpt lat="44.85857" lon="5.76671">
        <ele>808</ele>
        <time>2017-12-15T23:09:20Z</time>
      </trkpt>
      <trkpt lat="44.8584" lon="5.7666">
        <ele>808</ele>
        <time>2017-12-15T23:09:27Z</time>
      </trkpt>
      <trkpt lat="44.85824" lon="5.7664">
        <ele>813</ele>
        <time>2017-12-15T23:09:31Z</time>
      </trkpt>
      <trkpt lat="44.85807" lon="5.76612">
        <ele>813</ele>
        <time>2017-12-15T23:09:43Z</time>
      </trkpt>
      <trkpt lat="44.85783" lon="5.76551">
        <ele>812</ele>
        <time>2017-12-15T23:09:52Z</time>
      </trkpt>
      <trkpt lat="44.85776" lon="5.76501">
        <ele>813</ele>
        <time>2017-12-15T23:09:55Z</time>
      </trkpt>
      <trkpt lat="44.85774" lon="5.76469">
        <ele>812</ele>
        <time>2017-12-15T23:10:08Z</time>
      </trkpt>
      <trkpt lat="44.8577" lon="5.76444">
        <ele>813</ele>
        <time>2017-12-15T23:10:23Z</time>
      </trkpt>
      <trkpt lat="44.85765" lon="5.76431">
        <ele>813</ele>
        <time>2017-12-15T23:10:31Z</time>
      </trkpt>
      <trkpt lat="44.85758" lon="5.76421">
        <ele>815</ele>
        <time>2017-12-15T23:10:41Z</time>
      </trkpt>
      <trkpt lat="44.85742" lon="5.76407">
        <ele>817</ele>
        <time>2017-12-15T23:10:45Z</time>
      </trkpt>
      <trkpt lat="44.85659" lon="5.76367">
        <ele>821</ele>
        <time>2017-12-15T23:10:47Z</time>
      </trkpt>
      <trkpt lat="44.85542" lon="5.76299">
        <ele>822</ele>
        <time>2017-12-15T23:10:50Z</time>
      </trkpt>
      <trkpt lat="44.85483" lon="5.76263">
        <ele>821</ele>
        <time>2017-12-15T23:11:07Z</time>
      </trkpt>
      <trkpt lat="44.85451" lon="5.76245">
        <ele>821</ele>
        <time>2017-12-15T23:11:21Z</time>
      </trkpt>
      <trkpt lat="44.8541" lon="5.76222">
        <ele>822</ele>
        <time>2017-12-15T23:11:34Z</time>
      </trkpt>
      <trkpt lat="44.8538" lon="5.76202">
        <ele>822</ele>
        <time>2017-12-15T23:11:51Z</time>
      </trkpt>
      <trkpt lat="44.8537" lon="5.76197">
        <ele>822</ele>
        <time>2017-12-15T23:11:53Z</time>
      </trkpt>
      <trkpt lat="44.85361" lon="5.76194">
        <ele>822</ele>
        <time>2017-12-15T23:12:08Z</time>
      </trkpt>
      <trkpt lat="44.85348" lon="5.76195">
        <ele>822</ele>
        <time>2017-12-15T23:12:19Z</time>
      </trkpt>
      <trkpt lat="44.8531" lon="5.76216">
        <ele>822</ele>
        <time>2017-12-15T23:12:38Z</time>
      </trkpt>
      <trkpt lat="44.8526" lon="5.76244">
        <ele>821</ele>
        <time>2017-12-15T23:12:41Z</time>
      </trkpt>
      <trkpt lat="44.85154" lon="5.76305">
        <ele>820</ele>
        <time>2017-12-15T23:12:58Z</time>
      </trkpt>
      <trkpt lat="44.85006" lon="5.7639">
        <ele>820</ele>
        <time>2017-12-15T23:13:00Z</time>
      </trkpt>
      <trkpt lat="44.84922" lon="5.76437">
        <ele>815</ele>
        <time>2017-12-15T23:13:07Z</time>
      </trkpt>
      <trkpt lat="44.84901" lon="5.76451">
        <ele>810</ele>
        <time>2017-12-15T23:13:14Z</time>
      </trkpt>
      <trkpt lat="44.8488" lon="5.76467">
        <ele>810</ele>
        <time>2017-12-15T23:13:28Z</time>
      </trkpt>
      <trkpt lat="44.84859" lon="5.76488">
        <ele>809</ele>
        <time>2017-12-15T23:13:38Z</time>
      </trkpt>
      <trkpt lat="44.84838" lon="5.76514">
        <ele>810</ele>
        <time>2017-12-15T23:13:52Z</time>
      </trkpt>
      <trkpt lat="44.84819" lon="5.76542">
        <ele>808</ele>
        <time>2017-12-15T23:14:00Z</time>
      </trkpt>
      <trkpt lat="44.84803" lon="5.76573">
        <ele>808</ele>
        <time>2017-12-15T23:14:09Z</time>
      </trkpt>
      <trkpt lat="44.84785" lon="5.76604">
        <ele>809</ele>
        <time>2017-12-15T23:14:24Z</time>
      </trkpt>
      <trkpt lat="44.84769" lon="5.76627">
        <ele>809</ele>
        <time>2017-12-15T23:14:38Z</time>
      </trkpt>
      <trkpt lat="44.84744" lon="5.76638">
        <ele>812</ele>
        <time>2017-12-15T23:14:47Z</time>
      </trkpt>
      <trkpt lat="44.8473" lon="5.76641">
        <ele>813</ele>
        <time>2017-12-15T23:15:03Z</time>
      </trkpt>
      <trkpt lat="44.84715" lon="5.76639">
        <ele>814</ele>
        <time>2017-12-15T23:15:10Z</time>
      </trkpt>
      <trkpt lat="44.8469" lon="5.76629">
        <ele>815</ele>
        <time>2017-12-15T23:15:13Z</time>
      </trkpt>
      <trkpt lat="44.84667" lon="5.76607">
        <ele>814</ele>
        <time>2017-12-15T23:15:15Z</time>
      </trkpt>
      <trkpt lat="44.84622" lon="5.76556">
        <ele>813</ele>
        <time>2017-12-15T23:15:34Z</time>
      </trkpt>
      <trkpt lat="44.84575" lon="5.76502">
        <ele>814</ele>
        <time>2017-12-15T23:15:36Z</time>
      </trkpt>
      <trkpt lat="44.84553" lon="5.76466">
        <ele>816</ele>
        <time>2017-12-15T23:15:45Z</time>
      </trkpt>
      <trkpt lat="44.84537" lon="5.76424">
        <ele>816</ele>
        <time>2017-12-15T23:15:49Z</time>
      </trkpt>
      <trkpt lat="44.84527" lon="5.76384">
        <ele>816</ele>
        <time>2017-12-15T23:15:52Z</time>
      </trkpt>
      <trkpt lat="44.84523" lon="5.76349">
        <ele>817</ele>
        <time>2017-12-15T23:15:57Z</time>
      </trkpt>
      <trkpt lat="44.84518" lon="5.76295">
        <ele>818</ele>
        <time>2017-12-15T23:16:07Z</time>
      </trkpt>
      <trkpt lat="44.84516" lon="5.7628">
        <ele>818</ele>
        <time>2017-12-15T23:16:18Z</time>
      </trkpt>
      <trkpt lat="44.84505" lon="5.76241">
        <ele>820</ele>
        <time>2017-12-15T23:16:20Z</time>
      </trkpt>
      <trkpt lat="44.84496" lon="5.76222">
        <ele>823</ele>
        <time>2017-12-15T23:16:30Z</time>
      </trkpt>
      <trkpt lat="44.84485" lon="5.76205">
        <ele>823</ele>
        <time>2017-12-15T23:16:47Z</time>
      </trkpt>
      <trkpt lat="44.84454" lon="5.76172">
        <ele>823</ele>
        <time>2017-12-15T23:17:03Z</time>
      </trkpt>
      <trkpt lat="44.84428" lon="5.76146">
        <ele>822</ele>
        <time>2017-12-15T23:17:08Z</time>
      </trkpt>
      <trkpt lat="44.84415" lon="5.7613">
        <ele>826</ele>
        <time>2017-12-15T23:17:21Z</time>
      </trkpt>
      <trkpt lat="44.84383" lon="5.76077">
        <ele>819</ele>
        <time>2017-12-15T23:17:24Z</time>
      </trkpt>
      <trkpt lat="44.84363" lon="5.76042">
        <ele>819</ele>
        <time>2017-12-15T23:17:28Z</time>
      </trkpt>
      <trkpt lat="44.84343" lon="5.76015">
        <ele>819</ele>
        <time>2017-12-15T23:17:36Z</time>
      </trkpt>
      <trkpt lat="44.84286" lon="5.75962">
        <ele>824</ele>
        <time>2017-12-15T23:17:43Z</time>
      </trkpt>
      <trkpt lat="44.84203" lon="5.75893">
        <ele>830</ele>
        <time>2017-12-15T23:18:02Z</time>
      </trkpt>
      <trkpt lat="44.84137" lon="5.75835">
        <ele>835</ele>
        <time>2017-12-15T23:18:10Z</time>
      </trkpt>
      <trkpt lat="44.84107" lon="5.75816">
        <ele>828</ele>
        <time>2017-12-15T23:18:27Z</time>
      </trkpt>
      <trkpt lat="44.8409" lon="5.75812">
        <ele>829</ele>
        <time>2017-12-15T23:18:40Z</time>
      </trkpt>
      <trkpt lat="44.84074" lon="5.7581">
        <ele>832</ele>
        <time>2017-12-15T23:18:44Z</time>
      </trkpt>
      <trkpt lat="44.84041" lon="5.75811">
        <ele>833</ele>
        <time>2017-12-15T23:18:52Z</time>
      </trkpt>
      <trkpt lat="44.84011" lon="5.75814">
        <ele>834</ele>
        <time>2017-12-15T23:18:59Z</time>
      </trkpt>
      <trkpt lat="44.83997" lon="5.75813">
        <ele>838</ele>
        <time>2017-12-15T23:19:06Z</time>
      </trkpt>
      <trkpt lat="44.83983" lon="5.7581">
        <ele>839</ele>
        <time>2017-12-15T23:19:24Z</time>
      </trkpt>
      <trkpt lat="44.83972" lon="5.75803">
        <ele>840</ele>
        <time>2017-12-15T23:19:29Z</time>
      </trkpt>
      <trkpt lat="44.8396" lon="5.75791">
        <ele>841</ele>
        <time>2017-12-15T23:19:31Z</time>
      </trkpt>
      <trkpt lat="44.83952" lon="5.75776">
        <ele>842</ele>
        <time>2017-12-15T23:19:46Z</time>
      </trkpt>
      <trkpt lat="44.83948" lon="5.75759">
        <ele>843</ele>
        <time>2017-12-15T23:19:53Z</time>
      </trkpt>
      <trkpt lat="44.83947" lon="5.7574">
        <ele>847</ele>
        <time>2017-12-15T23:20:03Z</time>
      </trkpt>
      <trkpt lat="44.83949" lon="5.75722">
        <ele>847</ele>
        <time>2017-12-15T23:20:20Z</time>
      </trkpt>
      <trkpt lat="44.83953" lon="5.75704">
        <ele>847</ele>
        <time>2017-12-15T23:20:35Z</time>
      </trkpt>
      <trkpt lat="44.83961" lon="5.75686">
        <ele>847</ele>
        <time>2017-12-15T23:20:52Z</time>
      </trkpt>
      <trkpt lat="44.8398" lon="5.7565">
        <ele>850</ele>
        <time>2017-12-15T23:21:05Z</time>
      </trkpt>
      <trkpt lat="44.84013" lon="5.75592">
        <ele>843</ele>
        <time>2017-12-15T23:21:23Z</time>
      </trkpt>
      <trkpt lat="44.84057" lon="5.75515">
        <ele>846</ele>
        <time>2017-12-15T23:21:26Z</time>
      </trkpt>
      <trkpt lat="44.84069" lon="5.75498">
        <ele>853</ele>
        <time>2017-12-15T23:21:38Z</time>
      </trkpt>
      <trkpt lat="44.84082" lon="5.75485">
        <ele>853</ele>
        <time>2017-12-15T23:21:48Z</time>
      </trkpt>
      <trkpt lat="44.84097" lon="5.75477">
        <ele>848</ele>
        <time>2017-12-15T23:21:53Z</time>
      </trkpt>
      <trkpt lat="44.84113" lon="5.75471">
        <ele>848</ele>
        <time>2017-12-15T23:22:00Z</time>
      </trkpt>
      <trkpt lat="44.84139" lon="5.75462">
        <ele>848</ele>
        <time>2017-12-15T23:22:03Z</time>
      </trkpt>
      <trkpt lat="44.84163" lon="5.75443">
        <ele>849</ele>
        <time>2017-12-15T23:22:22Z</time>
      </trkpt>
      <trkpt lat="44.84176" lon="5.75429">
        <ele>842</ele>
        <time>2017-12-15T23:22:27Z</time>
      </trkpt>
      <trkpt lat="44.84186" lon="5.75412">
        <ele>849</ele>
        <time>2017-12-15T23:22:45Z</time>
      </trkpt>
      <trkpt lat="44.84202" lon="5.75373">
        <ele>847</ele>
        <time>2017-12-15T23:22:59Z</time>
      </trkpt>
      <trkpt lat="44.8421" lon="5.75329">
        <ele>852</ele>
        <time>2017-12-15T23:23:02Z</time>
      </trkpt>
      <trkpt lat="44.84213" lon="5.75283">
        <ele>852</ele>
        <time>2017-12-15T23:23:19Z</time>
      </trkpt>
      <trkpt lat="44.84208" lon="5.75236">
        <ele>850</ele>
        <time>2017-12-15T23:23:35Z</time>
      </trkpt>
      <trkpt lat="44.84198" lon="5.75189">
        <ele>851</ele>
        <time>2017-12-15T23:23:40Z</time>
      </trkpt>
      <trkpt lat="44.84171" lon="5.75101">
        <ele>848</ele>
        <time>2017-12-15T23:23:53Z</time>
      </trkpt>
      <trkpt lat="44.84157" lon="5.7506">
        <ele>861</ele>
        <time>2017-12-15T23:24:00Z</time>
      </trkpt>
      <trkpt lat="44.84148" lon="5.7504">
        <ele>863</ele>
        <time>2017-12-15T23:24:03Z</time>
      </trkpt>
      <trkpt lat="44.84138" lon="5.75023">
        <ele>863</ele>
        <time>2017-12-15T23:24:16Z</time>
      </trkpt>
      <trkpt lat="44.8412" lon="5.74994">
        <ele>870</ele>
        <time>2017-12-15T23:24:30Z</time>
      </trkpt>
      <trkpt lat="44.84116" lon="5.74979">
        <ele>871</ele>
        <time>2017-12-15T23:24:39Z</time>
      </trkpt>
      <trkpt lat="44.84116" lon="5.74965">
        <ele>872</ele>
        <time>2017-12-15T23:24:49Z</time>
      </trkpt>
      <trkpt lat="44.8412" lon="5.74951">
        <ele>872</ele>
        <time>2017-12-15T23:24:51Z</time>
      </trkpt>
      <trkpt lat="44.84128" lon="5.74942">
        <ele>872</ele>
        <time>2017-12-15T23:24:54Z</time>
      </trkpt>
      <trkpt lat="44.84138" lon="5.74937">
        <ele>870</ele>
        <time>2017-12-15T23:25:12Z</time>
      </trkpt>
      <trkpt lat="44.8415" lon="5.74935">
        <ele>869</ele>
        <time>2017-12-15T23:25:16Z</time>
      </trkpt>
      <trkpt lat="44.84176" lon="5.7493">
        <ele>857</ele>
        <time>2017-12-15T23:25:30Z</time>
      </trkpt>
      <trkpt lat="44.84203" lon="5.74917">
        <ele>852</ele>
        <time>2017-12-15T23:25:40Z</time>
      </trkpt>
      <trkpt lat="44.84266" lon="5.74884">
        <ele>857</ele>
        <time>2017-12-15T23:25:55Z</time>
      </trkpt>
      <trkpt lat="44.84294" lon="5.74865">
        <ele>856</ele>
        <time>2017-12-15T23:26:06Z</time>
      </trkpt>
      <trkpt lat="44.84305" lon="5.74852">
        <ele>856</ele>
        <time>2017-12-15T23:26:14Z</time>
      </trkpt>
      <trkpt lat="44.84313" lon="5.74835">
        <ele>856</ele>
        <time>2017-12-15T23:26:19Z</time>
      </trkpt>
      <trkpt lat="44.84319" lon="5.74816">
        <ele>868</ele>
        <time>2017-12-15T23:26:32Z</time>
      </trkpt>
      <trkpt lat="44.84323" lon="5.74795">
        <ele>872</ele>
        <time>2017-12-15T23:26:48Z</time>
      </trkpt>
      <trkpt lat="44.84328" lon="5.74748">
        <ele>872</ele>
        <time>2017-12-15T23:27:08Z</time>
      </trkpt>
      <trkpt lat="44.84332" lon="5.74645">
        <ele>890</ele>
        <time>2017-12-15T23:27:21Z</time>
      </trkpt>
      <trkpt lat="44.84334" lon="5.74594">
        <ele>874</ele>
        <time>2017-12-15T23:27:36Z</time>
      </trkpt>
      <trkpt lat="44.84339" lon="5.74571">
        <ele>877</ele>
        <time>2017-12-15T23:27:54Z</time>
      </trkpt>
      <trkpt lat="44.84346" lon="5.7455">
        <ele>875</ele>
        <time>2017-12-15T23:28:14Z</time>
      </trkpt>
      <trkpt lat="44.84366" lon="5.74508">
        <ele>875</ele>
        <time>2017-12-15T23:28:33Z</time>
      </trkpt>
      <trkpt lat="44.84387" lon="5.74467">
        <ele>880</ele>
        <time>2017-12-15T23:28:41Z</time>
      </trkpt>
      <trkpt lat="44.84406" lon="5.74425">
        <ele>877</ele>
        <time>2017-12-15T23:29:00Z</time>
      </trkpt>
      <trkpt lat="44.84419" lon="5.74378">
        <ele>864</ele>
        <time>2017-12-15T23:29:02Z</time>
      </trkpt>
      <trkpt lat="44.84425" lon="5.74327">
        <ele>876</ele>
        <time>2017-12-15T23:29:16Z</time>
      </trkpt>
      <trkpt lat="44.8443" lon="5.74274">
        <ele>869</ele>
        <time>2017-12-15T23:29:24Z</time>
      </trkpt>
      <trkpt lat="44.8444" lon="5.74225">
        <ele>868</ele>
        <time>2017-12-15T23:29:34Z</time>
      </trkpt>
      <trkpt lat="44.84454" lon="5.74177">
        <ele>866</ele>
        <time>2017-12-15T23:29:38Z</time>
      </trkpt>
      <trkpt lat="44.84465" lon="5.74137">
        <ele>865</ele>
        <time>2017-12-15T23:29:49Z</time>
      </trkpt>
      <trkpt lat="44.84467" lon="5.74121">
        <ele>865</ele>
        <time>2017-12-15T23:29:56Z</time>
      </trkpt>
      <trkpt lat="44.84467" lon="5.74105">
        <ele>865</ele>
        <time>2017-12-15T23:30:02Z</time>
      </trkpt>
      <trkpt lat="44.84462" lon="5.74092">
        <ele>865</ele>
        <time>2017-12-15T23:30:18Z</time>
      </trkpt>
      <trkpt lat="44.84453" lon="5.74083">
        <ele>861</ele>
        <time>2017-12-15T23:30:27Z</time>
      </trkpt>
      <trkpt lat="44.84443" lon="5.74081">
        <ele>861</ele>
        <time>2017-12-15T23:30:33Z</time>
      </trkpt>
      <trkpt lat="44.84433" lon="5.74085">
        <ele>865</ele>
        <time>2017-12-15T23:30:35Z</time>
      </trkpt>
      <trkpt lat="44.84425" lon="5.74096">
        <ele>865</ele>
        <time>2017-12-15T23:30:42Z</time>
      </trkpt>
      <trkpt lat="44.8442" lon="5.74109">
        <ele>866</ele>
        <time>2017-12-15T23:30:52Z</time>
      </trkpt>
      <trkpt lat="44.84406" lon="5.74137">
        <ele>869</ele>
        <time>2017-12-15T23:31:09Z</time>
      </trkpt>
      <trkpt lat="44.84396" lon="5.74151">
        <ele>870</ele>
        <time>2017-12-15T23:31:11Z</time>
      </trkpt>
      <trkpt lat="44.84373" lon="5.74176">
        <ele>876</ele>
        <time>2017-12-15T23:31:17Z</time>
      </trkpt>
      <trkpt lat="44.84348" lon="5.74196">
        <ele>876</ele>
        <time>2017-12-15T23:31:19Z</time>
      </trkpt>
      <trkpt lat="44.8432" lon="5.74213">
        <ele>881</ele>
        <time>2017-12-15T23:31:34Z</time>
      </trkpt>
      <trkpt lat="44.84291" lon="5.74228">
        <ele>883</ele>
        <time>2017-12-15T23:31:46Z</time>
      </trkpt>
      <trkpt lat="44.84276" lon="5.74232">
        <ele>884</ele>
        <time>2017-12-15T23:31:56Z</time>
      </trkpt>
      <trkpt lat="44.84262" lon="5.7423">
        <ele>885</ele>
        <time>2017-12-15T23:32:02Z</time>
      </trkpt>
      <trkpt lat="44.8425" lon="5.74222">
        <ele>884</ele>
        <time>2017-12-15T23:32:12Z</time>
      </trkpt>
      <trkpt lat="44.8424" lon="5.74209">
        <ele>889</ele>
        <time>2017-12-15T23:32:21Z</time>
      </trkpt>
      <trkpt lat="44.84226" lon="5.74173">
        <ele>886</ele>
        <time>2017-12-15T23:32:38Z</time>
      </trkpt>
      <trkpt lat="44.84219" lon="5.74157">
        <ele>881</ele>
        <time>2017-12-15T23:32:58Z</time>
      </trkpt>
      <trkpt lat="44.8421" lon="5.74142">
        <ele>881</ele>
        <time>2017-12-15T23:33:01Z</time>
      </trkpt>
      <trkpt lat="44.84193" lon="5.74118">
        <ele>881</ele>
        <time>2017-12-15T23:33:09Z</time>
      </trkpt>
      <trkpt lat="44.84179" lon="5.74098">
        <ele>880</ele>
        <time>2017-12-15T23:33:16Z</time>
      </trkpt>
      <trkpt lat="44.8414" lon="5.74054">
        <ele>882</ele>
        <time>2017-12-15T23:33:34Z</time>
      </trkpt>
      <trkpt lat="44.84127" lon="5.74044">
        <ele>883</ele>
        <time>2017-12-15T23:33:51Z</time>
      </trkpt>
      <trkpt lat="44.84113" lon="5.74036">
        <ele>883</ele>
        <time>2017-12-15T23:33:55Z</time>
      </trkpt>
      <trkpt lat="44.84083" lon="5.74023">
        <ele>893</ele>
        <time>2017-12-15T23:34:06Z</time>
      </trkpt>
      <trkpt lat="44.84052" lon="5.74009">
        <ele>897</ele>
        <time>2017-12-15T23:34:16Z</time>
      </trkpt>
      <trkpt lat="44.84039" lon="5.73999">
        <ele>888</ele>
        <time>2017-12-15T23:34:24Z</time>
      </trkpt>
      <trkpt lat="44.84027" lon="5.73984">
        <ele>890</ele>
        <time>2017-12-15T23:34:28Z</time>
      </trkpt>
      <trkpt lat="44.84006" lon="5.7395">
        <ele>888</ele>
        <time>2017-12-15T23:34:34Z</time>
      </trkpt>
      <trkpt lat="44.83984" lon="5.73916">
        <ele>888</ele>
        <time>2017-12-15T23:34:53Z</time>
      </trkpt>
      <trkpt lat="44.83961" lon="5.73887">
        <ele>888</ele>
        <time>2017-12-15T23:34:58Z</time>
      </trkpt>
      <trkpt lat="44.83947" lon="5.73877">
        <ele>889</ele>
        <time>2017-12-15T23:35:05Z</time>
      </trkpt>
      <trkpt lat="44.83932" lon="5.73869">
        <ele>889</ele>
        <time>2017-12-15T23:35:14Z</time>
      </trkpt>
      <trkpt lat="44.83902" lon="5.73852">
        <ele>895</ele>
        <time>2017-12-15T23:35:19Z</time>
      </trkpt>
      <trkpt lat="44.83874" lon="5.73832">
        <ele>885</ele>
        <time>2017-12-15T23:35:22Z</time>
      </trkpt>
      <trkpt lat="44.83847" lon="5.73813">
        <ele>886</ele>
        <time>2017-12-15T23:35:28Z</time>
      </trkpt>
      <trkpt lat="44.83817" lon="5.73803">
        <ele>889</ele>
        <time>2017-12-15T23:35:30Z</time>
      </trkpt>
      <trkpt lat="44.83783" lon="5.73798">
        <ele>889</ele>
        <time>2017-12-15T23:35:44Z</time>
      </trkpt>
      <trkpt lat="44.83756" lon="5.73794">
        <ele>889</ele>
        <time>2017-12-15T23:35:51Z</time>
      </trkpt>
      <trkpt lat="44.83742" lon="5.73791">
        <ele>892</ele>
        <time>2017-12-15T23:36:10Z</time>
      </trkpt>
      <trkpt lat="44.83723" lon="5.73783">
        <ele>892</ele>
        <time>2017-12-15T23:36:23Z</time>
      </trkpt>
      <trkpt lat="44.83688" lon="5.73759">
        <ele>892</ele>
        <time>2017-12-15T23:36:42Z</time>
      </trkpt>
      <trkpt lat="44.83657" lon="5.73741">
        <ele>891</ele>
        <time>2017-12-15T23:36:53Z</time>
      </trkpt>
      <trkpt lat="44.83644" lon="5.73738">
        <ele>891</ele>
        <time>2017-12-15T23:37:08Z</time>
      </trkpt>
      <trkpt lat="44.8363" lon="5.73738">
        <ele>892</ele>
        <time>2017-12-15T23:37:25Z</time>
      </trkpt>
      <trkpt lat="44.83615" lon="5.73742">
        <ele>892</ele>
        <time>2017-12-15T23:37:38Z</time>
      </trkpt>
      <trkpt lat="44.83602" lon="5.73751">
        <ele>895</ele>
        <time>2017-12-15T23:37:52Z</time>
      </trkpt>
      <trkpt lat="44.83589" lon="5.73767">
        <ele>895</ele>
        <time>2017-12-15T23:38:12Z</time>
      </trkpt>
      <trkpt lat="44.83582" lon="5.73782">
        <ele>894</ele>
        <time>2017-12-15T23:38:23Z</time>
      </trkpt>
      <trkpt lat="44.83576" lon="5.738">
        <ele>894</ele>
        <time>2017-12-15T23:38:38Z</time>
      </trkpt>
      <trkpt lat="44.8357" lon="5.73824">
        <ele>894</ele>
        <time>2017-12-15T23:38:55Z</time>
      </trkpt>
      <trkpt lat="44.8356" lon="5.7388">
        <ele>891</ele>
        <time>2017-12-15T23:39:12Z</time>
      </trkpt>
      <trkpt lat="44.83541" lon="5.73983">
        <ele>887</ele>
        <time>2017-12-15T23:39:15Z</time>
      </trkpt>
      <trkpt lat="44.83532" lon="5.74016">
        <ele>886</ele>
        <time>2017-12-15T23:39:34Z</time>
      </trkpt>
      <trkpt lat="44.83517" lon="5.74053">
        <ele>885</ele>
        <time>2017-12-15T23:39:44Z</time>
      </trkpt>
      <trkpt lat="44.83498" lon="5.74098">
        <ele>882</ele>
        <time>2017-12-15T23:40:00Z</time>
      </trkpt>
      <trkpt lat="44.83479" lon="5.74143">
        <ele>881</ele>
        <time>2017-12-15T23:40:19Z</time>
      </trkpt>
      <trkpt lat="44.83464" lon="5.7418">
        <ele>880</ele>
        <time>2017-12-15T23:40:33Z</time>
      </trkpt>
      <trkpt lat="44.83456" lon="5.74209">
        <ele>879</ele>
        <time>2017-12-15T23:40:42Z</time>
      </trkpt>
      <trkpt lat="44.83451" lon="5.74256">
        <ele>877</ele>
        <time>2017-12-15T23:40:48Z</time>
      </trkpt>
      <trkpt lat="44.83451" lon="5.74303">
        <ele>876</ele>
        <time>2017-12-15T23:40:58Z</time>
      </trkpt>
      <trkpt lat="44.83449" lon="5.74338">
        <ele>875</ele>
        <time>2017-12-15T23:41:17Z</time>
      </trkpt>
      <trkpt lat="44.8344" lon="5.74379">
        <ele>875</ele>
        <time>2017-12-15T23:41:32Z</time>
      </trkpt>
      <trkpt lat="44.83428" lon="5.74405">
        <ele>873</ele>
        <time>2017-12-15T23:41:44Z</time>
      </trkpt>
      <trkpt lat="44.83415" lon="5.74428">
        <ele>869</ele>
        <time>2017-12-15T23:41:50Z</time>
      </trkpt>
      <trkpt lat="44.83389" lon="5.74465">
        <ele>867</ele>
        <time>2017-12-15T23:41:57Z</time>
      </trkpt>
      <trkpt lat="44.83378" lon="5.74488">
        <ele>866</ele>
        <time>2017-12-15T23:42:03Z</time>
      </trkpt>
      <trkpt lat="44.8337" lon="5.74508">
        <ele>866</ele>
        <time>2017-12-15T23:42:23Z</time>
      </trkpt>
      <trkpt lat="44.83363" lon="5.74533">
        <ele>866</ele>
        <time>2017-12-15T23:42:25Z</time>
      </trkpt>
      <trkpt lat="44.8336" lon="5.74559">
        <ele>865</ele>
        <time>2017-12-15T23:42:36Z</time>
      </trkpt>
      <trkpt lat="44.83359" lon="5.7462">
        <ele>866</ele>
        <time>2017-12-15T23:42:49Z</time>
      </trkpt>
      <trkpt lat="44.83358" lon="5.74663">
        <ele>865</ele>
        <time>2017-12-15T23:42:58Z</time>
      </trkpt>
      <trkpt lat="44.83347" lon="5.7472">
        <ele>863</ele>
        <time>2017-12-15T23:43:01Z</time>
      </trkpt>
      <trkpt lat="44.83336" lon="5.74755">
        <ele>860</ele>
        <time>2017-12-15T23:43:16Z</time>
      </trkpt>
      <trkpt lat="44.83328" lon="5.74772">
        <ele>856</ele>
        <time>2017-12-15T23:43:20Z</time>
      </trkpt>
      <trkpt lat="44.83313" lon="5.74804">
        <ele>854</ele>
        <time>2017-12-15T23:43:30Z</time>
      </trkpt>
      <trkpt lat="44.83305" lon="5.74822">
        <ele>854</ele>
        <time>2017-12-15T23:43:38Z</time>
      </trkpt>
      <trkpt lat="44.83295" lon="5.74858">
        <ele>853</ele>
        <time>2017-12-15T23:43:40Z</time>
      </trkpt>
      <trkpt lat="44.83289" lon="5.74898">
        <ele>852</ele>
        <time>2017-12-15T23:43:47Z</time>
      </trkpt>
      <trkpt lat="44.8329" lon="5.74948">
        <ele>851</ele>
        <time>2017-12-15T23:44:01Z</time>
      </trkpt>
      <trkpt lat="44.83301" lon="5.75025">
        <ele>850</ele>
        <time>2017-12-15T23:44:13Z</time>
      </trkpt>
      <trkpt lat="44.83306" lon="5.75062">
        <ele>850</ele>
        <time>2017-12-15T23:44:26Z</time>
      </trkpt>
      <trkpt lat="44.83306" lon="5.7508">
        <ele>850</ele>
        <time>2017-12-15T23:44:46Z</time>
      </trkpt>
      <trkpt lat="44.83303" lon="5.75097">
        <ele>850</ele>
        <time>2017-12-15T23:44:48Z</time>
      </trkpt>
      <trkpt lat="44.83297" lon="5.75112">
        <ele>849</ele>
        <time>2017-12-15T23:45:02Z</time>
      </trkpt>
      <trkpt lat="44.83281" lon="5.75139">
        <ele>848</ele>
        <time>2017-12-15T23:45:07Z</time>
      </trkpt>
      <trkpt lat="44.83255" lon="5.75177">
        <ele>847</ele>
        <time>2017-12-15T23:45:25Z</time>
      </trkpt>
      <trkpt lat="44.83241" lon="5.75189">
        <ele>847</ele>
        <time>2017-12-15T23:45:38Z</time>
      </trkpt>
      <trkpt lat="44.83228" lon="5.75194">
        <ele>847</ele>
        <time>2017-12-15T23:45:54Z</time>
      </trkpt>
      <trkpt lat="44.83215" lon="5.75196">
        <ele>848</ele>
        <time>2017-12-15T23:45:59Z</time>
      </trkpt>
      <trkpt lat="44.83201" lon="5.75192">
        <ele>847</ele>
        <time>2017-12-15T23:46:01Z</time>
      </trkpt>
      <trkpt lat="44.83188" lon="5.75184">
        <ele>847</ele>
        <time>2017-12-15T23:46:08Z</time>
      </trkpt>
      <trkpt lat="44.83176" lon="5.75173">
        <ele>845</ele>
        <time>2017-12-15T23:46:26Z</time>
      </trkpt>
      <trkpt lat="44.83153" lon="5.75149">
        <ele>839</ele>
        <time>2017-12-15T23:46:42Z</time>
      </trkpt>
      <trkpt lat="44.83128" lon="5.75126">
        <ele>836</ele>
        <time>2017-12-15T23:46:58Z</time>
      </trkpt>
      <trkpt lat="44.831" lon="5.75111">
        <ele>834</ele>
        <time>2017-12-15T23:47:16Z</time>
      </trkpt>
      <trkpt lat="44.83085" lon="5.75107">
        <ele>833</ele>
        <time>2017-12-15T23:47:24Z</time>
      </trkpt>
      <trkpt lat="44.83069" lon="5.75106">
        <ele>831</ele>
        <time>2017-12-15T23:47:38Z</time>
      </trkpt>
      <trkpt lat="44.83054" lon="5.75108">
        <ele>831</ele>
        <time>2017-12-15T23:47:54Z</time>
      </trkpt>
      <trkpt lat="44.83038" lon="5.75113">
        <ele>830</ele>
        <time>2017-12-15T23:48:10Z</time>
      </trkpt>
      <trkpt lat="44.83023" lon="5.75121">
        <ele>830</ele>
        <time>2017-12-15T23:48:18Z</time>
      </trkpt>
      <trkpt lat="44.83009" lon="5.75132">
        <ele>830</ele>
        <time>2017-12-15T23:48:35Z</time>
      </trkpt>
      <trkpt lat="44.82997" lon="5.75146">
        <ele>826</ele>
        <time>2017-12-15T23:48:53Z</time>
      </trkpt>
      <trkpt lat="44.82985" lon="5.75162">
        <ele>826</ele>
        <time>2017-12-15T23:49:05Z</time>
      </trkpt>
      <trkpt lat="44.82965" lon="5.75196">
        <ele>830</ele>
        <time>2017-12-15T23:49:10Z</time>
      </trkpt>
      <trkpt lat="44.82954" lon="5.75211">
        <ele>830</ele>
        <time>2017-12-15T23:49:28Z</time>
      </trkpt>
      <trkpt lat="44.82941" lon="5.75223">
        <ele>830</ele>
        <time>2017-12-15T23:49:34Z</time>
      </trkpt>
      <trkpt lat="44.82927" lon="5.75231">
        <ele>829</ele>
        <time>2017-12-15T23:49:44Z</time>
      </trkpt>
      <trkpt lat="44.82912" lon="5.75236">
        <ele>826</ele>
        <time>2017-12-15T23:49:56Z</time>
      </trkpt>
      <trkpt lat="44.82897" lon="5.75236">
        <ele>825</ele>
        <time>2017-12-15T23:50:05Z</time>
      </trkpt>
      <trkpt lat="44.82874" lon="5.75232">
        <ele>823</ele>
        <time>2017-12-15T23:50:09Z</time>
      </trkpt>
      <trkpt lat="44.82837" lon="5.75221">
        <ele>823</ele>
        <time>2017-12-15T23:50:26Z</time>
      </trkpt>
      <trkpt lat="44.82808" lon="5.75209">
        <ele>825</ele>
        <time>2017-12-15T23:50:45Z</time>
      </trkpt>
      <trkpt lat="44.82796" lon="5.75198">
        <ele>825</ele>
        <time>2017-12-15T23:50:48Z</time>
      </trkpt>
      <trkpt lat="44.82785" lon="5.75184">
        <ele>825</ele>
        <time>2017-12-15T23:50:56Z</time>
      </trkpt>
      <trkpt lat="44.82777" lon="5.75168">
        <ele>825</ele>
        <time>2017-12-15T23:51:11Z</time>
      </trkpt>
      <trkpt lat="44.82772" lon="5.75139">
        <ele>819</ele>
        <time>2017-12-15T23:51:23Z</time>
      </trkpt>
      <trkpt lat="44.8277" lon="5.75099">
        <ele>817</ele>
        <time>2017-12-15T23:51:38Z</time>
      </trkpt>
      <trkpt lat="44.82761" lon="5.7506">
        <ele>812</ele>
        <time>2017-12-15T23:51:51Z</time>
      </trkpt>
      <trkpt lat="44.82754" lon="5.75042">
        <ele>811</ele>
        <time>2017-12-15T23:52:04Z</time>
      </trkpt>
      <trkpt lat="44.82745" lon="5.75026">
        <ele>814</ele>
        <time>2017-12-15T23:52:24Z</time>
      </trkpt>
      <trkpt lat="44.82734" lon="5.75013">
        <ele>813</ele>
        <time>2017-12-15T23:52:41Z</time>
      </trkpt>
      <trkpt lat="44.82722" lon="5.75002">
        <ele>814</ele>
        <time>2017-12-15T23:52:49Z</time>
      </trkpt>
      <trkpt lat="44.82696" lon="5.74984">
        <ele>809</ele>
        <time>2017-12-15T23:52:52Z</time>
      </trkpt>
      <trkpt lat="44.82665" lon="5.74962">
        <ele>811</ele>
        <time>2017-12-15T23:53:03Z</time>
      </trkpt>
      <trkpt lat="44.82653" lon="5.7495">
        <ele>810</ele>
        <time>2017-12-15T23:53:11Z</time>
      </trkpt>
      <trkpt lat="44.82634" lon="5.74921">
        <ele>809</ele>
        <time>2017-12-15T23:53:16Z</time>
      </trkpt>
      <trkpt lat="44.82611" lon="5.74889">
        <ele>803</ele>
        <time>2017-12-15T23:53:20Z</time>
      </trkpt>
      <trkpt lat="44.82589" lon="5.74873">
        <ele>802</ele>
        <time>2017-12-15T23:53:24Z</time>
      </trkpt>
      <trkpt lat="44.82562" lon="5.74865">
        <ele>803</ele>
        <time>2017-12-15T23:53:28Z</time>
      </trkpt>
      <trkpt lat="44.82505" lon="5.74851">
        <ele>801</ele>
        <time>2017-12-15T23:53:35Z</time>
      </trkpt>
      <trkpt lat="44.82463" lon="5.74839">
        <ele>802</ele>
        <time>2017-12-15T23:53:40Z</time>
      </trkpt>
      <trkpt lat="44.82435" lon="5.74828">
        <ele>794</ele>
        <time>2017-12-15T23:53:59Z</time>
      </trkpt>
      <trkpt lat="44.82382" lon="5.74804">
        <ele>793</ele>
        <time>2017-12-15T23:54:06Z</time>
      </trkpt>
      <trkpt lat="44.82329" lon="5.74781">
        <ele>790</ele>
        <time>2017-12-15T23:54:12Z</time>
      </trkpt>
      <trkpt lat="44.82304" lon="5.7477">
        <ele>789</ele>
        <time>2017-12-15T23:54:22Z</time>
      </trkpt>
      <trkpt lat="44.82279" lon="5.74762">
        <ele>788</ele>
        <time>2017-12-15T23:54:38Z</time>
      </trkpt>
      <trkpt lat="44.82253" lon="5.74763">
        <ele>787</ele>
        <time>2017-12-15T23:54:54Z</time>
      </trkpt>
      <trkpt lat="44.82227" lon="5.74771">
        <ele>787</ele>
        <time>2017-12-15T23:55:02Z</time>
      </trkpt>
      <trkpt lat="44.82202" lon="5.74785">
        <ele>787</ele>
        <time>2017-12-15T23:55:19Z</time>
      </trkpt>
      <trkpt lat="44.82178" lon="5.74802">
        <ele>788</ele>
        <time>2017-12-15T23:55:25Z</time>
      </trkpt>
      <trkpt lat="44.82155" lon="5.74819">
        <ele>784</ele>
        <time>2017-12-15T23:55:29Z</time>
      </trkpt>
      <trkpt lat="44.82136" lon="5.74836">
        <ele>784</ele>
        <time>2017-12-15T23:55:32Z</time>
      </trkpt>
      <trkpt lat="44.82121" lon="5.74858">
        <ele>782</ele>
        <time>2017-12-15T23:55:49Z</time>
      </trkpt>
      <trkpt lat="44.82109" lon="5.74884">
        <ele>781</ele>
        <time>2017-12-15T23:55:51Z</time>
      </trkpt>
      <trkpt lat="44.82105" lon="5.74895">
        <ele>781</ele>
        <time>2017-12-15T23:56:02Z</time>
      </trkpt>
      <trkpt lat="44.82101" lon="5.74894">
        <ele>780</ele>
        <time>2017-12-15T23:56:12Z</time>
      </trkpt>
      <trkpt lat="44.82085" lon="5.74885">
        <ele>780</ele>
        <time>2017-12-15T23:56:26Z</time>
      </trkpt>
      <trkpt lat="44.82075" lon="5.7488">
        <ele>773</ele>
        <time>2017-12-15T23:56:39Z</time>
      </trkpt>
      <trkpt lat="44.82067" lon="5.74872">
        <ele>773</ele>
        <time>2017-12-15T23:56:45Z</time>
      </trkpt>
      <trkpt lat="44.82047" lon="5.7485">
        <ele>773</ele>
        <time>2017-12-15T23:56:47Z</time>
      </trkpt>
      <trkpt lat="44.82027" lon="5.74851">
        <ele>772</ele>
        <time>2017-12-15T23:57:05Z</time>
      </trkpt>
      <trkpt lat="44.82001" lon="5.74868">
        <ele>771</ele>
        <time>2017-12-15T23:57:08Z</time>
      </trkpt>
      <trkpt lat="44.81978" lon="5.74886">
        <ele>764</ele>
        <time>2017-12-15T23:57:17Z</time>
      </trkpt>
      <trkpt lat="44.81966" lon="5.74896">
        <ele>763</ele>
        <time>2017-12-15T23:57:27Z</time>
      </trkpt>
      <trkpt lat="44.8196" lon="5.74897">
        <ele>763</ele>
        <time>2017-12-15T23:57:47Z</time>
      </trkpt>
      <trkpt lat="44.81941" lon="5.749">
        <ele>761</ele>
        <time>2017-12-15T23:57:59Z</time>
      </trkpt>
      <trkpt lat="44.81925" lon="5.74912">
        <ele>758</ele>
        <time>2017-12-15T23:58:18Z</time>
      </trkpt>
      <trkpt lat="44.81922" lon="5.74919">
        <ele>758</ele>
        <time>2017-12-15T23:58:37Z</time>
      </trkpt>
      <trkpt lat="44.81913" lon="5.74926">
        <ele>759</ele>
        <time>2017-12-15T23:58:53Z</time>
      </trkpt>
      <trkpt lat="44.81903" lon="5.74928">
        <ele>760</ele>
        <time>2017-12-15T23:59:08Z</time>
      </trkpt>
      <trkpt lat="44.81876" lon="5.74938">
        <ele>763</ele>
        <time>2017-12-15T23:59:25Z</time>
      </trkpt>
      <trkpt lat="44.81849" lon="5.74949">
        <ele>764</ele>
        <time>2017-12-15T23:59:32Z</time>
      </trkpt>
      <trkpt lat="44.81829" lon="5.74955">
        <ele>769</ele>
        <time>2017-12-15T23:59:43Z</time>
      </trkpt>
      <trkpt lat="44.81806" lon="5.74963">
        <ele>770</ele>
        <time>2017-12-15T23:59:53Z</time>
      </trkpt>
      <trkpt lat="44.81796" lon="5.74969">
        <ele>771</ele>
        <time>2017-12-16T00:00:08Z</time>
      </trkpt>
      <trkpt lat="44.81782" lon="5.74981">
        <ele>772</ele>
        <time>2017-12-16T00:00:22Z</time>
      </trkpt>
      <trkpt lat="44.8177" lon="5.74988">
        <ele>774</ele>
        <time>2017-12-16T00:00:29Z</time>
      </trkpt>
      <trkpt lat="44.81764" lon="5.75005">
        <ele>778</ele>
        <time>2017-12-16T00:00:34Z</time>
      </trkpt>
      <trkpt lat="44.81747" lon="5.75024">
        <ele>778</ele>
        <time>2017-12-16T00:00:38Z</time>
      </trkpt>
      <trkpt lat="44.81734" lon="5.75027">
        <ele>778</ele>
        <time>2017-12-16T00:00:49Z</time>
      </trkpt>
      <trkpt lat="44.8171" lon="5.75043">
        <ele>778</ele>
        <time>2017-12-16T00:01:04Z</time>
      </trkpt>
      <trkpt lat="44.81694" lon="5.75049">
        <ele>778</ele>
        <time>2017-12-16T00:01:15Z</time>
      </trkpt>
      <trkpt lat="44.81693" lon="5.75049">
        <ele>778</ele>
        <time>2017-12-16T00:01:28Z</time>
      </trkpt>
      <trkpt lat="44.8169" lon="5.75047">
        <ele>778</ele>
        <time>2017-12-15T18:53:10Z</time>
      </trkpt>
      <trkpt lat="44.81686" lon="5.7503">
        <ele>777</ele>
        <time>2017-12-15T18:53:14Z</time>
      </trkpt>
      <trkpt lat="44.81681" lon="5.74981">
        <ele>775</ele>
        <time>2017-12-15T18:53:26Z</time>
      </trkpt>
      <trkpt lat="44.81673" lon="5.74889">
        <ele>771</ele>
        <time>2017-12-15T18:53:29Z</time>
      </trkpt>
      <trkpt lat="44.81668" lon="5.7481">
        <ele>767</ele>
        <time>2017-12-15T18:53:42Z</time>
      </trkpt>
      <trkpt lat="44.81664" lon="5.74769">
        <ele>769</ele>
        <time>2017-12-15T18:54:00Z</time>
      </trkpt>
      <trkpt lat="44.81654" lon="5.74671">
        <ele>765</ele>
        <time>2017-12-15T18:54:12Z</time>
      </trkpt>
      <trkpt lat="44.81642" lon="5.74529">
        <ele>762</ele>
        <time>2017-12-15T18:54:27Z</time>
      </trkpt>
      <trkpt lat="44.81642" lon="5.74484">
        <ele>758</ele>
        <time>2017-12-15T18:54:46Z</time>
      </trkpt>
      <trkpt lat="44.81643" lon="5.74474">
        <ele>758</ele>
        <time>2017-12-15T18:54:54Z</time>
      </trkpt>
      <trkpt lat="44.81646" lon="5.74459">
        <ele>757</ele>
        <time>2017-12-15T18:55:10Z</time>
      </trkpt>
      <trkpt lat="44.81656" lon="5.74433">
        <ele>755</ele>
        <time>2017-12-15T18:55:26Z</time>
      </trkpt>
      <trkpt lat="44.81677" lon="5.74401">
        <ele>751</ele>
        <time>2017-12-15T18:55:40Z</time>
      </trkpt>
      <trkpt lat="44.81695" lon="5.74382">
        <ele>749</ele>
        <time>2017-12-15T18:55:47Z</time>
      </trkpt>
      <trkpt lat="44.81714" lon="5.7437">
        <ele>749</ele>
        <time>2017-12-15T18:56:07Z</time>
      </trkpt>
      <trkpt lat="44.81734" lon="5.74366">
        <ele>749</ele>
        <time>2017-12-15T18:56:18Z</time>
      </trkpt>
      <trkpt lat="44.81749" lon="5.74368">
        <ele>749</ele>
        <time>2017-12-15T18:56:28Z</time>
      </trkpt>
      <trkpt lat="44.81767" lon="5.74373">
        <ele>748</ele>
        <time>2017-12-15T18:56:44Z</time>
      </trkpt>
      <trkpt lat="44.81813" lon="5.74388">
        <ele>747</ele>
        <time>2017-12-15T18:57:01Z</time>
      </trkpt>
      <trkpt lat="44.81826" lon="5.7439">
        <ele>747</ele>
        <time>2017-12-15T18:57:13Z</time>
      </trkpt>
      <trkpt lat="44.81881" lon="5.74382">
        <ele>752</ele>
        <time>2017-12-15T18:57:22Z</time>
      </trkpt>
      <trkpt lat="44.81894" lon="5.74375">
        <ele>753</ele>
        <time>2017-12-15T18:57:40Z</time>
      </trkpt>
      <trkpt lat="44.81905" lon="5.7436">
        <ele>755</ele>
        <time>2017-12-15T18:57:57Z</time>
      </trkpt>
      <trkpt lat="44.81907" lon="5.74341">
        <ele>757</ele>
        <time>2017-12-15T18:58:10Z</time>
      </trkpt>
      <trkpt lat="44.81904" lon="5.74314">
        <ele>757</ele>
        <time>2017-12-15T18:58:12Z</time>
      </trkpt>
      <trkpt lat="44.81902" lon="5.74307">
        <ele>757</ele>
        <time>2017-12-15T18:58:32Z</time>
      </trkpt>
      <trkpt lat="44.81885" lon="5.74257">
        <ele>757</ele>
        <time>2017-12-15T18:58:34Z</time>
      </trkpt>
      <trkpt lat="44.8188" lon="5.74233">
        <ele>757</ele>
        <time>2017-12-15T18:58:44Z</time>
      </trkpt>
      <trkpt lat="44.81885" lon="5.74213">
        <ele>757</ele>
        <time>2017-12-15T18:58:50Z</time>
      </trkpt>
      <trkpt lat="44.81898" lon="5.74191">
        <ele>758</ele>
        <time>2017-12-15T18:58:52Z</time>
      </trkpt>
      <trkpt lat="44.81911" lon="5.74174">
        <ele>760</ele>
        <time>2017-12-15T18:59:10Z</time>
      </trkpt>
      <trkpt lat="44.81938" lon="5.74137">
        <ele>766</ele>
        <time>2017-12-15T18:59:22Z</time>
      </trkpt>
      <trkpt lat="44.81953" lon="5.74116">
        <ele>766</ele>
        <time>2017-12-15T18:59:32Z</time>
      </trkpt>
      <trkpt lat="44.81966" lon="5.74093">
        <ele>767</ele>
        <time>2017-12-15T18:59:52Z</time>
      </trkpt>
      <trkpt lat="44.81975" lon="5.74068">
        <ele>765</ele>
        <time>2017-12-15T18:59:54Z</time>
      </trkpt>
      <trkpt lat="44.81981" lon="5.74035">
        <ele>765</ele>
        <time>2017-12-15T18:59:56Z</time>
      </trkpt>
      <trkpt lat="44.81988" lon="5.73973">
        <ele>765</ele>
        <time>2017-12-15T19:00:03Z</time>
      </trkpt>
      <trkpt lat="44.81993" lon="5.73945">
        <ele>764</ele>
        <time>2017-12-15T19:00:21Z</time>
      </trkpt>
      <trkpt lat="44.82001" lon="5.73921">
        <ele>770</ele>
        <time>2017-12-15T19:00:34Z</time>
      </trkpt>
      <trkpt lat="44.82019" lon="5.73892">
        <ele>772</ele>
        <time>2017-12-15T19:00:54Z</time>
      </trkpt>
      <trkpt lat="44.82029" lon="5.73881">
        <ele>772</ele>
        <time>2017-12-15T19:01:03Z</time>
      </trkpt>
      <trkpt lat="44.82041" lon="5.73874">
        <ele>773</ele>
        <time>2017-12-15T19:01:23Z</time>
      </trkpt>
      <trkpt lat="44.82056" lon="5.73871">
        <ele>774</ele>
        <time>2017-12-15T19:01:37Z</time>
      </trkpt>
      <trkpt lat="44.82073" lon="5.73874">
        <ele>774</ele>
        <time>2017-12-15T19:01:52Z</time>
      </trkpt>
      <trkpt lat="44.82119" lon="5.73898">
        <ele>779</ele>
        <time>2017-12-15T19:02:05Z</time>
      </trkpt>
      <trkpt lat="44.82157" lon="5.73914">
        <ele>783</ele>
        <time>2017-12-15T19:02:07Z</time>
      </trkpt>
      <trkpt lat="44.82181" lon="5.73915">
        <ele>784</ele>
        <time>2017-12-15T19:02:18Z</time>
      </trkpt>
      <trkpt lat="44.82201" lon="5.73912">
        <ele>785</ele>
        <time>2017-12-15T19:02:38Z</time>
      </trkpt>
      <trkpt lat="44.82241" lon="5.73904">
        <ele>788</ele>
        <time>2017-12-15T19:02:46Z</time>
      </trkpt>
      <trkpt lat="44.82285" lon="5.73896">
        <ele>790</ele>
        <time>2017-12-15T19:02:51Z</time>
      </trkpt>
      <trkpt lat="44.82299" lon="5.73896">
        <ele>791</ele>
        <time>2017-12-15T19:02:55Z</time>
      </trkpt>
      <trkpt lat="44.82325" lon="5.73899">
        <ele>793</ele>
        <time>2017-12-15T19:03:11Z</time>
      </trkpt>
      <trkpt lat="44.82352" lon="5.73905">
        <ele>796</ele>
        <time>2017-12-15T19:03:27Z</time>
      </trkpt>
      <trkpt lat="44.82427" lon="5.7392">
        <ele>807</ele>
        <time>2017-12-15T19:03:31Z</time>
      </trkpt>
      <trkpt lat="44.82457" lon="5.73925">
        <ele>812</ele>
        <time>2017-12-15T19:03:36Z</time>
      </trkpt>
      <trkpt lat="44.8247" lon="5.73924">
        <ele>813</ele>
        <time>2017-12-15T19:03:50Z</time>
      </trkpt>
      <trkpt lat="44.82483" lon="5.7392">
        <ele>812</ele>
        <time>2017-12-15T19:04:08Z</time>
      </trkpt>
      <trkpt lat="44.82506" lon="5.73908">
        <ele>810</ele>
        <time>2017-12-15T19:04:15Z</time>
      </trkpt>
      <trkpt lat="44.8253" lon="5.73894">
        <ele>810</ele>
        <time>2017-12-15T19:04:19Z</time>
      </trkpt>
      <trkpt lat="44.82591" lon="5.73869">
        <ele>816</ele>
        <time>2017-12-15T19:04:39Z</time>
      </trkpt>
      <trkpt lat="44.82617" lon="5.73858">
        <ele>816</ele>
        <time>2017-12-15T19:04:43Z</time>
      </trkpt>
      <trkpt lat="44.82644" lon="5.73849">
        <ele>816</ele>
        <time>2017-12-15T19:04:53Z</time>
      </trkpt>
      <trkpt lat="44.82672" lon="5.73847">
        <ele>821</ele>
        <time>2017-12-15T19:04:58Z</time>
      </trkpt>
      <trkpt lat="44.82694" lon="5.73843">
        <ele>824</ele>
        <time>2017-12-15T19:05:17Z</time>
      </trkpt>
      <trkpt lat="44.82713" lon="5.73834">
        <ele>827</ele>
        <time>2017-12-15T19:05:30Z</time>
      </trkpt>
      <trkpt lat="44.82733" lon="5.73823">
        <ele>824</ele>
        <time>2017-12-15T19:05:42Z</time>
      </trkpt>
      <trkpt lat="44.82754" lon="5.73814">
        <ele>834</ele>
        <time>2017-12-15T19:05:57Z</time>
      </trkpt>
      <trkpt lat="44.82763" lon="5.73809">
        <ele>835</ele>
        <time>2017-12-15T19:06:13Z</time>
      </trkpt>
      <trkpt lat="44.82769" lon="5.738">
        <ele>836</ele>
        <time>2017-12-15T19:06:16Z</time>
      </trkpt>
      <trkpt lat="44.82773" lon="5.7379">
        <ele>836</ele>
        <time>2017-12-15T19:06:34Z</time>
      </trkpt>
      <trkpt lat="44.82774" lon="5.73776">
        <ele>836</ele>
        <time>2017-12-15T19:06:50Z</time>
      </trkpt>
      <trkpt lat="44.82771" lon="5.73757">
        <ele>834</ele>
        <time>2017-12-15T19:07:05Z</time>
      </trkpt>
      <trkpt lat="44.82759" lon="5.73737">
        <ele>834</ele>
        <time>2017-12-15T19:07:09Z</time>
      </trkpt>
      <trkpt lat="44.82725" lon="5.73688">
        <ele>827</ele>
        <time>2017-12-15T19:07:14Z</time>
      </trkpt>
      <trkpt lat="44.82702" lon="5.73651">
        <ele>833</ele>
        <time>2017-12-15T19:07:22Z</time>
      </trkpt>
      <trkpt lat="44.82693" lon="5.73634">
        <ele>833</ele>
        <time>2017-12-15T19:07:36Z</time>
      </trkpt>
      <trkpt lat="44.82679" lon="5.73597">
        <ele>833</ele>
        <time>2017-12-15T19:07:39Z</time>
      </trkpt>
      <trkpt lat="44.82669" lon="5.73557">
        <ele>841</ele>
        <time>2017-12-15T19:07:48Z</time>
      </trkpt>
      <trkpt lat="44.82665" lon="5.73535">
        <ele>827</ele>
        <time>2017-12-15T19:08:01Z</time>
      </trkpt>
      <trkpt lat="44.82664" lon="5.73491">
        <ele>835</ele>
        <time>2017-12-15T19:08:19Z</time>
      </trkpt>
      <trkpt lat="44.82668" lon="5.7345">
        <ele>848</ele>
        <time>2017-12-15T19:08:33Z</time>
      </trkpt>
      <trkpt lat="44.82672" lon="5.73432">
        <ele>847</ele>
        <time>2017-12-15T19:08:53Z</time>
      </trkpt>
      <trkpt lat="44.82684" lon="5.73399">
        <ele>850</ele>
        <time>2017-12-15T19:08:56Z</time>
      </trkpt>
      <trkpt lat="44.82694" lon="5.73369">
        <ele>854</ele>
        <time>2017-12-15T19:09:15Z</time>
      </trkpt>
      <trkpt lat="44.82697" lon="5.73354">
        <ele>854</ele>
        <time>2017-12-15T19:09:32Z</time>
      </trkpt>
      <trkpt lat="44.82698" lon="5.73339">
        <ele>854</ele>
        <time>2017-12-15T19:09:38Z</time>
      </trkpt>
      <trkpt lat="44.82695" lon="5.73322">
        <ele>858</ele>
        <time>2017-12-15T19:09:51Z</time>
      </trkpt>
      <trkpt lat="44.8269" lon="5.73307">
        <ele>859</ele>
        <time>2017-12-15T19:09:57Z</time>
      </trkpt>
      <trkpt lat="44.82683" lon="5.73294">
        <ele>860</ele>
        <time>2017-12-15T19:10:14Z</time>
      </trkpt>
      <trkpt lat="44.82662" lon="5.73269">
        <ele>849</ele>
        <time>2017-12-15T19:10:31Z</time>
      </trkpt>
      <trkpt lat="44.82644" lon="5.73244">
        <ele>855</ele>
        <time>2017-12-15T19:10:34Z</time>
      </trkpt>
      <trkpt lat="44.82631" lon="5.73214">
        <ele>854</ele>
        <time>2017-12-15T19:10:36Z</time>
      </trkpt>
      <trkpt lat="44.82608" lon="5.73142">
        <ele>861</ele>
        <time>2017-12-15T19:10:40Z</time>
      </trkpt>
      <trkpt lat="44.82587" lon="5.73073">
        <ele>864</ele>
        <time>2017-12-15T19:10:56Z</time>
      </trkpt>
      <trkpt lat="44.82574" lon="5.73032">
        <ele>857</ele>
        <time>2017-12-15T19:10:59Z</time>
      </trkpt>
      <trkpt lat="44.82565" lon="5.72998">
        <ele>863</ele>
        <time>2017-12-15T19:11:18Z</time>
      </trkpt>
      <trkpt lat="44.8256" lon="5.72974">
        <ele>860</ele>
        <time>2017-12-15T19:11:34Z</time>
      </trkpt>
      <trkpt lat="44.82556" lon="5.72956">
        <ele>860</ele>
        <time>2017-12-15T19:11:38Z</time>
      </trkpt>
      <trkpt lat="44.82557" lon="5.72949">
        <ele>860</ele>
        <time>2017-12-15T19:11:43Z</time>
      </trkpt>
      <trkpt lat="44.82561" lon="5.72926">
        <ele>863</ele>
        <time>2017-12-15T19:11:46Z</time>
      </trkpt>
      <trkpt lat="44.82563" lon="5.72908">
        <ele>866</ele>
        <time>2017-12-15T19:12:06Z</time>
      </trkpt>
      <trkpt lat="44.82563" lon="5.72879">
        <ele>865</ele>
        <time>2017-12-15T19:12:13Z</time>
      </trkpt>
      <trkpt lat="44.82562" lon="5.72866">
        <ele>865</ele>
        <time>2017-12-15T19:12:24Z</time>
      </trkpt>
      <trkpt lat="44.82551" lon="5.72834">
        <ele>865</ele>
        <time>2017-12-15T19:12:42Z</time>
      </trkpt>
      <trkpt lat="44.82544" lon="5.72801">
        <ele>868</ele>
        <time>2017-12-15T19:12:49Z</time>
      </trkpt>
      <trkpt lat="44.82542" lon="5.72765">
        <ele>870</ele>
        <time>2017-12-15T19:13:04Z</time>
      </trkpt>
      <trkpt lat="44.82542" lon="5.72625">
        <ele>878</ele>
        <time>2017-12-15T19:13:06Z</time>
      </trkpt>
      <trkpt lat="44.82544" lon="5.72603">
        <ele>879</ele>
        <time>2017-12-15T19:13:09Z</time>
      </trkpt>
      <trkpt lat="44.82549" lon="5.72586">
        <ele>879</ele>
        <time>2017-12-15T19:13:26Z</time>
      </trkpt>
      <trkpt lat="44.82553" lon="5.72577">
        <ele>883</ele>
        <time>2017-12-15T19:13:40Z</time>
      </trkpt>
      <trkpt lat="44.82561" lon="5.72564">
        <ele>883</ele>
        <time>2017-12-15T19:13:47Z</time>
      </trkpt>
      <trkpt lat="44.82574" lon="5.72551">
        <ele>883</ele>
        <time>2017-12-15T19:13:59Z</time>
      </trkpt>
      <trkpt lat="44.82606" lon="5.72526">
        <ele>884</ele>
        <time>2017-12-15T19:14:05Z</time>
      </trkpt>
      <trkpt lat="44.82658" lon="5.72487">
        <ele>882</ele>
        <time>2017-12-15T19:14:12Z</time>
      </trkpt>
      <trkpt lat="44.82684" lon="5.72465">
        <ele>882</ele>
        <time>2017-12-15T19:14:17Z</time>
      </trkpt>
      <trkpt lat="44.82708" lon="5.72437">
        <ele>881</ele>
        <time>2017-12-15T19:14:34Z</time>
      </trkpt>
      <trkpt lat="44.82728" lon="5.7241">
        <ele>878</ele>
        <time>2017-12-15T19:14:43Z</time>
      </trkpt>
      <trkpt lat="44.82749" lon="5.72374">
        <ele>877</ele>
        <time>2017-12-15T19:14:47Z</time>
      </trkpt>
      <trkpt lat="44.82764" lon="5.72341">
        <ele>881</ele>
        <time>2017-12-15T19:14:50Z</time>
      </trkpt>
      <trkpt lat="44.82779" lon="5.72301">
        <ele>880</ele>
        <time>2017-12-15T19:14:59Z</time>
      </trkpt>
      <trkpt lat="44.82793" lon="5.72249">
        <ele>877</ele>
        <time>2017-12-15T19:15:13Z</time>
      </trkpt>
      <trkpt lat="44.82825" lon="5.7214">
        <ele>873</ele>
        <time>2017-12-15T19:15:28Z</time>
      </trkpt>
      <trkpt lat="44.82839" lon="5.72089">
        <ele>876</ele>
        <time>2017-12-15T19:15:36Z</time>
      </trkpt>
      <trkpt lat="44.82853" lon="5.72056">
        <ele>874</ele>
        <time>2017-12-15T19:15:55Z</time>
      </trkpt>
      <trkpt lat="44.8287" lon="5.7203">
        <ele>874</ele>
        <time>2017-12-15T19:16:08Z</time>
      </trkpt>
      <trkpt lat="44.82889" lon="5.7201">
        <ele>874</ele>
        <time>2017-12-15T19:16:16Z</time>
      </trkpt>
      <trkpt lat="44.8291" lon="5.71995">
        <ele>872</ele>
        <time>2017-12-15T19:16:28Z</time>
      </trkpt>
      <trkpt lat="44.82923" lon="5.71989">
        <ele>872</ele>
        <time>2017-12-15T19:16:37Z</time>
      </trkpt>
      <trkpt lat="44.82936" lon="5.71985">
        <ele>870</ele>
        <time>2017-12-15T19:16:40Z</time>
      </trkpt>
      <trkpt lat="44.82954" lon="5.71984">
        <ele>869</ele>
        <time>2017-12-15T19:16:48Z</time>
      </trkpt>
      <trkpt lat="44.83006" lon="5.71986">
        <ele>871</ele>
        <time>2017-12-15T19:17:02Z</time>
      </trkpt>
      <trkpt lat="44.83065" lon="5.71989">
        <ele>869</ele>
        <time>2017-12-15T19:17:10Z</time>
      </trkpt>
      <trkpt lat="44.83082" lon="5.71988">
        <ele>870</ele>
        <time>2017-12-15T19:17:15Z</time>
      </trkpt>
      <trkpt lat="44.83105" lon="5.71983">
        <ele>867</ele>
        <time>2017-12-15T19:17:18Z</time>
      </trkpt>
      <trkpt lat="44.83161" lon="5.71969">
        <ele>865</ele>
        <time>2017-12-15T19:17:30Z</time>
      </trkpt>
      <trkpt lat="44.83176" lon="5.71967">
        <ele>864</ele>
        <time>2017-12-15T19:17:43Z</time>
      </trkpt>
      <trkpt lat="44.83204" lon="5.71967">
        <ele>863</ele>
        <time>2017-12-15T19:17:58Z</time>
      </trkpt>
      <trkpt lat="44.83317" lon="5.71994">
        <ele>862</ele>
        <time>2017-12-15T19:18:03Z</time>
      </trkpt>
      <trkpt lat="44.83482" lon="5.72033">
        <ele>864</ele>
        <time>2017-12-15T19:18:05Z</time>
      </trkpt>
      <trkpt lat="44.83503" lon="5.72036">
        <ele>862</ele>
        <time>2017-12-15T19:18:21Z</time>
      </trkpt>
      <trkpt lat="44.83521" lon="5.72037">
        <ele>862</ele>
        <time>2017-12-15T19:18:25Z</time>
      </trkpt>
      <trkpt lat="44.83537" lon="5.72037">
        <ele>862</ele>
        <time>2017-12-15T19:18:33Z</time>
      </trkpt>
      <trkpt lat="44.83579" lon="5.72036">
        <ele>862</ele>
        <time>2017-12-15T19:18:36Z</time>
      </trkpt>
      <trkpt lat="44.83829" lon="5.72022">
        <ele>858</ele>
        <time>2017-12-15T19:18:51Z</time>
      </trkpt>
      <trkpt lat="44.83882" lon="5.72017">
        <ele>858</ele>
        <time>2017-12-15T19:19:03Z</time>
      </trkpt>
      <trkpt lat="44.83915" lon="5.72009">
        <ele>857</ele>
        <time>2017-12-15T19:19:12Z</time>
      </trkpt>
      <trkpt lat="44.83945" lon="5.71993">
        <ele>857</ele>
        <time>2017-12-15T19:19:14Z</time>
      </trkpt>
      <trkpt lat="44.83965" lon="5.71977">
        <ele>856</ele>
        <time>2017-12-15T19:19:21Z</time>
      </trkpt>
      <trkpt lat="44.83987" lon="5.71953">
        <ele>857</ele>
        <time>2017-12-15T19:19:23Z</time>
      </trkpt>
      <trkpt lat="44.83998" lon="5.71939">
        <ele>857</ele>
        <time>2017-12-15T19:19:30Z</time>
      </trkpt>
      <trkpt lat="44.84015" lon="5.71909">
        <ele>858</ele>
        <time>2017-12-15T19:19:42Z</time>
      </trkpt>
      <trkpt lat="44.84031" lon="5.71873">
        <ele>858</ele>
        <time>2017-12-15T19:19:54Z</time>
      </trkpt>
      <trkpt lat="44.84044" lon="5.71832">
        <ele>860</ele>
        <time>2017-12-15T19:19:58Z</time>
      </trkpt>
      <trkpt lat="44.84051" lon="5.71798">
        <ele>860</ele>
        <time>2017-12-15T19:20:14Z</time>
      </trkpt>
      <trkpt lat="44.84055" lon="5.71763">
        <ele>861</ele>
        <time>2017-12-15T19:20:20Z</time>
      </trkpt>
      <trkpt lat="44.84055" lon="5.71719">
        <ele>864</ele>
        <time>2017-12-15T19:20:32Z</time>
      </trkpt>
      <trkpt lat="44.84051" lon="5.7163">
        <ele>867</ele>
        <time>2017-12-15T19:20:36Z</time>
      </trkpt>
      <trkpt lat="44.84047" lon="5.71431">
        <ele>873</ele>
        <time>2017-12-15T19:20:44Z</time>
      </trkpt>
      <trkpt lat="44.84045" lon="5.71318">
        <ele>880</ele>
        <time>2017-12-15T19:20:46Z</time>
      </trkpt>
      <trkpt lat="44.84044" lon="5.7124">
        <ele>883</ele>
        <time>2017-12-15T19:21:01Z</time>
      </trkpt>
      <trkpt lat="44.84041" lon="5.71203">
        <ele>883</ele>
        <time>2017-12-15T19:21:19Z</time>
      </trkpt>
      <trkpt lat="44.84019" lon="5.7112">
        <ele>883</ele>
        <time>2017-12-15T19:21:34Z</time>
      </trkpt>
      <trkpt lat="44.84007" lon="5.71069">
        <ele>883</ele>
        <time>2017-12-15T19:21:46Z</time>
      </trkpt>
      <trkpt lat="44.8401" lon="5.71015">
        <ele>885</ele>
        <time>2017-12-15T19:21:58Z</time>
      </trkpt>
      <trkpt lat="44.84031" lon="5.70945">
        <ele>884</ele>
        <time>2017-12-15T19:22:08Z</time>
      </trkpt>
      <trkpt lat="44.84035" lon="5.70909">
        <ele>882</ele>
        <time>2017-12-15T19:22:20Z</time>
      </trkpt>
      <trkpt lat="44.84035" lon="5.70877">
        <ele>881</ele>
        <time>2017-12-15T19:22:36Z</time>
      </trkpt>
      <trkpt lat="44.8403" lon="5.70845">
        <ele>882</ele>
        <time>2017-12-15T19:22:45Z</time>
      </trkpt>
      <trkpt lat="44.84019" lon="5.708">
        <ele>879</ele>
        <time>2017-12-15T19:22:51Z</time>
      </trkpt>
      <trkpt lat="44.84008" lon="5.70747">
        <ele>880</ele>
        <time>2017-12-15T19:22:53Z</time>
      </trkpt>
      <trkpt lat="44.84006" lon="5.7066">
        <ele>875</ele>
        <time>2017-12-15T19:23:07Z</time>
      </trkpt>
      <trkpt lat="44.84008" lon="5.70545">
        <ele>866</ele>
        <time>2017-12-15T19:23:11Z</time>
      </trkpt>
      <trkpt lat="44.8401" lon="5.70469">
        <ele>862</ele>
        <time>2017-12-15T19:23:18Z</time>
      </trkpt>
      <trkpt lat="44.84015" lon="5.70433">
        <ele>860</ele>
        <time>2017-12-15T19:23:24Z</time>
      </trkpt>
      <trkpt lat="44.84025" lon="5.70401">
        <ele>858</ele>
        <time>2017-12-15T19:23:43Z</time>
      </trkpt>
      <trkpt lat="44.84099" lon="5.70221">
        <ele>852</ele>
        <time>2017-12-15T19:23:52Z</time>
      </trkpt>
      <trkpt lat="44.8419" lon="5.70003">
        <ele>841</ele>
        <time>2017-12-15T19:24:11Z</time>
      </trkpt>
      <trkpt lat="44.84218" lon="5.69933">
        <ele>840</ele>
        <time>2017-12-15T19:24:21Z</time>
      </trkpt>
      <trkpt lat="44.84243" lon="5.69885">
        <ele>841</ele>
        <time>2017-12-15T19:24:34Z</time>
      </trkpt>
      <trkpt lat="44.84263" lon="5.6986">
        <ele>829</ele>
        <time>2017-12-15T19:24:37Z</time>
      </trkpt>
      <trkpt lat="44.84283" lon="5.69841">
        <ele>827</ele>
        <time>2017-12-15T19:24:46Z</time>
      </trkpt>
      <trkpt lat="44.84413" lon="5.69742">
        <ele>817</ele>
        <time>2017-12-15T19:24:53Z</time>
      </trkpt>
      <trkpt lat="44.8458" lon="5.69616">
        <ele>806</ele>
        <time>2017-12-15T19:24:56Z</time>
      </trkpt>
      <trkpt lat="44.84674" lon="5.69548">
        <ele>792</ele>
        <time>2017-12-15T19:25:16Z</time>
      </trkpt>
      <trkpt lat="44.84692" lon="5.69528">
        <ele>792</ele>
        <time>2017-12-15T19:25:23Z</time>
      </trkpt>
      <trkpt lat="44.84705" lon="5.69512">
        <ele>791</ele>
        <time>2017-12-15T19:25:27Z</time>
      </trkpt>
      <trkpt lat="44.84722" lon="5.69483">
        <ele>794</ele>
        <time>2017-12-15T19:25:43Z</time>
      </trkpt>
      <trkpt lat="44.8474" lon="5.69445">
        <ele>795</ele>
        <time>2017-12-15T19:25:49Z</time>
      </trkpt>
      <trkpt lat="44.84758" lon="5.69412">
        <ele>791</ele>
        <time>2017-12-15T19:25:56Z</time>
      </trkpt>
      <trkpt lat="44.84781" lon="5.69381">
        <ele>790</ele>
        <time>2017-12-15T19:26:06Z</time>
      </trkpt>
      <trkpt lat="44.84808" lon="5.69352">
        <ele>788</ele>
        <time>2017-12-15T19:26:09Z</time>
      </trkpt>
      <trkpt lat="44.8489" lon="5.69277">
        <ele>780</ele>
        <time>2017-12-15T19:26:28Z</time>
      </trkpt>
      <trkpt lat="44.84939" lon="5.69229">
        <ele>779</ele>
        <time>2017-12-15T19:26:44Z</time>
      </trkpt>
      <trkpt lat="44.84959" lon="5.69214">
        <ele>779</ele>
        <time>2017-12-15T19:26:48Z</time>
      </trkpt>
      <trkpt lat="44.84974" lon="5.69206">
        <ele>779</ele>
        <time>2017-12-15T19:27:06Z</time>
      </trkpt>
      <trkpt lat="44.84985" lon="5.69204">
        <ele>779</ele>
        <time>2017-12-15T19:27:09Z</time>
      </trkpt>
      <trkpt lat="44.85004" lon="5.69208">
        <ele>771</ele>
        <time>2017-12-15T19:27:12Z</time>
      </trkpt>
      <trkpt lat="44.85024" lon="5.69217">
        <ele>770</ele>
        <time>2017-12-15T19:27:22Z</time>
      </trkpt>
      <trkpt lat="44.85048" lon="5.69224">
        <ele>768</ele>
        <time>2017-12-15T19:27:38Z</time>
      </trkpt>
      <trkpt lat="44.85067" lon="5.69223">
        <ele>767</ele>
        <time>2017-12-15T19:27:51Z</time>
      </trkpt>
      <trkpt lat="44.85117" lon="5.69202">
        <ele>760</ele>
        <time>2017-12-15T19:27:57Z</time>
      </trkpt>
      <trkpt lat="44.85136" lon="5.69193">
        <ele>759</ele>
        <time>2017-12-15T19:28:10Z</time>
      </trkpt>
      <trkpt lat="44.85145" lon="5.69186">
        <ele>758</ele>
        <time>2017-12-15T19:28:27Z</time>
      </trkpt>
      <trkpt lat="44.85161" lon="5.69166">
        <ele>760</ele>
        <time>2017-12-15T19:28:44Z</time>
      </trkpt>
      <trkpt lat="44.85172" lon="5.69145">
        <ele>753</ele>
        <time>2017-12-15T19:29:02Z</time>
      </trkpt>
      <trkpt lat="44.8518" lon="5.69124">
        <ele>753</ele>
        <time>2017-12-15T19:29:15Z</time>
      </trkpt>
      <trkpt lat="44.85191" lon="5.6909">
        <ele>756</ele>
        <time>2017-12-15T19:29:31Z</time>
      </trkpt>
      <trkpt lat="44.85207" lon="5.69055">
        <ele>761</ele>
        <time>2017-12-15T19:29:46Z</time>
      </trkpt>
      <trkpt lat="44.8522" lon="5.69034">
        <ele>761</ele>
        <time>2017-12-15T19:29:58Z</time>
      </trkpt>
      <trkpt lat="44.85236" lon="5.69014">
        <ele>758</ele>
        <time>2017-12-15T19:30:13Z</time>
      </trkpt>
      <trkpt lat="44.85303" lon="5.68944">
        <ele>752</ele>
        <time>2017-12-15T19:30:24Z</time>
      </trkpt>
      <trkpt lat="44.85311" lon="5.68937">
        <ele>751</ele>
        <time>2017-12-15T19:30:34Z</time>
      </trkpt>
      <trkpt lat="44.85394" lon="5.68854">
        <ele>746</ele>
        <time>2017-12-15T19:30:45Z</time>
      </trkpt>
      <trkpt lat="44.85451" lon="5.68794">
        <ele>744</ele>
        <time>2017-12-15T19:31:02Z</time>
      </trkpt>
      <trkpt lat="44.85489" lon="5.68757">
        <ele>740</ele>
        <time>2017-12-15T19:31:13Z</time>
      </trkpt>
      <trkpt lat="44.85508" lon="5.68737">
        <ele>737</ele>
        <time>2017-12-15T19:31:23Z</time>
      </trkpt>
      <trkpt lat="44.85547" lon="5.68699">
        <ele>736</ele>
        <time>2017-12-15T19:31:30Z</time>
      </trkpt>
      <trkpt lat="44.85593" lon="5.68649">
        <ele>727</ele>
        <time>2017-12-15T19:31:40Z</time>
      </trkpt>
      <trkpt lat="44.85615" lon="5.68622">
        <ele>727</ele>
        <time>2017-12-15T19:31:55Z</time>
      </trkpt>
      <trkpt lat="44.85635" lon="5.68593">
        <ele>725</ele>
        <time>2017-12-15T19:32:05Z</time>
      </trkpt>
      <trkpt lat="44.85741" lon="5.68467">
        <ele>723</ele>
        <time>2017-12-15T19:32:23Z</time>
      </trkpt>
      <trkpt lat="44.85775" lon="5.68424">
        <ele>707</ele>
        <time>2017-12-15T19:32:31Z</time>
      </trkpt>
      <trkpt lat="44.85787" lon="5.68401">
        <ele>711</ele>
        <time>2017-12-15T19:32:38Z</time>
      </trkpt>
      <trkpt lat="44.85793" lon="5.6838">
        <ele>711</ele>
        <time>2017-12-15T19:32:53Z</time>
      </trkpt>
      <trkpt lat="44.85802" lon="5.68358">
        <ele>710</ele>
        <time>2017-12-15T19:33:10Z</time>
      </trkpt>
      <trkpt lat="44.85819" lon="5.68342">
        <ele>704</ele>
        <time>2017-12-15T19:33:13Z</time>
      </trkpt>
      <trkpt lat="44.85837" lon="5.68337">
        <ele>694</ele>
        <time>2017-12-15T19:33:18Z</time>
      </trkpt>
      <trkpt lat="44.85897" lon="5.68341">
        <ele>687</ele>
        <time>2017-12-15T19:33:35Z</time>
      </trkpt>
      <trkpt lat="44.85963" lon="5.68344">
        <ele>681</ele>
        <time>2017-12-15T19:33:41Z</time>
      </trkpt>
      <trkpt lat="44.85981" lon="5.68343">
        <ele>680</ele>
        <time>2017-12-15T19:34:00Z</time>
      </trkpt>
      <trkpt lat="44.85994" lon="5.68339">
        <ele>679</ele>
        <time>2017-12-15T19:34:11Z</time>
      </trkpt>
      <trkpt lat="44.86002" lon="5.68331">
        <ele>677</ele>
        <time>2017-12-15T19:34:16Z</time>
      </trkpt>
      <trkpt lat="44.8601" lon="5.68318">
        <ele>675</ele>
        <time>2017-12-15T19:34:22Z</time>
      </trkpt>
      <trkpt lat="44.86015" lon="5.68299">
        <ele>673</ele>
        <time>2017-12-15T19:34:31Z</time>
      </trkpt>
      <trkpt lat="44.86016" lon="5.68265">
        <ele>672</ele>
        <time>2017-12-15T19:34:46Z</time>
      </trkpt>
      <trkpt lat="44.86018" lon="5.68237">
        <ele>672</ele>
        <time>2017-12-15T19:35:05Z</time>
      </trkpt>
      <trkpt lat="44.86023" lon="5.68213">
        <ele>672</ele>
        <time>2017-12-15T19:35:17Z</time>
      </trkpt>
      <trkpt lat="44.86035" lon="5.68191">
        <ele>672</ele>
        <time>2017-12-15T19:35:24Z</time>
      </trkpt>
      <trkpt lat="44.86053" lon="5.68176">
        <ele>670</ele>
        <time>2017-12-15T19:35:43Z</time>
      </trkpt>
      <trkpt lat="44.8607" lon="5.68168">
        <ele>668</ele>
        <time>2017-12-15T19:35:52Z</time>
      </trkpt>
      <trkpt lat="44.86136" lon="5.68145">
        <ele>662</ele>
        <time>2017-12-15T19:36:03Z</time>
      </trkpt>
      <trkpt lat="44.86156" lon="5.68135">
        <ele>661</ele>
        <time>2017-12-15T19:36:21Z</time>
      </trkpt>
      <trkpt lat="44.8617" lon="5.68125">
        <ele>655</ele>
        <time>2017-12-15T19:36:31Z</time>
      </trkpt>
      <trkpt lat="44.86184" lon="5.6811">
        <ele>655</ele>
        <time>2017-12-15T19:36:41Z</time>
      </trkpt>
      <trkpt lat="44.8621" lon="5.68072">
        <ele>657</ele>
        <time>2017-12-15T19:36:57Z</time>
      </trkpt>
      <trkpt lat="44.86245" lon="5.68012">
        <ele>655</ele>
        <time>2017-12-15T19:37:01Z</time>
      </trkpt>
      <trkpt lat="44.86276" lon="5.67955">
        <ele>650</ele>
        <time>2017-12-15T19:37:07Z</time>
      </trkpt>
      <trkpt lat="44.86286" lon="5.67935">
        <ele>649</ele>
        <time>2017-12-15T19:37:24Z</time>
      </trkpt>
      <trkpt lat="44.86305" lon="5.67888">
        <ele>649</ele>
        <time>2017-12-15T19:37:43Z</time>
      </trkpt>
      <trkpt lat="44.86344" lon="5.67796">
        <ele>635</ele>
        <time>2017-12-15T19:37:58Z</time>
      </trkpt>
      <trkpt lat="44.86395" lon="5.67681">
        <ele>631</ele>
        <time>2017-12-15T19:38:00Z</time>
      </trkpt>
      <trkpt lat="44.86423" lon="5.67614">
        <ele>623</ele>
        <time>2017-12-15T19:38:04Z</time>
      </trkpt>
      <trkpt lat="44.86431" lon="5.67585">
        <ele>625</ele>
        <time>2017-12-15T19:38:07Z</time>
      </trkpt>
      <trkpt lat="44.86433" lon="5.67554">
        <ele>621</ele>
        <time>2017-12-15T19:38:20Z</time>
      </trkpt>
      <trkpt lat="44.86436" lon="5.67539">
        <ele>620</ele>
        <time>2017-12-15T19:38:34Z</time>
      </trkpt>
      <trkpt lat="44.86439" lon="5.67536">
        <ele>620</ele>
        <time>2017-12-15T19:38:49Z</time>
      </trkpt>
      <trkpt lat="44.86444" lon="5.67535">
        <ele>620</ele>
        <time>2017-12-15T19:39:08Z</time>
      </trkpt>
      <trkpt lat="44.8645" lon="5.67538">
        <ele>619</ele>
        <time>2017-12-15T19:39:11Z</time>
      </trkpt>
      <trkpt lat="44.86453" lon="5.67552">
        <ele>619</ele>
        <time>2017-12-15T19:39:29Z</time>
      </trkpt>
      <trkpt lat="44.86466" lon="5.67631">
        <ele>618</ele>
        <time>2017-12-15T19:39:47Z</time>
      </trkpt>
      <trkpt lat="44.86478" lon="5.67687">
        <ele>615</ele>
        <time>2017-12-15T19:39:52Z</time>
      </trkpt>
      <trkpt lat="44.86488" lon="5.67726">
        <ele>615</ele>
        <time>2017-12-15T19:40:01Z</time>
      </trkpt>
      <trkpt lat="44.86491" lon="5.6773">
        <ele>614</ele>
        <time>2017-12-15T19:40:04Z</time>
      </trkpt>
      <trkpt lat="44.86497" lon="5.67731">
        <ele>614</ele>
        <time>2017-12-15T19:40:19Z</time>
      </trkpt>
      <trkpt lat="44.86504" lon="5.67727">
        <ele>607</ele>
        <time>2017-12-15T19:40:29Z</time>
      </trkpt>
      <trkpt lat="44.86511" lon="5.67713">
        <ele>606</ele>
        <time>2017-12-15T19:40:48Z</time>
      </trkpt>
      <trkpt lat="44.86517" lon="5.67693">
        <ele>606</ele>
        <time>2017-12-15T19:40:59Z</time>
      </trkpt>
      <trkpt lat="44.86532" lon="5.67636">
        <ele>605</ele>
        <time>2017-12-15T19:41:03Z</time>
      </trkpt>
      <trkpt lat="44.86558" lon="5.67575">
        <ele>602</ele>
        <time>2017-12-15T19:41:10Z</time>
      </trkpt>
      <trkpt lat="44.86584" lon="5.67511">
        <ele>595</ele>
        <time>2017-12-15T19:41:29Z</time>
      </trkpt>
      <trkpt lat="44.866" lon="5.6747">
        <ele>592</ele>
        <time>2017-12-15T19:41:38Z</time>
      </trkpt>
      <trkpt lat="44.86606" lon="5.67439">
        <ele>592</ele>
        <time>2017-12-15T19:41:43Z</time>
      </trkpt>
      <trkpt lat="44.86606" lon="5.67417">
        <ele>592</ele>
        <time>2017-12-15T19:42:00Z</time>
      </trkpt>
      <trkpt lat="44.86599" lon="5.6738">
        <ele>588</ele>
        <time>2017-12-15T19:42:08Z</time>
      </trkpt>
      <trkpt lat="44.86598" lon="5.67369">
        <ele>587</ele>
        <time>2017-12-15T19:42:17Z</time>
      </trkpt>
      <trkpt lat="44.86601" lon="5.67361">
        <ele>587</ele>
        <time>2017-12-15T19:42:20Z</time>
      </trkpt>
      <trkpt lat="44.86609" lon="5.67355">
        <ele>586</ele>
        <time>2017-12-15T19:42:37Z</time>
      </trkpt>
      <trkpt lat="44.86617" lon="5.67359">
        <ele>586</ele>
        <time>2017-12-15T19:42:43Z</time>
      </trkpt>
      <trkpt lat="44.86623" lon="5.67369">
        <ele>586</ele>
        <time>2017-12-15T19:42:56Z</time>
      </trkpt>
      <trkpt lat="44.8664" lon="5.6742">
        <ele>588</ele>
        <time>2017-12-15T19:43:09Z</time>
      </trkpt>
      <trkpt lat="44.8669" lon="5.67553">
        <ele>579</ele>
        <time>2017-12-15T19:43:24Z</time>
      </trkpt>
      <trkpt lat="44.86701" lon="5.67586">
        <ele>580</ele>
        <time>2017-12-15T19:43:42Z</time>
      </trkpt>
      <trkpt lat="44.86703" lon="5.67603">
        <ele>580</ele>
        <time>2017-12-15T19:43:45Z</time>
      </trkpt>
      <trkpt lat="44.86704" lon="5.67655">
        <ele>581</ele>
        <time>2017-12-15T19:44:04Z</time>
      </trkpt>
      <trkpt lat="44.8671" lon="5.67665">
        <ele>581</ele>
        <time>2017-12-15T19:44:14Z</time>
      </trkpt>
      <trkpt lat="44.86716" lon="5.67666">
        <ele>581</ele>
        <time>2017-12-15T19:44:20Z</time>
      </trkpt>
      <trkpt lat="44.86722" lon="5.67657">
        <ele>581</ele>
        <time>2017-12-15T19:44:32Z</time>
      </trkpt>
      <trkpt lat="44.86726" lon="5.67613">
        <ele>579</ele>
        <time>2017-12-15T19:44:37Z</time>
      </trkpt>
      <trkpt lat="44.86726" lon="5.67592">
        <ele>579</ele>
        <time>2017-12-15T19:44:56Z</time>
      </trkpt>
      <trkpt lat="44.86723" lon="5.67566">
        <ele>578</ele>
        <time>2017-12-15T19:45:12Z</time>
      </trkpt>
      <trkpt lat="44.86712" lon="5.67505">
        <ele>578</ele>
        <time>2017-12-15T19:45:27Z</time>
      </trkpt>
      <trkpt lat="44.86712" lon="5.67466">
        <ele>577</ele>
        <time>2017-12-15T19:45:44Z</time>
      </trkpt>
      <trkpt lat="44.86715" lon="5.67432">
        <ele>577</ele>
        <time>2017-12-15T19:45:50Z</time>
      </trkpt>
      <trkpt lat="44.86718" lon="5.67346">
        <ele>574</ele>
        <time>2017-12-15T19:45:55Z</time>
      </trkpt>
      <trkpt lat="44.8672" lon="5.67314">
        <ele>568</ele>
        <time>2017-12-15T19:46:15Z</time>
      </trkpt>
      <trkpt lat="44.86724" lon="5.67286">
        <ele>566</ele>
        <time>2017-12-15T19:46:19Z</time>
      </trkpt>
      <trkpt lat="44.86728" lon="5.67267">
        <ele>565</ele>
        <time>2017-12-15T19:46:33Z</time>
      </trkpt>
      <trkpt lat="44.86738" lon="5.67239">
        <ele>555</ele>
        <time>2017-12-15T19:46:46Z</time>
      </trkpt>
      <trkpt lat="44.8675" lon="5.67216">
        <ele>552</ele>
        <time>2017-12-15T19:47:06Z</time>
      </trkpt>
      <trkpt lat="44.86775" lon="5.67175">
        <ele>535</ele>
        <time>2017-12-15T19:47:20Z</time>
      </trkpt>
      <trkpt lat="44.86804" lon="5.67113">
        <ele>516</ele>
        <time>2017-12-15T19:47:38Z</time>
      </trkpt>
      <trkpt lat="44.86846" lon="5.67006">
        <ele>536</ele>
        <time>2017-12-15T19:47:45Z</time>
      </trkpt>
      <trkpt lat="44.86861" lon="5.66907">
        <ele>545</ele>
        <time>2017-12-15T19:47:48Z</time>
      </trkpt>
      <trkpt lat="44.86866" lon="5.6685">
        <ele>547</ele>
        <time>2017-12-15T19:47:59Z</time>
      </trkpt>
      <trkpt lat="44.86866" lon="5.66828">
        <ele>549</ele>
        <time>2017-12-15T19:48:14Z</time>
      </trkpt>
      <trkpt lat="44.86867" lon="5.66821">
        <ele>549</ele>
        <time>2017-12-15T19:48:22Z</time>
      </trkpt>
      <trkpt lat="44.86873" lon="5.66818">
        <ele>552</ele>
        <time>2017-12-15T19:48:31Z</time>
      </trkpt>
      <trkpt lat="44.86878" lon="5.66822">
        <ele>553</ele>
        <time>2017-12-15T19:48:39Z</time>
      </trkpt>
      <trkpt lat="44.86881" lon="5.66846">
        <ele>552</ele>
        <time>2017-12-15T19:48:47Z</time>
      </trkpt>
      <trkpt lat="44.86886" lon="5.66871">
        <ele>553</ele>
        <time>2017-12-15T19:49:03Z</time>
      </trkpt>
      <trkpt lat="44.86909" lon="5.6693">
        <ele>561</ele>
        <time>2017-12-15T19:49:05Z</time>
      </trkpt>
      <trkpt lat="44.86912" lon="5.66958">
        <ele>556</ele>
        <time>2017-12-15T19:49:20Z</time>
      </trkpt>
      <trkpt lat="44.86912" lon="5.66982">
        <ele>558</ele>
        <time>2017-12-15T19:49:36Z</time>
      </trkpt>
      <trkpt lat="44.86911" lon="5.67027">
        <ele>548</ele>
        <time>2017-12-15T19:49:46Z</time>
      </trkpt>
      <trkpt lat="44.86913" lon="5.67033">
        <ele>547</ele>
        <time>2017-12-15T19:49:49Z</time>
      </trkpt>
      <trkpt lat="44.86917" lon="5.67036">
        <ele>567</ele>
        <time>2017-12-15T19:50:04Z</time>
      </trkpt>
      <trkpt lat="44.86925" lon="5.67037">
        <ele>567</ele>
        <time>2017-12-15T19:50:10Z</time>
      </trkpt>
      <trkpt lat="44.86928" lon="5.67034">
        <ele>568</ele>
        <time>2017-12-15T19:50:16Z</time>
      </trkpt>
      <trkpt lat="44.86931" lon="5.67022">
        <ele>569</ele>
        <time>2017-12-15T19:50:19Z</time>
      </trkpt>
      <trkpt lat="44.86931" lon="5.66933">
        <ele>578</ele>
        <time>2017-12-15T19:50:35Z</time>
      </trkpt>
      <trkpt lat="44.86933" lon="5.66878">
        <ele>579</ele>
        <time>2017-12-15T19:50:42Z</time>
      </trkpt>
      <trkpt lat="44.86935" lon="5.66858">
        <ele>579</ele>
        <time>2017-12-15T19:50:52Z</time>
      </trkpt>
      <trkpt lat="44.86945" lon="5.66834">
        <ele>579</ele>
        <time>2017-12-15T19:50:54Z</time>
      </trkpt>
      <trkpt lat="44.86953" lon="5.66824">
        <ele>580</ele>
        <time>2017-12-15T19:50:59Z</time>
      </trkpt>
      <trkpt lat="44.86968" lon="5.66818">
        <ele>582</ele>
        <time>2017-12-15T19:51:01Z</time>
      </trkpt>
      <trkpt lat="44.87011" lon="5.66814">
        <ele>592</ele>
        <time>2017-12-15T19:51:16Z</time>
      </trkpt>
      <trkpt lat="44.87055" lon="5.66812">
        <ele>596</ele>
        <time>2017-12-15T19:51:36Z</time>
      </trkpt>
      <trkpt lat="44.87077" lon="5.66815">
        <ele>597</ele>
        <time>2017-12-15T19:51:54Z</time>
      </trkpt>
      <trkpt lat="44.87089" lon="5.66813">
        <ele>604</ele>
        <time>2017-12-15T19:52:03Z</time>
      </trkpt>
      <trkpt lat="44.87093" lon="5.66808">
        <ele>605</ele>
        <time>2017-12-15T19:52:08Z</time>
      </trkpt>
      <trkpt lat="44.87095" lon="5.66802">
        <ele>605</ele>
        <time>2017-12-15T19:52:20Z</time>
      </trkpt>
      <trkpt lat="44.87093" lon="5.66788">
        <ele>605</ele>
        <time>2017-12-15T19:52:27Z</time>
      </trkpt>
      <trkpt lat="44.87083" lon="5.66776">
        <ele>597</ele>
        <time>2017-12-15T19:52:41Z</time>
      </trkpt>
      <trkpt lat="44.87055" lon="5.66754">
        <ele>596</ele>
        <time>2017-12-15T19:52:54Z</time>
      </trkpt>
      <trkpt lat="44.87043" lon="5.66738">
        <ele>598</ele>
        <time>2017-12-15T19:53:12Z</time>
      </trkpt>
      <trkpt lat="44.87037" lon="5.66712">
        <ele>599</ele>
        <time>2017-12-15T19:53:22Z</time>
      </trkpt>
      <trkpt lat="44.87035" lon="5.66691">
        <ele>599</ele>
        <time>2017-12-15T19:53:39Z</time>
      </trkpt>
      <trkpt lat="44.87035" lon="5.66677">
        <ele>600</ele>
        <time>2017-12-15T19:53:53Z</time>
      </trkpt>
      <trkpt lat="44.87047" lon="5.66646">
        <ele>611</ele>
        <time>2017-12-15T19:54:13Z</time>
      </trkpt>
      <trkpt lat="44.87046" lon="5.6663">
        <ele>612</ele>
        <time>2017-12-15T19:54:28Z</time>
      </trkpt>
      <trkpt lat="44.87045" lon="5.66625">
        <ele>612</ele>
        <time>2017-12-15T19:54:41Z</time>
      </trkpt>
      <trkpt lat="44.87037" lon="5.66616">
        <ele>613</ele>
        <time>2017-12-15T19:54:53Z</time>
      </trkpt>
      <trkpt lat="44.86986" lon="5.66586">
        <ele>607</ele>
        <time>2017-12-15T19:55:04Z</time>
      </trkpt>
      <trkpt lat="44.86943" lon="5.66554">
        <ele>614</ele>
        <time>2017-12-15T19:55:15Z</time>
      </trkpt>
      <trkpt lat="44.8693" lon="5.66538">
        <ele>615</ele>
        <time>2017-12-15T19:55:33Z</time>
      </trkpt>
      <trkpt lat="44.86921" lon="5.66523">
        <ele>616</ele>
        <time>2017-12-15T19:55:42Z</time>
      </trkpt>
      <trkpt lat="44.86901" lon="5.66469">
        <ele>605</ele>
        <time>2017-12-15T19:55:46Z</time>
      </trkpt>
      <trkpt lat="44.86888" lon="5.66421">
        <ele>607</ele>
        <time>2017-12-15T19:55:54Z</time>
      </trkpt>
      <trkpt lat="44.86885" lon="5.66402">
        <ele>610</ele>
        <time>2017-12-15T19:56:06Z</time>
      </trkpt>
      <trkpt lat="44.86885" lon="5.6639">
        <ele>610</ele>
        <time>2017-12-15T19:56:08Z</time>
      </trkpt>
      <trkpt lat="44.86888" lon="5.66381">
        <ele>610</ele>
        <time>2017-12-15T19:56:13Z</time>
      </trkpt>
      <trkpt lat="44.86894" lon="5.66369">
        <ele>611</ele>
        <time>2017-12-15T19:56:32Z</time>
      </trkpt>
      <trkpt lat="44.8693" lon="5.6632">
        <ele>634</ele>
        <time>2017-12-15T19:56:51Z</time>
      </trkpt>
      <trkpt lat="44.86939" lon="5.66299">
        <ele>638</ele>
        <time>2017-12-15T19:56:59Z</time>
      </trkpt>
      <trkpt lat="44.86944" lon="5.66271">
        <ele>637</ele>
        <time>2017-12-15T19:57:04Z</time>
      </trkpt>
      <trkpt lat="44.86947" lon="5.6625">
        <ele>633</ele>
        <time>2017-12-15T19:57:18Z</time>
      </trkpt>
      <trkpt lat="44.86953" lon="5.66231">
        <ele>635</ele>
        <time>2017-12-15T19:57:30Z</time>
      </trkpt>
      <trkpt lat="44.8697" lon="5.66205">
        <ele>637</ele>
        <time>2017-12-15T19:57:43Z</time>
      </trkpt>
      <trkpt lat="44.86983" lon="5.66191">
        <ele>639</ele>
        <time>2017-12-15T19:58:02Z</time>
      </trkpt>
      <trkpt lat="44.87011" lon="5.66173">
        <ele>653</ele>
        <time>2017-12-15T19:58:19Z</time>
      </trkpt>
      <trkpt lat="44.87017" lon="5.66165">
        <ele>655</ele>
        <time>2017-12-15T19:58:27Z</time>
      </trkpt>
      <trkpt lat="44.87018" lon="5.66158">
        <ele>657</ele>
        <time>2017-12-15T19:58:36Z</time>
      </trkpt>
      <trkpt lat="44.87015" lon="5.66144">
        <ele>659</ele>
        <time>2017-12-15T19:58:48Z</time>
      </trkpt>
      <trkpt lat="44.86999" lon="5.66123">
        <ele>646</ele>
        <time>2017-12-15T19:58:52Z</time>
      </trkpt>
      <trkpt lat="44.86958" lon="5.6608">
        <ele>658</ele>
        <time>2017-12-15T19:59:10Z</time>
      </trkpt>
      <trkpt lat="44.86936" lon="5.66064">
        <ele>655</ele>
        <time>2017-12-15T19:59:20Z</time>
      </trkpt>
      <trkpt lat="44.86909" lon="5.66048">
        <ele>644</ele>
        <time>2017-12-15T19:59:25Z</time>
      </trkpt>
      <trkpt lat="44.86878" lon="5.66033">
        <ele>643</ele>
        <time>2017-12-15T19:59:33Z</time>
      </trkpt>
      <trkpt lat="44.8687" lon="5.66024">
        <ele>642</ele>
        <time>2017-12-15T19:59:52Z</time>
      </trkpt>
      <trkpt lat="44.86866" lon="5.66015">
        <ele>641</ele>
        <time>2017-12-15T20:00:02Z</time>
      </trkpt>
      <trkpt lat="44.86865" lon="5.66006">
        <ele>641</ele>
        <time>2017-12-15T20:00:13Z</time>
      </trkpt>
      <trkpt lat="44.86866" lon="5.65994">
        <ele>638</ele>
        <time>2017-12-15T20:00:18Z</time>
      </trkpt>
      <trkpt lat="44.86871" lon="5.65981">
        <ele>639</ele>
        <time>2017-12-15T20:00:21Z</time>
      </trkpt>
      <trkpt lat="44.86897" lon="5.6593">
        <ele>645</ele>
        <time>2017-12-15T20:00:33Z</time>
      </trkpt>
      <trkpt lat="44.86913" lon="5.65907">
        <ele>647</ele>
        <time>2017-12-15T20:00:41Z</time>
      </trkpt>
      <trkpt lat="44.86918" lon="5.65902">
        <ele>662</ele>
        <time>2017-12-15T20:00:53Z</time>
      </trkpt>
      <trkpt lat="44.86996" lon="5.65819">
        <ele>665</ele>
        <time>2017-12-15T20:01:05Z</time>
      </trkpt>
      <trkpt lat="44.8701" lon="5.65809">
        <ele>679</ele>
        <time>2017-12-15T20:01:25Z</time>
      </trkpt>
      <trkpt lat="44.87031" lon="5.65803">
        <ele>682</ele>
        <time>2017-12-15T20:01:36Z</time>
      </trkpt>
      <trkpt lat="44.87039" lon="5.65799">
        <ele>683</ele>
        <time>2017-12-15T20:01:50Z</time>
      </trkpt>
      <trkpt lat="44.87043" lon="5.65792">
        <ele>683</ele>
        <time>2017-12-15T20:02:03Z</time>
      </trkpt>
      <trkpt lat="44.87047" lon="5.65775">
        <ele>683</ele>
        <time>2017-12-15T20:02:16Z</time>
      </trkpt>
      <trkpt lat="44.87051" lon="5.65727">
        <ele>677</ele>
        <time>2017-12-15T20:02:27Z</time>
      </trkpt>
      <trkpt lat="44.87056" lon="5.65716">
        <ele>677</ele>
        <time>2017-12-15T20:02:32Z</time>
      </trkpt>
      <trkpt lat="44.87071" lon="5.65703">
        <ele>679</ele>
        <time>2017-12-15T20:02:44Z</time>
      </trkpt>
      <trkpt lat="44.87092" lon="5.65685">
        <ele>693</ele>
        <time>2017-12-15T20:02:53Z</time>
      </trkpt>
      <trkpt lat="44.87099" lon="5.65676">
        <ele>692</ele>
        <time>2017-12-15T20:03:01Z</time>
      </trkpt>
      <trkpt lat="44.87112" lon="5.65648">
        <ele>688</ele>
        <time>2017-12-15T20:03:03Z</time>
      </trkpt>
      <trkpt lat="44.87135" lon="5.65594">
        <ele>688</ele>
        <time>2017-12-15T20:03:23Z</time>
      </trkpt>
      <trkpt lat="44.87148" lon="5.65579">
        <ele>684</ele>
        <time>2017-12-15T20:03:26Z</time>
      </trkpt>
      <trkpt lat="44.87156" lon="5.65576">
        <ele>686</ele>
        <time>2017-12-15T20:03:37Z</time>
      </trkpt>
      <trkpt lat="44.8718" lon="5.65575">
        <ele>692</ele>
        <time>2017-12-15T20:03:46Z</time>
      </trkpt>
      <trkpt lat="44.87198" lon="5.65572">
        <ele>693</ele>
        <time>2017-12-15T20:03:51Z</time>
      </trkpt>
      <trkpt lat="44.87205" lon="5.65569">
        <ele>693</ele>
        <time>2017-12-15T20:04:09Z</time>
      </trkpt>
      <trkpt lat="44.87216" lon="5.65557">
        <ele>694</ele>
        <time>2017-12-15T20:04:11Z</time>
      </trkpt>
      <trkpt lat="44.87236" lon="5.65541">
        <ele>694</ele>
        <time>2017-12-15T20:04:18Z</time>
      </trkpt>
      <trkpt lat="44.87256" lon="5.65535">
        <ele>702</ele>
        <time>2017-12-15T20:04:33Z</time>
      </trkpt>
      <trkpt lat="44.87274" lon="5.65535">
        <ele>703</ele>
        <time>2017-12-15T20:04:51Z</time>
      </trkpt>
      <trkpt lat="44.87347" lon="5.65548">
        <ele>718</ele>
        <time>2017-12-15T20:05:07Z</time>
      </trkpt>
      <trkpt lat="44.87365" lon="5.65549">
        <ele>719</ele>
        <time>2017-12-15T20:05:25Z</time>
      </trkpt>
      <trkpt lat="44.87369" lon="5.65547">
        <ele>719</ele>
        <time>2017-12-15T20:05:27Z</time>
      </trkpt>
      <trkpt lat="44.87374" lon="5.65542">
        <ele>719</ele>
        <time>2017-12-15T20:05:47Z</time>
      </trkpt>
      <trkpt lat="44.87377" lon="5.65534">
        <ele>719</ele>
        <time>2017-12-15T20:05:58Z</time>
      </trkpt>
      <trkpt lat="44.87376" lon="5.65522">
        <ele>719</ele>
        <time>2017-12-15T20:06:16Z</time>
      </trkpt>
      <trkpt lat="44.87373" lon="5.65515">
        <ele>718</ele>
        <time>2017-12-15T20:06:19Z</time>
      </trkpt>
      <trkpt lat="44.87361" lon="5.65502">
        <ele>716</ele>
        <time>2017-12-15T20:06:31Z</time>
      </trkpt>
      <trkpt lat="44.87346" lon="5.65487">
        <ele>714</ele>
        <time>2017-12-15T20:06:36Z</time>
      </trkpt>
      <trkpt lat="44.87275" lon="5.65351">
        <ele>713</ele>
        <time>2017-12-15T20:06:46Z</time>
      </trkpt>
      <trkpt lat="44.87256" lon="5.65314">
        <ele>717</ele>
        <time>2017-12-15T20:06:59Z</time>
      </trkpt>
      <trkpt lat="44.87251" lon="5.65299">
        <ele>719</ele>
        <time>2017-12-15T20:07:10Z</time>
      </trkpt>
      <trkpt lat="44.87249" lon="5.65279">
        <ele>713</ele>
        <time>2017-12-15T20:07:22Z</time>
      </trkpt>
      <trkpt lat="44.87261" lon="5.65227">
        <ele>721</ele>
        <time>2017-12-15T20:07:37Z</time>
      </trkpt>
      <trkpt lat="44.87269" lon="5.65196">
        <ele>722</ele>
        <time>2017-12-15T20:07:40Z</time>
      </trkpt>
      <trkpt lat="44.87285" lon="5.65154">
        <ele>720</ele>
        <time>2017-12-15T20:07:50Z</time>
      </trkpt>
      <trkpt lat="44.87303" lon="5.65129">
        <ele>720</ele>
        <time>2017-12-15T20:07:52Z</time>
      </trkpt>
      <trkpt lat="44.8733" lon="5.65105">
        <ele>720</ele>
        <time>2017-12-15T20:08:01Z</time>
      </trkpt>
      <trkpt lat="44.8736" lon="5.65076">
        <ele>723</ele>
        <time>2017-12-15T20:08:15Z</time>
      </trkpt>
      <trkpt lat="44.87376" lon="5.65044">
        <ele>724</ele>
        <time>2017-12-15T20:08:30Z</time>
      </trkpt>
      <trkpt lat="44.87393" lon="5.65003">
        <ele>725</ele>
        <time>2017-12-15T20:08:34Z</time>
      </trkpt>
      <trkpt lat="44.8741" lon="5.64977">
        <ele>722</ele>
        <time>2017-12-15T20:08:45Z</time>
      </trkpt>
      <trkpt lat="44.87424" lon="5.64966">
        <ele>725</ele>
        <time>2017-12-15T20:08:59Z</time>
      </trkpt>
      <trkpt lat="44.87432" lon="5.64963">
        <ele>725</ele>
        <time>2017-12-15T20:09:14Z</time>
      </trkpt>
      <trkpt lat="44.87448" lon="5.64963">
        <ele>725</ele>
        <time>2017-12-15T20:09:25Z</time>
      </trkpt>
      <trkpt lat="44.87472" lon="5.64973">
        <ele>726</ele>
        <time>2017-12-15T20:09:29Z</time>
      </trkpt>
      <trkpt lat="44.87608" lon="5.65051">
        <ele>732</ele>
        <time>2017-12-15T20:09:47Z</time>
      </trkpt>
      <trkpt lat="44.87623" lon="5.6506">
        <ele>732</ele>
        <time>2017-12-15T20:09:58Z</time>
      </trkpt>
      <trkpt lat="44.87639" lon="5.65065">
        <ele>732</ele>
        <time>2017-12-15T20:10:12Z</time>
      </trkpt>
      <trkpt lat="44.8766" lon="5.65069">
        <ele>732</ele>
        <time>2017-12-15T20:10:24Z</time>
      </trkpt>
      <trkpt lat="44.87701" lon="5.65064">
        <ele>732</ele>
        <time>2017-12-15T20:10:38Z</time>
      </trkpt>
      <trkpt lat="44.87754" lon="5.65057">
        <ele>738</ele>
        <time>2017-12-15T20:10:40Z</time>
      </trkpt>
      <trkpt lat="44.87788" lon="5.65048">
        <ele>739</ele>
        <time>2017-12-15T20:10:57Z</time>
      </trkpt>
      <trkpt lat="44.878" lon="5.65037">
        <ele>740</ele>
        <time>2017-12-15T20:11:07Z</time>
      </trkpt>
      <trkpt lat="44.87811" lon="5.65021">
        <ele>740</ele>
        <time>2017-12-15T20:11:23Z</time>
      </trkpt>
      <trkpt lat="44.87834" lon="5.64971">
        <ele>743</ele>
        <time>2017-12-15T20:11:32Z</time>
      </trkpt>
      <trkpt lat="44.87853" lon="5.64923">
        <ele>741</ele>
        <time>2017-12-15T20:11:42Z</time>
      </trkpt>
      <trkpt lat="44.87863" lon="5.64905">
        <ele>737</ele>
        <time>2017-12-15T20:11:53Z</time>
      </trkpt>
      <trkpt lat="44.87874" lon="5.64891">
        <ele>738</ele>
        <time>2017-12-15T20:11:58Z</time>
      </trkpt>
      <trkpt lat="44.87884" lon="5.64884">
        <ele>738</ele>
        <time>2017-12-15T20:12:10Z</time>
      </trkpt>
      <trkpt lat="44.87894" lon="5.64881">
        <ele>738</ele>
        <time>2017-12-15T20:12:25Z</time>
      </trkpt>
      <trkpt lat="44.87903" lon="5.6488">
        <ele>739</ele>
        <time>2017-12-15T20:12:33Z</time>
      </trkpt>
      <trkpt lat="44.87919" lon="5.64882">
        <ele>743</ele>
        <time>2017-12-15T20:12:46Z</time>
      </trkpt>
      <trkpt lat="44.87956" lon="5.64896">
        <ele>743</ele>
        <time>2017-12-15T20:12:50Z</time>
      </trkpt>
      <trkpt lat="44.87986" lon="5.64904">
        <ele>745</ele>
        <time>2017-12-15T20:13:04Z</time>
      </trkpt>
      <trkpt lat="44.88005" lon="5.64904">
        <ele>746</ele>
        <time>2017-12-15T20:13:08Z</time>
      </trkpt>
      <trkpt lat="44.88019" lon="5.649">
        <ele>745</ele>
        <time>2017-12-15T20:13:16Z</time>
      </trkpt>
      <trkpt lat="44.8806" lon="5.64873">
        <ele>744</ele>
        <time>2017-12-15T20:13:36Z</time>
      </trkpt>
      <trkpt lat="44.88079" lon="5.64867">
        <ele>744</ele>
        <time>2017-12-15T20:13:52Z</time>
      </trkpt>
      <trkpt lat="44.88118" lon="5.6487">
        <ele>748</ele>
        <time>2017-12-15T20:14:05Z</time>
      </trkpt>
      <trkpt lat="44.88141" lon="5.64867">
        <ele>748</ele>
        <time>2017-12-15T20:14:23Z</time>
      </trkpt>
      <trkpt lat="44.88156" lon="5.6486">
        <ele>748</ele>
        <time>2017-12-15T20:14:32Z</time>
      </trkpt>
      <trkpt lat="44.88177" lon="5.64838">
        <ele>753</ele>
        <time>2017-12-15T20:14:48Z</time>
      </trkpt>
      <trkpt lat="44.883" lon="5.64671">
        <ele>752</ele>
        <time>2017-12-15T20:14:55Z</time>
      </trkpt>
      <trkpt lat="44.88334" lon="5.64636">
        <ele>754</ele>
        <time>2017-12-15T20:15:10Z</time>
      </trkpt>
      <trkpt lat="44.88428" lon="5.64558">
        <ele>758</ele>
        <time>2017-12-15T20:15:18Z</time>
      </trkpt>
      <trkpt lat="44.88445" lon="5.6454">
        <ele>759</ele>
        <time>2017-12-15T20:15:31Z</time>
      </trkpt>
      <trkpt lat="44.8845" lon="5.64531">
        <ele>759</ele>
        <time>2017-12-15T20:15:48Z</time>
      </trkpt>
      <trkpt lat="44.8846" lon="5.64506">
        <ele>759</ele>
        <time>2017-12-15T20:15:56Z</time>
      </trkpt>
      <trkpt lat="44.88463" lon="5.6449">
        <ele>757</ele>
        <time>2017-12-15T20:16:12Z</time>
      </trkpt>
      <trkpt lat="44.88464" lon="5.64469">
        <ele>756</ele>
        <time>2017-12-15T20:16:28Z</time>
      </trkpt>
      <trkpt lat="44.88464" lon="5.6438">
        <ele>756</ele>
        <time>2017-12-15T20:16:40Z</time>
      </trkpt>
      <trkpt lat="44.88465" lon="5.64361">
        <ele>756</ele>
        <time>2017-12-15T20:16:55Z</time>
      </trkpt>
      <trkpt lat="44.88472" lon="5.64331">
        <ele>756</ele>
        <time>2017-12-15T20:17:07Z</time>
      </trkpt>
      <trkpt lat="44.88478" lon="5.64316">
        <ele>756</ele>
        <time>2017-12-15T20:17:13Z</time>
      </trkpt>
      <trkpt lat="44.88512" lon="5.64261">
        <ele>760</ele>
        <time>2017-12-15T20:17:32Z</time>
      </trkpt>
      <trkpt lat="44.88573" lon="5.64165">
        <ele>761</ele>
        <time>2017-12-15T20:17:34Z</time>
      </trkpt>
      <trkpt lat="44.88587" lon="5.6414">
        <ele>765</ele>
        <time>2017-12-15T20:17:42Z</time>
      </trkpt>
      <trkpt lat="44.88598" lon="5.64111">
        <ele>766</ele>
        <time>2017-12-15T20:17:53Z</time>
      </trkpt>
      <trkpt lat="44.886" lon="5.64096">
        <ele>766</ele>
        <time>2017-12-15T20:18:10Z</time>
      </trkpt>
      <trkpt lat="44.88603" lon="5.64023">
        <ele>767</ele>
        <time>2017-12-15T20:18:24Z</time>
      </trkpt>
      <trkpt lat="44.88606" lon="5.63935">
        <ele>769</ele>
        <time>2017-12-15T20:18:40Z</time>
      </trkpt>
      <trkpt lat="44.8861" lon="5.63921">
        <ele>769</ele>
        <time>2017-12-15T20:18:42Z</time>
      </trkpt>
      <trkpt lat="44.88618" lon="5.63907">
        <ele>766</ele>
        <time>2017-12-15T20:18:58Z</time>
      </trkpt>
      <trkpt lat="44.88635" lon="5.63885">
        <ele>766</ele>
        <time>2017-12-15T20:19:04Z</time>
      </trkpt>
      <trkpt lat="44.88642" lon="5.63877">
        <ele>765</ele>
        <time>2017-12-15T20:19:15Z</time>
      </trkpt>
      <trkpt lat="44.88673" lon="5.63855">
        <ele>770</ele>
        <time>2017-12-15T20:19:34Z</time>
      </trkpt>
      <trkpt lat="44.88685" lon="5.63849">
        <ele>771</ele>
        <time>2017-12-15T20:19:36Z</time>
      </trkpt>
      <trkpt lat="44.88701" lon="5.63848">
        <ele>772</ele>
        <time>2017-12-15T20:19:42Z</time>
      </trkpt>
      <trkpt lat="44.88741" lon="5.63849">
        <ele>775</ele>
        <time>2017-12-15T20:19:52Z</time>
      </trkpt>
      <trkpt lat="44.8875" lon="5.63847">
        <ele>780</ele>
        <time>2017-12-15T20:20:11Z</time>
      </trkpt>
      <trkpt lat="44.88764" lon="5.63837">
        <ele>781</ele>
        <time>2017-12-15T20:20:19Z</time>
      </trkpt>
      <trkpt lat="44.8888" lon="5.63747">
        <ele>780</ele>
        <time>2017-12-15T20:20:37Z</time>
      </trkpt>
      <trkpt lat="44.88914" lon="5.63715">
        <ele>780</ele>
        <time>2017-12-15T20:20:41Z</time>
      </trkpt>
      <trkpt lat="44.88956" lon="5.63671">
        <ele>795</ele>
        <time>2017-12-15T20:20:56Z</time>
      </trkpt>
      <trkpt lat="44.89002" lon="5.63622">
        <ele>800</ele>
        <time>2017-12-15T20:21:03Z</time>
      </trkpt>
      <trkpt lat="44.891" lon="5.63527">
        <ele>800</ele>
        <time>2017-12-15T20:21:07Z</time>
      </trkpt>
      <trkpt lat="44.89201" lon="5.63432">
        <ele>796</ele>
        <time>2017-12-15T20:21:21Z</time>
      </trkpt>
      <trkpt lat="44.89217" lon="5.63424">
        <ele>796</ele>
        <time>2017-12-15T20:21:26Z</time>
      </trkpt>
      <trkpt lat="44.89233" lon="5.63426">
        <ele>796</ele>
        <time>2017-12-15T20:21:37Z</time>
      </trkpt>
      <trkpt lat="44.89248" lon="5.63436">
        <ele>796</ele>
        <time>2017-12-15T20:21:47Z</time>
      </trkpt>
      <trkpt lat="44.89267" lon="5.63461">
        <ele>798</ele>
        <time>2017-12-15T20:21:58Z</time>
      </trkpt>
      <trkpt lat="44.89296" lon="5.63509">
        <ele>811</ele>
        <time>2017-12-15T20:22:15Z</time>
      </trkpt>
      <trkpt lat="44.8931" lon="5.63527">
        <ele>811</ele>
        <time>2017-12-15T20:22:17Z</time>
      </trkpt>
      <trkpt lat="44.89325" lon="5.63542">
        <ele>813</ele>
        <time>2017-12-15T20:22:27Z</time>
      </trkpt>
      <trkpt lat="44.89338" lon="5.63553">
        <ele>812</ele>
        <time>2017-12-15T20:22:44Z</time>
      </trkpt>
      <trkpt lat="44.89361" lon="5.63567">
        <ele>813</ele>
        <time>2017-12-15T20:22:54Z</time>
      </trkpt>
      <trkpt lat="44.89377" lon="5.63571">
        <ele>813</ele>
        <time>2017-12-15T20:22:58Z</time>
      </trkpt>
      <trkpt lat="44.89398" lon="5.63564">
        <ele>814</ele>
        <time>2017-12-15T20:23:10Z</time>
      </trkpt>
      <trkpt lat="44.89413" lon="5.63555">
        <ele>813</ele>
        <time>2017-12-15T20:23:15Z</time>
      </trkpt>
      <trkpt lat="44.8948" lon="5.63541">
        <ele>817</ele>
        <time>2017-12-15T20:23:31Z</time>
      </trkpt>
      <trkpt lat="44.89589" lon="5.63519">
        <ele>830</ele>
        <time>2017-12-15T20:23:48Z</time>
      </trkpt>
      <trkpt lat="44.89607" lon="5.63508">
        <ele>832</ele>
        <time>2017-12-15T20:23:59Z</time>
      </trkpt>
      <trkpt lat="44.89644" lon="5.63476">
        <ele>827</ele>
        <time>2017-12-15T20:24:11Z</time>
      </trkpt>
      <trkpt lat="44.89676" lon="5.63444">
        <ele>838</ele>
        <time>2017-12-15T20:24:27Z</time>
      </trkpt>
      <trkpt lat="44.89708" lon="5.63416">
        <ele>834</ele>
        <time>2017-12-15T20:24:41Z</time>
      </trkpt>
      <trkpt lat="44.89721" lon="5.63403">
        <ele>836</ele>
        <time>2017-12-15T20:24:47Z</time>
      </trkpt>
      <trkpt lat="44.89727" lon="5.63392">
        <ele>836</ele>
        <time>2017-12-15T20:24:51Z</time>
      </trkpt>
      <trkpt lat="44.89731" lon="5.63379">
        <ele>836</ele>
        <time>2017-12-15T20:24:59Z</time>
      </trkpt>
      <trkpt lat="44.89732" lon="5.63356">
        <ele>835</ele>
        <time>2017-12-15T20:25:03Z</time>
      </trkpt>
      <trkpt lat="44.89728" lon="5.6332">
        <ele>833</ele>
        <time>2017-12-15T20:25:05Z</time>
      </trkpt>
      <trkpt lat="44.89729" lon="5.63294">
        <ele>832</ele>
        <time>2017-12-15T20:25:21Z</time>
      </trkpt>
      <trkpt lat="44.89736" lon="5.63266">
        <ele>834</ele>
        <time>2017-12-15T20:25:34Z</time>
      </trkpt>
      <trkpt lat="44.89751" lon="5.6322">
        <ele>846</ele>
        <time>2017-12-15T20:25:54Z</time>
      </trkpt>
      <trkpt lat="44.89758" lon="5.6319">
        <ele>846</ele>
        <time>2017-12-15T20:26:06Z</time>
      </trkpt>
      <trkpt lat="44.89757" lon="5.63176">
        <ele>843</ele>
        <time>2017-12-15T20:26:10Z</time>
      </trkpt>
      <trkpt lat="44.89752" lon="5.63162">
        <ele>841</ele>
        <time>2017-12-15T20:26:14Z</time>
      </trkpt>
      <trkpt lat="44.89739" lon="5.63129">
        <ele>834</ele>
        <time>2017-12-15T20:26:26Z</time>
      </trkpt>
      <trkpt lat="44.89738" lon="5.6311">
        <ele>834</ele>
        <time>2017-12-15T20:26:30Z</time>
      </trkpt>
      <trkpt lat="44.89744" lon="5.63085">
        <ele>837</ele>
        <time>2017-12-15T20:26:44Z</time>
      </trkpt>
      <trkpt lat="44.89756" lon="5.6307">
        <ele>842</ele>
        <time>2017-12-15T20:26:59Z</time>
      </trkpt>
      <trkpt lat="44.89765" lon="5.63063">
        <ele>844</ele>
        <time>2017-12-15T20:27:05Z</time>
      </trkpt>
      <trkpt lat="44.89778" lon="5.6306">
        <ele>846</ele>
        <time>2017-12-15T20:27:20Z</time>
      </trkpt>
      <trkpt lat="44.8981" lon="5.6305">
        <ele>849</ele>
        <time>2017-12-15T20:27:28Z</time>
      </trkpt>
      <trkpt lat="44.8982" lon="5.63043">
        <ele>850</ele>
        <time>2017-12-15T20:27:37Z</time>
      </trkpt>
      <trkpt lat="44.89824" lon="5.63038">
        <ele>850</ele>
        <time>2017-12-15T20:27:52Z</time>
      </trkpt>
      <trkpt lat="44.89826" lon="5.63027">
        <ele>850</ele>
        <time>2017-12-15T20:28:11Z</time>
      </trkpt>
      <trkpt lat="44.89825" lon="5.63017">
        <ele>851</ele>
        <time>2017-12-15T20:28:19Z</time>
      </trkpt>
      <trkpt lat="44.89822" lon="5.63009">
        <ele>851</ele>
        <time>2017-12-15T20:28:37Z</time>
      </trkpt>
      <trkpt lat="44.89812" lon="5.63">
        <ele>851</ele>
        <time>2017-12-15T20:28:39Z</time>
      </trkpt>
      <trkpt lat="44.89798" lon="5.62991">
        <ele>850</ele>
        <time>2017-12-15T20:28:56Z</time>
      </trkpt>
      <trkpt lat="44.89789" lon="5.6298">
        <ele>849</ele>
        <time>2017-12-15T20:29:07Z</time>
      </trkpt>
      <trkpt lat="44.89785" lon="5.6297">
        <ele>849</ele>
        <time>2017-12-15T20:29:24Z</time>
      </trkpt>
      <trkpt lat="44.89784" lon="5.62958">
        <ele>849</ele>
        <time>2017-12-15T20:29:30Z</time>
      </trkpt>
      <trkpt lat="44.89786" lon="5.62937">
        <ele>849</ele>
        <time>2017-12-15T20:29:50Z</time>
      </trkpt>
      <trkpt lat="44.89797" lon="5.6291">
        <ele>850</ele>
        <time>2017-12-15T20:29:59Z</time>
      </trkpt>
      <trkpt lat="44.8982" lon="5.62856">
        <ele>851</ele>
        <time>2017-12-15T20:30:10Z</time>
      </trkpt>
      <trkpt lat="44.89834" lon="5.62832">
        <ele>852</ele>
        <time>2017-12-15T20:30:13Z</time>
      </trkpt>
      <trkpt lat="44.89844" lon="5.62822">
        <ele>852</ele>
        <time>2017-12-15T20:30:31Z</time>
      </trkpt>
      <trkpt lat="44.89855" lon="5.62813">
        <ele>852</ele>
        <time>2017-12-15T20:30:48Z</time>
      </trkpt>
      <trkpt lat="44.89868" lon="5.62807">
        <ele>852</ele>
        <time>2017-12-15T20:31:01Z</time>
      </trkpt>
      <trkpt lat="44.89924" lon="5.6279">
        <ele>858</ele>
        <time>2017-12-15T20:31:05Z</time>
      </trkpt>
      <trkpt lat="44.89963" lon="5.62779">
        <ele>858</ele>
        <time>2017-12-15T20:31:08Z</time>
      </trkpt>
      <trkpt lat="44.89983" lon="5.62779">
        <ele>858</ele>
        <time>2017-12-15T20:31:26Z</time>
      </trkpt>
      <trkpt lat="44.90007" lon="5.62787">
        <ele>862</ele>
        <time>2017-12-15T20:31:44Z</time>
      </trkpt>
      <trkpt lat="44.90046" lon="5.62807">
        <ele>865</ele>
        <time>2017-12-15T20:32:03Z</time>
      </trkpt>
      <trkpt lat="44.90065" lon="5.62822">
        <ele>868</ele>
        <time>2017-12-15T20:32:22Z</time>
      </trkpt>
      <trkpt lat="44.90076" lon="5.62838">
        <ele>876</ele>
        <time>2017-12-15T20:32:30Z</time>
      </trkpt>
      <trkpt lat="44.9009" lon="5.62853">
        <ele>880</ele>
        <time>2017-12-15T20:32:46Z</time>
      </trkpt>
      <trkpt lat="44.90105" lon="5.62856">
        <ele>881</ele>
        <time>2017-12-15T20:32:53Z</time>
      </trkpt>
      <trkpt lat="44.90119" lon="5.6285">
        <ele>882</ele>
        <time>2017-12-15T20:32:58Z</time>
      </trkpt>
      <trkpt lat="44.9014" lon="5.62838">
        <ele>881</ele>
        <time>2017-12-15T20:33:02Z</time>
      </trkpt>
      <trkpt lat="44.90158" lon="5.62837">
        <ele>879</ele>
        <time>2017-12-15T20:33:18Z</time>
      </trkpt>
      <trkpt lat="44.90168" lon="5.62841">
        <ele>881</ele>
        <time>2017-12-15T20:33:27Z</time>
      </trkpt>
      <trkpt lat="44.90182" lon="5.62852">
        <ele>886</ele>
        <time>2017-12-15T20:33:41Z</time>
      </trkpt>
      <trkpt lat="44.90208" lon="5.62877">
        <ele>891</ele>
        <time>2017-12-15T20:33:48Z</time>
      </trkpt>
      <trkpt lat="44.90219" lon="5.62882">
        <ele>893</ele>
        <time>2017-12-15T20:33:53Z</time>
      </trkpt>
      <trkpt lat="44.90235" lon="5.6288">
        <ele>893</ele>
        <time>2017-12-15T20:34:00Z</time>
      </trkpt>
      <trkpt lat="44.90252" lon="5.62871">
        <ele>895</ele>
        <time>2017-12-15T20:34:18Z</time>
      </trkpt>
      <trkpt lat="44.90263" lon="5.62868">
        <ele>895</ele>
        <time>2017-12-15T20:34:32Z</time>
      </trkpt>
      <trkpt lat="44.9027" lon="5.6287">
        <ele>896</ele>
        <time>2017-12-15T20:34:44Z</time>
      </trkpt>
      <trkpt lat="44.90289" lon="5.6289">
        <ele>899</ele>
        <time>2017-12-15T20:34:59Z</time>
      </trkpt>
      <trkpt lat="44.90302" lon="5.62896">
        <ele>901</ele>
        <time>2017-12-15T20:35:08Z</time>
      </trkpt>
      <trkpt lat="44.9031" lon="5.62895">
        <ele>901</ele>
        <time>2017-12-15T20:35:10Z</time>
      </trkpt>
      <trkpt lat="44.90322" lon="5.62888">
        <ele>901</ele>
        <time>2017-12-15T20:35:22Z</time>
      </trkpt>
      <trkpt lat="44.90346" lon="5.62862">
        <ele>904</ele>
        <time>2017-12-15T20:35:31Z</time>
      </trkpt>
      <trkpt lat="44.90357" lon="5.62846">
        <ele>903</ele>
        <time>2017-12-15T20:35:39Z</time>
      </trkpt>
      <trkpt lat="44.90371" lon="5.62817">
        <ele>895</ele>
        <time>2017-12-15T20:35:50Z</time>
      </trkpt>
      <trkpt lat="44.90393" lon="5.62772">
        <ele>893</ele>
        <time>2017-12-15T20:35:58Z</time>
      </trkpt>
      <trkpt lat="44.90404" lon="5.62759">
        <ele>894</ele>
        <time>2017-12-15T20:36:16Z</time>
      </trkpt>
      <trkpt lat="44.90423" lon="5.62746">
        <ele>894</ele>
        <time>2017-12-15T20:36:18Z</time>
      </trkpt>
      <trkpt lat="44.90442" lon="5.62735">
        <ele>896</ele>
        <time>2017-12-15T20:36:35Z</time>
      </trkpt>
      <trkpt lat="44.90454" lon="5.62726">
        <ele>897</ele>
        <time>2017-12-15T20:36:50Z</time>
      </trkpt>
      <trkpt lat="44.90465" lon="5.62711">
        <ele>897</ele>
        <time>2017-12-15T20:37:04Z</time>
      </trkpt>
      <trkpt lat="44.90509" lon="5.62647">
        <ele>899</ele>
        <time>2017-12-15T20:37:14Z</time>
      </trkpt>
      <trkpt lat="44.90525" lon="5.62629">
        <ele>899</ele>
        <time>2017-12-15T20:37:31Z</time>
      </trkpt>
      <trkpt lat="44.90543" lon="5.6262">
        <ele>899</ele>
        <time>2017-12-15T20:37:35Z</time>
      </trkpt>
      <trkpt lat="44.90557" lon="5.62615">
        <ele>900</ele>
        <time>2017-12-15T20:37:41Z</time>
      </trkpt>
      <trkpt lat="44.90572" lon="5.62614">
        <ele>900</ele>
        <time>2017-12-15T20:37:47Z</time>
      </trkpt>
      <trkpt lat="44.90651" lon="5.62654">
        <ele>902</ele>
        <time>2017-12-15T20:38:04Z</time>
      </trkpt>
      <trkpt lat="44.90673" lon="5.6267">
        <ele>899</ele>
        <time>2017-12-15T20:38:08Z</time>
      </trkpt>
      <trkpt lat="44.90688" lon="5.62687">
        <ele>897</ele>
        <time>2017-12-15T20:38:20Z</time>
      </trkpt>
      <trkpt lat="44.90709" lon="5.62717">
        <ele>895</ele>
        <time>2017-12-15T20:38:29Z</time>
      </trkpt>
      <trkpt lat="44.90736" lon="5.62776">
        <ele>893</ele>
        <time>2017-12-15T20:38:39Z</time>
      </trkpt>
      <trkpt lat="44.90745" lon="5.62787">
        <ele>893</ele>
        <time>2017-12-15T20:38:48Z</time>
      </trkpt>
      <trkpt lat="44.90771" lon="5.62798">
        <ele>886</ele>
        <time>2017-12-15T20:38:52Z</time>
      </trkpt>
      <trkpt lat="44.90771" lon="5.6283">
        <ele>887</ele>
        <time>2017-12-15T20:38:56Z</time>
      </trkpt>
      <trkpt lat="44.90776" lon="5.62855">
        <ele>886</ele>
        <time>2017-12-15T20:39:00Z</time>
      </trkpt>
      <trkpt lat="44.90792" lon="5.62898">
        <ele>885</ele>
        <time>2017-12-15T20:39:20Z</time>
      </trkpt>
      <trkpt lat="44.90814" lon="5.62942">
        <ele>883</ele>
        <time>2017-12-15T20:39:23Z</time>
      </trkpt>
      <trkpt lat="44.90828" lon="5.62963">
        <ele>883</ele>
        <time>2017-12-15T20:39:29Z</time>
      </trkpt>
      <trkpt lat="44.90838" lon="5.62979">
        <ele>877</ele>
        <time>2017-12-15T20:39:39Z</time>
      </trkpt>
      <trkpt lat="44.90858" lon="5.63002">
        <ele>878</ele>
        <time>2017-12-15T20:39:41Z</time>
      </trkpt>
      <trkpt lat="44.90876" lon="5.6302">
        <ele>878</ele>
        <time>2017-12-15T20:39:58Z</time>
      </trkpt>
      <trkpt lat="44.90905" lon="5.63043">
        <ele>878</ele>
        <time>2017-12-15T20:40:16Z</time>
      </trkpt>
      <trkpt lat="44.90953" lon="5.63073">
        <ele>873</ele>
        <time>2017-12-15T20:40:28Z</time>
      </trkpt>
      <trkpt lat="44.91023" lon="5.6311">
        <ele>861</ele>
        <time>2017-12-15T20:40:40Z</time>
      </trkpt>
      <trkpt lat="44.91129" lon="5.63167">
        <ele>853</ele>
        <time>2017-12-15T20:40:43Z</time>
      </trkpt>
      <trkpt lat="44.91162" lon="5.63182">
        <ele>852</ele>
        <time>2017-12-15T20:40:49Z</time>
      </trkpt>
      <trkpt lat="44.91193" lon="5.63201">
        <ele>850</ele>
        <time>2017-12-15T20:40:54Z</time>
      </trkpt>
      <trkpt lat="44.91298" lon="5.63259">
        <ele>847</ele>
        <time>2017-12-15T20:41:10Z</time>
      </trkpt>
      <trkpt lat="44.91298" lon="5.63261">
        <ele>846</ele>
        <time>2017-12-15T20:41:12Z</time>
      </trkpt>
      <trkpt lat="44.91298" lon="5.63265">
        <ele>846</ele>
        <time>2017-12-15T20:41:32Z</time>
      </trkpt>
      <trkpt lat="44.91299" lon="5.63268">
        <ele>846</ele>
        <time>2017-12-15T20:41:38Z</time>
      </trkpt>
      <trkpt lat="44.91304" lon="5.63271">
        <ele>846</ele>
        <time>2017-12-15T20:41:50Z</time>
      </trkpt>
      <trkpt lat="44.91308" lon="5.63268">
        <ele>846</ele>
        <time>2017-12-15T20:41:55Z</time>
      </trkpt>
      <trkpt lat="44.91309" lon="5.63266">
        <ele>846</ele>
        <time>2017-12-15T20:41:57Z</time>
      </trkpt>
      <trkpt lat="44.9149" lon="5.63366">
        <ele>840</ele>
        <time>2017-12-15T20:42:07Z</time>
      </trkpt>
      <trkpt lat="44.91538" lon="5.63391">
        <ele>834</ele>
        <time>2017-12-15T20:42:18Z</time>
      </trkpt>
      <trkpt lat="44.91553" lon="5.634">
        <ele>833</ele>
        <time>2017-12-15T20:42:29Z</time>
      </trkpt>
      <trkpt lat="44.91579" lon="5.63412">
        <ele>832</ele>
        <time>2017-12-15T20:42:45Z</time>
      </trkpt>
      <trkpt lat="44.91592" lon="5.63414">
        <ele>830</ele>
        <time>2017-12-15T20:43:01Z</time>
      </trkpt>
      <trkpt lat="44.91605" lon="5.63411">
        <ele>828</ele>
        <time>2017-12-15T20:43:21Z</time>
      </trkpt>
      <trkpt lat="44.9162" lon="5.634">
        <ele>827</ele>
        <time>2017-12-15T20:43:27Z</time>
      </trkpt>
      <trkpt lat="44.91636" lon="5.63383">
        <ele>826</ele>
        <time>2017-12-15T20:43:32Z</time>
      </trkpt>
      <trkpt lat="44.91661" lon="5.6335">
        <ele>825</ele>
        <time>2017-12-15T20:43:49Z</time>
      </trkpt>
      <trkpt lat="44.91684" lon="5.63323">
        <ele>827</ele>
        <time>2017-12-15T20:44:03Z</time>
      </trkpt>
      <trkpt lat="44.91688" lon="5.63317">
        <ele>828</ele>
        <time>2017-12-15T20:44:07Z</time>
      </trkpt>
      <trkpt lat="44.91706" lon="5.63307">
        <ele>830</ele>
        <time>2017-12-15T20:44:16Z</time>
      </trkpt>
      <trkpt lat="44.91719" lon="5.63302">
        <ele>830</ele>
        <time>2017-12-15T20:44:22Z</time>
      </trkpt>
      <trkpt lat="44.91733" lon="5.63301">
        <ele>830</ele>
        <time>2017-12-15T20:44:29Z</time>
      </trkpt>
      <trkpt lat="44.91748" lon="5.63303">
        <ele>830</ele>
        <time>2017-12-15T20:44:45Z</time>
      </trkpt>
      <trkpt lat="44.9176" lon="5.63306">
        <ele>832</ele>
        <time>2017-12-15T20:44:57Z</time>
      </trkpt>
      <trkpt lat="44.91773" lon="5.63314">
        <ele>832</ele>
        <time>2017-12-15T20:45:10Z</time>
      </trkpt>
      <trkpt lat="44.91802" lon="5.6334">
        <ele>825</ele>
        <time>2017-12-15T20:45:29Z</time>
      </trkpt>
      <trkpt lat="44.9191" lon="5.63448">
        <ele>816</ele>
        <time>2017-12-15T20:45:37Z</time>
      </trkpt>
      <trkpt lat="44.91926" lon="5.63458">
        <ele>814</ele>
        <time>2017-12-15T20:45:44Z</time>
      </trkpt>
      <trkpt lat="44.91942" lon="5.63465">
        <ele>813</ele>
        <time>2017-12-15T20:46:00Z</time>
      </trkpt>
      <trkpt lat="44.91975" lon="5.63469">
        <ele>813</ele>
        <time>2017-12-15T20:46:07Z</time>
      </trkpt>
      <trkpt lat="44.92008" lon="5.63475">
        <ele>812</ele>
        <time>2017-12-15T20:46:16Z</time>
      </trkpt>
      <trkpt lat="44.92027" lon="5.63482">
        <ele>812</ele>
        <time>2017-12-15T20:46:18Z</time>
      </trkpt>
      <trkpt lat="44.92043" lon="5.63491">
        <ele>812</ele>
        <time>2017-12-15T20:46:29Z</time>
      </trkpt>
      <trkpt lat="44.92061" lon="5.63507">
        <ele>808</ele>
        <time>2017-12-15T20:46:36Z</time>
      </trkpt>
      <trkpt lat="44.92071" lon="5.63519">
        <ele>808</ele>
        <time>2017-12-15T20:46:55Z</time>
      </trkpt>
      <trkpt lat="44.92083" lon="5.63534">
        <ele>808</ele>
        <time>2017-12-15T20:47:11Z</time>
      </trkpt>
      <trkpt lat="44.92092" lon="5.63557">
        <ele>807</ele>
        <time>2017-12-15T20:47:21Z</time>
      </trkpt>
      <trkpt lat="44.921" lon="5.63575">
        <ele>807</ele>
        <time>2017-12-15T20:47:35Z</time>
      </trkpt>
      <trkpt lat="44.92106" lon="5.63601">
        <ele>806</ele>
        <time>2017-12-15T20:47:53Z</time>
      </trkpt>
      <trkpt lat="44.92106" lon="5.63611">
        <ele>806</ele>
        <time>2017-12-15T20:47:56Z</time>
      </trkpt>
      <trkpt lat="44.92104" lon="5.63621">
        <ele>806</ele>
        <time>2017-12-15T20:47:58Z</time>
      </trkpt>
      <trkpt lat="44.92103" lon="5.63631">
        <ele>806</ele>
        <time>2017-12-15T20:48:00Z</time>
      </trkpt>
      <trkpt lat="44.92105" lon="5.6364">
        <ele>806</ele>
        <time>2017-12-15T20:48:15Z</time>
      </trkpt>
      <trkpt lat="44.92109" lon="5.63645">
        <ele>806</ele>
        <time>2017-12-15T20:48:32Z</time>
      </trkpt>
      <trkpt lat="44.92115" lon="5.63648">
        <ele>806</ele>
        <time>2017-12-15T20:48:39Z</time>
      </trkpt>
      <trkpt lat="44.92122" lon="5.63647">
        <ele>806</ele>
        <time>2017-12-15T20:48:54Z</time>
      </trkpt>
      <trkpt lat="44.92128" lon="5.63641">
        <ele>806</ele>
        <time>2017-12-15T20:49:05Z</time>
      </trkpt>
      <trkpt lat="44.92131" lon="5.63629">
        <ele>806</ele>
        <time>2017-12-15T20:49:21Z</time>
      </trkpt>
      <trkpt lat="44.92131" lon="5.63624">
        <ele>806</ele>
        <time>2017-12-15T20:49:29Z</time>
      </trkpt>
      <trkpt lat="44.92144" lon="5.63609">
        <ele>806</ele>
        <time>2017-12-15T20:49:37Z</time>
      </trkpt>
      <trkpt lat="44.9215" lon="5.63597">
        <ele>805</ele>
        <time>2017-12-15T20:49:47Z</time>
      </trkpt>
      <trkpt lat="44.92155" lon="5.6359">
        <ele>805</ele>
        <time>2017-12-15T20:50:06Z</time>
      </trkpt>
      <trkpt lat="44.92157" lon="5.6358">
        <ele>805</ele>
        <time>2017-12-15T20:50:14Z</time>
      </trkpt>
      <trkpt lat="44.92164" lon="5.63567">
        <ele>805</ele>
        <time>2017-12-15T20:50:24Z</time>
      </trkpt>
      <trkpt lat="44.92175" lon="5.63556">
        <ele>806</ele>
        <time>2017-12-15T20:50:39Z</time>
      </trkpt>
      <trkpt lat="44.92206" lon="5.63535">
        <ele>807</ele>
        <time>2017-12-15T20:50:41Z</time>
      </trkpt>
      <trkpt lat="44.92241" lon="5.63513">
        <ele>809</ele>
        <time>2017-12-15T20:50:53Z</time>
      </trkpt>
      <trkpt lat="44.92266" lon="5.63501">
        <ele>810</ele>
        <time>2017-12-15T20:51:00Z</time>
      </trkpt>
      <trkpt lat="44.92298" lon="5.63487">
        <ele>825</ele>
        <time>2017-12-15T20:51:17Z</time>
      </trkpt>
      <trkpt lat="44.92346" lon="5.63473">
        <ele>825</ele>
        <time>2017-12-15T20:51:21Z</time>
      </trkpt>
      <trkpt lat="44.92378" lon="5.63468">
        <ele>826</ele>
        <time>2017-12-15T20:51:27Z</time>
      </trkpt>
      <trkpt lat="44.92409" lon="5.63464">
        <ele>825</ele>
        <time>2017-12-15T20:51:29Z</time>
      </trkpt>
      <trkpt lat="44.92438" lon="5.63464">
        <ele>826</ele>
        <time>2017-12-15T20:51:31Z</time>
      </trkpt>
      <trkpt lat="44.92464" lon="5.63467">
        <ele>826</ele>
        <time>2017-12-15T20:51:44Z</time>
      </trkpt>
      <trkpt lat="44.92493" lon="5.63478">
        <ele>822</ele>
        <time>2017-12-15T20:51:58Z</time>
      </trkpt>
      <trkpt lat="44.92526" lon="5.63486">
        <ele>826</ele>
        <time>2017-12-15T20:52:13Z</time>
      </trkpt>
      <trkpt lat="44.92579" lon="5.63487">
        <ele>824</ele>
        <time>2017-12-15T20:52:29Z</time>
      </trkpt>
      <trkpt lat="44.92592" lon="5.63488">
        <ele>826</ele>
        <time>2017-12-15T20:52:47Z</time>
      </trkpt>
      <trkpt lat="44.92606" lon="5.63493">
        <ele>829</ele>
        <time>2017-12-15T20:53:03Z</time>
      </trkpt>
      <trkpt lat="44.92638" lon="5.63504">
        <ele>812</ele>
        <time>2017-12-15T20:53:22Z</time>
      </trkpt>
      <trkpt lat="44.92673" lon="5.63513">
        <ele>815</ele>
        <time>2017-12-15T20:53:24Z</time>
      </trkpt>
      <trkpt lat="44.92712" lon="5.63513">
        <ele>814</ele>
        <time>2017-12-15T20:53:37Z</time>
      </trkpt>
      <trkpt lat="44.92745" lon="5.63512">
        <ele>819</ele>
        <time>2017-12-15T20:53:55Z</time>
      </trkpt>
      <trkpt lat="44.92774" lon="5.63516">
        <ele>816</ele>
        <time>2017-12-15T20:54:06Z</time>
      </trkpt>
      <trkpt lat="44.92798" lon="5.63523">
        <ele>814</ele>
        <time>2017-12-15T20:54:10Z</time>
      </trkpt>
      <trkpt lat="44.92825" lon="5.63526">
        <ele>815</ele>
        <time>2017-12-15T20:54:12Z</time>
      </trkpt>
      <trkpt lat="44.92848" lon="5.63522">
        <ele>813</ele>
        <time>2017-12-15T20:54:28Z</time>
      </trkpt>
      <trkpt lat="44.92869" lon="5.63513">
        <ele>812</ele>
        <time>2017-12-15T20:54:38Z</time>
      </trkpt>
      <trkpt lat="44.92891" lon="5.635">
        <ele>821</ele>
        <time>2017-12-15T20:54:42Z</time>
      </trkpt>
      <trkpt lat="44.92976" lon="5.6343">
        <ele>814</ele>
        <time>2017-12-15T20:54:57Z</time>
      </trkpt>
      <trkpt lat="44.92986" lon="5.6342">
        <ele>814</ele>
        <time>2017-12-15T20:55:06Z</time>
      </trkpt>
      <trkpt lat="44.92992" lon="5.63412">
        <ele>815</ele>
        <time>2017-12-15T20:55:17Z</time>
      </trkpt>
      <trkpt lat="44.92996" lon="5.63393">
        <ele>815</ele>
        <time>2017-12-15T20:55:23Z</time>
      </trkpt>
      <trkpt lat="44.9299" lon="5.63362">
        <ele>814</ele>
        <time>2017-12-15T20:55:39Z</time>
      </trkpt>
      <trkpt lat="44.92976" lon="5.63328">
        <ele>810</ele>
        <time>2017-12-15T20:55:55Z</time>
      </trkpt>
      <trkpt lat="44.9295" lon="5.63286">
        <ele>810</ele>
        <time>2017-12-15T20:56:02Z</time>
      </trkpt>
      <trkpt lat="44.92925" lon="5.63249">
        <ele>809</ele>
        <time>2017-12-15T20:56:11Z</time>
      </trkpt>
      <trkpt lat="44.92913" lon="5.63228">
        <ele>815</ele>
        <time>2017-12-15T20:56:25Z</time>
      </trkpt>
      <trkpt lat="44.92904" lon="5.63205">
        <ele>816</ele>
        <time>2017-12-15T20:56:32Z</time>
      </trkpt>
      <trkpt lat="44.9289" lon="5.6315">
        <ele>814</ele>
        <time>2017-12-15T20:56:40Z</time>
      </trkpt>
      <trkpt lat="44.92877" lon="5.63089">
        <ele>814</ele>
        <time>2017-12-15T20:56:43Z</time>
      </trkpt>
      <trkpt lat="44.92865" lon="5.6299">
        <ele>814</ele>
        <time>2017-12-15T20:56:54Z</time>
      </trkpt>
      <trkpt lat="44.92865" lon="5.62974">
        <ele>814</ele>
        <time>2017-12-15T20:57:14Z</time>
      </trkpt>
      <trkpt lat="44.9287" lon="5.62959">
        <ele>814</ele>
        <time>2017-12-15T20:57:24Z</time>
      </trkpt>
      <trkpt lat="44.92881" lon="5.62939">
        <ele>814</ele>
        <time>2017-12-15T20:57:40Z</time>
      </trkpt>
      <trkpt lat="44.92914" lon="5.62898">
        <ele>813</ele>
        <time>2017-12-15T20:57:50Z</time>
      </trkpt>
      <trkpt lat="44.92929" lon="5.62878">
        <ele>808</ele>
        <time>2017-12-15T20:57:52Z</time>
      </trkpt>
      <trkpt lat="44.92942" lon="5.62854">
        <ele>808</ele>
        <time>2017-12-15T20:57:58Z</time>
      </trkpt>
      <trkpt lat="44.92973" lon="5.62764">
        <ele>807</ele>
        <time>2017-12-15T20:58:04Z</time>
      </trkpt>
      <trkpt lat="44.9303" lon="5.62586">
        <ele>804</ele>
        <time>2017-12-15T20:58:24Z</time>
      </trkpt>
      <trkpt lat="44.93072" lon="5.62455">
        <ele>804</ele>
        <time>2017-12-15T20:58:34Z</time>
      </trkpt>
      <trkpt lat="44.93123" lon="5.62303">
        <ele>807</ele>
        <time>2017-12-15T20:58:45Z</time>
      </trkpt>
      <trkpt lat="44.93127" lon="5.62282">
        <ele>808</ele>
        <time>2017-12-15T20:59:02Z</time>
      </trkpt>
      <trkpt lat="44.93129" lon="5.62258">
        <ele>809</ele>
        <time>2017-12-15T20:59:10Z</time>
      </trkpt>
      <trkpt lat="44.93126" lon="5.62208">
        <ele>811</ele>
        <time>2017-12-15T20:59:22Z</time>
      </trkpt>
      <trkpt lat="44.93121" lon="5.6215">
        <ele>812</ele>
        <time>2017-12-15T20:59:37Z</time>
      </trkpt>
      <trkpt lat="44.93123" lon="5.62128">
        <ele>813</ele>
        <time>2017-12-15T20:59:53Z</time>
      </trkpt>
      <trkpt lat="44.93129" lon="5.62107">
        <ele>813</ele>
        <time>2017-12-15T21:00:03Z</time>
      </trkpt>
      <trkpt lat="44.93139" lon="5.6209">
        <ele>812</ele>
        <time>2017-12-15T21:00:16Z</time>
      </trkpt>
      <trkpt lat="44.93146" lon="5.62083">
        <ele>814</ele>
        <time>2017-12-15T21:00:20Z</time>
      </trkpt>
      <trkpt lat="44.93163" lon="5.62068">
        <ele>814</ele>
        <time>2017-12-15T21:00:37Z</time>
      </trkpt>
      <trkpt lat="44.93191" lon="5.62048">
        <ele>814</ele>
        <time>2017-12-15T21:00:45Z</time>
      </trkpt>
      <trkpt lat="44.9324" lon="5.62016">
        <ele>817</ele>
        <time>2017-12-15T21:01:04Z</time>
      </trkpt>
      <trkpt lat="44.93266" lon="5.62001">
        <ele>817</ele>
        <time>2017-12-15T21:01:09Z</time>
      </trkpt>
      <trkpt lat="44.9329" lon="5.61991">
        <ele>822</ele>
        <time>2017-12-15T21:01:27Z</time>
      </trkpt>
      <trkpt lat="44.93307" lon="5.61986">
        <ele>822</ele>
        <time>2017-12-15T21:01:41Z</time>
      </trkpt>
      <trkpt lat="44.93326" lon="5.61985">
        <ele>822</ele>
        <time>2017-12-15T21:01:54Z</time>
      </trkpt>
      <trkpt lat="44.93343" lon="5.61987">
        <ele>822</ele>
        <time>2017-12-15T21:02:04Z</time>
      </trkpt>
      <trkpt lat="44.93366" lon="5.61994">
        <ele>823</ele>
        <time>2017-12-15T21:02:12Z</time>
      </trkpt>
      <trkpt lat="44.93394" lon="5.62006">
        <ele>820</ele>
        <time>2017-12-15T21:02:23Z</time>
      </trkpt>
      <trkpt lat="44.93413" lon="5.62011">
        <ele>821</ele>
        <time>2017-12-15T21:02:40Z</time>
      </trkpt>
      <trkpt lat="44.93422" lon="5.62011">
        <ele>821</ele>
        <time>2017-12-15T21:02:42Z</time>
      </trkpt>
      <trkpt lat="44.93427" lon="5.62009">
        <ele>821</ele>
        <time>2017-12-15T21:02:54Z</time>
      </trkpt>
      <trkpt lat="44.93438" lon="5.61994">
        <ele>821</ele>
        <time>2017-12-15T21:03:06Z</time>
      </trkpt>
      <trkpt lat="44.9344" lon="5.61987">
        <ele>821</ele>
        <time>2017-12-15T21:03:14Z</time>
      </trkpt>
      <trkpt lat="44.9344" lon="5.61966">
        <ele>821</ele>
        <time>2017-12-15T21:03:27Z</time>
      </trkpt>
      <trkpt lat="44.93421" lon="5.61905">
        <ele>827</ele>
        <time>2017-12-15T21:03:34Z</time>
      </trkpt>
      <trkpt lat="44.93415" lon="5.61881">
        <ele>831</ele>
        <time>2017-12-15T21:03:52Z</time>
      </trkpt>
      <trkpt lat="44.93412" lon="5.61854">
        <ele>832</ele>
        <time>2017-12-15T21:04:03Z</time>
      </trkpt>
      <trkpt lat="44.93408" lon="5.61717">
        <ele>843</ele>
        <time>2017-12-15T21:04:23Z</time>
      </trkpt>
      <trkpt lat="44.93407" lon="5.61627">
        <ele>848</ele>
        <time>2017-12-15T21:04:39Z</time>
      </trkpt>
      <trkpt lat="44.93413" lon="5.6152">
        <ele>848</ele>
        <time>2017-12-15T21:04:57Z</time>
      </trkpt>
      <trkpt lat="44.93422" lon="5.61468">
        <ele>842</ele>
        <time>2017-12-15T21:05:06Z</time>
      </trkpt>
      <trkpt lat="44.93454" lon="5.61376">
        <ele>843</ele>
        <time>2017-12-15T21:05:26Z</time>
      </trkpt>
      <trkpt lat="44.93474" lon="5.61319">
        <ele>844</ele>
        <time>2017-12-15T21:05:43Z</time>
      </trkpt>
      <trkpt lat="44.93495" lon="5.61274">
        <ele>846</ele>
        <time>2017-12-15T21:05:52Z</time>
      </trkpt>
      <trkpt lat="44.93536" lon="5.61211">
        <ele>846</ele>
        <time>2017-12-15T21:06:07Z</time>
      </trkpt>
      <trkpt lat="44.9357" lon="5.61162">
        <ele>849</ele>
        <time>2017-12-15T21:06:11Z</time>
      </trkpt>
      <trkpt lat="44.93606" lon="5.61123">
        <ele>848</ele>
        <time>2017-12-15T21:06:21Z</time>
      </trkpt>
      <trkpt lat="44.9364" lon="5.61084">
        <ele>847</ele>
        <time>2017-12-15T21:06:30Z</time>
      </trkpt>
      <trkpt lat="44.93667" lon="5.61038">
        <ele>846</ele>
        <time>2017-12-15T21:06:39Z</time>
      </trkpt>
      <trkpt lat="44.93687" lon="5.61008">
        <ele>846</ele>
        <time>2017-12-15T21:06:58Z</time>
      </trkpt>
      <trkpt lat="44.93707" lon="5.60995">
        <ele>848</ele>
        <time>2017-12-15T21:07:09Z</time>
      </trkpt>
      <trkpt lat="44.93743" lon="5.60983">
        <ele>847</ele>
        <time>2017-12-15T21:07:17Z</time>
      </trkpt>
      <trkpt lat="44.93759" lon="5.60977">
        <ele>846</ele>
        <time>2017-12-15T21:07:25Z</time>
      </trkpt>
      <trkpt lat="44.93779" lon="5.60961">
        <ele>846</ele>
        <time>2017-12-15T21:07:45Z</time>
      </trkpt>
      <trkpt lat="44.93803" lon="5.60942">
        <ele>846</ele>
        <time>2017-12-15T21:07:53Z</time>
      </trkpt>
      <trkpt lat="44.9383" lon="5.60926">
        <ele>845</ele>
        <time>2017-12-15T21:08:07Z</time>
      </trkpt>
      <trkpt lat="44.93851" lon="5.60914">
        <ele>846</ele>
        <time>2017-12-15T21:08:27Z</time>
      </trkpt>
      <trkpt lat="44.93877" lon="5.60908">
        <ele>846</ele>
        <time>2017-12-15T21:08:40Z</time>
      </trkpt>
      <trkpt lat="44.93908" lon="5.60906">
        <ele>845</ele>
        <time>2017-12-15T21:08:59Z</time>
      </trkpt>
      <trkpt lat="44.9395" lon="5.60901">
        <ele>843</ele>
        <time>2017-12-15T21:09:07Z</time>
      </trkpt>
      <trkpt lat="44.93981" lon="5.60887">
        <ele>842</ele>
        <time>2017-12-15T21:09:10Z</time>
      </trkpt>
      <trkpt lat="44.9403" lon="5.60855">
        <ele>839</ele>
        <time>2017-12-15T21:09:20Z</time>
      </trkpt>
      <trkpt lat="44.9407" lon="5.60826">
        <ele>841</ele>
        <time>2017-12-15T21:09:39Z</time>
      </trkpt>
      <trkpt lat="44.94091" lon="5.60813">
        <ele>838</ele>
        <time>2017-12-15T21:09:58Z</time>
      </trkpt>
      <trkpt lat="44.94116" lon="5.608">
        <ele>838</ele>
        <time>2017-12-15T21:10:01Z</time>
      </trkpt>
      <trkpt lat="44.94166" lon="5.60775">
        <ele>838</ele>
        <time>2017-12-15T21:10:04Z</time>
      </trkpt>
      <trkpt lat="44.942" lon="5.60749">
        <ele>838</ele>
        <time>2017-12-15T21:10:18Z</time>
      </trkpt>
      <trkpt lat="44.94297" lon="5.60652">
        <ele>840</ele>
        <time>2017-12-15T21:10:20Z</time>
      </trkpt>
      <trkpt lat="44.94311" lon="5.60644">
        <ele>840</ele>
        <time>2017-12-15T21:10:37Z</time>
      </trkpt>
      <trkpt lat="44.94324" lon="5.6064">
        <ele>840</ele>
        <time>2017-12-15T21:10:47Z</time>
      </trkpt>
      <trkpt lat="44.94338" lon="5.60639">
        <ele>838</ele>
        <time>2017-12-15T21:10:55Z</time>
      </trkpt>
      <trkpt lat="44.94358" lon="5.60642">
        <ele>839</ele>
        <time>2017-12-15T21:11:12Z</time>
      </trkpt>
      <trkpt lat="44.94395" lon="5.60651">
        <ele>839</ele>
        <time>2017-12-15T21:11:17Z</time>
      </trkpt>
      <trkpt lat="44.9441" lon="5.60653">
        <ele>838</ele>
        <time>2017-12-15T21:11:36Z</time>
      </trkpt>
      <trkpt lat="44.94426" lon="5.6065">
        <ele>838</ele>
        <time>2017-12-15T21:11:43Z</time>
      </trkpt>
      <trkpt lat="44.94443" lon="5.60646">
        <ele>838</ele>
        <time>2017-12-15T21:12:01Z</time>
      </trkpt>
      <trkpt lat="44.94478" lon="5.60633">
        <ele>839</ele>
        <time>2017-12-15T21:12:14Z</time>
      </trkpt>
      <trkpt lat="44.94499" lon="5.60623">
        <ele>839</ele>
        <time>2017-12-15T21:12:33Z</time>
      </trkpt>
      <trkpt lat="44.94531" lon="5.60601">
        <ele>838</ele>
        <time>2017-12-15T21:12:51Z</time>
      </trkpt>
      <trkpt lat="44.94564" lon="5.60572">
        <ele>841</ele>
        <time>2017-12-15T21:13:00Z</time>
      </trkpt>
      <trkpt lat="44.94602" lon="5.60535">
        <ele>837</ele>
        <time>2017-12-15T21:13:02Z</time>
      </trkpt>
      <trkpt lat="44.94633" lon="5.60497">
        <ele>840</ele>
        <time>2017-12-15T21:13:18Z</time>
      </trkpt>
      <trkpt lat="44.94657" lon="5.60458">
        <ele>841</ele>
        <time>2017-12-15T21:13:30Z</time>
      </trkpt>
      <trkpt lat="44.94668" lon="5.60437">
        <ele>839</ele>
        <time>2017-12-15T21:13:45Z</time>
      </trkpt>
      <trkpt lat="44.94677" lon="5.60425">
        <ele>840</ele>
        <time>2017-12-15T21:14:05Z</time>
      </trkpt>
      <trkpt lat="44.947" lon="5.60409">
        <ele>842</ele>
        <time>2017-12-15T21:14:25Z</time>
      </trkpt>
      <trkpt lat="44.94709" lon="5.60404">
        <ele>842</ele>
        <time>2017-12-15T21:14:29Z</time>
      </trkpt>
      <trkpt lat="44.94722" lon="5.60404">
        <ele>841</ele>
        <time>2017-12-15T21:14:37Z</time>
      </trkpt>
      <trkpt lat="44.94744" lon="5.60408">
        <ele>838</ele>
        <time>2017-12-15T21:14:45Z</time>
      </trkpt>
      <trkpt lat="44.94777" lon="5.6042">
        <ele>831</ele>
        <time>2017-12-15T21:14:58Z</time>
      </trkpt>
      <trkpt lat="44.94904" lon="5.60478">
        <ele>826</ele>
        <time>2017-12-15T21:15:07Z</time>
      </trkpt>
      <trkpt lat="44.94992" lon="5.60518">
        <ele>823</ele>
        <time>2017-12-15T21:15:21Z</time>
      </trkpt>
      <trkpt lat="44.95016" lon="5.60528">
        <ele>819</ele>
        <time>2017-12-15T21:15:37Z</time>
      </trkpt>
      <trkpt lat="44.9503" lon="5.60532">
        <ele>818</ele>
        <time>2017-12-15T21:15:51Z</time>
      </trkpt>
      <trkpt lat="44.95044" lon="5.60527">
        <ele>817</ele>
        <time>2017-12-15T21:16:11Z</time>
      </trkpt>
      <trkpt lat="44.9507" lon="5.60513">
        <ele>817</ele>
        <time>2017-12-15T21:16:16Z</time>
      </trkpt>
      <trkpt lat="44.95116" lon="5.60486">
        <ele>809</ele>
        <time>2017-12-15T21:16:33Z</time>
      </trkpt>
      <trkpt lat="44.9513" lon="5.60474">
        <ele>808</ele>
        <time>2017-12-15T21:16:51Z</time>
      </trkpt>
      <trkpt lat="44.95146" lon="5.60455">
        <ele>807</ele>
        <time>2017-12-15T21:16:55Z</time>
      </trkpt>
      <trkpt lat="44.95154" lon="5.6044">
        <ele>806</ele>
        <time>2017-12-15T21:17:06Z</time>
      </trkpt>
      <trkpt lat="44.95158" lon="5.60426">
        <ele>804</ele>
        <time>2017-12-15T21:17:19Z</time>
      </trkpt>
      <trkpt lat="44.95158" lon="5.60406">
        <ele>804</ele>
        <time>2017-12-15T21:17:33Z</time>
      </trkpt>
      <trkpt lat="44.95152" lon="5.60379">
        <ele>805</ele>
        <time>2017-12-15T21:17:45Z</time>
      </trkpt>
      <trkpt lat="44.95141" lon="5.60345">
        <ele>804</ele>
        <time>2017-12-15T21:17:49Z</time>
      </trkpt>
      <trkpt lat="44.95137" lon="5.60324">
        <ele>803</ele>
        <time>2017-12-15T21:17:57Z</time>
      </trkpt>
      <trkpt lat="44.95136" lon="5.60307">
        <ele>803</ele>
        <time>2017-12-15T21:18:01Z</time>
      </trkpt>
      <trkpt lat="44.95139" lon="5.60288">
        <ele>803</ele>
        <time>2017-12-15T21:18:03Z</time>
      </trkpt>
      <trkpt lat="44.95164" lon="5.60214">
        <ele>797</ele>
        <time>2017-12-15T21:18:10Z</time>
      </trkpt>
      <trkpt lat="44.95169" lon="5.60195">
        <ele>786</ele>
        <time>2017-12-15T21:18:27Z</time>
      </trkpt>
      <trkpt lat="44.95169" lon="5.60184">
        <ele>787</ele>
        <time>2017-12-15T21:18:33Z</time>
      </trkpt>
      <trkpt lat="44.95167" lon="5.60177">
        <ele>788</ele>
        <time>2017-12-15T21:18:46Z</time>
      </trkpt>
      <trkpt lat="44.95162" lon="5.60168">
        <ele>792</ele>
        <time>2017-12-15T21:19:06Z</time>
      </trkpt>
      <trkpt lat="44.95153" lon="5.60163">
        <ele>790</ele>
        <time>2017-12-15T21:19:20Z</time>
      </trkpt>
      <trkpt lat="44.95139" lon="5.60162">
        <ele>790</ele>
        <time>2017-12-15T21:19:24Z</time>
      </trkpt>
      <trkpt lat="44.95122" lon="5.60156">
        <ele>790</ele>
        <time>2017-12-15T21:19:42Z</time>
      </trkpt>
      <trkpt lat="44.95111" lon="5.60146">
        <ele>790</ele>
        <time>2017-12-15T21:19:59Z</time>
      </trkpt>
      <trkpt lat="44.95094" lon="5.60119">
        <ele>788</ele>
        <time>2017-12-15T21:20:13Z</time>
      </trkpt>
      <trkpt lat="44.95084" lon="5.6009">
        <ele>785</ele>
        <time>2017-12-15T21:20:16Z</time>
      </trkpt>
      <trkpt lat="44.95084" lon="5.60065">
        <ele>781</ele>
        <time>2017-12-15T21:20:34Z</time>
      </trkpt>
      <trkpt lat="44.95087" lon="5.6004">
        <ele>780</ele>
        <time>2017-12-15T21:20:50Z</time>
      </trkpt>
      <trkpt lat="44.95103" lon="5.59999">
        <ele>778</ele>
        <time>2017-12-15T21:20:56Z</time>
      </trkpt>
      <trkpt lat="44.95111" lon="5.5997">
        <ele>775</ele>
        <time>2017-12-15T21:21:11Z</time>
      </trkpt>
      <trkpt lat="44.95112" lon="5.59956">
        <ele>775</ele>
        <time>2017-12-15T21:21:19Z</time>
      </trkpt>
      <trkpt lat="44.95116" lon="5.5992">
        <ele>775</ele>
        <time>2017-12-15T21:21:32Z</time>
      </trkpt>
      <trkpt lat="44.95132" lon="5.59855">
        <ele>772</ele>
        <time>2017-12-15T21:21:52Z</time>
      </trkpt>
      <trkpt lat="44.9515" lon="5.59781">
        <ele>771</ele>
        <time>2017-12-15T21:22:05Z</time>
      </trkpt>
      <trkpt lat="44.9516" lon="5.59761">
        <ele>767</ele>
        <time>2017-12-15T21:22:21Z</time>
      </trkpt>
      <trkpt lat="44.95184" lon="5.59724">
        <ele>759</ele>
        <time>2017-12-15T21:22:24Z</time>
      </trkpt>
      <trkpt lat="44.9523" lon="5.59639">
        <ele>758</ele>
        <time>2017-12-15T21:22:37Z</time>
      </trkpt>
      <trkpt lat="44.95255" lon="5.59587">
        <ele>749</ele>
        <time>2017-12-15T21:22:53Z</time>
      </trkpt>
      <trkpt lat="44.95268" lon="5.59534">
        <ele>747</ele>
        <time>2017-12-15T21:23:06Z</time>
      </trkpt>
      <trkpt lat="44.95274" lon="5.59476">
        <ele>748</ele>
        <time>2017-12-15T21:23:23Z</time>
      </trkpt>
      <trkpt lat="44.95276" lon="5.59405">
        <ele>747</ele>
        <time>2017-12-15T21:23:41Z</time>
      </trkpt>
      <trkpt lat="44.95282" lon="5.59299">
        <ele>741</ele>
        <time>2017-12-15T21:23:55Z</time>
      </trkpt>
      <trkpt lat="44.95281" lon="5.59247">
        <ele>739</ele>
        <time>2017-12-15T21:23:59Z</time>
      </trkpt>
      <trkpt lat="44.95275" lon="5.59187">
        <ele>738</ele>
        <time>2017-12-15T21:24:05Z</time>
      </trkpt>
      <trkpt lat="44.95274" lon="5.59167">
        <ele>739</ele>
        <time>2017-12-15T21:24:24Z</time>
      </trkpt>
      <trkpt lat="44.95278" lon="5.59149">
        <ele>738</ele>
        <time>2017-12-15T21:24:40Z</time>
      </trkpt>
      <trkpt lat="44.95283" lon="5.59136">
        <ele>737</ele>
        <time>2017-12-15T21:24:47Z</time>
      </trkpt>
      <trkpt lat="44.95289" lon="5.59129">
        <ele>736</ele>
        <time>2017-12-15T21:25:03Z</time>
      </trkpt>
      <trkpt lat="44.9533" lon="5.59084">
        <ele>726</ele>
        <time>2017-12-15T21:25:21Z</time>
      </trkpt>
      <trkpt lat="44.95343" lon="5.59068">
        <ele>720</ele>
        <time>2017-12-15T21:25:31Z</time>
      </trkpt>
      <trkpt lat="44.95352" lon="5.59048">
        <ele>718</ele>
        <time>2017-12-15T21:25:46Z</time>
      </trkpt>
      <trkpt lat="44.95371" lon="5.59">
        <ele>719</ele>
        <time>2017-12-15T21:26:01Z</time>
      </trkpt>
      <trkpt lat="44.95386" lon="5.58945">
        <ele>718</ele>
        <time>2017-12-15T21:26:21Z</time>
      </trkpt>
      <trkpt lat="44.95398" lon="5.58901">
        <ele>719</ele>
        <time>2017-12-15T21:26:37Z</time>
      </trkpt>
      <trkpt lat="44.95407" lon="5.58887">
        <ele>720</ele>
        <time>2017-12-15T21:26:41Z</time>
      </trkpt>
      <trkpt lat="44.95416" lon="5.58878">
        <ele>720</ele>
        <time>2017-12-15T21:26:43Z</time>
      </trkpt>
      <trkpt lat="44.9544" lon="5.58863">
        <ele>711</ele>
        <time>2017-12-15T21:26:53Z</time>
      </trkpt>
      <trkpt lat="44.95454" lon="5.5886">
        <ele>710</ele>
        <time>2017-12-15T21:26:57Z</time>
      </trkpt>
      <trkpt lat="44.95468" lon="5.58862">
        <ele>709</ele>
        <time>2017-12-15T21:27:01Z</time>
      </trkpt>
      <trkpt lat="44.95495" lon="5.58867">
        <ele>708</ele>
        <time>2017-12-15T21:27:05Z</time>
      </trkpt>
      <trkpt lat="44.95518" lon="5.58874">
        <ele>702</ele>
        <time>2017-12-15T21:27:24Z</time>
      </trkpt>
      <trkpt lat="44.95524" lon="5.58873">
        <ele>701</ele>
        <time>2017-12-15T21:27:34Z</time>
      </trkpt>
      <trkpt lat="44.95531" lon="5.58865">
        <ele>702</ele>
        <time>2017-12-15T21:27:38Z</time>
      </trkpt>
      <trkpt lat="44.95552" lon="5.58826">
        <ele>704</ele>
        <time>2017-12-15T21:27:40Z</time>
      </trkpt>
      <trkpt lat="44.95554" lon="5.5882">
        <ele>704</ele>
        <time>2017-12-15T21:27:43Z</time>
      </trkpt>
      <trkpt lat="44.95557" lon="5.58793">
        <ele>705</ele>
        <time>2017-12-15T21:27:49Z</time>
      </trkpt>
      <trkpt lat="44.95563" lon="5.58779">
        <ele>705</ele>
        <time>2017-12-15T21:28:05Z</time>
      </trkpt>
      <trkpt lat="44.95569" lon="5.58774">
        <ele>705</ele>
        <time>2017-12-15T21:28:22Z</time>
      </trkpt>
      <trkpt lat="44.95589" lon="5.58767">
        <ele>702</ele>
        <time>2017-12-15T21:28:26Z</time>
      </trkpt>
      <trkpt lat="44.95642" lon="5.58758">
        <ele>698</ele>
        <time>2017-12-15T21:28:30Z</time>
      </trkpt>
      <trkpt lat="44.95662" lon="5.58751">
        <ele>697</ele>
        <time>2017-12-15T21:28:36Z</time>
      </trkpt>
      <trkpt lat="44.95692" lon="5.5873">
        <ele>692</ele>
        <time>2017-12-15T21:28:41Z</time>
      </trkpt>
      <trkpt lat="44.95709" lon="5.58722">
        <ele>690</ele>
        <time>2017-12-15T21:28:59Z</time>
      </trkpt>
      <trkpt lat="44.95718" lon="5.58725">
        <ele>689</ele>
        <time>2017-12-15T21:29:13Z</time>
      </trkpt>
      <trkpt lat="44.95724" lon="5.58732">
        <ele>689</ele>
        <time>2017-12-15T21:29:30Z</time>
      </trkpt>
      <trkpt lat="44.95726" lon="5.58749">
        <ele>689</ele>
        <time>2017-12-15T21:29:40Z</time>
      </trkpt>
      <trkpt lat="44.9571" lon="5.58811">
        <ele>688</ele>
        <time>2017-12-15T21:30:00Z</time>
      </trkpt>
      <trkpt lat="44.95676" lon="5.58939">
        <ele>680</ele>
        <time>2017-12-15T21:30:03Z</time>
      </trkpt>
      <trkpt lat="44.95672" lon="5.58966">
        <ele>678</ele>
        <time>2017-12-15T21:30:09Z</time>
      </trkpt>
      <trkpt lat="44.95674" lon="5.58979">
        <ele>678</ele>
        <time>2017-12-15T21:30:29Z</time>
      </trkpt>
      <trkpt lat="44.95678" lon="5.58985">
        <ele>678</ele>
        <time>2017-12-15T21:30:39Z</time>
      </trkpt>
      <trkpt lat="44.95682" lon="5.58988">
        <ele>678</ele>
        <time>2017-12-15T21:30:49Z</time>
      </trkpt>
      <trkpt lat="44.95689" lon="5.58988">
        <ele>677</ele>
        <time>2017-12-15T21:30:52Z</time>
      </trkpt>
      <trkpt lat="44.95699" lon="5.58983">
        <ele>677</ele>
        <time>2017-12-15T21:30:58Z</time>
      </trkpt>
      <trkpt lat="44.95715" lon="5.58969">
        <ele>676</ele>
        <time>2017-12-15T21:31:13Z</time>
      </trkpt>
      <trkpt lat="44.95729" lon="5.58957">
        <ele>675</ele>
        <time>2017-12-15T21:31:22Z</time>
      </trkpt>
      <trkpt lat="44.95747" lon="5.58949">
        <ele>675</ele>
        <time>2017-12-15T21:31:27Z</time>
      </trkpt>
      <trkpt lat="44.95784" lon="5.58943">
        <ele>668</ele>
        <time>2017-12-15T21:31:41Z</time>
      </trkpt>
      <trkpt lat="44.95853" lon="5.58935">
        <ele>661</ele>
        <time>2017-12-15T21:32:01Z</time>
      </trkpt>
      <trkpt lat="44.95947" lon="5.58922">
        <ele>653</ele>
        <time>2017-12-15T21:32:03Z</time>
      </trkpt>
      <trkpt lat="44.95965" lon="5.58918">
        <ele>651</ele>
        <time>2017-12-15T21:32:23Z</time>
      </trkpt>
      <trkpt lat="44.95978" lon="5.58911">
        <ele>651</ele>
        <time>2017-12-15T21:32:39Z</time>
      </trkpt>
      <trkpt lat="44.95992" lon="5.58894">
        <ele>651</ele>
        <time>2017-12-15T21:32:49Z</time>
      </trkpt>
      <trkpt lat="44.95997" lon="5.58882">
        <ele>651</ele>
        <time>2017-12-15T21:32:58Z</time>
      </trkpt>
      <trkpt lat="44.96" lon="5.58868">
        <ele>649</ele>
        <time>2017-12-15T21:33:01Z</time>
      </trkpt>
      <trkpt lat="44.96004" lon="5.5883">
        <ele>649</ele>
        <time>2017-12-15T21:33:17Z</time>
      </trkpt>
      <trkpt lat="44.96012" lon="5.58807">
        <ele>650</ele>
        <time>2017-12-15T21:33:26Z</time>
      </trkpt>
      <trkpt lat="44.9603" lon="5.58786">
        <ele>651</ele>
        <time>2017-12-15T21:33:38Z</time>
      </trkpt>
      <trkpt lat="44.96067" lon="5.58761">
        <ele>655</ele>
        <time>2017-12-15T21:33:45Z</time>
      </trkpt>
      <trkpt lat="44.96084" lon="5.58754">
        <ele>660</ele>
        <time>2017-12-15T21:33:52Z</time>
      </trkpt>
      <trkpt lat="44.96093" lon="5.58753">
        <ele>663</ele>
        <time>2017-12-15T21:34:04Z</time>
      </trkpt>
      <trkpt lat="44.96101" lon="5.58758">
        <ele>665</ele>
        <time>2017-12-15T21:34:16Z</time>
      </trkpt>
      <trkpt lat="44.96108" lon="5.58767">
        <ele>667</ele>
        <time>2017-12-15T21:34:19Z</time>
      </trkpt>
      <trkpt lat="44.96113" lon="5.58781">
        <ele>667</ele>
        <time>2017-12-15T21:34:36Z</time>
      </trkpt>
      <trkpt lat="44.96117" lon="5.58816">
        <ele>666</ele>
        <time>2017-12-15T21:34:41Z</time>
      </trkpt>
      <trkpt lat="44.96118" lon="5.58857">
        <ele>664</ele>
        <time>2017-12-15T21:34:57Z</time>
      </trkpt>
      <trkpt lat="44.96119" lon="5.58868">
        <ele>665</ele>
        <time>2017-12-15T21:35:03Z</time>
      </trkpt>
      <trkpt lat="44.96122" lon="5.58873">
        <ele>665</ele>
        <time>2017-12-15T21:35:06Z</time>
      </trkpt>
      <trkpt lat="44.96124" lon="5.58874">
        <ele>666</ele>
        <time>2017-12-15T21:35:26Z</time>
      </trkpt>
      <trkpt lat="44.96128" lon="5.58872">
        <ele>666</ele>
        <time>2017-12-15T21:35:29Z</time>
      </trkpt>
      <trkpt lat="44.96133" lon="5.58863">
        <ele>667</ele>
        <time>2017-12-15T21:35:35Z</time>
      </trkpt>
      <trkpt lat="44.96136" lon="5.58849">
        <ele>668</ele>
        <time>2017-12-15T21:35:53Z</time>
      </trkpt>
      <trkpt lat="44.96136" lon="5.58818">
        <ele>670</ele>
        <time>2017-12-15T21:36:12Z</time>
      </trkpt>
      <trkpt lat="44.96132" lon="5.58785">
        <ele>671</ele>
        <time>2017-12-15T21:36:25Z</time>
      </trkpt>
      <trkpt lat="44.9612" lon="5.58744">
        <ele>676</ele>
        <time>2017-12-15T21:36:43Z</time>
      </trkpt>
      <trkpt lat="44.9612" lon="5.58719">
        <ele>678</ele>
        <time>2017-12-15T21:36:48Z</time>
      </trkpt>
      <trkpt lat="44.9612" lon="5.58687">
        <ele>680</ele>
        <time>2017-12-15T21:36:55Z</time>
      </trkpt>
      <trkpt lat="44.96117" lon="5.58658">
        <ele>689</ele>
        <time>2017-12-15T21:37:06Z</time>
      </trkpt>
      <trkpt lat="44.96112" lon="5.58613">
        <ele>692</ele>
        <time>2017-12-15T21:37:14Z</time>
      </trkpt>
      <trkpt lat="44.96115" lon="5.58607">
        <ele>693</ele>
        <time>2017-12-15T21:37:23Z</time>
      </trkpt>
      <trkpt lat="44.96118" lon="5.58605">
        <ele>694</ele>
        <time>2017-12-15T21:37:25Z</time>
      </trkpt>
      <trkpt lat="44.96124" lon="5.58607">
        <ele>696</ele>
        <time>2017-12-15T21:37:44Z</time>
      </trkpt>
      <trkpt lat="44.96125" lon="5.5861">
        <ele>696</ele>
        <time>2017-12-15T21:37:47Z</time>
      </trkpt>
      <trkpt lat="44.96131" lon="5.58638">
        <ele>695</ele>
        <time>2017-12-15T21:37:53Z</time>
      </trkpt>
      <trkpt lat="44.96137" lon="5.58661">
        <ele>696</ele>
        <time>2017-12-15T21:37:55Z</time>
      </trkpt>
      <trkpt lat="44.96149" lon="5.58695">
        <ele>687</ele>
        <time>2017-12-15T21:38:15Z</time>
      </trkpt>
      <trkpt lat="44.96158" lon="5.58717">
        <ele>685</ele>
        <time>2017-12-15T21:38:19Z</time>
      </trkpt>
      <trkpt lat="44.96175" lon="5.58742">
        <ele>701</ele>
        <time>2017-12-15T21:38:34Z</time>
      </trkpt>
      <trkpt lat="44.96187" lon="5.5876">
        <ele>700</ele>
        <time>2017-12-15T21:38:45Z</time>
      </trkpt>
      <trkpt lat="44.96193" lon="5.58773">
        <ele>703</ele>
        <time>2017-12-15T21:39:02Z</time>
      </trkpt>
      <trkpt lat="44.96203" lon="5.58812">
        <ele>703</ele>
        <time>2017-12-15T21:39:19Z</time>
      </trkpt>
      <trkpt lat="44.96222" lon="5.58864">
        <ele>702</ele>
        <time>2017-12-15T21:39:22Z</time>
      </trkpt>
      <trkpt lat="44.96234" lon="5.589">
        <ele>706</ele>
        <time>2017-12-15T21:39:38Z</time>
      </trkpt>
      <trkpt lat="44.96238" lon="5.58908">
        <ele>708</ele>
        <time>2017-12-15T21:39:44Z</time>
      </trkpt>
      <trkpt lat="44.96245" lon="5.58913">
        <ele>712</ele>
        <time>2017-12-15T21:39:48Z</time>
      </trkpt>
      <trkpt lat="44.96247" lon="5.5896">
        <ele>710</ele>
        <time>2017-12-15T21:39:57Z</time>
      </trkpt>
      <trkpt lat="44.96236" lon="5.59036">
        <ele>719</ele>
        <time>2017-12-15T21:40:11Z</time>
      </trkpt>
      <trkpt lat="44.9623" lon="5.59078">
        <ele>724</ele>
        <time>2017-12-15T21:40:28Z</time>
      </trkpt>
      <trkpt lat="44.96227" lon="5.59127">
        <ele>729</ele>
        <time>2017-12-15T21:40:36Z</time>
      </trkpt>
      <trkpt lat="44.96219" lon="5.59162">
        <ele>730</ele>
        <time>2017-12-15T21:40:46Z</time>
      </trkpt>
      <trkpt lat="44.96204" lon="5.59187">
        <ele>733</ele>
        <time>2017-12-15T21:40:48Z</time>
      </trkpt>
      <trkpt lat="44.96195" lon="5.59203">
        <ele>732</ele>
        <time>2017-12-15T21:41:03Z</time>
      </trkpt>
      <trkpt lat="44.96189" lon="5.59224">
        <ele>732</ele>
        <time>2017-12-15T21:41:07Z</time>
      </trkpt>
      <trkpt lat="44.96186" lon="5.59256">
        <ele>734</ele>
        <time>2017-12-15T21:41:26Z</time>
      </trkpt>
      <trkpt lat="44.96187" lon="5.59279">
        <ele>737</ele>
        <time>2017-12-15T21:41:31Z</time>
      </trkpt>
      <trkpt lat="44.96191" lon="5.59337">
        <ele>737</ele>
        <time>2017-12-15T21:41:35Z</time>
      </trkpt>
      <trkpt lat="44.96194" lon="5.59383">
        <ele>740</ele>
        <time>2017-12-15T21:41:39Z</time>
      </trkpt>
      <trkpt lat="44.96198" lon="5.59425">
        <ele>738</ele>
        <time>2017-12-15T21:41:45Z</time>
      </trkpt>
      <trkpt lat="44.96203" lon="5.59437">
        <ele>739</ele>
        <time>2017-12-15T21:42:03Z</time>
      </trkpt>
      <trkpt lat="44.9621" lon="5.59445">
        <ele>739</ele>
        <time>2017-12-15T21:42:20Z</time>
      </trkpt>
      <trkpt lat="44.96224" lon="5.59452">
        <ele>741</ele>
        <time>2017-12-15T21:42:38Z</time>
      </trkpt>
      <trkpt lat="44.96245" lon="5.5946">
        <ele>742</ele>
        <time>2017-12-15T21:42:42Z</time>
      </trkpt>
      <trkpt lat="44.96267" lon="5.59474">
        <ele>755</ele>
        <time>2017-12-15T21:43:02Z</time>
      </trkpt>
      <trkpt lat="44.96283" lon="5.59489">
        <ele>755</ele>
        <time>2017-12-15T21:43:19Z</time>
      </trkpt>
      <trkpt lat="44.96294" lon="5.59495">
        <ele>757</ele>
        <time>2017-12-15T21:43:35Z</time>
      </trkpt>
      <trkpt lat="44.963" lon="5.59494">
        <ele>758</ele>
        <time>2017-12-15T21:43:42Z</time>
      </trkpt>
      <trkpt lat="44.96303" lon="5.59484">
        <ele>759</ele>
        <time>2017-12-15T21:43:55Z</time>
      </trkpt>
      <trkpt lat="44.96303" lon="5.59479">
        <ele>759</ele>
        <time>2017-12-15T21:44:11Z</time>
      </trkpt>
      <trkpt lat="44.96295" lon="5.59466">
        <ele>760</ele>
        <time>2017-12-15T21:44:20Z</time>
      </trkpt>
      <trkpt lat="44.96283" lon="5.59453">
        <ele>761</ele>
        <time>2017-12-15T21:44:28Z</time>
      </trkpt>
      <trkpt lat="44.96272" lon="5.59437">
        <ele>761</ele>
        <time>2017-12-15T21:44:35Z</time>
      </trkpt>
      <trkpt lat="44.96249" lon="5.59405">
        <ele>753</ele>
        <time>2017-12-15T21:44:48Z</time>
      </trkpt>
      <trkpt lat="44.96239" lon="5.59377">
        <ele>749</ele>
        <time>2017-12-15T21:45:06Z</time>
      </trkpt>
      <trkpt lat="44.96238" lon="5.59356">
        <ele>751</ele>
        <time>2017-12-15T21:45:24Z</time>
      </trkpt>
      <trkpt lat="44.96246" lon="5.59327">
        <ele>758</ele>
        <time>2017-12-15T21:45:38Z</time>
      </trkpt>
      <trkpt lat="44.96253" lon="5.59311">
        <ele>774</ele>
        <time>2017-12-15T21:45:53Z</time>
      </trkpt>
      <trkpt lat="44.96259" lon="5.59308">
        <ele>775</ele>
        <time>2017-12-15T21:46:06Z</time>
      </trkpt>
      <trkpt lat="44.96266" lon="5.5931">
        <ele>776</ele>
        <time>2017-12-15T21:46:19Z</time>
      </trkpt>
      <trkpt lat="44.96268" lon="5.59315">
        <ele>776</ele>
        <time>2017-12-15T21:46:24Z</time>
      </trkpt>
      <trkpt lat="44.96267" lon="5.5934">
        <ele>773</ele>
        <time>2017-12-15T21:46:35Z</time>
      </trkpt>
      <trkpt lat="44.96264" lon="5.59354">
        <ele>774</ele>
        <time>2017-12-15T21:46:37Z</time>
      </trkpt>
      <trkpt lat="44.96264" lon="5.59367">
        <ele>774</ele>
        <time>2017-12-15T21:46:40Z</time>
      </trkpt>
      <trkpt lat="44.96268" lon="5.59378">
        <ele>774</ele>
        <time>2017-12-15T21:46:49Z</time>
      </trkpt>
      <trkpt lat="44.96283" lon="5.59392">
        <ele>776</ele>
        <time>2017-12-15T21:47:09Z</time>
      </trkpt>
      <trkpt lat="44.96309" lon="5.59409">
        <ele>783</ele>
        <time>2017-12-15T21:47:24Z</time>
      </trkpt>
      <trkpt lat="44.96333" lon="5.59424">
        <ele>783</ele>
        <time>2017-12-15T21:47:36Z</time>
      </trkpt>
      <trkpt lat="44.96352" lon="5.59442">
        <ele>783</ele>
        <time>2017-12-15T21:47:47Z</time>
      </trkpt>
      <trkpt lat="44.96364" lon="5.59449">
        <ele>783</ele>
        <time>2017-12-15T21:48:02Z</time>
      </trkpt>
      <trkpt lat="44.96377" lon="5.59452">
        <ele>783</ele>
        <time>2017-12-15T21:48:21Z</time>
      </trkpt>
      <trkpt lat="44.96388" lon="5.59452">
        <ele>784</ele>
        <time>2017-12-15T21:48:37Z</time>
      </trkpt>
      <trkpt lat="44.96401" lon="5.59449">
        <ele>787</ele>
        <time>2017-12-15T21:48:45Z</time>
      </trkpt>
      <trkpt lat="44.9642" lon="5.59446">
        <ele>799</ele>
        <time>2017-12-15T21:48:52Z</time>
      </trkpt>
      <trkpt lat="44.96434" lon="5.59446">
        <ele>800</ele>
        <time>2017-12-15T21:49:12Z</time>
      </trkpt>
      <trkpt lat="44.96446" lon="5.5945">
        <ele>799</ele>
        <time>2017-12-15T21:49:30Z</time>
      </trkpt>
      <trkpt lat="44.96461" lon="5.59458">
        <ele>799</ele>
        <time>2017-12-15T21:49:33Z</time>
      </trkpt>
      <trkpt lat="44.9647" lon="5.59465">
        <ele>799</ele>
        <time>2017-12-15T21:49:46Z</time>
      </trkpt>
      <trkpt lat="44.96484" lon="5.59479">
        <ele>797</ele>
        <time>2017-12-15T21:49:56Z</time>
      </trkpt>
      <trkpt lat="44.9652" lon="5.59541">
        <ele>799</ele>
        <time>2017-12-15T21:50:05Z</time>
      </trkpt>
      <trkpt lat="44.96527" lon="5.59557">
        <ele>798</ele>
        <time>2017-12-15T21:50:21Z</time>
      </trkpt>
      <trkpt lat="44.9653" lon="5.59572">
        <ele>796</ele>
        <time>2017-12-15T21:50:26Z</time>
      </trkpt>
      <trkpt lat="44.96533" lon="5.59601">
        <ele>788</ele>
        <time>2017-12-15T21:50:42Z</time>
      </trkpt>
      <trkpt lat="44.96538" lon="5.5964">
        <ele>788</ele>
        <time>2017-12-15T21:50:57Z</time>
      </trkpt>
      <trkpt lat="44.96549" lon="5.59667">
        <ele>783</ele>
        <time>2017-12-15T21:50:59Z</time>
      </trkpt>
      <trkpt lat="44.96564" lon="5.59683">
        <ele>787</ele>
        <time>2017-12-15T21:51:16Z</time>
      </trkpt>
      <trkpt lat="44.96586" lon="5.59697">
        <ele>807</ele>
        <time>2017-12-15T21:51:21Z</time>
      </trkpt>
      <trkpt lat="44.96607" lon="5.59709">
        <ele>808</ele>
        <time>2017-12-15T21:51:27Z</time>
      </trkpt>
      <trkpt lat="44.9662" lon="5.59723">
        <ele>809</ele>
        <time>2017-12-15T21:51:46Z</time>
      </trkpt>
      <trkpt lat="44.96628" lon="5.59737">
        <ele>810</ele>
        <time>2017-12-15T21:52:01Z</time>
      </trkpt>
      <trkpt lat="44.96633" lon="5.59754">
        <ele>803</ele>
        <time>2017-12-15T21:52:06Z</time>
      </trkpt>
      <trkpt lat="44.96635" lon="5.59774">
        <ele>802</ele>
        <time>2017-12-15T21:52:12Z</time>
      </trkpt>
      <trkpt lat="44.96643" lon="5.59846">
        <ele>800</ele>
        <time>2017-12-15T21:52:15Z</time>
      </trkpt>
      <trkpt lat="44.96655" lon="5.59885">
        <ele>799</ele>
        <time>2017-12-15T21:52:17Z</time>
      </trkpt>
      <trkpt lat="44.9666" lon="5.59903">
        <ele>802</ele>
        <time>2017-12-15T21:52:29Z</time>
      </trkpt>
      <trkpt lat="44.96664" lon="5.59931">
        <ele>803</ele>
        <time>2017-12-15T21:52:36Z</time>
      </trkpt>
      <trkpt lat="44.96678" lon="5.60016">
        <ele>821</ele>
        <time>2017-12-15T21:52:38Z</time>
      </trkpt>
      <trkpt lat="44.96684" lon="5.60053">
        <ele>826</ele>
        <time>2017-12-15T21:52:46Z</time>
      </trkpt>
      <trkpt lat="44.96685" lon="5.60074">
        <ele>824</ele>
        <time>2017-12-15T21:52:55Z</time>
      </trkpt>
      <trkpt lat="44.96681" lon="5.60093">
        <ele>828</ele>
        <time>2017-12-15T21:53:02Z</time>
      </trkpt>
      <trkpt lat="44.96673" lon="5.60116">
        <ele>833</ele>
        <time>2017-12-15T21:53:07Z</time>
      </trkpt>
      <trkpt lat="44.96646" lon="5.60186">
        <ele>826</ele>
        <time>2017-12-15T21:53:19Z</time>
      </trkpt>
      <trkpt lat="44.96636" lon="5.60201">
        <ele>825</ele>
        <time>2017-12-15T21:53:26Z</time>
      </trkpt>
      <trkpt lat="44.96622" lon="5.60216">
        <ele>823</ele>
        <time>2017-12-15T21:53:33Z</time>
      </trkpt>
      <trkpt lat="44.96616" lon="5.60237">
        <ele>823</ele>
        <time>2017-12-15T21:53:49Z</time>
      </trkpt>
      <trkpt lat="44.96612" lon="5.60261">
        <ele>828</ele>
        <time>2017-12-15T21:54:05Z</time>
      </trkpt>
      <trkpt lat="44.9661" lon="5.60288">
        <ele>829</ele>
        <time>2017-12-15T21:54:11Z</time>
      </trkpt>
      <trkpt lat="44.96616" lon="5.60323">
        <ele>830</ele>
        <time>2017-12-15T21:54:14Z</time>
      </trkpt>
      <trkpt lat="44.9663" lon="5.60374">
        <ele>834</ele>
        <time>2017-12-15T21:54:24Z</time>
      </trkpt>
      <trkpt lat="44.96645" lon="5.60418">
        <ele>837</ele>
        <time>2017-12-15T21:54:26Z</time>
      </trkpt>
      <trkpt lat="44.96663" lon="5.60466">
        <ele>836</ele>
        <time>2017-12-15T21:54:38Z</time>
      </trkpt>
      <trkpt lat="44.9668" lon="5.60502">
        <ele>847</ele>
        <time>2017-12-15T21:54:41Z</time>
      </trkpt>
      <trkpt lat="44.96695" lon="5.60531">
        <ele>849</ele>
        <time>2017-12-15T21:54:51Z</time>
      </trkpt>
      <trkpt lat="44.96713" lon="5.60551">
        <ele>851</ele>
        <time>2017-12-15T21:55:09Z</time>
      </trkpt>
      <trkpt lat="44.96728" lon="5.60565">
        <ele>852</ele>
        <time>2017-12-15T21:55:19Z</time>
      </trkpt>
      <trkpt lat="44.96764" lon="5.60602">
        <ele>857</ele>
        <time>2017-12-15T21:55:34Z</time>
      </trkpt>
      <trkpt lat="44.96808" lon="5.60641">
        <ele>858</ele>
        <time>2017-12-15T21:55:36Z</time>
      </trkpt>
      <trkpt lat="44.96868" lon="5.60697">
        <ele>866</ele>
        <time>2017-12-15T21:55:46Z</time>
      </trkpt>
      <trkpt lat="44.9693" lon="5.60756">
        <ele>872</ele>
        <time>2017-12-15T21:55:52Z</time>
      </trkpt>
      <trkpt lat="44.96964" lon="5.60792">
        <ele>875</ele>
        <time>2017-12-15T21:55:56Z</time>
      </trkpt>
      <trkpt lat="44.96984" lon="5.60816">
        <ele>875</ele>
        <time>2017-12-15T21:56:01Z</time>
      </trkpt>
      <trkpt lat="44.9699" lon="5.60826">
        <ele>876</ele>
        <time>2017-12-15T21:56:15Z</time>
      </trkpt>
      <trkpt lat="44.97" lon="5.60844">
        <ele>874</ele>
        <time>2017-12-15T21:56:34Z</time>
      </trkpt>
      <trkpt lat="44.97008" lon="5.60864">
        <ele>882</ele>
        <time>2017-12-15T21:56:48Z</time>
      </trkpt>
      <trkpt lat="44.97015" lon="5.60897">
        <ele>881</ele>
        <time>2017-12-15T21:56:54Z</time>
      </trkpt>
      <trkpt lat="44.9702" lon="5.60934">
        <ele>878</ele>
        <time>2017-12-15T21:57:09Z</time>
      </trkpt>
      <trkpt lat="44.97023" lon="5.60947">
        <ele>879</ele>
        <time>2017-12-15T21:57:24Z</time>
      </trkpt>
      <trkpt lat="44.97027" lon="5.60955">
        <ele>879</ele>
        <time>2017-12-15T21:57:36Z</time>
      </trkpt>
      <trkpt lat="44.97035" lon="5.60962">
        <ele>880</ele>
        <time>2017-12-15T21:57:51Z</time>
      </trkpt>
      <trkpt lat="44.97057" lon="5.60969">
        <ele>881</ele>
        <time>2017-12-15T21:58:01Z</time>
      </trkpt>
      <trkpt lat="44.97087" lon="5.60981">
        <ele>890</ele>
        <time>2017-12-15T21:58:09Z</time>
      </trkpt>
      <trkpt lat="44.9711" lon="5.6101">
        <ele>884</ele>
        <time>2017-12-15T21:58:17Z</time>
      </trkpt>
      <trkpt lat="44.97154" lon="5.61056">
        <ele>887</ele>
        <time>2017-12-15T21:58:28Z</time>
      </trkpt>
      <trkpt lat="44.9717" lon="5.61074">
        <ele>897</ele>
        <time>2017-12-15T21:58:39Z</time>
      </trkpt>
      <trkpt lat="44.97177" lon="5.61088">
        <ele>895</ele>
        <time>2017-12-15T21:58:55Z</time>
      </trkpt>
      <trkpt lat="44.97183" lon="5.61106">
        <ele>898</ele>
        <time>2017-12-15T21:59:03Z</time>
      </trkpt>
      <trkpt lat="44.97189" lon="5.61147">
        <ele>896</ele>
        <time>2017-12-15T21:59:11Z</time>
      </trkpt>
      <trkpt lat="44.97196" lon="5.61176">
        <ele>889</ele>
        <time>2017-12-15T21:59:16Z</time>
      </trkpt>
      <trkpt lat="44.9722" lon="5.61217">
        <ele>890</ele>
        <time>2017-12-15T21:59:26Z</time>
      </trkpt>
      <trkpt lat="44.97285" lon="5.61316">
        <ele>885</ele>
        <time>2017-12-15T21:59:33Z</time>
      </trkpt>
      <trkpt lat="44.97299" lon="5.61326">
        <ele>885</ele>
        <time>2017-12-15T21:59:39Z</time>
      </trkpt>
      <trkpt lat="44.9732" lon="5.61335">
        <ele>878</ele>
        <time>2017-12-15T21:59:43Z</time>
      </trkpt>
      <trkpt lat="44.97323" lon="5.61346">
        <ele>877</ele>
        <time>2017-12-15T21:59:53Z</time>
      </trkpt>
      <trkpt lat="44.97322" lon="5.61354">
        <ele>875</ele>
        <time>2017-12-15T22:00:01Z</time>
      </trkpt>
      <trkpt lat="44.97318" lon="5.61361">
        <ele>873</ele>
        <time>2017-12-15T22:00:15Z</time>
      </trkpt>
      <trkpt lat="44.97312" lon="5.61364">
        <ele>872</ele>
        <time>2017-12-15T22:00:26Z</time>
      </trkpt>
      <trkpt lat="44.97304" lon="5.6136">
        <ele>872</ele>
        <time>2017-12-15T22:00:30Z</time>
      </trkpt>
      <trkpt lat="44.97294" lon="5.61351">
        <ele>872</ele>
        <time>2017-12-15T22:00:49Z</time>
      </trkpt>
      <trkpt lat="44.97279" lon="5.61337">
        <ele>872</ele>
        <time>2017-12-15T22:01:03Z</time>
      </trkpt>
      <trkpt lat="44.97234" lon="5.61316">
        <ele>872</ele>
        <time>2017-12-15T22:01:16Z</time>
      </trkpt>
      <trkpt lat="44.97219" lon="5.61306">
        <ele>872</ele>
        <time>2017-12-15T22:01:32Z</time>
      </trkpt>
      <trkpt lat="44.97199" lon="5.61282">
        <ele>872</ele>
        <time>2017-12-15T22:01:47Z</time>
      </trkpt>
      <trkpt lat="44.97192" lon="5.61278">
        <ele>871</ele>
        <time>2017-12-15T22:02:05Z</time>
      </trkpt>
      <trkpt lat="44.97187" lon="5.61279">
        <ele>871</ele>
        <time>2017-12-15T22:02:08Z</time>
      </trkpt>
      <trkpt lat="44.9718" lon="5.61288">
        <ele>869</ele>
        <time>2017-12-15T22:02:20Z</time>
      </trkpt>
      <trkpt lat="44.9718" lon="5.61293">
        <ele>868</ele>
        <time>2017-12-15T22:02:24Z</time>
      </trkpt>
      <trkpt lat="44.97183" lon="5.61302">
        <ele>867</ele>
        <time>2017-12-15T22:02:41Z</time>
      </trkpt>
      <trkpt lat="44.97191" lon="5.61314">
        <ele>866</ele>
        <time>2017-12-15T22:02:51Z</time>
      </trkpt>
      <trkpt lat="44.97222" lon="5.61346">
        <ele>856</ele>
        <time>2017-12-15T22:03:10Z</time>
      </trkpt>
      <trkpt lat="44.97264" lon="5.61395">
        <ele>863</ele>
        <time>2017-12-15T22:03:23Z</time>
      </trkpt>
      <trkpt lat="44.9729" lon="5.61432">
        <ele>850</ele>
        <time>2017-12-15T22:03:40Z</time>
      </trkpt>
      <trkpt lat="44.97309" lon="5.61463">
        <ele>848</ele>
        <time>2017-12-15T22:03:46Z</time>
      </trkpt>
      <trkpt lat="44.97318" lon="5.61473">
        <ele>847</ele>
        <time>2017-12-15T22:03:55Z</time>
      </trkpt>
      <trkpt lat="44.97328" lon="5.61482">
        <ele>846</ele>
        <time>2017-12-15T22:04:04Z</time>
      </trkpt>
      <trkpt lat="44.97353" lon="5.61496">
        <ele>852</ele>
        <time>2017-12-15T22:04:17Z</time>
      </trkpt>
      <trkpt lat="44.97407" lon="5.61526">
        <ele>844</ele>
        <time>2017-12-15T22:04:22Z</time>
      </trkpt>
      <trkpt lat="44.97424" lon="5.61539">
        <ele>847</ele>
        <time>2017-12-15T22:04:32Z</time>
      </trkpt>
      <trkpt lat="44.97439" lon="5.6155">
        <ele>846</ele>
        <time>2017-12-15T22:04:45Z</time>
      </trkpt>
      <trkpt lat="44.97453" lon="5.61556">
        <ele>846</ele>
        <time>2017-12-15T22:04:57Z</time>
      </trkpt>
      <trkpt lat="44.9746" lon="5.61566">
        <ele>845</ele>
        <time>2017-12-15T22:05:07Z</time>
      </trkpt>
      <trkpt lat="44.9746" lon="5.61574">
        <ele>844</ele>
        <time>2017-12-15T22:05:21Z</time>
      </trkpt>
      <trkpt lat="44.97458" lon="5.61581">
        <ele>844</ele>
        <time>2017-12-15T22:05:23Z</time>
      </trkpt>
      <trkpt lat="44.97452" lon="5.61586">
        <ele>832</ele>
        <time>2017-12-15T22:05:25Z</time>
      </trkpt>
      <trkpt lat="44.97447" lon="5.61587">
        <ele>832</ele>
        <time>2017-12-15T22:05:39Z</time>
      </trkpt>
      <trkpt lat="44.97441" lon="5.61586">
        <ele>832</ele>
        <time>2017-12-15T22:05:59Z</time>
      </trkpt>
      <trkpt lat="44.97418" lon="5.61576">
        <ele>839</ele>
        <time>2017-12-15T22:06:16Z</time>
      </trkpt>
      <trkpt lat="44.97403" lon="5.61571">
        <ele>838</ele>
        <time>2017-12-15T22:06:20Z</time>
      </trkpt>
      <trkpt lat="44.97389" lon="5.61573">
        <ele>838</ele>
        <time>2017-12-15T22:06:22Z</time>
      </trkpt>
      <trkpt lat="44.97375" lon="5.6158">
        <ele>837</ele>
        <time>2017-12-15T22:06:35Z</time>
      </trkpt>
      <trkpt lat="44.97355" lon="5.6161">
        <ele>825</ele>
        <time>2017-12-15T22:06:45Z</time>
      </trkpt>
      <trkpt lat="44.97344" lon="5.61623">
        <ele>823</ele>
        <time>2017-12-15T22:06:58Z</time>
      </trkpt>
      <trkpt lat="44.97332" lon="5.61631">
        <ele>814</ele>
        <time>2017-12-15T22:07:05Z</time>
      </trkpt>
      <trkpt lat="44.97317" lon="5.61635">
        <ele>813</ele>
        <time>2017-12-15T22:07:15Z</time>
      </trkpt>
      <trkpt lat="44.97306" lon="5.61633">
        <ele>812</ele>
        <time>2017-12-15T22:07:32Z</time>
      </trkpt>
      <trkpt lat="44.9728" lon="5.61617">
        <ele>810</ele>
        <time>2017-12-15T22:07:37Z</time>
      </trkpt>
      <trkpt lat="44.97268" lon="5.61614">
        <ele>809</ele>
        <time>2017-12-15T22:07:43Z</time>
      </trkpt>
      <trkpt lat="44.9726" lon="5.61619">
        <ele>808</ele>
        <time>2017-12-15T22:07:58Z</time>
      </trkpt>
      <trkpt lat="44.97251" lon="5.61627">
        <ele>807</ele>
        <time>2017-12-15T22:08:13Z</time>
      </trkpt>
      <trkpt lat="44.97244" lon="5.61646">
        <ele>790</ele>
        <time>2017-12-15T22:08:28Z</time>
      </trkpt>
      <trkpt lat="44.97236" lon="5.61661">
        <ele>791</ele>
        <time>2017-12-15T22:08:33Z</time>
      </trkpt>
      <trkpt lat="44.97231" lon="5.61678">
        <ele>788</ele>
        <time>2017-12-15T22:08:39Z</time>
      </trkpt>
      <trkpt lat="44.97223" lon="5.61722">
        <ele>784</ele>
        <time>2017-12-15T22:08:43Z</time>
      </trkpt>
      <trkpt lat="44.97222" lon="5.6174">
        <ele>785</ele>
        <time>2017-12-15T22:08:56Z</time>
      </trkpt>
      <trkpt lat="44.97226" lon="5.61759">
        <ele>785</ele>
        <time>2017-12-15T22:09:10Z</time>
      </trkpt>
      <trkpt lat="44.97233" lon="5.61772">
        <ele>785</ele>
        <time>2017-12-15T22:09:22Z</time>
      </trkpt>
      <trkpt lat="44.97244" lon="5.61781">
        <ele>785</ele>
        <time>2017-12-15T22:09:40Z</time>
      </trkpt>
      <trkpt lat="44.9726" lon="5.61782">
        <ele>793</ele>
        <time>2017-12-15T22:09:50Z</time>
      </trkpt>
      <trkpt lat="44.97282" lon="5.61775">
        <ele>793</ele>
        <time>2017-12-15T22:10:07Z</time>
      </trkpt>
      <trkpt lat="44.97319" lon="5.61768">
        <ele>794</ele>
        <time>2017-12-15T22:10:27Z</time>
      </trkpt>
      <trkpt lat="44.97354" lon="5.61765">
        <ele>794</ele>
        <time>2017-12-15T22:10:44Z</time>
      </trkpt>
      <trkpt lat="44.97362" lon="5.61765">
        <ele>793</ele>
        <time>2017-12-15T22:10:51Z</time>
      </trkpt>
      <trkpt lat="44.97368" lon="5.61769">
        <ele>793</ele>
        <time>2017-12-15T22:11:02Z</time>
      </trkpt>
      <trkpt lat="44.97371" lon="5.61773">
        <ele>793</ele>
        <time>2017-12-15T22:11:11Z</time>
      </trkpt>
      <trkpt lat="44.97372" lon="5.61782">
        <ele>792</ele>
        <time>2017-12-15T22:11:17Z</time>
      </trkpt>
      <trkpt lat="44.97368" lon="5.61795">
        <ele>791</ele>
        <time>2017-12-15T22:11:29Z</time>
      </trkpt>
      <trkpt lat="44.97356" lon="5.61803">
        <ele>791</ele>
        <time>2017-12-15T22:11:49Z</time>
      </trkpt>
      <trkpt lat="44.97326" lon="5.61816">
        <ele>790</ele>
        <time>2017-12-15T22:11:54Z</time>
      </trkpt>
      <trkpt lat="44.97311" lon="5.61823">
        <ele>790</ele>
        <time>2017-12-15T22:11:59Z</time>
      </trkpt>
      <trkpt lat="44.97296" lon="5.61837">
        <ele>784</ele>
        <time>2017-12-15T22:12:11Z</time>
      </trkpt>
      <trkpt lat="44.9727" lon="5.61868">
        <ele>782</ele>
        <time>2017-12-15T22:12:21Z</time>
      </trkpt>
      <trkpt lat="44.97244" lon="5.61904">
        <ele>773</ele>
        <time>2017-12-15T22:12:36Z</time>
      </trkpt>
      <trkpt lat="44.97234" lon="5.61914">
        <ele>773</ele>
        <time>2017-12-15T22:12:38Z</time>
      </trkpt>
      <trkpt lat="44.97219" lon="5.61922">
        <ele>765</ele>
        <time>2017-12-15T22:12:49Z</time>
      </trkpt>
      <trkpt lat="44.97211" lon="5.61929">
        <ele>764</ele>
        <time>2017-12-15T22:12:54Z</time>
      </trkpt>
      <trkpt lat="44.97208" lon="5.61937">
        <ele>764</ele>
        <time>2017-12-15T22:13:09Z</time>
      </trkpt>
      <trkpt lat="44.97211" lon="5.61948">
        <ele>763</ele>
        <time>2017-12-15T22:13:23Z</time>
      </trkpt>
      <trkpt lat="44.97218" lon="5.61952">
        <ele>764</ele>
        <time>2017-12-15T22:13:41Z</time>
      </trkpt>
      <trkpt lat="44.97238" lon="5.61949">
        <ele>765</ele>
        <time>2017-12-15T22:13:53Z</time>
      </trkpt>
      <trkpt lat="44.97256" lon="5.61948">
        <ele>770</ele>
        <time>2017-12-15T22:14:05Z</time>
      </trkpt>
      <trkpt lat="44.97269" lon="5.61949">
        <ele>770</ele>
        <time>2017-12-15T22:14:13Z</time>
      </trkpt>
      <trkpt lat="44.97283" lon="5.61954">
        <ele>770</ele>
        <time>2017-12-15T22:14:27Z</time>
      </trkpt>
      <trkpt lat="44.97299" lon="5.61966">
        <ele>769</ele>
        <time>2017-12-15T22:14:47Z</time>
      </trkpt>
      <trkpt lat="44.97309" lon="5.6198">
        <ele>768</ele>
        <time>2017-12-15T22:15:05Z</time>
      </trkpt>
      <trkpt lat="44.97315" lon="5.61997">
        <ele>767</ele>
        <time>2017-12-15T22:15:09Z</time>
      </trkpt>
      <trkpt lat="44.97322" lon="5.62021">
        <ele>758</ele>
        <time>2017-12-15T22:15:16Z</time>
      </trkpt>
      <trkpt lat="44.97332" lon="5.62036">
        <ele>756</ele>
        <time>2017-12-15T22:15:36Z</time>
      </trkpt>
      <trkpt lat="44.97355" lon="5.62052">
        <ele>757</ele>
        <time>2017-12-15T22:15:38Z</time>
      </trkpt>
      <trkpt lat="44.97403" lon="5.62069">
        <ele>757</ele>
        <time>2017-12-15T22:15:55Z</time>
      </trkpt>
      <trkpt lat="44.97428" lon="5.62076">
        <ele>758</ele>
        <time>2017-12-15T22:15:59Z</time>
      </trkpt>
      <trkpt lat="44.97451" lon="5.62087">
        <ele>749</ele>
        <time>2017-12-15T22:16:08Z</time>
      </trkpt>
      <trkpt lat="44.97474" lon="5.62094">
        <ele>749</ele>
        <time>2017-12-15T22:16:10Z</time>
      </trkpt>
      <trkpt lat="44.97497" lon="5.62098">
        <ele>750</ele>
        <time>2017-12-15T22:16:22Z</time>
      </trkpt>
      <trkpt lat="44.97552" lon="5.62107">
        <ele>743</ele>
        <time>2017-12-15T22:16:24Z</time>
      </trkpt>
      <trkpt lat="44.97576" lon="5.62112">
        <ele>743</ele>
        <time>2017-12-15T22:16:29Z</time>
      </trkpt>
      <trkpt lat="44.9759" lon="5.62114">
        <ele>740</ele>
        <time>2017-12-15T22:16:33Z</time>
      </trkpt>
      <trkpt lat="44.97608" lon="5.6212">
        <ele>739</ele>
        <time>2017-12-15T22:16:39Z</time>
      </trkpt>
      <trkpt lat="44.97657" lon="5.62154">
        <ele>735</ele>
        <time>2017-12-15T22:16:55Z</time>
      </trkpt>
      <trkpt lat="44.97667" lon="5.62161">
        <ele>732</ele>
        <time>2017-12-15T22:16:57Z</time>
      </trkpt>
      <trkpt lat="44.97686" lon="5.62167">
        <ele>727</ele>
        <time>2017-12-15T22:17:16Z</time>
      </trkpt>
      <trkpt lat="44.97719" lon="5.62173">
        <ele>726</ele>
        <time>2017-12-15T22:17:35Z</time>
      </trkpt>
      <trkpt lat="44.97773" lon="5.62176">
        <ele>724</ele>
        <time>2017-12-15T22:17:51Z</time>
      </trkpt>
      <trkpt lat="44.97881" lon="5.62182">
        <ele>722</ele>
        <time>2017-12-15T22:18:01Z</time>
      </trkpt>
      <trkpt lat="44.97933" lon="5.62183">
        <ele>724</ele>
        <time>2017-12-15T22:18:20Z</time>
      </trkpt>
      <trkpt lat="44.97948" lon="5.62187">
        <ele>723</ele>
        <time>2017-12-15T22:18:25Z</time>
      </trkpt>
      <trkpt lat="44.97963" lon="5.62196">
        <ele>723</ele>
        <time>2017-12-15T22:18:41Z</time>
      </trkpt>
      <trkpt lat="44.98016" lon="5.62246">
        <ele>722</ele>
        <time>2017-12-15T22:18:43Z</time>
      </trkpt>
      <trkpt lat="44.98085" lon="5.62294">
        <ele>717</ele>
        <time>2017-12-15T22:18:48Z</time>
      </trkpt>
      <trkpt lat="44.98102" lon="5.62302">
        <ele>717</ele>
        <time>2017-12-15T22:19:02Z</time>
      </trkpt>
      <trkpt lat="44.98118" lon="5.62305">
        <ele>717</ele>
        <time>2017-12-15T22:19:13Z</time>
      </trkpt>
      <trkpt lat="44.98152" lon="5.62305">
        <ele>717</ele>
        <time>2017-12-15T22:19:32Z</time>
      </trkpt>
      <trkpt lat="44.98174" lon="5.62305">
        <ele>716</ele>
        <time>2017-12-15T22:19:50Z</time>
      </trkpt>
      <trkpt lat="44.98192" lon="5.62304">
        <ele>716</ele>
        <time>2017-12-15T22:19:56Z</time>
      </trkpt>
      <trkpt lat="44.98211" lon="5.62305">
        <ele>715</ele>
        <time>2017-12-15T22:20:10Z</time>
      </trkpt>
      <trkpt lat="44.98239" lon="5.62301">
        <ele>715</ele>
        <time>2017-12-15T22:20:30Z</time>
      </trkpt>
      <trkpt lat="44.98293" lon="5.62293">
        <ele>711</ele>
        <time>2017-12-15T22:20:42Z</time>
      </trkpt>
      <trkpt lat="44.9835" lon="5.6228">
        <ele>708</ele>
        <time>2017-12-15T22:20:47Z</time>
      </trkpt>
      <trkpt lat="44.98378" lon="5.62276">
        <ele>708</ele>
        <time>2017-12-15T22:21:07Z</time>
      </trkpt>
      <trkpt lat="44.98406" lon="5.62273">
        <ele>708</ele>
        <time>2017-12-15T22:21:24Z</time>
      </trkpt>
      <trkpt lat="44.98413" lon="5.62276">
        <ele>708</ele>
        <time>2017-12-15T22:21:32Z</time>
      </trkpt>
      <trkpt lat="44.98424" lon="5.62284">
        <ele>705</ele>
        <time>2017-12-15T22:21:36Z</time>
      </trkpt>
      <trkpt lat="44.98441" lon="5.62299">
        <ele>704</ele>
        <time>2017-12-15T22:21:44Z</time>
      </trkpt>
      <trkpt lat="44.98455" lon="5.62313">
        <ele>703</ele>
        <time>2017-12-15T22:21:57Z</time>
      </trkpt>
      <trkpt lat="44.98463" lon="5.62317">
        <ele>702</ele>
        <time>2017-12-15T22:22:14Z</time>
      </trkpt>
      <trkpt lat="44.98471" lon="5.62318">
        <ele>702</ele>
        <time>2017-12-15T22:22:32Z</time>
      </trkpt>
      <trkpt lat="44.98495" lon="5.62313">
        <ele>701</ele>
        <time>2017-12-15T22:22:36Z</time>
      </trkpt>
      <trkpt lat="44.98578" lon="5.62288">
        <ele>699</ele>
        <time>2017-12-15T22:22:45Z</time>
      </trkpt>
      <trkpt lat="44.98602" lon="5.62281">
        <ele>696</ele>
        <time>2017-12-15T22:22:52Z</time>
      </trkpt>
      <trkpt lat="44.98633" lon="5.6227">
        <ele>694</ele>
        <time>2017-12-15T22:22:59Z</time>
      </trkpt>
      <trkpt lat="44.98654" lon="5.62258">
        <ele>694</ele>
        <time>2017-12-15T22:23:09Z</time>
      </trkpt>
      <trkpt lat="44.98674" lon="5.62242">
        <ele>693</ele>
        <time>2017-12-15T22:23:23Z</time>
      </trkpt>
      <trkpt lat="44.98684" lon="5.62223">
        <ele>692</ele>
        <time>2017-12-15T22:23:43Z</time>
      </trkpt>
      <trkpt lat="44.98688" lon="5.62195">
        <ele>693</ele>
        <time>2017-12-15T22:23:55Z</time>
      </trkpt>
      <trkpt lat="44.98686" lon="5.62143">
        <ele>700</ele>
        <time>2017-12-15T22:24:08Z</time>
      </trkpt>
      <trkpt lat="44.98688" lon="5.6212">
        <ele>701</ele>
        <time>2017-12-15T22:24:22Z</time>
      </trkpt>
      <trkpt lat="44.98693" lon="5.62098">
        <ele>702</ele>
        <time>2017-12-15T22:24:27Z</time>
      </trkpt>
      <trkpt lat="44.98701" lon="5.62091">
        <ele>702</ele>
        <time>2017-12-15T22:24:41Z</time>
      </trkpt>
      <trkpt lat="44.98707" lon="5.62089">
        <ele>701</ele>
        <time>2017-12-15T22:24:44Z</time>
      </trkpt>
      <trkpt lat="44.98715" lon="5.62091">
        <ele>701</ele>
        <time>2017-12-15T22:24:51Z</time>
      </trkpt>
      <trkpt lat="44.98729" lon="5.62095">
        <ele>700</ele>
        <time>2017-12-15T22:25:07Z</time>
      </trkpt>
      <trkpt lat="44.9874" lon="5.6211">
        <ele>700</ele>
        <time>2017-12-15T22:25:11Z</time>
      </trkpt>
      <trkpt lat="44.9876" lon="5.6214">
        <ele>697</ele>
        <time>2017-12-15T22:25:16Z</time>
      </trkpt>
      <trkpt lat="44.98777" lon="5.62157">
        <ele>696</ele>
        <time>2017-12-15T22:25:30Z</time>
      </trkpt>
      <trkpt lat="44.98792" lon="5.62176">
        <ele>689</ele>
        <time>2017-12-15T22:25:33Z</time>
      </trkpt>
      <trkpt lat="44.98804" lon="5.62196">
        <ele>688</ele>
        <time>2017-12-15T22:25:46Z</time>
      </trkpt>
      <trkpt lat="44.98809" lon="5.62206">
        <ele>687</ele>
        <time>2017-12-15T22:25:51Z</time>
      </trkpt>
      <trkpt lat="44.98817" lon="5.6222">
        <ele>685</ele>
        <time>2017-12-15T22:26:08Z</time>
      </trkpt>
      <trkpt lat="44.98822" lon="5.62225">
        <ele>684</ele>
        <time>2017-12-15T22:26:10Z</time>
      </trkpt>
      <trkpt lat="44.98834" lon="5.62231">
        <ele>683</ele>
        <time>2017-12-15T22:26:24Z</time>
      </trkpt>
      <trkpt lat="44.98847" lon="5.62231">
        <ele>684</ele>
        <time>2017-12-15T22:26:40Z</time>
      </trkpt>
      <trkpt lat="44.98856" lon="5.62225">
        <ele>685</ele>
        <time>2017-12-15T22:26:53Z</time>
      </trkpt>
      <trkpt lat="44.98864" lon="5.62215">
        <ele>686</ele>
        <time>2017-12-15T22:26:57Z</time>
      </trkpt>
      <trkpt lat="44.98879" lon="5.62186">
        <ele>688</ele>
        <time>2017-12-15T22:27:11Z</time>
      </trkpt>
      <trkpt lat="44.98889" lon="5.62175">
        <ele>689</ele>
        <time>2017-12-15T22:27:23Z</time>
      </trkpt>
      <trkpt lat="44.98896" lon="5.62172">
        <ele>690</ele>
        <time>2017-12-15T22:27:34Z</time>
      </trkpt>
      <trkpt lat="44.98903" lon="5.62174">
        <ele>691</ele>
        <time>2017-12-15T22:27:48Z</time>
      </trkpt>
      <trkpt lat="44.98915" lon="5.62183">
        <ele>690</ele>
        <time>2017-12-15T22:27:57Z</time>
      </trkpt>
      <trkpt lat="44.98919" lon="5.62189">
        <ele>692</ele>
        <time>2017-12-15T22:28:16Z</time>
      </trkpt>
      <trkpt lat="44.98929" lon="5.62216">
        <ele>689</ele>
        <time>2017-12-15T22:28:22Z</time>
      </trkpt>
      <trkpt lat="44.98939" lon="5.62253">
        <ele>679</ele>
        <time>2017-12-15T22:28:35Z</time>
      </trkpt>
      <trkpt lat="44.98948" lon="5.62276">
        <ele>678</ele>
        <time>2017-12-15T22:28:44Z</time>
      </trkpt>
      <trkpt lat="44.98955" lon="5.62285">
        <ele>678</ele>
        <time>2017-12-15T22:28:57Z</time>
      </trkpt>
      <trkpt lat="44.98965" lon="5.62294">
        <ele>678</ele>
        <time>2017-12-15T22:29:01Z</time>
      </trkpt>
      <trkpt lat="44.99007" lon="5.62322">
        <ele>679</ele>
        <time>2017-12-15T22:29:11Z</time>
      </trkpt>
      <trkpt lat="44.99055" lon="5.62358">
        <ele>673</ele>
        <time>2017-12-15T22:29:23Z</time>
      </trkpt>
      <trkpt lat="44.99101" lon="5.62406">
        <ele>673</ele>
        <time>2017-12-15T22:29:38Z</time>
      </trkpt>
      <trkpt lat="44.99156" lon="5.62465">
        <ele>668</ele>
        <time>2017-12-15T22:29:58Z</time>
      </trkpt>
      <trkpt lat="44.99268" lon="5.62557">
        <ele>662</ele>
        <time>2017-12-15T22:30:17Z</time>
      </trkpt>
      <trkpt lat="44.99349" lon="5.62622">
        <ele>657</ele>
        <time>2017-12-15T22:30:25Z</time>
      </trkpt>
      <trkpt lat="44.99411" lon="5.62658">
        <ele>654</ele>
        <time>2017-12-15T22:30:40Z</time>
      </trkpt>
      <trkpt lat="44.99463" lon="5.62688">
        <ele>650</ele>
        <time>2017-12-15T22:30:48Z</time>
      </trkpt>
      <trkpt lat="44.99514" lon="5.62715">
        <ele>649</ele>
        <time>2017-12-15T22:30:55Z</time>
      </trkpt>
      <trkpt lat="44.99652" lon="5.62766">
        <ele>643</ele>
        <time>2017-12-15T22:31:12Z</time>
      </trkpt>
      <trkpt lat="44.99684" lon="5.62781">
        <ele>641</ele>
        <time>2017-12-15T22:31:17Z</time>
      </trkpt>
      <trkpt lat="44.99698" lon="5.62792">
        <ele>640</ele>
        <time>2017-12-15T22:31:22Z</time>
      </trkpt>
      <trkpt lat="44.99716" lon="5.6282">
        <ele>639</ele>
        <time>2017-12-15T22:31:26Z</time>
      </trkpt>
      <trkpt lat="44.99755" lon="5.62888">
        <ele>634</ele>
        <time>2017-12-15T22:31:37Z</time>
      </trkpt>
      <trkpt lat="44.99776" lon="5.62911">
        <ele>634</ele>
        <time>2017-12-15T22:31:49Z</time>
      </trkpt>
      <trkpt lat="44.99796" lon="5.62927">
        <ele>630</ele>
        <time>2017-12-15T22:32:02Z</time>
      </trkpt>
      <trkpt lat="44.99834" lon="5.62944">
        <ele>629</ele>
        <time>2017-12-15T22:32:12Z</time>
      </trkpt>
      <trkpt lat="44.99882" lon="5.62956">
        <ele>627</ele>
        <time>2017-12-15T22:32:19Z</time>
      </trkpt>
      <trkpt lat="44.99899" lon="5.62957">
        <ele>627</ele>
        <time>2017-12-15T22:32:36Z</time>
      </trkpt>
      <trkpt lat="44.99917" lon="5.62954">
        <ele>625</ele>
        <time>2017-12-15T22:32:48Z</time>
      </trkpt>
      <trkpt lat="44.99959" lon="5.62945">
        <ele>624</ele>
        <time>2017-12-15T22:33:08Z</time>
      </trkpt>
      <trkpt lat="44.99992" lon="5.62939">
        <ele>623</ele>
        <time>2017-12-15T22:33:26Z</time>
      </trkpt>
      <trkpt lat="44.99997" lon="5.62924">
        <ele>622</ele>
        <time>2017-12-15T22:33:39Z</time>
      </trkpt>
      <trkpt lat="45.00015" lon="5.62885">
        <ele>623</ele>
        <time>2017-12-15T22:33:45Z</time>
      </trkpt>
      <trkpt lat="45.00045" lon="5.62793">
        <ele>629</ele>
        <time>2017-12-15T22:33:55Z</time>
      </trkpt>
      <trkpt lat="45.00069" lon="5.62715">
        <ele>634</ele>
        <time>2017-12-15T22:34:09Z</time>
      </trkpt>
      <trkpt lat="45.00115" lon="5.62553">
        <ele>644</ele>
        <time>2017-12-15T22:34:16Z</time>
      </trkpt>
      <trkpt lat="45.00127" lon="5.62519">
        <ele>645</ele>
        <time>2017-12-15T22:34:24Z</time>
      </trkpt>
      <trkpt lat="45.00132" lon="5.62511">
        <ele>646</ele>
        <time>2017-12-15T22:34:32Z</time>
      </trkpt>
      <trkpt lat="45.00141" lon="5.62501">
        <ele>646</ele>
        <time>2017-12-15T22:34:48Z</time>
      </trkpt>
      <trkpt lat="45.00153" lon="5.62494">
        <ele>651</ele>
        <time>2017-12-15T22:35:03Z</time>
      </trkpt>
      <trkpt lat="45.00181" lon="5.62482">
        <ele>653</ele>
        <time>2017-12-15T22:35:11Z</time>
      </trkpt>
      <trkpt lat="45.00285" lon="5.6244">
        <ele>661</ele>
        <time>2017-12-15T22:35:16Z</time>
      </trkpt>
      <trkpt lat="45.00318" lon="5.62433">
        <ele>665</ele>
        <time>2017-12-15T22:35:20Z</time>
      </trkpt>
      <trkpt lat="45.00341" lon="5.62429">
        <ele>671</ele>
        <time>2017-12-15T22:35:24Z</time>
      </trkpt>
      <trkpt lat="45.00364" lon="5.6243">
        <ele>671</ele>
        <time>2017-12-15T22:35:33Z</time>
      </trkpt>
      <trkpt lat="45.004" lon="5.62442">
        <ele>673</ele>
        <time>2017-12-15T22:35:44Z</time>
      </trkpt>
      <trkpt lat="45.00421" lon="5.62463">
        <ele>674</ele>
        <time>2017-12-15T22:35:53Z</time>
      </trkpt>
      <trkpt lat="45.00433" lon="5.62477">
        <ele>672</ele>
        <time>2017-12-15T22:36:06Z</time>
      </trkpt>
      <trkpt lat="45.00443" lon="5.62479">
        <ele>672</ele>
        <time>2017-12-15T22:36:18Z</time>
      </trkpt>
      <trkpt lat="45.00447" lon="5.62475">
        <ele>673</ele>
        <time>2017-12-15T22:36:37Z</time>
      </trkpt>
      <trkpt lat="45.00451" lon="5.62469">
        <ele>674</ele>
        <time>2017-12-15T22:36:46Z</time>
      </trkpt>
      <trkpt lat="45.0045" lon="5.62455">
        <ele>676</ele>
        <time>2017-12-15T22:36:59Z</time>
      </trkpt>
      <trkpt lat="45.0044" lon="5.62442">
        <ele>678</ele>
        <time>2017-12-15T22:37:10Z</time>
      </trkpt>
      <trkpt lat="45.00414" lon="5.6242">
        <ele>683</ele>
        <time>2017-12-15T22:37:23Z</time>
      </trkpt>
      <trkpt lat="45.00386" lon="5.62397">
        <ele>694</ele>
        <time>2017-12-15T22:37:43Z</time>
      </trkpt>
      <trkpt lat="45.00347" lon="5.62375">
        <ele>697</ele>
        <time>2017-12-15T22:37:51Z</time>
      </trkpt>
      <trkpt lat="45.00255" lon="5.62341">
        <ele>699</ele>
        <time>2017-12-15T22:38:06Z</time>
      </trkpt>
      <trkpt lat="45.00213" lon="5.62321">
        <ele>710</ele>
        <time>2017-12-15T22:38:16Z</time>
      </trkpt>
      <trkpt lat="45.00174" lon="5.62298">
        <ele>712</ele>
        <time>2017-12-15T22:38:31Z</time>
      </trkpt>
      <trkpt lat="45.00089" lon="5.62235">
        <ele>724</ele>
        <time>2017-12-15T22:38:33Z</time>
      </trkpt>
      <trkpt lat="45.00061" lon="5.62221">
        <ele>720</ele>
        <time>2017-12-15T22:38:37Z</time>
      </trkpt>
      <trkpt lat="45.00033" lon="5.62212">
        <ele>721</ele>
        <time>2017-12-15T22:38:46Z</time>
      </trkpt>
      <trkpt lat="45.00005" lon="5.62204">
        <ele>721</ele>
        <time>2017-12-15T22:38:48Z</time>
      </trkpt>
      <trkpt lat="45" lon="5.622">
        <ele>720</ele>
        <time>2017-12-15T22:38:52Z</time>
      </trkpt>
      <trkpt lat="44.99996" lon="5.62191">
        <ele>722</ele>
        <time>2017-12-15T22:39:06Z</time>
      </trkpt>
      <trkpt lat="44.99997" lon="5.62185">
        <ele>724</ele>
        <time>2017-12-15T22:39:12Z</time>
      </trkpt>
      <trkpt lat="44.99999" lon="5.6218">
        <ele>726</ele>
        <time>2017-12-15T22:39:20Z</time>
      </trkpt>
      <trkpt lat="45.00004" lon="5.62177">
        <ele>728</ele>
        <time>2017-12-15T22:39:32Z</time>
      </trkpt>
      <trkpt lat="45.00009" lon="5.62177">
        <ele>728</ele>
        <time>2017-12-15T22:39:42Z</time>
      </trkpt>
      <trkpt lat="45.00014" lon="5.62179">
        <ele>727</ele>
        <time>2017-12-15T22:39:44Z</time>
      </trkpt>
      <trkpt lat="45.00032" lon="5.62192">
        <ele>724</ele>
        <time>2017-12-15T22:39:50Z</time>
      </trkpt>
      <trkpt lat="45.00044" lon="5.62197">
        <ele>724</ele>
        <time>2017-12-15T22:39:54Z</time>
      </trkpt>
      <trkpt lat="45.00083" lon="5.62198">
        <ele>727</ele>
        <time>2017-12-15T22:39:58Z</time>
      </trkpt>
      <trkpt lat="45.00094" lon="5.62199">
        <ele>737</ele>
        <time>2017-12-15T22:40:16Z</time>
      </trkpt>
      <trkpt lat="45.00108" lon="5.62206">
        <ele>736</ele>
        <time>2017-12-15T22:40:31Z</time>
      </trkpt>
      <trkpt lat="45.00144" lon="5.62223">
        <ele>737</ele>
        <time>2017-12-15T22:40:47Z</time>
      </trkpt>
      <trkpt lat="45.00178" lon="5.62234">
        <ele>743</ele>
        <time>2017-12-15T22:40:51Z</time>
      </trkpt>
      <trkpt lat="45.00203" lon="5.62242">
        <ele>746</ele>
        <time>2017-12-15T22:40:59Z</time>
      </trkpt>
      <trkpt lat="45.00236" lon="5.62248">
        <ele>744</ele>
        <time>2017-12-15T22:41:08Z</time>
      </trkpt>
      <trkpt lat="45.00327" lon="5.62252">
        <ele>740</ele>
        <time>2017-12-15T22:41:16Z</time>
      </trkpt>
      <trkpt lat="45.00372" lon="5.62251">
        <ele>737</ele>
        <time>2017-12-15T22:41:19Z</time>
      </trkpt>
      <trkpt lat="45.00417" lon="5.62247">
        <ele>750</ele>
        <time>2017-12-15T22:41:31Z</time>
      </trkpt>
      <trkpt lat="45.00467" lon="5.6224">
        <ele>761</ele>
        <time>2017-12-15T22:41:37Z</time>
      </trkpt>
      <trkpt lat="45.00483" lon="5.62235">
        <ele>760</ele>
        <time>2017-12-15T22:41:53Z</time>
      </trkpt>
      <trkpt lat="45.00494" lon="5.62225">
        <ele>762</ele>
        <time>2017-12-15T22:42:02Z</time>
      </trkpt>
      <trkpt lat="45.00495" lon="5.62223">
        <ele>763</ele>
        <time>2017-12-15T22:42:19Z</time>
      </trkpt>
      <trkpt lat="45.00512" lon="5.622">
        <ele>757</ele>
        <time>2017-12-15T22:42:36Z</time>
      </trkpt>
      <trkpt lat="45.00541" lon="5.62137">
        <ele>788</ele>
        <time>2017-12-15T22:42:56Z</time>
      </trkpt>
      <trkpt lat="45.00551" lon="5.62118">
        <ele>790</ele>
        <time>2017-12-15T22:43:00Z</time>
      </trkpt>
      <trkpt lat="45.00562" lon="5.62102">
        <ele>791</ele>
        <time>2017-12-15T22:43:17Z</time>
      </trkpt>
      <trkpt lat="45.00577" lon="5.62092">
        <ele>790</ele>
        <time>2017-12-15T22:43:27Z</time>
      </trkpt>
      <trkpt lat="45.00607" lon="5.62083">
        <ele>807</ele>
        <time>2017-12-15T22:43:37Z</time>
      </trkpt>
      <trkpt lat="45.00624" lon="5.62076">
        <ele>811</ele>
        <time>2017-12-15T22:43:42Z</time>
      </trkpt>
      <trkpt lat="45.00638" lon="5.62073">
        <ele>810</ele>
        <time>2017-12-15T22:43:56Z</time>
      </trkpt>
      <trkpt lat="45.00652" lon="5.62069">
        <ele>808</ele>
        <time>2017-12-15T22:44:12Z</time>
      </trkpt>
      <trkpt lat="45.0066" lon="5.62066">
        <ele>807</ele>
        <time>2017-12-15T22:44:24Z</time>
      </trkpt>
      <trkpt lat="45.00665" lon="5.62061">
        <ele>810</ele>
        <time>2017-12-15T22:44:34Z</time>
      </trkpt>
      <trkpt lat="45.00676" lon="5.62044">
        <ele>811</ele>
        <time>2017-12-15T22:44:49Z</time>
      </trkpt>
      <trkpt lat="45.00685" lon="5.6203">
        <ele>816</ele>
        <time>2017-12-15T22:44:53Z</time>
      </trkpt>
      <trkpt lat="45.00691" lon="5.62024">
        <ele>816</ele>
        <time>2017-12-15T22:44:59Z</time>
      </trkpt>
      <trkpt lat="45.007" lon="5.62019">
        <ele>815</ele>
        <time>2017-12-15T22:45:04Z</time>
      </trkpt>
      <trkpt lat="45.00728" lon="5.62011">
        <ele>810</ele>
        <time>2017-12-15T22:45:18Z</time>
      </trkpt>
      <trkpt lat="45.00753" lon="5.61996">
        <ele>810</ele>
        <time>2017-12-15T22:45:30Z</time>
      </trkpt>
      <trkpt lat="45.00761" lon="5.6199">
        <ele>813</ele>
        <time>2017-12-15T22:45:41Z</time>
      </trkpt>
      <trkpt lat="45.00769" lon="5.61991">
        <ele>814</ele>
        <time>2017-12-15T22:45:59Z</time>
      </trkpt>
      <trkpt lat="45.00775" lon="5.61994">
        <ele>815</ele>
        <time>2017-12-15T22:46:05Z</time>
      </trkpt>
      <trkpt lat="45.00779" lon="5.62002">
        <ele>804</ele>
        <time>2017-12-15T22:46:18Z</time>
      </trkpt>
      <trkpt lat="45.00779" lon="5.62012">
        <ele>803</ele>
        <time>2017-12-15T22:46:20Z</time>
      </trkpt>
      <trkpt lat="45.00766" lon="5.62066">
        <ele>797</ele>
        <time>2017-12-15T22:46:28Z</time>
      </trkpt>
      <trkpt lat="45.00765" lon="5.62112">
        <ele>788</ele>
        <time>2017-12-15T22:46:47Z</time>
      </trkpt>
      <trkpt lat="45.00769" lon="5.6214">
        <ele>786</ele>
        <time>2017-12-15T22:46:57Z</time>
      </trkpt>
      <trkpt lat="45.00774" lon="5.62152">
        <ele>785</ele>
        <time>2017-12-15T22:47:13Z</time>
      </trkpt>
      <trkpt lat="45.00781" lon="5.62157">
        <ele>786</ele>
        <time>2017-12-15T22:47:21Z</time>
      </trkpt>
      <trkpt lat="45.00788" lon="5.62157">
        <ele>786</ele>
        <time>2017-12-15T22:47:23Z</time>
      </trkpt>
      <trkpt lat="45.00801" lon="5.62148">
        <ele>787</ele>
        <time>2017-12-15T22:47:28Z</time>
      </trkpt>
      <trkpt lat="45.00813" lon="5.62133">
        <ele>789</ele>
        <time>2017-12-15T22:47:45Z</time>
      </trkpt>
      <trkpt lat="45.0082" lon="5.6212">
        <ele>791</ele>
        <time>2017-12-15T22:48:01Z</time>
      </trkpt>
      <trkpt lat="45.00834" lon="5.62084">
        <ele>803</ele>
        <time>2017-12-15T22:48:13Z</time>
      </trkpt>
      <trkpt lat="45.00841" lon="5.62058">
        <ele>803</ele>
        <time>2017-12-15T22:48:23Z</time>
      </trkpt>
      <trkpt lat="45.00847" lon="5.62017">
        <ele>805</ele>
        <time>2017-12-15T22:48:33Z</time>
      </trkpt>
      <trkpt lat="45.00855" lon="5.61984">
        <ele>811</ele>
        <time>2017-12-15T22:48:48Z</time>
      </trkpt>
      <trkpt lat="45.00866" lon="5.61956">
        <ele>814</ele>
        <time>2017-12-15T22:49:06Z</time>
      </trkpt>
      <trkpt lat="45.00879" lon="5.61937">
        <ele>815</ele>
        <time>2017-12-15T22:49:26Z</time>
      </trkpt>
      <trkpt lat="45.0089" lon="5.61933">
        <ele>816</ele>
        <time>2017-12-15T22:49:34Z</time>
      </trkpt>
      <trkpt lat="45.009" lon="5.61934">
        <ele>816</ele>
        <time>2017-12-15T22:49:37Z</time>
      </trkpt>
      <trkpt lat="45.00931" lon="5.61947">
        <ele>820</ele>
        <time>2017-12-15T22:49:43Z</time>
      </trkpt>
      <trkpt lat="45.00947" lon="5.61952">
        <ele>821</ele>
        <time>2017-12-15T22:49:59Z</time>
      </trkpt>
      <trkpt lat="45.00961" lon="5.61953">
        <ele>822</ele>
        <time>2017-12-15T22:50:13Z</time>
      </trkpt>
      <trkpt lat="45.00977" lon="5.61945">
        <ele>824</ele>
        <time>2017-12-15T22:50:19Z</time>
      </trkpt>
      <trkpt lat="45.00992" lon="5.61933">
        <ele>828</ele>
        <time>2017-12-15T22:50:26Z</time>
      </trkpt>
      <trkpt lat="45.01015" lon="5.61904">
        <ele>844</ele>
        <time>2017-12-15T22:50:37Z</time>
      </trkpt>
      <trkpt lat="45.01034" lon="5.61869">
        <ele>852</ele>
        <time>2017-12-15T22:50:45Z</time>
      </trkpt>
      <trkpt lat="45.01049" lon="5.61843">
        <ele>855</ele>
        <time>2017-12-15T22:50:53Z</time>
      </trkpt>
      <trkpt lat="45.01055" lon="5.61838">
        <ele>855</ele>
        <time>2017-12-15T22:51:08Z</time>
      </trkpt>
      <trkpt lat="45.01063" lon="5.61843">
        <ele>856</ele>
        <time>2017-12-15T22:51:28Z</time>
      </trkpt>
      <trkpt lat="45.01068" lon="5.61851">
        <ele>855</ele>
        <time>2017-12-15T22:51:35Z</time>
      </trkpt>
      <trkpt lat="45.01069" lon="5.61859">
        <ele>855</ele>
        <time>2017-12-15T22:51:41Z</time>
      </trkpt>
      <trkpt lat="45.0107" lon="5.61925">
        <ele>848</ele>
        <time>2017-12-15T22:51:57Z</time>
      </trkpt>
      <trkpt lat="45.0107" lon="5.61973">
        <ele>845</ele>
        <time>2017-12-15T22:52:03Z</time>
      </trkpt>
      <trkpt lat="45.01067" lon="5.62004">
        <ele>847</ele>
        <time>2017-12-15T22:52:15Z</time>
      </trkpt>
      <trkpt lat="45.01062" lon="5.62027">
        <ele>844</ele>
        <time>2017-12-15T22:52:30Z</time>
      </trkpt>
      <trkpt lat="45.01052" lon="5.62067">
        <ele>843</ele>
        <time>2017-12-15T22:52:36Z</time>
      </trkpt>
      <trkpt lat="45.01052" lon="5.62094">
        <ele>847</ele>
        <time>2017-12-15T22:52:44Z</time>
      </trkpt>
      <trkpt lat="45.0105" lon="5.62122">
        <ele>846</ele>
        <time>2017-12-15T22:53:04Z</time>
      </trkpt>
      <trkpt lat="45.01047" lon="5.62138">
        <ele>846</ele>
        <time>2017-12-15T22:53:21Z</time>
      </trkpt>
      <trkpt lat="45.01048" lon="5.62155">
        <ele>847</ele>
        <time>2017-12-15T22:53:33Z</time>
      </trkpt>
      <trkpt lat="45.01048" lon="5.62181">
        <ele>850</ele>
        <time>2017-12-15T22:53:39Z</time>
      </trkpt>
      <trkpt lat="45.01034" lon="5.62249">
        <ele>845</ele>
        <time>2017-12-15T22:53:42Z</time>
      </trkpt>
      <trkpt lat="45.01031" lon="5.62268">
        <ele>844</ele>
        <time>2017-12-15T22:53:55Z</time>
      </trkpt>
      <trkpt lat="45.01034" lon="5.62278">
        <ele>845</ele>
        <time>2017-12-15T22:54:15Z</time>
      </trkpt>
      <trkpt lat="45.01038" lon="5.62281">
        <ele>846</ele>
        <time>2017-12-15T22:54:34Z</time>
      </trkpt>
      <trkpt lat="45.01042" lon="5.62282">
        <ele>847</ele>
        <time>2017-12-15T22:54:38Z</time>
      </trkpt>
      <trkpt lat="45.01049" lon="5.62278">
        <ele>849</ele>
        <time>2017-12-15T22:54:40Z</time>
      </trkpt>
      <trkpt lat="45.01053" lon="5.62273">
        <ele>851</ele>
        <time>2017-12-15T22:54:47Z</time>
      </trkpt>
      <trkpt lat="45.01053" lon="5.62267">
        <ele>851</ele>
        <time>2017-12-15T22:54:57Z</time>
      </trkpt>
      <trkpt lat="45.01052" lon="5.62248">
        <ele>853</ele>
        <time>2017-12-15T22:55:03Z</time>
      </trkpt>
      <trkpt lat="45.01052" lon="5.62239">
        <ele>852</ele>
        <time>2017-12-15T22:55:07Z</time>
      </trkpt>
      <trkpt lat="45.01055" lon="5.62226">
        <ele>852</ele>
        <time>2017-12-15T22:55:25Z</time>
      </trkpt>
      <trkpt lat="45.01083" lon="5.62143">
        <ele>856</ele>
        <time>2017-12-15T22:55:39Z</time>
      </trkpt>
      <trkpt lat="45.01091" lon="5.62106">
        <ele>880</ele>
        <time>2017-12-15T22:55:51Z</time>
      </trkpt>
      <trkpt lat="45.01092" lon="5.62091">
        <ele>874</ele>
        <time>2017-12-15T22:56:01Z</time>
      </trkpt>
      <trkpt lat="45.01097" lon="5.62063">
        <ele>877</ele>
        <time>2017-12-15T22:56:06Z</time>
      </trkpt>
      <trkpt lat="45.01112" lon="5.62035">
        <ele>882</ele>
        <time>2017-12-15T22:56:09Z</time>
      </trkpt>
      <trkpt lat="45.01128" lon="5.61976">
        <ele>883</ele>
        <time>2017-12-15T22:56:23Z</time>
      </trkpt>
      <trkpt lat="45.01131" lon="5.61914">
        <ele>882</ele>
        <time>2017-12-15T22:56:35Z</time>
      </trkpt>
      <trkpt lat="45.01139" lon="5.61889">
        <ele>884</ele>
        <time>2017-12-15T22:56:52Z</time>
      </trkpt>
      <trkpt lat="45.01138" lon="5.61865">
        <ele>882</ele>
        <time>2017-12-15T22:57:02Z</time>
      </trkpt>
      <trkpt lat="45.01135" lon="5.61841">
        <ele>882</ele>
        <time>2017-12-15T22:57:11Z</time>
      </trkpt>
      <trkpt lat="45.01138" lon="5.61821">
        <ele>882</ele>
        <time>2017-12-15T22:57:25Z</time>
      </trkpt>
      <trkpt lat="45.01159" lon="5.61802">
        <ele>883</ele>
        <time>2017-12-15T22:57:29Z</time>
      </trkpt>
      <trkpt lat="45.01176" lon="5.61792">
        <ele>900</ele>
        <time>2017-12-15T22:57:44Z</time>
      </trkpt>
      <trkpt lat="45.01206" lon="5.61769">
        <ele>903</ele>
        <time>2017-12-15T22:57:48Z</time>
      </trkpt>
      <trkpt lat="45.01226" lon="5.61748">
        <ele>902</ele>
        <time>2017-12-15T22:57:52Z</time>
      </trkpt>
      <trkpt lat="45.01239" lon="5.61729">
        <ele>902</ele>
        <time>2017-12-15T22:58:07Z</time>
      </trkpt>
      <trkpt lat="45.01248" lon="5.61708">
        <ele>901</ele>
        <time>2017-12-15T22:58:17Z</time>
      </trkpt>
      <trkpt lat="45.01273" lon="5.61653">
        <ele>908</ele>
        <time>2017-12-15T22:58:30Z</time>
      </trkpt>
      <trkpt lat="45.01281" lon="5.61632">
        <ele>909</ele>
        <time>2017-12-15T22:58:45Z</time>
      </trkpt>
      <trkpt lat="45.01284" lon="5.61601">
        <ele>909</ele>
        <time>2017-12-15T22:58:47Z</time>
      </trkpt>
      <trkpt lat="45.01287" lon="5.61582">
        <ele>910</ele>
        <time>2017-12-15T22:58:55Z</time>
      </trkpt>
      <trkpt lat="45.01293" lon="5.61563">
        <ele>911</ele>
        <time>2017-12-15T22:59:08Z</time>
      </trkpt>
      <trkpt lat="45.01313" lon="5.61534">
        <ele>912</ele>
        <time>2017-12-15T22:59:28Z</time>
      </trkpt>
      <trkpt lat="45.01327" lon="5.61521">
        <ele>913</ele>
        <time>2017-12-15T22:59:47Z</time>
      </trkpt>
      <trkpt lat="45.01346" lon="5.6151">
        <ele>915</ele>
        <time>2017-12-15T22:59:51Z</time>
      </trkpt>
      <trkpt lat="45.01387" lon="5.61497">
        <ele>920</ele>
        <time>2017-12-15T23:00:11Z</time>
      </trkpt>
      <trkpt lat="45.01426" lon="5.61487">
        <ele>925</ele>
        <time>2017-12-15T23:00:25Z</time>
      </trkpt>
      <trkpt lat="45.01439" lon="5.6148">
        <ele>928</ele>
        <time>2017-12-15T23:00:41Z</time>
      </trkpt>
      <trkpt lat="45.01448" lon="5.61465">
        <ele>930</ele>
        <time>2017-12-15T23:00:43Z</time>
      </trkpt>
      <trkpt lat="45.0145" lon="5.61454">
        <ele>931</ele>
        <time>2017-12-15T23:00:53Z</time>
      </trkpt>
      <trkpt lat="45.01449" lon="5.61434">
        <ele>932</ele>
        <time>2017-12-15T23:00:56Z</time>
      </trkpt>
      <trkpt lat="45.0144" lon="5.61402">
        <ele>936</ele>
        <time>2017-12-15T23:01:01Z</time>
      </trkpt>
      <trkpt lat="45.01439" lon="5.61381">
        <ele>937</ele>
        <time>2017-12-15T23:01:19Z</time>
      </trkpt>
      <trkpt lat="45.01441" lon="5.61364">
        <ele>938</ele>
        <time>2017-12-15T23:01:39Z</time>
      </trkpt>
      <trkpt lat="45.0144" lon="5.61357">
        <ele>938</ele>
        <time>2017-12-15T23:01:53Z</time>
      </trkpt>
      <trkpt lat="45.01433" lon="5.61345">
        <ele>937</ele>
        <time>2017-12-15T23:01:59Z</time>
      </trkpt>
      <trkpt lat="45.01397" lon="5.6132">
        <ele>937</ele>
        <time>2017-12-15T23:02:02Z</time>
      </trkpt>
      <trkpt lat="45.01352" lon="5.61299">
        <ele>938</ele>
        <time>2017-12-15T23:02:07Z</time>
      </trkpt>
      <trkpt lat="45.01319" lon="5.61281">
        <ele>939</ele>
        <time>2017-12-15T23:02:14Z</time>
      </trkpt>
      <trkpt lat="45.01293" lon="5.61271">
        <ele>940</ele>
        <time>2017-12-15T23:02:28Z</time>
      </trkpt>
      <trkpt lat="45.01272" lon="5.61267">
        <ele>941</ele>
        <time>2017-12-15T23:02:37Z</time>
      </trkpt>
      <trkpt lat="45.01227" lon="5.61259">
        <ele>945</ele>
        <time>2017-12-15T23:02:55Z</time>
      </trkpt>
      <trkpt lat="45.01186" lon="5.6125">
        <ele>954</ele>
        <time>2017-12-15T23:02:58Z</time>
      </trkpt>
      <trkpt lat="45.01144" lon="5.61249">
        <ele>956</ele>
        <time>2017-12-15T23:03:09Z</time>
      </trkpt>
      <trkpt lat="45.0113" lon="5.61248">
        <ele>957</ele>
        <time>2017-12-15T23:03:19Z</time>
      </trkpt>
      <trkpt lat="45.01117" lon="5.61243">
        <ele>957</ele>
        <time>2017-12-15T23:03:25Z</time>
      </trkpt>
      <trkpt lat="45.0108" lon="5.61211">
        <ele>960</ele>
        <time>2017-12-15T23:03:32Z</time>
      </trkpt>
      <trkpt lat="45.01053" lon="5.61188">
        <ele>962</ele>
        <time>2017-12-15T23:03:37Z</time>
      </trkpt>
      <trkpt lat="45.0103" lon="5.61181">
        <ele>963</ele>
        <time>2017-12-15T23:03:54Z</time>
      </trkpt>
      <trkpt lat="45.01011" lon="5.61183">
        <ele>963</ele>
        <time>2017-12-15T23:03:56Z</time>
      </trkpt>
      <trkpt lat="45.00993" lon="5.61193">
        <ele>966</ele>
        <time>2017-12-15T23:03:58Z</time>
      </trkpt>
      <trkpt lat="45.00965" lon="5.61209">
        <ele>967</ele>
        <time>2017-12-15T23:04:05Z</time>
      </trkpt>
      <trkpt lat="45.00958" lon="5.6121">
        <ele>967</ele>
        <time>2017-12-15T23:04:14Z</time>
      </trkpt>
      <trkpt lat="45.00947" lon="5.61212">
        <ele>967</ele>
        <time>2017-12-15T23:04:27Z</time>
      </trkpt>
      <trkpt lat="45.00929" lon="5.61207">
        <ele>968</ele>
        <time>2017-12-15T23:04:32Z</time>
      </trkpt>
      <trkpt lat="45.00923" lon="5.61204">
        <ele>968</ele>
        <time>2017-12-15T23:04:35Z</time>
      </trkpt>
      <trkpt lat="45.00906" lon="5.61182">
        <ele>970</ele>
        <time>2017-12-15T23:04:55Z</time>
      </trkpt>
      <trkpt lat="45.00881" lon="5.61156">
        <ele>976</ele>
        <time>2017-12-15T23:05:09Z</time>
      </trkpt>
      <trkpt lat="45.00847" lon="5.61128">
        <ele>976</ele>
        <time>2017-12-15T23:05:25Z</time>
      </trkpt>
      <trkpt lat="45.00802" lon="5.61106">
        <ele>973</ele>
        <time>2017-12-15T23:05:38Z</time>
      </trkpt>
      <trkpt lat="45.00758" lon="5.61082">
        <ele>980</ele>
        <time>2017-12-15T23:05:48Z</time>
      </trkpt>
      <trkpt lat="45.00739" lon="5.61066">
        <ele>977</ele>
        <time>2017-12-15T23:06:05Z</time>
      </trkpt>
      <trkpt lat="45.00728" lon="5.61044">
        <ele>979</ele>
        <time>2017-12-15T23:06:19Z</time>
      </trkpt>
      <trkpt lat="45.00689" lon="5.60998">
        <ele>990</ele>
        <time>2017-12-15T23:06:22Z</time>
      </trkpt>
      <trkpt lat="45.00659" lon="5.60961">
        <ele>981</ele>
        <time>2017-12-15T23:06:27Z</time>
      </trkpt>
      <trkpt lat="45.00635" lon="5.60939">
        <ele>981</ele>
        <time>2017-12-15T23:06:29Z</time>
      </trkpt>
      <trkpt lat="45.00619" lon="5.60924">
        <ele>979</ele>
        <time>2017-12-15T23:06:42Z</time>
      </trkpt>
      <trkpt lat="45.0061" lon="5.60913">
        <ele>989</ele>
        <time>2017-12-15T23:07:01Z</time>
      </trkpt>
      <trkpt lat="45.00604" lon="5.60901">
        <ele>989</ele>
        <time>2017-12-15T23:07:05Z</time>
      </trkpt>
      <trkpt lat="45.00601" lon="5.60886">
        <ele>991</ele>
        <time>2017-12-15T23:07:08Z</time>
      </trkpt>
      <trkpt lat="45.00594" lon="5.60855">
        <ele>995</ele>
        <time>2017-12-15T23:07:25Z</time>
      </trkpt>
      <trkpt lat="45.0058" lon="5.60833">
        <ele>996</ele>
        <time>2017-12-15T23:07:37Z</time>
      </trkpt>
      <trkpt lat="45.00559" lon="5.60807">
        <ele>1000</ele>
        <time>2017-12-15T23:07:47Z</time>
      </trkpt>
      <trkpt lat="45.00544" lon="5.60793">
        <ele>1001</ele>
        <time>2017-12-15T23:07:56Z</time>
      </trkpt>
      <trkpt lat="45.00532" lon="5.60784">
        <ele>1001</ele>
        <time>2017-12-15T23:08:09Z</time>
      </trkpt>
      <trkpt lat="45.00517" lon="5.60777">
        <ele>1002</ele>
        <time>2017-12-15T23:08:20Z</time>
      </trkpt>
      <trkpt lat="45.00497" lon="5.60778">
        <ele>994</ele>
        <time>2017-12-15T23:08:22Z</time>
      </trkpt>
      <trkpt lat="45.00479" lon="5.60778">
        <ele>993</ele>
        <time>2017-12-15T23:08:27Z</time>
      </trkpt>
      <trkpt lat="45.00465" lon="5.60771">
        <ele>992</ele>
        <time>2017-12-15T23:08:33Z</time>
      </trkpt>
      <trkpt lat="45.00459" lon="5.60758">
        <ele>993</ele>
        <time>2017-12-15T23:08:50Z</time>
      </trkpt>
      <trkpt lat="45.00453" lon="5.60743">
        <ele>1009</ele>
        <time>2017-12-15T23:09:01Z</time>
      </trkpt>
      <trkpt lat="45.00447" lon="5.60732">
        <ele>1009</ele>
        <time>2017-12-15T23:09:09Z</time>
      </trkpt>
      <trkpt lat="45.00436" lon="5.60725">
        <ele>1009</ele>
        <time>2017-12-15T23:09:22Z</time>
      </trkpt>
      <trkpt lat="45.00414" lon="5.60723">
        <ele>1004</ele>
        <time>2017-12-15T23:09:39Z</time>
      </trkpt>
      <trkpt lat="45.00395" lon="5.60719">
        <ele>1005</ele>
        <time>2017-12-15T23:09:56Z</time>
      </trkpt>
      <trkpt lat="45.00368" lon="5.60698">
        <ele>1008</ele>
        <time>2017-12-15T23:10:16Z</time>
      </trkpt>
      <trkpt lat="45.00344" lon="5.60674">
        <ele>1012</ele>
        <time>2017-12-15T23:10:28Z</time>
      </trkpt>
      <trkpt lat="45.00333" lon="5.60669">
        <ele>1015</ele>
        <time>2017-12-15T23:10:36Z</time>
      </trkpt>
      <trkpt lat="45.00326" lon="5.60668">
        <ele>1014</ele>
        <time>2017-12-15T23:10:38Z</time>
      </trkpt>
      <trkpt lat="45.00317" lon="5.60671">
        <ele>1013</ele>
        <time>2017-12-15T23:10:48Z</time>
      </trkpt>
      <trkpt lat="45.00303" lon="5.60683">
        <ele>1013</ele>
        <time>2017-12-15T23:10:52Z</time>
      </trkpt>
      <trkpt lat="45.00282" lon="5.60705">
        <ele>1012</ele>
        <time>2017-12-15T23:11:04Z</time>
      </trkpt>
      <trkpt lat="45.00267" lon="5.60717">
        <ele>1011</ele>
        <time>2017-12-15T23:11:16Z</time>
      </trkpt>
      <trkpt lat="45.00259" lon="5.60719">
        <ele>1011</ele>
        <time>2017-12-15T23:11:29Z</time>
      </trkpt>
      <trkpt lat="45.00222" lon="5.60719">
        <ele>1017</ele>
        <time>2017-12-15T23:11:41Z</time>
      </trkpt>
      <trkpt lat="45.00197" lon="5.60718">
        <ele>1018</ele>
        <time>2017-12-15T23:11:48Z</time>
      </trkpt>
      <trkpt lat="45.00172" lon="5.60711">
        <ele>1020</ele>
        <time>2017-12-15T23:11:50Z</time>
      </trkpt>
      <trkpt lat="45.00137" lon="5.607">
        <ele>1026</ele>
        <time>2017-12-15T23:12:01Z</time>
      </trkpt>
      <trkpt lat="45.00115" lon="5.60696">
        <ele>1028</ele>
        <time>2017-12-15T23:12:04Z</time>
      </trkpt>
      <trkpt lat="45.00087" lon="5.60695">
        <ele>1029</ele>
        <time>2017-12-15T23:12:20Z</time>
      </trkpt>
      <trkpt lat="45.00062" lon="5.60691">
        <ele>1036</ele>
        <time>2017-12-15T23:12:33Z</time>
      </trkpt>
      <trkpt lat="45.00039" lon="5.60683">
        <ele>1038</ele>
        <time>2017-12-15T23:12:52Z</time>
      </trkpt>
      <trkpt lat="44.99941" lon="5.60631">
        <ele>1051</ele>
        <time>2017-12-15T23:13:01Z</time>
      </trkpt>
      <trkpt lat="44.99928" lon="5.60621">
        <ele>1052</ele>
        <time>2017-12-15T23:13:03Z</time>
      </trkpt>
      <trkpt lat="44.99914" lon="5.6061">
        <ele>1054</ele>
        <time>2017-12-15T23:13:13Z</time>
      </trkpt>
      <trkpt lat="44.99911" lon="5.60609">
        <ele>1054</ele>
        <time>2017-12-15T23:13:22Z</time>
      </trkpt>
      <trkpt lat="44.99877" lon="5.606">
        <ele>1055</ele>
        <time>2017-12-15T23:13:37Z</time>
      </trkpt>
      <trkpt lat="44.99851" lon="5.60596">
        <ele>1056</ele>
        <time>2017-12-15T23:13:49Z</time>
      </trkpt>
      <trkpt lat="44.99817" lon="5.60593">
        <ele>1060</ele>
        <time>2017-12-15T23:13:59Z</time>
      </trkpt>
      <trkpt lat="44.99797" lon="5.60589">
        <ele>1061</ele>
        <time>2017-12-15T23:14:16Z</time>
      </trkpt>
      <trkpt lat="44.99787" lon="5.60584">
        <ele>1061</ele>
        <time>2017-12-15T23:14:22Z</time>
      </trkpt>
      <trkpt lat="44.99729" lon="5.60542">
        <ele>1066</ele>
        <time>2017-12-15T23:14:30Z</time>
      </trkpt>
      <trkpt lat="44.99687" lon="5.60505">
        <ele>1064</ele>
        <time>2017-12-15T23:14:44Z</time>
      </trkpt>
      <trkpt lat="44.99678" lon="5.60492">
        <ele>1065</ele>
        <time>2017-12-15T23:15:04Z</time>
      </trkpt>
      <trkpt lat="44.99588" lon="5.60354">
        <ele>1067</ele>
        <time>2017-12-15T23:15:17Z</time>
      </trkpt>
      <trkpt lat="44.99567" lon="5.60321">
        <ele>1072</ele>
        <time>2017-12-15T23:15:28Z</time>
      </trkpt>
      <trkpt lat="44.99564" lon="5.603">
        <ele>1074</ele>
        <time>2017-12-15T23:15:40Z</time>
      </trkpt>
      <trkpt lat="44.99564" lon="5.6029">
        <ele>1075</ele>
        <time>2017-12-15T23:15:48Z</time>
      </trkpt>
      <trkpt lat="44.99567" lon="5.60282">
        <ele>1075</ele>
        <time>2017-12-15T23:15:53Z</time>
      </trkpt>
      <trkpt lat="44.99573" lon="5.60276">
        <ele>1074</ele>
        <time>2017-12-15T23:16:00Z</time>
      </trkpt>
      <trkpt lat="44.9958" lon="5.60273">
        <ele>1074</ele>
        <time>2017-12-15T23:16:11Z</time>
      </trkpt>
      <trkpt lat="44.99588" lon="5.60274">
        <ele>1072</ele>
        <time>2017-12-15T23:16:25Z</time>
      </trkpt>
      <trkpt lat="44.99603" lon="5.60279">
        <ele>1071</ele>
        <time>2017-12-15T23:16:29Z</time>
      </trkpt>
      <trkpt lat="44.99633" lon="5.60295">
        <ele>1071</ele>
        <time>2017-12-15T23:16:33Z</time>
      </trkpt>
      <trkpt lat="44.99653" lon="5.60303">
        <ele>1071</ele>
        <time>2017-12-15T23:16:50Z</time>
      </trkpt>
      <trkpt lat="44.99661" lon="5.60305">
        <ele>1071</ele>
        <time>2017-12-15T23:17:03Z</time>
      </trkpt>
      <trkpt lat="44.99675" lon="5.60302">
        <ele>1074</ele>
        <time>2017-12-15T23:17:20Z</time>
      </trkpt>
      <trkpt lat="44.99686" lon="5.60294">
        <ele>1074</ele>
        <time>2017-12-15T23:17:38Z</time>
      </trkpt>
      <trkpt lat="44.99691" lon="5.60287">
        <ele>1075</ele>
        <time>2017-12-15T23:17:54Z</time>
      </trkpt>
      <trkpt lat="44.99696" lon="5.60275">
        <ele>1075</ele>
        <time>2017-12-15T23:18:05Z</time>
      </trkpt>
      <trkpt lat="44.99698" lon="5.60255">
        <ele>1076</ele>
        <time>2017-12-15T23:18:14Z</time>
      </trkpt>
      <trkpt lat="44.99696" lon="5.60244">
        <ele>1080</ele>
        <time>2017-12-15T23:18:18Z</time>
      </trkpt>
      <trkpt lat="44.99691" lon="5.6023">
        <ele>1081</ele>
        <time>2017-12-15T23:18:35Z</time>
      </trkpt>
      <trkpt lat="44.99685" lon="5.6022">
        <ele>1081</ele>
        <time>2017-12-15T23:18:44Z</time>
      </trkpt>
      <trkpt lat="44.9964" lon="5.60164">
        <ele>1089</ele>
        <time>2017-12-15T23:18:58Z</time>
      </trkpt>
      <trkpt lat="44.99616" lon="5.60131">
        <ele>1091</ele>
        <time>2017-12-15T23:19:01Z</time>
      </trkpt>
      <trkpt lat="44.99611" lon="5.60122">
        <ele>1092</ele>
        <time>2017-12-15T23:19:13Z</time>
      </trkpt>
      <trkpt lat="44.99604" lon="5.60102">
        <ele>1093</ele>
        <time>2017-12-15T23:19:17Z</time>
      </trkpt>
      <trkpt lat="44.99596" lon="5.60071">
        <ele>1100</ele>
        <time>2017-12-15T23:19:27Z</time>
      </trkpt>
      <trkpt lat="44.99589" lon="5.6006">
        <ele>1101</ele>
        <time>2017-12-15T23:19:43Z</time>
      </trkpt>
      <trkpt lat="44.99568" lon="5.60039">
        <ele>1099</ele>
        <time>2017-12-15T23:19:54Z</time>
      </trkpt>
      <trkpt lat="44.99545" lon="5.60018">
        <ele>1099</ele>
        <time>2017-12-15T23:20:01Z</time>
      </trkpt>
      <trkpt lat="44.99536" lon="5.60006">
        <ele>1098</ele>
        <time>2017-12-15T23:20:06Z</time>
      </trkpt>
      <trkpt lat="44.99529" lon="5.59991">
        <ele>1104</ele>
        <time>2017-12-15T23:20:20Z</time>
      </trkpt>
      <trkpt lat="44.99524" lon="5.59973">
        <ele>1105</ele>
        <time>2017-12-15T23:20:22Z</time>
      </trkpt>
      <trkpt lat="44.99519" lon="5.59954">
        <ele>1107</ele>
        <time>2017-12-15T23:20:32Z</time>
      </trkpt>
      <trkpt lat="44.99508" lon="5.59924">
        <ele>1108</ele>
        <time>2017-12-15T23:20:50Z</time>
      </trkpt>
      <trkpt lat="44.99501" lon="5.59907">
        <ele>1111</ele>
        <time>2017-12-15T23:21:00Z</time>
      </trkpt>
      <trkpt lat="44.99491" lon="5.59892">
        <ele>1109</ele>
        <time>2017-12-15T23:21:10Z</time>
      </trkpt>
      <trkpt lat="44.99452" lon="5.59824">
        <ele>1117</ele>
        <time>2017-12-15T23:21:18Z</time>
      </trkpt>
      <trkpt lat="44.99421" lon="5.59763">
        <ele>1119</ele>
        <time>2017-12-15T23:21:34Z</time>
      </trkpt>
      <trkpt lat="44.99416" lon="5.59747">
        <ele>1120</ele>
        <time>2017-12-15T23:21:36Z</time>
      </trkpt>
      <trkpt lat="44.99416" lon="5.5973">
        <ele>1122</ele>
        <time>2017-12-15T23:21:46Z</time>
      </trkpt>
      <trkpt lat="44.9942" lon="5.59687">
        <ele>1128</ele>
        <time>2017-12-15T23:21:50Z</time>
      </trkpt>
      <trkpt lat="44.99418" lon="5.59655">
        <ele>1133</ele>
        <time>2017-12-15T23:22:05Z</time>
      </trkpt>
      <trkpt lat="44.99412" lon="5.5964">
        <ele>1133</ele>
        <time>2017-12-15T23:22:21Z</time>
      </trkpt>
      <trkpt lat="44.99402" lon="5.59623">
        <ele>1135</ele>
        <time>2017-12-15T23:22:31Z</time>
      </trkpt>
      <trkpt lat="44.99393" lon="5.59612">
        <ele>1136</ele>
        <time>2017-12-15T23:22:40Z</time>
      </trkpt>
      <trkpt lat="44.99381" lon="5.59605">
        <ele>1137</ele>
        <time>2017-12-15T23:22:45Z</time>
      </trkpt>
      <trkpt lat="44.99354" lon="5.59593">
        <ele>1137</ele>
        <time>2017-12-15T23:22:52Z</time>
      </trkpt>
      <trkpt lat="44.99337" lon="5.5958">
        <ele>1141</ele>
        <time>2017-12-15T23:23:00Z</time>
      </trkpt>
      <trkpt lat="44.99331" lon="5.59569">
        <ele>1144</ele>
        <time>2017-12-15T23:23:14Z</time>
      </trkpt>
      <trkpt lat="44.99325" lon="5.59553">
        <ele>1146</ele>
        <time>2017-12-15T23:23:19Z</time>
      </trkpt>
      <trkpt lat="44.9932" lon="5.59541">
        <ele>1148</ele>
        <time>2017-12-15T23:23:29Z</time>
      </trkpt>
      <trkpt lat="44.99314" lon="5.59533">
        <ele>1148</ele>
        <time>2017-12-15T23:23:43Z</time>
      </trkpt>
      <trkpt lat="44.99306" lon="5.5953">
        <ele>1149</ele>
        <time>2017-12-15T23:24:01Z</time>
      </trkpt>
      <trkpt lat="44.99295" lon="5.59533">
        <ele>1149</ele>
        <time>2017-12-15T23:24:17Z</time>
      </trkpt>
      <trkpt lat="44.99283" lon="5.5954">
        <ele>1150</ele>
        <time>2017-12-15T23:24:22Z</time>
      </trkpt>
      <trkpt lat="44.99253" lon="5.59551">
        <ele>1151</ele>
        <time>2017-12-15T23:24:27Z</time>
      </trkpt>
      <trkpt lat="44.99221" lon="5.5956">
        <ele>1155</ele>
        <time>2017-12-15T23:24:30Z</time>
      </trkpt>
      <trkpt lat="44.99213" lon="5.59566">
        <ele>1155</ele>
        <time>2017-12-15T23:24:50Z</time>
      </trkpt>
      <trkpt lat="44.99207" lon="5.59574">
        <ele>1155</ele>
        <time>2017-12-15T23:24:52Z</time>
      </trkpt>
      <trkpt lat="44.99201" lon="5.59582">
        <ele>1154</ele>
        <time>2017-12-15T23:24:54Z</time>
      </trkpt>
      <trkpt lat="44.99194" lon="5.59587">
        <ele>1149</ele>
        <time>2017-12-15T23:25:08Z</time>
      </trkpt>
      <trkpt lat="44.99185" lon="5.59591">
        <ele>1150</ele>
        <time>2017-12-15T23:25:28Z</time>
      </trkpt>
      <trkpt lat="44.99176" lon="5.59591">
        <ele>1151</ele>
        <time>2017-12-15T23:25:46Z</time>
      </trkpt>
      <trkpt lat="44.99164" lon="5.59586">
        <ele>1153</ele>
        <time>2017-12-15T23:26:01Z</time>
      </trkpt>
      <trkpt lat="44.99142" lon="5.59573">
        <ele>1156</ele>
        <time>2017-12-15T23:26:13Z</time>
      </trkpt>
      <trkpt lat="44.99083" lon="5.59539">
        <ele>1157</ele>
        <time>2017-12-15T23:26:22Z</time>
      </trkpt>
      <trkpt lat="44.98954" lon="5.59465">
        <ele>1153</ele>
        <time>2017-12-15T23:26:40Z</time>
      </trkpt>
      <trkpt lat="44.98924" lon="5.59446">
        <ele>1153</ele>
        <time>2017-12-15T23:26:46Z</time>
      </trkpt>
      <trkpt lat="44.98908" lon="5.59427">
        <ele>1147</ele>
        <time>2017-12-15T23:26:48Z</time>
      </trkpt>
      <trkpt lat="44.98869" lon="5.59374">
        <ele>1149</ele>
        <time>2017-12-15T23:27:02Z</time>
      </trkpt>
      <trkpt lat="44.98839" lon="5.59331">
        <ele>1151</ele>
        <time>2017-12-15T23:27:17Z</time>
      </trkpt>
      <trkpt lat="44.98831" lon="5.59314">
        <ele>1146</ele>
        <time>2017-12-15T23:27:27Z</time>
      </trkpt>
      <trkpt lat="44.98822" lon="5.59302">
        <ele>1146</ele>
        <time>2017-12-15T23:27:38Z</time>
      </trkpt>
      <trkpt lat="44.98787" lon="5.5927">
        <ele>1144</ele>
        <time>2017-12-15T23:27:45Z</time>
      </trkpt>
      <trkpt lat="44.98751" lon="5.5923">
        <ele>1149</ele>
        <time>2017-12-15T23:27:58Z</time>
      </trkpt>
      <trkpt lat="44.98734" lon="5.59205">
        <ele>1136</ele>
        <time>2017-12-15T23:28:08Z</time>
      </trkpt>
      <trkpt lat="44.98719" lon="5.59182">
        <ele>1136</ele>
        <time>2017-12-15T23:28:27Z</time>
      </trkpt>
      <trkpt lat="44.98702" lon="5.59131">
        <ele>1139</ele>
        <time>2017-12-15T23:28:47Z</time>
      </trkpt>
      <trkpt lat="44.98694" lon="5.5908">
        <ele>1141</ele>
        <time>2017-12-15T23:28:52Z</time>
      </trkpt>
      <trkpt lat="44.98686" lon="5.59047">
        <ele>1143</ele>
        <time>2017-12-15T23:28:57Z</time>
      </trkpt>
      <trkpt lat="44.98663" lon="5.58972">
        <ele>1124</ele>
        <time>2017-12-15T23:29:03Z</time>
      </trkpt>
      <trkpt lat="44.98654" lon="5.58937">
        <ele>1124</ele>
        <time>2017-12-15T23:29:14Z</time>
      </trkpt>
      <trkpt lat="44.98652" lon="5.58917">
        <ele>1127</ele>
        <time>2017-12-15T23:29:24Z</time>
      </trkpt>
      <trkpt lat="44.98652" lon="5.58904">
        <ele>1124</ele>
        <time>2017-12-15T23:29:26Z</time>
      </trkpt>
      <trkpt lat="44.98659" lon="5.58883">
        <ele>1121</ele>
        <time>2017-12-15T23:29:33Z</time>
      </trkpt>
      <trkpt lat="44.98671" lon="5.58847">
        <ele>1134</ele>
        <time>2017-12-15T23:29:49Z</time>
      </trkpt>
      <trkpt lat="44.98681" lon="5.58797">
        <ele>1133</ele>
        <time>2017-12-15T23:30:02Z</time>
      </trkpt>
      <trkpt lat="44.98684" lon="5.58755">
        <ele>1128</ele>
        <time>2017-12-15T23:30:16Z</time>
      </trkpt>
      <trkpt lat="44.98688" lon="5.58668">
        <ele>1126</ele>
        <time>2017-12-15T23:30:19Z</time>
      </trkpt>
      <trkpt lat="44.98683" lon="5.5864">
        <ele>1128</ele>
        <time>2017-12-15T23:30:30Z</time>
      </trkpt>
      <trkpt lat="44.98676" lon="5.58621">
        <ele>1129</ele>
        <time>2017-12-15T23:30:48Z</time>
      </trkpt>
      <trkpt lat="44.98665" lon="5.58602">
        <ele>1116</ele>
        <time>2017-12-15T23:30:55Z</time>
      </trkpt>
      <trkpt lat="44.98656" lon="5.58593">
        <ele>1117</ele>
        <time>2017-12-15T23:31:14Z</time>
      </trkpt>
      <trkpt lat="44.98643" lon="5.58584">
        <ele>1114</ele>
        <time>2017-12-15T23:31:28Z</time>
      </trkpt>
      <trkpt lat="44.98622" lon="5.58576">
        <ele>1123</ele>
        <time>2017-12-15T23:31:30Z</time>
      </trkpt>
      <trkpt lat="44.98604" lon="5.58571">
        <ele>1120</ele>
        <time>2017-12-15T23:31:40Z</time>
      </trkpt>
      <trkpt lat="44.98575" lon="5.58564">
        <ele>1108</ele>
        <time>2017-12-15T23:32:00Z</time>
      </trkpt>
      <trkpt lat="44.98555" lon="5.58553">
        <ele>1108</ele>
        <time>2017-12-15T23:32:11Z</time>
      </trkpt>
      <trkpt lat="44.9853" lon="5.58538">
        <ele>1106</ele>
        <time>2017-12-15T23:32:24Z</time>
      </trkpt>
      <trkpt lat="44.98507" lon="5.58521">
        <ele>1106</ele>
        <time>2017-12-15T23:32:40Z</time>
      </trkpt>
      <trkpt lat="44.98468" lon="5.58484">
        <ele>1105</ele>
        <time>2017-12-15T23:32:53Z</time>
      </trkpt>
      <trkpt lat="44.98413" lon="5.58427">
        <ele>1097</ele>
        <time>2017-12-15T23:32:56Z</time>
      </trkpt>
      <trkpt lat="44.9838" lon="5.58394">
        <ele>1103</ele>
        <time>2017-12-15T23:33:03Z</time>
      </trkpt>
      <trkpt lat="44.98358" lon="5.58378">
        <ele>1102</ele>
        <time>2017-12-15T23:33:20Z</time>
      </trkpt>
      <trkpt lat="44.98337" lon="5.58364">
        <ele>1102</ele>
        <time>2017-12-15T23:33:28Z</time>
      </trkpt>
      <trkpt lat="44.98309" lon="5.58351">
        <ele>1087</ele>
        <time>2017-12-15T23:33:44Z</time>
      </trkpt>
      <trkpt lat="44.9828" lon="5.58337">
        <ele>1082</ele>
        <time>2017-12-15T23:34:04Z</time>
      </trkpt>
      <trkpt lat="44.98248" lon="5.58319">
        <ele>1080</ele>
        <time>2017-12-15T23:34:12Z</time>
      </trkpt>
      <trkpt lat="44.98222" lon="5.58301">
        <ele>1079</ele>
        <time>2017-12-15T23:34:21Z</time>
      </trkpt>
      <trkpt lat="44.98179" lon="5.58263">
        <ele>1078</ele>
        <time>2017-12-15T23:34:37Z</time>
      </trkpt>
      <trkpt lat="44.98147" lon="5.58227">
        <ele>1072</ele>
        <time>2017-12-15T23:34:45Z</time>
      </trkpt>
      <trkpt lat="44.98117" lon="5.58177">
        <ele>1071</ele>
        <time>2017-12-15T23:35:03Z</time>
      </trkpt>
      <trkpt lat="44.98084" lon="5.58138">
        <ele>1075</ele>
        <time>2017-12-15T23:35:11Z</time>
      </trkpt>
      <trkpt lat="44.98065" lon="5.58114">
        <ele>1064</ele>
        <time>2017-12-15T23:35:20Z</time>
      </trkpt>
      <trkpt lat="44.98041" lon="5.58082">
        <ele>1063</ele>
        <time>2017-12-15T23:35:29Z</time>
      </trkpt>
      <trkpt lat="44.98038" lon="5.58082">
        <ele>1063</ele>
        <time>2017-12-15T23:35:31Z</time>
      </trkpt>
      <trkpt lat="44.98032" lon="5.5808">
        <ele>1062</ele>
        <time>2017-12-15T23:35:47Z</time>
      </trkpt>
      <trkpt lat="44.98024" lon="5.58085">
        <ele>1060</ele>
        <time>2017-12-15T23:36:05Z</time>
      </trkpt>
      <trkpt lat="44.98021" lon="5.58097">
        <ele>1060</ele>
        <time>2017-12-15T23:36:24Z</time>
      </trkpt>
      <trkpt lat="44.98021" lon="5.58108">
        <ele>1059</ele>
        <time>2017-12-15T23:36:38Z</time>
      </trkpt>
      <trkpt lat="44.98025" lon="5.58119">
        <ele>1059</ele>
        <time>2017-12-15T23:36:56Z</time>
      </trkpt>
      <trkpt lat="44.98031" lon="5.58126">
        <ele>1059</ele>
        <time>2017-12-15T23:37:13Z</time>
      </trkpt>
      <trkpt lat="44.98069" lon="5.58157">
        <ele>1063</ele>
        <time>2017-12-15T23:37:22Z</time>
      </trkpt>
      <trkpt lat="44.98081" lon="5.58171">
        <ele>1062</ele>
        <time>2017-12-15T23:37:38Z</time>
      </trkpt>
      <trkpt lat="44.98093" lon="5.58195">
        <ele>1067</ele>
        <time>2017-12-15T23:37:55Z</time>
      </trkpt>
      <trkpt lat="44.98132" lon="5.58281">
        <ele>1051</ele>
        <time>2017-12-15T23:37:58Z</time>
      </trkpt>
      <trkpt lat="44.98168" lon="5.58363">
        <ele>1052</ele>
        <time>2017-12-15T23:38:02Z</time>
      </trkpt>
      <trkpt lat="44.98182" lon="5.58411">
        <ele>1045</ele>
        <time>2017-12-15T23:38:13Z</time>
      </trkpt>
      <trkpt lat="44.98201" lon="5.58461">
        <ele>1036</ele>
        <time>2017-12-15T23:38:32Z</time>
      </trkpt>
      <trkpt lat="44.9821" lon="5.58478">
        <ele>1036</ele>
        <time>2017-12-15T23:38:47Z</time>
      </trkpt>
      <trkpt lat="44.98221" lon="5.58493">
        <ele>1036</ele>
        <time>2017-12-15T23:39:01Z</time>
      </trkpt>
      <trkpt lat="44.98253" lon="5.58521">
        <ele>1038</ele>
        <time>2017-12-15T23:39:04Z</time>
      </trkpt>
      <trkpt lat="44.98265" lon="5.58533">
        <ele>1038</ele>
        <time>2017-12-15T23:39:10Z</time>
      </trkpt>
      <trkpt lat="44.98274" lon="5.58545">
        <ele>1037</ele>
        <time>2017-12-15T23:39:28Z</time>
      </trkpt>
      <trkpt lat="44.98282" lon="5.5856">
        <ele>1037</ele>
        <time>2017-12-15T23:39:40Z</time>
      </trkpt>
      <trkpt lat="44.98288" lon="5.5858">
        <ele>1036</ele>
        <time>2017-12-15T23:39:59Z</time>
      </trkpt>
      <trkpt lat="44.98304" lon="5.58622">
        <ele>1028</ele>
        <time>2017-12-15T23:40:16Z</time>
      </trkpt>
      <trkpt lat="44.98318" lon="5.5865">
        <ele>1027</ele>
        <time>2017-12-15T23:40:35Z</time>
      </trkpt>
      <trkpt lat="44.98321" lon="5.5866">
        <ele>1027</ele>
        <time>2017-12-15T23:40:55Z</time>
      </trkpt>
      <trkpt lat="44.98318" lon="5.58672">
        <ele>1023</ele>
        <time>2017-12-15T23:41:02Z</time>
      </trkpt>
      <trkpt lat="44.98312" lon="5.58677">
        <ele>1022</ele>
        <time>2017-12-15T23:41:21Z</time>
      </trkpt>
      <trkpt lat="44.98307" lon="5.58677">
        <ele>1021</ele>
        <time>2017-12-15T23:41:36Z</time>
      </trkpt>
      <trkpt lat="44.98302" lon="5.58672">
        <ele>1021</ele>
        <time>2017-12-15T23:41:56Z</time>
      </trkpt>
      <trkpt lat="44.98288" lon="5.58653">
        <ele>1024</ele>
        <time>2017-12-15T23:42:10Z</time>
      </trkpt>
      <trkpt lat="44.98269" lon="5.58623">
        <ele>1024</ele>
        <time>2017-12-15T23:42:27Z</time>
      </trkpt>
      <trkpt lat="44.98254" lon="5.58608">
        <ele>1024</ele>
        <time>2017-12-15T23:42:44Z</time>
      </trkpt>
      <trkpt lat="44.98244" lon="5.586">
        <ele>1018</ele>
        <time>2017-12-15T23:42:55Z</time>
      </trkpt>
      <trkpt lat="44.98211" lon="5.58582">
        <ele>1020</ele>
        <time>2017-12-15T23:43:07Z</time>
      </trkpt>
      <trkpt lat="44.98182" lon="5.58571">
        <ele>1016</ele>
        <time>2017-12-15T23:43:11Z</time>
      </trkpt>
      <trkpt lat="44.98169" lon="5.5856">
        <ele>1017</ele>
        <time>2017-12-15T23:43:28Z</time>
      </trkpt>
      <trkpt lat="44.98158" lon="5.58548">
        <ele>1007</ele>
        <time>2017-12-15T23:43:31Z</time>
      </trkpt>
      <trkpt lat="44.98154" lon="5.58543">
        <ele>1007</ele>
        <time>2017-12-15T23:43:51Z</time>
      </trkpt>
      <trkpt lat="44.98141" lon="5.5852">
        <ele>1008</ele>
        <time>2017-12-15T23:44:04Z</time>
      </trkpt>
      <trkpt lat="44.98116" lon="5.58471">
        <ele>1010</ele>
        <time>2017-12-15T23:44:19Z</time>
      </trkpt>
      <trkpt lat="44.98086" lon="5.58416">
        <ele>1005</ele>
        <time>2017-12-15T23:44:26Z</time>
      </trkpt>
      <trkpt lat="44.98076" lon="5.58403">
        <ele>1001</ele>
        <time>2017-12-15T23:44:38Z</time>
      </trkpt>
      <trkpt lat="44.98066" lon="5.58395">
        <ele>1001</ele>
        <time>2017-12-15T23:44:56Z</time>
      </trkpt>
      <trkpt lat="44.98049" lon="5.58381">
        <ele>1000</ele>
        <time>2017-12-15T23:45:00Z</time>
      </trkpt>
      <trkpt lat="44.97967" lon="5.58319">
        <ele>994</ele>
        <time>2017-12-15T23:45:05Z</time>
      </trkpt>
      <trkpt lat="44.97832" lon="5.58216">
        <ele>970</ele>
        <time>2017-12-15T23:45:24Z</time>
      </trkpt>
      <trkpt lat="44.97768" lon="5.58167">
        <ele>965</ele>
        <time>2017-12-15T23:45:37Z</time>
      </trkpt>
      <trkpt lat="44.97717" lon="5.5813">
        <ele>960</ele>
        <time>2017-12-15T23:45:40Z</time>
      </trkpt>
      <trkpt lat="44.97675" lon="5.58096">
        <ele>958</ele>
        <time>2017-12-15T23:45:53Z</time>
      </trkpt>
      <trkpt lat="44.9765" lon="5.58063">
        <ele>952</ele>
        <time>2017-12-15T23:46:03Z</time>
      </trkpt>
      <trkpt lat="44.97636" lon="5.58042">
        <ele>950</ele>
        <time>2017-12-15T23:46:09Z</time>
      </trkpt>
      <trkpt lat="44.97628" lon="5.58022">
        <ele>950</ele>
        <time>2017-12-15T23:46:13Z</time>
      </trkpt>
      <trkpt lat="44.97624" lon="5.57997">
        <ele>949</ele>
        <time>2017-12-15T23:46:23Z</time>
      </trkpt>
      <trkpt lat="44.97623" lon="5.57969">
        <ele>949</ele>
        <time>2017-12-15T23:46:42Z</time>
      </trkpt>
      <trkpt lat="44.97628" lon="5.57936">
        <ele>948</ele>
        <time>2017-12-15T23:46:47Z</time>
      </trkpt>
      <trkpt lat="44.97637" lon="5.57905">
        <ele>942</ele>
        <time>2017-12-15T23:46:59Z</time>
      </trkpt>
      <trkpt lat="44.97661" lon="5.57847">
        <ele>938</ele>
        <time>2017-12-15T23:47:01Z</time>
      </trkpt>
      <trkpt lat="44.97678" lon="5.57817">
        <ele>938</ele>
        <time>2017-12-15T23:47:06Z</time>
      </trkpt>
      <trkpt lat="44.97695" lon="5.57792">
        <ele>938</ele>
        <time>2017-12-15T23:47:19Z</time>
      </trkpt>
      <trkpt lat="44.9773" lon="5.57751">
        <ele>937</ele>
        <time>2017-12-15T23:47:34Z</time>
      </trkpt>
      <trkpt lat="44.97737" lon="5.57742">
        <ele>938</ele>
        <time>2017-12-15T23:47:48Z</time>
      </trkpt>
      <trkpt lat="44.97739" lon="5.5773">
        <ele>939</ele>
        <time>2017-12-15T23:48:00Z</time>
      </trkpt>
      <trkpt lat="44.97739" lon="5.57716">
        <ele>942</ele>
        <time>2017-12-15T23:48:06Z</time>
      </trkpt>
      <trkpt lat="44.97734" lon="5.57707">
        <ele>943</ele>
        <time>2017-12-15T23:48:14Z</time>
      </trkpt>
      <trkpt lat="44.97727" lon="5.57701">
        <ele>944</ele>
        <time>2017-12-15T23:48:28Z</time>
      </trkpt>
      <trkpt lat="44.97715" lon="5.57697">
        <ele>943</ele>
        <time>2017-12-15T23:48:45Z</time>
      </trkpt>
      <trkpt lat="44.97686" lon="5.57695">
        <ele>942</ele>
        <time>2017-12-15T23:48:58Z</time>
      </trkpt>
      <trkpt lat="44.97655" lon="5.57692">
        <ele>934</ele>
        <time>2017-12-15T23:49:00Z</time>
      </trkpt>
      <trkpt lat="44.97641" lon="5.57688">
        <ele>932</ele>
        <time>2017-12-15T23:49:04Z</time>
      </trkpt>
      <trkpt lat="44.97623" lon="5.57681">
        <ele>930</ele>
        <time>2017-12-15T23:49:15Z</time>
      </trkpt>
      <trkpt lat="44.97587" lon="5.57656">
        <ele>928</ele>
        <time>2017-12-15T23:49:17Z</time>
      </trkpt>
      <trkpt lat="44.97552" lon="5.57631">
        <ele>917</ele>
        <time>2017-12-15T23:49:23Z</time>
      </trkpt>
      <trkpt lat="44.97521" lon="5.57621">
        <ele>914</ele>
        <time>2017-12-15T23:49:30Z</time>
      </trkpt>
      <trkpt lat="44.9749" lon="5.5762">
        <ele>906</ele>
        <time>2017-12-15T23:49:40Z</time>
      </trkpt>
      <trkpt lat="44.97475" lon="5.57623">
        <ele>906</ele>
        <time>2017-12-15T23:50:00Z</time>
      </trkpt>
      <trkpt lat="44.97475" lon="5.57613">
        <ele>906</ele>
        <time>2017-12-15T23:50:03Z</time>
      </trkpt>
      <trkpt lat="44.97478" lon="5.576">
        <ele>906</ele>
        <time>2017-12-15T23:50:13Z</time>
      </trkpt>
      <trkpt lat="44.97486" lon="5.57576">
        <ele>904</ele>
        <time>2017-12-15T23:50:33Z</time>
      </trkpt>
      <trkpt lat="44.97498" lon="5.5754">
        <ele>902</ele>
        <time>2017-12-15T23:50:38Z</time>
      </trkpt>
      <trkpt lat="44.97508" lon="5.5751">
        <ele>906</ele>
        <time>2017-12-15T23:50:43Z</time>
      </trkpt>
      <trkpt lat="44.97522" lon="5.57478">
        <ele>908</ele>
        <time>2017-12-15T23:50:53Z</time>
      </trkpt>
      <trkpt lat="44.97534" lon="5.57459">
        <ele>910</ele>
        <time>2017-12-15T23:50:58Z</time>
      </trkpt>
      <trkpt lat="44.97536" lon="5.57447">
        <ele>910</ele>
        <time>2017-12-15T23:51:03Z</time>
      </trkpt>
      <trkpt lat="44.97534" lon="5.57433">
        <ele>910</ele>
        <time>2017-12-15T23:51:13Z</time>
      </trkpt>
      <trkpt lat="44.97527" lon="5.57422">
        <ele>910</ele>
        <time>2017-12-15T23:51:27Z</time>
      </trkpt>
      <trkpt lat="44.97516" lon="5.57417">
        <ele>909</ele>
        <time>2017-12-15T23:51:39Z</time>
      </trkpt>
      <trkpt lat="44.97502" lon="5.57416">
        <ele>909</ele>
        <time>2017-12-15T23:51:54Z</time>
      </trkpt>
      <trkpt lat="44.97486" lon="5.57417">
        <ele>905</ele>
        <time>2017-12-15T23:51:58Z</time>
      </trkpt>
      <trkpt lat="44.97469" lon="5.57414">
        <ele>907</ele>
        <time>2017-12-15T23:52:14Z</time>
      </trkpt>
      <trkpt lat="44.97454" lon="5.57408">
        <ele>906</ele>
        <time>2017-12-15T23:52:34Z</time>
      </trkpt>
      <trkpt lat="44.9744" lon="5.57399">
        <ele>905</ele>
        <time>2017-12-15T23:52:52Z</time>
      </trkpt>
      <trkpt lat="44.97429" lon="5.57388">
        <ele>905</ele>
        <time>2017-12-15T23:53:06Z</time>
      </trkpt>
      <trkpt lat="44.97418" lon="5.57373">
        <ele>906</ele>
        <time>2017-12-15T23:53:22Z</time>
      </trkpt>
      <trkpt lat="44.97412" lon="5.57358">
        <ele>900</ele>
        <time>2017-12-15T23:53:31Z</time>
      </trkpt>
      <trkpt lat="44.97408" lon="5.57343">
        <ele>902</ele>
        <time>2017-12-15T23:53:47Z</time>
      </trkpt>
      <trkpt lat="44.9741" lon="5.57317">
        <ele>903</ele>
        <time>2017-12-15T23:54:01Z</time>
      </trkpt>
      <trkpt lat="44.9742" lon="5.57299">
        <ele>908</ele>
        <time>2017-12-15T23:54:10Z</time>
      </trkpt>
      <trkpt lat="44.97442" lon="5.57276">
        <ele>908</ele>
        <time>2017-12-15T23:54:19Z</time>
      </trkpt>
      <trkpt lat="44.97486" lon="5.57244">
        <ele>911</ele>
        <time>2017-12-15T23:54:34Z</time>
      </trkpt>
      <trkpt lat="44.97497" lon="5.57234">
        <ele>911</ele>
        <time>2017-12-15T23:54:49Z</time>
      </trkpt>
      <trkpt lat="44.97503" lon="5.57225">
        <ele>916</ele>
        <time>2017-12-15T23:54:56Z</time>
      </trkpt>
      <trkpt lat="44.97506" lon="5.57213">
        <ele>917</ele>
        <time>2017-12-15T23:55:16Z</time>
      </trkpt>
      <trkpt lat="44.97505" lon="5.572">
        <ele>917</ele>
        <time>2017-12-15T23:55:33Z</time>
      </trkpt>
      <trkpt lat="44.975" lon="5.57189">
        <ele>917</ele>
        <time>2017-12-15T23:55:44Z</time>
      </trkpt>
      <trkpt lat="44.97496" lon="5.57185">
        <ele>912</ele>
        <time>2017-12-15T23:56:04Z</time>
      </trkpt>
      <trkpt lat="44.9749" lon="5.57183">
        <ele>912</ele>
        <time>2017-12-15T23:56:07Z</time>
      </trkpt>
      <trkpt lat="44.97473" lon="5.57184">
        <ele>911</ele>
        <time>2017-12-15T23:56:21Z</time>
      </trkpt>
      <trkpt lat="44.9744" lon="5.57191">
        <ele>910</ele>
        <time>2017-12-15T23:56:34Z</time>
      </trkpt>
      <trkpt lat="44.97424" lon="5.57192">
        <ele>909</ele>
        <time>2017-12-15T23:56:48Z</time>
      </trkpt>
      <trkpt lat="44.97416" lon="5.57191">
        <ele>905</ele>
        <time>2017-12-15T23:56:59Z</time>
      </trkpt>
      <trkpt lat="44.97409" lon="5.57183">
        <ele>906</ele>
        <time>2017-12-15T23:57:01Z</time>
      </trkpt>
      <trkpt lat="44.97401" lon="5.57156">
        <ele>909</ele>
        <time>2017-12-15T23:57:13Z</time>
      </trkpt>
      <trkpt lat="44.97394" lon="5.57126">
        <ele>909</ele>
        <time>2017-12-15T23:57:29Z</time>
      </trkpt>
      <trkpt lat="44.97386" lon="5.57085">
        <ele>910</ele>
        <time>2017-12-15T23:57:35Z</time>
      </trkpt>
      <trkpt lat="44.97384" lon="5.57053">
        <ele>916</ele>
        <time>2017-12-15T23:57:50Z</time>
      </trkpt>
      <trkpt lat="44.97379" lon="5.57027">
        <ele>918</ele>
        <time>2017-12-15T23:58:02Z</time>
      </trkpt>
      <trkpt lat="44.97374" lon="5.57011">
        <ele>918</ele>
        <time>2017-12-15T23:58:22Z</time>
      </trkpt>
      <trkpt lat="44.97366" lon="5.56996">
        <ele>926</ele>
        <time>2017-12-15T23:58:31Z</time>
      </trkpt>
      <trkpt lat="44.97359" lon="5.56985">
        <ele>926</ele>
        <time>2017-12-15T23:58:39Z</time>
      </trkpt>
      <trkpt lat="44.97351" lon="5.56975">
        <ele>926</ele>
        <time>2017-12-15T23:58:51Z</time>
      </trkpt>
      <trkpt lat="44.97341" lon="5.5697">
        <ele>926</ele>
        <time>2017-12-15T23:58:59Z</time>
      </trkpt>
      <trkpt lat="44.97333" lon="5.56968">
        <ele>925</ele>
        <time>2017-12-15T23:59:10Z</time>
      </trkpt>
      <trkpt lat="44.97307" lon="5.56972">
        <ele>925</ele>
        <time>2017-12-15T23:59:13Z</time>
      </trkpt>
      <trkpt lat="44.97279" lon="5.56981">
        <ele>926</ele>
        <time>2017-12-15T23:59:20Z</time>
      </trkpt>
      <trkpt lat="44.9727" lon="5.5698">
        <ele>926</ele>
        <time>2017-12-15T23:59:38Z</time>
      </trkpt>
      <trkpt lat="44.97264" lon="5.56977">
        <ele>926</ele>
        <time>2017-12-15T23:59:54Z</time>
      </trkpt>
      <trkpt lat="44.97259" lon="5.56962">
        <ele>927</ele>
        <time>2017-12-16T00:00:03Z</time>
      </trkpt>
      <trkpt lat="44.97259" lon="5.56942">
        <ele>930</ele>
        <time>2017-12-16T00:00:19Z</time>
      </trkpt>
      <trkpt lat="44.97259" lon="5.56892">
        <ele>931</ele>
        <time>2017-12-16T00:00:24Z</time>
      </trkpt>
      <trkpt lat="44.97262" lon="5.56875">
        <ele>929</ele>
        <time>2017-12-16T00:00:36Z</time>
      </trkpt>
      <trkpt lat="44.97268" lon="5.56863">
        <ele>927</ele>
        <time>2017-12-16T00:00:55Z</time>
      </trkpt>
      <trkpt lat="44.97277" lon="5.56854">
        <ele>927</ele>
        <time>2017-12-16T00:01:14Z</time>
      </trkpt>
      <trkpt lat="44.97289" lon="5.56848">
        <ele>928</ele>
        <time>2017-12-16T00:01:27Z</time>
      </trkpt>
      <trkpt lat="44.97328" lon="5.5683">
        <ele>930</ele>
        <time>2017-12-16T00:01:29Z</time>
      </trkpt>
      <trkpt lat="44.97345" lon="5.56822">
        <ele>936</ele>
        <time>2017-12-16T00:01:43Z</time>
      </trkpt>
      <trkpt lat="44.97356" lon="5.56813">
        <ele>938</ele>
        <time>2017-12-16T00:01:57Z</time>
      </trkpt>
      <trkpt lat="44.9737" lon="5.56796">
        <ele>940</ele>
        <time>2017-12-16T00:02:03Z</time>
      </trkpt>
      <trkpt lat="44.97382" lon="5.56784">
        <ele>941</ele>
        <time>2017-12-16T00:02:06Z</time>
      </trkpt>
      <trkpt lat="44.97392" lon="5.56767">
        <ele>942</ele>
        <time>2017-12-16T00:02:15Z</time>
      </trkpt>
      <trkpt lat="44.97397" lon="5.56752">
        <ele>944</ele>
        <time>2017-12-16T00:02:32Z</time>
      </trkpt>
      <trkpt lat="44.97405" lon="5.56716">
        <ele>949</ele>
        <time>2017-12-16T00:02:39Z</time>
      </trkpt>
      <trkpt lat="44.97409" lon="5.56702">
        <ele>951</ele>
        <time>2017-12-16T00:02:55Z</time>
      </trkpt>
      <trkpt lat="44.97407" lon="5.56691">
        <ele>952</ele>
        <time>2017-12-16T00:03:06Z</time>
      </trkpt>
      <trkpt lat="44.97396" lon="5.5668">
        <ele>952</ele>
        <time>2017-12-16T00:03:14Z</time>
      </trkpt>
      <trkpt lat="44.97385" lon="5.5668">
        <ele>952</ele>
        <time>2017-12-16T00:03:23Z</time>
      </trkpt>
      <trkpt lat="44.97372" lon="5.56691">
        <ele>951</ele>
        <time>2017-12-16T00:03:31Z</time>
      </trkpt>
      <trkpt lat="44.97356" lon="5.5671">
        <ele>948</ele>
        <time>2017-12-16T00:03:38Z</time>
      </trkpt>
      <trkpt lat="44.9734" lon="5.56725">
        <ele>944</ele>
        <time>2017-12-16T00:03:45Z</time>
      </trkpt>
      <trkpt lat="44.97329" lon="5.56734">
        <ele>939</ele>
        <time>2017-12-16T00:03:53Z</time>
      </trkpt>
      <trkpt lat="44.97316" lon="5.56736">
        <ele>940</ele>
        <time>2017-12-16T00:03:55Z</time>
      </trkpt>
      <trkpt lat="44.97287" lon="5.56731">
        <ele>943</ele>
        <time>2017-12-16T00:04:03Z</time>
      </trkpt>
      <trkpt lat="44.97272" lon="5.56728">
        <ele>942</ele>
        <time>2017-12-16T00:04:10Z</time>
      </trkpt>
      <trkpt lat="44.97246" lon="5.5673">
        <ele>935</ele>
        <time>2017-12-16T00:04:14Z</time>
      </trkpt>
      <trkpt lat="44.97227" lon="5.56727">
        <ele>935</ele>
        <time>2017-12-16T00:04:28Z</time>
      </trkpt>
      <trkpt lat="44.97208" lon="5.5672">
        <ele>934</ele>
        <time>2017-12-16T00:04:32Z</time>
      </trkpt>
      <trkpt lat="44.97197" lon="5.56711">
        <ele>935</ele>
        <time>2017-12-16T00:04:50Z</time>
      </trkpt>
      <trkpt lat="44.97185" lon="5.56689">
        <ele>937</ele>
        <time>2017-12-16T00:05:09Z</time>
      </trkpt>
      <trkpt lat="44.9716" lon="5.56645">
        <ele>939</ele>
        <time>2017-12-16T00:05:16Z</time>
      </trkpt>
      <trkpt lat="44.97143" lon="5.56602">
        <ele>944</ele>
        <time>2017-12-16T00:05:23Z</time>
      </trkpt>
      <trkpt lat="44.97139" lon="5.56592">
        <ele>944</ele>
        <time>2017-12-16T00:05:27Z</time>
      </trkpt>
      <trkpt lat="44.97126" lon="5.56573">
        <ele>952</ele>
        <time>2017-12-16T00:05:45Z</time>
      </trkpt>
      <trkpt lat="44.97108" lon="5.56554">
        <ele>950</ele>
        <time>2017-12-16T00:06:03Z</time>
      </trkpt>
      <trkpt lat="44.97085" lon="5.56536">
        <ele>949</ele>
        <time>2017-12-16T00:06:17Z</time>
      </trkpt>
      <trkpt lat="44.97065" lon="5.56524">
        <ele>938</ele>
        <time>2017-12-16T00:06:22Z</time>
      </trkpt>
      <trkpt lat="44.97053" lon="5.5651">
        <ele>938</ele>
        <time>2017-12-16T00:06:30Z</time>
      </trkpt>
      <trkpt lat="44.97047" lon="5.5649">
        <ele>941</ele>
        <time>2017-12-16T00:06:38Z</time>
      </trkpt>
      <trkpt lat="44.97047" lon="5.56472">
        <ele>941</ele>
        <time>2017-12-16T00:06:44Z</time>
      </trkpt>
      <trkpt lat="44.9705" lon="5.56447">
        <ele>941</ele>
        <time>2017-12-16T00:07:04Z</time>
      </trkpt>
      <trkpt lat="44.97064" lon="5.56356">
        <ele>938</ele>
        <time>2017-12-16T00:07:24Z</time>
      </trkpt>
      <trkpt lat="44.9707" lon="5.56337">
        <ele>938</ele>
        <time>2017-12-16T00:07:34Z</time>
      </trkpt>
      <trkpt lat="44.97074" lon="5.56328">
        <ele>935</ele>
        <time>2017-12-16T00:07:38Z</time>
      </trkpt>
      <trkpt lat="44.97086" lon="5.56312">
        <ele>937</ele>
        <time>2017-12-16T00:07:44Z</time>
      </trkpt>
      <trkpt lat="44.97098" lon="5.563">
        <ele>936</ele>
        <time>2017-12-16T00:07:51Z</time>
      </trkpt>
      <trkpt lat="44.97113" lon="5.5629">
        <ele>935</ele>
        <time>2017-12-16T00:08:09Z</time>
      </trkpt>
      <trkpt lat="44.97136" lon="5.56279">
        <ele>935</ele>
        <time>2017-12-16T00:08:19Z</time>
      </trkpt>
      <trkpt lat="44.97202" lon="5.56244">
        <ele>934</ele>
        <time>2017-12-16T00:08:22Z</time>
      </trkpt>
      <trkpt lat="44.97226" lon="5.56231">
        <ele>936</ele>
        <time>2017-12-16T00:08:40Z</time>
      </trkpt>
      <trkpt lat="44.97262" lon="5.56207">
        <ele>944</ele>
        <time>2017-12-16T00:09:00Z</time>
      </trkpt>
      <trkpt lat="44.97293" lon="5.56182">
        <ele>945</ele>
        <time>2017-12-16T00:09:09Z</time>
      </trkpt>
      <trkpt lat="44.9731" lon="5.56164">
        <ele>944</ele>
        <time>2017-12-16T00:09:16Z</time>
      </trkpt>
      <trkpt lat="44.97319" lon="5.56146">
        <ele>945</ele>
        <time>2017-12-16T00:09:21Z</time>
      </trkpt>
      <trkpt lat="44.97324" lon="5.56127">
        <ele>944</ele>
        <time>2017-12-16T00:09:37Z</time>
      </trkpt>
      <trkpt lat="44.97326" lon="5.56109">
        <ele>945</ele>
        <time>2017-12-16T00:09:53Z</time>
      </trkpt>
      <trkpt lat="44.97324" lon="5.56097">
        <ele>945</ele>
        <time>2017-12-16T00:10:08Z</time>
      </trkpt>
      <trkpt lat="44.97319" lon="5.56079">
        <ele>950</ele>
        <time>2017-12-16T00:10:20Z</time>
      </trkpt>
      <trkpt lat="44.97313" lon="5.56072">
        <ele>951</ele>
        <time>2017-12-16T00:10:35Z</time>
      </trkpt>
      <trkpt lat="44.97306" lon="5.56069">
        <ele>951</ele>
        <time>2017-12-16T00:10:40Z</time>
      </trkpt>
      <trkpt lat="44.97267" lon="5.56078">
        <ele>948</ele>
        <time>2017-12-16T00:10:52Z</time>
      </trkpt>
      <trkpt lat="44.97245" lon="5.56085">
        <ele>940</ele>
        <time>2017-12-16T00:11:08Z</time>
      </trkpt>
      <trkpt lat="44.97231" lon="5.56084">
        <ele>937</ele>
        <time>2017-12-16T00:11:28Z</time>
      </trkpt>
      <trkpt lat="44.97218" lon="5.56075">
        <ele>944</ele>
        <time>2017-12-16T00:11:37Z</time>
      </trkpt>
      <trkpt lat="44.97207" lon="5.56057">
        <ele>945</ele>
        <time>2017-12-16T00:11:54Z</time>
      </trkpt>
      <trkpt lat="44.97204" lon="5.56044">
        <ele>946</ele>
        <time>2017-12-16T00:11:56Z</time>
      </trkpt>
      <trkpt lat="44.97196" lon="5.55994">
        <ele>958</ele>
        <time>2017-12-16T00:12:16Z</time>
      </trkpt>
      <trkpt lat="44.97187" lon="5.55972">
        <ele>959</ele>
        <time>2017-12-16T00:12:25Z</time>
      </trkpt>
      <trkpt lat="44.97172" lon="5.55959">
        <ele>959</ele>
        <time>2017-12-16T00:12:28Z</time>
      </trkpt>
      <trkpt lat="44.97154" lon="5.55951">
        <ele>952</ele>
        <time>2017-12-16T00:12:38Z</time>
      </trkpt>
      <trkpt lat="44.97129" lon="5.55945">
        <ele>951</ele>
        <time>2017-12-16T00:12:40Z</time>
      </trkpt>
      <trkpt lat="44.97115" lon="5.55941">
        <ele>950</ele>
        <time>2017-12-16T00:12:50Z</time>
      </trkpt>
      <trkpt lat="44.97106" lon="5.55929">
        <ele>950</ele>
        <time>2017-12-16T00:13:08Z</time>
      </trkpt>
      <trkpt lat="44.97098" lon="5.55904">
        <ele>955</ele>
        <time>2017-12-16T00:13:25Z</time>
      </trkpt>
      <trkpt lat="44.97094" lon="5.5588">
        <ele>958</ele>
        <time>2017-12-16T00:13:37Z</time>
      </trkpt>
      <trkpt lat="44.97091" lon="5.55847">
        <ele>959</ele>
        <time>2017-12-16T00:13:56Z</time>
      </trkpt>
      <trkpt lat="44.97082" lon="5.55829">
        <ele>958</ele>
        <time>2017-12-16T00:14:09Z</time>
      </trkpt>
      <trkpt lat="44.97066" lon="5.55818">
        <ele>958</ele>
        <time>2017-12-16T00:14:26Z</time>
      </trkpt>
      <trkpt lat="44.97047" lon="5.55806">
        <ele>957</ele>
        <time>2017-12-16T00:14:30Z</time>
      </trkpt>
      <trkpt lat="44.97032" lon="5.55788">
        <ele>957</ele>
        <time>2017-12-16T00:14:42Z</time>
      </trkpt>
      <trkpt lat="44.97023" lon="5.55765">
        <ele>957</ele>
        <time>2017-12-16T00:14:52Z</time>
      </trkpt>
      <trkpt lat="44.9702" lon="5.55734">
        <ele>962</ele>
        <time>2017-12-16T00:15:09Z</time>
      </trkpt>
      <trkpt lat="44.97017" lon="5.55708">
        <ele>963</ele>
        <time>2017-12-16T00:15:15Z</time>
      </trkpt>
      <trkpt lat="44.97011" lon="5.55677">
        <ele>962</ele>
        <time>2017-12-16T00:15:30Z</time>
      </trkpt>
      <trkpt lat="44.97005" lon="5.55619">
        <ele>967</ele>
        <time>2017-12-16T00:15:50Z</time>
      </trkpt>
      <trkpt lat="44.97003" lon="5.55594">
        <ele>964</ele>
        <time>2017-12-16T00:16:05Z</time>
      </trkpt>
      <trkpt lat="44.96998" lon="5.55574">
        <ele>960</ele>
        <time>2017-12-16T00:16:13Z</time>
      </trkpt>
      <trkpt lat="44.96989" lon="5.55559">
        <ele>959</ele>
        <time>2017-12-16T00:16:33Z</time>
      </trkpt>
      <trkpt lat="44.96977" lon="5.55545">
        <ele>959</ele>
        <time>2017-12-16T00:16:38Z</time>
      </trkpt>
      <trkpt lat="44.96963" lon="5.55534">
        <ele>959</ele>
        <time>2017-12-16T00:16:51Z</time>
      </trkpt>
      <trkpt lat="44.96953" lon="5.55529">
        <ele>959</ele>
        <time>2017-12-16T00:16:53Z</time>
      </trkpt>
      <trkpt lat="44.96943" lon="5.55527">
        <ele>959</ele>
        <time>2017-12-16T00:17:10Z</time>
      </trkpt>
      <trkpt lat="44.96938" lon="5.55527">
        <ele>959</ele>
        <time>2017-12-16T00:17:16Z</time>
      </trkpt>
      <trkpt lat="44.96938" lon="5.55522">
        <ele>959</ele>
        <time>2017-12-16T00:17:31Z</time>
      </trkpt>
      <trkpt lat="44.96935" lon="5.55511">
        <ele>959</ele>
        <time>2017-12-16T00:17:41Z</time>
      </trkpt>
      <trkpt lat="44.96932" lon="5.55504">
        <ele>959</ele>
        <time>2017-12-16T00:17:59Z</time>
      </trkpt>
      <trkpt lat="44.96926" lon="5.55499">
        <ele>962</ele>
        <time>2017-12-16T00:18:08Z</time>
      </trkpt>
      <trkpt lat="44.96918" lon="5.555">
        <ele>960</ele>
        <time>2017-12-16T00:18:13Z</time>
      </trkpt>
      <trkpt lat="44.96887" lon="5.55508">
        <ele>958</ele>
        <time>2017-12-16T00:18:22Z</time>
      </trkpt>
      <trkpt lat="44.9687" lon="5.55506">
        <ele>958</ele>
        <time>2017-12-16T00:18:36Z</time>
      </trkpt>
      <trkpt lat="44.9685" lon="5.55503">
        <ele>960</ele>
        <time>2017-12-16T00:18:45Z</time>
      </trkpt>
      <trkpt lat="44.96812" lon="5.55497">
        <ele>966</ele>
        <time>2017-12-16T00:18:49Z</time>
      </trkpt>
      <trkpt lat="44.96769" lon="5.55497">
        <ele>969</ele>
        <time>2017-12-16T00:18:58Z</time>
      </trkpt>
      <trkpt lat="44.96754" lon="5.555">
        <ele>969</ele>
        <time>2017-12-16T00:19:16Z</time>
      </trkpt>
      <trkpt lat="44.96733" lon="5.5551">
        <ele>970</ele>
        <time>2017-12-16T00:19:25Z</time>
      </trkpt>
      <trkpt lat="44.967" lon="5.55522">
        <ele>972</ele>
        <time>2017-12-16T00:19:28Z</time>
      </trkpt>
      <trkpt lat="44.9668" lon="5.55534">
        <ele>973</ele>
        <time>2017-12-16T00:19:45Z</time>
      </trkpt>
      <trkpt lat="44.96669" lon="5.55548">
        <ele>973</ele>
        <time>2017-12-16T00:19:57Z</time>
      </trkpt>
      <trkpt lat="44.96662" lon="5.55566">
        <ele>976</ele>
        <time>2017-12-16T00:20:06Z</time>
      </trkpt>
      <trkpt lat="44.96661" lon="5.55585">
        <ele>975</ele>
        <time>2017-12-16T00:20:14Z</time>
      </trkpt>
      <trkpt lat="44.96666" lon="5.55606">
        <ele>977</ele>
        <time>2017-12-16T00:20:21Z</time>
      </trkpt>
      <trkpt lat="44.96671" lon="5.55624">
        <ele>972</ele>
        <time>2017-12-16T00:20:38Z</time>
      </trkpt>
      <trkpt lat="44.9667" lon="5.55636">
        <ele>973</ele>
        <time>2017-12-16T00:20:46Z</time>
      </trkpt>
      <trkpt lat="44.96666" lon="5.55643">
        <ele>978</ele>
        <time>2017-12-16T00:20:57Z</time>
      </trkpt>
      <trkpt lat="44.96658" lon="5.55645">
        <ele>979</ele>
        <time>2017-12-16T00:21:10Z</time>
      </trkpt>
      <trkpt lat="44.96651" lon="5.55637">
        <ele>979</ele>
        <time>2017-12-16T00:21:21Z</time>
      </trkpt>
      <trkpt lat="44.96643" lon="5.55622">
        <ele>978</ele>
        <time>2017-12-16T00:21:33Z</time>
      </trkpt>
      <trkpt lat="44.96635" lon="5.5561">
        <ele>978</ele>
        <time>2017-12-16T00:21:35Z</time>
      </trkpt>
      <trkpt lat="44.96622" lon="5.55599">
        <ele>979</ele>
        <time>2017-12-16T00:21:38Z</time>
      </trkpt>
      <trkpt lat="44.9661" lon="5.55588">
        <ele>979</ele>
        <time>2017-12-16T00:21:48Z</time>
      </trkpt>
      <trkpt lat="44.96595" lon="5.55568">
        <ele>979</ele>
        <time>2017-12-16T00:21:50Z</time>
      </trkpt>
      <trkpt lat="44.96583" lon="5.55547">
        <ele>981</ele>
        <time>2017-12-16T00:21:57Z</time>
      </trkpt>
      <trkpt lat="44.96568" lon="5.55515">
        <ele>982</ele>
        <time>2017-12-16T00:22:00Z</time>
      </trkpt>
      <trkpt lat="44.96555" lon="5.55484">
        <ele>984</ele>
        <time>2017-12-16T00:22:05Z</time>
      </trkpt>
      <trkpt lat="44.96541" lon="5.5546">
        <ele>985</ele>
        <time>2017-12-16T00:22:20Z</time>
      </trkpt>
      <trkpt lat="44.96527" lon="5.55436">
        <ele>987</ele>
        <time>2017-12-16T00:22:35Z</time>
      </trkpt>
      <trkpt lat="44.96519" lon="5.55429">
        <ele>987</ele>
        <time>2017-12-16T00:22:38Z</time>
      </trkpt>
      <trkpt lat="44.96509" lon="5.55425">
        <ele>988</ele>
        <time>2017-12-16T00:22:42Z</time>
      </trkpt>
      <trkpt lat="44.96477" lon="5.55422">
        <ele>988</ele>
        <time>2017-12-16T00:22:55Z</time>
      </trkpt>
      <trkpt lat="44.96445" lon="5.55421">
        <ele>988</ele>
        <time>2017-12-16T00:23:12Z</time>
      </trkpt>
      <trkpt lat="44.96426" lon="5.55423">
        <ele>989</ele>
        <time>2017-12-16T00:23:32Z</time>
      </trkpt>
      <trkpt lat="44.96414" lon="5.55425">
        <ele>990</ele>
        <time>2017-12-16T00:23:35Z</time>
      </trkpt>
      <trkpt lat="44.96396" lon="5.5543">
        <ele>990</ele>
        <time>2017-12-16T00:23:40Z</time>
      </trkpt>
      <trkpt lat="44.9635" lon="5.55445">
        <ele>992</ele>
        <time>2017-12-16T00:23:50Z</time>
      </trkpt>
      <trkpt lat="44.96332" lon="5.55448">
        <ele>998</ele>
        <time>2017-12-16T00:23:55Z</time>
      </trkpt>
      <trkpt lat="44.96313" lon="5.55449">
        <ele>998</ele>
        <time>2017-12-16T00:24:05Z</time>
      </trkpt>
      <trkpt lat="44.96254" lon="5.55444">
        <ele>1003</ele>
        <time>2017-12-16T00:24:18Z</time>
      </trkpt>
      <trkpt lat="44.96224" lon="5.55438">
        <ele>1008</ele>
        <time>2017-12-16T00:24:36Z</time>
      </trkpt>
      <trkpt lat="44.962" lon="5.55431">
        <ele>1010</ele>
        <time>2017-12-16T00:24:53Z</time>
      </trkpt>
      <trkpt lat="44.96186" lon="5.55427">
        <ele>1011</ele>
        <time>2017-12-16T00:25:11Z</time>
      </trkpt>
      <trkpt lat="44.96166" lon="5.55421">
        <ele>1016</ele>
        <time>2017-12-16T00:25:23Z</time>
      </trkpt>
      <trkpt lat="44.96146" lon="5.55411">
        <ele>1019</ele>
        <time>2017-12-16T00:25:36Z</time>
      </trkpt>
      <trkpt lat="44.96136" lon="5.55399">
        <ele>1019</ele>
        <time>2017-12-16T00:25:43Z</time>
      </trkpt>
      <trkpt lat="44.96126" lon="5.55379">
        <ele>1020</ele>
        <time>2017-12-16T00:25:48Z</time>
      </trkpt>
      <trkpt lat="44.96121" lon="5.55363">
        <ele>1020</ele>
        <time>2017-12-16T00:25:59Z</time>
      </trkpt>
      <trkpt lat="44.96123" lon="5.5535">
        <ele>1020</ele>
        <time>2017-12-16T00:26:07Z</time>
      </trkpt>
      <trkpt lat="44.9613" lon="5.55342">
        <ele>1021</ele>
        <time>2017-12-16T00:26:17Z</time>
      </trkpt>
      <trkpt lat="44.96135" lon="5.55332">
        <ele>1022</ele>
        <time>2017-12-16T00:26:35Z</time>
      </trkpt>
      <trkpt lat="44.9614" lon="5.55309">
        <ele>1022</ele>
        <time>2017-12-16T00:26:47Z</time>
      </trkpt>
      <trkpt lat="44.96139" lon="5.55284">
        <ele>1023</ele>
        <time>2017-12-16T00:27:06Z</time>
      </trkpt>
      <trkpt lat="44.96135" lon="5.55264">
        <ele>1023</ele>
        <time>2017-12-16T00:27:13Z</time>
      </trkpt>
      <trkpt lat="44.96128" lon="5.55243">
        <ele>1026</ele>
        <time>2017-12-16T00:27:25Z</time>
      </trkpt>
      <trkpt lat="44.96119" lon="5.55227">
        <ele>1026</ele>
        <time>2017-12-16T00:27:30Z</time>
      </trkpt>
      <trkpt lat="44.96099" lon="5.55203">
        <ele>1025</ele>
        <time>2017-12-16T00:27:36Z</time>
      </trkpt>
      <trkpt lat="44.96078" lon="5.55181">
        <ele>1017</ele>
        <time>2017-12-16T00:27:54Z</time>
      </trkpt>
      <trkpt lat="44.96052" lon="5.55149">
        <ele>1020</ele>
        <time>2017-12-16T00:28:10Z</time>
      </trkpt>
      <trkpt lat="44.96042" lon="5.55137">
        <ele>1020</ele>
        <time>2017-12-16T00:28:17Z</time>
      </trkpt>
      <trkpt lat="44.9603" lon="5.55127">
        <ele>1020</ele>
        <time>2017-12-16T00:28:37Z</time>
      </trkpt>
      <trkpt lat="44.96015" lon="5.55119">
        <ele>1019</ele>
        <time>2017-12-16T00:28:51Z</time>
      </trkpt>
      <trkpt lat="44.95987" lon="5.55109">
        <ele>1013</ele>
        <time>2017-12-16T00:29:02Z</time>
      </trkpt>
      <trkpt lat="44.95951" lon="5.55091">
        <ele>1012</ele>
        <time>2017-12-16T00:29:06Z</time>
      </trkpt>
      <trkpt lat="44.95929" lon="5.55079">
        <ele>1016</ele>
        <time>2017-12-16T00:29:13Z</time>
      </trkpt>
      <trkpt lat="44.95908" lon="5.55065">
        <ele>1013</ele>
        <time>2017-12-16T00:29:28Z</time>
      </trkpt>
      <trkpt lat="44.95888" lon="5.55047">
        <ele>1013</ele>
        <time>2017-12-16T00:29:35Z</time>
      </trkpt>
      <trkpt lat="44.95837" lon="5.54991">
        <ele>1017</ele>
        <time>2017-12-16T00:29:47Z</time>
      </trkpt>
      <trkpt lat="44.95816" lon="5.54963">
        <ele>1017</ele>
        <time>2017-12-16T00:30:03Z</time>
      </trkpt>
      <trkpt lat="44.95802" lon="5.54948">
        <ele>1018</ele>
        <time>2017-12-16T00:30:18Z</time>
      </trkpt>
      <trkpt lat="44.95783" lon="5.54931">
        <ele>1018</ele>
        <time>2017-12-16T00:30:26Z</time>
      </trkpt>
      <trkpt lat="44.95748" lon="5.54905">
        <ele>1018</ele>
        <time>2017-12-16T00:30:30Z</time>
      </trkpt>
      <trkpt lat="44.95724" lon="5.54884">
        <ele>1017</ele>
        <time>2017-12-16T00:30:40Z</time>
      </trkpt>
      <trkpt lat="44.95685" lon="5.54824">
        <ele>1020</ele>
        <time>2017-12-16T00:30:49Z</time>
      </trkpt>
      <trkpt lat="44.95677" lon="5.54813">
        <ele>1020</ele>
        <time>2017-12-16T00:31:07Z</time>
      </trkpt>
      <trkpt lat="44.95663" lon="5.548">
        <ele>1014</ele>
        <time>2017-12-16T00:31:21Z</time>
      </trkpt>
      <trkpt lat="44.95649" lon="5.54788">
        <ele>1015</ele>
        <time>2017-12-16T00:31:34Z</time>
      </trkpt>
      <trkpt lat="44.95639" lon="5.54782">
        <ele>1015</ele>
        <time>2017-12-16T00:31:43Z</time>
      </trkpt>
      <trkpt lat="44.95591" lon="5.54753">
        <ele>1015</ele>
        <time>2017-12-16T00:31:57Z</time>
      </trkpt>
      <trkpt lat="44.95579" lon="5.54744">
        <ele>1016</ele>
        <time>2017-12-16T00:32:07Z</time>
      </trkpt>
      <trkpt lat="44.95569" lon="5.54734">
        <ele>1017</ele>
        <time>2017-12-16T00:32:22Z</time>
      </trkpt>
      <trkpt lat="44.95553" lon="5.54704">
        <ele>1020</ele>
        <time>2017-12-16T00:32:42Z</time>
      </trkpt>
      <trkpt lat="44.95543" lon="5.54691">
        <ele>1021</ele>
        <time>2017-12-16T00:32:59Z</time>
      </trkpt>
      <trkpt lat="44.95533" lon="5.54686">
        <ele>1021</ele>
        <time>2017-12-16T00:33:06Z</time>
      </trkpt>
      <trkpt lat="44.95521" lon="5.54688">
        <ele>1021</ele>
        <time>2017-12-16T00:33:10Z</time>
      </trkpt>
      <trkpt lat="44.95464" lon="5.54715">
        <ele>1017</ele>
        <time>2017-12-16T00:33:29Z</time>
      </trkpt>
      <trkpt lat="44.9545" lon="5.54717">
        <ele>1017</ele>
        <time>2017-12-16T00:33:39Z</time>
      </trkpt>
      <trkpt lat="44.95436" lon="5.54711">
        <ele>1018</ele>
        <time>2017-12-16T00:33:41Z</time>
      </trkpt>
      <trkpt lat="44.95423" lon="5.54701">
        <ele>1019</ele>
        <time>2017-12-16T00:33:50Z</time>
      </trkpt>
      <trkpt lat="44.95415" lon="5.5469">
        <ele>1022</ele>
        <time>2017-12-16T00:34:05Z</time>
      </trkpt>
      <trkpt lat="44.95409" lon="5.54676">
        <ele>1025</ele>
        <time>2017-12-16T00:34:11Z</time>
      </trkpt>
      <trkpt lat="44.95401" lon="5.54666">
        <ele>1031</ele>
        <time>2017-12-16T00:34:30Z</time>
      </trkpt>
      <trkpt lat="44.95391" lon="5.5466">
        <ele>1032</ele>
        <time>2017-12-16T00:34:43Z</time>
      </trkpt>
      <trkpt lat="44.95384" lon="5.54659">
        <ele>1033</ele>
        <time>2017-12-16T00:34:53Z</time>
      </trkpt>
      <trkpt lat="44.95306" lon="5.54656">
        <ele>1031</ele>
        <time>2017-12-16T00:35:02Z</time>
      </trkpt>
      <trkpt lat="44.9528" lon="5.54656">
        <ele>1031</ele>
        <time>2017-12-16T00:35:09Z</time>
      </trkpt>
      <trkpt lat="44.95261" lon="5.54649">
        <ele>1031</ele>
        <time>2017-12-16T00:35:21Z</time>
      </trkpt>
      <trkpt lat="44.95241" lon="5.54643">
        <ele>1028</ele>
        <time>2017-12-16T00:35:38Z</time>
      </trkpt>
      <trkpt lat="44.95211" lon="5.54629">
        <ele>1028</ele>
        <time>2017-12-16T00:35:54Z</time>
      </trkpt>
      <trkpt lat="44.95188" lon="5.5461">
        <ele>1028</ele>
        <time>2017-12-16T00:36:06Z</time>
      </trkpt>
      <trkpt lat="44.95161" lon="5.54584">
        <ele>1029</ele>
        <time>2017-12-16T00:36:11Z</time>
      </trkpt>
      <trkpt lat="44.95133" lon="5.54557">
        <ele>1037</ele>
        <time>2017-12-16T00:36:18Z</time>
      </trkpt>
      <trkpt lat="44.95115" lon="5.54544">
        <ele>1038</ele>
        <time>2017-12-16T00:36:21Z</time>
      </trkpt>
      <trkpt lat="44.95102" lon="5.54538">
        <ele>1039</ele>
        <time>2017-12-16T00:36:28Z</time>
      </trkpt>
      <trkpt lat="44.9509" lon="5.54542">
        <ele>1038</ele>
        <time>2017-12-16T00:36:45Z</time>
      </trkpt>
      <trkpt lat="44.95081" lon="5.54553">
        <ele>1044</ele>
        <time>2017-12-16T00:36:51Z</time>
      </trkpt>
      <trkpt lat="44.95074" lon="5.54586">
        <ele>1034</ele>
        <time>2017-12-16T00:37:07Z</time>
      </trkpt>
      <trkpt lat="44.9507" lon="5.54613">
        <ele>1037</ele>
        <time>2017-12-16T00:37:24Z</time>
      </trkpt>
      <trkpt lat="44.95063" lon="5.54632">
        <ele>1038</ele>
        <time>2017-12-16T00:37:39Z</time>
      </trkpt>
      <trkpt lat="44.95013" lon="5.54737">
        <ele>1033</ele>
        <time>2017-12-16T00:37:41Z</time>
      </trkpt>
      <trkpt lat="44.95" lon="5.54759">
        <ele>1029</ele>
        <time>2017-12-16T00:37:50Z</time>
      </trkpt>
      <trkpt lat="44.94977" lon="5.54772">
        <ele>1031</ele>
        <time>2017-12-16T00:37:52Z</time>
      </trkpt>
      <trkpt lat="44.94941" lon="5.5479">
        <ele>1031</ele>
        <time>2017-12-16T00:37:59Z</time>
      </trkpt>
      <trkpt lat="44.94919" lon="5.54801">
        <ele>1030</ele>
        <time>2017-12-16T00:38:14Z</time>
      </trkpt>
      <trkpt lat="44.9491" lon="5.54801">
        <ele>1030</ele>
        <time>2017-12-16T00:38:20Z</time>
      </trkpt>
      <trkpt lat="44.94901" lon="5.54796">
        <ele>1030</ele>
        <time>2017-12-16T00:38:39Z</time>
      </trkpt>
      <trkpt lat="44.94882" lon="5.54777">
        <ele>1032</ele>
        <time>2017-12-16T00:38:59Z</time>
      </trkpt>
      <trkpt lat="44.94844" lon="5.54736">
        <ele>1045</ele>
        <time>2017-12-16T00:39:18Z</time>
      </trkpt>
      <trkpt lat="44.94829" lon="5.54725">
        <ele>1046</ele>
        <time>2017-12-16T00:39:24Z</time>
      </trkpt>
      <trkpt lat="44.94789" lon="5.54706">
        <ele>1050</ele>
        <time>2017-12-16T00:39:28Z</time>
      </trkpt>
      <trkpt lat="44.94776" lon="5.54702">
        <ele>1051</ele>
        <time>2017-12-16T00:39:48Z</time>
      </trkpt>
      <trkpt lat="44.94765" lon="5.54704">
        <ele>1051</ele>
        <time>2017-12-16T00:39:59Z</time>
      </trkpt>
      <trkpt lat="44.94751" lon="5.54711">
        <ele>1049</ele>
        <time>2017-12-16T00:40:19Z</time>
      </trkpt>
      <trkpt lat="44.94717" lon="5.54742">
        <ele>1044</ele>
        <time>2017-12-16T00:40:32Z</time>
      </trkpt>
      <trkpt lat="44.94697" lon="5.54756">
        <ele>1028</ele>
        <time>2017-12-16T00:40:36Z</time>
      </trkpt>
      <trkpt lat="44.94686" lon="5.54759">
        <ele>1029</ele>
        <time>2017-12-16T00:40:52Z</time>
      </trkpt>
      <trkpt lat="44.94675" lon="5.54757">
        <ele>1032</ele>
        <time>2017-12-16T00:41:02Z</time>
      </trkpt>
      <trkpt lat="44.94665" lon="5.54749">
        <ele>1037</ele>
        <time>2017-12-16T00:41:08Z</time>
      </trkpt>
      <trkpt lat="44.94646" lon="5.54728">
        <ele>1037</ele>
        <time>2017-12-16T00:41:16Z</time>
      </trkpt>
      <trkpt lat="44.9462" lon="5.54695">
        <ele>1038</ele>
        <time>2017-12-16T00:41:28Z</time>
      </trkpt>
      <trkpt lat="44.94613" lon="5.54683">
        <ele>1039</ele>
        <time>2017-12-16T00:41:43Z</time>
      </trkpt>
      <trkpt lat="44.94603" lon="5.5466">
        <ele>1049</ele>
        <time>2017-12-16T00:42:01Z</time>
      </trkpt>
      <trkpt lat="44.94588" lon="5.5461">
        <ele>1054</ele>
        <time>2017-12-16T00:42:17Z</time>
      </trkpt>
      <trkpt lat="44.94573" lon="5.54579">
        <ele>1051</ele>
        <time>2017-12-16T00:42:19Z</time>
      </trkpt>
      <trkpt lat="44.94552" lon="5.54544">
        <ele>1048</ele>
        <time>2017-12-16T00:42:26Z</time>
      </trkpt>
      <trkpt lat="44.94539" lon="5.54516">
        <ele>1048</ele>
        <time>2017-12-16T00:42:42Z</time>
      </trkpt>
      <trkpt lat="44.9453" lon="5.54492">
        <ele>1054</ele>
        <time>2017-12-16T00:42:52Z</time>
      </trkpt>
      <trkpt lat="44.94513" lon="5.54447">
        <ele>1056</ele>
        <time>2017-12-16T00:43:02Z</time>
      </trkpt>
      <trkpt lat="44.94495" lon="5.54401">
        <ele>1052</ele>
        <time>2017-12-16T00:43:17Z</time>
      </trkpt>
      <trkpt lat="44.94486" lon="5.54389">
        <ele>1054</ele>
        <time>2017-12-16T00:43:20Z</time>
      </trkpt>
      <trkpt lat="44.94474" lon="5.54378">
        <ele>1054</ele>
        <time>2017-12-16T00:43:35Z</time>
      </trkpt>
      <trkpt lat="44.94466" lon="5.54375">
        <ele>1055</ele>
        <time>2017-12-16T00:43:41Z</time>
      </trkpt>
      <trkpt lat="44.94453" lon="5.54378">
        <ele>1054</ele>
        <time>2017-12-16T00:43:50Z</time>
      </trkpt>
      <trkpt lat="44.94428" lon="5.54407">
        <ele>1051</ele>
        <time>2017-12-16T00:44:05Z</time>
      </trkpt>
      <trkpt lat="44.9442" lon="5.54416">
        <ele>1049</ele>
        <time>2017-12-16T00:44:15Z</time>
      </trkpt>
      <trkpt lat="44.944" lon="5.54427">
        <ele>1044</ele>
        <time>2017-12-16T00:44:31Z</time>
      </trkpt>
      <trkpt lat="44.94365" lon="5.54438">
        <ele>1041</ele>
        <time>2017-12-16T00:44:41Z</time>
      </trkpt>
      <trkpt lat="44.94341" lon="5.54438">
        <ele>1041</ele>
        <time>2017-12-16T00:44:48Z</time>
      </trkpt>
      <trkpt lat="44.94301" lon="5.54429">
        <ele>1037</ele>
        <time>2017-12-16T00:45:07Z</time>
      </trkpt>
      <trkpt lat="44.94277" lon="5.54421">
        <ele>1035</ele>
        <time>2017-12-16T00:45:21Z</time>
      </trkpt>
      <trkpt lat="44.94268" lon="5.54414">
        <ele>1041</ele>
        <time>2017-12-16T00:45:28Z</time>
      </trkpt>
      <trkpt lat="44.94258" lon="5.54399">
        <ele>1042</ele>
        <time>2017-12-16T00:45:38Z</time>
      </trkpt>
      <trkpt lat="44.94246" lon="5.54376">
        <ele>1042</ele>
        <time>2017-12-16T00:45:54Z</time>
      </trkpt>
      <trkpt lat="44.94232" lon="5.54355">
        <ele>1045</ele>
        <time>2017-12-16T00:46:03Z</time>
      </trkpt>
      <trkpt lat="44.94218" lon="5.54342">
        <ele>1045</ele>
        <time>2017-12-16T00:46:15Z</time>
      </trkpt>
      <trkpt lat="44.94206" lon="5.54327">
        <ele>1055</ele>
        <time>2017-12-16T00:46:27Z</time>
      </trkpt>
      <trkpt lat="44.94198" lon="5.54314">
        <ele>1055</ele>
        <time>2017-12-16T00:46:35Z</time>
      </trkpt>
      <trkpt lat="44.94187" lon="5.54304">
        <ele>1056</ele>
        <time>2017-12-16T00:46:45Z</time>
      </trkpt>
      <trkpt lat="44.94174" lon="5.54304">
        <ele>1055</ele>
        <time>2017-12-16T00:46:49Z</time>
      </trkpt>
      <trkpt lat="44.94162" lon="5.54313">
        <ele>1057</ele>
        <time>2017-12-16T00:47:00Z</time>
      </trkpt>
      <trkpt lat="44.94152" lon="5.54325">
        <ele>1056</ele>
        <time>2017-12-16T00:47:03Z</time>
      </trkpt>
      <trkpt lat="44.94145" lon="5.54334">
        <ele>1049</ele>
        <time>2017-12-16T00:47:21Z</time>
      </trkpt>
      <trkpt lat="44.94142" lon="5.54349">
        <ele>1049</ele>
        <time>2017-12-16T00:47:36Z</time>
      </trkpt>
      <trkpt lat="44.94151" lon="5.54373">
        <ele>1046</ele>
        <time>2017-12-16T00:47:50Z</time>
      </trkpt>
      <trkpt lat="44.94158" lon="5.54395">
        <ele>1043</ele>
        <time>2017-12-16T00:48:05Z</time>
      </trkpt>
      <trkpt lat="44.94161" lon="5.54425">
        <ele>1035</ele>
        <time>2017-12-16T00:48:12Z</time>
      </trkpt>
      <trkpt lat="44.94158" lon="5.54438">
        <ele>1035</ele>
        <time>2017-12-16T00:48:29Z</time>
      </trkpt>
      <trkpt lat="44.94154" lon="5.54446">
        <ele>1034</ele>
        <time>2017-12-16T00:48:32Z</time>
      </trkpt>
      <trkpt lat="44.94146" lon="5.54454">
        <ele>1034</ele>
        <time>2017-12-16T00:48:35Z</time>
      </trkpt>
      <trkpt lat="44.94129" lon="5.54465">
        <ele>1034</ele>
        <time>2017-12-16T00:48:49Z</time>
      </trkpt>
      <trkpt lat="44.94107" lon="5.54475">
        <ele>1033</ele>
        <time>2017-12-16T00:49:04Z</time>
      </trkpt>
      <trkpt lat="44.94092" lon="5.54478">
        <ele>1033</ele>
        <time>2017-12-16T00:49:12Z</time>
      </trkpt>
      <trkpt lat="44.9408" lon="5.54477">
        <ele>1037</ele>
        <time>2017-12-16T00:49:23Z</time>
      </trkpt>
      <trkpt lat="44.94055" lon="5.54471">
        <ele>1039</ele>
        <time>2017-12-16T00:49:35Z</time>
      </trkpt>
      <trkpt lat="44.9404" lon="5.54474">
        <ele>1040</ele>
        <time>2017-12-16T00:49:55Z</time>
      </trkpt>
      <trkpt lat="44.94024" lon="5.54487">
        <ele>1039</ele>
        <time>2017-12-16T00:49:59Z</time>
      </trkpt>
      <trkpt lat="44.9399" lon="5.54529">
        <ele>1033</ele>
        <time>2017-12-16T00:50:19Z</time>
      </trkpt>
      <trkpt lat="44.93973" lon="5.54544">
        <ele>1032</ele>
        <time>2017-12-16T00:50:22Z</time>
      </trkpt>
      <trkpt lat="44.93955" lon="5.54554">
        <ele>1032</ele>
        <time>2017-12-16T00:50:26Z</time>
      </trkpt>
      <trkpt lat="44.93941" lon="5.54556">
        <ele>1032</ele>
        <time>2017-12-16T00:50:34Z</time>
      </trkpt>
      <trkpt lat="44.93915" lon="5.54553">
        <ele>1036</ele>
        <time>2017-12-16T00:50:47Z</time>
      </trkpt>
      <trkpt lat="44.93874" lon="5.54546">
        <ele>1039</ele>
        <time>2017-12-16T00:51:00Z</time>
      </trkpt>
      <trkpt lat="44.9386" lon="5.54549">
        <ele>1039</ele>
        <time>2017-12-16T00:51:08Z</time>
      </trkpt>
      <trkpt lat="44.93849" lon="5.5456">
        <ele>1037</ele>
        <time>2017-12-16T00:51:27Z</time>
      </trkpt>
      <trkpt lat="44.93843" lon="5.54579">
        <ele>1034</ele>
        <time>2017-12-16T00:51:34Z</time>
      </trkpt>
      <trkpt lat="44.93841" lon="5.54593">
        <ele>1027</ele>
        <time>2017-12-16T00:51:41Z</time>
      </trkpt>
      <trkpt lat="44.93835" lon="5.54604">
        <ele>1025</ele>
        <time>2017-12-16T00:51:46Z</time>
      </trkpt>
      <trkpt lat="44.93826" lon="5.5461">
        <ele>1024</ele>
        <time>2017-12-16T00:51:52Z</time>
      </trkpt>
      <trkpt lat="44.93815" lon="5.54611">
        <ele>1024</ele>
        <time>2017-12-16T00:52:02Z</time>
      </trkpt>
      <trkpt lat="44.93804" lon="5.54605">
        <ele>1023</ele>
        <time>2017-12-16T00:52:19Z</time>
      </trkpt>
      <trkpt lat="44.93776" lon="5.54574">
        <ele>1033</ele>
        <time>2017-12-16T00:52:36Z</time>
      </trkpt>
      <trkpt lat="44.93743" lon="5.54544">
        <ele>1027</ele>
        <time>2017-12-16T00:52:55Z</time>
      </trkpt>
      <trkpt lat="44.93713" lon="5.54513">
        <ele>1027</ele>
        <time>2017-12-16T00:53:09Z</time>
      </trkpt>
      <trkpt lat="44.93686" lon="5.54469">
        <ele>1039</ele>
        <time>2017-12-16T00:53:15Z</time>
      </trkpt>
      <trkpt lat="44.93679" lon="5.54462">
        <ele>1040</ele>
        <time>2017-12-16T00:53:23Z</time>
      </trkpt>
      <trkpt lat="44.93671" lon="5.54457">
        <ele>1041</ele>
        <time>2017-12-16T00:53:43Z</time>
      </trkpt>
      <trkpt lat="44.93664" lon="5.54456">
        <ele>1041</ele>
        <time>2017-12-16T00:53:50Z</time>
      </trkpt>
      <trkpt lat="44.93657" lon="5.54458">
        <ele>1041</ele>
        <time>2017-12-16T00:54:08Z</time>
      </trkpt>
      <trkpt lat="44.93637" lon="5.54471">
        <ele>1040</ele>
        <time>2017-12-16T00:54:12Z</time>
      </trkpt>
      <trkpt lat="44.9361" lon="5.54483">
        <ele>1040</ele>
        <time>2017-12-16T00:54:30Z</time>
      </trkpt>
      <trkpt lat="44.936" lon="5.5449">
        <ele>1039</ele>
        <time>2017-12-16T00:54:33Z</time>
      </trkpt>
      <trkpt lat="44.93582" lon="5.54507">
        <ele>1033</ele>
        <time>2017-12-16T00:54:51Z</time>
      </trkpt>
      <trkpt lat="44.93566" lon="5.54524">
        <ele>1026</ele>
        <time>2017-12-16T00:55:02Z</time>
      </trkpt>
      <trkpt lat="44.93549" lon="5.54536">
        <ele>1023</ele>
        <time>2017-12-16T00:55:15Z</time>
      </trkpt>
      <trkpt lat="44.9353" lon="5.54543">
        <ele>1023</ele>
        <time>2017-12-16T00:55:28Z</time>
      </trkpt>
      <trkpt lat="44.93489" lon="5.54543">
        <ele>1021</ele>
        <time>2017-12-16T00:55:34Z</time>
      </trkpt>
      <trkpt lat="44.93454" lon="5.54556">
        <ele>1017</ele>
        <time>2017-12-16T00:55:41Z</time>
      </trkpt>
      <trkpt lat="44.93444" lon="5.54554">
        <ele>1016</ele>
        <time>2017-12-16T00:55:44Z</time>
      </trkpt>
      <trkpt lat="44.93434" lon="5.54541">
        <ele>1017</ele>
        <time>2017-12-16T00:55:56Z</time>
      </trkpt>
      <trkpt lat="44.93407" lon="5.54489">
        <ele>1022</ele>
        <time>2017-12-16T00:55:59Z</time>
      </trkpt>
      <trkpt lat="44.93393" lon="5.5447">
        <ele>1026</ele>
        <time>2017-12-16T00:56:02Z</time>
      </trkpt>
      <trkpt lat="44.93386" lon="5.54464">
        <ele>1026</ele>
        <time>2017-12-16T00:56:06Z</time>
      </trkpt>
      <trkpt lat="44.93375" lon="5.54462">
        <ele>1027</ele>
        <time>2017-12-16T00:56:25Z</time>
      </trkpt>
      <trkpt lat="44.93368" lon="5.54464">
        <ele>1027</ele>
        <time>2017-12-16T00:56:36Z</time>
      </trkpt>
      <trkpt lat="44.93362" lon="5.54468">
        <ele>1026</ele>
        <time>2017-12-16T00:56:56Z</time>
      </trkpt>
      <trkpt lat="44.93358" lon="5.54472">
        <ele>1026</ele>
        <time>2017-12-16T00:57:02Z</time>
      </trkpt>
      <trkpt lat="44.9335" lon="5.54483">
        <ele>1025</ele>
        <time>2017-12-16T00:57:11Z</time>
      </trkpt>
      <trkpt lat="44.93341" lon="5.54513">
        <ele>1017</ele>
        <time>2017-12-16T00:57:17Z</time>
      </trkpt>
      <trkpt lat="44.93336" lon="5.5453">
        <ele>1015</ele>
        <time>2017-12-16T00:57:21Z</time>
      </trkpt>
      <trkpt lat="44.93326" lon="5.54543">
        <ele>1016</ele>
        <time>2017-12-16T00:57:34Z</time>
      </trkpt>
      <trkpt lat="44.93312" lon="5.54552">
        <ele>1015</ele>
        <time>2017-12-16T00:57:44Z</time>
      </trkpt>
      <trkpt lat="44.93297" lon="5.54554">
        <ele>1016</ele>
        <time>2017-12-16T00:57:49Z</time>
      </trkpt>
      <trkpt lat="44.93281" lon="5.54548">
        <ele>1017</ele>
        <time>2017-12-16T00:57:59Z</time>
      </trkpt>
      <trkpt lat="44.93261" lon="5.54544">
        <ele>1018</ele>
        <time>2017-12-16T00:58:16Z</time>
      </trkpt>
      <trkpt lat="44.93232" lon="5.54551">
        <ele>1015</ele>
        <time>2017-12-16T00:58:18Z</time>
      </trkpt>
      <trkpt lat="44.93213" lon="5.54554">
        <ele>1015</ele>
        <time>2017-12-16T00:58:28Z</time>
      </trkpt>
      <trkpt lat="44.93198" lon="5.54552">
        <ele>1014</ele>
        <time>2017-12-16T00:58:39Z</time>
      </trkpt>
      <trkpt lat="44.93189" lon="5.54549">
        <ele>1014</ele>
        <time>2017-12-16T00:58:51Z</time>
      </trkpt>
      <trkpt lat="44.93181" lon="5.54544">
        <ele>1014</ele>
        <time>2017-12-16T00:59:06Z</time>
      </trkpt>
      <trkpt lat="44.93171" lon="5.54531">
        <ele>1016</ele>
        <time>2017-12-16T00:59:22Z</time>
      </trkpt>
      <trkpt lat="44.93136" lon="5.54463">
        <ele>1031</ele>
        <time>2017-12-16T00:59:24Z</time>
      </trkpt>
      <trkpt lat="44.93125" lon="5.54446">
        <ele>1033</ele>
        <time>2017-12-16T00:59:41Z</time>
      </trkpt>
      <trkpt lat="44.93115" lon="5.54439">
        <ele>1034</ele>
        <time>2017-12-16T00:59:45Z</time>
      </trkpt>
      <trkpt lat="44.93105" lon="5.54441">
        <ele>1035</ele>
        <time>2017-12-16T01:00:02Z</time>
      </trkpt>
      <trkpt lat="44.93098" lon="5.54452">
        <ele>1033</ele>
        <time>2017-12-16T01:00:21Z</time>
      </trkpt>
      <trkpt lat="44.9308" lon="5.54519">
        <ele>1017</ele>
        <time>2017-12-16T01:00:41Z</time>
      </trkpt>
      <trkpt lat="44.93073" lon="5.54533">
        <ele>1015</ele>
        <time>2017-12-16T01:00:55Z</time>
      </trkpt>
      <trkpt lat="44.93067" lon="5.54538">
        <ele>1014</ele>
        <time>2017-12-16T01:01:14Z</time>
      </trkpt>
      <trkpt lat="44.93059" lon="5.54542">
        <ele>1014</ele>
        <time>2017-12-16T01:01:28Z</time>
      </trkpt>
      <trkpt lat="44.93042" lon="5.54541">
        <ele>1015</ele>
        <time>2017-12-16T01:01:32Z</time>
      </trkpt>
      <trkpt lat="44.93023" lon="5.54536">
        <ele>1016</ele>
        <time>2017-12-16T01:01:44Z</time>
      </trkpt>
      <trkpt lat="44.93003" lon="5.54528">
        <ele>1018</ele>
        <time>2017-12-16T01:01:52Z</time>
      </trkpt>
      <trkpt lat="44.92984" lon="5.54524">
        <ele>1019</ele>
        <time>2017-12-16T01:02:07Z</time>
      </trkpt>
      <trkpt lat="44.92961" lon="5.54526">
        <ele>1017</ele>
        <time>2017-12-16T01:02:23Z</time>
      </trkpt>
      <trkpt lat="44.92941" lon="5.54531">
        <ele>1016</ele>
        <time>2017-12-16T01:02:34Z</time>
      </trkpt>
      <trkpt lat="44.92924" lon="5.54534">
        <ele>1016</ele>
        <time>2017-12-16T01:02:44Z</time>
      </trkpt>
      <trkpt lat="44.92913" lon="5.54532">
        <ele>1014</ele>
        <time>2017-12-16T01:02:48Z</time>
      </trkpt>
      <trkpt lat="44.92896" lon="5.54525">
        <ele>1015</ele>
        <time>2017-12-16T01:03:01Z</time>
      </trkpt>
      <trkpt lat="44.92886" lon="5.5452">
        <ele>1015</ele>
        <time>2017-12-16T01:03:03Z</time>
      </trkpt>
      <trkpt lat="44.92875" lon="5.54518">
        <ele>1015</ele>
        <time>2017-12-16T01:03:11Z</time>
      </trkpt>
      <trkpt lat="44.92853" lon="5.54522">
        <ele>1015</ele>
        <time>2017-12-16T01:03:22Z</time>
      </trkpt>
      <trkpt lat="44.92827" lon="5.54533">
        <ele>1015</ele>
        <time>2017-12-16T01:03:35Z</time>
      </trkpt>
      <trkpt lat="44.92806" lon="5.54543">
        <ele>1014</ele>
        <time>2017-12-16T01:03:40Z</time>
      </trkpt>
      <trkpt lat="44.92778" lon="5.54553">
        <ele>1013</ele>
        <time>2017-12-16T01:03:52Z</time>
      </trkpt>
      <trkpt lat="44.92756" lon="5.54553">
        <ele>1013</ele>
        <time>2017-12-16T01:04:09Z</time>
      </trkpt>
      <trkpt lat="44.92743" lon="5.54554">
        <ele>1014</ele>
        <time>2017-12-16T01:04:12Z</time>
      </trkpt>
      <trkpt lat="44.92731" lon="5.5456">
        <ele>1014</ele>
        <time>2017-12-16T01:04:27Z</time>
      </trkpt>
      <trkpt lat="44.92713" lon="5.54574">
        <ele>1013</ele>
        <time>2017-12-16T01:04:45Z</time>
      </trkpt>
      <trkpt lat="44.92698" lon="5.54578">
        <ele>1014</ele>
        <time>2017-12-16T01:05:04Z</time>
      </trkpt>
      <trkpt lat="44.92672" lon="5.54578">
        <ele>1012</ele>
        <time>2017-12-16T01:05:13Z</time>
      </trkpt>
      <trkpt lat="44.92652" lon="5.54573">
        <ele>1014</ele>
        <time>2017-12-16T01:05:27Z</time>
      </trkpt>
      <trkpt lat="44.92626" lon="5.54561">
        <ele>1016</ele>
        <time>2017-12-16T01:05:47Z</time>
      </trkpt>
      <trkpt lat="44.92607" lon="5.54553">
        <ele>1017</ele>
        <time>2017-12-16T01:05:51Z</time>
      </trkpt>
      <trkpt lat="44.92593" lon="5.54551">
        <ele>1017</ele>
        <time>2017-12-16T01:06:06Z</time>
      </trkpt>
      <trkpt lat="44.92581" lon="5.54554">
        <ele>1017</ele>
        <time>2017-12-16T01:06:12Z</time>
      </trkpt>
      <trkpt lat="44.92558" lon="5.54565">
        <ele>1017</ele>
        <time>2017-12-16T01:06:29Z</time>
      </trkpt>
      <trkpt lat="44.92548" lon="5.54569">
        <ele>1018</ele>
        <time>2017-12-16T01:06:32Z</time>
      </trkpt>
      <trkpt lat="44.92539" lon="5.5457">
        <ele>1018</ele>
        <time>2017-12-16T01:06:43Z</time>
      </trkpt>
      <trkpt lat="44.92531" lon="5.54569">
        <ele>1019</ele>
        <time>2017-12-16T01:06:54Z</time>
      </trkpt>
      <trkpt lat="44.9252" lon="5.54564">
        <ele>1019</ele>
        <time>2017-12-16T01:07:12Z</time>
      </trkpt>
      <trkpt lat="44.92499" lon="5.54548">
        <ele>1021</ele>
        <time>2017-12-16T01:07:16Z</time>
      </trkpt>
      <trkpt lat="44.92481" lon="5.54537">
        <ele>1021</ele>
        <time>2017-12-16T01:07:32Z</time>
      </trkpt>
      <trkpt lat="44.92452" lon="5.5453">
        <ele>1022</ele>
        <time>2017-12-16T01:07:39Z</time>
      </trkpt>
      <trkpt lat="44.92424" lon="5.54522">
        <ele>1021</ele>
        <time>2017-12-16T01:07:57Z</time>
      </trkpt>
      <trkpt lat="44.92344" lon="5.54492">
        <ele>1028</ele>
        <time>2017-12-16T01:08:14Z</time>
      </trkpt>
      <trkpt lat="44.9232" lon="5.54485">
        <ele>1033</ele>
        <time>2017-12-16T01:08:20Z</time>
      </trkpt>
      <trkpt lat="44.92295" lon="5.54482">
        <ele>1036</ele>
        <time>2017-12-16T01:08:30Z</time>
      </trkpt>
      <trkpt lat="44.92271" lon="5.54476">
        <ele>1038</ele>
        <time>2017-12-16T01:08:41Z</time>
      </trkpt>
      <trkpt lat="44.92254" lon="5.5447">
        <ele>1039</ele>
        <time>2017-12-16T01:08:59Z</time>
      </trkpt>
      <trkpt lat="44.92244" lon="5.5447">
        <ele>1042</ele>
        <time>2017-12-16T01:09:13Z</time>
      </trkpt>
      <trkpt lat="44.92235" lon="5.54473">
        <ele>1042</ele>
        <time>2017-12-16T01:09:16Z</time>
      </trkpt>
      <trkpt lat="44.92214" lon="5.54479">
        <ele>1043</ele>
        <time>2017-12-16T01:09:20Z</time>
      </trkpt>
      <trkpt lat="44.92186" lon="5.54481">
        <ele>1043</ele>
        <time>2017-12-16T01:09:30Z</time>
      </trkpt>
      <trkpt lat="44.92168" lon="5.54486">
        <ele>1043</ele>
        <time>2017-12-16T01:09:45Z</time>
      </trkpt>
      <trkpt lat="44.92122" lon="5.54509">
        <ele>1051</ele>
        <time>2017-12-16T01:09:55Z</time>
      </trkpt>
      <trkpt lat="44.92096" lon="5.54513">
        <ele>1051</ele>
        <time>2017-12-16T01:09:58Z</time>
      </trkpt>
      <trkpt lat="44.92046" lon="5.54516">
        <ele>1056</ele>
        <time>2017-12-16T01:10:12Z</time>
      </trkpt>
      <trkpt lat="44.91974" lon="5.54517">
        <ele>1060</ele>
        <time>2017-12-16T01:10:27Z</time>
      </trkpt>
      <trkpt lat="44.91952" lon="5.54525">
        <ele>1061</ele>
        <time>2017-12-16T01:10:42Z</time>
      </trkpt>
      <trkpt lat="44.91928" lon="5.54537">
        <ele>1062</ele>
        <time>2017-12-16T01:10:50Z</time>
      </trkpt>
      <trkpt lat="44.91865" lon="5.54567">
        <ele>1065</ele>
        <time>2017-12-16T01:11:10Z</time>
      </trkpt>
      <trkpt lat="44.91852" lon="5.54579">
        <ele>1066</ele>
        <time>2017-12-16T01:11:22Z</time>
      </trkpt>
      <trkpt lat="44.91839" lon="5.54595">
        <ele>1071</ele>
        <time>2017-12-16T01:11:41Z</time>
      </trkpt>
      <trkpt lat="44.91827" lon="5.54608">
        <ele>1075</ele>
        <time>2017-12-16T01:11:55Z</time>
      </trkpt>
      <trkpt lat="44.91812" lon="5.54619">
        <ele>1078</ele>
        <time>2017-12-16T01:11:58Z</time>
      </trkpt>
      <trkpt lat="44.91794" lon="5.54627">
        <ele>1079</ele>
        <time>2017-12-16T01:12:18Z</time>
      </trkpt>
      <trkpt lat="44.91771" lon="5.54632">
        <ele>1081</ele>
        <time>2017-12-16T01:12:20Z</time>
      </trkpt>
      <trkpt lat="44.91744" lon="5.54633">
        <ele>1085</ele>
        <time>2017-12-16T01:12:24Z</time>
      </trkpt>
      <trkpt lat="44.91708" lon="5.54635">
        <ele>1085</ele>
        <time>2017-12-16T01:12:44Z</time>
      </trkpt>
      <trkpt lat="44.91671" lon="5.54642">
        <ele>1088</ele>
        <time>2017-12-16T01:12:53Z</time>
      </trkpt>
      <trkpt lat="44.91638" lon="5.54646">
        <ele>1091</ele>
        <time>2017-12-16T01:13:08Z</time>
      </trkpt>
      <trkpt lat="44.91605" lon="5.54654">
        <ele>1092</ele>
        <time>2017-12-16T01:13:19Z</time>
      </trkpt>
      <trkpt lat="44.91568" lon="5.5467">
        <ele>1103</ele>
        <time>2017-12-16T01:13:36Z</time>
      </trkpt>
      <trkpt lat="44.91525" lon="5.54697">
        <ele>1110</ele>
        <time>2017-12-16T01:13:49Z</time>
      </trkpt>
      <trkpt lat="44.91517" lon="5.547">
        <ele>1110</ele>
        <time>2017-12-16T01:13:55Z</time>
      </trkpt>
      <trkpt lat="44.91499" lon="5.54704">
        <ele>1113</ele>
        <time>2017-12-16T01:14:09Z</time>
      </trkpt>
      <trkpt lat="44.91458" lon="5.54713">
        <ele>1115</ele>
        <time>2017-12-16T01:14:16Z</time>
      </trkpt>
      <trkpt lat="44.91453" lon="5.54719">
        <ele>1116</ele>
        <time>2017-12-16T01:14:20Z</time>
      </trkpt>
      <trkpt lat="44.91453" lon="5.54725">
        <ele>1117</ele>
        <time>2017-12-16T01:14:30Z</time>
      </trkpt>
      <trkpt lat="44.91458" lon="5.5473">
        <ele>1117</ele>
        <time>2017-12-16T01:14:36Z</time>
      </trkpt>
      <trkpt lat="44.91474" lon="5.54731">
        <ele>1117</ele>
        <time>2017-12-16T01:14:50Z</time>
      </trkpt>
      <trkpt lat="44.91488" lon="5.54734">
        <ele>1119</ele>
        <time>2017-12-16T01:15:09Z</time>
      </trkpt>
      <trkpt lat="44.91509" lon="5.54747">
        <ele>1121</ele>
        <time>2017-12-16T01:15:13Z</time>
      </trkpt>
      <trkpt lat="44.91531" lon="5.54759">
        <ele>1132</ele>
        <time>2017-12-16T01:15:26Z</time>
      </trkpt>
      <trkpt lat="44.91547" lon="5.54765">
        <ele>1133</ele>
        <time>2017-12-16T01:15:29Z</time>
      </trkpt>
      <trkpt lat="44.91564" lon="5.54769">
        <ele>1132</ele>
        <time>2017-12-16T01:15:32Z</time>
      </trkpt>
      <trkpt lat="44.91616" lon="5.54777">
        <ele>1134</ele>
        <time>2017-12-16T01:15:51Z</time>
      </trkpt>
      <trkpt lat="44.91643" lon="5.54778">
        <ele>1134</ele>
        <time>2017-12-16T01:16:01Z</time>
      </trkpt>
      <trkpt lat="44.91666" lon="5.54784">
        <ele>1135</ele>
        <time>2017-12-16T01:16:04Z</time>
      </trkpt>
      <trkpt lat="44.91672" lon="5.54787">
        <ele>1136</ele>
        <time>2017-12-16T01:16:22Z</time>
      </trkpt>
      <trkpt lat="44.91675" lon="5.54792">
        <ele>1138</ele>
        <time>2017-12-16T01:16:24Z</time>
      </trkpt>
      <trkpt lat="44.91674" lon="5.54797">
        <ele>1139</ele>
        <time>2017-12-16T01:16:26Z</time>
      </trkpt>
      <trkpt lat="44.9167" lon="5.54801">
        <ele>1141</ele>
        <time>2017-12-16T01:16:37Z</time>
      </trkpt>
      <trkpt lat="44.91659" lon="5.548">
        <ele>1140</ele>
        <time>2017-12-16T01:16:54Z</time>
      </trkpt>
      <trkpt lat="44.91647" lon="5.548">
        <ele>1139</ele>
        <time>2017-12-16T01:17:13Z</time>
      </trkpt>
      <trkpt lat="44.91614" lon="5.54807">
        <ele>1140</ele>
        <time>2017-12-16T01:17:19Z</time>
      </trkpt>
      <trkpt lat="44.91597" lon="5.54811">
        <ele>1142</ele>
        <time>2017-12-16T01:17:28Z</time>
      </trkpt>
      <trkpt lat="44.91579" lon="5.54817">
        <ele>1145</ele>
        <time>2017-12-16T01:17:34Z</time>
      </trkpt>
      <trkpt lat="44.91556" lon="5.54825">
        <ele>1143</ele>
        <time>2017-12-16T01:17:40Z</time>
      </trkpt>
      <trkpt lat="44.91538" lon="5.54828">
        <ele>1142</ele>
        <time>2017-12-16T01:17:50Z</time>
      </trkpt>
      <trkpt lat="44.91521" lon="5.54843">
        <ele>1160</ele>
        <time>2017-12-16T01:18:03Z</time>
      </trkpt>
      <trkpt lat="44.915" lon="5.54871">
        <ele>1162</ele>
        <time>2017-12-16T01:18:05Z</time>
      </trkpt>
      <trkpt lat="44.91477" lon="5.54905">
        <ele>1169</ele>
        <time>2017-12-16T01:18:11Z</time>
      </trkpt>
      <trkpt lat="44.91452" lon="5.54932">
        <ele>1186</ele>
        <time>2017-12-16T01:18:29Z</time>
      </trkpt>
      <trkpt lat="44.91431" lon="5.54952">
        <ele>1188</ele>
        <time>2017-12-16T01:18:40Z</time>
      </trkpt>
      <trkpt lat="44.91415" lon="5.5496">
        <ele>1189</ele>
        <time>2017-12-16T01:18:58Z</time>
      </trkpt>
      <trkpt lat="44.9139" lon="5.54968">
        <ele>1190</ele>
        <time>2017-12-16T01:19:04Z</time>
      </trkpt>
      <trkpt lat="44.91375" lon="5.54968">
        <ele>1190</ele>
        <time>2017-12-16T01:19:14Z</time>
      </trkpt>
      <trkpt lat="44.91366" lon="5.5496">
        <ele>1190</ele>
        <time>2017-12-16T01:19:17Z</time>
      </trkpt>
      <trkpt lat="44.91359" lon="5.54948">
        <ele>1188</ele>
        <time>2017-12-16T01:19:24Z</time>
      </trkpt>
      <trkpt lat="44.91351" lon="5.54944">
        <ele>1188</ele>
        <time>2017-12-16T01:19:26Z</time>
      </trkpt>
      <trkpt lat="44.91334" lon="5.54942">
        <ele>1188</ele>
        <time>2017-12-16T01:19:36Z</time>
      </trkpt>
      <trkpt lat="44.91313" lon="5.54942">
        <ele>1192</ele>
        <time>2017-12-16T01:19:41Z</time>
      </trkpt>
      <trkpt lat="44.91281" lon="5.54945">
        <ele>1194</ele>
        <time>2017-12-16T01:19:45Z</time>
      </trkpt>
      <trkpt lat="44.91249" lon="5.54954">
        <ele>1198</ele>
        <time>2017-12-16T01:20:03Z</time>
      </trkpt>
      <trkpt lat="44.91218" lon="5.54966">
        <ele>1200</ele>
        <time>2017-12-16T01:20:23Z</time>
      </trkpt>
      <trkpt lat="44.91199" lon="5.54978">
        <ele>1201</ele>
        <time>2017-12-16T01:20:36Z</time>
      </trkpt>
      <trkpt lat="44.91188" lon="5.54992">
        <ele>1202</ele>
        <time>2017-12-16T01:20:42Z</time>
      </trkpt>
      <trkpt lat="44.91159" lon="5.55049">
        <ele>1219</ele>
        <time>2017-12-16T01:20:54Z</time>
      </trkpt>
      <trkpt lat="44.91142" lon="5.55076">
        <ele>1221</ele>
        <time>2017-12-16T01:21:09Z</time>
      </trkpt>
      <trkpt lat="44.91131" lon="5.55086">
        <ele>1230</ele>
        <time>2017-12-16T01:21:19Z</time>
      </trkpt>
      <trkpt lat="44.9109" lon="5.55107">
        <ele>1230</ele>
        <time>2017-12-16T01:21:33Z</time>
      </trkpt>
      <trkpt lat="44.91069" lon="5.55124">
        <ele>1234</ele>
        <time>2017-12-16T01:21:38Z</time>
      </trkpt>
      <trkpt lat="44.9104" lon="5.55155">
        <ele>1235</ele>
        <time>2017-12-16T01:21:43Z</time>
      </trkpt>
      <trkpt lat="44.91" lon="5.55199">
        <ele>1234</ele>
        <time>2017-12-16T01:21:45Z</time>
      </trkpt>
      <trkpt lat="44.90941" lon="5.55273">
        <ele>1231</ele>
        <time>2017-12-16T01:21:56Z</time>
      </trkpt>
      <trkpt lat="44.90925" lon="5.55288">
        <ele>1230</ele>
        <time>2017-12-16T01:22:03Z</time>
      </trkpt>
      <trkpt lat="44.90911" lon="5.55295">
        <ele>1224</ele>
        <time>2017-12-16T01:22:19Z</time>
      </trkpt>
      <trkpt lat="44.909" lon="5.55296">
        <ele>1224</ele>
        <time>2017-12-16T01:22:23Z</time>
      </trkpt>
      <trkpt lat="44.90876" lon="5.55291">
        <ele>1223</ele>
        <time>2017-12-16T01:22:42Z</time>
      </trkpt>
      <trkpt lat="44.90836" lon="5.55282">
        <ele>1221</ele>
        <time>2017-12-16T01:22:47Z</time>
      </trkpt>
      <trkpt lat="44.90828" lon="5.5529">
        <ele>1224</ele>
        <time>2017-12-16T01:22:58Z</time>
      </trkpt>
      <trkpt lat="44.9082" lon="5.55311">
        <ele>1223</ele>
        <time>2017-12-16T01:23:00Z</time>
      </trkpt>
      <trkpt lat="44.90805" lon="5.5543">
        <ele>1216</ele>
        <time>2017-12-16T01:23:14Z</time>
      </trkpt>
      <trkpt lat="44.90803" lon="5.55468">
        <ele>1216</ele>
        <time>2017-12-16T01:23:31Z</time>
      </trkpt>
      <trkpt lat="44.90807" lon="5.55531">
        <ele>1217</ele>
        <time>2017-12-16T01:23:35Z</time>
      </trkpt>
      <trkpt lat="44.90815" lon="5.55644">
        <ele>1222</ele>
        <time>2017-12-16T01:23:50Z</time>
      </trkpt>
      <trkpt lat="44.9082" lon="5.55748">
        <ele>1221</ele>
        <time>2017-12-16T01:23:58Z</time>
      </trkpt>
      <trkpt lat="44.90823" lon="5.55769">
        <ele>1223</ele>
        <time>2017-12-16T01:24:03Z</time>
      </trkpt>
      <trkpt lat="44.9083" lon="5.55802">
        <ele>1222</ele>
        <time>2017-12-16T01:24:20Z</time>
      </trkpt>
      <trkpt lat="44.90846" lon="5.55874">
        <ele>1223</ele>
        <time>2017-12-16T01:24:26Z</time>
      </trkpt>
      <trkpt lat="44.90849" lon="5.55908">
        <ele>1218</ele>
        <time>2017-12-16T01:24:42Z</time>
      </trkpt>
      <trkpt lat="44.90849" lon="5.5593">
        <ele>1214</ele>
        <time>2017-12-16T01:24:55Z</time>
      </trkpt>
      <trkpt lat="44.90846" lon="5.55955">
        <ele>1215</ele>
        <time>2017-12-16T01:25:07Z</time>
      </trkpt>
      <trkpt lat="44.90835" lon="5.55992">
        <ele>1208</ele>
        <time>2017-12-16T01:25:10Z</time>
      </trkpt>
      <trkpt lat="44.90831" lon="5.56021">
        <ele>1210</ele>
        <time>2017-12-16T01:25:16Z</time>
      </trkpt>
      <trkpt lat="44.90833" lon="5.56052">
        <ele>1209</ele>
        <time>2017-12-16T01:25:28Z</time>
      </trkpt>
      <trkpt lat="44.90839" lon="5.56086">
        <ele>1195</ele>
        <time>2017-12-16T01:25:41Z</time>
      </trkpt>
      <trkpt lat="44.9085" lon="5.5612">
        <ele>1195</ele>
        <time>2017-12-16T01:25:56Z</time>
      </trkpt>
      <trkpt lat="44.90866" lon="5.56156">
        <ele>1193</ele>
        <time>2017-12-16T01:26:13Z</time>
      </trkpt>
      <trkpt lat="44.90882" lon="5.56185">
        <ele>1187</ele>
        <time>2017-12-16T01:26:20Z</time>
      </trkpt>
      <trkpt lat="44.90921" lon="5.56237">
        <ele>1183</ele>
        <time>2017-12-16T01:26:30Z</time>
      </trkpt>
      <trkpt lat="44.90941" lon="5.56264">
        <ele>1177</ele>
        <time>2017-12-16T01:26:39Z</time>
      </trkpt>
      <trkpt lat="44.9096" lon="5.56296">
        <ele>1175</ele>
        <time>2017-12-16T01:26:59Z</time>
      </trkpt>
      <trkpt lat="44.91024" lon="5.56424">
        <ele>1169</ele>
        <time>2017-12-16T01:27:01Z</time>
      </trkpt>
      <trkpt lat="44.91048" lon="5.56464">
        <ele>1168</ele>
        <time>2017-12-16T01:27:10Z</time>
      </trkpt>
      <trkpt lat="44.91083" lon="5.5651">
        <ele>1170</ele>
        <time>2017-12-16T01:27:30Z</time>
      </trkpt>
      <trkpt lat="44.91136" lon="5.56566">
        <ele>1167</ele>
        <time>2017-12-16T01:27:39Z</time>
      </trkpt>
      <trkpt lat="44.91166" lon="5.56602">
        <ele>1165</ele>
        <time>2017-12-16T01:27:51Z</time>
      </trkpt>
      <trkpt lat="44.91206" lon="5.56666">
        <ele>1164</ele>
        <time>2017-12-16T01:28:10Z</time>
      </trkpt>
      <trkpt lat="44.91245" lon="5.56735">
        <ele>1162</ele>
        <time>2017-12-16T01:28:12Z</time>
      </trkpt>
      <trkpt lat="44.91256" lon="5.56766">
        <ele>1159</ele>
        <time>2017-12-16T01:28:23Z</time>
      </trkpt>
      <trkpt lat="44.9127" lon="5.56828">
        <ele>1158</ele>
        <time>2017-12-16T01:28:38Z</time>
      </trkpt>
      <trkpt lat="44.91277" lon="5.56859">
        <ele>1159</ele>
        <time>2017-12-16T01:28:42Z</time>
      </trkpt>
      <trkpt lat="44.9122" lon="5.5688">
        <ele>1159</ele>
        <time>2017-12-16T01:28:59Z</time>
      </trkpt>
      <trkpt lat="44.91032" lon="5.56949">
        <ele>1162</ele>
        <time>2017-12-16T01:29:13Z</time>
      </trkpt>
      <trkpt lat="44.90996" lon="5.56955">
        <ele>1163</ele>
        <time>2017-12-16T01:29:28Z</time>
      </trkpt>
      <trkpt lat="44.90966" lon="5.56956">
        <ele>1163</ele>
        <time>2017-12-16T01:29:33Z</time>
      </trkpt>
      <trkpt lat="44.90894" lon="5.56951">
        <ele>1165</ele>
        <time>2017-12-16T01:29:37Z</time>
      </trkpt>
      <trkpt lat="44.90828" lon="5.56947">
        <ele>1167</ele>
        <time>2017-12-16T01:29:53Z</time>
      </trkpt>
      <trkpt lat="44.90808" lon="5.5695">
        <ele>1167</ele>
        <time>2017-12-16T01:30:06Z</time>
      </trkpt>
      <trkpt lat="44.90791" lon="5.56954">
        <ele>1168</ele>
        <time>2017-12-16T01:30:13Z</time>
      </trkpt>
      <trkpt lat="44.90768" lon="5.56962">
        <ele>1168</ele>
        <time>2017-12-16T01:30:23Z</time>
      </trkpt>
      <trkpt lat="44.90661" lon="5.57003">
        <ele>1173</ele>
        <time>2017-12-16T01:30:28Z</time>
      </trkpt>
      <trkpt lat="44.90639" lon="5.57009">
        <ele>1174</ele>
        <time>2017-12-16T01:30:45Z</time>
      </trkpt>
      <trkpt lat="44.90624" lon="5.5701">
        <ele>1175</ele>
        <time>2017-12-16T01:31:05Z</time>
      </trkpt>
      <trkpt lat="44.90588" lon="5.57009">
        <ele>1174</ele>
        <time>2017-12-16T01:31:25Z</time>
      </trkpt>
      <trkpt lat="44.90578" lon="5.57007">
        <ele>1176</ele>
        <time>2017-12-16T01:31:43Z</time>
      </trkpt>
      <trkpt lat="44.90564" lon="5.57002">
        <ele>1178</ele>
        <time>2017-12-16T01:31:51Z</time>
      </trkpt>
      <trkpt lat="44.90529" lon="5.56979">
        <ele>1178</ele>
        <time>2017-12-16T01:31:54Z</time>
      </trkpt>
      <trkpt lat="44.90512" lon="5.5697">
        <ele>1178</ele>
        <time>2017-12-16T01:31:57Z</time>
      </trkpt>
      <trkpt lat="44.90494" lon="5.56966">
        <ele>1183</ele>
        <time>2017-12-16T01:32:16Z</time>
      </trkpt>
      <trkpt lat="44.90419" lon="5.56956">
        <ele>1185</ele>
        <time>2017-12-16T01:32:23Z</time>
      </trkpt>
      <trkpt lat="44.90369" lon="5.56947">
        <ele>1189</ele>
        <time>2017-12-16T01:32:37Z</time>
      </trkpt>
      <trkpt lat="44.90355" lon="5.56941">
        <ele>1189</ele>
        <time>2017-12-16T01:32:55Z</time>
      </trkpt>
      <trkpt lat="44.90343" lon="5.56935">
        <ele>1190</ele>
        <time>2017-12-16T01:33:06Z</time>
      </trkpt>
      <trkpt lat="44.9032" lon="5.56916">
        <ele>1192</ele>
        <time>2017-12-16T01:33:23Z</time>
      </trkpt>
      <trkpt lat="44.90286" lon="5.56877">
        <ele>1193</ele>
        <time>2017-12-16T01:33:25Z</time>
      </trkpt>
      <trkpt lat="44.90252" lon="5.56837">
        <ele>1194</ele>
        <time>2017-12-16T01:33:36Z</time>
      </trkpt>
      <trkpt lat="44.9024" lon="5.56813">
        <ele>1197</ele>
        <time>2017-12-16T01:33:40Z</time>
      </trkpt>
      <trkpt lat="44.90239" lon="5.56792">
        <ele>1198</ele>
        <time>2017-12-16T01:33:42Z</time>
      </trkpt>
      <trkpt lat="44.90239" lon="5.56785">
        <ele>1198</ele>
        <time>2017-12-16T01:33:52Z</time>
      </trkpt>
      <trkpt lat="44.90233" lon="5.56765">
        <ele>1198</ele>
        <time>2017-12-16T01:34:02Z</time>
      </trkpt>
      <trkpt lat="44.90227" lon="5.56743">
        <ele>1198</ele>
        <time>2017-12-16T01:34:04Z</time>
      </trkpt>
      <trkpt lat="44.90228" lon="5.56736">
        <ele>1198</ele>
        <time>2017-12-16T01:34:10Z</time>
      </trkpt>
      <trkpt lat="44.90227" lon="5.56743">
        <ele>1198</ele>
        <time>2017-12-15T18:56:44Z</time>
      </trkpt>
      <trkpt lat="44.9021" lon="5.56703">
        <ele>1199</ele>
        <time>2017-12-15T18:57:01Z</time>
      </trkpt>
      <trkpt lat="44.90191" lon="5.56669">
        <ele>1200</ele>
        <time>2017-12-15T18:57:07Z</time>
      </trkpt>
      <trkpt lat="44.90183" lon="5.56662">
        <ele>1199</ele>
        <time>2017-12-15T18:57:22Z</time>
      </trkpt>
      <trkpt lat="44.90149" lon="5.56646">
        <ele>1203</ele>
        <time>2017-12-15T18:57:36Z</time>
      </trkpt>
      <trkpt lat="44.90119" lon="5.56638">
        <ele>1204</ele>
        <time>2017-12-15T18:57:55Z</time>
      </trkpt>
      <trkpt lat="44.90106" lon="5.56639">
        <ele>1205</ele>
        <time>2017-12-15T18:58:04Z</time>
      </trkpt>
      <trkpt lat="44.9009" lon="5.56645">
        <ele>1206</ele>
        <time>2017-12-15T18:58:14Z</time>
      </trkpt>
      <trkpt lat="44.90084" lon="5.56646">
        <ele>1206</ele>
        <time>2017-12-15T18:58:25Z</time>
      </trkpt>
      <trkpt lat="44.90053" lon="5.56643">
        <ele>1213</ele>
        <time>2017-12-15T18:58:38Z</time>
      </trkpt>
      <trkpt lat="44.90028" lon="5.56643">
        <ele>1215</ele>
        <time>2017-12-15T18:58:42Z</time>
      </trkpt>
      <trkpt lat="44.90023" lon="5.56645">
        <ele>1215</ele>
        <time>2017-12-15T18:58:51Z</time>
      </trkpt>
      <trkpt lat="44.90017" lon="5.56655">
        <ele>1216</ele>
        <time>2017-12-15T18:59:11Z</time>
      </trkpt>
      <trkpt lat="44.9" lon="5.56688">
        <ele>1224</ele>
        <time>2017-12-15T18:59:14Z</time>
      </trkpt>
      <trkpt lat="44.89992" lon="5.56696">
        <ele>1225</ele>
        <time>2017-12-15T18:59:29Z</time>
      </trkpt>
      <trkpt lat="44.89984" lon="5.567">
        <ele>1226</ele>
        <time>2017-12-15T18:59:37Z</time>
      </trkpt>
      <trkpt lat="44.89974" lon="5.567">
        <ele>1227</ele>
        <time>2017-12-15T18:59:43Z</time>
      </trkpt>
      <trkpt lat="44.89939" lon="5.56693">
        <ele>1228</ele>
        <time>2017-12-15T18:59:46Z</time>
      </trkpt>
      <trkpt lat="44.89912" lon="5.5669">
        <ele>1234</ele>
        <time>2017-12-15T18:59:58Z</time>
      </trkpt>
      <trkpt lat="44.89882" lon="5.56688">
        <ele>1235</ele>
        <time>2017-12-15T19:00:06Z</time>
      </trkpt>
      <trkpt lat="44.8982" lon="5.56692">
        <ele>1241</ele>
        <time>2017-12-15T19:00:10Z</time>
      </trkpt>
      <trkpt lat="44.8978" lon="5.56694">
        <ele>1243</ele>
        <time>2017-12-15T19:00:23Z</time>
      </trkpt>
      <trkpt lat="44.89728" lon="5.56699">
        <ele>1251</ele>
        <time>2017-12-15T19:00:34Z</time>
      </trkpt>
      <trkpt lat="44.89695" lon="5.56697">
        <ele>1254</ele>
        <time>2017-12-15T19:00:46Z</time>
      </trkpt>
      <trkpt lat="44.89662" lon="5.56687">
        <ele>1261</ele>
        <time>2017-12-15T19:01:00Z</time>
      </trkpt>
      <trkpt lat="44.89646" lon="5.56679">
        <ele>1262</ele>
        <time>2017-12-15T19:01:15Z</time>
      </trkpt>
      <trkpt lat="44.89626" lon="5.56658">
        <ele>1266</ele>
        <time>2017-12-15T19:01:24Z</time>
      </trkpt>
      <trkpt lat="44.89613" lon="5.56647">
        <ele>1268</ele>
        <time>2017-12-15T19:01:28Z</time>
      </trkpt>
      <trkpt lat="44.89605" lon="5.56648">
        <ele>1268</ele>
        <time>2017-12-15T19:01:42Z</time>
      </trkpt>
      <trkpt lat="44.89601" lon="5.56653">
        <ele>1269</ele>
        <time>2017-12-15T19:02:00Z</time>
      </trkpt>
      <trkpt lat="44.89599" lon="5.56659">
        <ele>1269</ele>
        <time>2017-12-15T19:02:11Z</time>
      </trkpt>
      <trkpt lat="44.89602" lon="5.56669">
        <ele>1267</ele>
        <time>2017-12-15T19:02:28Z</time>
      </trkpt>
      <trkpt lat="44.89611" lon="5.56681">
        <ele>1266</ele>
        <time>2017-12-15T19:02:48Z</time>
      </trkpt>
      <trkpt lat="44.8965" lon="5.56729">
        <ele>1264</ele>
        <time>2017-12-15T19:03:02Z</time>
      </trkpt>
      <trkpt lat="44.89655" lon="5.56736">
        <ele>1263</ele>
        <time>2017-12-15T19:03:13Z</time>
      </trkpt>
      <trkpt lat="44.8966" lon="5.5675">
        <ele>1263</ele>
        <time>2017-12-15T19:03:20Z</time>
      </trkpt>
      <trkpt lat="44.8966" lon="5.56767">
        <ele>1265</ele>
        <time>2017-12-15T19:03:22Z</time>
      </trkpt>
      <trkpt lat="44.89656" lon="5.5678">
        <ele>1265</ele>
        <time>2017-12-15T19:03:28Z</time>
      </trkpt>
      <trkpt lat="44.89627" lon="5.56807">
        <ele>1267</ele>
        <time>2017-12-15T19:03:35Z</time>
      </trkpt>
      <trkpt lat="44.89607" lon="5.56829">
        <ele>1268</ele>
        <time>2017-12-15T19:03:53Z</time>
      </trkpt>
      <trkpt lat="44.89592" lon="5.56847">
        <ele>1269</ele>
        <time>2017-12-15T19:04:02Z</time>
      </trkpt>
      <trkpt lat="44.89574" lon="5.56889">
        <ele>1271</ele>
        <time>2017-12-15T19:04:14Z</time>
      </trkpt>
      <trkpt lat="44.89566" lon="5.56897">
        <ele>1271</ele>
        <time>2017-12-15T19:04:34Z</time>
      </trkpt>
      <trkpt lat="44.89553" lon="5.56898">
        <ele>1272</ele>
        <time>2017-12-15T19:04:37Z</time>
      </trkpt>
      <trkpt lat="44.89492" lon="5.56878">
        <ele>1273</ele>
        <time>2017-12-15T19:04:47Z</time>
      </trkpt>
      <trkpt lat="44.89485" lon="5.56872">
        <ele>1274</ele>
        <time>2017-12-15T19:05:00Z</time>
      </trkpt>
      <trkpt lat="44.89477" lon="5.56857">
        <ele>1275</ele>
        <time>2017-12-15T19:05:03Z</time>
      </trkpt>
      <trkpt lat="44.89472" lon="5.56835">
        <ele>1276</ele>
        <time>2017-12-15T19:05:21Z</time>
      </trkpt>
      <trkpt lat="44.89466" lon="5.56803">
        <ele>1282</ele>
        <time>2017-12-15T19:05:29Z</time>
      </trkpt>
      <trkpt lat="44.89457" lon="5.56782">
        <ele>1283</ele>
        <time>2017-12-15T19:05:46Z</time>
      </trkpt>
      <trkpt lat="44.89436" lon="5.56744">
        <ele>1286</ele>
        <time>2017-12-15T19:06:01Z</time>
      </trkpt>
      <trkpt lat="44.89432" lon="5.56739">
        <ele>1287</ele>
        <time>2017-12-15T19:06:10Z</time>
      </trkpt>
      <trkpt lat="44.8942" lon="5.5674">
        <ele>1288</ele>
        <time>2017-12-15T19:06:18Z</time>
      </trkpt>
      <trkpt lat="44.89398" lon="5.56749">
        <ele>1294</ele>
        <time>2017-12-15T19:06:36Z</time>
      </trkpt>
      <trkpt lat="44.89387" lon="5.56752">
        <ele>1288</ele>
        <time>2017-12-15T19:06:49Z</time>
      </trkpt>
      <trkpt lat="44.89347" lon="5.56754">
        <ele>1292</ele>
        <time>2017-12-15T19:07:04Z</time>
      </trkpt>
      <trkpt lat="44.89326" lon="5.56757">
        <ele>1297</ele>
        <time>2017-12-15T19:07:10Z</time>
      </trkpt>
      <trkpt lat="44.89285" lon="5.56766">
        <ele>1297</ele>
        <time>2017-12-15T19:07:23Z</time>
      </trkpt>
      <trkpt lat="44.89252" lon="5.56767">
        <ele>1303</ele>
        <time>2017-12-15T19:07:34Z</time>
      </trkpt>
      <trkpt lat="44.89208" lon="5.56771">
        <ele>1306</ele>
        <time>2017-12-15T19:07:41Z</time>
      </trkpt>
      <trkpt lat="44.89153" lon="5.5678">
        <ele>1309</ele>
        <time>2017-12-15T19:07:43Z</time>
      </trkpt>
      <trkpt lat="44.89103" lon="5.56781">
        <ele>1308</ele>
        <time>2017-12-15T19:07:56Z</time>
      </trkpt>
      <trkpt lat="44.89059" lon="5.56772">
        <ele>1306</ele>
        <time>2017-12-15T19:07:58Z</time>
      </trkpt>
      <trkpt lat="44.8905" lon="5.56764">
        <ele>1306</ele>
        <time>2017-12-15T19:08:04Z</time>
      </trkpt>
      <trkpt lat="44.89032" lon="5.56721">
        <ele>1324</ele>
        <time>2017-12-15T19:08:06Z</time>
      </trkpt>
      <trkpt lat="44.89025" lon="5.56711">
        <ele>1325</ele>
        <time>2017-12-15T19:08:08Z</time>
      </trkpt>
      <trkpt lat="44.89018" lon="5.56706">
        <ele>1325</ele>
        <time>2017-12-15T19:08:16Z</time>
      </trkpt>
      <trkpt lat="44.89005" lon="5.56706">
        <ele>1325</ele>
        <time>2017-12-15T19:08:27Z</time>
      </trkpt>
      <trkpt lat="44.88995" lon="5.56719">
        <ele>1317</ele>
        <time>2017-12-15T19:08:35Z</time>
      </trkpt>
      <trkpt lat="44.88983" lon="5.56742">
        <ele>1314</ele>
        <time>2017-12-15T19:08:50Z</time>
      </trkpt>
      <trkpt lat="44.88977" lon="5.56748">
        <ele>1315</ele>
        <time>2017-12-15T19:09:04Z</time>
      </trkpt>
      <trkpt lat="44.88963" lon="5.56749">
        <ele>1315</ele>
        <time>2017-12-15T19:09:17Z</time>
      </trkpt>
      <trkpt lat="44.88919" lon="5.56744">
        <ele>1311</ele>
        <time>2017-12-15T19:09:32Z</time>
      </trkpt>
      <trkpt lat="44.88906" lon="5.56737">
        <ele>1313</ele>
        <time>2017-12-15T19:09:37Z</time>
      </trkpt>
      <trkpt lat="44.8889" lon="5.56714">
        <ele>1316</ele>
        <time>2017-12-15T19:09:40Z</time>
      </trkpt>
      <trkpt lat="44.88878" lon="5.56708">
        <ele>1316</ele>
        <time>2017-12-15T19:09:49Z</time>
      </trkpt>
      <trkpt lat="44.88864" lon="5.56709">
        <ele>1316</ele>
        <time>2017-12-15T19:10:04Z</time>
      </trkpt>
      <trkpt lat="44.88857" lon="5.56709">
        <ele>1316</ele>
        <time>2017-12-15T19:10:08Z</time>
      </trkpt>
      <trkpt lat="44.88851" lon="5.56706">
        <ele>1316</ele>
        <time>2017-12-15T19:10:21Z</time>
      </trkpt>
      <trkpt lat="44.8882" lon="5.56684">
        <ele>1322</ele>
        <time>2017-12-15T19:10:27Z</time>
      </trkpt>
      <trkpt lat="44.88816" lon="5.56678">
        <ele>1323</ele>
        <time>2017-12-15T19:10:34Z</time>
      </trkpt>
      <trkpt lat="44.88806" lon="5.56657">
        <ele>1336</ele>
        <time>2017-12-15T19:10:46Z</time>
      </trkpt>
      <trkpt lat="44.88802" lon="5.56651">
        <ele>1337</ele>
        <time>2017-12-15T19:10:55Z</time>
      </trkpt>
      <trkpt lat="44.88797" lon="5.5665">
        <ele>1338</ele>
        <time>2017-12-15T19:11:09Z</time>
      </trkpt>
      <trkpt lat="44.8879" lon="5.56654">
        <ele>1338</ele>
        <time>2017-12-15T19:11:18Z</time>
      </trkpt>
      <trkpt lat="44.88784" lon="5.56666">
        <ele>1338</ele>
        <time>2017-12-15T19:11:28Z</time>
      </trkpt>
      <trkpt lat="44.8878" lon="5.56685">
        <ele>1325</ele>
        <time>2017-12-15T19:11:44Z</time>
      </trkpt>
      <trkpt lat="44.88774" lon="5.56698">
        <ele>1324</ele>
        <time>2017-12-15T19:11:54Z</time>
      </trkpt>
      <trkpt lat="44.88755" lon="5.5672">
        <ele>1322</ele>
        <time>2017-12-15T19:12:02Z</time>
      </trkpt>
      <trkpt lat="44.88746" lon="5.56724">
        <ele>1327</ele>
        <time>2017-12-15T19:12:22Z</time>
      </trkpt>
      <trkpt lat="44.88729" lon="5.5673">
        <ele>1327</ele>
        <time>2017-12-15T19:12:36Z</time>
      </trkpt>
      <trkpt lat="44.88716" lon="5.56732">
        <ele>1328</ele>
        <time>2017-12-15T19:12:38Z</time>
      </trkpt>
      <trkpt lat="44.88709" lon="5.5673">
        <ele>1329</ele>
        <time>2017-12-15T19:12:51Z</time>
      </trkpt>
      <trkpt lat="44.88658" lon="5.56702">
        <ele>1339</ele>
        <time>2017-12-15T19:12:59Z</time>
      </trkpt>
      <trkpt lat="44.88643" lon="5.56702">
        <ele>1340</ele>
        <time>2017-12-15T19:13:14Z</time>
      </trkpt>
      <trkpt lat="44.88628" lon="5.56707">
        <ele>1340</ele>
        <time>2017-12-15T19:13:33Z</time>
      </trkpt>
      <trkpt lat="44.88606" lon="5.56716">
        <ele>1339</ele>
        <time>2017-12-15T19:13:53Z</time>
      </trkpt>
      <trkpt lat="44.88584" lon="5.56721">
        <ele>1339</ele>
        <time>2017-12-15T19:14:13Z</time>
      </trkpt>
      <trkpt lat="44.88564" lon="5.56722">
        <ele>1345</ele>
        <time>2017-12-15T19:14:15Z</time>
      </trkpt>
      <trkpt lat="44.88533" lon="5.56718">
        <ele>1349</ele>
        <time>2017-12-15T19:14:30Z</time>
      </trkpt>
      <trkpt lat="44.88435" lon="5.56699">
        <ele>1357</ele>
        <time>2017-12-15T19:14:47Z</time>
      </trkpt>
      <trkpt lat="44.88415" lon="5.567">
        <ele>1359</ele>
        <time>2017-12-15T19:15:05Z</time>
      </trkpt>
      <trkpt lat="44.88387" lon="5.56709">
        <ele>1359</ele>
        <time>2017-12-15T19:15:17Z</time>
      </trkpt>
      <trkpt lat="44.8837" lon="5.56713">
        <ele>1359</ele>
        <time>2017-12-15T19:15:34Z</time>
      </trkpt>
      <trkpt lat="44.88359" lon="5.56712">
        <ele>1359</ele>
        <time>2017-12-15T19:15:49Z</time>
      </trkpt>
      <trkpt lat="44.88295" lon="5.56701">
        <ele>1360</ele>
        <time>2017-12-15T19:16:01Z</time>
      </trkpt>
      <trkpt lat="44.88276" lon="5.56699">
        <ele>1359</ele>
        <time>2017-12-15T19:16:11Z</time>
      </trkpt>
      <trkpt lat="44.88205" lon="5.56687">
        <ele>1355</ele>
        <time>2017-12-15T19:16:31Z</time>
      </trkpt>
      <trkpt lat="44.88184" lon="5.56687">
        <ele>1354</ele>
        <time>2017-12-15T19:16:46Z</time>
      </trkpt>
      <trkpt lat="44.88166" lon="5.56698">
        <ele>1352</ele>
        <time>2017-12-15T19:17:00Z</time>
      </trkpt>
      <trkpt lat="44.88144" lon="5.56706">
        <ele>1352</ele>
        <time>2017-12-15T19:17:16Z</time>
      </trkpt>
      <trkpt lat="44.88126" lon="5.56706">
        <ele>1352</ele>
        <time>2017-12-15T19:17:21Z</time>
      </trkpt>
      <trkpt lat="44.88099" lon="5.56695">
        <ele>1349</ele>
        <time>2017-12-15T19:17:26Z</time>
      </trkpt>
      <trkpt lat="44.8808" lon="5.56696">
        <ele>1345</ele>
        <time>2017-12-15T19:17:46Z</time>
      </trkpt>
      <trkpt lat="44.88061" lon="5.56697">
        <ele>1345</ele>
        <time>2017-12-15T19:18:00Z</time>
      </trkpt>
      <trkpt lat="44.88034" lon="5.56691">
        <ele>1344</ele>
        <time>2017-12-15T19:18:19Z</time>
      </trkpt>
      <trkpt lat="44.88012" lon="5.56691">
        <ele>1342</ele>
        <time>2017-12-15T19:18:25Z</time>
      </trkpt>
      <trkpt lat="44.87984" lon="5.56679">
        <ele>1336</ele>
        <time>2017-12-15T19:18:32Z</time>
      </trkpt>
      <trkpt lat="44.87954" lon="5.56667">
        <ele>1335</ele>
        <time>2017-12-15T19:18:51Z</time>
      </trkpt>
      <trkpt lat="44.87935" lon="5.5667">
        <ele>1332</ele>
        <time>2017-12-15T19:19:01Z</time>
      </trkpt>
      <trkpt lat="44.87924" lon="5.56674">
        <ele>1330</ele>
        <time>2017-12-15T19:19:11Z</time>
      </trkpt>
      <trkpt lat="44.87916" lon="5.56682">
        <ele>1328</ele>
        <time>2017-12-15T19:19:26Z</time>
      </trkpt>
      <trkpt lat="44.87908" lon="5.5669">
        <ele>1330</ele>
        <time>2017-12-15T19:19:34Z</time>
      </trkpt>
      <trkpt lat="44.87898" lon="5.56694">
        <ele>1330</ele>
        <time>2017-12-15T19:19:42Z</time>
      </trkpt>
      <trkpt lat="44.87877" lon="5.56692">
        <ele>1330</ele>
        <time>2017-12-15T19:19:59Z</time>
      </trkpt>
      <trkpt lat="44.87876" lon="5.56692">
        <ele>1330</ele>
        <time>2017-12-15T19:20:06Z</time>
      </trkpt>
      <trkpt lat="44.87845" lon="5.56686">
        <ele>1326</ele>
        <time>2017-12-15T19:20:13Z</time>
      </trkpt>
      <trkpt lat="44.87829" lon="5.56681">
        <ele>1320</ele>
        <time>2017-12-15T19:20:28Z</time>
      </trkpt>
      <trkpt lat="44.87815" lon="5.56671">
        <ele>1320</ele>
        <time>2017-12-15T19:20:30Z</time>
      </trkpt>
      <trkpt lat="44.87804" lon="5.56665">
        <ele>1308</ele>
        <time>2017-12-15T19:20:40Z</time>
      </trkpt>
      <trkpt lat="44.87795" lon="5.56663">
        <ele>1307</ele>
        <time>2017-12-15T19:20:59Z</time>
      </trkpt>
      <trkpt lat="44.87727" lon="5.56651">
        <ele>1302</ele>
        <time>2017-12-15T19:21:15Z</time>
      </trkpt>
      <trkpt lat="44.87698" lon="5.56645">
        <ele>1300</ele>
        <time>2017-12-15T19:21:20Z</time>
      </trkpt>
      <trkpt lat="44.8764" lon="5.56616">
        <ele>1293</ele>
        <time>2017-12-15T19:21:26Z</time>
      </trkpt>
      <trkpt lat="44.87605" lon="5.56601">
        <ele>1290</ele>
        <time>2017-12-15T19:21:43Z</time>
      </trkpt>
      <trkpt lat="44.87554" lon="5.56584">
        <ele>1283</ele>
        <time>2017-12-15T19:21:48Z</time>
      </trkpt>
      <trkpt lat="44.87539" lon="5.5658">
        <ele>1273</ele>
        <time>2017-12-15T19:21:54Z</time>
      </trkpt>
      <trkpt lat="44.87528" lon="5.56582">
        <ele>1273</ele>
        <time>2017-12-15T19:22:10Z</time>
      </trkpt>
      <trkpt lat="44.87513" lon="5.56589">
        <ele>1280</ele>
        <time>2017-12-15T19:22:22Z</time>
      </trkpt>
      <trkpt lat="44.87506" lon="5.56589">
        <ele>1279</ele>
        <time>2017-12-15T19:22:24Z</time>
      </trkpt>
      <trkpt lat="44.87503" lon="5.56583">
        <ele>1276</ele>
        <time>2017-12-15T19:22:29Z</time>
      </trkpt>
      <trkpt lat="44.87504" lon="5.56576">
        <ele>1275</ele>
        <time>2017-12-15T19:22:35Z</time>
      </trkpt>
      <trkpt lat="44.87509" lon="5.56569">
        <ele>1273</ele>
        <time>2017-12-15T19:22:45Z</time>
      </trkpt>
      <trkpt lat="44.87522" lon="5.56561">
        <ele>1271</ele>
        <time>2017-12-15T19:22:51Z</time>
      </trkpt>
      <trkpt lat="44.87543" lon="5.56554">
        <ele>1270</ele>
        <time>2017-12-15T19:23:01Z</time>
      </trkpt>
      <trkpt lat="44.87595" lon="5.56544">
        <ele>1271</ele>
        <time>2017-12-15T19:23:21Z</time>
      </trkpt>
      <trkpt lat="44.87616" lon="5.56541">
        <ele>1271</ele>
        <time>2017-12-15T19:23:24Z</time>
      </trkpt>
      <trkpt lat="44.87637" lon="5.56535">
        <ele>1270</ele>
        <time>2017-12-15T19:23:36Z</time>
      </trkpt>
      <trkpt lat="44.87668" lon="5.56525">
        <ele>1270</ele>
        <time>2017-12-15T19:23:49Z</time>
      </trkpt>
      <trkpt lat="44.87692" lon="5.56514">
        <ele>1270</ele>
        <time>2017-12-15T19:23:53Z</time>
      </trkpt>
      <trkpt lat="44.87702" lon="5.56507">
        <ele>1271</ele>
        <time>2017-12-15T19:24:00Z</time>
      </trkpt>
      <trkpt lat="44.87707" lon="5.56499">
        <ele>1260</ele>
        <time>2017-12-15T19:24:07Z</time>
      </trkpt>
      <trkpt lat="44.87711" lon="5.56491">
        <ele>1260</ele>
        <time>2017-12-15T19:24:26Z</time>
      </trkpt>
      <trkpt lat="44.87714" lon="5.56448">
        <ele>1257</ele>
        <time>2017-12-15T19:24:41Z</time>
      </trkpt>
      <trkpt lat="44.87716" lon="5.56412">
        <ele>1247</ele>
        <time>2017-12-15T19:25:01Z</time>
      </trkpt>
      <trkpt lat="44.87722" lon="5.56354">
        <ele>1244</ele>
        <time>2017-12-15T19:25:08Z</time>
      </trkpt>
      <trkpt lat="44.87732" lon="5.56288">
        <ele>1238</ele>
        <time>2017-12-15T19:25:10Z</time>
      </trkpt>
      <trkpt lat="44.87732" lon="5.56271">
        <ele>1239</ele>
        <time>2017-12-15T19:25:15Z</time>
      </trkpt>
      <trkpt lat="44.87729" lon="5.56248">
        <ele>1242</ele>
        <time>2017-12-15T19:25:29Z</time>
      </trkpt>
      <trkpt lat="44.87725" lon="5.56243">
        <ele>1241</ele>
        <time>2017-12-15T19:25:36Z</time>
      </trkpt>
      <trkpt lat="44.87713" lon="5.56236">
        <ele>1240</ele>
        <time>2017-12-15T19:25:44Z</time>
      </trkpt>
      <trkpt lat="44.87678" lon="5.5622">
        <ele>1236</ele>
        <time>2017-12-15T19:25:50Z</time>
      </trkpt>
      <trkpt lat="44.87625" lon="5.56187">
        <ele>1222</ele>
        <time>2017-12-15T19:26:04Z</time>
      </trkpt>
      <trkpt lat="44.87608" lon="5.56174">
        <ele>1219</ele>
        <time>2017-12-15T19:26:10Z</time>
      </trkpt>
      <trkpt lat="44.87598" lon="5.56162">
        <ele>1222</ele>
        <time>2017-12-15T19:26:23Z</time>
      </trkpt>
      <trkpt lat="44.8759" lon="5.56146">
        <ele>1224</ele>
        <time>2017-12-15T19:26:26Z</time>
      </trkpt>
      <trkpt lat="44.87579" lon="5.56121">
        <ele>1213</ele>
        <time>2017-12-15T19:26:44Z</time>
      </trkpt>
      <trkpt lat="44.87572" lon="5.56102">
        <ele>1215</ele>
        <time>2017-12-15T19:26:46Z</time>
      </trkpt>
      <trkpt lat="44.87515" lon="5.55995">
        <ele>1209</ele>
        <time>2017-12-15T19:26:58Z</time>
      </trkpt>
      <trkpt lat="44.87507" lon="5.5598">
        <ele>1210</ele>
        <time>2017-12-15T19:27:11Z</time>
      </trkpt>
      <trkpt lat="44.87503" lon="5.55963">
        <ele>1213</ele>
        <time>2017-12-15T19:27:26Z</time>
      </trkpt>
      <trkpt lat="44.87499" lon="5.55933">
        <ele>1201</ele>
        <time>2017-12-15T19:27:31Z</time>
      </trkpt>
      <trkpt lat="44.87495" lon="5.55925">
        <ele>1202</ele>
        <time>2017-12-15T19:27:48Z</time>
      </trkpt>
      <trkpt lat="44.87487" lon="5.55918">
        <ele>1202</ele>
        <time>2017-12-15T19:27:50Z</time>
      </trkpt>
      <trkpt lat="44.87466" lon="5.5591">
        <ele>1209</ele>
        <time>2017-12-15T19:28:03Z</time>
      </trkpt>
      <trkpt lat="44.87454" lon="5.5591">
        <ele>1208</ele>
        <time>2017-12-15T19:28:21Z</time>
      </trkpt>
      <trkpt lat="44.87431" lon="5.55917">
        <ele>1197</ele>
        <time>2017-12-15T19:28:39Z</time>
      </trkpt>
      <trkpt lat="44.87395" lon="5.55935">
        <ele>1190</ele>
        <time>2017-12-15T19:28:44Z</time>
      </trkpt>
      <trkpt lat="44.87367" lon="5.55946">
        <ele>1188</ele>
        <time>2017-12-15T19:28:54Z</time>
      </trkpt>
      <trkpt lat="44.87333" lon="5.55954">
        <ele>1177</ele>
        <time>2017-12-15T19:29:08Z</time>
      </trkpt>
      <trkpt lat="44.8732" lon="5.55954">
        <ele>1176</ele>
        <time>2017-12-15T19:29:25Z</time>
      </trkpt>
      <trkpt lat="44.87301" lon="5.55951">
        <ele>1174</ele>
        <time>2017-12-15T19:29:41Z</time>
      </trkpt>
      <trkpt lat="44.87284" lon="5.55943">
        <ele>1172</ele>
        <time>2017-12-15T19:29:49Z</time>
      </trkpt>
      <trkpt lat="44.8727" lon="5.55932">
        <ele>1171</ele>
        <time>2017-12-15T19:30:04Z</time>
      </trkpt>
      <trkpt lat="44.87261" lon="5.55918">
        <ele>1170</ele>
        <time>2017-12-15T19:30:16Z</time>
      </trkpt>
      <trkpt lat="44.87243" lon="5.55864">
        <ele>1168</ele>
        <time>2017-12-15T19:30:34Z</time>
      </trkpt>
      <trkpt lat="44.87236" lon="5.55849">
        <ele>1171</ele>
        <time>2017-12-15T19:30:36Z</time>
      </trkpt>
      <trkpt lat="44.87229" lon="5.55846">
        <ele>1170</ele>
        <time>2017-12-15T19:30:44Z</time>
      </trkpt>
      <trkpt lat="44.87224" lon="5.55844">
        <ele>1168</ele>
        <time>2017-12-15T19:30:51Z</time>
      </trkpt>
      <trkpt lat="44.87211" lon="5.55844">
        <ele>1165</ele>
        <time>2017-12-15T19:30:58Z</time>
      </trkpt>
      <trkpt lat="44.87193" lon="5.55847">
        <ele>1162</ele>
        <time>2017-12-15T19:31:17Z</time>
      </trkpt>
      <trkpt lat="44.87185" lon="5.55847">
        <ele>1161</ele>
        <time>2017-12-15T19:31:32Z</time>
      </trkpt>
      <trkpt lat="44.87166" lon="5.55833">
        <ele>1158</ele>
        <time>2017-12-15T19:31:44Z</time>
      </trkpt>
      <trkpt lat="44.87154" lon="5.55824">
        <ele>1159</ele>
        <time>2017-12-15T19:32:00Z</time>
      </trkpt>
      <trkpt lat="44.8713" lon="5.55814">
        <ele>1159</ele>
        <time>2017-12-15T19:32:06Z</time>
      </trkpt>
      <trkpt lat="44.87108" lon="5.55807">
        <ele>1157</ele>
        <time>2017-12-15T19:32:09Z</time>
      </trkpt>
      <trkpt lat="44.87093" lon="5.55804">
        <ele>1156</ele>
        <time>2017-12-15T19:32:19Z</time>
      </trkpt>
      <trkpt lat="44.87066" lon="5.55809">
        <ele>1148</ele>
        <time>2017-12-15T19:32:22Z</time>
      </trkpt>
      <trkpt lat="44.87035" lon="5.55827">
        <ele>1145</ele>
        <time>2017-12-15T19:32:39Z</time>
      </trkpt>
      <trkpt lat="44.87021" lon="5.55834">
        <ele>1133</ele>
        <time>2017-12-15T19:32:45Z</time>
      </trkpt>
      <trkpt lat="44.87007" lon="5.55836">
        <ele>1133</ele>
        <time>2017-12-15T19:32:58Z</time>
      </trkpt>
      <trkpt lat="44.8699" lon="5.55833">
        <ele>1134</ele>
        <time>2017-12-15T19:33:06Z</time>
      </trkpt>
      <trkpt lat="44.86978" lon="5.55824">
        <ele>1134</ele>
        <time>2017-12-15T19:33:12Z</time>
      </trkpt>
      <trkpt lat="44.86966" lon="5.55813">
        <ele>1134</ele>
        <time>2017-12-15T19:33:19Z</time>
      </trkpt>
      <trkpt lat="44.86939" lon="5.5578">
        <ele>1135</ele>
        <time>2017-12-15T19:33:34Z</time>
      </trkpt>
      <trkpt lat="44.86925" lon="5.55764">
        <ele>1135</ele>
        <time>2017-12-15T19:33:43Z</time>
      </trkpt>
      <trkpt lat="44.86891" lon="5.55739">
        <ele>1132</ele>
        <time>2017-12-15T19:33:58Z</time>
      </trkpt>
      <trkpt lat="44.86869" lon="5.55715">
        <ele>1131</ele>
        <time>2017-12-15T19:34:18Z</time>
      </trkpt>
      <trkpt lat="44.86852" lon="5.55689">
        <ele>1130</ele>
        <time>2017-12-15T19:34:22Z</time>
      </trkpt>
      <trkpt lat="44.86844" lon="5.5567">
        <ele>1129</ele>
        <time>2017-12-15T19:34:39Z</time>
      </trkpt>
      <trkpt lat="44.86837" lon="5.55662">
        <ele>1128</ele>
        <time>2017-12-15T19:34:44Z</time>
      </trkpt>
      <trkpt lat="44.86825" lon="5.55657">
        <ele>1132</ele>
        <time>2017-12-15T19:34:50Z</time>
      </trkpt>
      <trkpt lat="44.86815" lon="5.55662">
        <ele>1134</ele>
        <time>2017-12-15T19:35:05Z</time>
      </trkpt>
      <trkpt lat="44.86812" lon="5.55667">
        <ele>1135</ele>
        <time>2017-12-15T19:35:21Z</time>
      </trkpt>
      <trkpt lat="44.86808" lon="5.55675">
        <ele>1136</ele>
        <time>2017-12-15T19:35:25Z</time>
      </trkpt>
      <trkpt lat="44.86799" lon="5.55746">
        <ele>1137</ele>
        <time>2017-12-15T19:35:42Z</time>
      </trkpt>
      <trkpt lat="44.86796" lon="5.55792">
        <ele>1133</ele>
        <time>2017-12-15T19:36:01Z</time>
      </trkpt>
      <trkpt lat="44.86803" lon="5.5584">
        <ele>1124</ele>
        <time>2017-12-15T19:36:16Z</time>
      </trkpt>
      <trkpt lat="44.86802" lon="5.55852">
        <ele>1124</ele>
        <time>2017-12-15T19:36:32Z</time>
      </trkpt>
      <trkpt lat="44.868" lon="5.5586">
        <ele>1124</ele>
        <time>2017-12-15T19:36:51Z</time>
      </trkpt>
      <trkpt lat="44.86792" lon="5.5587">
        <ele>1125</ele>
        <time>2017-12-15T19:37:00Z</time>
      </trkpt>
      <trkpt lat="44.86785" lon="5.55873">
        <ele>1126</ele>
        <time>2017-12-15T19:37:04Z</time>
      </trkpt>
      <trkpt lat="44.86767" lon="5.55872">
        <ele>1128</ele>
        <time>2017-12-15T19:37:16Z</time>
      </trkpt>
      <trkpt lat="44.86675" lon="5.55865">
        <ele>1143</ele>
        <time>2017-12-15T19:37:20Z</time>
      </trkpt>
      <trkpt lat="44.86662" lon="5.55868">
        <ele>1150</ele>
        <time>2017-12-15T19:37:33Z</time>
      </trkpt>
      <trkpt lat="44.86654" lon="5.5588">
        <ele>1149</ele>
        <time>2017-12-15T19:37:45Z</time>
      </trkpt>
      <trkpt lat="44.86645" lon="5.5592">
        <ele>1144</ele>
        <time>2017-12-15T19:37:51Z</time>
      </trkpt>
      <trkpt lat="44.86634" lon="5.55955">
        <ele>1147</ele>
        <time>2017-12-15T19:37:57Z</time>
      </trkpt>
      <trkpt lat="44.86621" lon="5.55974">
        <ele>1148</ele>
        <time>2017-12-15T19:37:59Z</time>
      </trkpt>
      <trkpt lat="44.86612" lon="5.55982">
        <ele>1149</ele>
        <time>2017-12-15T19:38:03Z</time>
      </trkpt>
      <trkpt lat="44.86601" lon="5.55988">
        <ele>1151</ele>
        <time>2017-12-15T19:38:16Z</time>
      </trkpt>
      <trkpt lat="44.8659" lon="5.55991">
        <ele>1152</ele>
        <time>2017-12-15T19:38:30Z</time>
      </trkpt>
      <trkpt lat="44.8658" lon="5.5599">
        <ele>1156</ele>
        <time>2017-12-15T19:38:43Z</time>
      </trkpt>
      <trkpt lat="44.86572" lon="5.55985">
        <ele>1156</ele>
        <time>2017-12-15T19:38:46Z</time>
      </trkpt>
      <trkpt lat="44.86565" lon="5.55977">
        <ele>1157</ele>
        <time>2017-12-15T19:39:06Z</time>
      </trkpt>
      <trkpt lat="44.86549" lon="5.55951">
        <ele>1158</ele>
        <time>2017-12-15T19:39:13Z</time>
      </trkpt>
      <trkpt lat="44.86545" lon="5.55938">
        <ele>1158</ele>
        <time>2017-12-15T19:39:29Z</time>
      </trkpt>
      <trkpt lat="44.86542" lon="5.55922">
        <ele>1159</ele>
        <time>2017-12-15T19:39:31Z</time>
      </trkpt>
      <trkpt lat="44.86544" lon="5.5589">
        <ele>1162</ele>
        <time>2017-12-15T19:39:34Z</time>
      </trkpt>
      <trkpt lat="44.86549" lon="5.55877">
        <ele>1162</ele>
        <time>2017-12-15T19:39:53Z</time>
      </trkpt>
      <trkpt lat="44.86553" lon="5.55871">
        <ele>1162</ele>
        <time>2017-12-15T19:40:02Z</time>
      </trkpt>
      <trkpt lat="44.86568" lon="5.55856">
        <ele>1161</ele>
        <time>2017-12-15T19:40:06Z</time>
      </trkpt>
      <trkpt lat="44.86569" lon="5.55848">
        <ele>1161</ele>
        <time>2017-12-15T19:40:11Z</time>
      </trkpt>
      <trkpt lat="44.86565" lon="5.5584">
        <ele>1161</ele>
        <time>2017-12-15T19:40:30Z</time>
      </trkpt>
      <trkpt lat="44.86552" lon="5.5584">
        <ele>1162</ele>
        <time>2017-12-15T19:40:39Z</time>
      </trkpt>
      <trkpt lat="44.86523" lon="5.55849">
        <ele>1165</ele>
        <time>2017-12-15T19:40:41Z</time>
      </trkpt>
      <trkpt lat="44.86514" lon="5.55855">
        <ele>1165</ele>
        <time>2017-12-15T19:40:46Z</time>
      </trkpt>
      <trkpt lat="44.86495" lon="5.55881">
        <ele>1169</ele>
        <time>2017-12-15T19:40:58Z</time>
      </trkpt>
      <trkpt lat="44.86489" lon="5.55887">
        <ele>1169</ele>
        <time>2017-12-15T19:41:14Z</time>
      </trkpt>
      <trkpt lat="44.86476" lon="5.5589">
        <ele>1169</ele>
        <time>2017-12-15T19:41:17Z</time>
      </trkpt>
      <trkpt lat="44.86399" lon="5.55879">
        <ele>1164</ele>
        <time>2017-12-15T19:41:28Z</time>
      </trkpt>
      <trkpt lat="44.86386" lon="5.55874">
        <ele>1163</ele>
        <time>2017-12-15T19:41:45Z</time>
      </trkpt>
      <trkpt lat="44.8638" lon="5.55867">
        <ele>1163</ele>
        <time>2017-12-15T19:41:49Z</time>
      </trkpt>
      <trkpt lat="44.86335" lon="5.55801">
        <ele>1167</ele>
        <time>2017-12-15T19:42:02Z</time>
      </trkpt>
      <trkpt lat="44.86297" lon="5.5575">
        <ele>1151</ele>
        <time>2017-12-15T19:42:05Z</time>
      </trkpt>
      <trkpt lat="44.86247" lon="5.55702">
        <ele>1147</ele>
        <time>2017-12-15T19:42:15Z</time>
      </trkpt>
      <trkpt lat="44.8623" lon="5.55688">
        <ele>1149</ele>
        <time>2017-12-15T19:42:33Z</time>
      </trkpt>
      <trkpt lat="44.86215" lon="5.55679">
        <ele>1148</ele>
        <time>2017-12-15T19:42:52Z</time>
      </trkpt>
      <trkpt lat="44.86184" lon="5.55667">
        <ele>1147</ele>
        <time>2017-12-15T19:43:12Z</time>
      </trkpt>
      <trkpt lat="44.8617" lon="5.55667">
        <ele>1148</ele>
        <time>2017-12-15T19:43:22Z</time>
      </trkpt>
      <trkpt lat="44.8616" lon="5.55672">
        <ele>1150</ele>
        <time>2017-12-15T19:43:32Z</time>
      </trkpt>
      <trkpt lat="44.86153" lon="5.55681">
        <ele>1151</ele>
        <time>2017-12-15T19:43:37Z</time>
      </trkpt>
      <trkpt lat="44.86148" lon="5.55697">
        <ele>1150</ele>
        <time>2017-12-15T19:43:57Z</time>
      </trkpt>
      <trkpt lat="44.86145" lon="5.55741">
        <ele>1144</ele>
        <time>2017-12-15T19:44:11Z</time>
      </trkpt>
      <trkpt lat="44.86141" lon="5.55766">
        <ele>1132</ele>
        <time>2017-12-15T19:44:27Z</time>
      </trkpt>
      <trkpt lat="44.86136" lon="5.55785">
        <ele>1130</ele>
        <time>2017-12-15T19:44:29Z</time>
      </trkpt>
      <trkpt lat="44.86129" lon="5.55804">
        <ele>1128</ele>
        <time>2017-12-15T19:44:34Z</time>
      </trkpt>
      <trkpt lat="44.86121" lon="5.55815">
        <ele>1127</ele>
        <time>2017-12-15T19:44:47Z</time>
      </trkpt>
      <trkpt lat="44.86112" lon="5.55823">
        <ele>1126</ele>
        <time>2017-12-15T19:44:52Z</time>
      </trkpt>
      <trkpt lat="44.86096" lon="5.55831">
        <ele>1125</ele>
        <time>2017-12-15T19:45:06Z</time>
      </trkpt>
      <trkpt lat="44.86082" lon="5.55833">
        <ele>1123</ele>
        <time>2017-12-15T19:45:26Z</time>
      </trkpt>
      <trkpt lat="44.86053" lon="5.55828">
        <ele>1129</ele>
        <time>2017-12-15T19:45:40Z</time>
      </trkpt>
      <trkpt lat="44.86018" lon="5.55818">
        <ele>1127</ele>
        <time>2017-12-15T19:45:59Z</time>
      </trkpt>
      <trkpt lat="44.86008" lon="5.55817">
        <ele>1125</ele>
        <time>2017-12-15T19:46:16Z</time>
      </trkpt>
      <trkpt lat="44.85997" lon="5.5582">
        <ele>1119</ele>
        <time>2017-12-15T19:46:27Z</time>
      </trkpt>
      <trkpt lat="44.85984" lon="5.55828">
        <ele>1119</ele>
        <time>2017-12-15T19:46:33Z</time>
      </trkpt>
      <trkpt lat="44.85971" lon="5.55839">
        <ele>1111</ele>
        <time>2017-12-15T19:46:35Z</time>
      </trkpt>
      <trkpt lat="44.85963" lon="5.55848">
        <ele>1110</ele>
        <time>2017-12-15T19:46:49Z</time>
      </trkpt>
      <trkpt lat="44.85968" lon="5.55856">
        <ele>1110</ele>
        <time>2017-12-15T19:46:59Z</time>
      </trkpt>
      <trkpt lat="44.85975" lon="5.55867">
        <ele>1109</ele>
        <time>2017-12-15T19:47:11Z</time>
      </trkpt>
      <trkpt lat="44.85986" lon="5.5588">
        <ele>1107</ele>
        <time>2017-12-15T19:47:19Z</time>
      </trkpt>
      <trkpt lat="44.86011" lon="5.55904">
        <ele>1102</ele>
        <time>2017-12-15T19:47:35Z</time>
      </trkpt>
      <trkpt lat="44.8603" lon="5.55916">
        <ele>1103</ele>
        <time>2017-12-15T19:47:51Z</time>
      </trkpt>
      <trkpt lat="44.86051" lon="5.55923">
        <ele>1098</ele>
        <time>2017-12-15T19:48:09Z</time>
      </trkpt>
      <trkpt lat="44.86094" lon="5.55927">
        <ele>1094</ele>
        <time>2017-12-15T19:48:22Z</time>
      </trkpt>
      <trkpt lat="44.86137" lon="5.55933">
        <ele>1092</ele>
        <time>2017-12-15T19:48:30Z</time>
      </trkpt>
      <trkpt lat="44.86156" lon="5.55938">
        <ele>1092</ele>
        <time>2017-12-15T19:48:32Z</time>
      </trkpt>
      <trkpt lat="44.86174" lon="5.55948">
        <ele>1093</ele>
        <time>2017-12-15T19:48:37Z</time>
      </trkpt>
      <trkpt lat="44.86206" lon="5.55971">
        <ele>1094</ele>
        <time>2017-12-15T19:48:40Z</time>
      </trkpt>
      <trkpt lat="44.86248" lon="5.56005">
        <ele>1093</ele>
        <time>2017-12-15T19:48:45Z</time>
      </trkpt>
      <trkpt lat="44.86269" lon="5.56026">
        <ele>1095</ele>
        <time>2017-12-15T19:48:55Z</time>
      </trkpt>
      <trkpt lat="44.86357" lon="5.56133">
        <ele>1082</ele>
        <time>2017-12-15T19:49:06Z</time>
      </trkpt>
      <trkpt lat="44.86369" lon="5.56142">
        <ele>1082</ele>
        <time>2017-12-15T19:49:21Z</time>
      </trkpt>
      <trkpt lat="44.86382" lon="5.5615">
        <ele>1081</ele>
        <time>2017-12-15T19:49:23Z</time>
      </trkpt>
      <trkpt lat="44.86392" lon="5.56161">
        <ele>1080</ele>
        <time>2017-12-15T19:49:39Z</time>
      </trkpt>
      <trkpt lat="44.86395" lon="5.5617">
        <ele>1076</ele>
        <time>2017-12-15T19:49:41Z</time>
      </trkpt>
      <trkpt lat="44.86412" lon="5.56213">
        <ele>1077</ele>
        <time>2017-12-15T19:49:48Z</time>
      </trkpt>
      <trkpt lat="44.86424" lon="5.56223">
        <ele>1075</ele>
        <time>2017-12-15T19:50:06Z</time>
      </trkpt>
      <trkpt lat="44.86448" lon="5.56233">
        <ele>1075</ele>
        <time>2017-12-15T19:50:21Z</time>
      </trkpt>
      <trkpt lat="44.86471" lon="5.56245">
        <ele>1074</ele>
        <time>2017-12-15T19:50:29Z</time>
      </trkpt>
      <trkpt lat="44.86481" lon="5.56253">
        <ele>1073</ele>
        <time>2017-12-15T19:50:43Z</time>
      </trkpt>
      <trkpt lat="44.86491" lon="5.56268">
        <ele>1073</ele>
        <time>2017-12-15T19:50:57Z</time>
      </trkpt>
      <trkpt lat="44.86499" lon="5.56284">
        <ele>1074</ele>
        <time>2017-12-15T19:51:01Z</time>
      </trkpt>
      <trkpt lat="44.86524" lon="5.56357">
        <ele>1071</ele>
        <time>2017-12-15T19:51:19Z</time>
      </trkpt>
      <trkpt lat="44.8653" lon="5.56367">
        <ele>1072</ele>
        <time>2017-12-15T19:51:27Z</time>
      </trkpt>
      <trkpt lat="44.86553" lon="5.56395">
        <ele>1071</ele>
        <time>2017-12-15T19:51:46Z</time>
      </trkpt>
      <trkpt lat="44.8657" lon="5.56416">
        <ele>1068</ele>
        <time>2017-12-15T19:51:53Z</time>
      </trkpt>
      <trkpt lat="44.86579" lon="5.56419">
        <ele>1071</ele>
        <time>2017-12-15T19:52:03Z</time>
      </trkpt>
      <trkpt lat="44.86589" lon="5.56417">
        <ele>1066</ele>
        <time>2017-12-15T19:52:08Z</time>
      </trkpt>
      <trkpt lat="44.86602" lon="5.56408">
        <ele>1059</ele>
        <time>2017-12-15T19:52:13Z</time>
      </trkpt>
      <trkpt lat="44.86616" lon="5.56399">
        <ele>1056</ele>
        <time>2017-12-15T19:52:24Z</time>
      </trkpt>
      <trkpt lat="44.86626" lon="5.56397">
        <ele>1055</ele>
        <time>2017-12-15T19:52:31Z</time>
      </trkpt>
      <trkpt lat="44.86638" lon="5.564">
        <ele>1053</ele>
        <time>2017-12-15T19:52:42Z</time>
      </trkpt>
      <trkpt lat="44.86654" lon="5.56411">
        <ele>1049</ele>
        <time>2017-12-15T19:52:46Z</time>
      </trkpt>
      <trkpt lat="44.86676" lon="5.5643">
        <ele>1048</ele>
        <time>2017-12-15T19:52:56Z</time>
      </trkpt>
      <trkpt lat="44.86685" lon="5.56446">
        <ele>1050</ele>
        <time>2017-12-15T19:53:14Z</time>
      </trkpt>
      <trkpt lat="44.86709" lon="5.56517">
        <ele>1058</ele>
        <time>2017-12-15T19:53:31Z</time>
      </trkpt>
      <trkpt lat="44.86723" lon="5.56536">
        <ele>1057</ele>
        <time>2017-12-15T19:53:45Z</time>
      </trkpt>
      <trkpt lat="44.86742" lon="5.56557">
        <ele>1055</ele>
        <time>2017-12-15T19:53:50Z</time>
      </trkpt>
      <trkpt lat="44.86758" lon="5.5657">
        <ele>1039</ele>
        <time>2017-12-15T19:53:57Z</time>
      </trkpt>
      <trkpt lat="44.86804" lon="5.56597">
        <ele>1037</ele>
        <time>2017-12-15T19:54:11Z</time>
      </trkpt>
      <trkpt lat="44.86814" lon="5.566">
        <ele>1034</ele>
        <time>2017-12-15T19:54:29Z</time>
      </trkpt>
      <trkpt lat="44.86824" lon="5.566">
        <ele>1031</ele>
        <time>2017-12-15T19:54:43Z</time>
      </trkpt>
      <trkpt lat="44.86832" lon="5.566">
        <ele>1029</ele>
        <time>2017-12-15T19:54:57Z</time>
      </trkpt>
      <trkpt lat="44.86843" lon="5.56607">
        <ele>1016</ele>
        <time>2017-12-15T19:55:03Z</time>
      </trkpt>
      <trkpt lat="44.86869" lon="5.56646">
        <ele>1019</ele>
        <time>2017-12-15T19:55:17Z</time>
      </trkpt>
      <trkpt lat="44.86889" lon="5.56663">
        <ele>1014</ele>
        <time>2017-12-15T19:55:20Z</time>
      </trkpt>
      <trkpt lat="44.869" lon="5.5668">
        <ele>1020</ele>
        <time>2017-12-15T19:55:38Z</time>
      </trkpt>
      <trkpt lat="44.86913" lon="5.56715">
        <ele>1026</ele>
        <time>2017-12-15T19:55:44Z</time>
      </trkpt>
      <trkpt lat="44.8692" lon="5.56779">
        <ele>1004</ele>
        <time>2017-12-15T19:55:53Z</time>
      </trkpt>
      <trkpt lat="44.86917" lon="5.56827">
        <ele>1014</ele>
        <time>2017-12-15T19:56:11Z</time>
      </trkpt>
      <trkpt lat="44.86916" lon="5.56866">
        <ele>1037</ele>
        <time>2017-12-15T19:56:14Z</time>
      </trkpt>
      <trkpt lat="44.86916" lon="5.56906">
        <ele>1026</ele>
        <time>2017-12-15T19:56:16Z</time>
      </trkpt>
      <trkpt lat="44.86914" lon="5.56917">
        <ele>1016</ele>
        <time>2017-12-15T19:56:25Z</time>
      </trkpt>
      <trkpt lat="44.86906" lon="5.5695">
        <ele>1026</ele>
        <time>2017-12-15T19:56:29Z</time>
      </trkpt>
      <trkpt lat="44.86899" lon="5.56975">
        <ele>1023</ele>
        <time>2017-12-15T19:56:44Z</time>
      </trkpt>
      <trkpt lat="44.86879" lon="5.57026">
        <ele>1015</ele>
        <time>2017-12-15T19:56:47Z</time>
      </trkpt>
      <trkpt lat="44.86871" lon="5.57052">
        <ele>1014</ele>
        <time>2017-12-15T19:56:55Z</time>
      </trkpt>
      <trkpt lat="44.86858" lon="5.57081">
        <ele>1017</ele>
        <time>2017-12-15T19:57:08Z</time>
      </trkpt>
      <trkpt lat="44.86857" lon="5.57094">
        <ele>1007</ele>
        <time>2017-12-15T19:57:10Z</time>
      </trkpt>
      <trkpt lat="44.86862" lon="5.57101">
        <ele>1004</ele>
        <time>2017-12-15T19:57:12Z</time>
      </trkpt>
      <trkpt lat="44.86867" lon="5.57099">
        <ele>1002</ele>
        <time>2017-12-15T19:57:26Z</time>
      </trkpt>
      <trkpt lat="44.86874" lon="5.57087">
        <ele>1000</ele>
        <time>2017-12-15T19:57:29Z</time>
      </trkpt>
      <trkpt lat="44.86891" lon="5.57031">
        <ele>1010</ele>
        <time>2017-12-15T19:57:39Z</time>
      </trkpt>
      <trkpt lat="44.86899" lon="5.57013">
        <ele>1008</ele>
        <time>2017-12-15T19:57:45Z</time>
      </trkpt>
      <trkpt lat="44.86912" lon="5.56995">
        <ele>1007</ele>
        <time>2017-12-15T19:57:50Z</time>
      </trkpt>
      <trkpt lat="44.86943" lon="5.56931">
        <ele>995</ele>
        <time>2017-12-15T19:58:02Z</time>
      </trkpt>
      <trkpt lat="44.8695" lon="5.56912">
        <ele>997</ele>
        <time>2017-12-15T19:58:21Z</time>
      </trkpt>
      <trkpt lat="44.86953" lon="5.56888">
        <ele>995</ele>
        <time>2017-12-15T19:58:28Z</time>
      </trkpt>
      <trkpt lat="44.86962" lon="5.56807">
        <ele>993</ele>
        <time>2017-12-15T19:58:40Z</time>
      </trkpt>
      <trkpt lat="44.86976" lon="5.56724">
        <ele>990</ele>
        <time>2017-12-15T19:58:59Z</time>
      </trkpt>
      <trkpt lat="44.86984" lon="5.56706">
        <ele>991</ele>
        <time>2017-12-15T19:59:16Z</time>
      </trkpt>
      <trkpt lat="44.86998" lon="5.56687">
        <ele>990</ele>
        <time>2017-12-15T19:59:31Z</time>
      </trkpt>
      <trkpt lat="44.87003" lon="5.56684">
        <ele>991</ele>
        <time>2017-12-15T19:59:39Z</time>
      </trkpt>
      <trkpt lat="44.87011" lon="5.56687">
        <ele>992</ele>
        <time>2017-12-15T19:59:52Z</time>
      </trkpt>
      <trkpt lat="44.8702" lon="5.567">
        <ele>992</ele>
        <time>2017-12-15T20:00:07Z</time>
      </trkpt>
      <trkpt lat="44.87035" lon="5.56725">
        <ele>992</ele>
        <time>2017-12-15T20:00:12Z</time>
      </trkpt>
      <trkpt lat="44.8705" lon="5.56753">
        <ele>986</ele>
        <time>2017-12-15T20:00:16Z</time>
      </trkpt>
      <trkpt lat="44.87055" lon="5.56769">
        <ele>986</ele>
        <time>2017-12-15T20:00:33Z</time>
      </trkpt>
      <trkpt lat="44.87053" lon="5.56779">
        <ele>986</ele>
        <time>2017-12-15T20:00:53Z</time>
      </trkpt>
      <trkpt lat="44.87047" lon="5.56785">
        <ele>985</ele>
        <time>2017-12-15T20:01:05Z</time>
      </trkpt>
      <trkpt lat="44.8704" lon="5.56795">
        <ele>984</ele>
        <time>2017-12-15T20:01:16Z</time>
      </trkpt>
      <trkpt lat="44.87038" lon="5.56808">
        <ele>984</ele>
        <time>2017-12-15T20:01:19Z</time>
      </trkpt>
      <trkpt lat="44.87035" lon="5.56839">
        <ele>986</ele>
        <time>2017-12-15T20:01:35Z</time>
      </trkpt>
      <trkpt lat="44.87024" lon="5.56875">
        <ele>986</ele>
        <time>2017-12-15T20:01:55Z</time>
      </trkpt>
      <trkpt lat="44.87026" lon="5.56916">
        <ele>986</ele>
        <time>2017-12-15T20:02:10Z</time>
      </trkpt>
      <trkpt lat="44.87026" lon="5.56937">
        <ele>990</ele>
        <time>2017-12-15T20:02:18Z</time>
      </trkpt>
      <trkpt lat="44.87023" lon="5.56951">
        <ele>990</ele>
        <time>2017-12-15T20:02:29Z</time>
      </trkpt>
      <trkpt lat="44.87009" lon="5.56979">
        <ele>985</ele>
        <time>2017-12-15T20:02:33Z</time>
      </trkpt>
      <trkpt lat="44.87006" lon="5.56996">
        <ele>978</ele>
        <time>2017-12-15T20:02:46Z</time>
      </trkpt>
      <trkpt lat="44.87007" lon="5.57025">
        <ele>986</ele>
        <time>2017-12-15T20:03:00Z</time>
      </trkpt>
      <trkpt lat="44.87007" lon="5.57041">
        <ele>988</ele>
        <time>2017-12-15T20:03:17Z</time>
      </trkpt>
      <trkpt lat="44.87004" lon="5.57058">
        <ele>986</ele>
        <time>2017-12-15T20:03:32Z</time>
      </trkpt>
      <trkpt lat="44.86992" lon="5.57094">
        <ele>971</ele>
        <time>2017-12-15T20:03:35Z</time>
      </trkpt>
      <trkpt lat="44.8699" lon="5.57107">
        <ele>971</ele>
        <time>2017-12-15T20:03:39Z</time>
      </trkpt>
      <trkpt lat="44.86993" lon="5.57121">
        <ele>970</ele>
        <time>2017-12-15T20:03:54Z</time>
      </trkpt>
      <trkpt lat="44.87008" lon="5.57174">
        <ele>972</ele>
        <time>2017-12-15T20:04:02Z</time>
      </trkpt>
      <trkpt lat="44.87014" lon="5.57217">
        <ele>976</ele>
        <time>2017-12-15T20:04:21Z</time>
      </trkpt>
      <trkpt lat="44.87015" lon="5.57234">
        <ele>970</ele>
        <time>2017-12-15T20:04:36Z</time>
      </trkpt>
      <trkpt lat="44.87012" lon="5.57252">
        <ele>959</ele>
        <time>2017-12-15T20:04:52Z</time>
      </trkpt>
      <trkpt lat="44.87009" lon="5.57272">
        <ele>965</ele>
        <time>2017-12-15T20:05:04Z</time>
      </trkpt>
      <trkpt lat="44.87008" lon="5.57294">
        <ele>967</ele>
        <time>2017-12-15T20:05:10Z</time>
      </trkpt>
      <trkpt lat="44.87006" lon="5.57334">
        <ele>951</ele>
        <time>2017-12-15T20:05:24Z</time>
      </trkpt>
      <trkpt lat="44.87003" lon="5.57347">
        <ele>958</ele>
        <time>2017-12-15T20:05:27Z</time>
      </trkpt>
      <trkpt lat="44.86999" lon="5.57357">
        <ele>939</ele>
        <time>2017-12-15T20:05:46Z</time>
      </trkpt>
      <trkpt lat="44.86991" lon="5.57368">
        <ele>938</ele>
        <time>2017-12-15T20:06:05Z</time>
      </trkpt>
      <trkpt lat="44.86987" lon="5.5738">
        <ele>938</ele>
        <time>2017-12-15T20:06:19Z</time>
      </trkpt>
      <trkpt lat="44.86987" lon="5.57405">
        <ele>941</ele>
        <time>2017-12-15T20:06:22Z</time>
      </trkpt>
      <trkpt lat="44.8698" lon="5.5742">
        <ele>940</ele>
        <time>2017-12-15T20:06:39Z</time>
      </trkpt>
      <trkpt lat="44.86972" lon="5.57431">
        <ele>937</ele>
        <time>2017-12-15T20:06:54Z</time>
      </trkpt>
      <trkpt lat="44.86961" lon="5.57452">
        <ele>934</ele>
        <time>2017-12-15T20:07:11Z</time>
      </trkpt>
      <trkpt lat="44.86953" lon="5.57475">
        <ele>932</ele>
        <time>2017-12-15T20:07:27Z</time>
      </trkpt>
      <trkpt lat="44.86947" lon="5.57502">
        <ele>932</ele>
        <time>2017-12-15T20:07:33Z</time>
      </trkpt>
      <trkpt lat="44.86943" lon="5.57526">
        <ele>933</ele>
        <time>2017-12-15T20:07:39Z</time>
      </trkpt>
      <trkpt lat="44.86941" lon="5.57546">
        <ele>933</ele>
        <time>2017-12-15T20:07:54Z</time>
      </trkpt>
      <trkpt lat="44.86947" lon="5.57588">
        <ele>939</ele>
        <time>2017-12-15T20:08:01Z</time>
      </trkpt>
      <trkpt lat="44.86943" lon="5.57604">
        <ele>939</ele>
        <time>2017-12-15T20:08:14Z</time>
      </trkpt>
      <trkpt lat="44.86923" lon="5.57626">
        <ele>936</ele>
        <time>2017-12-15T20:08:28Z</time>
      </trkpt>
      <trkpt lat="44.86911" lon="5.57639">
        <ele>915</ele>
        <time>2017-12-15T20:08:46Z</time>
      </trkpt>
      <trkpt lat="44.86906" lon="5.57652">
        <ele>916</ele>
        <time>2017-12-15T20:09:06Z</time>
      </trkpt>
      <trkpt lat="44.86905" lon="5.57667">
        <ele>918</ele>
        <time>2017-12-15T20:09:08Z</time>
      </trkpt>
      <trkpt lat="44.86906" lon="5.57685">
        <ele>917</ele>
        <time>2017-12-15T20:09:25Z</time>
      </trkpt>
      <trkpt lat="44.86907" lon="5.57698">
        <ele>916</ele>
        <time>2017-12-15T20:09:33Z</time>
      </trkpt>
      <trkpt lat="44.86906" lon="5.57707">
        <ele>916</ele>
        <time>2017-12-15T20:09:50Z</time>
      </trkpt>
      <trkpt lat="44.86901" lon="5.5772">
        <ele>917</ele>
        <time>2017-12-15T20:09:54Z</time>
      </trkpt>
      <trkpt lat="44.86896" lon="5.57738">
        <ele>918</ele>
        <time>2017-12-15T20:09:58Z</time>
      </trkpt>
      <trkpt lat="44.86894" lon="5.57757">
        <ele>922</ele>
        <time>2017-12-15T20:10:13Z</time>
      </trkpt>
      <trkpt lat="44.86888" lon="5.5777">
        <ele>920</ele>
        <time>2017-12-15T20:10:32Z</time>
      </trkpt>
      <trkpt lat="44.86877" lon="5.57784">
        <ele>917</ele>
        <time>2017-12-15T20:10:42Z</time>
      </trkpt>
      <trkpt lat="44.86868" lon="5.57797">
        <ele>915</ele>
        <time>2017-12-15T20:10:58Z</time>
      </trkpt>
      <trkpt lat="44.86854" lon="5.57844">
        <ele>917</ele>
        <time>2017-12-15T20:11:16Z</time>
      </trkpt>
      <trkpt lat="44.86842" lon="5.57874">
        <ele>921</ele>
        <time>2017-12-15T20:11:30Z</time>
      </trkpt>
      <trkpt lat="44.86829" lon="5.579">
        <ele>902</ele>
        <time>2017-12-15T20:11:33Z</time>
      </trkpt>
      <trkpt lat="44.8681" lon="5.57928">
        <ele>908</ele>
        <time>2017-12-15T20:11:53Z</time>
      </trkpt>
      <trkpt lat="44.86791" lon="5.57951">
        <ele>906</ele>
        <time>2017-12-15T20:11:57Z</time>
      </trkpt>
      <trkpt lat="44.86761" lon="5.5798">
        <ele>905</ele>
        <time>2017-12-15T20:12:15Z</time>
      </trkpt>
      <trkpt lat="44.86749" lon="5.57988">
        <ele>894</ele>
        <time>2017-12-15T20:12:34Z</time>
      </trkpt>
      <trkpt lat="44.86734" lon="5.57993">
        <ele>892</ele>
        <time>2017-12-15T20:12:42Z</time>
      </trkpt>
      <trkpt lat="44.86721" lon="5.57999">
        <ele>888</ele>
        <time>2017-12-15T20:12:58Z</time>
      </trkpt>
      <trkpt lat="44.86708" lon="5.58008">
        <ele>898</ele>
        <time>2017-12-15T20:13:08Z</time>
      </trkpt>
      <trkpt lat="44.86694" lon="5.58017">
        <ele>895</ele>
        <time>2017-12-15T20:13:25Z</time>
      </trkpt>
      <trkpt lat="44.86681" lon="5.58022">
        <ele>893</ele>
        <time>2017-12-15T20:13:37Z</time>
      </trkpt>
      <trkpt lat="44.86657" lon="5.58027">
        <ele>877</ele>
        <time>2017-12-15T20:13:52Z</time>
      </trkpt>
      <trkpt lat="44.86649" lon="5.58031">
        <ele>876</ele>
        <time>2017-12-15T20:14:07Z</time>
      </trkpt>
      <trkpt lat="44.86641" lon="5.58041">
        <ele>876</ele>
        <time>2017-12-15T20:14:23Z</time>
      </trkpt>
      <trkpt lat="44.86631" lon="5.58062">
        <ele>877</ele>
        <time>2017-12-15T20:14:25Z</time>
      </trkpt>
      <trkpt lat="44.86617" lon="5.58101">
        <ele>883</ele>
        <time>2017-12-15T20:14:29Z</time>
      </trkpt>
      <trkpt lat="44.86603" lon="5.58142">
        <ele>883</ele>
        <time>2017-12-15T20:14:35Z</time>
      </trkpt>
      <trkpt lat="44.86589" lon="5.58199">
        <ele>889</ele>
        <time>2017-12-15T20:14:53Z</time>
      </trkpt>
      <trkpt lat="44.86578" lon="5.58254">
        <ele>878</ele>
        <time>2017-12-15T20:14:58Z</time>
      </trkpt>
      <trkpt lat="44.86577" lon="5.58273">
        <ele>872</ele>
        <time>2017-12-15T20:15:14Z</time>
      </trkpt>
      <trkpt lat="44.86583" lon="5.58357">
        <ele>868</ele>
        <time>2017-12-15T20:15:21Z</time>
      </trkpt>
      <trkpt lat="44.86586" lon="5.58377">
        <ele>885</ele>
        <time>2017-12-15T20:15:23Z</time>
      </trkpt>
      <trkpt lat="44.86601" lon="5.58405">
        <ele>882</ele>
        <time>2017-12-15T20:15:30Z</time>
      </trkpt>
      <trkpt lat="44.86643" lon="5.5847">
        <ele>879</ele>
        <time>2017-12-15T20:15:39Z</time>
      </trkpt>
      <trkpt lat="44.86652" lon="5.58492">
        <ele>880</ele>
        <time>2017-12-15T20:15:50Z</time>
      </trkpt>
      <trkpt lat="44.86656" lon="5.58506">
        <ele>876</ele>
        <time>2017-12-15T20:16:06Z</time>
      </trkpt>
      <trkpt lat="44.86658" lon="5.5854">
        <ele>872</ele>
        <time>2017-12-15T20:16:23Z</time>
      </trkpt>
      <trkpt lat="44.86661" lon="5.58621">
        <ele>865</ele>
        <time>2017-12-15T20:16:42Z</time>
      </trkpt>
      <trkpt lat="44.86664" lon="5.58637">
        <ele>865</ele>
        <time>2017-12-15T20:16:45Z</time>
      </trkpt>
      <trkpt lat="44.86669" lon="5.58648">
        <ele>879</ele>
        <time>2017-12-15T20:16:49Z</time>
      </trkpt>
      <trkpt lat="44.86679" lon="5.58662">
        <ele>878</ele>
        <time>2017-12-15T20:16:55Z</time>
      </trkpt>
      <trkpt lat="44.86705" lon="5.58693">
        <ele>879</ele>
        <time>2017-12-15T20:17:11Z</time>
      </trkpt>
      <trkpt lat="44.86715" lon="5.58713">
        <ele>879</ele>
        <time>2017-12-15T20:17:28Z</time>
      </trkpt>
      <trkpt lat="44.86724" lon="5.58737">
        <ele>879</ele>
        <time>2017-12-15T20:17:42Z</time>
      </trkpt>
      <trkpt lat="44.86728" lon="5.58761">
        <ele>875</ele>
        <time>2017-12-15T20:17:48Z</time>
      </trkpt>
      <trkpt lat="44.86727" lon="5.58803">
        <ele>871</ele>
        <time>2017-12-15T20:17:51Z</time>
      </trkpt>
      <trkpt lat="44.86711" lon="5.58876">
        <ele>869</ele>
        <time>2017-12-15T20:18:04Z</time>
      </trkpt>
      <trkpt lat="44.86703" lon="5.58901">
        <ele>868</ele>
        <time>2017-12-15T20:18:13Z</time>
      </trkpt>
      <trkpt lat="44.86696" lon="5.58915">
        <ele>867</ele>
        <time>2017-12-15T20:18:31Z</time>
      </trkpt>
      <trkpt lat="44.8667" lon="5.58941">
        <ele>870</ele>
        <time>2017-12-15T20:18:40Z</time>
      </trkpt>
      <trkpt lat="44.86662" lon="5.58952">
        <ele>854</ele>
        <time>2017-12-15T20:18:55Z</time>
      </trkpt>
      <trkpt lat="44.86659" lon="5.5897">
        <ele>855</ele>
        <time>2017-12-15T20:19:09Z</time>
      </trkpt>
      <trkpt lat="44.8666" lon="5.59008">
        <ele>864</ele>
        <time>2017-12-15T20:19:11Z</time>
      </trkpt>
      <trkpt lat="44.86661" lon="5.59062">
        <ele>861</ele>
        <time>2017-12-15T20:19:19Z</time>
      </trkpt>
      <trkpt lat="44.86666" lon="5.59085">
        <ele>871</ele>
        <time>2017-12-15T20:19:34Z</time>
      </trkpt>
      <trkpt lat="44.86675" lon="5.59115">
        <ele>881</ele>
        <time>2017-12-15T20:19:46Z</time>
      </trkpt>
      <trkpt lat="44.86677" lon="5.59126">
        <ele>881</ele>
        <time>2017-12-15T20:19:57Z</time>
      </trkpt>
      <trkpt lat="44.86695" lon="5.59224">
        <ele>872</ele>
        <time>2017-12-15T20:20:00Z</time>
      </trkpt>
      <trkpt lat="44.867" lon="5.59233">
        <ele>872</ele>
        <time>2017-12-15T20:20:02Z</time>
      </trkpt>
      <trkpt lat="44.86707" lon="5.5924">
        <ele>873</ele>
        <time>2017-12-15T20:20:22Z</time>
      </trkpt>
      <trkpt lat="44.86718" lon="5.59247">
        <ele>876</ele>
        <time>2017-12-15T20:20:26Z</time>
      </trkpt>
      <trkpt lat="44.86791" lon="5.59276">
        <ele>886</ele>
        <time>2017-12-15T20:20:30Z</time>
      </trkpt>
      <trkpt lat="44.86799" lon="5.59284">
        <ele>886</ele>
        <time>2017-12-15T20:20:41Z</time>
      </trkpt>
      <trkpt lat="44.86825" lon="5.5934">
        <ele>886</ele>
        <time>2017-12-15T20:20:45Z</time>
      </trkpt>
      <trkpt lat="44.86835" lon="5.5937">
        <ele>895</ele>
        <time>2017-12-15T20:21:01Z</time>
      </trkpt>
      <trkpt lat="44.86835" lon="5.59384">
        <ele>895</ele>
        <time>2017-12-15T20:21:20Z</time>
      </trkpt>
      <trkpt lat="44.8683" lon="5.594">
        <ele>885</ele>
        <time>2017-12-15T20:21:36Z</time>
      </trkpt>
      <trkpt lat="44.86815" lon="5.59424">
        <ele>885</ele>
        <time>2017-12-15T20:21:40Z</time>
      </trkpt>
      <trkpt lat="44.86811" lon="5.59435">
        <ele>884</ele>
        <time>2017-12-15T20:21:45Z</time>
      </trkpt>
      <trkpt lat="44.86813" lon="5.59443">
        <ele>883</ele>
        <time>2017-12-15T20:22:03Z</time>
      </trkpt>
      <trkpt lat="44.86824" lon="5.59466">
        <ele>883</ele>
        <time>2017-12-15T20:22:15Z</time>
      </trkpt>
      <trkpt lat="44.86827" lon="5.59468">
        <ele>884</ele>
        <time>2017-12-15T20:22:31Z</time>
      </trkpt>
      <trkpt lat="44.86832" lon="5.59467">
        <ele>884</ele>
        <time>2017-12-15T20:22:45Z</time>
      </trkpt>
      <trkpt lat="44.86851" lon="5.59455">
        <ele>892</ele>
        <time>2017-12-15T20:22:53Z</time>
      </trkpt>
      <trkpt lat="44.86871" lon="5.59455">
        <ele>893</ele>
        <time>2017-12-15T20:23:05Z</time>
      </trkpt>
      <trkpt lat="44.86901" lon="5.59467">
        <ele>894</ele>
        <time>2017-12-15T20:23:17Z</time>
      </trkpt>
      <trkpt lat="44.86905" lon="5.59469">
        <ele>894</ele>
        <time>2017-12-15T20:23:36Z</time>
      </trkpt>
      <trkpt lat="44.86913" lon="5.59481">
        <ele>894</ele>
        <time>2017-12-15T20:23:42Z</time>
      </trkpt>
      <trkpt lat="44.8694" lon="5.5956">
        <ele>889</ele>
        <time>2017-12-15T20:23:58Z</time>
      </trkpt>
      <trkpt lat="44.8695" lon="5.59577">
        <ele>889</ele>
        <time>2017-12-15T20:24:09Z</time>
      </trkpt>
      <trkpt lat="44.86965" lon="5.59596">
        <ele>882</ele>
        <time>2017-12-15T20:24:26Z</time>
      </trkpt>
      <trkpt lat="44.86993" lon="5.59635">
        <ele>882</ele>
        <time>2017-12-15T20:24:45Z</time>
      </trkpt>
      <trkpt lat="44.87009" lon="5.59672">
        <ele>886</ele>
        <time>2017-12-15T20:24:59Z</time>
      </trkpt>
      <trkpt lat="44.8701" lon="5.59677">
        <ele>887</ele>
        <time>2017-12-15T20:25:18Z</time>
      </trkpt>
      <trkpt lat="44.87" lon="5.59685">
        <ele>878</ele>
        <time>2017-12-15T20:25:20Z</time>
      </trkpt>
      <trkpt lat="44.8698" lon="5.59698">
        <ele>875</ele>
        <time>2017-12-15T20:25:38Z</time>
      </trkpt>
      <trkpt lat="44.86964" lon="5.59713">
        <ele>872</ele>
        <time>2017-12-15T20:25:40Z</time>
      </trkpt>
      <trkpt lat="44.86953" lon="5.59726">
        <ele>871</ele>
        <time>2017-12-15T20:25:53Z</time>
      </trkpt>
      <trkpt lat="44.86946" lon="5.59738">
        <ele>869</ele>
        <time>2017-12-15T20:25:59Z</time>
      </trkpt>
      <trkpt lat="44.86941" lon="5.59773">
        <ele>867</ele>
        <time>2017-12-15T20:26:19Z</time>
      </trkpt>
      <trkpt lat="44.86942" lon="5.59845">
        <ele>863</ele>
        <time>2017-12-15T20:26:32Z</time>
      </trkpt>
      <trkpt lat="44.8694" lon="5.59877">
        <ele>862</ele>
        <time>2017-12-15T20:26:35Z</time>
      </trkpt>
      <trkpt lat="44.86935" lon="5.59904">
        <ele>859</ele>
        <time>2017-12-15T20:26:46Z</time>
      </trkpt>
      <trkpt lat="44.86927" lon="5.59936">
        <ele>854</ele>
        <time>2017-12-15T20:27:05Z</time>
      </trkpt>
      <trkpt lat="44.86914" lon="5.5997">
        <ele>846</ele>
        <time>2017-12-15T20:27:22Z</time>
      </trkpt>
      <trkpt lat="44.86883" lon="5.60043">
        <ele>840</ele>
        <time>2017-12-15T20:27:30Z</time>
      </trkpt>
      <trkpt lat="44.86856" lon="5.60101">
        <ele>836</ele>
        <time>2017-12-15T20:27:41Z</time>
      </trkpt>
      <trkpt lat="44.86849" lon="5.60139">
        <ele>835</ele>
        <time>2017-12-15T20:27:45Z</time>
      </trkpt>
      <trkpt lat="44.86844" lon="5.6017">
        <ele>833</ele>
        <time>2017-12-15T20:27:55Z</time>
      </trkpt>
      <trkpt lat="44.86839" lon="5.60189">
        <ele>836</ele>
        <time>2017-12-15T20:28:14Z</time>
      </trkpt>
      <trkpt lat="44.86833" lon="5.60198">
        <ele>824</ele>
        <time>2017-12-15T20:28:31Z</time>
      </trkpt>
      <trkpt lat="44.86824" lon="5.60205">
        <ele>824</ele>
        <time>2017-12-15T20:28:37Z</time>
      </trkpt>
      <trkpt lat="44.868" lon="5.60221">
        <ele>822</ele>
        <time>2017-12-15T20:28:52Z</time>
      </trkpt>
      <trkpt lat="44.86764" lon="5.60254">
        <ele>816</ele>
        <time>2017-12-15T20:28:59Z</time>
      </trkpt>
      <trkpt lat="44.86751" lon="5.60274">
        <ele>817</ele>
        <time>2017-12-15T20:29:05Z</time>
      </trkpt>
      <trkpt lat="44.86743" lon="5.60296">
        <ele>806</ele>
        <time>2017-12-15T20:29:25Z</time>
      </trkpt>
      <trkpt lat="44.86737" lon="5.60321">
        <ele>807</ele>
        <time>2017-12-15T20:29:40Z</time>
      </trkpt>
      <trkpt lat="44.86735" lon="5.6035">
        <ele>809</ele>
        <time>2017-12-15T20:29:44Z</time>
      </trkpt>
      <trkpt lat="44.86741" lon="5.60402">
        <ele>809</ele>
        <time>2017-12-15T20:29:57Z</time>
      </trkpt>
      <trkpt lat="44.86751" lon="5.60469">
        <ele>812</ele>
        <time>2017-12-15T20:30:01Z</time>
      </trkpt>
      <trkpt lat="44.86762" lon="5.60551">
        <ele>810</ele>
        <time>2017-12-15T20:30:07Z</time>
      </trkpt>
      <trkpt lat="44.86762" lon="5.60573">
        <ele>808</ele>
        <time>2017-12-15T20:30:21Z</time>
      </trkpt>
      <trkpt lat="44.8676" lon="5.60577">
        <ele>808</ele>
        <time>2017-12-15T20:30:41Z</time>
      </trkpt>
      <trkpt lat="44.86754" lon="5.60582">
        <ele>806</ele>
        <time>2017-12-15T20:30:47Z</time>
      </trkpt>
      <trkpt lat="44.86753" lon="5.60578">
        <ele>806</ele>
        <time>2017-12-15T20:31:05Z</time>
      </trkpt>
      <trkpt lat="44.86743" lon="5.60554">
        <ele>806</ele>
        <time>2017-12-15T20:31:17Z</time>
      </trkpt>
      <trkpt lat="44.86725" lon="5.60509">
        <ele>807</ele>
        <time>2017-12-15T20:31:34Z</time>
      </trkpt>
      <trkpt lat="44.86706" lon="5.60461">
        <ele>810</ele>
        <time>2017-12-15T20:31:45Z</time>
      </trkpt>
      <trkpt lat="44.86701" lon="5.60445">
        <ele>810</ele>
        <time>2017-12-15T20:32:00Z</time>
      </trkpt>
      <trkpt lat="44.86694" lon="5.60411">
        <ele>809</ele>
        <time>2017-12-15T20:32:12Z</time>
      </trkpt>
      <trkpt lat="44.8669" lon="5.6037">
        <ele>807</ele>
        <time>2017-12-15T20:32:19Z</time>
      </trkpt>
      <trkpt lat="44.86691" lon="5.60283">
        <ele>800</ele>
        <time>2017-12-15T20:32:21Z</time>
      </trkpt>
      <trkpt lat="44.86696" lon="5.60185">
        <ele>794</ele>
        <time>2017-12-15T20:32:35Z</time>
      </trkpt>
      <trkpt lat="44.8669" lon="5.60116">
        <ele>796</ele>
        <time>2017-12-15T20:32:37Z</time>
      </trkpt>
      <trkpt lat="44.86682" lon="5.60078">
        <ele>796</ele>
        <time>2017-12-15T20:32:56Z</time>
      </trkpt>
      <trkpt lat="44.86673" lon="5.60043">
        <ele>800</ele>
        <time>2017-12-15T20:33:07Z</time>
      </trkpt>
      <trkpt lat="44.86661" lon="5.60008">
        <ele>788</ele>
        <time>2017-12-15T20:33:10Z</time>
      </trkpt>
      <trkpt lat="44.86638" lon="5.59964">
        <ele>782</ele>
        <time>2017-12-15T20:33:29Z</time>
      </trkpt>
      <trkpt lat="44.86617" lon="5.59935">
        <ele>778</ele>
        <time>2017-12-15T20:33:46Z</time>
      </trkpt>
      <trkpt lat="44.86582" lon="5.59898">
        <ele>767</ele>
        <time>2017-12-15T20:34:04Z</time>
      </trkpt>
      <trkpt lat="44.8654" lon="5.59872">
        <ele>765</ele>
        <time>2017-12-15T20:34:20Z</time>
      </trkpt>
      <trkpt lat="44.865" lon="5.59858">
        <ele>767</ele>
        <time>2017-12-15T20:34:25Z</time>
      </trkpt>
      <trkpt lat="44.86469" lon="5.59853">
        <ele>774</ele>
        <time>2017-12-15T20:34:37Z</time>
      </trkpt>
      <trkpt lat="44.86431" lon="5.59856">
        <ele>780</ele>
        <time>2017-12-15T20:34:40Z</time>
      </trkpt>
      <trkpt lat="44.86397" lon="5.59866">
        <ele>787</ele>
        <time>2017-12-15T20:34:59Z</time>
      </trkpt>
      <trkpt lat="44.86369" lon="5.59879">
        <ele>787</ele>
        <time>2017-12-15T20:35:11Z</time>
      </trkpt>
      <trkpt lat="44.86345" lon="5.59894">
        <ele>785</ele>
        <time>2017-12-15T20:35:20Z</time>
      </trkpt>
      <trkpt lat="44.86323" lon="5.5991">
        <ele>789</ele>
        <time>2017-12-15T20:35:36Z</time>
      </trkpt>
      <trkpt lat="44.86296" lon="5.59936">
        <ele>787</ele>
        <time>2017-12-15T20:35:53Z</time>
      </trkpt>
      <trkpt lat="44.8625" lon="5.59995">
        <ele>794</ele>
        <time>2017-12-15T20:36:00Z</time>
      </trkpt>
      <trkpt lat="44.86214" lon="5.60064">
        <ele>802</ele>
        <time>2017-12-15T20:36:10Z</time>
      </trkpt>
      <trkpt lat="44.8613" lon="5.60281">
        <ele>800</ele>
        <time>2017-12-15T20:36:30Z</time>
      </trkpt>
      <trkpt lat="44.86005" lon="5.60604">
        <ele>795</ele>
        <time>2017-12-15T20:36:35Z</time>
      </trkpt>
      <trkpt lat="44.85982" lon="5.60665">
        <ele>799</ele>
        <time>2017-12-15T20:36:44Z</time>
      </trkpt>
      <trkpt lat="44.85967" lon="5.60703">
        <ele>796</ele>
        <time>2017-12-15T20:36:51Z</time>
      </trkpt>
      <trkpt lat="44.85944" lon="5.60748">
        <ele>796</ele>
        <time>2017-12-15T20:36:53Z</time>
      </trkpt>
      <trkpt lat="44.85893" lon="5.6084">
        <ele>793</ele>
        <time>2017-12-15T20:36:56Z</time>
      </trkpt>
      <trkpt lat="44.85866" lon="5.60878">
        <ele>793</ele>
        <time>2017-12-15T20:37:00Z</time>
      </trkpt>
      <trkpt lat="44.85806" lon="5.60954">
        <ele>788</ele>
        <time>2017-12-15T20:37:02Z</time>
      </trkpt>
      <trkpt lat="44.85772" lon="5.60991">
        <ele>788</ele>
        <time>2017-12-15T20:37:22Z</time>
      </trkpt>
      <trkpt lat="44.85707" lon="5.61063">
        <ele>788</ele>
        <time>2017-12-15T20:37:28Z</time>
      </trkpt>
      <trkpt lat="44.85661" lon="5.61118">
        <ele>790</ele>
        <time>2017-12-15T20:37:48Z</time>
      </trkpt>
      <trkpt lat="44.85629" lon="5.61172">
        <ele>782</ele>
        <time>2017-12-15T20:37:50Z</time>
      </trkpt>
      <trkpt lat="44.85587" lon="5.61264">
        <ele>778</ele>
        <time>2017-12-15T20:37:53Z</time>
      </trkpt>
      <trkpt lat="44.85503" lon="5.61448">
        <ele>763</ele>
        <time>2017-12-15T20:38:02Z</time>
      </trkpt>
      <trkpt lat="44.85441" lon="5.61581">
        <ele>760</ele>
        <time>2017-12-15T20:38:21Z</time>
      </trkpt>
      <trkpt lat="44.85414" lon="5.6164">
        <ele>758</ele>
        <time>2017-12-15T20:38:30Z</time>
      </trkpt>
      <trkpt lat="44.85386" lon="5.61723">
        <ele>755</ele>
        <time>2017-12-15T20:38:35Z</time>
      </trkpt>
      <trkpt lat="44.85347" lon="5.61851">
        <ele>751</ele>
        <time>2017-12-15T20:38:53Z</time>
      </trkpt>
      <trkpt lat="44.85338" lon="5.61878">
        <ele>750</ele>
        <time>2017-12-15T20:39:12Z</time>
      </trkpt>
      <trkpt lat="44.85327" lon="5.61901">
        <ele>752</ele>
        <time>2017-12-15T20:39:23Z</time>
      </trkpt>
      <trkpt lat="44.85306" lon="5.61945">
        <ele>750</ele>
        <time>2017-12-15T20:39:25Z</time>
      </trkpt>
      <trkpt lat="44.85282" lon="5.61985">
        <ele>749</ele>
        <time>2017-12-15T20:39:39Z</time>
      </trkpt>
      <trkpt lat="44.85277" lon="5.61987">
        <ele>749</ele>
        <time>2017-12-15T20:39:57Z</time>
      </trkpt>
      <trkpt lat="44.85265" lon="5.62003">
        <ele>747</ele>
        <time>2017-12-15T20:40:10Z</time>
      </trkpt>
      <trkpt lat="44.85244" lon="5.62022">
        <ele>747</ele>
        <time>2017-12-15T20:40:14Z</time>
      </trkpt>
      <trkpt lat="44.85214" lon="5.62043">
        <ele>746</ele>
        <time>2017-12-15T20:40:28Z</time>
      </trkpt>
      <trkpt lat="44.85181" lon="5.62062">
        <ele>746</ele>
        <time>2017-12-15T20:40:47Z</time>
      </trkpt>
      <trkpt lat="44.85152" lon="5.62072">
        <ele>748</ele>
        <time>2017-12-15T20:40:54Z</time>
      </trkpt>
      <trkpt lat="44.8511" lon="5.62082">
        <ele>750</ele>
        <time>2017-12-15T20:40:57Z</time>
      </trkpt>
      <trkpt lat="44.85073" lon="5.62082">
        <ele>753</ele>
        <time>2017-12-15T20:41:16Z</time>
      </trkpt>
      <trkpt lat="44.85064" lon="5.62084">
        <ele>750</ele>
        <time>2017-12-15T20:41:28Z</time>
      </trkpt>
      <trkpt lat="44.85012" lon="5.62065">
        <ele>756</ele>
        <time>2017-12-15T20:41:37Z</time>
      </trkpt>
      <trkpt lat="44.84981" lon="5.62047">
        <ele>753</ele>
        <time>2017-12-15T20:41:54Z</time>
      </trkpt>
      <trkpt lat="44.84951" lon="5.62025">
        <ele>751</ele>
        <time>2017-12-15T20:42:04Z</time>
      </trkpt>
      <trkpt lat="44.84924" lon="5.61995">
        <ele>753</ele>
        <time>2017-12-15T20:42:18Z</time>
      </trkpt>
      <trkpt lat="44.84895" lon="5.61954">
        <ele>748</ele>
        <time>2017-12-15T20:42:26Z</time>
      </trkpt>
      <trkpt lat="44.84868" lon="5.61914">
        <ele>754</ele>
        <time>2017-12-15T20:42:36Z</time>
      </trkpt>
      <trkpt lat="44.84849" lon="5.61891">
        <ele>753</ele>
        <time>2017-12-15T20:42:50Z</time>
      </trkpt>
      <trkpt lat="44.84826" lon="5.6187">
        <ele>747</ele>
        <time>2017-12-15T20:42:54Z</time>
      </trkpt>
      <trkpt lat="44.84805" lon="5.61857">
        <ele>747</ele>
        <time>2017-12-15T20:43:12Z</time>
      </trkpt>
      <trkpt lat="44.84778" lon="5.61846">
        <ele>746</ele>
        <time>2017-12-15T20:43:27Z</time>
      </trkpt>
      <trkpt lat="44.8475" lon="5.6184">
        <ele>747</ele>
        <time>2017-12-15T20:43:47Z</time>
      </trkpt>
      <trkpt lat="44.84725" lon="5.61839">
        <ele>747</ele>
        <time>2017-12-15T20:44:06Z</time>
      </trkpt>
      <trkpt lat="44.84695" lon="5.61846">
        <ele>750</ele>
        <time>2017-12-15T20:44:14Z</time>
      </trkpt>
      <trkpt lat="44.84667" lon="5.61853">
        <ele>753</ele>
        <time>2017-12-15T20:44:29Z</time>
      </trkpt>
      <trkpt lat="44.84638" lon="5.61856">
        <ele>753</ele>
        <time>2017-12-15T20:44:43Z</time>
      </trkpt>
      <trkpt lat="44.84607" lon="5.61853">
        <ele>754</ele>
        <time>2017-12-15T20:45:01Z</time>
      </trkpt>
      <trkpt lat="44.84578" lon="5.61843">
        <ele>756</ele>
        <time>2017-12-15T20:45:03Z</time>
      </trkpt>
      <trkpt lat="44.8455" lon="5.61829">
        <ele>764</ele>
        <time>2017-12-15T20:45:20Z</time>
      </trkpt>
      <trkpt lat="44.84526" lon="5.61808">
        <ele>763</ele>
        <time>2017-12-15T20:45:28Z</time>
      </trkpt>
      <trkpt lat="44.84469" lon="5.61759">
        <ele>757</ele>
        <time>2017-12-15T20:45:43Z</time>
      </trkpt>
      <trkpt lat="44.84456" lon="5.61751">
        <ele>756</ele>
        <time>2017-12-15T20:45:57Z</time>
      </trkpt>
      <trkpt lat="44.84433" lon="5.61742">
        <ele>765</ele>
        <time>2017-12-15T20:46:08Z</time>
      </trkpt>
      <trkpt lat="44.8441" lon="5.61739">
        <ele>762</ele>
        <time>2017-12-15T20:46:26Z</time>
      </trkpt>
      <trkpt lat="44.84402" lon="5.61738">
        <ele>764</ele>
        <time>2017-12-15T20:46:34Z</time>
      </trkpt>
      <trkpt lat="44.84392" lon="5.6174">
        <ele>766</ele>
        <time>2017-12-15T20:46:52Z</time>
      </trkpt>
      <trkpt lat="44.84376" lon="5.61745">
        <ele>767</ele>
        <time>2017-12-15T20:47:06Z</time>
      </trkpt>
      <trkpt lat="44.8436" lon="5.61756">
        <ele>756</ele>
        <time>2017-12-15T20:47:18Z</time>
      </trkpt>
      <trkpt lat="44.84314" lon="5.61789">
        <ele>760</ele>
        <time>2017-12-15T20:47:24Z</time>
      </trkpt>
      <trkpt lat="44.84286" lon="5.61806">
        <ele>759</ele>
        <time>2017-12-15T20:47:26Z</time>
      </trkpt>
      <trkpt lat="44.84262" lon="5.61814">
        <ele>759</ele>
        <time>2017-12-15T20:47:34Z</time>
      </trkpt>
      <trkpt lat="44.84237" lon="5.61816">
        <ele>760</ele>
        <time>2017-12-15T20:47:48Z</time>
      </trkpt>
      <trkpt lat="44.84215" lon="5.61812">
        <ele>760</ele>
        <time>2017-12-15T20:48:06Z</time>
      </trkpt>
      <trkpt lat="44.84195" lon="5.61803">
        <ele>759</ele>
        <time>2017-12-15T20:48:24Z</time>
      </trkpt>
      <trkpt lat="44.84176" lon="5.61788">
        <ele>761</ele>
        <time>2017-12-15T20:48:32Z</time>
      </trkpt>
      <trkpt lat="44.84157" lon="5.61769">
        <ele>753</ele>
        <time>2017-12-15T20:48:51Z</time>
      </trkpt>
      <trkpt lat="44.84138" lon="5.61739">
        <ele>761</ele>
        <time>2017-12-15T20:49:02Z</time>
      </trkpt>
      <trkpt lat="44.84099" lon="5.61663">
        <ele>765</ele>
        <time>2017-12-15T20:49:22Z</time>
      </trkpt>
      <trkpt lat="44.84069" lon="5.61606">
        <ele>757</ele>
        <time>2017-12-15T20:49:38Z</time>
      </trkpt>
      <trkpt lat="44.84059" lon="5.61583">
        <ele>765</ele>
        <time>2017-12-15T20:49:40Z</time>
      </trkpt>
      <trkpt lat="44.84045" lon="5.61537">
        <ele>762</ele>
        <time>2017-12-15T20:49:45Z</time>
      </trkpt>
      <trkpt lat="44.84036" lon="5.61495">
        <ele>766</ele>
        <time>2017-12-15T20:49:51Z</time>
      </trkpt>
      <trkpt lat="44.8403" lon="5.61429">
        <ele>766</ele>
        <time>2017-12-15T20:49:55Z</time>
      </trkpt>
      <trkpt lat="44.84023" lon="5.61373">
        <ele>768</ele>
        <time>2017-12-15T20:50:03Z</time>
      </trkpt>
      <trkpt lat="44.84016" lon="5.61336">
        <ele>766</ele>
        <time>2017-12-15T20:50:19Z</time>
      </trkpt>
      <trkpt lat="44.83988" lon="5.61248">
        <ele>764</ele>
        <time>2017-12-15T20:50:24Z</time>
      </trkpt>
      <trkpt lat="44.83962" lon="5.61196">
        <ele>763</ele>
        <time>2017-12-15T20:50:36Z</time>
      </trkpt>
      <trkpt lat="44.83954" lon="5.61179">
        <ele>763</ele>
        <time>2017-12-15T20:50:42Z</time>
      </trkpt>
      <trkpt lat="44.83917" lon="5.61131">
        <ele>771</ele>
        <time>2017-12-15T20:50:44Z</time>
      </trkpt>
      <trkpt lat="44.8384" lon="5.61037">
        <ele>775</ele>
        <time>2017-12-15T20:50:48Z</time>
      </trkpt>
      <trkpt lat="44.83819" lon="5.61011">
        <ele>765</ele>
        <time>2017-12-15T20:50:52Z</time>
      </trkpt>
      <trkpt lat="44.83811" lon="5.61">
        <ele>763</ele>
        <time>2017-12-15T20:51:04Z</time>
      </trkpt>
      <trkpt lat="44.83804" lon="5.60987">
        <ele>769</ele>
        <time>2017-12-15T20:51:17Z</time>
      </trkpt>
      <trkpt lat="44.8379" lon="5.60961">
        <ele>769</ele>
        <time>2017-12-15T20:51:33Z</time>
      </trkpt>
      <trkpt lat="44.83781" lon="5.60941">
        <ele>769</ele>
        <time>2017-12-15T20:51:46Z</time>
      </trkpt>
      <trkpt lat="44.83772" lon="5.60913">
        <ele>776</ele>
        <time>2017-12-15T20:51:52Z</time>
      </trkpt>
      <trkpt lat="44.83763" lon="5.60873">
        <ele>779</ele>
        <time>2017-12-15T20:52:04Z</time>
      </trkpt>
      <trkpt lat="44.83754" lon="5.60793">
        <ele>788</ele>
        <time>2017-12-15T20:52:20Z</time>
      </trkpt>
      <trkpt lat="44.83751" lon="5.60764">
        <ele>786</ele>
        <time>2017-12-15T20:52:38Z</time>
      </trkpt>
      <trkpt lat="44.83742" lon="5.60728">
        <ele>777</ele>
        <time>2017-12-15T20:52:55Z</time>
      </trkpt>
      <trkpt lat="44.8373" lon="5.60701">
        <ele>778</ele>
        <time>2017-12-15T20:52:59Z</time>
      </trkpt>
      <trkpt lat="44.83712" lon="5.6067">
        <ele>778</ele>
        <time>2017-12-15T20:53:18Z</time>
      </trkpt>
      <trkpt lat="44.83661" lon="5.60601">
        <ele>773</ele>
        <time>2017-12-15T20:53:21Z</time>
      </trkpt>
      <trkpt lat="44.83652" lon="5.60589">
        <ele>774</ele>
        <time>2017-12-15T20:53:33Z</time>
      </trkpt>
      <trkpt lat="44.83641" lon="5.60571">
        <ele>777</ele>
        <time>2017-12-15T20:53:47Z</time>
      </trkpt>
      <trkpt lat="44.8363" lon="5.60549">
        <ele>776</ele>
        <time>2017-12-15T20:53:59Z</time>
      </trkpt>
      <trkpt lat="44.83622" lon="5.60535">
        <ele>775</ele>
        <time>2017-12-15T20:54:07Z</time>
      </trkpt>
      <trkpt lat="44.83613" lon="5.60515">
        <ele>775</ele>
        <time>2017-12-15T20:54:20Z</time>
      </trkpt>
      <trkpt lat="44.83592" lon="5.60444">
        <ele>783</ele>
        <time>2017-12-15T20:54:25Z</time>
      </trkpt>
      <trkpt lat="44.83584" lon="5.604">
        <ele>787</ele>
        <time>2017-12-15T20:54:37Z</time>
      </trkpt>
      <trkpt lat="44.83581" lon="5.60356">
        <ele>779</ele>
        <time>2017-12-15T20:54:49Z</time>
      </trkpt>
      <trkpt lat="44.83576" lon="5.60272">
        <ele>777</ele>
        <time>2017-12-15T20:55:02Z</time>
      </trkpt>
      <trkpt lat="44.8357" lon="5.60219">
        <ele>775</ele>
        <time>2017-12-15T20:55:20Z</time>
      </trkpt>
      <trkpt lat="44.8356" lon="5.60177">
        <ele>775</ele>
        <time>2017-12-15T20:55:36Z</time>
      </trkpt>
      <trkpt lat="44.83548" lon="5.60141">
        <ele>780</ele>
        <time>2017-12-15T20:55:48Z</time>
      </trkpt>
      <trkpt lat="44.83533" lon="5.60106">
        <ele>781</ele>
        <time>2017-12-15T20:55:55Z</time>
      </trkpt>
      <trkpt lat="44.83518" lon="5.60082">
        <ele>790</ele>
        <time>2017-12-15T20:56:08Z</time>
      </trkpt>
      <trkpt lat="44.83445" lon="5.59988">
        <ele>793</ele>
        <time>2017-12-15T20:56:25Z</time>
      </trkpt>
      <trkpt lat="44.83426" lon="5.59963">
        <ele>794</ele>
        <time>2017-12-15T20:56:44Z</time>
      </trkpt>
      <trkpt lat="44.83405" lon="5.5993">
        <ele>786</ele>
        <time>2017-12-15T20:56:55Z</time>
      </trkpt>
      <trkpt lat="44.83387" lon="5.59898">
        <ele>795</ele>
        <time>2017-12-15T20:57:10Z</time>
      </trkpt>
      <trkpt lat="44.83368" lon="5.59872">
        <ele>795</ele>
        <time>2017-12-15T20:57:27Z</time>
      </trkpt>
      <trkpt lat="44.83348" lon="5.59852">
        <ele>795</ele>
        <time>2017-12-15T20:57:40Z</time>
      </trkpt>
      <trkpt lat="44.83325" lon="5.59834">
        <ele>790</ele>
        <time>2017-12-15T20:57:45Z</time>
      </trkpt>
      <trkpt lat="44.83278" lon="5.59785">
        <ele>795</ele>
        <time>2017-12-15T20:57:57Z</time>
      </trkpt>
      <trkpt lat="44.83267" lon="5.59775">
        <ele>795</ele>
        <time>2017-12-15T20:58:10Z</time>
      </trkpt>
      <trkpt lat="44.83256" lon="5.59769">
        <ele>794</ele>
        <time>2017-12-15T20:58:14Z</time>
      </trkpt>
      <trkpt lat="44.83244" lon="5.59767">
        <ele>793</ele>
        <time>2017-12-15T20:58:31Z</time>
      </trkpt>
      <trkpt lat="44.83224" lon="5.5977">
        <ele>793</ele>
        <time>2017-12-15T20:58:47Z</time>
      </trkpt>
      <trkpt lat="44.83206" lon="5.5978">
        <ele>794</ele>
        <time>2017-12-15T20:59:03Z</time>
      </trkpt>
      <trkpt lat="44.83198" lon="5.59789">
        <ele>794</ele>
        <time>2017-12-15T20:59:17Z</time>
      </trkpt>
      <trkpt lat="44.83191" lon="5.59799">
        <ele>795</ele>
        <time>2017-12-15T20:59:29Z</time>
      </trkpt>
      <trkpt lat="44.83182" lon="5.59824">
        <ele>798</ele>
        <time>2017-12-15T20:59:36Z</time>
      </trkpt>
      <trkpt lat="44.83178" lon="5.59847">
        <ele>799</ele>
        <time>2017-12-15T20:59:46Z</time>
      </trkpt>
      <trkpt lat="44.83178" lon="5.5987">
        <ele>798</ele>
        <time>2017-12-15T20:59:53Z</time>
      </trkpt>
      <trkpt lat="44.83183" lon="5.59892">
        <ele>800</ele>
        <time>2017-12-15T20:59:56Z</time>
      </trkpt>
      <trkpt lat="44.83193" lon="5.59917">
        <ele>805</ele>
        <time>2017-12-15T21:00:14Z</time>
      </trkpt>
      <trkpt lat="44.83212" lon="5.5995">
        <ele>802</ele>
        <time>2017-12-15T21:00:22Z</time>
      </trkpt>
      <trkpt lat="44.8323" lon="5.5997">
        <ele>803</ele>
        <time>2017-12-15T21:00:36Z</time>
      </trkpt>
      <trkpt lat="44.83268" lon="5.60003">
        <ele>799</ele>
        <time>2017-12-15T21:00:45Z</time>
      </trkpt>
      <trkpt lat="44.8328" lon="5.60027">
        <ele>797</ele>
        <time>2017-12-15T21:00:59Z</time>
      </trkpt>
      <trkpt lat="44.83294" lon="5.60071">
        <ele>797</ele>
        <time>2017-12-15T21:01:14Z</time>
      </trkpt>
      <trkpt lat="44.83302" lon="5.60113">
        <ele>802</ele>
        <time>2017-12-15T21:01:19Z</time>
      </trkpt>
      <trkpt lat="44.83306" lon="5.60142">
        <ele>803</ele>
        <time>2017-12-15T21:01:28Z</time>
      </trkpt>
      <trkpt lat="44.833" lon="5.60204">
        <ele>808</ele>
        <time>2017-12-15T21:01:47Z</time>
      </trkpt>
      <trkpt lat="44.83295" lon="5.6024">
        <ele>809</ele>
        <time>2017-12-15T21:02:04Z</time>
      </trkpt>
      <trkpt lat="44.8329" lon="5.60263">
        <ele>809</ele>
        <time>2017-12-15T21:02:13Z</time>
      </trkpt>
      <trkpt lat="44.83275" lon="5.60304">
        <ele>811</ele>
        <time>2017-12-15T21:02:15Z</time>
      </trkpt>
      <trkpt lat="44.83256" lon="5.60354">
        <ele>811</ele>
        <time>2017-12-15T21:02:22Z</time>
      </trkpt>
      <trkpt lat="44.83247" lon="5.60386">
        <ele>826</ele>
        <time>2017-12-15T21:02:32Z</time>
      </trkpt>
      <trkpt lat="44.83238" lon="5.60423">
        <ele>822</ele>
        <time>2017-12-15T21:02:40Z</time>
      </trkpt>
      <trkpt lat="44.83235" lon="5.60458">
        <ele>824</ele>
        <time>2017-12-15T21:02:47Z</time>
      </trkpt>
      <trkpt lat="44.83235" lon="5.60537">
        <ele>823</ele>
        <time>2017-12-15T21:02:52Z</time>
      </trkpt>
      <trkpt lat="44.83237" lon="5.60572">
        <ele>823</ele>
        <time>2017-12-15T21:03:04Z</time>
      </trkpt>
      <trkpt lat="44.83229" lon="5.60683">
        <ele>825</ele>
        <time>2017-12-15T21:03:16Z</time>
      </trkpt>
      <trkpt lat="44.83224" lon="5.60698">
        <ele>826</ele>
        <time>2017-12-15T21:03:30Z</time>
      </trkpt>
      <trkpt lat="44.83215" lon="5.60711">
        <ele>826</ele>
        <time>2017-12-15T21:03:44Z</time>
      </trkpt>
      <trkpt lat="44.832" lon="5.60723">
        <ele>827</ele>
        <time>2017-12-15T21:04:03Z</time>
      </trkpt>
      <trkpt lat="44.83185" lon="5.60729">
        <ele>827</ele>
        <time>2017-12-15T21:04:11Z</time>
      </trkpt>
      <trkpt lat="44.83178" lon="5.6073">
        <ele>828</ele>
        <time>2017-12-15T21:04:17Z</time>
      </trkpt>
      <trkpt lat="44.83151" lon="5.60729">
        <ele>830</ele>
        <time>2017-12-15T21:04:22Z</time>
      </trkpt>
      <trkpt lat="44.83096" lon="5.60721">
        <ele>831</ele>
        <time>2017-12-15T21:04:33Z</time>
      </trkpt>
      <trkpt lat="44.83081" lon="5.6072">
        <ele>831</ele>
        <time>2017-12-15T21:04:36Z</time>
      </trkpt>
      <trkpt lat="44.83061" lon="5.60718">
        <ele>831</ele>
        <time>2017-12-15T21:04:51Z</time>
      </trkpt>
      <trkpt lat="44.83056" lon="5.60713">
        <ele>831</ele>
        <time>2017-12-15T21:04:59Z</time>
      </trkpt>
      <trkpt lat="44.83027" lon="5.60712">
        <ele>831</ele>
        <time>2017-12-15T21:05:06Z</time>
      </trkpt>
      <trkpt lat="44.83006" lon="5.60708">
        <ele>831</ele>
        <time>2017-12-15T21:05:24Z</time>
      </trkpt>
      <trkpt lat="44.83003" lon="5.60694">
        <ele>831</ele>
        <time>2017-12-15T21:05:30Z</time>
      </trkpt>
      <trkpt lat="44.82962" lon="5.60563">
        <ele>835</ele>
        <time>2017-12-15T21:05:46Z</time>
      </trkpt>
      <trkpt lat="44.82933" lon="5.60469">
        <ele>838</ele>
        <time>2017-12-15T21:06:02Z</time>
      </trkpt>
      <trkpt lat="44.8287" lon="5.6027">
        <ele>847</ele>
        <time>2017-12-15T21:06:10Z</time>
      </trkpt>
      <trkpt lat="44.82854" lon="5.60214">
        <ele>851</ele>
        <time>2017-12-15T21:06:30Z</time>
      </trkpt>
      <trkpt lat="44.82852" lon="5.60184">
        <ele>852</ele>
        <time>2017-12-15T21:06:34Z</time>
      </trkpt>
      <trkpt lat="44.82855" lon="5.60149">
        <ele>854</ele>
        <time>2017-12-15T21:06:51Z</time>
      </trkpt>
      <trkpt lat="44.82865" lon="5.60105">
        <ele>855</ele>
        <time>2017-12-15T21:07:05Z</time>
      </trkpt>
      <trkpt lat="44.82875" lon="5.60054">
        <ele>858</ele>
        <time>2017-12-15T21:07:22Z</time>
      </trkpt>
      <trkpt lat="44.82877" lon="5.59989">
        <ele>862</ele>
        <time>2017-12-15T21:07:37Z</time>
      </trkpt>
      <trkpt lat="44.82873" lon="5.59944">
        <ele>863</ele>
        <time>2017-12-15T21:07:40Z</time>
      </trkpt>
      <trkpt lat="44.82865" lon="5.5991">
        <ele>866</ele>
        <time>2017-12-15T21:07:59Z</time>
      </trkpt>
      <trkpt lat="44.82855" lon="5.59878">
        <ele>866</ele>
        <time>2017-12-15T21:08:04Z</time>
      </trkpt>
      <trkpt lat="44.82786" lon="5.59731">
        <ele>876</ele>
        <time>2017-12-15T21:08:14Z</time>
      </trkpt>
      <trkpt lat="44.82729" lon="5.59614">
        <ele>887</ele>
        <time>2017-12-15T21:08:27Z</time>
      </trkpt>
      <trkpt lat="44.82718" lon="5.59591">
        <ele>888</ele>
        <time>2017-12-15T21:08:46Z</time>
      </trkpt>
      <trkpt lat="44.82706" lon="5.59556">
        <ele>892</ele>
        <time>2017-12-15T21:09:05Z</time>
      </trkpt>
      <trkpt lat="44.82694" lon="5.5946">
        <ele>899</ele>
        <time>2017-12-15T21:09:21Z</time>
      </trkpt>
      <trkpt lat="44.82674" lon="5.59272">
        <ele>903</ele>
        <time>2017-12-15T21:09:24Z</time>
      </trkpt>
      <trkpt lat="44.82666" lon="5.59206">
        <ele>924</ele>
        <time>2017-12-15T21:09:27Z</time>
      </trkpt>
      <trkpt lat="44.82652" lon="5.59143">
        <ele>915</ele>
        <time>2017-12-15T21:09:45Z</time>
      </trkpt>
      <trkpt lat="44.82637" lon="5.59085">
        <ele>914</ele>
        <time>2017-12-15T21:09:57Z</time>
      </trkpt>
      <trkpt lat="44.82625" lon="5.5905">
        <ele>906</ele>
        <time>2017-12-15T21:10:07Z</time>
      </trkpt>
      <trkpt lat="44.82584" lon="5.58976">
        <ele>899</ele>
        <time>2017-12-15T21:10:23Z</time>
      </trkpt>
      <trkpt lat="44.82565" lon="5.58943">
        <ele>917</ele>
        <time>2017-12-15T21:10:43Z</time>
      </trkpt>
      <trkpt lat="44.82523" lon="5.58864">
        <ele>905</ele>
        <time>2017-12-15T21:10:49Z</time>
      </trkpt>
      <trkpt lat="44.82487" lon="5.58816">
        <ele>915</ele>
        <time>2017-12-15T21:11:07Z</time>
      </trkpt>
      <trkpt lat="44.8247" lon="5.58798">
        <ele>918</ele>
        <time>2017-12-15T21:11:27Z</time>
      </trkpt>
      <trkpt lat="44.82457" lon="5.58786">
        <ele>920</ele>
        <time>2017-12-15T21:11:39Z</time>
      </trkpt>
      <trkpt lat="44.82448" lon="5.58775">
        <ele>922</ele>
        <time>2017-12-15T21:11:46Z</time>
      </trkpt>
      <trkpt lat="44.82442" lon="5.58763">
        <ele>924</ele>
        <time>2017-12-15T21:11:48Z</time>
      </trkpt>
      <trkpt lat="44.82434" lon="5.58723">
        <ele>912</ele>
        <time>2017-12-15T21:11:57Z</time>
      </trkpt>
      <trkpt lat="44.82412" lon="5.58628">
        <ele>932</ele>
        <time>2017-12-15T21:12:12Z</time>
      </trkpt>
      <trkpt lat="44.82383" lon="5.58539">
        <ele>926</ele>
        <time>2017-12-15T21:12:29Z</time>
      </trkpt>
      <trkpt lat="44.82358" lon="5.58459">
        <ele>923</ele>
        <time>2017-12-15T21:12:47Z</time>
      </trkpt>
      <trkpt lat="44.82347" lon="5.58432">
        <ele>923</ele>
        <time>2017-12-15T21:13:06Z</time>
      </trkpt>
      <trkpt lat="44.82323" lon="5.58379">
        <ele>933</ele>
        <time>2017-12-15T21:13:09Z</time>
      </trkpt>
      <trkpt lat="44.82308" lon="5.58354">
        <ele>932</ele>
        <time>2017-12-15T21:13:16Z</time>
      </trkpt>
      <trkpt lat="44.82293" lon="5.58338">
        <ele>933</ele>
        <time>2017-12-15T21:13:23Z</time>
      </trkpt>
      <trkpt lat="44.82278" lon="5.58329">
        <ele>926</ele>
        <time>2017-12-15T21:13:31Z</time>
      </trkpt>
      <trkpt lat="44.82256" lon="5.58315">
        <ele>928</ele>
        <time>2017-12-15T21:13:45Z</time>
      </trkpt>
      <trkpt lat="44.82242" lon="5.58305">
        <ele>935</ele>
        <time>2017-12-15T21:13:59Z</time>
      </trkpt>
      <trkpt lat="44.82229" lon="5.5829">
        <ele>934</ele>
        <time>2017-12-15T21:14:14Z</time>
      </trkpt>
      <trkpt lat="44.82214" lon="5.58266">
        <ele>932</ele>
        <time>2017-12-15T21:14:19Z</time>
      </trkpt>
      <trkpt lat="44.82206" lon="5.5825">
        <ele>925</ele>
        <time>2017-12-15T21:14:23Z</time>
      </trkpt>
      <trkpt lat="44.82196" lon="5.58238">
        <ele>925</ele>
        <time>2017-12-15T21:14:33Z</time>
      </trkpt>
      <trkpt lat="44.82181" lon="5.58229">
        <ele>926</ele>
        <time>2017-12-15T21:14:39Z</time>
      </trkpt>
      <trkpt lat="44.82135" lon="5.58207">
        <ele>928</ele>
        <time>2017-12-15T21:14:47Z</time>
      </trkpt>
      <trkpt lat="44.82077" lon="5.58178">
        <ele>932</ele>
        <time>2017-12-15T21:14:51Z</time>
      </trkpt>
      <trkpt lat="44.82061" lon="5.58175">
        <ele>934</ele>
        <time>2017-12-15T21:14:58Z</time>
      </trkpt>
      <trkpt lat="44.82052" lon="5.58176">
        <ele>936</ele>
        <time>2017-12-15T21:15:12Z</time>
      </trkpt>
      <trkpt lat="44.82042" lon="5.58183">
        <ele>938</ele>
        <time>2017-12-15T21:15:18Z</time>
      </trkpt>
      <trkpt lat="44.82036" lon="5.5819">
        <ele>938</ele>
        <time>2017-12-15T21:15:28Z</time>
      </trkpt>
      <trkpt lat="44.82024" lon="5.5822">
        <ele>938</ele>
        <time>2017-12-15T21:15:44Z</time>
      </trkpt>
      <trkpt lat="44.82012" lon="5.58263">
        <ele>938</ele>
        <time>2017-12-15T21:15:52Z</time>
      </trkpt>
      <trkpt lat="44.82" lon="5.58288">
        <ele>939</ele>
        <time>2017-12-15T21:15:58Z</time>
      </trkpt>
      <trkpt lat="44.81996" lon="5.58295">
        <ele>941</ele>
        <time>2017-12-15T21:16:01Z</time>
      </trkpt>
      <trkpt lat="44.81986" lon="5.58301">
        <ele>941</ele>
        <time>2017-12-15T21:16:11Z</time>
      </trkpt>
      <trkpt lat="44.81976" lon="5.58303">
        <ele>941</ele>
        <time>2017-12-15T21:16:15Z</time>
      </trkpt>
      <trkpt lat="44.81952" lon="5.58301">
        <ele>943</ele>
        <time>2017-12-15T21:16:19Z</time>
      </trkpt>
      <trkpt lat="44.8191" lon="5.58291">
        <ele>947</ele>
        <time>2017-12-15T21:16:33Z</time>
      </trkpt>
      <trkpt lat="44.81846" lon="5.58276">
        <ele>947</ele>
        <time>2017-12-15T21:16:40Z</time>
      </trkpt>
      <trkpt lat="44.81772" lon="5.58267">
        <ele>946</ele>
        <time>2017-12-15T21:16:45Z</time>
      </trkpt>
      <trkpt lat="44.81741" lon="5.58251">
        <ele>947</ele>
        <time>2017-12-15T21:16:58Z</time>
      </trkpt>
      <trkpt lat="44.81667" lon="5.58198">
        <ele>948</ele>
        <time>2017-12-15T21:17:15Z</time>
      </trkpt>
      <trkpt lat="44.81632" lon="5.58173">
        <ele>947</ele>
        <time>2017-12-15T21:17:27Z</time>
      </trkpt>
      <trkpt lat="44.81602" lon="5.5816">
        <ele>952</ele>
        <time>2017-12-15T21:17:40Z</time>
      </trkpt>
      <trkpt lat="44.81582" lon="5.58156">
        <ele>952</ele>
        <time>2017-12-15T21:17:55Z</time>
      </trkpt>
      <trkpt lat="44.81559" lon="5.58155">
        <ele>955</ele>
        <time>2017-12-15T21:18:01Z</time>
      </trkpt>
      <trkpt lat="44.81536" lon="5.58154">
        <ele>956</ele>
        <time>2017-12-15T21:18:13Z</time>
      </trkpt>
      <trkpt lat="44.81512" lon="5.5815">
        <ele>955</ele>
        <time>2017-12-15T21:18:16Z</time>
      </trkpt>
      <trkpt lat="44.8148" lon="5.58137">
        <ele>957</ele>
        <time>2017-12-15T21:18:32Z</time>
      </trkpt>
      <trkpt lat="44.81474" lon="5.58136">
        <ele>957</ele>
        <time>2017-12-15T21:18:49Z</time>
      </trkpt>
      <trkpt lat="44.81465" lon="5.5814">
        <ele>957</ele>
        <time>2017-12-15T21:19:08Z</time>
      </trkpt>
      <trkpt lat="44.81453" lon="5.58152">
        <ele>957</ele>
        <time>2017-12-15T21:19:17Z</time>
      </trkpt>
      <trkpt lat="44.81436" lon="5.5817">
        <ele>954</ele>
        <time>2017-12-15T21:19:20Z</time>
      </trkpt>
      <trkpt lat="44.81407" lon="5.58188">
        <ele>956</ele>
        <time>2017-12-15T21:19:31Z</time>
      </trkpt>
      <trkpt lat="44.81347" lon="5.58214">
        <ele>957</ele>
        <time>2017-12-15T21:19:39Z</time>
      </trkpt>
      <trkpt lat="44.81301" lon="5.5823">
        <ele>960</ele>
        <time>2017-12-15T21:19:51Z</time>
      </trkpt>
      <trkpt lat="44.81259" lon="5.58239">
        <ele>961</ele>
        <time>2017-12-15T21:19:54Z</time>
      </trkpt>
      <trkpt lat="44.81157" lon="5.58259">
        <ele>965</ele>
        <time>2017-12-15T21:20:06Z</time>
      </trkpt>
      <trkpt lat="44.8114" lon="5.5826">
        <ele>966</ele>
        <time>2017-12-15T21:20:16Z</time>
      </trkpt>
      <trkpt lat="44.81116" lon="5.5827">
        <ele>967</ele>
        <time>2017-12-15T21:20:34Z</time>
      </trkpt>
      <trkpt lat="44.81092" lon="5.5829">
        <ele>967</ele>
        <time>2017-12-15T21:20:44Z</time>
      </trkpt>
      <trkpt lat="44.81078" lon="5.58306">
        <ele>969</ele>
        <time>2017-12-15T21:20:54Z</time>
      </trkpt>
      <trkpt lat="44.81037" lon="5.58372">
        <ele>971</ele>
        <time>2017-12-15T21:20:57Z</time>
      </trkpt>
      <trkpt lat="44.80965" lon="5.58483">
        <ele>980</ele>
        <time>2017-12-15T21:21:06Z</time>
      </trkpt>
      <trkpt lat="44.80957" lon="5.58495">
        <ele>981</ele>
        <time>2017-12-15T21:21:25Z</time>
      </trkpt>
      <trkpt lat="44.8094" lon="5.5851">
        <ele>990</ele>
        <time>2017-12-15T21:21:31Z</time>
      </trkpt>
      <trkpt lat="44.80904" lon="5.58532">
        <ele>986</ele>
        <time>2017-12-15T21:21:36Z</time>
      </trkpt>
      <trkpt lat="44.80857" lon="5.58569">
        <ele>987</ele>
        <time>2017-12-15T21:21:45Z</time>
      </trkpt>
      <trkpt lat="44.80797" lon="5.58622">
        <ele>995</ele>
        <time>2017-12-15T21:21:54Z</time>
      </trkpt>
      <trkpt lat="44.80756" lon="5.58659">
        <ele>999</ele>
        <time>2017-12-15T21:22:01Z</time>
      </trkpt>
      <trkpt lat="44.80726" lon="5.58682">
        <ele>1008</ele>
        <time>2017-12-15T21:22:20Z</time>
      </trkpt>
      <trkpt lat="44.80682" lon="5.58701">
        <ele>1010</ele>
        <time>2017-12-15T21:22:23Z</time>
      </trkpt>
      <trkpt lat="44.80629" lon="5.58719">
        <ele>1010</ele>
        <time>2017-12-15T21:22:36Z</time>
      </trkpt>
      <trkpt lat="44.80581" lon="5.58728">
        <ele>1012</ele>
        <time>2017-12-15T21:22:54Z</time>
      </trkpt>
      <trkpt lat="44.80555" lon="5.58732">
        <ele>1011</ele>
        <time>2017-12-15T21:22:56Z</time>
      </trkpt>
      <trkpt lat="44.80532" lon="5.58734">
        <ele>1010</ele>
        <time>2017-12-15T21:23:12Z</time>
      </trkpt>
      <trkpt lat="44.80511" lon="5.5874">
        <ele>1013</ele>
        <time>2017-12-15T21:23:17Z</time>
      </trkpt>
      <trkpt lat="44.80481" lon="5.58754">
        <ele>1020</ele>
        <time>2017-12-15T21:23:31Z</time>
      </trkpt>
      <trkpt lat="44.80457" lon="5.5877">
        <ele>1021</ele>
        <time>2017-12-15T21:23:49Z</time>
      </trkpt>
      <trkpt lat="44.80445" lon="5.58783">
        <ele>1021</ele>
        <time>2017-12-15T21:23:58Z</time>
      </trkpt>
      <trkpt lat="44.80437" lon="5.58796">
        <ele>1023</ele>
        <time>2017-12-15T21:24:05Z</time>
      </trkpt>
      <trkpt lat="44.80422" lon="5.58831">
        <ele>1026</ele>
        <time>2017-12-15T21:24:18Z</time>
      </trkpt>
      <trkpt lat="44.80413" lon="5.5885">
        <ele>1030</ele>
        <time>2017-12-15T21:24:30Z</time>
      </trkpt>
      <trkpt lat="44.80404" lon="5.5886">
        <ele>1031</ele>
        <time>2017-12-15T21:24:43Z</time>
      </trkpt>
      <trkpt lat="44.80377" lon="5.58881">
        <ele>1032</ele>
        <time>2017-12-15T21:24:54Z</time>
      </trkpt>
      <trkpt lat="44.80332" lon="5.5891">
        <ele>1034</ele>
        <time>2017-12-15T21:25:07Z</time>
      </trkpt>
      <trkpt lat="44.80271" lon="5.58947">
        <ele>1041</ele>
        <time>2017-12-15T21:25:19Z</time>
      </trkpt>
      <trkpt lat="44.80257" lon="5.58956">
        <ele>1041</ele>
        <time>2017-12-15T21:25:25Z</time>
      </trkpt>
      <trkpt lat="44.80243" lon="5.58972">
        <ele>1039</ele>
        <time>2017-12-15T21:25:31Z</time>
      </trkpt>
      <trkpt lat="44.80217" lon="5.59003">
        <ele>1052</ele>
        <time>2017-12-15T21:25:46Z</time>
      </trkpt>
      <trkpt lat="44.80189" lon="5.59027">
        <ele>1052</ele>
        <time>2017-12-15T21:26:06Z</time>
      </trkpt>
      <trkpt lat="44.80145" lon="5.59053">
        <ele>1053</ele>
        <time>2017-12-15T21:26:26Z</time>
      </trkpt>
      <trkpt lat="44.80132" lon="5.59062">
        <ele>1053</ele>
        <time>2017-12-15T21:26:39Z</time>
      </trkpt>
      <trkpt lat="44.80113" lon="5.59083">
        <ele>1054</ele>
        <time>2017-12-15T21:26:46Z</time>
      </trkpt>
      <trkpt lat="44.80104" lon="5.59094">
        <ele>1062</ele>
        <time>2017-12-15T21:26:51Z</time>
      </trkpt>
      <trkpt lat="44.80084" lon="5.59107">
        <ele>1062</ele>
        <time>2017-12-15T21:27:04Z</time>
      </trkpt>
      <trkpt lat="44.80051" lon="5.59109">
        <ele>1070</ele>
        <time>2017-12-15T21:27:08Z</time>
      </trkpt>
      <trkpt lat="44.80035" lon="5.59107">
        <ele>1073</ele>
        <time>2017-12-15T21:27:21Z</time>
      </trkpt>
      <trkpt lat="44.80025" lon="5.59102">
        <ele>1074</ele>
        <time>2017-12-15T21:27:30Z</time>
      </trkpt>
      <trkpt lat="44.80017" lon="5.59092">
        <ele>1076</ele>
        <time>2017-12-15T21:27:42Z</time>
      </trkpt>
      <trkpt lat="44.80012" lon="5.59077">
        <ele>1072</ele>
        <time>2017-12-15T21:27:58Z</time>
      </trkpt>
      <trkpt lat="44.80008" lon="5.59054">
        <ele>1067</ele>
        <time>2017-12-15T21:28:00Z</time>
      </trkpt>
      <trkpt lat="44.79994" lon="5.59029">
        <ele>1080</ele>
        <time>2017-12-15T21:28:10Z</time>
      </trkpt>
      <trkpt lat="44.7998" lon="5.59008">
        <ele>1079</ele>
        <time>2017-12-15T21:28:22Z</time>
      </trkpt>
      <trkpt lat="44.79965" lon="5.5898">
        <ele>1074</ele>
        <time>2017-12-15T21:28:31Z</time>
      </trkpt>
      <trkpt lat="44.79947" lon="5.5894">
        <ele>1074</ele>
        <time>2017-12-15T21:28:40Z</time>
      </trkpt>
      <trkpt lat="44.7994" lon="5.58927">
        <ele>1075</ele>
        <time>2017-12-15T21:28:50Z</time>
      </trkpt>
      <trkpt lat="44.7993" lon="5.58916">
        <ele>1072</ele>
        <time>2017-12-15T21:29:08Z</time>
      </trkpt>
      <trkpt lat="44.79914" lon="5.58909">
        <ele>1075</ele>
        <time>2017-12-15T21:29:17Z</time>
      </trkpt>
      <trkpt lat="44.79901" lon="5.5891">
        <ele>1073</ele>
        <time>2017-12-15T21:29:24Z</time>
      </trkpt>
      <trkpt lat="44.79861" lon="5.58929">
        <ele>1082</ele>
        <time>2017-12-15T21:29:36Z</time>
      </trkpt>
      <trkpt lat="44.79849" lon="5.58939">
        <ele>1082</ele>
        <time>2017-12-15T21:29:42Z</time>
      </trkpt>
      <trkpt lat="44.79831" lon="5.5896">
        <ele>1082</ele>
        <time>2017-12-15T21:29:53Z</time>
      </trkpt>
      <trkpt lat="44.79801" lon="5.58992">
        <ele>1084</ele>
        <time>2017-12-15T21:30:01Z</time>
      </trkpt>
      <trkpt lat="44.79743" lon="5.5903">
        <ele>1089</ele>
        <time>2017-12-15T21:30:07Z</time>
      </trkpt>
      <trkpt lat="44.79728" lon="5.59046">
        <ele>1090</ele>
        <time>2017-12-15T21:30:24Z</time>
      </trkpt>
      <trkpt lat="44.7971" lon="5.59073">
        <ele>1092</ele>
        <time>2017-12-15T21:30:37Z</time>
      </trkpt>
      <trkpt lat="44.79692" lon="5.59094">
        <ele>1104</ele>
        <time>2017-12-15T21:30:57Z</time>
      </trkpt>
      <trkpt lat="44.79657" lon="5.59119">
        <ele>1099</ele>
        <time>2017-12-15T21:31:12Z</time>
      </trkpt>
      <trkpt lat="44.79602" lon="5.59159">
        <ele>1102</ele>
        <time>2017-12-15T21:31:26Z</time>
      </trkpt>
      <trkpt lat="44.79563" lon="5.59189">
        <ele>1107</ele>
        <time>2017-12-15T21:31:45Z</time>
      </trkpt>
      <trkpt lat="44.79528" lon="5.59227">
        <ele>1108</ele>
        <time>2017-12-15T21:32:05Z</time>
      </trkpt>
      <trkpt lat="44.79519" lon="5.59238">
        <ele>1109</ele>
        <time>2017-12-15T21:32:21Z</time>
      </trkpt>
      <trkpt lat="44.79511" lon="5.59254">
        <ele>1116</ele>
        <time>2017-12-15T21:32:33Z</time>
      </trkpt>
      <trkpt lat="44.79502" lon="5.59292">
        <ele>1123</ele>
        <time>2017-12-15T21:32:51Z</time>
      </trkpt>
      <trkpt lat="44.79495" lon="5.59308">
        <ele>1119</ele>
        <time>2017-12-15T21:33:02Z</time>
      </trkpt>
      <trkpt lat="44.79485" lon="5.59325">
        <ele>1121</ele>
        <time>2017-12-15T21:33:04Z</time>
      </trkpt>
      <trkpt lat="44.79465" lon="5.59346">
        <ele>1131</ele>
        <time>2017-12-15T21:33:06Z</time>
      </trkpt>
      <trkpt lat="44.79454" lon="5.59356">
        <ele>1132</ele>
        <time>2017-12-15T21:33:17Z</time>
      </trkpt>
      <trkpt lat="44.79441" lon="5.59363">
        <ele>1132</ele>
        <time>2017-12-15T21:33:25Z</time>
      </trkpt>
      <trkpt lat="44.79428" lon="5.59366">
        <ele>1132</ele>
        <time>2017-12-15T21:33:31Z</time>
      </trkpt>
      <trkpt lat="44.79415" lon="5.59364">
        <ele>1132</ele>
        <time>2017-12-15T21:33:44Z</time>
      </trkpt>
      <trkpt lat="44.79405" lon="5.5936">
        <ele>1131</ele>
        <time>2017-12-15T21:33:56Z</time>
      </trkpt>
      <trkpt lat="44.79394" lon="5.5935">
        <ele>1131</ele>
        <time>2017-12-15T21:34:01Z</time>
      </trkpt>
      <trkpt lat="44.79379" lon="5.59331">
        <ele>1118</ele>
        <time>2017-12-15T21:34:19Z</time>
      </trkpt>
      <trkpt lat="44.79367" lon="5.59325">
        <ele>1118</ele>
        <time>2017-12-15T21:34:24Z</time>
      </trkpt>
      <trkpt lat="44.79348" lon="5.59327">
        <ele>1122</ele>
        <time>2017-12-15T21:34:40Z</time>
      </trkpt>
      <trkpt lat="44.79305" lon="5.59346">
        <ele>1133</ele>
        <time>2017-12-15T21:34:59Z</time>
      </trkpt>
      <trkpt lat="44.79262" lon="5.59371">
        <ele>1135</ele>
        <time>2017-12-15T21:35:02Z</time>
      </trkpt>
      <trkpt lat="44.79155" lon="5.59447">
        <ele>1145</ele>
        <time>2017-12-15T21:35:07Z</time>
      </trkpt>
      <trkpt lat="44.791" lon="5.59491">
        <ele>1151</ele>
        <time>2017-12-15T21:35:12Z</time>
      </trkpt>
      <trkpt lat="44.79076" lon="5.59506">
        <ele>1158</ele>
        <time>2017-12-15T21:35:32Z</time>
      </trkpt>
      <trkpt lat="44.79061" lon="5.5951">
        <ele>1160</ele>
        <time>2017-12-15T21:35:38Z</time>
      </trkpt>
      <trkpt lat="44.79048" lon="5.59511">
        <ele>1160</ele>
        <time>2017-12-15T21:35:48Z</time>
      </trkpt>
      <trkpt lat="44.79025" lon="5.59505">
        <ele>1158</ele>
        <time>2017-12-15T21:36:01Z</time>
      </trkpt>
      <trkpt lat="44.7901" lon="5.59504">
        <ele>1155</ele>
        <time>2017-12-15T21:36:03Z</time>
      </trkpt>
      <trkpt lat="44.79003" lon="5.59504">
        <ele>1153</ele>
        <time>2017-12-15T21:36:07Z</time>
      </trkpt>
      <trkpt lat="44.78995" lon="5.59511">
        <ele>1153</ele>
        <time>2017-12-15T21:36:23Z</time>
      </trkpt>
      <trkpt lat="44.78976" lon="5.59536">
        <ele>1157</ele>
        <time>2017-12-15T21:36:30Z</time>
      </trkpt>
      <trkpt lat="44.78965" lon="5.59548">
        <ele>1158</ele>
        <time>2017-12-15T21:36:35Z</time>
      </trkpt>
      <trkpt lat="44.78925" lon="5.59576">
        <ele>1160</ele>
        <time>2017-12-15T21:36:51Z</time>
      </trkpt>
      <trkpt lat="44.78904" lon="5.59598">
        <ele>1164</ele>
        <time>2017-12-15T21:36:53Z</time>
      </trkpt>
      <trkpt lat="44.78843" lon="5.59702">
        <ele>1182</ele>
        <time>2017-12-15T21:37:11Z</time>
      </trkpt>
      <trkpt lat="44.7883" lon="5.59722">
        <ele>1177</ele>
        <time>2017-12-15T21:37:27Z</time>
      </trkpt>
      <trkpt lat="44.78798" lon="5.5976">
        <ele>1186</ele>
        <time>2017-12-15T21:37:32Z</time>
      </trkpt>
      <trkpt lat="44.78783" lon="5.59779">
        <ele>1185</ele>
        <time>2017-12-15T21:37:37Z</time>
      </trkpt>
      <trkpt lat="44.78776" lon="5.59795">
        <ele>1186</ele>
        <time>2017-12-15T21:37:45Z</time>
      </trkpt>
      <trkpt lat="44.7877" lon="5.59811">
        <ele>1187</ele>
        <time>2017-12-15T21:37:50Z</time>
      </trkpt>
      <trkpt lat="44.7876" lon="5.59824">
        <ele>1188</ele>
        <time>2017-12-15T21:38:06Z</time>
      </trkpt>
      <trkpt lat="44.78727" lon="5.59851">
        <ele>1191</ele>
        <time>2017-12-15T21:38:16Z</time>
      </trkpt>
      <trkpt lat="44.78713" lon="5.5986">
        <ele>1192</ele>
        <time>2017-12-15T21:38:18Z</time>
      </trkpt>
      <trkpt lat="44.7868" lon="5.59871">
        <ele>1192</ele>
        <time>2017-12-15T21:38:21Z</time>
      </trkpt>
      <trkpt lat="44.78645" lon="5.59876">
        <ele>1194</ele>
        <time>2017-12-15T21:38:23Z</time>
      </trkpt>
      <trkpt lat="44.78544" lon="5.59875">
        <ele>1200</ele>
        <time>2017-12-15T21:38:34Z</time>
      </trkpt>
      <trkpt lat="44.78522" lon="5.59874">
        <ele>1201</ele>
        <time>2017-12-15T21:38:53Z</time>
      </trkpt>
      <trkpt lat="44.78514" lon="5.59871">
        <ele>1201</ele>
        <time>2017-12-15T21:39:13Z</time>
      </trkpt>
      <trkpt lat="44.78502" lon="5.59861">
        <ele>1201</ele>
        <time>2017-12-15T21:39:21Z</time>
      </trkpt>
      <trkpt lat="44.78482" lon="5.59825">
        <ele>1203</ele>
        <time>2017-12-15T21:39:32Z</time>
      </trkpt>
      <trkpt lat="44.78459" lon="5.5979">
        <ele>1204</ele>
        <time>2017-12-15T21:39:38Z</time>
      </trkpt>
      <trkpt lat="44.7844" lon="5.59771">
        <ele>1204</ele>
        <time>2017-12-15T21:39:50Z</time>
      </trkpt>
      <trkpt lat="44.78405" lon="5.5975">
        <ele>1202</ele>
        <time>2017-12-15T21:40:01Z</time>
      </trkpt>
      <trkpt lat="44.78374" lon="5.59729">
        <ele>1207</ele>
        <time>2017-12-15T21:40:14Z</time>
      </trkpt>
      <trkpt lat="44.78359" lon="5.59711">
        <ele>1207</ele>
        <time>2017-12-15T21:40:22Z</time>
      </trkpt>
      <trkpt lat="44.78349" lon="5.59688">
        <ele>1208</ele>
        <time>2017-12-15T21:40:35Z</time>
      </trkpt>
      <trkpt lat="44.78334" lon="5.59632">
        <ele>1220</ele>
        <time>2017-12-15T21:40:54Z</time>
      </trkpt>
      <trkpt lat="44.78325" lon="5.59598">
        <ele>1215</ele>
        <time>2017-12-15T21:41:07Z</time>
      </trkpt>
      <trkpt lat="44.78324" lon="5.59564">
        <ele>1223</ele>
        <time>2017-12-15T21:41:27Z</time>
      </trkpt>
      <trkpt lat="44.78326" lon="5.59526">
        <ele>1227</ele>
        <time>2017-12-15T21:41:42Z</time>
      </trkpt>
      <trkpt lat="44.78327" lon="5.59468">
        <ele>1239</ele>
        <time>2017-12-15T21:41:58Z</time>
      </trkpt>
      <trkpt lat="44.78322" lon="5.59456">
        <ele>1241</ele>
        <time>2017-12-15T21:42:16Z</time>
      </trkpt>
      <trkpt lat="44.78313" lon="5.59452">
        <ele>1242</ele>
        <time>2017-12-15T21:42:18Z</time>
      </trkpt>
      <trkpt lat="44.78307" lon="5.59453">
        <ele>1242</ele>
        <time>2017-12-15T21:42:23Z</time>
      </trkpt>
      <trkpt lat="44.78297" lon="5.5946">
        <ele>1241</ele>
        <time>2017-12-15T21:42:35Z</time>
      </trkpt>
      <trkpt lat="44.78274" lon="5.59488">
        <ele>1239</ele>
        <time>2017-12-15T21:42:43Z</time>
      </trkpt>
      <trkpt lat="44.78258" lon="5.59515">
        <ele>1231</ele>
        <time>2017-12-15T21:42:56Z</time>
      </trkpt>
      <trkpt lat="44.78238" lon="5.59536">
        <ele>1229</ele>
        <time>2017-12-15T21:43:05Z</time>
      </trkpt>
      <trkpt lat="44.78217" lon="5.59553">
        <ele>1228</ele>
        <time>2017-12-15T21:43:13Z</time>
      </trkpt>
      <trkpt lat="44.78172" lon="5.59593">
        <ele>1221</ele>
        <time>2017-12-15T21:43:17Z</time>
      </trkpt>
      <trkpt lat="44.78162" lon="5.59597">
        <ele>1221</ele>
        <time>2017-12-15T21:43:33Z</time>
      </trkpt>
      <trkpt lat="44.7815" lon="5.59597">
        <ele>1220</ele>
        <time>2017-12-15T21:43:52Z</time>
      </trkpt>
      <trkpt lat="44.7814" lon="5.59591">
        <ele>1220</ele>
        <time>2017-12-15T21:43:59Z</time>
      </trkpt>
      <trkpt lat="44.78132" lon="5.59579">
        <ele>1227</ele>
        <time>2017-12-15T21:44:10Z</time>
      </trkpt>
      <trkpt lat="44.78126" lon="5.59557">
        <ele>1228</ele>
        <time>2017-12-15T21:44:27Z</time>
      </trkpt>
      <trkpt lat="44.78126" lon="5.59519">
        <ele>1231</ele>
        <time>2017-12-15T21:44:43Z</time>
      </trkpt>
      <trkpt lat="44.78123" lon="5.59485">
        <ele>1239</ele>
        <time>2017-12-15T21:44:53Z</time>
      </trkpt>
      <trkpt lat="44.78119" lon="5.59468">
        <ele>1239</ele>
        <time>2017-12-15T21:45:12Z</time>
      </trkpt>
      <trkpt lat="44.781" lon="5.59393">
        <ele>1248</ele>
        <time>2017-12-15T21:45:31Z</time>
      </trkpt>
      <trkpt lat="44.7809" lon="5.59351">
        <ele>1253</ele>
        <time>2017-12-15T21:45:39Z</time>
      </trkpt>
      <trkpt lat="44.78082" lon="5.59344">
        <ele>1254</ele>
        <time>2017-12-15T21:45:57Z</time>
      </trkpt>
      <trkpt lat="44.78078" lon="5.59344">
        <ele>1254</ele>
        <time>2017-12-15T21:46:17Z</time>
      </trkpt>
      <trkpt lat="44.78068" lon="5.59359">
        <ele>1254</ele>
        <time>2017-12-15T21:46:23Z</time>
      </trkpt>
      <trkpt lat="44.78064" lon="5.59391">
        <ele>1250</ele>
        <time>2017-12-15T21:46:38Z</time>
      </trkpt>
      <trkpt lat="44.78059" lon="5.59409">
        <ele>1249</ele>
        <time>2017-12-15T21:46:48Z</time>
      </trkpt>
      <trkpt lat="44.78027" lon="5.59474">
        <ele>1247</ele>
        <time>2017-12-15T21:47:02Z</time>
      </trkpt>
      <trkpt lat="44.78012" lon="5.59516">
        <ele>1243</ele>
        <time>2017-12-15T21:47:13Z</time>
      </trkpt>
      <trkpt lat="44.78004" lon="5.5955">
        <ele>1238</ele>
        <time>2017-12-15T21:47:15Z</time>
      </trkpt>
      <trkpt lat="44.77985" lon="5.59625">
        <ele>1230</ele>
        <time>2017-12-15T21:47:18Z</time>
      </trkpt>
      <trkpt lat="44.77979" lon="5.59644">
        <ele>1228</ele>
        <time>2017-12-15T21:47:31Z</time>
      </trkpt>
      <trkpt lat="44.77972" lon="5.59649">
        <ele>1228</ele>
        <time>2017-12-15T21:47:36Z</time>
      </trkpt>
      <trkpt lat="44.77965" lon="5.59649">
        <ele>1228</ele>
        <time>2017-12-15T21:47:44Z</time>
      </trkpt>
      <trkpt lat="44.77958" lon="5.59643">
        <ele>1227</ele>
        <time>2017-12-15T21:48:02Z</time>
      </trkpt>
      <trkpt lat="44.77949" lon="5.59621">
        <ele>1228</ele>
        <time>2017-12-15T21:48:18Z</time>
      </trkpt>
      <trkpt lat="44.77917" lon="5.5945">
        <ele>1248</ele>
        <time>2017-12-15T21:48:38Z</time>
      </trkpt>
      <trkpt lat="44.77913" lon="5.59419">
        <ele>1245</ele>
        <time>2017-12-15T21:48:53Z</time>
      </trkpt>
      <trkpt lat="44.77915" lon="5.59386">
        <ele>1241</ele>
        <time>2017-12-15T21:49:05Z</time>
      </trkpt>
      <trkpt lat="44.77916" lon="5.59362">
        <ele>1242</ele>
        <time>2017-12-15T21:49:14Z</time>
      </trkpt>
      <trkpt lat="44.7791" lon="5.59336">
        <ele>1248</ele>
        <time>2017-12-15T21:49:17Z</time>
      </trkpt>
      <trkpt lat="44.77897" lon="5.59311">
        <ele>1247</ele>
        <time>2017-12-15T21:49:33Z</time>
      </trkpt>
      <trkpt lat="44.77894" lon="5.5929">
        <ele>1247</ele>
        <time>2017-12-15T21:49:41Z</time>
      </trkpt>
      <trkpt lat="44.77897" lon="5.59263">
        <ele>1250</ele>
        <time>2017-12-15T21:49:53Z</time>
      </trkpt>
      <trkpt lat="44.77903" lon="5.59232">
        <ele>1258</ele>
        <time>2017-12-15T21:49:57Z</time>
      </trkpt>
      <trkpt lat="44.77903" lon="5.59192">
        <ele>1260</ele>
        <time>2017-12-15T21:50:10Z</time>
      </trkpt>
      <trkpt lat="44.77901" lon="5.59162">
        <ele>1270</ele>
        <time>2017-12-15T21:50:20Z</time>
      </trkpt>
      <trkpt lat="44.77898" lon="5.5915">
        <ele>1270</ele>
        <time>2017-12-15T21:50:28Z</time>
      </trkpt>
      <trkpt lat="44.77892" lon="5.5914">
        <ele>1271</ele>
        <time>2017-12-15T21:50:33Z</time>
      </trkpt>
      <trkpt lat="44.77883" lon="5.59128">
        <ele>1272</ele>
        <time>2017-12-15T21:50:53Z</time>
      </trkpt>
      <trkpt lat="44.77875" lon="5.59123">
        <ele>1272</ele>
        <time>2017-12-15T21:51:07Z</time>
      </trkpt>
      <trkpt lat="44.77869" lon="5.59125">
        <ele>1272</ele>
        <time>2017-12-15T21:51:23Z</time>
      </trkpt>
      <trkpt lat="44.77861" lon="5.59133">
        <ele>1271</ele>
        <time>2017-12-15T21:51:43Z</time>
      </trkpt>
      <trkpt lat="44.77859" lon="5.59139">
        <ele>1270</ele>
        <time>2017-12-15T21:52:01Z</time>
      </trkpt>
      <trkpt lat="44.77852" lon="5.59153">
        <ele>1267</ele>
        <time>2017-12-15T21:52:05Z</time>
      </trkpt>
      <trkpt lat="44.77846" lon="5.59158">
        <ele>1265</ele>
        <time>2017-12-15T21:52:11Z</time>
      </trkpt>
      <trkpt lat="44.77834" lon="5.5916">
        <ele>1261</ele>
        <time>2017-12-15T21:52:17Z</time>
      </trkpt>
      <trkpt lat="44.77826" lon="5.59161">
        <ele>1261</ele>
        <time>2017-12-15T21:52:34Z</time>
      </trkpt>
      <trkpt lat="44.77818" lon="5.59166">
        <ele>1262</ele>
        <time>2017-12-15T21:52:43Z</time>
      </trkpt>
      <trkpt lat="44.77797" lon="5.59184">
        <ele>1250</ele>
        <time>2017-12-15T21:53:00Z</time>
      </trkpt>
      <trkpt lat="44.77791" lon="5.59185">
        <ele>1250</ele>
        <time>2017-12-15T21:53:08Z</time>
      </trkpt>
      <trkpt lat="44.77785" lon="5.59181">
        <ele>1250</ele>
        <time>2017-12-15T21:53:21Z</time>
      </trkpt>
      <trkpt lat="44.77777" lon="5.59169">
        <ele>1251</ele>
        <time>2017-12-15T21:53:24Z</time>
      </trkpt>
      <trkpt lat="44.77766" lon="5.59142">
        <ele>1264</ele>
        <time>2017-12-15T21:53:41Z</time>
      </trkpt>
      <trkpt lat="44.77752" lon="5.59114">
        <ele>1270</ele>
        <time>2017-12-15T21:53:59Z</time>
      </trkpt>
      <trkpt lat="44.7774" lon="5.591">
        <ele>1272</ele>
        <time>2017-12-15T21:54:03Z</time>
      </trkpt>
      <trkpt lat="44.77722" lon="5.59084">
        <ele>1272</ele>
        <time>2017-12-15T21:54:08Z</time>
      </trkpt>
      <trkpt lat="44.77687" lon="5.59062">
        <ele>1283</ele>
        <time>2017-12-15T21:54:23Z</time>
      </trkpt>
      <trkpt lat="44.77673" lon="5.5906">
        <ele>1282</ele>
        <time>2017-12-15T21:54:30Z</time>
      </trkpt>
      <trkpt lat="44.77668" lon="5.59064">
        <ele>1281</ele>
        <time>2017-12-15T21:54:43Z</time>
      </trkpt>
      <trkpt lat="44.77662" lon="5.59072">
        <ele>1280</ele>
        <time>2017-12-15T21:54:46Z</time>
      </trkpt>
      <trkpt lat="44.77659" lon="5.59086">
        <ele>1274</ele>
        <time>2017-12-15T21:54:48Z</time>
      </trkpt>
      <trkpt lat="44.77663" lon="5.59116">
        <ele>1276</ele>
        <time>2017-12-15T21:54:50Z</time>
      </trkpt>
      <trkpt lat="44.77664" lon="5.5913">
        <ele>1276</ele>
        <time>2017-12-15T21:54:53Z</time>
      </trkpt>
      <trkpt lat="44.77661" lon="5.59139">
        <ele>1275</ele>
        <time>2017-12-15T21:54:57Z</time>
      </trkpt>
      <trkpt lat="44.77655" lon="5.59146">
        <ele>1274</ele>
        <time>2017-12-15T21:55:00Z</time>
      </trkpt>
      <trkpt lat="44.77644" lon="5.59147">
        <ele>1276</ele>
        <time>2017-12-15T21:55:04Z</time>
      </trkpt>
      <trkpt lat="44.77637" lon="5.59143">
        <ele>1278</ele>
        <time>2017-12-15T21:55:13Z</time>
      </trkpt>
      <trkpt lat="44.7763" lon="5.59134">
        <ele>1280</ele>
        <time>2017-12-15T21:55:16Z</time>
      </trkpt>
      <trkpt lat="44.77623" lon="5.59127">
        <ele>1281</ele>
        <time>2017-12-15T21:55:36Z</time>
      </trkpt>
      <trkpt lat="44.77617" lon="5.59126">
        <ele>1282</ele>
        <time>2017-12-15T21:55:48Z</time>
      </trkpt>
      <trkpt lat="44.7761" lon="5.59131">
        <ele>1283</ele>
        <time>2017-12-15T21:56:03Z</time>
      </trkpt>
      <trkpt lat="44.77606" lon="5.59145">
        <ele>1283</ele>
        <time>2017-12-15T21:56:06Z</time>
      </trkpt>
      <trkpt lat="44.77606" lon="5.5918">
        <ele>1281</ele>
        <time>2017-12-15T21:56:15Z</time>
      </trkpt>
      <trkpt lat="44.77616" lon="5.59225">
        <ele>1277</ele>
        <time>2017-12-15T21:56:25Z</time>
      </trkpt>
      <trkpt lat="44.77625" lon="5.59261">
        <ele>1272</ele>
        <time>2017-12-15T21:56:45Z</time>
      </trkpt>
      <trkpt lat="44.77627" lon="5.5928">
        <ele>1271</ele>
        <time>2017-12-15T21:56:49Z</time>
      </trkpt>
      <trkpt lat="44.77627" lon="5.5929">
        <ele>1270</ele>
        <time>2017-12-15T21:56:58Z</time>
      </trkpt>
      <trkpt lat="44.77621" lon="5.59301">
        <ele>1271</ele>
        <time>2017-12-15T21:57:16Z</time>
      </trkpt>
      <trkpt lat="44.77611" lon="5.59307">
        <ele>1272</ele>
        <time>2017-12-15T21:57:35Z</time>
      </trkpt>
      <trkpt lat="44.77602" lon="5.59312">
        <ele>1274</ele>
        <time>2017-12-15T21:57:45Z</time>
      </trkpt>
      <trkpt lat="44.77595" lon="5.5932">
        <ele>1275</ele>
        <time>2017-12-15T21:58:01Z</time>
      </trkpt>
      <trkpt lat="44.77589" lon="5.5933">
        <ele>1278</ele>
        <time>2017-12-15T21:58:08Z</time>
      </trkpt>
      <trkpt lat="44.77578" lon="5.59372">
        <ele>1270</ele>
        <time>2017-12-15T21:58:27Z</time>
      </trkpt>
      <trkpt lat="44.77574" lon="5.59386">
        <ele>1269</ele>
        <time>2017-12-15T21:58:37Z</time>
      </trkpt>
      <trkpt lat="44.77568" lon="5.59397">
        <ele>1268</ele>
        <time>2017-12-15T21:58:43Z</time>
      </trkpt>
      <trkpt lat="44.7756" lon="5.594">
        <ele>1268</ele>
        <time>2017-12-15T21:58:53Z</time>
      </trkpt>
      <trkpt lat="44.77552" lon="5.5939">
        <ele>1268</ele>
        <time>2017-12-15T21:59:05Z</time>
      </trkpt>
      <trkpt lat="44.77547" lon="5.59374">
        <ele>1268</ele>
        <time>2017-12-15T21:59:13Z</time>
      </trkpt>
      <trkpt lat="44.77543" lon="5.59344">
        <ele>1270</ele>
        <time>2017-12-15T21:59:16Z</time>
      </trkpt>
      <trkpt lat="44.77539" lon="5.59327">
        <ele>1279</ele>
        <time>2017-12-15T21:59:33Z</time>
      </trkpt>
      <trkpt lat="44.77533" lon="5.59315">
        <ele>1279</ele>
        <time>2017-12-15T21:59:47Z</time>
      </trkpt>
      <trkpt lat="44.77517" lon="5.59296">
        <ele>1281</ele>
        <time>2017-12-15T21:59:50Z</time>
      </trkpt>
      <trkpt lat="44.77498" lon="5.59278">
        <ele>1272</ele>
        <time>2017-12-15T21:59:57Z</time>
      </trkpt>
      <trkpt lat="44.77491" lon="5.59267">
        <ele>1275</ele>
        <time>2017-12-15T22:00:11Z</time>
      </trkpt>
      <trkpt lat="44.77487" lon="5.59241">
        <ele>1285</ele>
        <time>2017-12-15T22:00:26Z</time>
      </trkpt>
      <trkpt lat="44.77481" lon="5.59223">
        <ele>1284</ele>
        <time>2017-12-15T22:00:28Z</time>
      </trkpt>
      <trkpt lat="44.77465" lon="5.59199">
        <ele>1284</ele>
        <time>2017-12-15T22:00:42Z</time>
      </trkpt>
      <trkpt lat="44.77456" lon="5.59181">
        <ele>1283</ele>
        <time>2017-12-15T22:00:51Z</time>
      </trkpt>
      <trkpt lat="44.7745" lon="5.59163">
        <ele>1294</ele>
        <time>2017-12-15T22:01:07Z</time>
      </trkpt>
      <trkpt lat="44.77444" lon="5.5914">
        <ele>1295</ele>
        <time>2017-12-15T22:01:20Z</time>
      </trkpt>
      <trkpt lat="44.77438" lon="5.59121">
        <ele>1297</ele>
        <time>2017-12-15T22:01:24Z</time>
      </trkpt>
      <trkpt lat="44.77425" lon="5.59104">
        <ele>1298</ele>
        <time>2017-12-15T22:01:40Z</time>
      </trkpt>
      <trkpt lat="44.77409" lon="5.59092">
        <ele>1290</ele>
        <time>2017-12-15T22:01:48Z</time>
      </trkpt>
      <trkpt lat="44.77397" lon="5.59086">
        <ele>1286</ele>
        <time>2017-12-15T22:02:03Z</time>
      </trkpt>
      <trkpt lat="44.77384" lon="5.59083">
        <ele>1293</ele>
        <time>2017-12-15T22:02:06Z</time>
      </trkpt>
      <trkpt lat="44.7737" lon="5.59078">
        <ele>1289</ele>
        <time>2017-12-15T22:02:19Z</time>
      </trkpt>
      <trkpt lat="44.77362" lon="5.59069">
        <ele>1288</ele>
        <time>2017-12-15T22:02:32Z</time>
      </trkpt>
      <trkpt lat="44.77352" lon="5.59042">
        <ele>1290</ele>
        <time>2017-12-15T22:02:38Z</time>
      </trkpt>
      <trkpt lat="44.77346" lon="5.59013">
        <ele>1290</ele>
        <time>2017-12-15T22:02:54Z</time>
      </trkpt>
      <trkpt lat="44.77345" lon="5.59">
        <ele>1293</ele>
        <time>2017-12-15T22:02:57Z</time>
      </trkpt>
      <trkpt lat="44.77347" lon="5.58989">
        <ele>1295</ele>
        <time>2017-12-15T22:03:13Z</time>
      </trkpt>
      <trkpt lat="44.77357" lon="5.58965">
        <ele>1301</ele>
        <time>2017-12-15T22:03:33Z</time>
      </trkpt>
      <trkpt lat="44.77358" lon="5.58952">
        <ele>1302</ele>
        <time>2017-12-15T22:03:50Z</time>
      </trkpt>
      <trkpt lat="44.77353" lon="5.58926">
        <ele>1299</ele>
        <time>2017-12-15T22:03:58Z</time>
      </trkpt>
      <trkpt lat="44.77353" lon="5.5889">
        <ele>1308</ele>
        <time>2017-12-15T22:04:12Z</time>
      </trkpt>
      <trkpt lat="44.77348" lon="5.58861">
        <ele>1310</ele>
        <time>2017-12-15T22:04:18Z</time>
      </trkpt>
      <trkpt lat="44.77343" lon="5.58833">
        <ele>1311</ele>
        <time>2017-12-15T22:04:36Z</time>
      </trkpt>
      <trkpt lat="44.77327" lon="5.58783">
        <ele>1317</ele>
        <time>2017-12-15T22:04:47Z</time>
      </trkpt>
      <trkpt lat="44.7732" lon="5.58777">
        <ele>1318</ele>
        <time>2017-12-15T22:05:01Z</time>
      </trkpt>
      <trkpt lat="44.77308" lon="5.58777">
        <ele>1320</ele>
        <time>2017-12-15T22:05:03Z</time>
      </trkpt>
      <trkpt lat="44.77301" lon="5.5878">
        <ele>1321</ele>
        <time>2017-12-15T22:05:07Z</time>
      </trkpt>
      <trkpt lat="44.77298" lon="5.58785">
        <ele>1321</ele>
        <time>2017-12-15T22:05:17Z</time>
      </trkpt>
      <trkpt lat="44.77295" lon="5.58793">
        <ele>1321</ele>
        <time>2017-12-15T22:05:35Z</time>
      </trkpt>
      <trkpt lat="44.77299" lon="5.58816">
        <ele>1318</ele>
        <time>2017-12-15T22:05:54Z</time>
      </trkpt>
      <trkpt lat="44.77299" lon="5.58831">
        <ele>1317</ele>
        <time>2017-12-15T22:06:04Z</time>
      </trkpt>
      <trkpt lat="44.77287" lon="5.58866">
        <ele>1308</ele>
        <time>2017-12-15T22:06:07Z</time>
      </trkpt>
      <trkpt lat="44.77284" lon="5.58898">
        <ele>1306</ele>
        <time>2017-12-15T22:06:12Z</time>
      </trkpt>
      <trkpt lat="44.77283" lon="5.58914">
        <ele>1305</ele>
        <time>2017-12-15T22:06:14Z</time>
      </trkpt>
      <trkpt lat="44.7728" lon="5.58925">
        <ele>1299</ele>
        <time>2017-12-15T22:06:23Z</time>
      </trkpt>
      <trkpt lat="44.77275" lon="5.58937">
        <ele>1299</ele>
        <time>2017-12-15T22:06:36Z</time>
      </trkpt>
      <trkpt lat="44.7727" lon="5.58942">
        <ele>1299</ele>
        <time>2017-12-15T22:06:38Z</time>
      </trkpt>
      <trkpt lat="44.77265" lon="5.58943">
        <ele>1299</ele>
        <time>2017-12-15T22:06:56Z</time>
      </trkpt>
      <trkpt lat="44.77254" lon="5.58932">
        <ele>1303</ele>
        <time>2017-12-15T22:07:03Z</time>
      </trkpt>
      <trkpt lat="44.77243" lon="5.58924">
        <ele>1315</ele>
        <time>2017-12-15T22:07:17Z</time>
      </trkpt>
      <trkpt lat="44.77236" lon="5.58927">
        <ele>1318</ele>
        <time>2017-12-15T22:07:26Z</time>
      </trkpt>
      <trkpt lat="44.77231" lon="5.58934">
        <ele>1320</ele>
        <time>2017-12-15T22:07:31Z</time>
      </trkpt>
      <trkpt lat="44.77229" lon="5.58942">
        <ele>1321</ele>
        <time>2017-12-15T22:07:33Z</time>
      </trkpt>
      <trkpt lat="44.77223" lon="5.58959">
        <ele>1322</ele>
        <time>2017-12-15T22:07:44Z</time>
      </trkpt>
      <trkpt lat="44.77213" lon="5.58976">
        <ele>1323</ele>
        <time>2017-12-15T22:07:46Z</time>
      </trkpt>
      <trkpt lat="44.77209" lon="5.58987">
        <ele>1323</ele>
        <time>2017-12-15T22:08:02Z</time>
      </trkpt>
      <trkpt lat="44.77208" lon="5.59">
        <ele>1323</ele>
        <time>2017-12-15T22:08:14Z</time>
      </trkpt>
      <trkpt lat="44.77207" lon="5.59048">
        <ele>1308</ele>
        <time>2017-12-15T22:08:20Z</time>
      </trkpt>
      <trkpt lat="44.77203" lon="5.59079">
        <ele>1307</ele>
        <time>2017-12-15T22:08:39Z</time>
      </trkpt>
      <trkpt lat="44.77195" lon="5.59105">
        <ele>1298</ele>
        <time>2017-12-15T22:08:53Z</time>
      </trkpt>
      <trkpt lat="44.77191" lon="5.59113">
        <ele>1297</ele>
        <time>2017-12-15T22:09:06Z</time>
      </trkpt>
      <trkpt lat="44.77186" lon="5.59117">
        <ele>1297</ele>
        <time>2017-12-15T22:09:14Z</time>
      </trkpt>
      <trkpt lat="44.7718" lon="5.59116">
        <ele>1298</ele>
        <time>2017-12-15T22:09:16Z</time>
      </trkpt>
      <trkpt lat="44.77171" lon="5.59105">
        <ele>1302</ele>
        <time>2017-12-15T22:09:27Z</time>
      </trkpt>
      <trkpt lat="44.77161" lon="5.59083">
        <ele>1316</ele>
        <time>2017-12-15T22:09:41Z</time>
      </trkpt>
      <trkpt lat="44.77152" lon="5.59067">
        <ele>1320</ele>
        <time>2017-12-15T22:10:00Z</time>
      </trkpt>
      <trkpt lat="44.77133" lon="5.59046">
        <ele>1323</ele>
        <time>2017-12-15T22:10:06Z</time>
      </trkpt>
      <trkpt lat="44.77124" lon="5.59031">
        <ele>1325</ele>
        <time>2017-12-15T22:10:17Z</time>
      </trkpt>
      <trkpt lat="44.77118" lon="5.59022">
        <ele>1326</ele>
        <time>2017-12-15T22:10:24Z</time>
      </trkpt>
      <trkpt lat="44.77111" lon="5.59018">
        <ele>1326</ele>
        <time>2017-12-15T22:10:27Z</time>
      </trkpt>
      <trkpt lat="44.77103" lon="5.59018">
        <ele>1326</ele>
        <time>2017-12-15T22:10:43Z</time>
      </trkpt>
      <trkpt lat="44.77094" lon="5.59015">
        <ele>1327</ele>
        <time>2017-12-15T22:10:45Z</time>
      </trkpt>
      <trkpt lat="44.77087" lon="5.5901">
        <ele>1329</ele>
        <time>2017-12-15T22:10:56Z</time>
      </trkpt>
      <trkpt lat="44.77077" lon="5.58995">
        <ele>1336</ele>
        <time>2017-12-15T22:11:06Z</time>
      </trkpt>
      <trkpt lat="44.77069" lon="5.5898">
        <ele>1341</ele>
        <time>2017-12-15T22:11:26Z</time>
      </trkpt>
      <trkpt lat="44.77064" lon="5.58973">
        <ele>1342</ele>
        <time>2017-12-15T22:11:28Z</time>
      </trkpt>
      <trkpt lat="44.77055" lon="5.5897">
        <ele>1344</ele>
        <time>2017-12-15T22:11:47Z</time>
      </trkpt>
      <trkpt lat="44.77049" lon="5.58972">
        <ele>1344</ele>
        <time>2017-12-15T22:12:07Z</time>
      </trkpt>
      <trkpt lat="44.77044" lon="5.58978">
        <ele>1343</ele>
        <time>2017-12-15T22:12:18Z</time>
      </trkpt>
      <trkpt lat="44.77036" lon="5.58998">
        <ele>1342</ele>
        <time>2017-12-15T22:12:22Z</time>
      </trkpt>
      <trkpt lat="44.7703" lon="5.59007">
        <ele>1328</ele>
        <time>2017-12-15T22:12:24Z</time>
      </trkpt>
      <trkpt lat="44.77024" lon="5.59011">
        <ele>1328</ele>
        <time>2017-12-15T22:12:35Z</time>
      </trkpt>
      <trkpt lat="44.77008" lon="5.59009">
        <ele>1332</ele>
        <time>2017-12-15T22:12:51Z</time>
      </trkpt>
      <trkpt lat="44.76999" lon="5.5901">
        <ele>1337</ele>
        <time>2017-12-15T22:13:00Z</time>
      </trkpt>
      <trkpt lat="44.7699" lon="5.59014">
        <ele>1336</ele>
        <time>2017-12-15T22:13:19Z</time>
      </trkpt>
      <trkpt lat="44.76975" lon="5.5903">
        <ele>1336</ele>
        <time>2017-12-15T22:13:38Z</time>
      </trkpt>
      <trkpt lat="44.76965" lon="5.59041">
        <ele>1336</ele>
        <time>2017-12-15T22:13:41Z</time>
      </trkpt>
      <trkpt lat="44.76952" lon="5.59043">
        <ele>1337</ele>
        <time>2017-12-15T22:13:44Z</time>
      </trkpt>
      <trkpt lat="44.76938" lon="5.59048">
        <ele>1338</ele>
        <time>2017-12-15T22:14:03Z</time>
      </trkpt>
      <trkpt lat="44.76931" lon="5.59061">
        <ele>1336</ele>
        <time>2017-12-15T22:14:09Z</time>
      </trkpt>
      <trkpt lat="44.76922" lon="5.59072">
        <ele>1335</ele>
        <time>2017-12-15T22:14:15Z</time>
      </trkpt>
      <trkpt lat="44.76914" lon="5.59075">
        <ele>1341</ele>
        <time>2017-12-15T22:14:23Z</time>
      </trkpt>
      <trkpt lat="44.76906" lon="5.59073">
        <ele>1345</ele>
        <time>2017-12-15T22:14:27Z</time>
      </trkpt>
      <trkpt lat="44.76891" lon="5.59062">
        <ele>1352</ele>
        <time>2017-12-15T22:14:47Z</time>
      </trkpt>
      <trkpt lat="44.76877" lon="5.59054">
        <ele>1356</ele>
        <time>2017-12-15T22:14:52Z</time>
      </trkpt>
      <trkpt lat="44.76869" lon="5.59056">
        <ele>1357</ele>
        <time>2017-12-15T22:15:04Z</time>
      </trkpt>
      <trkpt lat="44.76864" lon="5.59062">
        <ele>1357</ele>
        <time>2017-12-15T22:15:18Z</time>
      </trkpt>
      <trkpt lat="44.7686" lon="5.5907">
        <ele>1357</ele>
        <time>2017-12-15T22:15:21Z</time>
      </trkpt>
      <trkpt lat="44.76859" lon="5.59078">
        <ele>1356</ele>
        <time>2017-12-15T22:15:39Z</time>
      </trkpt>
      <trkpt lat="44.7686" lon="5.59099">
        <ele>1341</ele>
        <time>2017-12-15T22:15:57Z</time>
      </trkpt>
      <trkpt lat="44.76857" lon="5.59108">
        <ele>1340</ele>
        <time>2017-12-15T22:16:11Z</time>
      </trkpt>
      <trkpt lat="44.76852" lon="5.59116">
        <ele>1339</ele>
        <time>2017-12-15T22:16:16Z</time>
      </trkpt>
      <trkpt lat="44.76832" lon="5.59135">
        <ele>1356</ele>
        <time>2017-12-15T22:16:29Z</time>
      </trkpt>
      <trkpt lat="44.76816" lon="5.59158">
        <ele>1351</ele>
        <time>2017-12-15T22:16:41Z</time>
      </trkpt>
      <trkpt lat="44.76798" lon="5.59193">
        <ele>1340</ele>
        <time>2017-12-15T22:16:48Z</time>
      </trkpt>
      <trkpt lat="44.76783" lon="5.59223">
        <ele>1338</ele>
        <time>2017-12-15T22:16:52Z</time>
      </trkpt>
      <trkpt lat="44.7677" lon="5.59236">
        <ele>1337</ele>
        <time>2017-12-15T22:17:08Z</time>
      </trkpt>
      <trkpt lat="44.76756" lon="5.59239">
        <ele>1337</ele>
        <time>2017-12-15T22:17:28Z</time>
      </trkpt>
      <trkpt lat="44.76742" lon="5.59238">
        <ele>1339</ele>
        <time>2017-12-15T22:17:38Z</time>
      </trkpt>
      <trkpt lat="44.76727" lon="5.59233">
        <ele>1339</ele>
        <time>2017-12-15T22:17:46Z</time>
      </trkpt>
      <trkpt lat="44.76715" lon="5.59222">
        <ele>1340</ele>
        <time>2017-12-15T22:17:50Z</time>
      </trkpt>
      <trkpt lat="44.76697" lon="5.59201">
        <ele>1341</ele>
        <time>2017-12-15T22:18:04Z</time>
      </trkpt>
      <trkpt lat="44.76678" lon="5.59175">
        <ele>1344</ele>
        <time>2017-12-15T22:18:12Z</time>
      </trkpt>
      <trkpt lat="44.76645" lon="5.59113">
        <ele>1358</ele>
        <time>2017-12-15T22:18:24Z</time>
      </trkpt>
      <trkpt lat="44.76634" lon="5.59083">
        <ele>1378</ele>
        <time>2017-12-15T22:18:41Z</time>
      </trkpt>
      <trkpt lat="44.76618" lon="5.5905">
        <ele>1380</ele>
        <time>2017-12-15T22:18:59Z</time>
      </trkpt>
      <trkpt lat="44.76608" lon="5.59042">
        <ele>1380</ele>
        <time>2017-12-15T22:19:03Z</time>
      </trkpt>
      <trkpt lat="44.76602" lon="5.59041">
        <ele>1380</ele>
        <time>2017-12-15T22:19:15Z</time>
      </trkpt>
      <trkpt lat="44.76596" lon="5.59042">
        <ele>1379</ele>
        <time>2017-12-15T22:19:28Z</time>
      </trkpt>
      <trkpt lat="44.76585" lon="5.59052">
        <ele>1375</ele>
        <time>2017-12-15T22:19:44Z</time>
      </trkpt>
      <trkpt lat="44.76575" lon="5.59065">
        <ele>1373</ele>
        <time>2017-12-15T22:19:46Z</time>
      </trkpt>
      <trkpt lat="44.76568" lon="5.5908">
        <ele>1371</ele>
        <time>2017-12-15T22:20:06Z</time>
      </trkpt>
      <trkpt lat="44.76562" lon="5.5911">
        <ele>1366</ele>
        <time>2017-12-15T22:20:14Z</time>
      </trkpt>
      <trkpt lat="44.76554" lon="5.59134">
        <ele>1366</ele>
        <time>2017-12-15T22:20:33Z</time>
      </trkpt>
      <trkpt lat="44.76552" lon="5.59145">
        <ele>1365</ele>
        <time>2017-12-15T22:20:42Z</time>
      </trkpt>
      <trkpt lat="44.76553" lon="5.59157">
        <ele>1363</ele>
        <time>2017-12-15T22:20:54Z</time>
      </trkpt>
      <trkpt lat="44.76555" lon="5.59164">
        <ele>1362</ele>
        <time>2017-12-15T22:20:56Z</time>
      </trkpt>
      <trkpt lat="44.76557" lon="5.5918">
        <ele>1357</ele>
        <time>2017-12-15T22:21:08Z</time>
      </trkpt>
      <trkpt lat="44.76551" lon="5.59205">
        <ele>1361</ele>
        <time>2017-12-15T22:21:11Z</time>
      </trkpt>
      <trkpt lat="44.7654" lon="5.59241">
        <ele>1365</ele>
        <time>2017-12-15T22:21:30Z</time>
      </trkpt>
      <trkpt lat="44.76532" lon="5.59296">
        <ele>1364</ele>
        <time>2017-12-15T22:21:49Z</time>
      </trkpt>
      <trkpt lat="44.76516" lon="5.59367">
        <ele>1359</ele>
        <time>2017-12-15T22:22:07Z</time>
      </trkpt>
      <trkpt lat="44.765" lon="5.59423">
        <ele>1360</ele>
        <time>2017-12-15T22:22:25Z</time>
      </trkpt>
      <trkpt lat="44.76493" lon="5.59444">
        <ele>1374</ele>
        <time>2017-12-15T22:22:30Z</time>
      </trkpt>
      <trkpt lat="44.76486" lon="5.59454">
        <ele>1374</ele>
        <time>2017-12-15T22:22:46Z</time>
      </trkpt>
      <trkpt lat="44.76478" lon="5.5946">
        <ele>1374</ele>
        <time>2017-12-15T22:23:05Z</time>
      </trkpt>
      <trkpt lat="44.76456" lon="5.59463">
        <ele>1380</ele>
        <time>2017-12-15T22:23:25Z</time>
      </trkpt>
      <trkpt lat="44.76428" lon="5.59477">
        <ele>1385</ele>
        <time>2017-12-15T22:23:39Z</time>
      </trkpt>
      <trkpt lat="44.76409" lon="5.59491">
        <ele>1407</ele>
        <time>2017-12-15T22:23:43Z</time>
      </trkpt>
      <trkpt lat="44.76396" lon="5.59506">
        <ele>1402</ele>
        <time>2017-12-15T22:23:56Z</time>
      </trkpt>
      <trkpt lat="44.76391" lon="5.59518">
        <ele>1405</ele>
        <time>2017-12-15T22:24:05Z</time>
      </trkpt>
      <trkpt lat="44.76388" lon="5.59533">
        <ele>1405</ele>
        <time>2017-12-15T22:24:19Z</time>
      </trkpt>
      <trkpt lat="44.76386" lon="5.59561">
        <ele>1401</ele>
        <time>2017-12-15T22:24:29Z</time>
      </trkpt>
      <trkpt lat="44.76389" lon="5.59578">
        <ele>1396</ele>
        <time>2017-12-15T22:24:38Z</time>
      </trkpt>
      <trkpt lat="44.764" lon="5.596">
        <ele>1382</ele>
        <time>2017-12-15T22:24:46Z</time>
      </trkpt>
      <trkpt lat="44.76402" lon="5.59609">
        <ele>1382</ele>
        <time>2017-12-15T22:24:49Z</time>
      </trkpt>
      <trkpt lat="44.76402" lon="5.59621">
        <ele>1382</ele>
        <time>2017-12-15T22:24:53Z</time>
      </trkpt>
      <trkpt lat="44.764" lon="5.59629">
        <ele>1382</ele>
        <time>2017-12-15T22:25:07Z</time>
      </trkpt>
      <trkpt lat="44.76387" lon="5.59655">
        <ele>1382</ele>
        <time>2017-12-15T22:25:11Z</time>
      </trkpt>
      <trkpt lat="44.76334" lon="5.59752">
        <ele>1385</ele>
        <time>2017-12-15T22:25:31Z</time>
      </trkpt>
      <trkpt lat="44.76279" lon="5.59857">
        <ele>1381</ele>
        <time>2017-12-15T22:25:41Z</time>
      </trkpt>
      <trkpt lat="44.76272" lon="5.59869">
        <ele>1380</ele>
        <time>2017-12-15T22:25:48Z</time>
      </trkpt>
      <trkpt lat="44.76263" lon="5.59876">
        <ele>1381</ele>
        <time>2017-12-15T22:26:02Z</time>
      </trkpt>
      <trkpt lat="44.7625" lon="5.59883">
        <ele>1382</ele>
        <time>2017-12-15T22:26:06Z</time>
      </trkpt>
      <trkpt lat="44.76242" lon="5.5989">
        <ele>1410</ele>
        <time>2017-12-15T22:26:20Z</time>
      </trkpt>
      <trkpt lat="44.76238" lon="5.59899">
        <ele>1408</ele>
        <time>2017-12-15T22:26:32Z</time>
      </trkpt>
      <trkpt lat="44.76236" lon="5.59916">
        <ele>1403</ele>
        <time>2017-12-15T22:26:36Z</time>
      </trkpt>
      <trkpt lat="44.76241" lon="5.59946">
        <ele>1396</ele>
        <time>2017-12-15T22:26:43Z</time>
      </trkpt>
      <trkpt lat="44.76243" lon="5.59966">
        <ele>1393</ele>
        <time>2017-12-15T22:26:59Z</time>
      </trkpt>
      <trkpt lat="44.76242" lon="5.59977">
        <ele>1390</ele>
        <time>2017-12-15T22:27:03Z</time>
      </trkpt>
      <trkpt lat="44.76238" lon="5.59988">
        <ele>1387</ele>
        <time>2017-12-15T22:27:21Z</time>
      </trkpt>
      <trkpt lat="44.76231" lon="5.59996">
        <ele>1389</ele>
        <time>2017-12-15T22:27:40Z</time>
      </trkpt>
      <trkpt lat="44.76206" lon="5.60014">
        <ele>1387</ele>
        <time>2017-12-15T22:27:44Z</time>
      </trkpt>
      <trkpt lat="44.76196" lon="5.60025">
        <ele>1389</ele>
        <time>2017-12-15T22:28:04Z</time>
      </trkpt>
      <trkpt lat="44.7619" lon="5.60038">
        <ele>1388</ele>
        <time>2017-12-15T22:28:06Z</time>
      </trkpt>
      <trkpt lat="44.76182" lon="5.60063">
        <ele>1387</ele>
        <time>2017-12-15T22:28:10Z</time>
      </trkpt>
      <trkpt lat="44.76178" lon="5.60071">
        <ele>1389</ele>
        <time>2017-12-15T22:28:25Z</time>
      </trkpt>
      <trkpt lat="44.7617" lon="5.60081">
        <ele>1392</ele>
        <time>2017-12-15T22:28:37Z</time>
      </trkpt>
      <trkpt lat="44.76154" lon="5.60093">
        <ele>1402</ele>
        <time>2017-12-15T22:28:51Z</time>
      </trkpt>
      <trkpt lat="44.76147" lon="5.60103">
        <ele>1405</ele>
        <time>2017-12-15T22:29:01Z</time>
      </trkpt>
      <trkpt lat="44.76142" lon="5.6012">
        <ele>1407</ele>
        <time>2017-12-15T22:29:17Z</time>
      </trkpt>
      <trkpt lat="44.76133" lon="5.6014">
        <ele>1408</ele>
        <time>2017-12-15T22:29:21Z</time>
      </trkpt>
      <trkpt lat="44.7613" lon="5.6015">
        <ele>1408</ele>
        <time>2017-12-15T22:29:23Z</time>
      </trkpt>
      <trkpt lat="44.76131" lon="5.60163">
        <ele>1407</ele>
        <time>2017-12-15T22:29:40Z</time>
      </trkpt>
      <trkpt lat="44.76146" lon="5.60189">
        <ele>1399</ele>
        <time>2017-12-15T22:29:50Z</time>
      </trkpt>
      <trkpt lat="44.76152" lon="5.60204">
        <ele>1399</ele>
        <time>2017-12-15T22:29:53Z</time>
      </trkpt>
      <trkpt lat="44.76153" lon="5.60224">
        <ele>1397</ele>
        <time>2017-12-15T22:30:05Z</time>
      </trkpt>
      <trkpt lat="44.7615" lon="5.60243">
        <ele>1394</ele>
        <time>2017-12-15T22:30:09Z</time>
      </trkpt>
      <trkpt lat="44.7614" lon="5.60259">
        <ele>1396</ele>
        <time>2017-12-15T22:30:26Z</time>
      </trkpt>
      <trkpt lat="44.76135" lon="5.60268">
        <ele>1398</ele>
        <time>2017-12-15T22:30:46Z</time>
      </trkpt>
      <trkpt lat="44.76132" lon="5.6028">
        <ele>1398</ele>
        <time>2017-12-15T22:30:55Z</time>
      </trkpt>
      <trkpt lat="44.7613" lon="5.60313">
        <ele>1397</ele>
        <time>2017-12-15T22:30:57Z</time>
      </trkpt>
      <trkpt lat="44.76124" lon="5.60346">
        <ele>1392</ele>
        <time>2017-12-15T22:31:03Z</time>
      </trkpt>
      <trkpt lat="44.76119" lon="5.60405">
        <ele>1389</ele>
        <time>2017-12-15T22:31:18Z</time>
      </trkpt>
      <trkpt lat="44.76116" lon="5.6042">
        <ele>1382</ele>
        <time>2017-12-15T22:31:25Z</time>
      </trkpt>
      <trkpt lat="44.76103" lon="5.60447">
        <ele>1382</ele>
        <time>2017-12-15T22:31:27Z</time>
      </trkpt>
      <trkpt lat="44.76092" lon="5.60463">
        <ele>1381</ele>
        <time>2017-12-15T22:31:39Z</time>
      </trkpt>
      <trkpt lat="44.76085" lon="5.6047">
        <ele>1381</ele>
        <time>2017-12-15T22:31:44Z</time>
      </trkpt>
      <trkpt lat="44.76076" lon="5.60472">
        <ele>1394</ele>
        <time>2017-12-15T22:31:46Z</time>
      </trkpt>
      <trkpt lat="44.76065" lon="5.60467">
        <ele>1395</ele>
        <time>2017-12-15T22:32:01Z</time>
      </trkpt>
      <trkpt lat="44.7606" lon="5.60457">
        <ele>1397</ele>
        <time>2017-12-15T22:32:05Z</time>
      </trkpt>
      <trkpt lat="44.7606" lon="5.60434">
        <ele>1400</ele>
        <time>2017-12-15T22:32:21Z</time>
      </trkpt>
      <trkpt lat="44.76059" lon="5.60419">
        <ele>1401</ele>
        <time>2017-12-15T22:32:40Z</time>
      </trkpt>
      <trkpt lat="44.76057" lon="5.60405">
        <ele>1414</ele>
        <time>2017-12-15T22:32:51Z</time>
      </trkpt>
      <trkpt lat="44.7605" lon="5.60397">
        <ele>1416</ele>
        <time>2017-12-15T22:33:06Z</time>
      </trkpt>
      <trkpt lat="44.76041" lon="5.60393">
        <ele>1418</ele>
        <time>2017-12-15T22:33:08Z</time>
      </trkpt>
      <trkpt lat="44.76028" lon="5.60396">
        <ele>1418</ele>
        <time>2017-12-15T22:33:24Z</time>
      </trkpt>
      <trkpt lat="44.76001" lon="5.60413">
        <ele>1414</ele>
        <time>2017-12-15T22:33:43Z</time>
      </trkpt>
      <trkpt lat="44.75949" lon="5.60442">
        <ele>1416</ele>
        <time>2017-12-15T22:34:03Z</time>
      </trkpt>
      <trkpt lat="44.75929" lon="5.60459">
        <ele>1415</ele>
        <time>2017-12-15T22:34:05Z</time>
      </trkpt>
      <trkpt lat="44.75917" lon="5.60474">
        <ele>1414</ele>
        <time>2017-12-15T22:34:24Z</time>
      </trkpt>
      <trkpt lat="44.7591" lon="5.60482">
        <ele>1424</ele>
        <time>2017-12-15T22:34:32Z</time>
      </trkpt>
      <trkpt lat="44.75905" lon="5.60484">
        <ele>1424</ele>
        <time>2017-12-15T22:34:51Z</time>
      </trkpt>
      <trkpt lat="44.759" lon="5.60483">
        <ele>1426</ele>
        <time>2017-12-15T22:35:09Z</time>
      </trkpt>
      <trkpt lat="44.75891" lon="5.60476">
        <ele>1429</ele>
        <time>2017-12-15T22:35:12Z</time>
      </trkpt>
      <trkpt lat="44.75726" lon="5.60248">
        <ele>1415</ele>
        <time>2017-12-15T22:35:27Z</time>
      </trkpt>
      <trkpt lat="44.75714" lon="5.60225">
        <ele>1411</ele>
        <time>2017-12-15T22:35:47Z</time>
      </trkpt>
      <trkpt lat="44.75705" lon="5.60188">
        <ele>1407</ele>
        <time>2017-12-15T22:35:58Z</time>
      </trkpt>
      <trkpt lat="44.75685" lon="5.60022">
        <ele>1401</ele>
        <time>2017-12-15T22:36:18Z</time>
      </trkpt>
      <trkpt lat="44.75681" lon="5.6001">
        <ele>1398</ele>
        <time>2017-12-15T22:36:26Z</time>
      </trkpt>
      <trkpt lat="44.75672" lon="5.59997">
        <ele>1394</ele>
        <time>2017-12-15T22:36:46Z</time>
      </trkpt>
      <trkpt lat="44.75647" lon="5.59971">
        <ele>1378</ele>
        <time>2017-12-15T22:36:59Z</time>
      </trkpt>
      <trkpt lat="44.75642" lon="5.59961">
        <ele>1377</ele>
        <time>2017-12-15T22:37:15Z</time>
      </trkpt>
      <trkpt lat="44.75632" lon="5.59915">
        <ele>1388</ele>
        <time>2017-12-15T22:37:29Z</time>
      </trkpt>
      <trkpt lat="44.75608" lon="5.59857">
        <ele>1384</ele>
        <time>2017-12-15T22:37:48Z</time>
      </trkpt>
      <trkpt lat="44.75577" lon="5.59814">
        <ele>1366</ele>
        <time>2017-12-15T22:37:59Z</time>
      </trkpt>
      <trkpt lat="44.7557" lon="5.59794">
        <ele>1364</ele>
        <time>2017-12-15T22:38:07Z</time>
      </trkpt>
      <trkpt lat="44.75569" lon="5.59781">
        <ele>1365</ele>
        <time>2017-12-15T22:38:27Z</time>
      </trkpt>
      <trkpt lat="44.75572" lon="5.59766">
        <ele>1368</ele>
        <time>2017-12-15T22:38:31Z</time>
      </trkpt>
      <trkpt lat="44.75593" lon="5.5966">
        <ele>1379</ele>
        <time>2017-12-15T22:38:42Z</time>
      </trkpt>
      <trkpt lat="44.75591" lon="5.5962">
        <ele>1383</ele>
        <time>2017-12-15T22:38:57Z</time>
      </trkpt>
      <trkpt lat="44.75588" lon="5.59601">
        <ele>1379</ele>
        <time>2017-12-15T22:39:12Z</time>
      </trkpt>
      <trkpt lat="44.75565" lon="5.59535">
        <ele>1364</ele>
        <time>2017-12-15T22:39:29Z</time>
      </trkpt>
      <trkpt lat="44.75548" lon="5.59498">
        <ele>1364</ele>
        <time>2017-12-15T22:39:46Z</time>
      </trkpt>
      <trkpt lat="44.75542" lon="5.59487">
        <ele>1363</ele>
        <time>2017-12-15T22:39:59Z</time>
      </trkpt>
      <trkpt lat="44.75501" lon="5.59446">
        <ele>1360</ele>
        <time>2017-12-15T22:40:09Z</time>
      </trkpt>
      <trkpt lat="44.75493" lon="5.59436">
        <ele>1348</ele>
        <time>2017-12-15T22:40:14Z</time>
      </trkpt>
      <trkpt lat="44.75485" lon="5.59417">
        <ele>1349</ele>
        <time>2017-12-15T22:40:33Z</time>
      </trkpt>
      <trkpt lat="44.75478" lon="5.59394">
        <ele>1344</ele>
        <time>2017-12-15T22:40:52Z</time>
      </trkpt>
      <trkpt lat="44.75473" lon="5.59357">
        <ele>1341</ele>
        <time>2017-12-15T22:41:04Z</time>
      </trkpt>
      <trkpt lat="44.75478" lon="5.59328">
        <ele>1340</ele>
        <time>2017-12-15T22:41:18Z</time>
      </trkpt>
      <trkpt lat="44.75498" lon="5.59297">
        <ele>1339</ele>
        <time>2017-12-15T22:41:20Z</time>
      </trkpt>
      <trkpt lat="44.75503" lon="5.59284">
        <ele>1356</ele>
        <time>2017-12-15T22:41:25Z</time>
      </trkpt>
      <trkpt lat="44.75505" lon="5.59267">
        <ele>1353</ele>
        <time>2017-12-15T22:41:36Z</time>
      </trkpt>
      <trkpt lat="44.755" lon="5.59232">
        <ele>1355</ele>
        <time>2017-12-15T22:41:55Z</time>
      </trkpt>
      <trkpt lat="44.75495" lon="5.59217">
        <ele>1338</ele>
        <time>2017-12-15T22:42:12Z</time>
      </trkpt>
      <trkpt lat="44.75484" lon="5.59197">
        <ele>1339</ele>
        <time>2017-12-15T22:42:18Z</time>
      </trkpt>
      <trkpt lat="44.75464" lon="5.59167">
        <ele>1336</ele>
        <time>2017-12-15T22:42:34Z</time>
      </trkpt>
      <trkpt lat="44.7546" lon="5.59155">
        <ele>1338</ele>
        <time>2017-12-15T22:42:42Z</time>
      </trkpt>
      <trkpt lat="44.75457" lon="5.59123">
        <ele>1337</ele>
        <time>2017-12-15T22:42:47Z</time>
      </trkpt>
      <trkpt lat="44.75458" lon="5.59098">
        <ele>1338</ele>
        <time>2017-12-15T22:43:05Z</time>
      </trkpt>
      <trkpt lat="44.75456" lon="5.59018">
        <ele>1342</ele>
        <time>2017-12-15T22:43:13Z</time>
      </trkpt>
      <trkpt lat="44.75456" lon="5.58988">
        <ele>1345</ele>
        <time>2017-12-15T22:43:32Z</time>
      </trkpt>
      <trkpt lat="44.75458" lon="5.5897">
        <ele>1346</ele>
        <time>2017-12-15T22:43:36Z</time>
      </trkpt>
      <trkpt lat="44.75472" lon="5.58918">
        <ele>1350</ele>
        <time>2017-12-15T22:43:56Z</time>
      </trkpt>
      <trkpt lat="44.75478" lon="5.58882">
        <ele>1357</ele>
        <time>2017-12-15T22:44:15Z</time>
      </trkpt>
      <trkpt lat="44.75474" lon="5.58866">
        <ele>1358</ele>
        <time>2017-12-15T22:44:22Z</time>
      </trkpt>
      <trkpt lat="44.75469" lon="5.5886">
        <ele>1358</ele>
        <time>2017-12-15T22:44:36Z</time>
      </trkpt>
      <trkpt lat="44.75461" lon="5.58856">
        <ele>1359</ele>
        <time>2017-12-15T22:44:46Z</time>
      </trkpt>
      <trkpt lat="44.75446" lon="5.58859">
        <ele>1358</ele>
        <time>2017-12-15T22:44:49Z</time>
      </trkpt>
      <trkpt lat="44.75425" lon="5.58878">
        <ele>1354</ele>
        <time>2017-12-15T22:44:54Z</time>
      </trkpt>
      <trkpt lat="44.75391" lon="5.58901">
        <ele>1348</ele>
        <time>2017-12-15T22:45:12Z</time>
      </trkpt>
      <trkpt lat="44.75373" lon="5.58915">
        <ele>1348</ele>
        <time>2017-12-15T22:45:19Z</time>
      </trkpt>
      <trkpt lat="44.75321" lon="5.58973">
        <ele>1319</ele>
        <time>2017-12-15T22:45:38Z</time>
      </trkpt>
      <trkpt lat="44.75309" lon="5.58986">
        <ele>1317</ele>
        <time>2017-12-15T22:45:41Z</time>
      </trkpt>
      <trkpt lat="44.75301" lon="5.5899">
        <ele>1316</ele>
        <time>2017-12-15T22:45:45Z</time>
      </trkpt>
      <trkpt lat="44.75284" lon="5.58991">
        <ele>1315</ele>
        <time>2017-12-15T22:45:51Z</time>
      </trkpt>
      <trkpt lat="44.75273" lon="5.58985">
        <ele>1314</ele>
        <time>2017-12-15T22:46:01Z</time>
      </trkpt>
      <trkpt lat="44.75266" lon="5.58974">
        <ele>1315</ele>
        <time>2017-12-15T22:46:13Z</time>
      </trkpt>
      <trkpt lat="44.75206" lon="5.5885">
        <ele>1319</ele>
        <time>2017-12-15T22:46:20Z</time>
      </trkpt>
      <trkpt lat="44.75157" lon="5.5877">
        <ele>1314</ele>
        <time>2017-12-15T22:46:24Z</time>
      </trkpt>
      <trkpt lat="44.75136" lon="5.58741">
        <ele>1324</ele>
        <time>2017-12-15T22:46:32Z</time>
      </trkpt>
      <trkpt lat="44.75072" lon="5.58681">
        <ele>1301</ele>
        <time>2017-12-15T22:46:34Z</time>
      </trkpt>
      <trkpt lat="44.75064" lon="5.58667">
        <ele>1301</ele>
        <time>2017-12-15T22:46:44Z</time>
      </trkpt>
      <trkpt lat="44.75051" lon="5.58625">
        <ele>1307</ele>
        <time>2017-12-15T22:46:55Z</time>
      </trkpt>
      <trkpt lat="44.75047" lon="5.58616">
        <ele>1307</ele>
        <time>2017-12-15T22:47:13Z</time>
      </trkpt>
      <trkpt lat="44.75039" lon="5.5861">
        <ele>1305</ele>
        <time>2017-12-15T22:47:21Z</time>
      </trkpt>
      <trkpt lat="44.75034" lon="5.58619">
        <ele>1303</ele>
        <time>2017-12-15T22:47:28Z</time>
      </trkpt>
      <trkpt lat="44.75034" lon="5.58627">
        <ele>1302</ele>
        <time>2017-12-15T22:47:48Z</time>
      </trkpt>
      <trkpt lat="44.75038" lon="5.58638">
        <ele>1302</ele>
        <time>2017-12-15T22:48:00Z</time>
      </trkpt>
      <trkpt lat="44.75053" lon="5.58668">
        <ele>1295</ele>
        <time>2017-12-15T22:48:17Z</time>
      </trkpt>
      <trkpt lat="44.75068" lon="5.58704">
        <ele>1293</ele>
        <time>2017-12-15T22:48:19Z</time>
      </trkpt>
      <trkpt lat="44.75083" lon="5.5873">
        <ele>1291</ele>
        <time>2017-12-15T22:48:35Z</time>
      </trkpt>
      <trkpt lat="44.75112" lon="5.58769">
        <ele>1301</ele>
        <time>2017-12-15T22:48:51Z</time>
      </trkpt>
      <trkpt lat="44.75134" lon="5.58806">
        <ele>1302</ele>
        <time>2017-12-15T22:49:06Z</time>
      </trkpt>
      <trkpt lat="44.75169" lon="5.58885">
        <ele>1307</ele>
        <time>2017-12-15T22:49:20Z</time>
      </trkpt>
      <trkpt lat="44.75183" lon="5.58925">
        <ele>1291</ele>
        <time>2017-12-15T22:49:38Z</time>
      </trkpt>
      <trkpt lat="44.75193" lon="5.58963">
        <ele>1291</ele>
        <time>2017-12-15T22:49:50Z</time>
      </trkpt>
      <trkpt lat="44.75215" lon="5.59046">
        <ele>1274</ele>
        <time>2017-12-15T22:50:09Z</time>
      </trkpt>
      <trkpt lat="44.75222" lon="5.59074">
        <ele>1274</ele>
        <time>2017-12-15T22:50:20Z</time>
      </trkpt>
      <trkpt lat="44.7523" lon="5.59091">
        <ele>1264</ele>
        <time>2017-12-15T22:50:33Z</time>
      </trkpt>
      <trkpt lat="44.75238" lon="5.59098">
        <ele>1265</ele>
        <time>2017-12-15T22:50:46Z</time>
      </trkpt>
      <trkpt lat="44.75248" lon="5.59101">
        <ele>1266</ele>
        <time>2017-12-15T22:50:59Z</time>
      </trkpt>
      <trkpt lat="44.7526" lon="5.591">
        <ele>1276</ele>
        <time>2017-12-15T22:51:01Z</time>
      </trkpt>
      <trkpt lat="44.7528" lon="5.59092">
        <ele>1276</ele>
        <time>2017-12-15T22:51:21Z</time>
      </trkpt>
      <trkpt lat="44.75319" lon="5.5908">
        <ele>1287</ele>
        <time>2017-12-15T22:51:34Z</time>
      </trkpt>
      <trkpt lat="44.75343" lon="5.59076">
        <ele>1292</ele>
        <time>2017-12-15T22:51:50Z</time>
      </trkpt>
      <trkpt lat="44.75349" lon="5.5908">
        <ele>1294</ele>
        <time>2017-12-15T22:51:58Z</time>
      </trkpt>
      <trkpt lat="44.75353" lon="5.59088">
        <ele>1291</ele>
        <time>2017-12-15T22:52:18Z</time>
      </trkpt>
      <trkpt lat="44.75351" lon="5.59097">
        <ele>1291</ele>
        <time>2017-12-15T22:52:26Z</time>
      </trkpt>
      <trkpt lat="44.75345" lon="5.59103">
        <ele>1291</ele>
        <time>2017-12-15T22:52:44Z</time>
      </trkpt>
      <trkpt lat="44.75337" lon="5.59105">
        <ele>1290</ele>
        <time>2017-12-15T22:52:48Z</time>
      </trkpt>
      <trkpt lat="44.75325" lon="5.59102">
        <ele>1278</ele>
        <time>2017-12-15T22:52:51Z</time>
      </trkpt>
      <trkpt lat="44.75308" lon="5.59098">
        <ele>1277</ele>
        <time>2017-12-15T22:53:10Z</time>
      </trkpt>
      <trkpt lat="44.75291" lon="5.59102">
        <ele>1276</ele>
        <time>2017-12-15T22:53:25Z</time>
      </trkpt>
      <trkpt lat="44.7526" lon="5.59123">
        <ele>1272</ele>
        <time>2017-12-15T22:53:27Z</time>
      </trkpt>
      <trkpt lat="44.75245" lon="5.59127">
        <ele>1257</ele>
        <time>2017-12-15T22:53:43Z</time>
      </trkpt>
      <trkpt lat="44.75228" lon="5.59124">
        <ele>1256</ele>
        <time>2017-12-15T22:53:51Z</time>
      </trkpt>
      <trkpt lat="44.75211" lon="5.59114">
        <ele>1254</ele>
        <time>2017-12-15T22:54:00Z</time>
      </trkpt>
      <trkpt lat="44.75202" lon="5.591">
        <ele>1253</ele>
        <time>2017-12-15T22:54:09Z</time>
      </trkpt>
      <trkpt lat="44.75192" lon="5.59075">
        <ele>1264</ele>
        <time>2017-12-15T22:54:27Z</time>
      </trkpt>
      <trkpt lat="44.75184" lon="5.59062">
        <ele>1264</ele>
        <time>2017-12-15T22:54:35Z</time>
      </trkpt>
      <trkpt lat="44.75166" lon="5.59045">
        <ele>1246</ele>
        <time>2017-12-15T22:54:46Z</time>
      </trkpt>
      <trkpt lat="44.75153" lon="5.59028">
        <ele>1248</ele>
        <time>2017-12-15T22:55:01Z</time>
      </trkpt>
      <trkpt lat="44.75145" lon="5.5901">
        <ele>1251</ele>
        <time>2017-12-15T22:55:07Z</time>
      </trkpt>
      <trkpt lat="44.7513" lon="5.5898">
        <ele>1262</ele>
        <time>2017-12-15T22:55:12Z</time>
      </trkpt>
      <trkpt lat="44.75119" lon="5.58964">
        <ele>1262</ele>
        <time>2017-12-15T22:55:16Z</time>
      </trkpt>
      <trkpt lat="44.75103" lon="5.58949">
        <ele>1262</ele>
        <time>2017-12-15T22:55:21Z</time>
      </trkpt>
      <trkpt lat="44.75091" lon="5.58945">
        <ele>1261</ele>
        <time>2017-12-15T22:55:35Z</time>
      </trkpt>
      <trkpt lat="44.75082" lon="5.5895">
        <ele>1247</ele>
        <time>2017-12-15T22:55:46Z</time>
      </trkpt>
      <trkpt lat="44.75076" lon="5.58963">
        <ele>1244</ele>
        <time>2017-12-15T22:56:04Z</time>
      </trkpt>
      <trkpt lat="44.75073" lon="5.58972">
        <ele>1243</ele>
        <time>2017-12-15T22:56:18Z</time>
      </trkpt>
      <trkpt lat="44.75069" lon="5.58978">
        <ele>1242</ele>
        <time>2017-12-15T22:56:30Z</time>
      </trkpt>
      <trkpt lat="44.75063" lon="5.5898">
        <ele>1241</ele>
        <time>2017-12-15T22:56:42Z</time>
      </trkpt>
      <trkpt lat="44.75057" lon="5.58979">
        <ele>1241</ele>
        <time>2017-12-15T22:56:45Z</time>
      </trkpt>
      <trkpt lat="44.75037" lon="5.58964">
        <ele>1241</ele>
        <time>2017-12-15T22:56:51Z</time>
      </trkpt>
      <trkpt lat="44.75006" lon="5.58934">
        <ele>1243</ele>
        <time>2017-12-15T22:56:57Z</time>
      </trkpt>
      <trkpt lat="44.74957" lon="5.58878">
        <ele>1233</ele>
        <time>2017-12-15T22:57:10Z</time>
      </trkpt>
      <trkpt lat="44.74946" lon="5.5886">
        <ele>1232</ele>
        <time>2017-12-15T22:57:21Z</time>
      </trkpt>
      <trkpt lat="44.74937" lon="5.58837">
        <ele>1230</ele>
        <time>2017-12-15T22:57:33Z</time>
      </trkpt>
      <trkpt lat="44.74931" lon="5.5882">
        <ele>1234</ele>
        <time>2017-12-15T22:57:35Z</time>
      </trkpt>
      <trkpt lat="44.74931" lon="5.58803">
        <ele>1237</ele>
        <time>2017-12-15T22:57:47Z</time>
      </trkpt>
      <trkpt lat="44.74935" lon="5.58776">
        <ele>1237</ele>
        <time>2017-12-15T22:58:07Z</time>
      </trkpt>
      <trkpt lat="44.74934" lon="5.58754">
        <ele>1234</ele>
        <time>2017-12-15T22:58:13Z</time>
      </trkpt>
      <trkpt lat="44.74922" lon="5.58684">
        <ele>1237</ele>
        <time>2017-12-15T22:58:30Z</time>
      </trkpt>
      <trkpt lat="44.74911" lon="5.58598">
        <ele>1221</ele>
        <time>2017-12-15T22:58:39Z</time>
      </trkpt>
      <trkpt lat="44.74902" lon="5.58532">
        <ele>1219</ele>
        <time>2017-12-15T22:58:46Z</time>
      </trkpt>
      <trkpt lat="44.74901" lon="5.58487">
        <ele>1221</ele>
        <time>2017-12-15T22:58:53Z</time>
      </trkpt>
      <trkpt lat="44.74907" lon="5.5842">
        <ele>1222</ele>
        <time>2017-12-15T22:59:07Z</time>
      </trkpt>
      <trkpt lat="44.74902" lon="5.58358">
        <ele>1215</ele>
        <time>2017-12-15T22:59:17Z</time>
      </trkpt>
      <trkpt lat="44.74896" lon="5.58303">
        <ele>1212</ele>
        <time>2017-12-15T22:59:31Z</time>
      </trkpt>
      <trkpt lat="44.74897" lon="5.58288">
        <ele>1212</ele>
        <time>2017-12-15T22:59:47Z</time>
      </trkpt>
      <trkpt lat="44.74901" lon="5.58271">
        <ele>1214</ele>
        <time>2017-12-15T22:59:58Z</time>
      </trkpt>
      <trkpt lat="44.74901" lon="5.58264">
        <ele>1215</ele>
        <time>2017-12-15T23:00:11Z</time>
      </trkpt>
      <trkpt lat="44.74898" lon="5.58248">
        <ele>1217</ele>
        <time>2017-12-15T23:00:30Z</time>
      </trkpt>
      <trkpt lat="44.74881" lon="5.58226">
        <ele>1213</ele>
        <time>2017-12-15T23:00:47Z</time>
      </trkpt>
      <trkpt lat="44.74876" lon="5.58214">
        <ele>1212</ele>
        <time>2017-12-15T23:00:52Z</time>
      </trkpt>
      <trkpt lat="44.7487" lon="5.58187">
        <ele>1212</ele>
        <time>2017-12-15T23:01:11Z</time>
      </trkpt>
      <trkpt lat="44.74861" lon="5.58123">
        <ele>1219</ele>
        <time>2017-12-15T23:01:26Z</time>
      </trkpt>
      <trkpt lat="44.74851" lon="5.58097">
        <ele>1218</ele>
        <time>2017-12-15T23:01:44Z</time>
      </trkpt>
      <trkpt lat="44.74843" lon="5.58092">
        <ele>1216</ele>
        <time>2017-12-15T23:01:57Z</time>
      </trkpt>
      <trkpt lat="44.74834" lon="5.5809">
        <ele>1215</ele>
        <time>2017-12-15T23:02:04Z</time>
      </trkpt>
      <trkpt lat="44.74826" lon="5.58091">
        <ele>1207</ele>
        <time>2017-12-15T23:02:13Z</time>
      </trkpt>
      <trkpt lat="44.74817" lon="5.58096">
        <ele>1203</ele>
        <time>2017-12-15T23:02:17Z</time>
      </trkpt>
      <trkpt lat="44.74794" lon="5.58115">
        <ele>1197</ele>
        <time>2017-12-15T23:02:19Z</time>
      </trkpt>
      <trkpt lat="44.74782" lon="5.5812">
        <ele>1195</ele>
        <time>2017-12-15T23:02:22Z</time>
      </trkpt>
      <trkpt lat="44.74772" lon="5.58121">
        <ele>1193</ele>
        <time>2017-12-15T23:02:27Z</time>
      </trkpt>
      <trkpt lat="44.74767" lon="5.58119">
        <ele>1193</ele>
        <time>2017-12-15T23:02:31Z</time>
      </trkpt>
      <trkpt lat="44.74761" lon="5.58104">
        <ele>1193</ele>
        <time>2017-12-15T23:02:50Z</time>
      </trkpt>
      <trkpt lat="44.74755" lon="5.58069">
        <ele>1199</ele>
        <time>2017-12-15T23:02:57Z</time>
      </trkpt>
      <trkpt lat="44.74751" lon="5.5805">
        <ele>1204</ele>
        <time>2017-12-15T23:03:14Z</time>
      </trkpt>
      <trkpt lat="44.74744" lon="5.58034">
        <ele>1189</ele>
        <time>2017-12-15T23:03:27Z</time>
      </trkpt>
      <trkpt lat="44.74723" lon="5.58">
        <ele>1195</ele>
        <time>2017-12-15T23:03:44Z</time>
      </trkpt>
      <trkpt lat="44.74687" lon="5.57954">
        <ele>1193</ele>
        <time>2017-12-15T23:04:04Z</time>
      </trkpt>
      <trkpt lat="44.74674" lon="5.57938">
        <ele>1193</ele>
        <time>2017-12-15T23:04:14Z</time>
      </trkpt>
      <trkpt lat="44.74659" lon="5.57927">
        <ele>1183</ele>
        <time>2017-12-15T23:04:29Z</time>
      </trkpt>
      <trkpt lat="44.74632" lon="5.57914">
        <ele>1185</ele>
        <time>2017-12-15T23:04:46Z</time>
      </trkpt>
      <trkpt lat="44.74594" lon="5.57899">
        <ele>1180</ele>
        <time>2017-12-15T23:05:03Z</time>
      </trkpt>
      <trkpt lat="44.74564" lon="5.57878">
        <ele>1164</ele>
        <time>2017-12-15T23:05:12Z</time>
      </trkpt>
      <trkpt lat="44.74545" lon="5.5786">
        <ele>1162</ele>
        <time>2017-12-15T23:05:24Z</time>
      </trkpt>
      <trkpt lat="44.74536" lon="5.5785">
        <ele>1162</ele>
        <time>2017-12-15T23:05:34Z</time>
      </trkpt>
      <trkpt lat="44.7453" lon="5.57839">
        <ele>1161</ele>
        <time>2017-12-15T23:05:40Z</time>
      </trkpt>
      <trkpt lat="44.74527" lon="5.57827">
        <ele>1166</ele>
        <time>2017-12-15T23:05:55Z</time>
      </trkpt>
      <trkpt lat="44.74528" lon="5.57815">
        <ele>1166</ele>
        <time>2017-12-15T23:06:14Z</time>
      </trkpt>
      <trkpt lat="44.74531" lon="5.57804">
        <ele>1167</ele>
        <time>2017-12-15T23:06:19Z</time>
      </trkpt>
      <trkpt lat="44.74536" lon="5.57795">
        <ele>1167</ele>
        <time>2017-12-15T23:06:22Z</time>
      </trkpt>
      <trkpt lat="44.74542" lon="5.57787">
        <ele>1168</ele>
        <time>2017-12-15T23:06:31Z</time>
      </trkpt>
      <trkpt lat="44.74549" lon="5.57782">
        <ele>1168</ele>
        <time>2017-12-15T23:06:39Z</time>
      </trkpt>
      <trkpt lat="44.74562" lon="5.57777">
        <ele>1169</ele>
        <time>2017-12-15T23:06:57Z</time>
      </trkpt>
      <trkpt lat="44.74566" lon="5.57773">
        <ele>1169</ele>
        <time>2017-12-15T23:07:06Z</time>
      </trkpt>
      <trkpt lat="44.74567" lon="5.57765">
        <ele>1169</ele>
        <time>2017-12-15T23:07:25Z</time>
      </trkpt>
      <trkpt lat="44.74564" lon="5.57758">
        <ele>1168</ele>
        <time>2017-12-15T23:07:27Z</time>
      </trkpt>
      <trkpt lat="44.74558" lon="5.57753">
        <ele>1168</ele>
        <time>2017-12-15T23:07:38Z</time>
      </trkpt>
      <trkpt lat="44.74538" lon="5.5775">
        <ele>1163</ele>
        <time>2017-12-15T23:07:40Z</time>
      </trkpt>
      <trkpt lat="44.74523" lon="5.57755">
        <ele>1166</ele>
        <time>2017-12-15T23:08:00Z</time>
      </trkpt>
      <trkpt lat="44.74513" lon="5.57761">
        <ele>1165</ele>
        <time>2017-12-15T23:08:20Z</time>
      </trkpt>
      <trkpt lat="44.7449" lon="5.57779">
        <ele>1151</ele>
        <time>2017-12-15T23:08:26Z</time>
      </trkpt>
      <trkpt lat="44.74481" lon="5.57784">
        <ele>1149</ele>
        <time>2017-12-15T23:08:34Z</time>
      </trkpt>
      <trkpt lat="44.74471" lon="5.57784">
        <ele>1147</ele>
        <time>2017-12-15T23:08:50Z</time>
      </trkpt>
      <trkpt lat="44.74462" lon="5.5778">
        <ele>1146</ele>
        <time>2017-12-15T23:08:55Z</time>
      </trkpt>
      <trkpt lat="44.74452" lon="5.57769">
        <ele>1146</ele>
        <time>2017-12-15T23:08:58Z</time>
      </trkpt>
      <trkpt lat="44.74426" lon="5.57728">
        <ele>1149</ele>
        <time>2017-12-15T23:09:16Z</time>
      </trkpt>
      <trkpt lat="44.7442" lon="5.57714">
        <ele>1149</ele>
        <time>2017-12-15T23:09:27Z</time>
      </trkpt>
      <trkpt lat="44.74418" lon="5.57703">
        <ele>1149</ele>
        <time>2017-12-15T23:09:29Z</time>
      </trkpt>
      <trkpt lat="44.74418" lon="5.57691">
        <ele>1149</ele>
        <time>2017-12-15T23:09:41Z</time>
      </trkpt>
      <trkpt lat="44.74421" lon="5.57675">
        <ele>1147</ele>
        <time>2017-12-15T23:09:51Z</time>
      </trkpt>
      <trkpt lat="44.74441" lon="5.57623">
        <ele>1142</ele>
        <time>2017-12-15T23:10:11Z</time>
      </trkpt>
      <trkpt lat="44.74454" lon="5.576">
        <ele>1142</ele>
        <time>2017-12-15T23:10:25Z</time>
      </trkpt>
      <trkpt lat="44.74473" lon="5.57574">
        <ele>1133</ele>
        <time>2017-12-15T23:10:32Z</time>
      </trkpt>
      <trkpt lat="44.74517" lon="5.57524">
        <ele>1138</ele>
        <time>2017-12-15T23:10:44Z</time>
      </trkpt>
      <trkpt lat="44.74537" lon="5.57507">
        <ele>1138</ele>
        <time>2017-12-15T23:11:04Z</time>
      </trkpt>
      <trkpt lat="44.7455" lon="5.57502">
        <ele>1138</ele>
        <time>2017-12-15T23:11:07Z</time>
      </trkpt>
      <trkpt lat="44.74571" lon="5.57503">
        <ele>1138</ele>
        <time>2017-12-15T23:11:23Z</time>
      </trkpt>
      <trkpt lat="44.74587" lon="5.57506">
        <ele>1140</ele>
        <time>2017-12-15T23:11:42Z</time>
      </trkpt>
      <trkpt lat="44.74617" lon="5.57508">
        <ele>1147</ele>
        <time>2017-12-15T23:12:01Z</time>
      </trkpt>
      <trkpt lat="44.74657" lon="5.575">
        <ele>1147</ele>
        <time>2017-12-15T23:12:19Z</time>
      </trkpt>
      <trkpt lat="44.7467" lon="5.57492">
        <ele>1149</ele>
        <time>2017-12-15T23:12:37Z</time>
      </trkpt>
      <trkpt lat="44.74677" lon="5.57482">
        <ele>1153</ele>
        <time>2017-12-15T23:12:43Z</time>
      </trkpt>
      <trkpt lat="44.74681" lon="5.57463">
        <ele>1156</ele>
        <time>2017-12-15T23:12:47Z</time>
      </trkpt>
      <trkpt lat="44.74675" lon="5.57438">
        <ele>1151</ele>
        <time>2017-12-15T23:12:58Z</time>
      </trkpt>
      <trkpt lat="44.74663" lon="5.57411">
        <ele>1134</ele>
        <time>2017-12-15T23:13:08Z</time>
      </trkpt>
      <trkpt lat="44.74607" lon="5.5729">
        <ele>1136</ele>
        <time>2017-12-15T23:13:25Z</time>
      </trkpt>
      <trkpt lat="44.74562" lon="5.57202">
        <ele>1119</ele>
        <time>2017-12-15T23:13:44Z</time>
      </trkpt>
      <trkpt lat="44.74485" lon="5.57061">
        <ele>1123</ele>
        <time>2017-12-15T23:13:58Z</time>
      </trkpt>
      <trkpt lat="44.74394" lon="5.56941">
        <ele>1101</ele>
        <time>2017-12-15T23:14:01Z</time>
      </trkpt>
      <trkpt lat="44.74379" lon="5.56912">
        <ele>1097</ele>
        <time>2017-12-15T23:14:10Z</time>
      </trkpt>
      <trkpt lat="44.74373" lon="5.56894">
        <ele>1093</ele>
        <time>2017-12-15T23:14:28Z</time>
      </trkpt>
      <trkpt lat="44.74372" lon="5.56869">
        <ele>1092</ele>
        <time>2017-12-15T23:14:30Z</time>
      </trkpt>
      <trkpt lat="44.74377" lon="5.56833">
        <ele>1083</ele>
        <time>2017-12-15T23:14:38Z</time>
      </trkpt>
      <trkpt lat="44.7439" lon="5.56814">
        <ele>1086</ele>
        <time>2017-12-15T23:14:47Z</time>
      </trkpt>
      <trkpt lat="44.74401" lon="5.56805">
        <ele>1088</ele>
        <time>2017-12-15T23:15:04Z</time>
      </trkpt>
      <trkpt lat="44.74434" lon="5.56788">
        <ele>1107</ele>
        <time>2017-12-15T23:15:15Z</time>
      </trkpt>
      <trkpt lat="44.74459" lon="5.56781">
        <ele>1109</ele>
        <time>2017-12-15T23:15:23Z</time>
      </trkpt>
      <trkpt lat="44.74471" lon="5.56779">
        <ele>1110</ele>
        <time>2017-12-15T23:15:36Z</time>
      </trkpt>
      <trkpt lat="44.74479" lon="5.56775">
        <ele>1110</ele>
        <time>2017-12-15T23:15:42Z</time>
      </trkpt>
      <trkpt lat="44.74484" lon="5.56767">
        <ele>1110</ele>
        <time>2017-12-15T23:15:50Z</time>
      </trkpt>
      <trkpt lat="44.74486" lon="5.56755">
        <ele>1110</ele>
        <time>2017-12-15T23:16:08Z</time>
      </trkpt>
      <trkpt lat="44.7448" lon="5.5673">
        <ele>1100</ele>
        <time>2017-12-15T23:16:13Z</time>
      </trkpt>
      <trkpt lat="44.74469" lon="5.56705">
        <ele>1097</ele>
        <time>2017-12-15T23:16:31Z</time>
      </trkpt>
      <trkpt lat="44.74459" lon="5.56655">
        <ele>1094</ele>
        <time>2017-12-15T23:16:36Z</time>
      </trkpt>
      <trkpt lat="44.74451" lon="5.566">
        <ele>1093</ele>
        <time>2017-12-15T23:16:51Z</time>
      </trkpt>
      <trkpt lat="44.74447" lon="5.56559">
        <ele>1092</ele>
        <time>2017-12-15T23:16:56Z</time>
      </trkpt>
      <trkpt lat="44.74449" lon="5.56532">
        <ele>1092</ele>
        <time>2017-12-15T23:17:03Z</time>
      </trkpt>
      <trkpt lat="44.74458" lon="5.56493">
        <ele>1087</ele>
        <time>2017-12-15T23:17:08Z</time>
      </trkpt>
      <trkpt lat="44.74478" lon="5.56424">
        <ele>1090</ele>
        <time>2017-12-15T23:17:19Z</time>
      </trkpt>
      <trkpt lat="44.74486" lon="5.56387">
        <ele>1080</ele>
        <time>2017-12-15T23:17:35Z</time>
      </trkpt>
      <trkpt lat="44.74496" lon="5.56333">
        <ele>1083</ele>
        <time>2017-12-15T23:17:39Z</time>
      </trkpt>
      <trkpt lat="44.74512" lon="5.56269">
        <ele>1093</ele>
        <time>2017-12-15T23:17:47Z</time>
      </trkpt>
      <trkpt lat="44.74514" lon="5.56237">
        <ele>1087</ele>
        <time>2017-12-15T23:17:55Z</time>
      </trkpt>
      <trkpt lat="44.74513" lon="5.5621">
        <ele>1092</ele>
        <time>2017-12-15T23:18:15Z</time>
      </trkpt>
      <trkpt lat="44.74505" lon="5.56184">
        <ele>1087</ele>
        <time>2017-12-15T23:18:25Z</time>
      </trkpt>
      <trkpt lat="44.7449" lon="5.56145">
        <ele>1070</ele>
        <time>2017-12-15T23:18:38Z</time>
      </trkpt>
      <trkpt lat="44.74474" lon="5.56099">
        <ele>1071</ele>
        <time>2017-12-15T23:18:44Z</time>
      </trkpt>
      <trkpt lat="44.74456" lon="5.56063">
        <ele>1071</ele>
        <time>2017-12-15T23:18:51Z</time>
      </trkpt>
      <trkpt lat="44.74439" lon="5.56031">
        <ele>1069</ele>
        <time>2017-12-15T23:19:03Z</time>
      </trkpt>
      <trkpt lat="44.74431" lon="5.56007">
        <ele>1066</ele>
        <time>2017-12-15T23:19:08Z</time>
      </trkpt>
      <trkpt lat="44.74428" lon="5.55983">
        <ele>1069</ele>
        <time>2017-12-15T23:19:14Z</time>
      </trkpt>
      <trkpt lat="44.74426" lon="5.55947">
        <ele>1072</ele>
        <time>2017-12-15T23:19:23Z</time>
      </trkpt>
      <trkpt lat="44.74419" lon="5.55923">
        <ele>1068</ele>
        <time>2017-12-15T23:19:33Z</time>
      </trkpt>
      <trkpt lat="44.74414" lon="5.55917">
        <ele>1065</ele>
        <time>2017-12-15T23:19:36Z</time>
      </trkpt>
      <trkpt lat="44.74405" lon="5.55911">
        <ele>1064</ele>
        <time>2017-12-15T23:19:45Z</time>
      </trkpt>
      <trkpt lat="44.74381" lon="5.55902">
        <ele>1060</ele>
        <time>2017-12-15T23:19:47Z</time>
      </trkpt>
      <trkpt lat="44.74372" lon="5.55898">
        <ele>1059</ele>
        <time>2017-12-15T23:20:02Z</time>
      </trkpt>
      <trkpt lat="44.74361" lon="5.55889">
        <ele>1058</ele>
        <time>2017-12-15T23:20:07Z</time>
      </trkpt>
      <trkpt lat="44.7434" lon="5.55859">
        <ele>1058</ele>
        <time>2017-12-15T23:20:18Z</time>
      </trkpt>
      <trkpt lat="44.74326" lon="5.5583">
        <ele>1051</ele>
        <time>2017-12-15T23:20:24Z</time>
      </trkpt>
      <trkpt lat="44.74301" lon="5.5574">
        <ele>1052</ele>
        <time>2017-12-15T23:20:38Z</time>
      </trkpt>
      <trkpt lat="44.74286" lon="5.55697">
        <ele>1050</ele>
        <time>2017-12-15T23:20:42Z</time>
      </trkpt>
      <trkpt lat="44.74272" lon="5.55666">
        <ele>1052</ele>
        <time>2017-12-15T23:20:44Z</time>
      </trkpt>
      <trkpt lat="44.7426" lon="5.55622">
        <ele>1054</ele>
        <time>2017-12-15T23:21:04Z</time>
      </trkpt>
      <trkpt lat="44.74252" lon="5.55574">
        <ele>1050</ele>
        <time>2017-12-15T23:21:18Z</time>
      </trkpt>
      <trkpt lat="44.74246" lon="5.55528">
        <ele>1033</ele>
        <time>2017-12-15T23:21:36Z</time>
      </trkpt>
      <trkpt lat="44.74243" lon="5.55489">
        <ele>1037</ele>
        <time>2017-12-15T23:21:45Z</time>
      </trkpt>
      <trkpt lat="44.74247" lon="5.55443">
        <ele>1033</ele>
        <time>2017-12-15T23:21:56Z</time>
      </trkpt>
      <trkpt lat="44.74254" lon="5.55392">
        <ele>1044</ele>
        <time>2017-12-15T23:22:06Z</time>
      </trkpt>
      <trkpt lat="44.74269" lon="5.55327">
        <ele>1036</ele>
        <time>2017-12-15T23:22:19Z</time>
      </trkpt>
      <trkpt lat="44.7428" lon="5.55293">
        <ele>1038</ele>
        <time>2017-12-15T23:22:27Z</time>
      </trkpt>
      <trkpt lat="44.74289" lon="5.55255">
        <ele>1038</ele>
        <time>2017-12-15T23:22:29Z</time>
      </trkpt>
      <trkpt lat="44.74293" lon="5.55216">
        <ele>1035</ele>
        <time>2017-12-15T23:22:46Z</time>
      </trkpt>
      <trkpt lat="44.74294" lon="5.55186">
        <ele>1035</ele>
        <time>2017-12-15T23:22:48Z</time>
      </trkpt>
      <trkpt lat="44.74292" lon="5.55163">
        <ele>1033</ele>
        <time>2017-12-15T23:22:57Z</time>
      </trkpt>
      <trkpt lat="44.74274" lon="5.55103">
        <ele>1028</ele>
        <time>2017-12-15T23:23:03Z</time>
      </trkpt>
      <trkpt lat="44.74274" lon="5.55082">
        <ele>1022</ele>
        <time>2017-12-15T23:23:14Z</time>
      </trkpt>
      <trkpt lat="44.74285" lon="5.5504">
        <ele>1022</ele>
        <time>2017-12-15T23:23:26Z</time>
      </trkpt>
      <trkpt lat="44.74297" lon="5.55004">
        <ele>1022</ele>
        <time>2017-12-15T23:23:30Z</time>
      </trkpt>
      <trkpt lat="44.74308" lon="5.54992">
        <ele>1011</ele>
        <time>2017-12-15T23:23:40Z</time>
      </trkpt>
      <trkpt lat="44.7433" lon="5.54976">
        <ele>1013</ele>
        <time>2017-12-15T23:23:50Z</time>
      </trkpt>
      <trkpt lat="44.74349" lon="5.54949">
        <ele>1028</ele>
        <time>2017-12-15T23:23:53Z</time>
      </trkpt>
      <trkpt lat="44.7437" lon="5.54918">
        <ele>1029</ele>
        <time>2017-12-15T23:24:08Z</time>
      </trkpt>
      <trkpt lat="44.74382" lon="5.54891">
        <ele>1010</ele>
        <time>2017-12-15T23:24:20Z</time>
      </trkpt>
      <trkpt lat="44.74393" lon="5.5487">
        <ele>1007</ele>
        <time>2017-12-15T23:24:30Z</time>
      </trkpt>
      <trkpt lat="44.74415" lon="5.54848">
        <ele>1006</ele>
        <time>2017-12-15T23:24:41Z</time>
      </trkpt>
      <trkpt lat="44.74444" lon="5.54816">
        <ele>1005</ele>
        <time>2017-12-15T23:24:55Z</time>
      </trkpt>
      <trkpt lat="44.7447" lon="5.54785">
        <ele>1004</ele>
        <time>2017-12-15T23:25:00Z</time>
      </trkpt>
      <trkpt lat="44.74489" lon="5.54769">
        <ele>1003</ele>
        <time>2017-12-15T23:25:06Z</time>
      </trkpt>
      <trkpt lat="44.74506" lon="5.54753">
        <ele>1010</ele>
        <time>2017-12-15T23:25:10Z</time>
      </trkpt>
      <trkpt lat="44.7452" lon="5.5473">
        <ele>1004</ele>
        <time>2017-12-15T23:25:19Z</time>
      </trkpt>
      <trkpt lat="44.74538" lon="5.54703">
        <ele>1004</ele>
        <time>2017-12-15T23:25:21Z</time>
      </trkpt>
      <trkpt lat="44.74565" lon="5.54662">
        <ele>993</ele>
        <time>2017-12-15T23:25:27Z</time>
      </trkpt>
      <trkpt lat="44.74586" lon="5.54625">
        <ele>1008</ele>
        <time>2017-12-15T23:25:30Z</time>
      </trkpt>
      <trkpt lat="44.74599" lon="5.54602">
        <ele>1001</ele>
        <time>2017-12-15T23:25:32Z</time>
      </trkpt>
      <trkpt lat="44.74614" lon="5.54585">
        <ele>1004</ele>
        <time>2017-12-15T23:25:39Z</time>
      </trkpt>
      <trkpt lat="44.74633" lon="5.54568">
        <ele>992</ele>
        <time>2017-12-15T23:25:59Z</time>
      </trkpt>
      <trkpt lat="44.74655" lon="5.5454">
        <ele>991</ele>
        <time>2017-12-15T23:26:04Z</time>
      </trkpt>
      <trkpt lat="44.74669" lon="5.5451">
        <ele>999</ele>
        <time>2017-12-15T23:26:06Z</time>
      </trkpt>
      <trkpt lat="44.74675" lon="5.54492">
        <ele>994</ele>
        <time>2017-12-15T23:26:17Z</time>
      </trkpt>
      <trkpt lat="44.74675" lon="5.54473">
        <ele>999</ele>
        <time>2017-12-15T23:26:33Z</time>
      </trkpt>
      <trkpt lat="44.74671" lon="5.54457">
        <ele>1000</ele>
        <time>2017-12-15T23:26:52Z</time>
      </trkpt>
      <trkpt lat="44.74652" lon="5.54429">
        <ele>986</ele>
        <time>2017-12-15T23:27:04Z</time>
      </trkpt>
      <trkpt lat="44.7464" lon="5.54416">
        <ele>993</ele>
        <time>2017-12-15T23:27:11Z</time>
      </trkpt>
      <trkpt lat="44.74633" lon="5.54412">
        <ele>992</ele>
        <time>2017-12-15T23:27:28Z</time>
      </trkpt>
      <trkpt lat="44.74612" lon="5.54406">
        <ele>990</ele>
        <time>2017-12-15T23:27:42Z</time>
      </trkpt>
      <trkpt lat="44.74596" lon="5.54396">
        <ele>989</ele>
        <time>2017-12-15T23:27:46Z</time>
      </trkpt>
      <trkpt lat="44.74585" lon="5.54387">
        <ele>990</ele>
        <time>2017-12-15T23:27:50Z</time>
      </trkpt>
      <trkpt lat="44.74573" lon="5.54381">
        <ele>987</ele>
        <time>2017-12-15T23:28:00Z</time>
      </trkpt>
      <trkpt lat="44.74562" lon="5.54377">
        <ele>988</ele>
        <time>2017-12-15T23:28:14Z</time>
      </trkpt>
      <trkpt lat="44.74549" lon="5.54377">
        <ele>988</ele>
        <time>2017-12-15T23:28:26Z</time>
      </trkpt>
      <trkpt lat="44.74518" lon="5.54385">
        <ele>985</ele>
        <time>2017-12-15T23:28:40Z</time>
      </trkpt>
      <trkpt lat="44.74496" lon="5.5439">
        <ele>982</ele>
        <time>2017-12-15T23:28:45Z</time>
      </trkpt>
      <trkpt lat="44.74484" lon="5.54402">
        <ele>980</ele>
        <time>2017-12-15T23:29:00Z</time>
      </trkpt>
      <trkpt lat="44.74467" lon="5.54422">
        <ele>964</ele>
        <time>2017-12-15T23:29:18Z</time>
      </trkpt>
      <trkpt lat="44.74448" lon="5.54434">
        <ele>963</ele>
        <time>2017-12-15T23:29:27Z</time>
      </trkpt>
      <trkpt lat="44.74425" lon="5.54436">
        <ele>965</ele>
        <time>2017-12-15T23:29:39Z</time>
      </trkpt>
      <trkpt lat="44.74413" lon="5.54433">
        <ele>964</ele>
        <time>2017-12-15T23:29:58Z</time>
      </trkpt>
      <trkpt lat="44.74403" lon="5.54427">
        <ele>964</ele>
        <time>2017-12-15T23:30:08Z</time>
      </trkpt>
      <trkpt lat="44.7438" lon="5.54413">
        <ele>982</ele>
        <time>2017-12-15T23:30:13Z</time>
      </trkpt>
      <trkpt lat="44.74355" lon="5.54414">
        <ele>979</ele>
        <time>2017-12-15T23:30:17Z</time>
      </trkpt>
      <trkpt lat="44.74302" lon="5.54429">
        <ele>958</ele>
        <time>2017-12-15T23:30:22Z</time>
      </trkpt>
      <trkpt lat="44.7428" lon="5.54432">
        <ele>957</ele>
        <time>2017-12-15T23:30:32Z</time>
      </trkpt>
      <trkpt lat="44.74259" lon="5.54428">
        <ele>961</ele>
        <time>2017-12-15T23:30:45Z</time>
      </trkpt>
      <trkpt lat="44.74234" lon="5.54428">
        <ele>959</ele>
        <time>2017-12-15T23:31:00Z</time>
      </trkpt>
      <trkpt lat="44.74216" lon="5.54437">
        <ele>955</ele>
        <time>2017-12-15T23:31:15Z</time>
      </trkpt>
      <trkpt lat="44.74196" lon="5.54453">
        <ele>952</ele>
        <time>2017-12-15T23:31:29Z</time>
      </trkpt>
      <trkpt lat="44.74184" lon="5.54457">
        <ele>951</ele>
        <time>2017-12-15T23:31:39Z</time>
      </trkpt>
      <trkpt lat="44.74167" lon="5.5445">
        <ele>953</ele>
        <time>2017-12-15T23:31:42Z</time>
      </trkpt>
      <trkpt lat="44.74144" lon="5.54437">
        <ele>956</ele>
        <time>2017-12-15T23:31:54Z</time>
      </trkpt>
      <trkpt lat="44.74121" lon="5.54435">
        <ele>956</ele>
        <time>2017-12-15T23:32:02Z</time>
      </trkpt>
      <trkpt lat="44.74104" lon="5.54441">
        <ele>957</ele>
        <time>2017-12-15T23:32:15Z</time>
      </trkpt>
      <trkpt lat="44.74092" lon="5.54447">
        <ele>956</ele>
        <time>2017-12-15T23:32:20Z</time>
      </trkpt>
      <trkpt lat="44.74065" lon="5.54468">
        <ele>955</ele>
        <time>2017-12-15T23:32:31Z</time>
      </trkpt>
      <trkpt lat="44.74038" lon="5.54484">
        <ele>954</ele>
        <time>2017-12-15T23:32:50Z</time>
      </trkpt>
      <trkpt lat="44.7401" lon="5.54495">
        <ele>951</ele>
        <time>2017-12-15T23:33:09Z</time>
      </trkpt>
      <trkpt lat="44.73976" lon="5.54504">
        <ele>945</ele>
        <time>2017-12-15T23:33:23Z</time>
      </trkpt>
      <trkpt lat="44.73964" lon="5.54506">
        <ele>946</ele>
        <time>2017-12-15T23:33:33Z</time>
      </trkpt>
      <trkpt lat="44.73961" lon="5.54512">
        <ele>946</ele>
        <time>2017-12-15T23:33:49Z</time>
      </trkpt>
      <trkpt lat="44.73962" lon="5.5452">
        <ele>945</ele>
        <time>2017-12-15T23:34:09Z</time>
      </trkpt>
      <trkpt lat="44.73963" lon="5.54524">
        <ele>944</ele>
        <time>2017-12-15T23:34:28Z</time>
      </trkpt>
      <trkpt lat="44.73965" lon="5.54525">
        <ele>943</ele>
        <time>2017-12-15T23:34:30Z</time>
      </trkpt>
      <trkpt lat="44.73985" lon="5.54517">
        <ele>943</ele>
        <time>2017-12-15T23:34:44Z</time>
      </trkpt>
      <trkpt lat="44.74057" lon="5.54493">
        <ele>949</ele>
        <time>2017-12-15T23:34:49Z</time>
      </trkpt>
      <trkpt lat="44.74082" lon="5.54482">
        <ele>946</ele>
        <time>2017-12-15T23:35:02Z</time>
      </trkpt>
      <trkpt lat="44.741" lon="5.54477">
        <ele>946</ele>
        <time>2017-12-15T23:35:17Z</time>
      </trkpt>
      <trkpt lat="44.74117" lon="5.54475">
        <ele>947</ele>
        <time>2017-12-15T23:35:35Z</time>
      </trkpt>
      <trkpt lat="44.7413" lon="5.54477">
        <ele>947</ele>
        <time>2017-12-15T23:35:51Z</time>
      </trkpt>
      <trkpt lat="44.74144" lon="5.54484">
        <ele>944</ele>
        <time>2017-12-15T23:35:54Z</time>
      </trkpt>
      <trkpt lat="44.74173" lon="5.54507">
        <ele>927</ele>
        <time>2017-12-15T23:35:57Z</time>
      </trkpt>
      <trkpt lat="44.74186" lon="5.54514">
        <ele>924</ele>
        <time>2017-12-15T23:36:11Z</time>
      </trkpt>
      <trkpt lat="44.74203" lon="5.54519">
        <ele>923</ele>
        <time>2017-12-15T23:36:30Z</time>
      </trkpt>
      <trkpt lat="44.74222" lon="5.54521">
        <ele>924</ele>
        <time>2017-12-15T23:36:43Z</time>
      </trkpt>
      <trkpt lat="44.74241" lon="5.54518">
        <ele>927</ele>
        <time>2017-12-15T23:37:03Z</time>
      </trkpt>
      <trkpt lat="44.74276" lon="5.54507">
        <ele>930</ele>
        <time>2017-12-15T23:37:07Z</time>
      </trkpt>
      <trkpt lat="44.74302" lon="5.54505">
        <ele>931</ele>
        <time>2017-12-15T23:37:20Z</time>
      </trkpt>
      <trkpt lat="44.74312" lon="5.54511">
        <ele>931</ele>
        <time>2017-12-15T23:37:36Z</time>
      </trkpt>
      <trkpt lat="44.74316" lon="5.54517">
        <ele>931</ele>
        <time>2017-12-15T23:37:43Z</time>
      </trkpt>
      <trkpt lat="44.74321" lon="5.54532">
        <ele>929</ele>
        <time>2017-12-15T23:37:58Z</time>
      </trkpt>
      <trkpt lat="44.74328" lon="5.54588">
        <ele>919</ele>
        <time>2017-12-15T23:38:13Z</time>
      </trkpt>
      <trkpt lat="44.74331" lon="5.54624">
        <ele>916</ele>
        <time>2017-12-15T23:38:29Z</time>
      </trkpt>
      <trkpt lat="44.7433" lon="5.54654">
        <ele>918</ele>
        <time>2017-12-15T23:38:47Z</time>
      </trkpt>
      <trkpt lat="44.74325" lon="5.54675">
        <ele>920</ele>
        <time>2017-12-15T23:38:56Z</time>
      </trkpt>
      <trkpt lat="44.74317" lon="5.54705">
        <ele>920</ele>
        <time>2017-12-15T23:39:09Z</time>
      </trkpt>
      <trkpt lat="44.74308" lon="5.54723">
        <ele>920</ele>
        <time>2017-12-15T23:39:17Z</time>
      </trkpt>
      <trkpt lat="44.74288" lon="5.54737">
        <ele>917</ele>
        <time>2017-12-15T23:39:27Z</time>
      </trkpt>
      <trkpt lat="44.74271" lon="5.54747">
        <ele>913</ele>
        <time>2017-12-15T23:39:42Z</time>
      </trkpt>
      <trkpt lat="44.74221" lon="5.54809">
        <ele>905</ele>
        <time>2017-12-15T23:39:54Z</time>
      </trkpt>
      <trkpt lat="44.74193" lon="5.54834">
        <ele>913</ele>
        <time>2017-12-15T23:40:00Z</time>
      </trkpt>
      <trkpt lat="44.74175" lon="5.54859">
        <ele>913</ele>
        <time>2017-12-15T23:40:16Z</time>
      </trkpt>
      <trkpt lat="44.74152" lon="5.54892">
        <ele>897</ele>
        <time>2017-12-15T23:40:19Z</time>
      </trkpt>
      <trkpt lat="44.74138" lon="5.54919">
        <ele>909</ele>
        <time>2017-12-15T23:40:27Z</time>
      </trkpt>
      <trkpt lat="44.7412" lon="5.54951">
        <ele>906</ele>
        <time>2017-12-15T23:40:32Z</time>
      </trkpt>
      <trkpt lat="44.74099" lon="5.54978">
        <ele>903</ele>
        <time>2017-12-15T23:40:52Z</time>
      </trkpt>
      <trkpt lat="44.74081" lon="5.55013">
        <ele>896</ele>
        <time>2017-12-15T23:41:01Z</time>
      </trkpt>
      <trkpt lat="44.74066" lon="5.55033">
        <ele>897</ele>
        <time>2017-12-15T23:41:20Z</time>
      </trkpt>
      <trkpt lat="44.7405" lon="5.55048">
        <ele>897</ele>
        <time>2017-12-15T23:41:35Z</time>
      </trkpt>
      <trkpt lat="44.7403" lon="5.55066">
        <ele>895</ele>
        <time>2017-12-15T23:41:43Z</time>
      </trkpt>
      <trkpt lat="44.74002" lon="5.55079">
        <ele>891</ele>
        <time>2017-12-15T23:42:02Z</time>
      </trkpt>
      <trkpt lat="44.7398" lon="5.55094">
        <ele>892</ele>
        <time>2017-12-15T23:42:09Z</time>
      </trkpt>
      <trkpt lat="44.73971" lon="5.55101">
        <ele>892</ele>
        <time>2017-12-15T23:42:13Z</time>
      </trkpt>
      <trkpt lat="44.73938" lon="5.5514">
        <ele>894</ele>
        <time>2017-12-15T23:42:17Z</time>
      </trkpt>
      <trkpt lat="44.73921" lon="5.55155">
        <ele>894</ele>
        <time>2017-12-15T23:42:32Z</time>
      </trkpt>
      <trkpt lat="44.73908" lon="5.55164">
        <ele>885</ele>
        <time>2017-12-15T23:42:34Z</time>
      </trkpt>
      <trkpt lat="44.7387" lon="5.55187">
        <ele>894</ele>
        <time>2017-12-15T23:42:53Z</time>
      </trkpt>
      <trkpt lat="44.73834" lon="5.55199">
        <ele>891</ele>
        <time>2017-12-15T23:43:11Z</time>
      </trkpt>
      <trkpt lat="44.73811" lon="5.55202">
        <ele>875</ele>
        <time>2017-12-15T23:43:14Z</time>
      </trkpt>
      <trkpt lat="44.73798" lon="5.55206">
        <ele>874</ele>
        <time>2017-12-15T23:43:26Z</time>
      </trkpt>
      <trkpt lat="44.7378" lon="5.55221">
        <ele>874</ele>
        <time>2017-12-15T23:43:41Z</time>
      </trkpt>
      <trkpt lat="44.73764" lon="5.55242">
        <ele>873</ele>
        <time>2017-12-15T23:43:43Z</time>
      </trkpt>
      <trkpt lat="44.7376" lon="5.55259">
        <ele>878</ele>
        <time>2017-12-15T23:44:03Z</time>
      </trkpt>
      <trkpt lat="44.73772" lon="5.55354">
        <ele>881</ele>
        <time>2017-12-15T23:44:15Z</time>
      </trkpt>
      <trkpt lat="44.73777" lon="5.55393">
        <ele>880</ele>
        <time>2017-12-15T23:44:19Z</time>
      </trkpt>
      <trkpt lat="44.73782" lon="5.55409">
        <ele>880</ele>
        <time>2017-12-15T23:44:23Z</time>
      </trkpt>
      <trkpt lat="44.73794" lon="5.55431">
        <ele>875</ele>
        <time>2017-12-15T23:44:29Z</time>
      </trkpt>
      <trkpt lat="44.73809" lon="5.55458">
        <ele>874</ele>
        <time>2017-12-15T23:44:32Z</time>
      </trkpt>
      <trkpt lat="44.73814" lon="5.5547">
        <ele>873</ele>
        <time>2017-12-15T23:44:50Z</time>
      </trkpt>
      <trkpt lat="44.73813" lon="5.55481">
        <ele>873</ele>
        <time>2017-12-15T23:45:10Z</time>
      </trkpt>
      <trkpt lat="44.73802" lon="5.55495">
        <ele>872</ele>
        <time>2017-12-15T23:45:24Z</time>
      </trkpt>
      <trkpt lat="44.73785" lon="5.55513">
        <ele>868</ele>
        <time>2017-12-15T23:45:41Z</time>
      </trkpt>
      <trkpt lat="44.73779" lon="5.55517">
        <ele>867</ele>
        <time>2017-12-15T23:45:59Z</time>
      </trkpt>
      <trkpt lat="44.7377" lon="5.5552">
        <ele>867</ele>
        <time>2017-12-15T23:46:08Z</time>
      </trkpt>
      <trkpt lat="44.7376" lon="5.55521">
        <ele>867</ele>
        <time>2017-12-15T23:46:24Z</time>
      </trkpt>
      <trkpt lat="44.73755" lon="5.5552">
        <ele>867</ele>
        <time>2017-12-15T23:46:34Z</time>
      </trkpt>
      <trkpt lat="44.73747" lon="5.55515">
        <ele>868</ele>
        <time>2017-12-15T23:46:47Z</time>
      </trkpt>
      <trkpt lat="44.73726" lon="5.55492">
        <ele>866</ele>
        <time>2017-12-15T23:46:55Z</time>
      </trkpt>
      <trkpt lat="44.737" lon="5.55448">
        <ele>865</ele>
        <time>2017-12-15T23:47:14Z</time>
      </trkpt>
      <trkpt lat="44.73686" lon="5.55423">
        <ele>863</ele>
        <time>2017-12-15T23:47:24Z</time>
      </trkpt>
      <trkpt lat="44.7366" lon="5.55371">
        <ele>856</ele>
        <time>2017-12-15T23:47:42Z</time>
      </trkpt>
      <trkpt lat="44.73644" lon="5.55322">
        <ele>851</ele>
        <time>2017-12-15T23:47:50Z</time>
      </trkpt>
      <trkpt lat="44.73638" lon="5.55298">
        <ele>850</ele>
        <time>2017-12-15T23:47:58Z</time>
      </trkpt>
      <trkpt lat="44.73636" lon="5.55221">
        <ele>843</ele>
        <time>2017-12-15T23:48:01Z</time>
      </trkpt>
      <trkpt lat="44.73638" lon="5.55205">
        <ele>842</ele>
        <time>2017-12-15T23:48:04Z</time>
      </trkpt>
      <trkpt lat="44.7364" lon="5.552">
        <ele>842</ele>
        <time>2017-12-15T23:48:12Z</time>
      </trkpt>
      <trkpt lat="44.73647" lon="5.55193">
        <ele>842</ele>
        <time>2017-12-15T23:48:16Z</time>
      </trkpt>
      <trkpt lat="44.73657" lon="5.55188">
        <ele>841</ele>
        <time>2017-12-15T23:48:32Z</time>
      </trkpt>
      <trkpt lat="44.73696" lon="5.55188">
        <ele>851</ele>
        <time>2017-12-15T23:48:37Z</time>
      </trkpt>
      <trkpt lat="44.73714" lon="5.55181">
        <ele>852</ele>
        <time>2017-12-15T23:48:41Z</time>
      </trkpt>
      <trkpt lat="44.73736" lon="5.55162">
        <ele>845</ele>
        <time>2017-12-15T23:48:45Z</time>
      </trkpt>
      <trkpt lat="44.73782" lon="5.55105">
        <ele>846</ele>
        <time>2017-12-15T23:48:47Z</time>
      </trkpt>
      <trkpt lat="44.73828" lon="5.55045">
        <ele>834</ele>
        <time>2017-12-15T23:49:04Z</time>
      </trkpt>
      <trkpt lat="44.73845" lon="5.55012">
        <ele>838</ele>
        <time>2017-12-15T23:49:10Z</time>
      </trkpt>
      <trkpt lat="44.73874" lon="5.54939">
        <ele>830</ele>
        <time>2017-12-15T23:49:23Z</time>
      </trkpt>
      <trkpt lat="44.73887" lon="5.54916">
        <ele>828</ele>
        <time>2017-12-15T23:49:32Z</time>
      </trkpt>
      <trkpt lat="44.73905" lon="5.54892">
        <ele>830</ele>
        <time>2017-12-15T23:49:47Z</time>
      </trkpt>
      <trkpt lat="44.7392" lon="5.54875">
        <ele>840</ele>
        <time>2017-12-15T23:49:51Z</time>
      </trkpt>
      <trkpt lat="44.73925" lon="5.54858">
        <ele>840</ele>
        <time>2017-12-15T23:50:04Z</time>
      </trkpt>
      <trkpt lat="44.73925" lon="5.54849">
        <ele>840</ele>
        <time>2017-12-15T23:50:21Z</time>
      </trkpt>
      <trkpt lat="44.7392" lon="5.54838">
        <ele>838</ele>
        <time>2017-12-15T23:50:39Z</time>
      </trkpt>
      <trkpt lat="44.73912" lon="5.54833">
        <ele>838</ele>
        <time>2017-12-15T23:50:44Z</time>
      </trkpt>
      <trkpt lat="44.73887" lon="5.54825">
        <ele>843</ele>
        <time>2017-12-15T23:50:47Z</time>
      </trkpt>
      <trkpt lat="44.73863" lon="5.54818">
        <ele>842</ele>
        <time>2017-12-15T23:50:53Z</time>
      </trkpt>
      <trkpt lat="44.73843" lon="5.54821">
        <ele>837</ele>
        <time>2017-12-15T23:51:02Z</time>
      </trkpt>
      <trkpt lat="44.73794" lon="5.54842">
        <ele>821</ele>
        <time>2017-12-15T23:51:16Z</time>
      </trkpt>
      <trkpt lat="44.73773" lon="5.5485">
        <ele>821</ele>
        <time>2017-12-15T23:51:24Z</time>
      </trkpt>
      <trkpt lat="44.73757" lon="5.54852">
        <ele>822</ele>
        <time>2017-12-15T23:51:44Z</time>
      </trkpt>
      <trkpt lat="44.73739" lon="5.54847">
        <ele>820</ele>
        <time>2017-12-15T23:51:46Z</time>
      </trkpt>
      <trkpt lat="44.73722" lon="5.54846">
        <ele>818</ele>
        <time>2017-12-15T23:51:51Z</time>
      </trkpt>
      <trkpt lat="44.73705" lon="5.54845">
        <ele>817</ele>
        <time>2017-12-15T23:52:06Z</time>
      </trkpt>
      <trkpt lat="44.73691" lon="5.54847">
        <ele>818</ele>
        <time>2017-12-15T23:52:18Z</time>
      </trkpt>
      <trkpt lat="44.73654" lon="5.54856">
        <ele>811</ele>
        <time>2017-12-15T23:52:23Z</time>
      </trkpt>
      <trkpt lat="44.73638" lon="5.54856">
        <ele>809</ele>
        <time>2017-12-15T23:52:39Z</time>
      </trkpt>
      <trkpt lat="44.7362" lon="5.54849">
        <ele>807</ele>
        <time>2017-12-15T23:52:56Z</time>
      </trkpt>
      <trkpt lat="44.73589" lon="5.54826">
        <ele>817</ele>
        <time>2017-12-15T23:53:14Z</time>
      </trkpt>
      <trkpt lat="44.73568" lon="5.54817">
        <ele>813</ele>
        <time>2017-12-15T23:53:16Z</time>
      </trkpt>
      <trkpt lat="44.73552" lon="5.54805">
        <ele>814</ele>
        <time>2017-12-15T23:53:27Z</time>
      </trkpt>
      <trkpt lat="44.73535" lon="5.54789">
        <ele>815</ele>
        <time>2017-12-15T23:53:43Z</time>
      </trkpt>
      <trkpt lat="44.73514" lon="5.54776">
        <ele>816</ele>
        <time>2017-12-15T23:53:45Z</time>
      </trkpt>
      <trkpt lat="44.73477" lon="5.54764">
        <ele>806</ele>
        <time>2017-12-15T23:53:57Z</time>
      </trkpt>
      <trkpt lat="44.7344" lon="5.54755">
        <ele>802</ele>
        <time>2017-12-15T23:54:17Z</time>
      </trkpt>
      <trkpt lat="44.73417" lon="5.54753">
        <ele>805</ele>
        <time>2017-12-15T23:54:26Z</time>
      </trkpt>
      <trkpt lat="44.73394" lon="5.54748">
        <ele>816</ele>
        <time>2017-12-15T23:54:40Z</time>
      </trkpt>
      <trkpt lat="44.73374" lon="5.54747">
        <ele>818</ele>
        <time>2017-12-15T23:55:00Z</time>
      </trkpt>
      <trkpt lat="44.73356" lon="5.54751">
        <ele>798</ele>
        <time>2017-12-15T23:55:09Z</time>
      </trkpt>
      <trkpt lat="44.73335" lon="5.54762">
        <ele>800</ele>
        <time>2017-12-15T23:55:23Z</time>
      </trkpt>
      <trkpt lat="44.73319" lon="5.54776">
        <ele>797</ele>
        <time>2017-12-15T23:55:35Z</time>
      </trkpt>
      <trkpt lat="44.73302" lon="5.54789">
        <ele>794</ele>
        <time>2017-12-15T23:55:49Z</time>
      </trkpt>
      <trkpt lat="44.73289" lon="5.54792">
        <ele>794</ele>
        <time>2017-12-15T23:55:55Z</time>
      </trkpt>
      <trkpt lat="44.7328" lon="5.54798">
        <ele>794</ele>
        <time>2017-12-15T23:56:10Z</time>
      </trkpt>
      <trkpt lat="44.73245" lon="5.54821">
        <ele>788</ele>
        <time>2017-12-15T23:56:22Z</time>
      </trkpt>
      <trkpt lat="44.73228" lon="5.54843">
        <ele>779</ele>
        <time>2017-12-15T23:56:36Z</time>
      </trkpt>
      <trkpt lat="44.73219" lon="5.54849">
        <ele>778</ele>
        <time>2017-12-15T23:56:43Z</time>
      </trkpt>
      <trkpt lat="44.73209" lon="5.54851">
        <ele>777</ele>
        <time>2017-12-15T23:57:03Z</time>
      </trkpt>
      <trkpt lat="44.73198" lon="5.5485">
        <ele>777</ele>
        <time>2017-12-15T23:57:13Z</time>
      </trkpt>
      <trkpt lat="44.73182" lon="5.5484">
        <ele>777</ele>
        <time>2017-12-15T23:57:30Z</time>
      </trkpt>
      <trkpt lat="44.73137" lon="5.54802">
        <ele>782</ele>
        <time>2017-12-15T23:57:39Z</time>
      </trkpt>
      <trkpt lat="44.73101" lon="5.54776">
        <ele>784</ele>
        <time>2017-12-15T23:57:57Z</time>
      </trkpt>
      <trkpt lat="44.7309" lon="5.54771">
        <ele>784</ele>
        <time>2017-12-15T23:58:05Z</time>
      </trkpt>
      <trkpt lat="44.73068" lon="5.54772">
        <ele>780</ele>
        <time>2017-12-15T23:58:10Z</time>
      </trkpt>
      <trkpt lat="44.73022" lon="5.54783">
        <ele>778</ele>
        <time>2017-12-15T23:58:16Z</time>
      </trkpt>
      <trkpt lat="44.72987" lon="5.5479">
        <ele>775</ele>
        <time>2017-12-15T23:58:34Z</time>
      </trkpt>
      <trkpt lat="44.72968" lon="5.548">
        <ele>772</ele>
        <time>2017-12-15T23:58:52Z</time>
      </trkpt>
      <trkpt lat="44.72953" lon="5.54807">
        <ele>771</ele>
        <time>2017-12-15T23:58:57Z</time>
      </trkpt>
      <trkpt lat="44.72939" lon="5.54808">
        <ele>769</ele>
        <time>2017-12-15T23:59:06Z</time>
      </trkpt>
      <trkpt lat="44.72897" lon="5.54798">
        <ele>766</ele>
        <time>2017-12-15T23:59:14Z</time>
      </trkpt>
      <trkpt lat="44.72871" lon="5.54791">
        <ele>766</ele>
        <time>2017-12-15T23:59:16Z</time>
      </trkpt>
      <trkpt lat="44.72838" lon="5.54787">
        <ele>765</ele>
        <time>2017-12-15T23:59:20Z</time>
      </trkpt>
      <trkpt lat="44.72811" lon="5.54783">
        <ele>755</ele>
        <time>2017-12-15T23:59:23Z</time>
      </trkpt>
      <trkpt lat="44.72792" lon="5.54775">
        <ele>754</ele>
        <time>2017-12-15T23:59:36Z</time>
      </trkpt>
      <trkpt lat="44.72771" lon="5.54758">
        <ele>755</ele>
        <time>2017-12-15T23:59:39Z</time>
      </trkpt>
      <trkpt lat="44.72747" lon="5.54741">
        <ele>762</ele>
        <time>2017-12-15T23:59:57Z</time>
      </trkpt>
      <trkpt lat="44.7269" lon="5.54714">
        <ele>765</ele>
        <time>2017-12-16T00:00:09Z</time>
      </trkpt>
      <trkpt lat="44.72674" lon="5.54708">
        <ele>765</ele>
        <time>2017-12-16T00:00:16Z</time>
      </trkpt>
      <trkpt lat="44.72659" lon="5.54706">
        <ele>755</ele>
        <time>2017-12-16T00:00:21Z</time>
      </trkpt>
      <trkpt lat="44.72639" lon="5.54711">
        <ele>752</ele>
        <time>2017-12-16T00:00:25Z</time>
      </trkpt>
      <trkpt lat="44.72618" lon="5.5471">
        <ele>751</ele>
        <time>2017-12-16T00:00:30Z</time>
      </trkpt>
      <trkpt lat="44.72577" lon="5.54697">
        <ele>741</ele>
        <time>2017-12-16T00:00:32Z</time>
      </trkpt>
      <trkpt lat="44.72559" lon="5.54686">
        <ele>741</ele>
        <time>2017-12-16T00:00:47Z</time>
      </trkpt>
      <trkpt lat="44.7255" lon="5.54678">
        <ele>740</ele>
        <time>2017-12-16T00:00:53Z</time>
      </trkpt>
      <trkpt lat="44.72544" lon="5.54669">
        <ele>739</ele>
        <time>2017-12-16T00:00:57Z</time>
      </trkpt>
      <trkpt lat="44.72517" lon="5.54643">
        <ele>753</ele>
        <time>2017-12-16T00:01:06Z</time>
      </trkpt>
      <trkpt lat="44.72484" lon="5.54611">
        <ele>734</ele>
        <time>2017-12-16T00:01:13Z</time>
      </trkpt>
      <trkpt lat="44.72473" lon="5.54595">
        <ele>734</ele>
        <time>2017-12-16T00:01:31Z</time>
      </trkpt>
      <trkpt lat="44.72467" lon="5.54581">
        <ele>740</ele>
        <time>2017-12-16T00:01:41Z</time>
      </trkpt>
      <trkpt lat="44.72463" lon="5.54564">
        <ele>738</ele>
        <time>2017-12-16T00:01:59Z</time>
      </trkpt>
      <trkpt lat="44.72461" lon="5.54543">
        <ele>739</ele>
        <time>2017-12-16T00:02:15Z</time>
      </trkpt>
      <trkpt lat="44.72456" lon="5.5448">
        <ele>745</ele>
        <time>2017-12-16T00:02:26Z</time>
      </trkpt>
      <trkpt lat="44.72452" lon="5.54412">
        <ele>752</ele>
        <time>2017-12-16T00:02:36Z</time>
      </trkpt>
      <trkpt lat="44.72448" lon="5.54391">
        <ele>753</ele>
        <time>2017-12-16T00:02:47Z</time>
      </trkpt>
      <trkpt lat="44.72438" lon="5.54369">
        <ele>752</ele>
        <time>2017-12-16T00:02:50Z</time>
      </trkpt>
      <trkpt lat="44.72423" lon="5.54317">
        <ele>754</ele>
        <time>2017-12-16T00:03:01Z</time>
      </trkpt>
      <trkpt lat="44.72416" lon="5.54298">
        <ele>731</ele>
        <time>2017-12-16T00:03:10Z</time>
      </trkpt>
      <trkpt lat="44.72404" lon="5.54285">
        <ele>731</ele>
        <time>2017-12-16T00:03:14Z</time>
      </trkpt>
      <trkpt lat="44.72386" lon="5.54261">
        <ele>731</ele>
        <time>2017-12-16T00:03:32Z</time>
      </trkpt>
      <trkpt lat="44.72377" lon="5.54243">
        <ele>738</ele>
        <time>2017-12-16T00:03:39Z</time>
      </trkpt>
      <trkpt lat="44.72371" lon="5.54221">
        <ele>738</ele>
        <time>2017-12-16T00:03:41Z</time>
      </trkpt>
      <trkpt lat="44.72367" lon="5.54199">
        <ele>738</ele>
        <time>2017-12-16T00:03:48Z</time>
      </trkpt>
      <trkpt lat="44.72359" lon="5.54182">
        <ele>737</ele>
        <time>2017-12-16T00:04:00Z</time>
      </trkpt>
      <trkpt lat="44.72344" lon="5.54164">
        <ele>736</ele>
        <time>2017-12-16T00:04:09Z</time>
      </trkpt>
      <trkpt lat="44.72312" lon="5.54098">
        <ele>723</ele>
        <time>2017-12-16T00:04:23Z</time>
      </trkpt>
      <trkpt lat="44.72309" lon="5.54094">
        <ele>723</ele>
        <time>2017-12-16T00:04:33Z</time>
      </trkpt>
      <trkpt lat="44.72304" lon="5.54092">
        <ele>721</ele>
        <time>2017-12-16T00:04:50Z</time>
      </trkpt>
      <trkpt lat="44.72299" lon="5.54094">
        <ele>719</ele>
        <time>2017-12-16T00:05:04Z</time>
      </trkpt>
      <trkpt lat="44.72298" lon="5.541">
        <ele>718</ele>
        <time>2017-12-16T00:05:23Z</time>
      </trkpt>
      <trkpt lat="44.72298" lon="5.54105">
        <ele>718</ele>
        <time>2017-12-16T00:05:37Z</time>
      </trkpt>
      <trkpt lat="44.72303" lon="5.54116">
        <ele>718</ele>
        <time>2017-12-16T00:05:57Z</time>
      </trkpt>
      <trkpt lat="44.72315" lon="5.54135">
        <ele>718</ele>
        <time>2017-12-16T00:06:01Z</time>
      </trkpt>
      <trkpt lat="44.72342" lon="5.542">
        <ele>733</ele>
        <time>2017-12-16T00:06:03Z</time>
      </trkpt>
      <trkpt lat="44.72365" lon="5.54274">
        <ele>721</ele>
        <time>2017-12-16T00:06:10Z</time>
      </trkpt>
      <trkpt lat="44.7238" lon="5.54319">
        <ele>722</ele>
        <time>2017-12-16T00:06:18Z</time>
      </trkpt>
      <trkpt lat="44.72389" lon="5.54364">
        <ele>715</ele>
        <time>2017-12-16T00:06:25Z</time>
      </trkpt>
      <trkpt lat="44.72394" lon="5.54401">
        <ele>716</ele>
        <time>2017-12-16T00:06:45Z</time>
      </trkpt>
      <trkpt lat="44.7241" lon="5.54453">
        <ele>714</ele>
        <time>2017-12-16T00:06:52Z</time>
      </trkpt>
      <trkpt lat="44.7241" lon="5.54463">
        <ele>713</ele>
        <time>2017-12-16T00:06:58Z</time>
      </trkpt>
      <trkpt lat="44.72404" lon="5.5447">
        <ele>713</ele>
        <time>2017-12-16T00:07:13Z</time>
      </trkpt>
      <trkpt lat="44.72398" lon="5.54462">
        <ele>712</ele>
        <time>2017-12-16T00:07:18Z</time>
      </trkpt>
      <trkpt lat="44.72392" lon="5.54445">
        <ele>712</ele>
        <time>2017-12-16T00:07:36Z</time>
      </trkpt>
      <trkpt lat="44.72342" lon="5.54298">
        <ele>714</ele>
        <time>2017-12-16T00:07:38Z</time>
      </trkpt>
      <trkpt lat="44.72335" lon="5.54284">
        <ele>715</ele>
        <time>2017-12-16T00:07:47Z</time>
      </trkpt>
      <trkpt lat="44.72316" lon="5.54259">
        <ele>700</ele>
        <time>2017-12-16T00:08:00Z</time>
      </trkpt>
      <trkpt lat="44.72303" lon="5.54236">
        <ele>701</ele>
        <time>2017-12-16T00:08:11Z</time>
      </trkpt>
      <trkpt lat="44.72293" lon="5.54208">
        <ele>701</ele>
        <time>2017-12-16T00:08:19Z</time>
      </trkpt>
      <trkpt lat="44.7227" lon="5.54166">
        <ele>703</ele>
        <time>2017-12-16T00:08:22Z</time>
      </trkpt>
      <trkpt lat="44.72241" lon="5.54124">
        <ele>692</ele>
        <time>2017-12-16T00:08:36Z</time>
      </trkpt>
      <trkpt lat="44.72219" lon="5.54105">
        <ele>692</ele>
        <time>2017-12-16T00:08:47Z</time>
      </trkpt>
      <trkpt lat="44.72209" lon="5.54094">
        <ele>691</ele>
        <time>2017-12-16T00:08:57Z</time>
      </trkpt>
      <trkpt lat="44.72198" lon="5.54071">
        <ele>697</ele>
        <time>2017-12-16T00:09:08Z</time>
      </trkpt>
      <trkpt lat="44.72189" lon="5.54055">
        <ele>698</ele>
        <time>2017-12-16T00:09:12Z</time>
      </trkpt>
      <trkpt lat="44.72162" lon="5.54019">
        <ele>691</ele>
        <time>2017-12-16T00:09:14Z</time>
      </trkpt>
      <trkpt lat="44.72144" lon="5.53973">
        <ele>691</ele>
        <time>2017-12-16T00:09:30Z</time>
      </trkpt>
      <trkpt lat="44.72138" lon="5.53951">
        <ele>691</ele>
        <time>2017-12-16T00:09:38Z</time>
      </trkpt>
      <trkpt lat="44.72131" lon="5.53877">
        <ele>692</ele>
        <time>2017-12-16T00:09:56Z</time>
      </trkpt>
      <trkpt lat="44.7213" lon="5.5385">
        <ele>692</ele>
        <time>2017-12-16T00:10:04Z</time>
      </trkpt>
      <trkpt lat="44.72131" lon="5.53826">
        <ele>692</ele>
        <time>2017-12-16T00:10:07Z</time>
      </trkpt>
      <trkpt lat="44.72139" lon="5.53782">
        <ele>693</ele>
        <time>2017-12-16T00:10:24Z</time>
      </trkpt>
      <trkpt lat="44.72139" lon="5.53764">
        <ele>694</ele>
        <time>2017-12-16T00:10:36Z</time>
      </trkpt>
      <trkpt lat="44.72134" lon="5.53741">
        <ele>698</ele>
        <time>2017-12-16T00:10:45Z</time>
      </trkpt>
      <trkpt lat="44.72121" lon="5.53706">
        <ele>696</ele>
        <time>2017-12-16T00:11:00Z</time>
      </trkpt>
      <trkpt lat="44.72097" lon="5.53667">
        <ele>687</ele>
        <time>2017-12-16T00:11:18Z</time>
      </trkpt>
      <trkpt lat="44.72072" lon="5.53631">
        <ele>686</ele>
        <time>2017-12-16T00:11:35Z</time>
      </trkpt>
      <trkpt lat="44.72057" lon="5.53617">
        <ele>687</ele>
        <time>2017-12-16T00:11:44Z</time>
      </trkpt>
      <trkpt lat="44.72032" lon="5.53605">
        <ele>684</ele>
        <time>2017-12-16T00:11:58Z</time>
      </trkpt>
      <trkpt lat="44.72005" lon="5.53593">
        <ele>679</ele>
        <time>2017-12-16T00:12:14Z</time>
      </trkpt>
      <trkpt lat="44.71995" lon="5.53581">
        <ele>677</ele>
        <time>2017-12-16T00:12:32Z</time>
      </trkpt>
      <trkpt lat="44.71963" lon="5.5352">
        <ele>683</ele>
        <time>2017-12-16T00:12:35Z</time>
      </trkpt>
      <trkpt lat="44.7195" lon="5.53505">
        <ele>680</ele>
        <time>2017-12-16T00:12:47Z</time>
      </trkpt>
      <trkpt lat="44.71921" lon="5.53485">
        <ele>686</ele>
        <time>2017-12-16T00:12:54Z</time>
      </trkpt>
      <trkpt lat="44.71872" lon="5.53462">
        <ele>676</ele>
        <time>2017-12-16T00:13:10Z</time>
      </trkpt>
      <trkpt lat="44.71833" lon="5.53453">
        <ele>666</ele>
        <time>2017-12-16T00:13:16Z</time>
      </trkpt>
      <trkpt lat="44.71814" lon="5.53445">
        <ele>666</ele>
        <time>2017-12-16T00:13:25Z</time>
      </trkpt>
      <trkpt lat="44.71803" lon="5.53435">
        <ele>666</ele>
        <time>2017-12-16T00:13:32Z</time>
      </trkpt>
      <trkpt lat="44.71782" lon="5.53404">
        <ele>675</ele>
        <time>2017-12-16T00:13:47Z</time>
      </trkpt>
      <trkpt lat="44.71746" lon="5.5334">
        <ele>672</ele>
        <time>2017-12-16T00:14:04Z</time>
      </trkpt>
      <trkpt lat="44.71727" lon="5.53313">
        <ele>673</ele>
        <time>2017-12-16T00:14:08Z</time>
      </trkpt>
      <trkpt lat="44.71676" lon="5.53252">
        <ele>663</ele>
        <time>2017-12-16T00:14:17Z</time>
      </trkpt>
      <trkpt lat="44.71659" lon="5.53228">
        <ele>660</ele>
        <time>2017-12-16T00:14:30Z</time>
      </trkpt>
      <trkpt lat="44.7164" lon="5.53211">
        <ele>661</ele>
        <time>2017-12-16T00:14:45Z</time>
      </trkpt>
      <trkpt lat="44.71613" lon="5.5319">
        <ele>658</ele>
        <time>2017-12-16T00:14:52Z</time>
      </trkpt>
      <trkpt lat="44.71601" lon="5.53174">
        <ele>656</ele>
        <time>2017-12-16T00:14:59Z</time>
      </trkpt>
      <trkpt lat="44.71593" lon="5.53153">
        <ele>659</ele>
        <time>2017-12-16T00:15:16Z</time>
      </trkpt>
      <trkpt lat="44.71578" lon="5.53086">
        <ele>653</ele>
        <time>2017-12-16T00:15:36Z</time>
      </trkpt>
      <trkpt lat="44.71564" lon="5.53029">
        <ele>651</ele>
        <time>2017-12-16T00:15:55Z</time>
      </trkpt>
      <trkpt lat="44.71552" lon="5.52967">
        <ele>646</ele>
        <time>2017-12-16T00:16:06Z</time>
      </trkpt>
      <trkpt lat="44.71542" lon="5.52925">
        <ele>644</ele>
        <time>2017-12-16T00:16:11Z</time>
      </trkpt>
      <trkpt lat="44.71518" lon="5.52847">
        <ele>642</ele>
        <time>2017-12-16T00:16:17Z</time>
      </trkpt>
      <trkpt lat="44.7151" lon="5.52834">
        <ele>642</ele>
        <time>2017-12-16T00:16:36Z</time>
      </trkpt>
      <trkpt lat="44.71507" lon="5.52829">
        <ele>647</ele>
        <time>2017-12-16T00:16:38Z</time>
      </trkpt>
      <trkpt lat="44.71497" lon="5.5283">
        <ele>645</ele>
        <time>2017-12-16T00:16:55Z</time>
      </trkpt>
      <trkpt lat="44.71482" lon="5.52831">
        <ele>651</ele>
        <time>2017-12-16T00:17:07Z</time>
      </trkpt>
      <trkpt lat="44.71458" lon="5.52827">
        <ele>655</ele>
        <time>2017-12-16T00:17:16Z</time>
      </trkpt>
      <trkpt lat="44.71421" lon="5.52819">
        <ele>652</ele>
        <time>2017-12-16T00:17:21Z</time>
      </trkpt>
      <trkpt lat="44.71396" lon="5.52818">
        <ele>658</ele>
        <time>2017-12-16T00:17:24Z</time>
      </trkpt>
      <trkpt lat="44.71343" lon="5.52824">
        <ele>656</ele>
        <time>2017-12-16T00:17:33Z</time>
      </trkpt>
      <trkpt lat="44.71309" lon="5.52831">
        <ele>664</ele>
        <time>2017-12-16T00:17:49Z</time>
      </trkpt>
      <trkpt lat="44.71273" lon="5.52844">
        <ele>649</ele>
        <time>2017-12-16T00:18:07Z</time>
      </trkpt>
      <trkpt lat="44.71256" lon="5.52848">
        <ele>650</ele>
        <time>2017-12-16T00:18:13Z</time>
      </trkpt>
      <trkpt lat="44.71232" lon="5.52849">
        <ele>651</ele>
        <time>2017-12-16T00:18:17Z</time>
      </trkpt>
      <trkpt lat="44.712" lon="5.52853">
        <ele>651</ele>
        <time>2017-12-16T00:18:20Z</time>
      </trkpt>
      <trkpt lat="44.71137" lon="5.52853">
        <ele>651</ele>
        <time>2017-12-16T00:18:24Z</time>
      </trkpt>
      <trkpt lat="44.71106" lon="5.52855">
        <ele>650</ele>
        <time>2017-12-16T00:18:26Z</time>
      </trkpt>
      <trkpt lat="44.71091" lon="5.52853">
        <ele>652</ele>
        <time>2017-12-16T00:18:44Z</time>
      </trkpt>
      <trkpt lat="44.71076" lon="5.52849">
        <ele>649</ele>
        <time>2017-12-16T00:19:00Z</time>
      </trkpt>
      <trkpt lat="44.71048" lon="5.52835">
        <ele>645</ele>
        <time>2017-12-16T00:19:06Z</time>
      </trkpt>
      <trkpt lat="44.71028" lon="5.52826">
        <ele>660</ele>
        <time>2017-12-16T00:19:18Z</time>
      </trkpt>
      <trkpt lat="44.71013" lon="5.52822">
        <ele>655</ele>
        <time>2017-12-16T00:19:23Z</time>
      </trkpt>
      <trkpt lat="44.70982" lon="5.52819">
        <ele>647</ele>
        <time>2017-12-16T00:19:43Z</time>
      </trkpt>
      <trkpt lat="44.70962" lon="5.52811">
        <ele>648</ele>
        <time>2017-12-16T00:19:45Z</time>
      </trkpt>
      <trkpt lat="44.70934" lon="5.52787">
        <ele>650</ele>
        <time>2017-12-16T00:19:50Z</time>
      </trkpt>
      <trkpt lat="44.70913" lon="5.52765">
        <ele>647</ele>
        <time>2017-12-16T00:20:01Z</time>
      </trkpt>
      <trkpt lat="44.70901" lon="5.52755">
        <ele>647</ele>
        <time>2017-12-16T00:20:19Z</time>
      </trkpt>
      <trkpt lat="44.70886" lon="5.52748">
        <ele>661</ele>
        <time>2017-12-16T00:20:33Z</time>
      </trkpt>
      <trkpt lat="44.7087" lon="5.52749">
        <ele>660</ele>
        <time>2017-12-16T00:20:35Z</time>
      </trkpt>
      <trkpt lat="44.70833" lon="5.52752">
        <ele>641</ele>
        <time>2017-12-16T00:20:39Z</time>
      </trkpt>
      <trkpt lat="44.70815" lon="5.52754">
        <ele>638</ele>
        <time>2017-12-16T00:20:41Z</time>
      </trkpt>
      <trkpt lat="44.70797" lon="5.52752">
        <ele>637</ele>
        <time>2017-12-16T00:20:49Z</time>
      </trkpt>
      <trkpt lat="44.70742" lon="5.52738">
        <ele>647</ele>
        <time>2017-12-16T00:21:09Z</time>
      </trkpt>
      <trkpt lat="44.70677" lon="5.52721">
        <ele>650</ele>
        <time>2017-12-16T00:21:18Z</time>
      </trkpt>
      <trkpt lat="44.70641" lon="5.52719">
        <ele>652</ele>
        <time>2017-12-16T00:21:35Z</time>
      </trkpt>
      <trkpt lat="44.70627" lon="5.52721">
        <ele>652</ele>
        <time>2017-12-16T00:21:51Z</time>
      </trkpt>
      <trkpt lat="44.70608" lon="5.52731">
        <ele>650</ele>
        <time>2017-12-16T00:22:08Z</time>
      </trkpt>
      <trkpt lat="44.70561" lon="5.52761">
        <ele>631</ele>
        <time>2017-12-16T00:22:25Z</time>
      </trkpt>
      <trkpt lat="44.70542" lon="5.5277">
        <ele>630</ele>
        <time>2017-12-16T00:22:27Z</time>
      </trkpt>
      <trkpt lat="44.70529" lon="5.52773">
        <ele>630</ele>
        <time>2017-12-16T00:22:42Z</time>
      </trkpt>
      <trkpt lat="44.70516" lon="5.52771">
        <ele>630</ele>
        <time>2017-12-16T00:22:46Z</time>
      </trkpt>
      <trkpt lat="44.70504" lon="5.52766">
        <ele>631</ele>
        <time>2017-12-16T00:23:02Z</time>
      </trkpt>
      <trkpt lat="44.70483" lon="5.52752">
        <ele>629</ele>
        <time>2017-12-16T00:23:20Z</time>
      </trkpt>
      <trkpt lat="44.70445" lon="5.52746">
        <ele>638</ele>
        <time>2017-12-16T00:23:40Z</time>
      </trkpt>
      <trkpt lat="44.7042" lon="5.52744">
        <ele>631</ele>
        <time>2017-12-16T00:23:55Z</time>
      </trkpt>
      <trkpt lat="44.70403" lon="5.5274">
        <ele>631</ele>
        <time>2017-12-16T00:23:57Z</time>
      </trkpt>
      <trkpt lat="44.7037" lon="5.52731">
        <ele>633</ele>
        <time>2017-12-16T00:24:04Z</time>
      </trkpt>
      <trkpt lat="44.70354" lon="5.52723">
        <ele>633</ele>
        <time>2017-12-16T00:24:08Z</time>
      </trkpt>
      <trkpt lat="44.70336" lon="5.52708">
        <ele>634</ele>
        <time>2017-12-16T00:24:21Z</time>
      </trkpt>
      <trkpt lat="44.70323" lon="5.52692">
        <ele>631</ele>
        <time>2017-12-16T00:24:23Z</time>
      </trkpt>
      <trkpt lat="44.70309" lon="5.52678">
        <ele>631</ele>
        <time>2017-12-16T00:24:29Z</time>
      </trkpt>
      <trkpt lat="44.703" lon="5.5267">
        <ele>630</ele>
        <time>2017-12-16T00:24:45Z</time>
      </trkpt>
      <trkpt lat="44.70291" lon="5.52667">
        <ele>630</ele>
        <time>2017-12-16T00:25:00Z</time>
      </trkpt>
      <trkpt lat="44.70256" lon="5.52657">
        <ele>632</ele>
        <time>2017-12-16T00:25:12Z</time>
      </trkpt>
      <trkpt lat="44.70217" lon="5.5264">
        <ele>630</ele>
        <time>2017-12-16T00:25:18Z</time>
      </trkpt>
      <trkpt lat="44.70154" lon="5.52604">
        <ele>627</ele>
        <time>2017-12-16T00:25:21Z</time>
      </trkpt>
      <trkpt lat="44.70139" lon="5.52594">
        <ele>626</ele>
        <time>2017-12-16T00:25:31Z</time>
      </trkpt>
      <trkpt lat="44.70103" lon="5.52561">
        <ele>635</ele>
        <time>2017-12-16T00:25:40Z</time>
      </trkpt>
      <trkpt lat="44.7001" lon="5.5247">
        <ele>635</ele>
        <time>2017-12-16T00:25:49Z</time>
      </trkpt>
      <trkpt lat="44.69978" lon="5.5244">
        <ele>627</ele>
        <time>2017-12-16T00:26:08Z</time>
      </trkpt>
      <trkpt lat="44.69957" lon="5.52424">
        <ele>626</ele>
        <time>2017-12-16T00:26:17Z</time>
      </trkpt>
      <trkpt lat="44.69934" lon="5.52412">
        <ele>635</ele>
        <time>2017-12-16T00:26:28Z</time>
      </trkpt>
      <trkpt lat="44.6991" lon="5.52397">
        <ele>625</ele>
        <time>2017-12-16T00:26:46Z</time>
      </trkpt>
      <trkpt lat="44.69902" lon="5.52389">
        <ele>626</ele>
        <time>2017-12-16T00:26:49Z</time>
      </trkpt>
      <trkpt lat="44.69885" lon="5.52368">
        <ele>627</ele>
        <time>2017-12-16T00:26:56Z</time>
      </trkpt>
      <trkpt lat="44.69869" lon="5.5235">
        <ele>627</ele>
        <time>2017-12-16T00:27:01Z</time>
      </trkpt>
      <trkpt lat="44.69846" lon="5.52335">
        <ele>623</ele>
        <time>2017-12-16T00:27:15Z</time>
      </trkpt>
      <trkpt lat="44.69808" lon="5.52317">
        <ele>625</ele>
        <time>2017-12-16T00:27:21Z</time>
      </trkpt>
      <trkpt lat="44.69768" lon="5.52301">
        <ele>626</ele>
        <time>2017-12-16T00:27:23Z</time>
      </trkpt>
      <trkpt lat="44.69747" lon="5.52296">
        <ele>623</ele>
        <time>2017-12-16T00:27:41Z</time>
      </trkpt>
      <trkpt lat="44.6972" lon="5.52295">
        <ele>623</ele>
        <time>2017-12-16T00:28:00Z</time>
      </trkpt>
      <trkpt lat="44.69698" lon="5.52298">
        <ele>622</ele>
        <time>2017-12-16T00:28:18Z</time>
      </trkpt>
      <trkpt lat="44.69672" lon="5.52305">
        <ele>619</ele>
        <time>2017-12-16T00:28:24Z</time>
      </trkpt>
      <trkpt lat="44.69652" lon="5.52302">
        <ele>617</ele>
        <time>2017-12-16T00:28:33Z</time>
      </trkpt>
      <trkpt lat="44.69622" lon="5.52289">
        <ele>618</ele>
        <time>2017-12-16T00:28:48Z</time>
      </trkpt>
      <trkpt lat="44.69604" lon="5.52285">
        <ele>618</ele>
        <time>2017-12-16T00:29:02Z</time>
      </trkpt>
      <trkpt lat="44.69566" lon="5.52295">
        <ele>614</ele>
        <time>2017-12-16T00:29:09Z</time>
      </trkpt>
      <trkpt lat="44.69559" lon="5.52295">
        <ele>614</ele>
        <time>2017-12-16T00:29:15Z</time>
      </trkpt>
      <trkpt lat="44.69546" lon="5.52291">
        <ele>614</ele>
        <time>2017-12-16T00:29:28Z</time>
      </trkpt>
      <trkpt lat="44.69528" lon="5.52281">
        <ele>614</ele>
        <time>2017-12-16T00:29:47Z</time>
      </trkpt>
      <trkpt lat="44.69473" lon="5.52233">
        <ele>615</ele>
        <time>2017-12-16T00:29:49Z</time>
      </trkpt>
      <trkpt lat="44.69442" lon="5.52205">
        <ele>617</ele>
        <time>2017-12-16T00:30:01Z</time>
      </trkpt>
      <trkpt lat="44.69425" lon="5.52198">
        <ele>618</ele>
        <time>2017-12-16T00:30:06Z</time>
      </trkpt>
      <trkpt lat="44.69408" lon="5.52197">
        <ele>613</ele>
        <time>2017-12-16T00:30:15Z</time>
      </trkpt>
      <trkpt lat="44.69391" lon="5.52201">
        <ele>612</ele>
        <time>2017-12-16T00:30:19Z</time>
      </trkpt>
      <trkpt lat="44.69372" lon="5.52203">
        <ele>611</ele>
        <time>2017-12-16T00:30:30Z</time>
      </trkpt>
      <trkpt lat="44.69358" lon="5.52201">
        <ele>611</ele>
        <time>2017-12-16T00:30:47Z</time>
      </trkpt>
      <trkpt lat="44.69335" lon="5.52183">
        <ele>611</ele>
        <time>2017-12-16T00:31:02Z</time>
      </trkpt>
      <trkpt lat="44.69319" lon="5.52165">
        <ele>612</ele>
        <time>2017-12-16T00:31:11Z</time>
      </trkpt>
      <trkpt lat="44.69304" lon="5.52143">
        <ele>614</ele>
        <time>2017-12-16T00:31:23Z</time>
      </trkpt>
      <trkpt lat="44.69285" lon="5.52104">
        <ele>615</ele>
        <time>2017-12-16T00:31:31Z</time>
      </trkpt>
      <trkpt lat="44.69277" lon="5.52086">
        <ele>613</ele>
        <time>2017-12-16T00:31:50Z</time>
      </trkpt>
      <trkpt lat="44.69266" lon="5.52073">
        <ele>622</ele>
        <time>2017-12-16T00:31:58Z</time>
      </trkpt>
      <trkpt lat="44.69248" lon="5.52058">
        <ele>611</ele>
        <time>2017-12-16T00:32:00Z</time>
      </trkpt>
      <trkpt lat="44.69205" lon="5.52033">
        <ele>612</ele>
        <time>2017-12-16T00:32:19Z</time>
      </trkpt>
      <trkpt lat="44.69174" lon="5.52007">
        <ele>609</ele>
        <time>2017-12-16T00:32:27Z</time>
      </trkpt>
      <trkpt lat="44.69142" lon="5.51978">
        <ele>616</ele>
        <time>2017-12-16T00:32:38Z</time>
      </trkpt>
      <trkpt lat="44.69098" lon="5.51942">
        <ele>618</ele>
        <time>2017-12-16T00:32:48Z</time>
      </trkpt>
      <trkpt lat="44.69076" lon="5.51932">
        <ele>614</ele>
        <time>2017-12-16T00:33:07Z</time>
      </trkpt>
      <trkpt lat="44.69048" lon="5.51926">
        <ele>611</ele>
        <time>2017-12-16T00:33:15Z</time>
      </trkpt>
      <trkpt lat="44.69014" lon="5.5192">
        <ele>610</ele>
        <time>2017-12-16T00:33:28Z</time>
      </trkpt>
      <trkpt lat="44.68983" lon="5.5191">
        <ele>616</ele>
        <time>2017-12-16T00:33:34Z</time>
      </trkpt>
      <trkpt lat="44.68931" lon="5.51882">
        <ele>616</ele>
        <time>2017-12-16T00:33:53Z</time>
      </trkpt>
      <trkpt lat="44.68904" lon="5.51863">
        <ele>608</ele>
        <time>2017-12-16T00:34:00Z</time>
      </trkpt>
      <trkpt lat="44.68895" lon="5.51853">
        <ele>609</ele>
        <time>2017-12-16T00:34:08Z</time>
      </trkpt>
      <trkpt lat="44.68875" lon="5.51826">
        <ele>617</ele>
        <time>2017-12-16T00:34:23Z</time>
      </trkpt>
      <trkpt lat="44.68838" lon="5.51771">
        <ele>613</ele>
        <time>2017-12-16T00:34:28Z</time>
      </trkpt>
      <trkpt lat="44.68825" lon="5.51747">
        <ele>605</ele>
        <time>2017-12-16T00:34:42Z</time>
      </trkpt>
      <trkpt lat="44.68819" lon="5.51729">
        <ele>604</ele>
        <time>2017-12-16T00:35:00Z</time>
      </trkpt>
      <trkpt lat="44.68808" lon="5.51682">
        <ele>606</ele>
        <time>2017-12-16T00:35:09Z</time>
      </trkpt>
      <trkpt lat="44.68797" lon="5.51619">
        <ele>607</ele>
        <time>2017-12-16T00:35:19Z</time>
      </trkpt>
      <trkpt lat="44.68792" lon="5.5157">
        <ele>603</ele>
        <time>2017-12-16T00:35:22Z</time>
      </trkpt>
      <trkpt lat="44.68793" lon="5.51547">
        <ele>602</ele>
        <time>2017-12-16T00:35:29Z</time>
      </trkpt>
      <trkpt lat="44.68801" lon="5.51516">
        <ele>601</ele>
        <time>2017-12-16T00:35:38Z</time>
      </trkpt>
      <trkpt lat="44.68811" lon="5.51496">
        <ele>597</ele>
        <time>2017-12-16T00:35:48Z</time>
      </trkpt>
      <trkpt lat="44.68844" lon="5.51449">
        <ele>611</ele>
        <time>2017-12-16T00:35:51Z</time>
      </trkpt>
      <trkpt lat="44.6886" lon="5.51425">
        <ele>611</ele>
        <time>2017-12-16T00:36:02Z</time>
      </trkpt>
      <trkpt lat="44.68867" lon="5.5141">
        <ele>606</ele>
        <time>2017-12-16T00:36:05Z</time>
      </trkpt>
      <trkpt lat="44.68875" lon="5.51373">
        <ele>607</ele>
        <time>2017-12-16T00:36:23Z</time>
      </trkpt>
      <trkpt lat="44.68885" lon="5.51322">
        <ele>604</ele>
        <time>2017-12-16T00:36:41Z</time>
      </trkpt>
      <trkpt lat="44.68903" lon="5.51263">
        <ele>602</ele>
        <time>2017-12-16T00:36:46Z</time>
      </trkpt>
      <trkpt lat="44.68913" lon="5.51242">
        <ele>600</ele>
        <time>2017-12-16T00:36:54Z</time>
      </trkpt>
      <trkpt lat="44.68925" lon="5.51224">
        <ele>607</ele>
        <time>2017-12-16T00:37:07Z</time>
      </trkpt>
      <trkpt lat="44.68964" lon="5.5118">
        <ele>608</ele>
        <time>2017-12-16T00:37:15Z</time>
      </trkpt>
      <trkpt lat="44.68975" lon="5.51166">
        <ele>599</ele>
        <time>2017-12-16T00:37:24Z</time>
      </trkpt>
      <trkpt lat="44.68984" lon="5.51148">
        <ele>599</ele>
        <time>2017-12-16T00:37:29Z</time>
      </trkpt>
      <trkpt lat="44.69" lon="5.5111">
        <ele>595</ele>
        <time>2017-12-16T00:37:35Z</time>
      </trkpt>
      <trkpt lat="44.69011" lon="5.51086">
        <ele>603</ele>
        <time>2017-12-16T00:37:51Z</time>
      </trkpt>
      <trkpt lat="44.6902" lon="5.51072">
        <ele>598</ele>
        <time>2017-12-16T00:38:04Z</time>
      </trkpt>
      <trkpt lat="44.69041" lon="5.51045">
        <ele>601</ele>
        <time>2017-12-16T00:38:22Z</time>
      </trkpt>
      <trkpt lat="44.69066" lon="5.51012">
        <ele>603</ele>
        <time>2017-12-16T00:38:30Z</time>
      </trkpt>
      <trkpt lat="44.69078" lon="5.50985">
        <ele>599</ele>
        <time>2017-12-16T00:38:32Z</time>
      </trkpt>
      <trkpt lat="44.6908" lon="5.50965">
        <ele>595</ele>
        <time>2017-12-16T00:38:37Z</time>
      </trkpt>
      <trkpt lat="44.6908" lon="5.50935">
        <ele>594</ele>
        <time>2017-12-16T00:38:47Z</time>
      </trkpt>
      <trkpt lat="44.69081" lon="5.50911">
        <ele>593</ele>
        <time>2017-12-16T00:38:55Z</time>
      </trkpt>
      <trkpt lat="44.69086" lon="5.50894">
        <ele>602</ele>
        <time>2017-12-16T00:38:58Z</time>
      </trkpt>
      <trkpt lat="44.69094" lon="5.50869">
        <ele>602</ele>
        <time>2017-12-16T00:39:06Z</time>
      </trkpt>
      <trkpt lat="44.69107" lon="5.50809">
        <ele>596</ele>
        <time>2017-12-16T00:39:22Z</time>
      </trkpt>
      <trkpt lat="44.69117" lon="5.50754">
        <ele>595</ele>
        <time>2017-12-16T00:39:29Z</time>
      </trkpt>
      <trkpt lat="44.69128" lon="5.50711">
        <ele>593</ele>
        <time>2017-12-16T00:39:31Z</time>
      </trkpt>
      <trkpt lat="44.69142" lon="5.50674">
        <ele>595</ele>
        <time>2017-12-16T00:39:37Z</time>
      </trkpt>
      <trkpt lat="44.6917" lon="5.50614">
        <ele>609</ele>
        <time>2017-12-16T00:39:50Z</time>
      </trkpt>
      <trkpt lat="44.69179" lon="5.50586">
        <ele>604</ele>
        <time>2017-12-16T00:40:00Z</time>
      </trkpt>
      <trkpt lat="44.69186" lon="5.50537">
        <ele>605</ele>
        <time>2017-12-16T00:40:20Z</time>
      </trkpt>
      <trkpt lat="44.69192" lon="5.50502">
        <ele>603</ele>
        <time>2017-12-16T00:40:39Z</time>
      </trkpt>
      <trkpt lat="44.69199" lon="5.50468">
        <ele>601</ele>
        <time>2017-12-16T00:40:51Z</time>
      </trkpt>
      <trkpt lat="44.69223" lon="5.50405">
        <ele>603</ele>
        <time>2017-12-16T00:41:01Z</time>
      </trkpt>
      <trkpt lat="44.69227" lon="5.50387">
        <ele>602</ele>
        <time>2017-12-16T00:41:07Z</time>
      </trkpt>
      <trkpt lat="44.69229" lon="5.50366">
        <ele>601</ele>
        <time>2017-12-16T00:41:22Z</time>
      </trkpt>
      <trkpt lat="44.69227" lon="5.50346">
        <ele>601</ele>
        <time>2017-12-16T00:41:27Z</time>
      </trkpt>
      <trkpt lat="44.69221" lon="5.50325">
        <ele>599</ele>
        <time>2017-12-16T00:41:40Z</time>
      </trkpt>
      <trkpt lat="44.69209" lon="5.50289">
        <ele>596</ele>
        <time>2017-12-16T00:42:00Z</time>
      </trkpt>
      <trkpt lat="44.69206" lon="5.50256">
        <ele>596</ele>
        <time>2017-12-16T00:42:20Z</time>
      </trkpt>
      <trkpt lat="44.69209" lon="5.50223">
        <ele>596</ele>
        <time>2017-12-16T00:42:37Z</time>
      </trkpt>
      <trkpt lat="44.69219" lon="5.50188">
        <ele>598</ele>
        <time>2017-12-16T00:42:50Z</time>
      </trkpt>
      <trkpt lat="44.69227" lon="5.50151">
        <ele>600</ele>
        <time>2017-12-16T00:43:05Z</time>
      </trkpt>
      <trkpt lat="44.6923" lon="5.50113">
        <ele>599</ele>
        <time>2017-12-16T00:43:23Z</time>
      </trkpt>
      <trkpt lat="44.69229" lon="5.50082">
        <ele>600</ele>
        <time>2017-12-16T00:43:26Z</time>
      </trkpt>
      <trkpt lat="44.69221" lon="5.50013">
        <ele>598</ele>
        <time>2017-12-16T00:43:42Z</time>
      </trkpt>
      <trkpt lat="44.69216" lon="5.49977">
        <ele>593</ele>
        <time>2017-12-16T00:43:53Z</time>
      </trkpt>
      <trkpt lat="44.69215" lon="5.49962">
        <ele>591</ele>
        <time>2017-12-16T00:43:55Z</time>
      </trkpt>
      <trkpt lat="44.69221" lon="5.49937">
        <ele>591</ele>
        <time>2017-12-16T00:44:08Z</time>
      </trkpt>
      <trkpt lat="44.69262" lon="5.49846">
        <ele>596</ele>
        <time>2017-12-16T00:44:27Z</time>
      </trkpt>
      <trkpt lat="44.69326" lon="5.4971">
        <ele>583</ele>
        <time>2017-12-16T00:44:43Z</time>
      </trkpt>
      <trkpt lat="44.6935" lon="5.49658">
        <ele>590</ele>
        <time>2017-12-16T00:44:55Z</time>
      </trkpt>
      <trkpt lat="44.69361" lon="5.49624">
        <ele>593</ele>
        <time>2017-12-16T00:44:59Z</time>
      </trkpt>
      <trkpt lat="44.69367" lon="5.4958">
        <ele>587</ele>
        <time>2017-12-16T00:45:15Z</time>
      </trkpt>
      <trkpt lat="44.69392" lon="5.49306">
        <ele>574</ele>
        <time>2017-12-16T00:45:21Z</time>
      </trkpt>
      <trkpt lat="44.69407" lon="5.49145">
        <ele>570</ele>
        <time>2017-12-16T00:45:37Z</time>
      </trkpt>
      <trkpt lat="44.69412" lon="5.49077">
        <ele>571</ele>
        <time>2017-12-16T00:45:46Z</time>
      </trkpt>
      <trkpt lat="44.69411" lon="5.49054">
        <ele>569</ele>
        <time>2017-12-16T00:45:58Z</time>
      </trkpt>
      <trkpt lat="44.69414" lon="5.49044">
        <ele>568</ele>
        <time>2017-12-16T00:46:16Z</time>
      </trkpt>
      <trkpt lat="44.69422" lon="5.4903">
        <ele>573</ele>
        <time>2017-12-16T00:46:28Z</time>
      </trkpt>
      <trkpt lat="44.69428" lon="5.49017">
        <ele>572</ele>
        <time>2017-12-16T00:46:46Z</time>
      </trkpt>
      <trkpt lat="44.69432" lon="5.49005">
        <ele>571</ele>
        <time>2017-12-16T00:47:01Z</time>
      </trkpt>
      <trkpt lat="44.69434" lon="5.48999">
        <ele>570</ele>
        <time>2017-12-16T00:47:07Z</time>
      </trkpt>
      <trkpt lat="44.69438" lon="5.48998">
        <ele>570</ele>
        <time>2017-12-16T00:47:18Z</time>
      </trkpt>
      <trkpt lat="44.69442" lon="5.48997">
        <ele>571</ele>
        <time>2017-12-16T00:47:38Z</time>
      </trkpt>
      <trkpt lat="44.69443" lon="5.48996">
        <ele>571</ele>
        <time>2017-12-16T00:47:40Z</time>
      </trkpt>
      <trkpt lat="44.69446" lon="5.48992">
        <ele>571</ele>
        <time>2017-12-16T00:47:42Z</time>
      </trkpt>
      <trkpt lat="44.69482" lon="5.48926">
        <ele>574</ele>
        <time>2017-12-16T00:47:48Z</time>
      </trkpt>
      <trkpt lat="44.69493" lon="5.48902">
        <ele>574</ele>
        <time>2017-12-16T00:47:57Z</time>
      </trkpt>
      <trkpt lat="44.69509" lon="5.4887">
        <ele>585</ele>
        <time>2017-12-16T00:48:01Z</time>
      </trkpt>
      <trkpt lat="44.69515" lon="5.48849">
        <ele>583</ele>
        <time>2017-12-16T00:48:07Z</time>
      </trkpt>
      <trkpt lat="44.69522" lon="5.48782">
        <ele>586</ele>
        <time>2017-12-16T00:48:25Z</time>
      </trkpt>
      <trkpt lat="44.6952" lon="5.48713">
        <ele>585</ele>
        <time>2017-12-16T00:48:38Z</time>
      </trkpt>
      <trkpt lat="44.69517" lon="5.48615">
        <ele>584</ele>
        <time>2017-12-16T00:48:42Z</time>
      </trkpt>
      <trkpt lat="44.69515" lon="5.48556">
        <ele>586</ele>
        <time>2017-12-16T00:49:00Z</time>
      </trkpt>
      <trkpt lat="44.69513" lon="5.48514">
        <ele>587</ele>
        <time>2017-12-16T00:49:13Z</time>
      </trkpt>
      <trkpt lat="44.69509" lon="5.48487">
        <ele>590</ele>
        <time>2017-12-16T00:49:20Z</time>
      </trkpt>
      <trkpt lat="44.69501" lon="5.48448">
        <ele>593</ele>
        <time>2017-12-16T00:49:25Z</time>
      </trkpt>
      <trkpt lat="44.69482" lon="5.48358">
        <ele>584</ele>
        <time>2017-12-16T00:49:45Z</time>
      </trkpt>
      <trkpt lat="44.69447" lon="5.48558">
        <ele>576</ele>
        <time>2017-12-15T19:01:15Z</time>
      </trkpt>
      <trkpt lat="44.69431" lon="5.48556">
        <ele>575</ele>
        <time>2017-12-15T19:01:20Z</time>
      </trkpt>
      <trkpt lat="44.69437" lon="5.48637">
        <ele>571</ele>
        <time>2017-12-15T19:01:28Z</time>
      </trkpt>
      <trkpt lat="44.69445" lon="5.48744">
        <ele>568</ele>
        <time>2017-12-15T19:01:41Z</time>
      </trkpt>
      <trkpt lat="44.69449" lon="5.48852">
        <ele>568</ele>
        <time>2017-12-15T19:02:01Z</time>
      </trkpt>
      <trkpt lat="44.69449" lon="5.489">
        <ele>569</ele>
        <time>2017-12-15T19:02:04Z</time>
      </trkpt>
      <trkpt lat="44.69445" lon="5.48942">
        <ele>571</ele>
        <time>2017-12-15T19:02:23Z</time>
      </trkpt>
      <trkpt lat="44.69438" lon="5.48984">
        <ele>571</ele>
        <time>2017-12-15T19:02:32Z</time>
      </trkpt>
      <trkpt lat="44.69431" lon="5.4901">
        <ele>571</ele>
        <time>2017-12-15T19:02:35Z</time>
      </trkpt>
      <trkpt lat="44.69416" lon="5.49041">
        <ele>568</ele>
        <time>2017-12-15T19:02:51Z</time>
      </trkpt>
      <trkpt lat="44.69404" lon="5.49055">
        <ele>568</ele>
        <time>2017-12-15T19:02:56Z</time>
      </trkpt>
      <trkpt lat="44.69387" lon="5.49067">
        <ele>568</ele>
        <time>2017-12-15T19:03:15Z</time>
      </trkpt>
      <trkpt lat="44.69377" lon="5.49072">
        <ele>568</ele>
        <time>2017-12-15T19:03:24Z</time>
      </trkpt>
      <trkpt lat="44.69368" lon="5.49073">
        <ele>567</ele>
        <time>2017-12-15T19:03:38Z</time>
      </trkpt>
      <trkpt lat="44.69342" lon="5.49071">
        <ele>566</ele>
        <time>2017-12-15T19:03:51Z</time>
      </trkpt>
      <trkpt lat="44.69309" lon="5.49059">
        <ele>568</ele>
        <time>2017-12-15T19:03:58Z</time>
      </trkpt>
      <trkpt lat="44.69283" lon="5.49054">
        <ele>569</ele>
        <time>2017-12-15T19:04:03Z</time>
      </trkpt>
      <trkpt lat="44.69267" lon="5.49056">
        <ele>570</ele>
        <time>2017-12-15T19:04:20Z</time>
      </trkpt>
      <trkpt lat="44.69255" lon="5.49062">
        <ele>569</ele>
        <time>2017-12-15T19:04:37Z</time>
      </trkpt>
      <trkpt lat="44.69239" lon="5.49071">
        <ele>576</ele>
        <time>2017-12-15T19:04:46Z</time>
      </trkpt>
      <trkpt lat="44.69231" lon="5.49075">
        <ele>578</ele>
        <time>2017-12-15T19:04:51Z</time>
      </trkpt>
      <trkpt lat="44.69216" lon="5.491">
        <ele>571</ele>
        <time>2017-12-15T19:05:05Z</time>
      </trkpt>
      <trkpt lat="44.69204" lon="5.49125">
        <ele>570</ele>
        <time>2017-12-15T19:05:25Z</time>
      </trkpt>
      <trkpt lat="44.69194" lon="5.49153">
        <ele>569</ele>
        <time>2017-12-15T19:05:33Z</time>
      </trkpt>
      <trkpt lat="44.69184" lon="5.49203">
        <ele>565</ele>
        <time>2017-12-15T19:05:53Z</time>
      </trkpt>
      <trkpt lat="44.69162" lon="5.49372">
        <ele>570</ele>
        <time>2017-12-15T19:06:04Z</time>
      </trkpt>
      <trkpt lat="44.69153" lon="5.49428">
        <ele>570</ele>
        <time>2017-12-15T19:06:23Z</time>
      </trkpt>
      <trkpt lat="44.69145" lon="5.49459">
        <ele>571</ele>
        <time>2017-12-15T19:06:36Z</time>
      </trkpt>
      <trkpt lat="44.69116" lon="5.49535">
        <ele>570</ele>
        <time>2017-12-15T19:06:44Z</time>
      </trkpt>
      <trkpt lat="44.6908" lon="5.49635">
        <ele>573</ele>
        <time>2017-12-15T19:06:59Z</time>
      </trkpt>
      <trkpt lat="44.6906" lon="5.49699">
        <ele>574</ele>
        <time>2017-12-15T19:07:03Z</time>
      </trkpt>
      <trkpt lat="44.69038" lon="5.49773">
        <ele>575</ele>
        <time>2017-12-15T19:07:23Z</time>
      </trkpt>
      <trkpt lat="44.68994" lon="5.49869">
        <ele>579</ele>
        <time>2017-12-15T19:07:27Z</time>
      </trkpt>
      <trkpt lat="44.68977" lon="5.49902">
        <ele>579</ele>
        <time>2017-12-15T19:07:47Z</time>
      </trkpt>
      <trkpt lat="44.68964" lon="5.49921">
        <ele>579</ele>
        <time>2017-12-15T19:08:01Z</time>
      </trkpt>
      <trkpt lat="44.68927" lon="5.49971">
        <ele>581</ele>
        <time>2017-12-15T19:08:13Z</time>
      </trkpt>
      <trkpt lat="44.68909" lon="5.49994">
        <ele>584</ele>
        <time>2017-12-15T19:08:32Z</time>
      </trkpt>
      <trkpt lat="44.68877" lon="5.50057">
        <ele>584</ele>
        <time>2017-12-15T19:08:34Z</time>
      </trkpt>
      <trkpt lat="44.68843" lon="5.50128">
        <ele>583</ele>
        <time>2017-12-15T19:08:53Z</time>
      </trkpt>
      <trkpt lat="44.68829" lon="5.50152">
        <ele>587</ele>
        <time>2017-12-15T19:09:03Z</time>
      </trkpt>
      <trkpt lat="44.68799" lon="5.50195">
        <ele>587</ele>
        <time>2017-12-15T19:09:07Z</time>
      </trkpt>
      <trkpt lat="44.68768" lon="5.50239">
        <ele>588</ele>
        <time>2017-12-15T19:09:12Z</time>
      </trkpt>
      <trkpt lat="44.68748" lon="5.50279">
        <ele>597</ele>
        <time>2017-12-15T19:09:19Z</time>
      </trkpt>
      <trkpt lat="44.68714" lon="5.50371">
        <ele>603</ele>
        <time>2017-12-15T19:09:29Z</time>
      </trkpt>
      <trkpt lat="44.68711" lon="5.50401">
        <ele>604</ele>
        <time>2017-12-15T19:09:45Z</time>
      </trkpt>
      <trkpt lat="44.68713" lon="5.5042">
        <ele>608</ele>
        <time>2017-12-15T19:09:49Z</time>
      </trkpt>
      <trkpt lat="44.68719" lon="5.50443">
        <ele>608</ele>
        <time>2017-12-15T19:10:08Z</time>
      </trkpt>
      <trkpt lat="44.68736" lon="5.50483">
        <ele>605</ele>
        <time>2017-12-15T19:10:14Z</time>
      </trkpt>
      <trkpt lat="44.68756" lon="5.5052">
        <ele>596</ele>
        <time>2017-12-15T19:10:16Z</time>
      </trkpt>
      <trkpt lat="44.68789" lon="5.50586">
        <ele>601</ele>
        <time>2017-12-15T19:10:25Z</time>
      </trkpt>
      <trkpt lat="44.68795" lon="5.50608">
        <ele>600</ele>
        <time>2017-12-15T19:10:38Z</time>
      </trkpt>
      <trkpt lat="44.68796" lon="5.50625">
        <ele>601</ele>
        <time>2017-12-15T19:10:46Z</time>
      </trkpt>
      <trkpt lat="44.6879" lon="5.5068">
        <ele>606</ele>
        <time>2017-12-15T19:11:00Z</time>
      </trkpt>
      <trkpt lat="44.68796" lon="5.50731">
        <ele>606</ele>
        <time>2017-12-15T19:11:09Z</time>
      </trkpt>
      <trkpt lat="44.68804" lon="5.50775">
        <ele>606</ele>
        <time>2017-12-15T19:11:11Z</time>
      </trkpt>
      <trkpt lat="44.68807" lon="5.50808">
        <ele>606</ele>
        <time>2017-12-15T19:11:14Z</time>
      </trkpt>
      <trkpt lat="44.68808" lon="5.50849">
        <ele>608</ele>
        <time>2017-12-15T19:11:31Z</time>
      </trkpt>
      <trkpt lat="44.68813" lon="5.50884">
        <ele>610</ele>
        <time>2017-12-15T19:11:39Z</time>
      </trkpt>
      <trkpt lat="44.68828" lon="5.50956">
        <ele>612</ele>
        <time>2017-12-15T19:11:56Z</time>
      </trkpt>
      <trkpt lat="44.68833" lon="5.50984">
        <ele>610</ele>
        <time>2017-12-15T19:11:59Z</time>
      </trkpt>
      <trkpt lat="44.68829" lon="5.51008">
        <ele>607</ele>
        <time>2017-12-15T19:12:15Z</time>
      </trkpt>
      <trkpt lat="44.68815" lon="5.51045">
        <ele>611</ele>
        <time>2017-12-15T19:12:31Z</time>
      </trkpt>
      <trkpt lat="44.6879" lon="5.51113">
        <ele>609</ele>
        <time>2017-12-15T19:12:36Z</time>
      </trkpt>
      <trkpt lat="44.68778" lon="5.51145">
        <ele>611</ele>
        <time>2017-12-15T19:12:44Z</time>
      </trkpt>
      <trkpt lat="44.68769" lon="5.51161">
        <ele>614</ele>
        <time>2017-12-15T19:12:47Z</time>
      </trkpt>
      <trkpt lat="44.68758" lon="5.51179">
        <ele>612</ele>
        <time>2017-12-15T19:13:07Z</time>
      </trkpt>
      <trkpt lat="44.68748" lon="5.512">
        <ele>630</ele>
        <time>2017-12-15T19:13:20Z</time>
      </trkpt>
      <trkpt lat="44.68738" lon="5.5124">
        <ele>620</ele>
        <time>2017-12-15T19:13:24Z</time>
      </trkpt>
      <trkpt lat="44.68727" lon="5.51273">
        <ele>619</ele>
        <time>2017-12-15T19:13:29Z</time>
      </trkpt>
      <trkpt lat="44.68707" lon="5.51331">
        <ele>622</ele>
        <time>2017-12-15T19:13:49Z</time>
      </trkpt>
      <trkpt lat="44.68698" lon="5.51378">
        <ele>609</ele>
        <time>2017-12-15T19:14:05Z</time>
      </trkpt>
      <trkpt lat="44.68692" lon="5.51392">
        <ele>609</ele>
        <time>2017-12-15T19:14:12Z</time>
      </trkpt>
      <trkpt lat="44.68674" lon="5.51408">
        <ele>610</ele>
        <time>2017-12-15T19:14:27Z</time>
      </trkpt>
      <trkpt lat="44.68654" lon="5.5142">
        <ele>616</ele>
        <time>2017-12-15T19:14:45Z</time>
      </trkpt>
      <trkpt lat="44.6864" lon="5.51432">
        <ele>620</ele>
        <time>2017-12-15T19:14:56Z</time>
      </trkpt>
      <trkpt lat="44.6863" lon="5.51446">
        <ele>621</ele>
        <time>2017-12-15T19:15:06Z</time>
      </trkpt>
      <trkpt lat="44.68619" lon="5.51469">
        <ele>621</ele>
        <time>2017-12-15T19:15:14Z</time>
      </trkpt>
      <trkpt lat="44.68613" lon="5.51485">
        <ele>620</ele>
        <time>2017-12-15T19:15:27Z</time>
      </trkpt>
      <trkpt lat="44.68602" lon="5.51515">
        <ele>610</ele>
        <time>2017-12-15T19:15:30Z</time>
      </trkpt>
      <trkpt lat="44.68585" lon="5.5155">
        <ele>605</ele>
        <time>2017-12-15T19:15:44Z</time>
      </trkpt>
      <trkpt lat="44.68562" lon="5.51583">
        <ele>617</ele>
        <time>2017-12-15T19:15:50Z</time>
      </trkpt>
      <trkpt lat="44.68489" lon="5.51675">
        <ele>600</ele>
        <time>2017-12-15T19:16:03Z</time>
      </trkpt>
      <trkpt lat="44.68431" lon="5.51751">
        <ele>597</ele>
        <time>2017-12-15T19:16:17Z</time>
      </trkpt>
      <trkpt lat="44.68298" lon="5.51923">
        <ele>607</ele>
        <time>2017-12-15T19:16:19Z</time>
      </trkpt>
      <trkpt lat="44.6826" lon="5.51967">
        <ele>607</ele>
        <time>2017-12-15T19:16:25Z</time>
      </trkpt>
      <trkpt lat="44.68121" lon="5.52097">
        <ele>616</ele>
        <time>2017-12-15T19:16:42Z</time>
      </trkpt>
      <trkpt lat="44.6811" lon="5.52108">
        <ele>617</ele>
        <time>2017-12-15T19:16:59Z</time>
      </trkpt>
      <trkpt lat="44.68102" lon="5.52124">
        <ele>616</ele>
        <time>2017-12-15T19:17:07Z</time>
      </trkpt>
      <trkpt lat="44.68098" lon="5.52141">
        <ele>615</ele>
        <time>2017-12-15T19:17:21Z</time>
      </trkpt>
      <trkpt lat="44.68099" lon="5.52167">
        <ele>614</ele>
        <time>2017-12-15T19:17:38Z</time>
      </trkpt>
      <trkpt lat="44.68113" lon="5.52208">
        <ele>617</ele>
        <time>2017-12-15T19:17:50Z</time>
      </trkpt>
      <trkpt lat="44.68118" lon="5.52227">
        <ele>618</ele>
        <time>2017-12-15T19:18:09Z</time>
      </trkpt>
      <trkpt lat="44.68118" lon="5.52246">
        <ele>618</ele>
        <time>2017-12-15T19:18:28Z</time>
      </trkpt>
      <trkpt lat="44.68117" lon="5.52262">
        <ele>626</ele>
        <time>2017-12-15T19:18:32Z</time>
      </trkpt>
      <trkpt lat="44.68112" lon="5.52275">
        <ele>626</ele>
        <time>2017-12-15T19:18:49Z</time>
      </trkpt>
      <trkpt lat="44.6809" lon="5.52324">
        <ele>619</ele>
        <time>2017-12-15T19:18:52Z</time>
      </trkpt>
      <trkpt lat="44.68056" lon="5.52402">
        <ele>620</ele>
        <time>2017-12-15T19:18:57Z</time>
      </trkpt>
      <trkpt lat="44.68049" lon="5.52425">
        <ele>623</ele>
        <time>2017-12-15T19:19:14Z</time>
      </trkpt>
      <trkpt lat="44.68047" lon="5.52464">
        <ele>624</ele>
        <time>2017-12-15T19:19:23Z</time>
      </trkpt>
      <trkpt lat="44.68057" lon="5.52533">
        <ele>629</ele>
        <time>2017-12-15T19:19:41Z</time>
      </trkpt>
      <trkpt lat="44.68061" lon="5.52568">
        <ele>630</ele>
        <time>2017-12-15T19:19:47Z</time>
      </trkpt>
      <trkpt lat="44.68058" lon="5.52585">
        <ele>631</ele>
        <time>2017-12-15T19:20:05Z</time>
      </trkpt>
      <trkpt lat="44.68051" lon="5.52604">
        <ele>631</ele>
        <time>2017-12-15T19:20:25Z</time>
      </trkpt>
      <trkpt lat="44.67916" lon="5.52826">
        <ele>631</ele>
        <time>2017-12-15T19:20:28Z</time>
      </trkpt>
      <trkpt lat="44.67839" lon="5.52954">
        <ele>637</ele>
        <time>2017-12-15T19:20:37Z</time>
      </trkpt>
      <trkpt lat="44.67799" lon="5.53018">
        <ele>640</ele>
        <time>2017-12-15T19:20:54Z</time>
      </trkpt>
      <trkpt lat="44.67758" lon="5.53071">
        <ele>635</ele>
        <time>2017-12-15T19:20:56Z</time>
      </trkpt>
      <trkpt lat="44.67732" lon="5.53099">
        <ele>642</ele>
        <time>2017-12-15T19:21:16Z</time>
      </trkpt>
      <trkpt lat="44.67705" lon="5.5312">
        <ele>647</ele>
        <time>2017-12-15T19:21:19Z</time>
      </trkpt>
      <trkpt lat="44.67632" lon="5.53171">
        <ele>648</ele>
        <time>2017-12-15T19:21:38Z</time>
      </trkpt>
      <trkpt lat="44.67621" lon="5.53183">
        <ele>648</ele>
        <time>2017-12-15T19:21:51Z</time>
      </trkpt>
      <trkpt lat="44.67614" lon="5.53196">
        <ele>649</ele>
        <time>2017-12-15T19:22:09Z</time>
      </trkpt>
      <trkpt lat="44.6761" lon="5.5321">
        <ele>650</ele>
        <time>2017-12-15T19:22:24Z</time>
      </trkpt>
      <trkpt lat="44.67604" lon="5.53246">
        <ele>650</ele>
        <time>2017-12-15T19:22:36Z</time>
      </trkpt>
      <trkpt lat="44.67598" lon="5.53268">
        <ele>657</ele>
        <time>2017-12-15T19:22:54Z</time>
      </trkpt>
      <trkpt lat="44.67566" lon="5.53343">
        <ele>650</ele>
        <time>2017-12-15T19:23:02Z</time>
      </trkpt>
      <trkpt lat="44.67536" lon="5.5342">
        <ele>648</ele>
        <time>2017-12-15T19:23:22Z</time>
      </trkpt>
      <trkpt lat="44.67529" lon="5.53453">
        <ele>648</ele>
        <time>2017-12-15T19:23:40Z</time>
      </trkpt>
      <trkpt lat="44.6752" lon="5.53506">
        <ele>654</ele>
        <time>2017-12-15T19:23:43Z</time>
      </trkpt>
      <trkpt lat="44.67513" lon="5.53524">
        <ele>657</ele>
        <time>2017-12-15T19:23:56Z</time>
      </trkpt>
      <trkpt lat="44.67504" lon="5.5354">
        <ele>661</ele>
        <time>2017-12-15T19:24:13Z</time>
      </trkpt>
      <trkpt lat="44.67493" lon="5.53553">
        <ele>659</ele>
        <time>2017-12-15T19:24:18Z</time>
      </trkpt>
      <trkpt lat="44.67468" lon="5.53576">
        <ele>659</ele>
        <time>2017-12-15T19:24:35Z</time>
      </trkpt>
      <trkpt lat="44.67447" lon="5.53589">
        <ele>678</ele>
        <time>2017-12-15T19:24:55Z</time>
      </trkpt>
      <trkpt lat="44.67424" lon="5.53595">
        <ele>669</ele>
        <time>2017-12-15T19:24:58Z</time>
      </trkpt>
      <trkpt lat="44.67408" lon="5.53595">
        <ele>664</ele>
        <time>2017-12-15T19:25:12Z</time>
      </trkpt>
      <trkpt lat="44.67391" lon="5.53591">
        <ele>667</ele>
        <time>2017-12-15T19:25:21Z</time>
      </trkpt>
      <trkpt lat="44.67367" lon="5.53579">
        <ele>651</ele>
        <time>2017-12-15T19:25:23Z</time>
      </trkpt>
      <trkpt lat="44.67329" lon="5.53553">
        <ele>648</ele>
        <time>2017-12-15T19:25:29Z</time>
      </trkpt>
      <trkpt lat="44.67296" lon="5.53533">
        <ele>648</ele>
        <time>2017-12-15T19:25:37Z</time>
      </trkpt>
      <trkpt lat="44.67271" lon="5.53527">
        <ele>648</ele>
        <time>2017-12-15T19:25:46Z</time>
      </trkpt>
      <trkpt lat="44.6726" lon="5.53527">
        <ele>648</ele>
        <time>2017-12-15T19:26:03Z</time>
      </trkpt>
      <trkpt lat="44.67252" lon="5.53531">
        <ele>648</ele>
        <time>2017-12-15T19:26:21Z</time>
      </trkpt>
      <trkpt lat="44.67245" lon="5.53539">
        <ele>656</ele>
        <time>2017-12-15T19:26:29Z</time>
      </trkpt>
      <trkpt lat="44.67241" lon="5.5355">
        <ele>656</ele>
        <time>2017-12-15T19:26:38Z</time>
      </trkpt>
      <trkpt lat="44.6724" lon="5.53588">
        <ele>650</ele>
        <time>2017-12-15T19:26:48Z</time>
      </trkpt>
      <trkpt lat="44.6724" lon="5.53608">
        <ele>653</ele>
        <time>2017-12-15T19:27:01Z</time>
      </trkpt>
      <trkpt lat="44.67237" lon="5.5363">
        <ele>656</ele>
        <time>2017-12-15T19:27:10Z</time>
      </trkpt>
      <trkpt lat="44.67232" lon="5.53649">
        <ele>659</ele>
        <time>2017-12-15T19:27:22Z</time>
      </trkpt>
      <trkpt lat="44.67186" lon="5.53753">
        <ele>664</ele>
        <time>2017-12-15T19:27:30Z</time>
      </trkpt>
      <trkpt lat="44.67152" lon="5.5383">
        <ele>656</ele>
        <time>2017-12-15T19:27:38Z</time>
      </trkpt>
      <trkpt lat="44.6714" lon="5.53851">
        <ele>660</ele>
        <time>2017-12-15T19:27:55Z</time>
      </trkpt>
      <trkpt lat="44.67117" lon="5.53881">
        <ele>661</ele>
        <time>2017-12-15T19:28:06Z</time>
      </trkpt>
      <trkpt lat="44.67018" lon="5.54009">
        <ele>663</ele>
        <time>2017-12-15T19:28:19Z</time>
      </trkpt>
      <trkpt lat="44.66951" lon="5.54093">
        <ele>667</ele>
        <time>2017-12-15T19:28:24Z</time>
      </trkpt>
      <trkpt lat="44.66852" lon="5.54219">
        <ele>672</ele>
        <time>2017-12-15T19:28:36Z</time>
      </trkpt>
      <trkpt lat="44.66834" lon="5.54248">
        <ele>663</ele>
        <time>2017-12-15T19:28:43Z</time>
      </trkpt>
      <trkpt lat="44.66818" lon="5.5428">
        <ele>674</ele>
        <time>2017-12-15T19:28:49Z</time>
      </trkpt>
      <trkpt lat="44.6681" lon="5.543">
        <ele>676</ele>
        <time>2017-12-15T19:28:56Z</time>
      </trkpt>
      <trkpt lat="44.66801" lon="5.54334">
        <ele>674</ele>
        <time>2017-12-15T19:29:04Z</time>
      </trkpt>
      <trkpt lat="44.66799" lon="5.54351">
        <ele>675</ele>
        <time>2017-12-15T19:29:20Z</time>
      </trkpt>
      <trkpt lat="44.66801" lon="5.54363">
        <ele>675</ele>
        <time>2017-12-15T19:29:34Z</time>
      </trkpt>
      <trkpt lat="44.66806" lon="5.54375">
        <ele>674</ele>
        <time>2017-12-15T19:29:42Z</time>
      </trkpt>
      <trkpt lat="44.66814" lon="5.54383">
        <ele>674</ele>
        <time>2017-12-15T19:29:52Z</time>
      </trkpt>
      <trkpt lat="44.66826" lon="5.54394">
        <ele>672</ele>
        <time>2017-12-15T19:29:54Z</time>
      </trkpt>
      <trkpt lat="44.66832" lon="5.54404">
        <ele>670</ele>
        <time>2017-12-15T19:29:58Z</time>
      </trkpt>
      <trkpt lat="44.66838" lon="5.5442">
        <ele>674</ele>
        <time>2017-12-15T19:30:16Z</time>
      </trkpt>
      <trkpt lat="44.66839" lon="5.54437">
        <ele>686</ele>
        <time>2017-12-15T19:30:35Z</time>
      </trkpt>
      <trkpt lat="44.66836" lon="5.54455">
        <ele>692</ele>
        <time>2017-12-15T19:30:47Z</time>
      </trkpt>
      <trkpt lat="44.66831" lon="5.54472">
        <ele>682</ele>
        <time>2017-12-15T19:30:57Z</time>
      </trkpt>
      <trkpt lat="44.6682" lon="5.54491">
        <ele>684</ele>
        <time>2017-12-15T19:31:12Z</time>
      </trkpt>
      <trkpt lat="44.66806" lon="5.5451">
        <ele>697</ele>
        <time>2017-12-15T19:31:21Z</time>
      </trkpt>
      <trkpt lat="44.66727" lon="5.5458">
        <ele>690</ele>
        <time>2017-12-15T19:31:26Z</time>
      </trkpt>
      <trkpt lat="44.66695" lon="5.54614">
        <ele>702</ele>
        <time>2017-12-15T19:31:45Z</time>
      </trkpt>
      <trkpt lat="44.66678" lon="5.54629">
        <ele>703</ele>
        <time>2017-12-15T19:32:02Z</time>
      </trkpt>
      <trkpt lat="44.66655" lon="5.54639">
        <ele>691</ele>
        <time>2017-12-15T19:32:13Z</time>
      </trkpt>
      <trkpt lat="44.66623" lon="5.54654">
        <ele>688</ele>
        <time>2017-12-15T19:32:21Z</time>
      </trkpt>
      <trkpt lat="44.6661" lon="5.54663">
        <ele>685</ele>
        <time>2017-12-15T19:32:26Z</time>
      </trkpt>
      <trkpt lat="44.66606" lon="5.5467">
        <ele>688</ele>
        <time>2017-12-15T19:32:44Z</time>
      </trkpt>
      <trkpt lat="44.66606" lon="5.54686">
        <ele>689</ele>
        <time>2017-12-15T19:33:01Z</time>
      </trkpt>
      <trkpt lat="44.66616" lon="5.54733">
        <ele>692</ele>
        <time>2017-12-15T19:33:15Z</time>
      </trkpt>
      <trkpt lat="44.66625" lon="5.54775">
        <ele>696</ele>
        <time>2017-12-15T19:33:25Z</time>
      </trkpt>
      <trkpt lat="44.66625" lon="5.54785">
        <ele>696</ele>
        <time>2017-12-15T19:33:44Z</time>
      </trkpt>
      <trkpt lat="44.66656" lon="5.54866">
        <ele>697</ele>
        <time>2017-12-15T19:33:56Z</time>
      </trkpt>
      <trkpt lat="44.66689" lon="5.5495">
        <ele>700</ele>
        <time>2017-12-15T19:34:04Z</time>
      </trkpt>
      <trkpt lat="44.6674" lon="5.55087">
        <ele>691</ele>
        <time>2017-12-15T19:34:09Z</time>
      </trkpt>
      <trkpt lat="44.66789" lon="5.55204">
        <ele>703</ele>
        <time>2017-12-15T19:34:17Z</time>
      </trkpt>
      <trkpt lat="44.66812" lon="5.55258">
        <ele>702</ele>
        <time>2017-12-15T19:34:23Z</time>
      </trkpt>
      <trkpt lat="44.6683" lon="5.5529">
        <ele>701</ele>
        <time>2017-12-15T19:34:29Z</time>
      </trkpt>
      <trkpt lat="44.66927" lon="5.55434">
        <ele>705</ele>
        <time>2017-12-15T19:34:41Z</time>
      </trkpt>
      <trkpt lat="44.67042" lon="5.55581">
        <ele>716</ele>
        <time>2017-12-15T19:34:46Z</time>
      </trkpt>
      <trkpt lat="44.67053" lon="5.55593">
        <ele>710</ele>
        <time>2017-12-15T19:34:56Z</time>
      </trkpt>
      <trkpt lat="44.67065" lon="5.55603">
        <ele>711</ele>
        <time>2017-12-15T19:35:14Z</time>
      </trkpt>
      <trkpt lat="44.67079" lon="5.55612">
        <ele>711</ele>
        <time>2017-12-15T19:35:30Z</time>
      </trkpt>
      <trkpt lat="44.67097" lon="5.55618">
        <ele>719</ele>
        <time>2017-12-15T19:35:40Z</time>
      </trkpt>
      <trkpt lat="44.67133" lon="5.55626">
        <ele>722</ele>
        <time>2017-12-15T19:35:48Z</time>
      </trkpt>
      <trkpt lat="44.67155" lon="5.55634">
        <ele>720</ele>
        <time>2017-12-15T19:35:58Z</time>
      </trkpt>
      <trkpt lat="44.6717" lon="5.55645">
        <ele>730</ele>
        <time>2017-12-15T19:36:00Z</time>
      </trkpt>
      <trkpt lat="44.67181" lon="5.55663">
        <ele>722</ele>
        <time>2017-12-15T19:36:14Z</time>
      </trkpt>
      <trkpt lat="44.67189" lon="5.55695">
        <ele>713</ele>
        <time>2017-12-15T19:36:25Z</time>
      </trkpt>
      <trkpt lat="44.67194" lon="5.55728">
        <ele>711</ele>
        <time>2017-12-15T19:36:34Z</time>
      </trkpt>
      <trkpt lat="44.67198" lon="5.55762">
        <ele>707</ele>
        <time>2017-12-15T19:36:40Z</time>
      </trkpt>
      <trkpt lat="44.67201" lon="5.55779">
        <ele>708</ele>
        <time>2017-12-15T19:36:44Z</time>
      </trkpt>
      <trkpt lat="44.67209" lon="5.55792">
        <ele>710</ele>
        <time>2017-12-15T19:36:48Z</time>
      </trkpt>
      <trkpt lat="44.67219" lon="5.55804">
        <ele>710</ele>
        <time>2017-12-15T19:36:55Z</time>
      </trkpt>
      <trkpt lat="44.67239" lon="5.55817">
        <ele>709</ele>
        <time>2017-12-15T19:37:14Z</time>
      </trkpt>
      <trkpt lat="44.67281" lon="5.55838">
        <ele>720</ele>
        <time>2017-12-15T19:37:23Z</time>
      </trkpt>
      <trkpt lat="44.67294" lon="5.55847">
        <ele>724</ele>
        <time>2017-12-15T19:37:40Z</time>
      </trkpt>
      <trkpt lat="44.67302" lon="5.55858">
        <ele>725</ele>
        <time>2017-12-15T19:37:44Z</time>
      </trkpt>
      <trkpt lat="44.67316" lon="5.55886">
        <ele>720</ele>
        <time>2017-12-15T19:38:00Z</time>
      </trkpt>
      <trkpt lat="44.6733" lon="5.55922">
        <ele>711</ele>
        <time>2017-12-15T19:38:17Z</time>
      </trkpt>
      <trkpt lat="44.67337" lon="5.55936">
        <ele>719</ele>
        <time>2017-12-15T19:38:31Z</time>
      </trkpt>
      <trkpt lat="44.67348" lon="5.55946">
        <ele>722</ele>
        <time>2017-12-15T19:38:37Z</time>
      </trkpt>
      <trkpt lat="44.67363" lon="5.55955">
        <ele>725</ele>
        <time>2017-12-15T19:38:56Z</time>
      </trkpt>
      <trkpt lat="44.67372" lon="5.55963">
        <ele>726</ele>
        <time>2017-12-15T19:39:08Z</time>
      </trkpt>
      <trkpt lat="44.67383" lon="5.55977">
        <ele>728</ele>
        <time>2017-12-15T19:39:21Z</time>
      </trkpt>
      <trkpt lat="44.67389" lon="5.55991">
        <ele>728</ele>
        <time>2017-12-15T19:39:31Z</time>
      </trkpt>
      <trkpt lat="44.67392" lon="5.56007">
        <ele>724</ele>
        <time>2017-12-15T19:39:45Z</time>
      </trkpt>
      <trkpt lat="44.67392" lon="5.56095">
        <ele>730</ele>
        <time>2017-12-15T19:39:58Z</time>
      </trkpt>
      <trkpt lat="44.67395" lon="5.56137">
        <ele>733</ele>
        <time>2017-12-15T19:40:12Z</time>
      </trkpt>
      <trkpt lat="44.674" lon="5.56152">
        <ele>730</ele>
        <time>2017-12-15T19:40:26Z</time>
      </trkpt>
      <trkpt lat="44.67409" lon="5.56167">
        <ele>729</ele>
        <time>2017-12-15T19:40:39Z</time>
      </trkpt>
      <trkpt lat="44.67419" lon="5.56178">
        <ele>725</ele>
        <time>2017-12-15T19:40:44Z</time>
      </trkpt>
      <trkpt lat="44.67434" lon="5.56185">
        <ele>731</ele>
        <time>2017-12-15T19:40:51Z</time>
      </trkpt>
      <trkpt lat="44.67555" lon="5.56193">
        <ele>742</ele>
        <time>2017-12-15T19:40:56Z</time>
      </trkpt>
      <trkpt lat="44.6759" lon="5.56195">
        <ele>740</ele>
        <time>2017-12-15T19:41:13Z</time>
      </trkpt>
      <trkpt lat="44.67604" lon="5.56193">
        <ele>740</ele>
        <time>2017-12-15T19:41:28Z</time>
      </trkpt>
      <trkpt lat="44.67627" lon="5.56185">
        <ele>740</ele>
        <time>2017-12-15T19:41:48Z</time>
      </trkpt>
      <trkpt lat="44.67648" lon="5.5618">
        <ele>742</ele>
        <time>2017-12-15T19:42:05Z</time>
      </trkpt>
      <trkpt lat="44.67668" lon="5.56182">
        <ele>746</ele>
        <time>2017-12-15T19:42:10Z</time>
      </trkpt>
      <trkpt lat="44.67682" lon="5.56191">
        <ele>745</ele>
        <time>2017-12-15T19:42:19Z</time>
      </trkpt>
      <trkpt lat="44.67696" lon="5.56209">
        <ele>743</ele>
        <time>2017-12-15T19:42:25Z</time>
      </trkpt>
      <trkpt lat="44.67702" lon="5.56228">
        <ele>741</ele>
        <time>2017-12-15T19:42:44Z</time>
      </trkpt>
      <trkpt lat="44.67705" lon="5.56254">
        <ele>737</ele>
        <time>2017-12-15T19:42:58Z</time>
      </trkpt>
      <trkpt lat="44.67699" lon="5.56277">
        <ele>737</ele>
        <time>2017-12-15T19:43:08Z</time>
      </trkpt>
      <trkpt lat="44.67685" lon="5.56304">
        <ele>737</ele>
        <time>2017-12-15T19:43:12Z</time>
      </trkpt>
      <trkpt lat="44.67678" lon="5.56323">
        <ele>736</ele>
        <time>2017-12-15T19:43:31Z</time>
      </trkpt>
      <trkpt lat="44.67678" lon="5.56333">
        <ele>736</ele>
        <time>2017-12-15T19:43:36Z</time>
      </trkpt>
      <trkpt lat="44.67681" lon="5.56341">
        <ele>738</ele>
        <time>2017-12-15T19:43:45Z</time>
      </trkpt>
      <trkpt lat="44.67686" lon="5.56349">
        <ele>740</ele>
        <time>2017-12-15T19:43:55Z</time>
      </trkpt>
      <trkpt lat="44.67713" lon="5.5637">
        <ele>743</ele>
        <time>2017-12-15T19:44:12Z</time>
      </trkpt>
      <trkpt lat="44.67724" lon="5.56382">
        <ele>743</ele>
        <time>2017-12-15T19:44:23Z</time>
      </trkpt>
      <trkpt lat="44.67748" lon="5.56421">
        <ele>737</ele>
        <time>2017-12-15T19:44:43Z</time>
      </trkpt>
      <trkpt lat="44.67762" lon="5.56439">
        <ele>744</ele>
        <time>2017-12-15T19:44:55Z</time>
      </trkpt>
      <trkpt lat="44.67771" lon="5.56448">
        <ele>746</ele>
        <time>2017-12-15T19:44:59Z</time>
      </trkpt>
      <trkpt lat="44.67782" lon="5.56455">
        <ele>748</ele>
        <time>2017-12-15T19:45:15Z</time>
      </trkpt>
      <trkpt lat="44.67801" lon="5.56461">
        <ele>751</ele>
        <time>2017-12-15T19:45:22Z</time>
      </trkpt>
      <trkpt lat="44.67821" lon="5.56466">
        <ele>753</ele>
        <time>2017-12-15T19:45:33Z</time>
      </trkpt>
      <trkpt lat="44.67836" lon="5.56477">
        <ele>778</ele>
        <time>2017-12-15T19:45:35Z</time>
      </trkpt>
      <trkpt lat="44.67843" lon="5.56489">
        <ele>771</ele>
        <time>2017-12-15T19:45:43Z</time>
      </trkpt>
      <trkpt lat="44.67848" lon="5.56504">
        <ele>759</ele>
        <time>2017-12-15T19:46:01Z</time>
      </trkpt>
      <trkpt lat="44.67854" lon="5.56558">
        <ele>757</ele>
        <time>2017-12-15T19:46:14Z</time>
      </trkpt>
      <trkpt lat="44.67869" lon="5.56604">
        <ele>749</ele>
        <time>2017-12-15T19:46:21Z</time>
      </trkpt>
      <trkpt lat="44.67878" lon="5.56653">
        <ele>748</ele>
        <time>2017-12-15T19:46:36Z</time>
      </trkpt>
      <trkpt lat="44.67882" lon="5.56679">
        <ele>747</ele>
        <time>2017-12-15T19:46:38Z</time>
      </trkpt>
      <trkpt lat="44.67888" lon="5.56693">
        <ele>747</ele>
        <time>2017-12-15T19:46:51Z</time>
      </trkpt>
      <trkpt lat="44.67895" lon="5.56705">
        <ele>746</ele>
        <time>2017-12-15T19:46:57Z</time>
      </trkpt>
      <trkpt lat="44.67905" lon="5.56713">
        <ele>743</ele>
        <time>2017-12-15T19:47:11Z</time>
      </trkpt>
      <trkpt lat="44.67933" lon="5.56726">
        <ele>749</ele>
        <time>2017-12-15T19:47:21Z</time>
      </trkpt>
      <trkpt lat="44.67948" lon="5.56743">
        <ele>751</ele>
        <time>2017-12-15T19:47:29Z</time>
      </trkpt>
      <trkpt lat="44.67968" lon="5.56787">
        <ele>747</ele>
        <time>2017-12-15T19:47:33Z</time>
      </trkpt>
      <trkpt lat="44.67989" lon="5.56829">
        <ele>749</ele>
        <time>2017-12-15T19:47:47Z</time>
      </trkpt>
      <trkpt lat="44.68007" lon="5.56862">
        <ele>762</ele>
        <time>2017-12-15T19:48:05Z</time>
      </trkpt>
      <trkpt lat="44.68069" lon="5.56968">
        <ele>752</ele>
        <time>2017-12-15T19:48:20Z</time>
      </trkpt>
      <trkpt lat="44.68093" lon="5.57007">
        <ele>749</ele>
        <time>2017-12-15T19:48:37Z</time>
      </trkpt>
      <trkpt lat="44.68104" lon="5.5702">
        <ele>757</ele>
        <time>2017-12-15T19:48:54Z</time>
      </trkpt>
      <trkpt lat="44.68116" lon="5.5703">
        <ele>761</ele>
        <time>2017-12-15T19:48:57Z</time>
      </trkpt>
      <trkpt lat="44.68136" lon="5.57037">
        <ele>764</ele>
        <time>2017-12-15T19:49:05Z</time>
      </trkpt>
      <trkpt lat="44.68175" lon="5.57047">
        <ele>780</ele>
        <time>2017-12-15T19:49:22Z</time>
      </trkpt>
      <trkpt lat="44.68186" lon="5.57052">
        <ele>781</ele>
        <time>2017-12-15T19:49:41Z</time>
      </trkpt>
      <trkpt lat="44.68196" lon="5.57061">
        <ele>781</ele>
        <time>2017-12-15T19:49:54Z</time>
      </trkpt>
      <trkpt lat="44.68204" lon="5.57072">
        <ele>781</ele>
        <time>2017-12-15T19:49:58Z</time>
      </trkpt>
      <trkpt lat="44.6821" lon="5.57086">
        <ele>768</ele>
        <time>2017-12-15T19:50:00Z</time>
      </trkpt>
      <trkpt lat="44.68217" lon="5.57119">
        <ele>767</ele>
        <time>2017-12-15T19:50:03Z</time>
      </trkpt>
      <trkpt lat="44.68225" lon="5.57161">
        <ele>766</ele>
        <time>2017-12-15T19:50:09Z</time>
      </trkpt>
      <trkpt lat="44.68234" lon="5.57188">
        <ele>770</ele>
        <time>2017-12-15T19:50:26Z</time>
      </trkpt>
      <trkpt lat="44.68241" lon="5.57206">
        <ele>770</ele>
        <time>2017-12-15T19:50:38Z</time>
      </trkpt>
      <trkpt lat="44.6826" lon="5.5724">
        <ele>765</ele>
        <time>2017-12-15T19:50:53Z</time>
      </trkpt>
      <trkpt lat="44.68285" lon="5.57279">
        <ele>772</ele>
        <time>2017-12-15T19:51:13Z</time>
      </trkpt>
      <trkpt lat="44.68303" lon="5.57309">
        <ele>773</ele>
        <time>2017-12-15T19:51:25Z</time>
      </trkpt>
      <trkpt lat="44.68316" lon="5.57338">
        <ele>776</ele>
        <time>2017-12-15T19:51:27Z</time>
      </trkpt>
      <trkpt lat="44.68326" lon="5.57358">
        <ele>777</ele>
        <time>2017-12-15T19:51:44Z</time>
      </trkpt>
      <trkpt lat="44.68334" lon="5.5737">
        <ele>773</ele>
        <time>2017-12-15T19:52:01Z</time>
      </trkpt>
      <trkpt lat="44.68343" lon="5.57378">
        <ele>773</ele>
        <time>2017-12-15T19:52:17Z</time>
      </trkpt>
      <trkpt lat="44.68354" lon="5.57384">
        <ele>774</ele>
        <time>2017-12-15T19:52:28Z</time>
      </trkpt>
      <trkpt lat="44.68384" lon="5.57393">
        <ele>774</ele>
        <time>2017-12-15T19:52:36Z</time>
      </trkpt>
      <trkpt lat="44.68398" lon="5.57397">
        <ele>773</ele>
        <time>2017-12-15T19:52:51Z</time>
      </trkpt>
      <trkpt lat="44.68437" lon="5.57421">
        <ele>775</ele>
        <time>2017-12-15T19:52:53Z</time>
      </trkpt>
      <trkpt lat="44.68498" lon="5.57468">
        <ele>790</ele>
        <time>2017-12-15T19:53:00Z</time>
      </trkpt>
      <trkpt lat="44.68534" lon="5.57499">
        <ele>814</ele>
        <time>2017-12-15T19:53:09Z</time>
      </trkpt>
      <trkpt lat="44.68544" lon="5.57508">
        <ele>854</ele>
        <time>2017-12-15T19:53:29Z</time>
      </trkpt>
      <trkpt lat="44.68567" lon="5.57521">
        <ele>860</ele>
        <time>2017-12-15T19:53:44Z</time>
      </trkpt>
      <trkpt lat="44.6858" lon="5.57525">
        <ele>861</ele>
        <time>2017-12-15T19:53:46Z</time>
      </trkpt>
      <trkpt lat="44.68594" lon="5.57526">
        <ele>856</ele>
        <time>2017-12-15T19:53:49Z</time>
      </trkpt>
      <trkpt lat="44.68621" lon="5.57523">
        <ele>853</ele>
        <time>2017-12-15T19:53:55Z</time>
      </trkpt>
      <trkpt lat="44.68654" lon="5.57516">
        <ele>837</ele>
        <time>2017-12-15T19:54:11Z</time>
      </trkpt>
      <trkpt lat="44.68673" lon="5.57513">
        <ele>820</ele>
        <time>2017-12-15T19:54:27Z</time>
      </trkpt>
      <trkpt lat="44.68698" lon="5.5752">
        <ele>830</ele>
        <time>2017-12-15T19:54:47Z</time>
      </trkpt>
      <trkpt lat="44.6871" lon="5.57526">
        <ele>832</ele>
        <time>2017-12-15T19:54:57Z</time>
      </trkpt>
      <trkpt lat="44.68721" lon="5.57536">
        <ele>832</ele>
        <time>2017-12-15T19:55:15Z</time>
      </trkpt>
      <trkpt lat="44.68741" lon="5.57563">
        <ele>824</ele>
        <time>2017-12-15T19:55:25Z</time>
      </trkpt>
      <trkpt lat="44.68754" lon="5.57588">
        <ele>823</ele>
        <time>2017-12-15T19:55:29Z</time>
      </trkpt>
      <trkpt lat="44.68769" lon="5.57626">
        <ele>877</ele>
        <time>2017-12-15T19:55:41Z</time>
      </trkpt>
      <trkpt lat="44.68807" lon="5.57726">
        <ele>938</ele>
        <time>2017-12-15T19:55:45Z</time>
      </trkpt>
      <trkpt lat="44.6882" lon="5.5775">
        <ele>927</ele>
        <time>2017-12-15T19:55:58Z</time>
      </trkpt>
      <trkpt lat="44.6883" lon="5.57764">
        <ele>911</ele>
        <time>2017-12-15T19:56:11Z</time>
      </trkpt>
      <trkpt lat="44.68863" lon="5.57802">
        <ele>853</ele>
        <time>2017-12-15T19:56:26Z</time>
      </trkpt>
      <trkpt lat="44.6887" lon="5.57817">
        <ele>845</ele>
        <time>2017-12-15T19:56:40Z</time>
      </trkpt>
      <trkpt lat="44.68876" lon="5.57834">
        <ele>794</ele>
        <time>2017-12-15T19:56:48Z</time>
      </trkpt>
      <trkpt lat="44.68878" lon="5.57852">
        <ele>794</ele>
        <time>2017-12-15T19:56:59Z</time>
      </trkpt>
      <trkpt lat="44.68878" lon="5.5788">
        <ele>789</ele>
        <time>2017-12-15T19:57:06Z</time>
      </trkpt>
      <trkpt lat="44.68876" lon="5.57937">
        <ele>782</ele>
        <time>2017-12-15T19:57:10Z</time>
      </trkpt>
      <trkpt lat="44.68879" lon="5.57946">
        <ele>783</ele>
        <time>2017-12-15T19:57:20Z</time>
      </trkpt>
      <trkpt lat="44.68886" lon="5.57951">
        <ele>783</ele>
        <time>2017-12-15T19:57:31Z</time>
      </trkpt>
      <trkpt lat="44.68893" lon="5.57954">
        <ele>783</ele>
        <time>2017-12-15T19:57:45Z</time>
      </trkpt>
      <trkpt lat="44.68914" lon="5.57954">
        <ele>783</ele>
        <time>2017-12-15T19:58:03Z</time>
      </trkpt>
      <trkpt lat="44.68945" lon="5.57958">
        <ele>814</ele>
        <time>2017-12-15T19:58:19Z</time>
      </trkpt>
      <trkpt lat="44.6897" lon="5.57966">
        <ele>822</ele>
        <time>2017-12-15T19:58:39Z</time>
      </trkpt>
      <trkpt lat="44.68984" lon="5.57976">
        <ele>822</ele>
        <time>2017-12-15T19:58:55Z</time>
      </trkpt>
      <trkpt lat="44.68992" lon="5.57988">
        <ele>817</ele>
        <time>2017-12-15T19:59:04Z</time>
      </trkpt>
      <trkpt lat="44.68997" lon="5.58009">
        <ele>806</ele>
        <time>2017-12-15T19:59:23Z</time>
      </trkpt>
      <trkpt lat="44.69001" lon="5.58048">
        <ele>826</ele>
        <time>2017-12-15T19:59:29Z</time>
      </trkpt>
      <trkpt lat="44.69001" lon="5.58064">
        <ele>814</ele>
        <time>2017-12-15T19:59:34Z</time>
      </trkpt>
      <trkpt lat="44.68998" lon="5.58066">
        <ele>791</ele>
        <time>2017-12-15T19:59:37Z</time>
      </trkpt>
      <trkpt lat="44.68995" lon="5.58065">
        <ele>791</ele>
        <time>2017-12-15T19:59:42Z</time>
      </trkpt>
      <trkpt lat="44.68993" lon="5.5806">
        <ele>793</ele>
        <time>2017-12-15T19:59:48Z</time>
      </trkpt>
      <trkpt lat="44.68992" lon="5.58048">
        <ele>795</ele>
        <time>2017-12-15T19:59:55Z</time>
      </trkpt>
      <trkpt lat="44.6899" lon="5.58015">
        <ele>802</ele>
        <time>2017-12-15T20:00:10Z</time>
      </trkpt>
      <trkpt lat="44.68982" lon="5.57993">
        <ele>816</ele>
        <time>2017-12-15T20:00:17Z</time>
      </trkpt>
      <trkpt lat="44.68975" lon="5.57985">
        <ele>818</ele>
        <time>2017-12-15T20:00:23Z</time>
      </trkpt>
      <trkpt lat="44.68965" lon="5.57981">
        <ele>816</ele>
        <time>2017-12-15T20:00:32Z</time>
      </trkpt>
      <trkpt lat="44.68942" lon="5.57977">
        <ele>809</ele>
        <time>2017-12-15T20:00:34Z</time>
      </trkpt>
      <trkpt lat="44.68925" lon="5.57977">
        <ele>803</ele>
        <time>2017-12-15T20:00:53Z</time>
      </trkpt>
      <trkpt lat="44.689" lon="5.57981">
        <ele>784</ele>
        <time>2017-12-15T20:00:59Z</time>
      </trkpt>
      <trkpt lat="44.68875" lon="5.57977">
        <ele>784</ele>
        <time>2017-12-15T20:01:10Z</time>
      </trkpt>
      <trkpt lat="44.68858" lon="5.57974">
        <ele>785</ele>
        <time>2017-12-15T20:01:26Z</time>
      </trkpt>
      <trkpt lat="44.68847" lon="5.57976">
        <ele>786</ele>
        <time>2017-12-15T20:01:32Z</time>
      </trkpt>
      <trkpt lat="44.68833" lon="5.57987">
        <ele>802</ele>
        <time>2017-12-15T20:01:41Z</time>
      </trkpt>
      <trkpt lat="44.6881" lon="5.58013">
        <ele>797</ele>
        <time>2017-12-15T20:02:00Z</time>
      </trkpt>
      <trkpt lat="44.68797" lon="5.58033">
        <ele>799</ele>
        <time>2017-12-15T20:02:06Z</time>
      </trkpt>
      <trkpt lat="44.68779" lon="5.58081">
        <ele>804</ele>
        <time>2017-12-15T20:02:14Z</time>
      </trkpt>
      <trkpt lat="44.68768" lon="5.58125">
        <ele>805</ele>
        <time>2017-12-15T20:02:17Z</time>
      </trkpt>
      <trkpt lat="44.68761" lon="5.58175">
        <ele>798</ele>
        <time>2017-12-15T20:02:35Z</time>
      </trkpt>
      <trkpt lat="44.68764" lon="5.58257">
        <ele>795</ele>
        <time>2017-12-15T20:02:43Z</time>
      </trkpt>
      <trkpt lat="44.68764" lon="5.58291">
        <ele>797</ele>
        <time>2017-12-15T20:02:52Z</time>
      </trkpt>
      <trkpt lat="44.68769" lon="5.58306">
        <ele>797</ele>
        <time>2017-12-15T20:03:10Z</time>
      </trkpt>
      <trkpt lat="44.68776" lon="5.5832">
        <ele>797</ele>
        <time>2017-12-15T20:03:25Z</time>
      </trkpt>
      <trkpt lat="44.68785" lon="5.58331">
        <ele>798</ele>
        <time>2017-12-15T20:03:30Z</time>
      </trkpt>
      <trkpt lat="44.68802" lon="5.58358">
        <ele>800</ele>
        <time>2017-12-15T20:03:32Z</time>
      </trkpt>
      <trkpt lat="44.68813" lon="5.58389">
        <ele>802</ele>
        <time>2017-12-15T20:03:39Z</time>
      </trkpt>
      <trkpt lat="44.68824" lon="5.58413">
        <ele>807</ele>
        <time>2017-12-15T20:03:50Z</time>
      </trkpt>
      <trkpt lat="44.68828" lon="5.58424">
        <ele>811</ele>
        <time>2017-12-15T20:04:06Z</time>
      </trkpt>
      <trkpt lat="44.6883" lon="5.58436">
        <ele>811</ele>
        <time>2017-12-15T20:04:26Z</time>
      </trkpt>
      <trkpt lat="44.68827" lon="5.58447">
        <ele>812</ele>
        <time>2017-12-15T20:04:30Z</time>
      </trkpt>
      <trkpt lat="44.68822" lon="5.58457">
        <ele>814</ele>
        <time>2017-12-15T20:04:46Z</time>
      </trkpt>
      <trkpt lat="44.68815" lon="5.58463">
        <ele>814</ele>
        <time>2017-12-15T20:05:01Z</time>
      </trkpt>
      <trkpt lat="44.68796" lon="5.58474">
        <ele>813</ele>
        <time>2017-12-15T20:05:03Z</time>
      </trkpt>
      <trkpt lat="44.6877" lon="5.58501">
        <ele>822</ele>
        <time>2017-12-15T20:05:11Z</time>
      </trkpt>
      <trkpt lat="44.68753" lon="5.58519">
        <ele>821</ele>
        <time>2017-12-15T20:05:18Z</time>
      </trkpt>
      <trkpt lat="44.68739" lon="5.58542">
        <ele>824</ele>
        <time>2017-12-15T20:05:29Z</time>
      </trkpt>
      <trkpt lat="44.68728" lon="5.5857">
        <ele>826</ele>
        <time>2017-12-15T20:05:43Z</time>
      </trkpt>
      <trkpt lat="44.6871" lon="5.58607">
        <ele>837</ele>
        <time>2017-12-15T20:05:56Z</time>
      </trkpt>
      <trkpt lat="44.68705" lon="5.58615">
        <ele>837</ele>
        <time>2017-12-15T20:06:05Z</time>
      </trkpt>
      <trkpt lat="44.68684" lon="5.58633">
        <ele>838</ele>
        <time>2017-12-15T20:06:12Z</time>
      </trkpt>
      <trkpt lat="44.68679" lon="5.58641">
        <ele>837</ele>
        <time>2017-12-15T20:06:28Z</time>
      </trkpt>
      <trkpt lat="44.6867" lon="5.58672">
        <ele>839</ele>
        <time>2017-12-15T20:06:42Z</time>
      </trkpt>
      <trkpt lat="44.6866" lon="5.58685">
        <ele>851</ele>
        <time>2017-12-15T20:06:47Z</time>
      </trkpt>
      <trkpt lat="44.68645" lon="5.58697">
        <ele>859</ele>
        <time>2017-12-15T20:07:04Z</time>
      </trkpt>
      <trkpt lat="44.6862" lon="5.58724">
        <ele>864</ele>
        <time>2017-12-15T20:07:11Z</time>
      </trkpt>
      <trkpt lat="44.68602" lon="5.58751">
        <ele>865</ele>
        <time>2017-12-15T20:07:16Z</time>
      </trkpt>
      <trkpt lat="44.6857" lon="5.58783">
        <ele>903</ele>
        <time>2017-12-15T20:07:35Z</time>
      </trkpt>
      <trkpt lat="44.6853" lon="5.58822">
        <ele>917</ele>
        <time>2017-12-15T20:07:54Z</time>
      </trkpt>
      <trkpt lat="44.68523" lon="5.5883">
        <ele>918</ele>
        <time>2017-12-15T20:08:10Z</time>
      </trkpt>
      <trkpt lat="44.68515" lon="5.58845">
        <ele>904</ele>
        <time>2017-12-15T20:08:29Z</time>
      </trkpt>
      <trkpt lat="44.68508" lon="5.58872">
        <ele>896</ele>
        <time>2017-12-15T20:08:33Z</time>
      </trkpt>
      <trkpt lat="44.68504" lon="5.58898">
        <ele>890</ele>
        <time>2017-12-15T20:08:52Z</time>
      </trkpt>
      <trkpt lat="44.68496" lon="5.58926">
        <ele>884</ele>
        <time>2017-12-15T20:09:07Z</time>
      </trkpt>
      <trkpt lat="44.68482" lon="5.58972">
        <ele>882</ele>
        <time>2017-12-15T20:09:18Z</time>
      </trkpt>
      <trkpt lat="44.68471" lon="5.59017">
        <ele>882</ele>
        <time>2017-12-15T20:09:30Z</time>
      </trkpt>
      <trkpt lat="44.68461" lon="5.59113">
        <ele>881</ele>
        <time>2017-12-15T20:09:33Z</time>
      </trkpt>
      <trkpt lat="44.68456" lon="5.59154">
        <ele>878</ele>
        <time>2017-12-15T20:09:43Z</time>
      </trkpt>
      <trkpt lat="44.68449" lon="5.59199">
        <ele>866</ele>
        <time>2017-12-15T20:09:55Z</time>
      </trkpt>
      <trkpt lat="44.68443" lon="5.59223">
        <ele>863</ele>
        <time>2017-12-15T20:10:12Z</time>
      </trkpt>
      <trkpt lat="44.6843" lon="5.59257">
        <ele>859</ele>
        <time>2017-12-15T20:10:31Z</time>
      </trkpt>
      <trkpt lat="44.68413" lon="5.59305">
        <ele>878</ele>
        <time>2017-12-15T20:10:48Z</time>
      </trkpt>
      <trkpt lat="44.68407" lon="5.5933">
        <ele>870</ele>
        <time>2017-12-15T20:11:03Z</time>
      </trkpt>
      <trkpt lat="44.68402" lon="5.59378">
        <ele>872</ele>
        <time>2017-12-15T20:11:11Z</time>
      </trkpt>
      <trkpt lat="44.68402" lon="5.59398">
        <ele>870</ele>
        <time>2017-12-15T20:11:15Z</time>
      </trkpt>
      <trkpt lat="44.68404" lon="5.59415">
        <ele>866</ele>
        <time>2017-12-15T20:11:25Z</time>
      </trkpt>
      <trkpt lat="44.68409" lon="5.59429">
        <ele>866</ele>
        <time>2017-12-15T20:11:37Z</time>
      </trkpt>
      <trkpt lat="44.68417" lon="5.5944">
        <ele>859</ele>
        <time>2017-12-15T20:11:54Z</time>
      </trkpt>
      <trkpt lat="44.68445" lon="5.59459">
        <ele>859</ele>
        <time>2017-12-15T20:12:03Z</time>
      </trkpt>
      <trkpt lat="44.68476" lon="5.59477">
        <ele>858</ele>
        <time>2017-12-15T20:12:22Z</time>
      </trkpt>
      <trkpt lat="44.68496" lon="5.59494">
        <ele>854</ele>
        <time>2017-12-15T20:12:40Z</time>
      </trkpt>
      <trkpt lat="44.68541" lon="5.5954">
        <ele>854</ele>
        <time>2017-12-15T20:12:49Z</time>
      </trkpt>
      <trkpt lat="44.68569" lon="5.59571">
        <ele>855</ele>
        <time>2017-12-15T20:12:55Z</time>
      </trkpt>
      <trkpt lat="44.68592" lon="5.5959">
        <ele>856</ele>
        <time>2017-12-15T20:13:02Z</time>
      </trkpt>
      <trkpt lat="44.68618" lon="5.59603">
        <ele>857</ele>
        <time>2017-12-15T20:13:19Z</time>
      </trkpt>
      <trkpt lat="44.68656" lon="5.5962">
        <ele>858</ele>
        <time>2017-12-15T20:13:39Z</time>
      </trkpt>
      <trkpt lat="44.68722" lon="5.59653">
        <ele>863</ele>
        <time>2017-12-15T20:13:43Z</time>
      </trkpt>
      <trkpt lat="44.68744" lon="5.59667">
        <ele>864</ele>
        <time>2017-12-15T20:13:52Z</time>
      </trkpt>
      <trkpt lat="44.68756" lon="5.5968">
        <ele>864</ele>
        <time>2017-12-15T20:14:01Z</time>
      </trkpt>
      <trkpt lat="44.68764" lon="5.59698">
        <ele>865</ele>
        <time>2017-12-15T20:14:20Z</time>
      </trkpt>
      <trkpt lat="44.68776" lon="5.5974">
        <ele>865</ele>
        <time>2017-12-15T20:14:40Z</time>
      </trkpt>
      <trkpt lat="44.68783" lon="5.59777">
        <ele>869</ele>
        <time>2017-12-15T20:14:50Z</time>
      </trkpt>
      <trkpt lat="44.68789" lon="5.59789">
        <ele>870</ele>
        <time>2017-12-15T20:15:09Z</time>
      </trkpt>
      <trkpt lat="44.688" lon="5.59792">
        <ele>870</ele>
        <time>2017-12-15T20:15:14Z</time>
      </trkpt>
      <trkpt lat="44.68822" lon="5.5979">
        <ele>870</ele>
        <time>2017-12-15T20:15:17Z</time>
      </trkpt>
      <trkpt lat="44.68839" lon="5.59786">
        <ele>877</ele>
        <time>2017-12-15T20:15:28Z</time>
      </trkpt>
      <trkpt lat="44.68851" lon="5.5978">
        <ele>877</ele>
        <time>2017-12-15T20:15:30Z</time>
      </trkpt>
      <trkpt lat="44.6887" lon="5.59762">
        <ele>878</ele>
        <time>2017-12-15T20:15:35Z</time>
      </trkpt>
      <trkpt lat="44.68903" lon="5.59725">
        <ele>872</ele>
        <time>2017-12-15T20:15:52Z</time>
      </trkpt>
      <trkpt lat="44.68926" lon="5.59702">
        <ele>877</ele>
        <time>2017-12-15T20:16:11Z</time>
      </trkpt>
      <trkpt lat="44.6894" lon="5.59696">
        <ele>877</ele>
        <time>2017-12-15T20:16:18Z</time>
      </trkpt>
      <trkpt lat="44.68961" lon="5.59699">
        <ele>878</ele>
        <time>2017-12-15T20:16:23Z</time>
      </trkpt>
      <trkpt lat="44.68982" lon="5.59704">
        <ele>879</ele>
        <time>2017-12-15T20:16:41Z</time>
      </trkpt>
      <trkpt lat="44.69014" lon="5.59718">
        <ele>885</ele>
        <time>2017-12-15T20:16:51Z</time>
      </trkpt>
      <trkpt lat="44.69055" lon="5.59734">
        <ele>886</ele>
        <time>2017-12-15T20:16:57Z</time>
      </trkpt>
      <trkpt lat="44.69068" lon="5.59744">
        <ele>886</ele>
        <time>2017-12-15T20:17:04Z</time>
      </trkpt>
      <trkpt lat="44.69078" lon="5.59759">
        <ele>888</ele>
        <time>2017-12-15T20:17:11Z</time>
      </trkpt>
      <trkpt lat="44.69086" lon="5.59777">
        <ele>895</ele>
        <time>2017-12-15T20:17:20Z</time>
      </trkpt>
      <trkpt lat="44.69097" lon="5.59808">
        <ele>897</ele>
        <time>2017-12-15T20:17:35Z</time>
      </trkpt>
      <trkpt lat="44.69105" lon="5.59864">
        <ele>900</ele>
        <time>2017-12-15T20:17:37Z</time>
      </trkpt>
      <trkpt lat="44.6911" lon="5.59895">
        <ele>903</ele>
        <time>2017-12-15T20:17:42Z</time>
      </trkpt>
      <trkpt lat="44.69117" lon="5.59913">
        <ele>903</ele>
        <time>2017-12-15T20:17:58Z</time>
      </trkpt>
      <trkpt lat="44.69126" lon="5.59927">
        <ele>906</ele>
        <time>2017-12-15T20:18:07Z</time>
      </trkpt>
      <trkpt lat="44.69138" lon="5.59938">
        <ele>904</ele>
        <time>2017-12-15T20:18:13Z</time>
      </trkpt>
      <trkpt lat="44.69153" lon="5.59945">
        <ele>902</ele>
        <time>2017-12-15T20:18:23Z</time>
      </trkpt>
      <trkpt lat="44.69204" lon="5.59956">
        <ele>901</ele>
        <time>2017-12-15T20:18:25Z</time>
      </trkpt>
      <trkpt lat="44.69221" lon="5.59959">
        <ele>903</ele>
        <time>2017-12-15T20:18:28Z</time>
      </trkpt>
      <trkpt lat="44.69234" lon="5.59964">
        <ele>904</ele>
        <time>2017-12-15T20:18:40Z</time>
      </trkpt>
      <trkpt lat="44.69239" lon="5.59972">
        <ele>903</ele>
        <time>2017-12-15T20:18:48Z</time>
      </trkpt>
      <trkpt lat="44.69241" lon="5.59982">
        <ele>902</ele>
        <time>2017-12-15T20:19:03Z</time>
      </trkpt>
      <trkpt lat="44.69239" lon="5.60047">
        <ele>899</ele>
        <time>2017-12-15T20:19:16Z</time>
      </trkpt>
      <trkpt lat="44.69243" lon="5.60085">
        <ele>898</ele>
        <time>2017-12-15T20:19:35Z</time>
      </trkpt>
      <trkpt lat="44.69252" lon="5.60122">
        <ele>904</ele>
        <time>2017-12-15T20:19:45Z</time>
      </trkpt>
      <trkpt lat="44.6926" lon="5.60142">
        <ele>903</ele>
        <time>2017-12-15T20:19:58Z</time>
      </trkpt>
      <trkpt lat="44.69277" lon="5.6017">
        <ele>903</ele>
        <time>2017-12-15T20:20:00Z</time>
      </trkpt>
      <trkpt lat="44.69292" lon="5.60191">
        <ele>906</ele>
        <time>2017-12-15T20:20:19Z</time>
      </trkpt>
      <trkpt lat="44.69311" lon="5.60219">
        <ele>908</ele>
        <time>2017-12-15T20:20:23Z</time>
      </trkpt>
      <trkpt lat="44.69317" lon="5.60236">
        <ele>910</ele>
        <time>2017-12-15T20:20:39Z</time>
      </trkpt>
      <trkpt lat="44.69319" lon="5.60253">
        <ele>911</ele>
        <time>2017-12-15T20:20:49Z</time>
      </trkpt>
      <trkpt lat="44.69317" lon="5.60279">
        <ele>908</ele>
        <time>2017-12-15T20:20:53Z</time>
      </trkpt>
      <trkpt lat="44.69315" lon="5.60302">
        <ele>907</ele>
        <time>2017-12-15T20:21:08Z</time>
      </trkpt>
      <trkpt lat="44.69318" lon="5.60316">
        <ele>907</ele>
        <time>2017-12-15T20:21:10Z</time>
      </trkpt>
      <trkpt lat="44.69334" lon="5.60352">
        <ele>923</ele>
        <time>2017-12-15T20:21:22Z</time>
      </trkpt>
      <trkpt lat="44.69343" lon="5.60388">
        <ele>925</ele>
        <time>2017-12-15T20:21:28Z</time>
      </trkpt>
      <trkpt lat="44.69347" lon="5.60487">
        <ele>920</ele>
        <time>2017-12-15T20:21:36Z</time>
      </trkpt>
      <trkpt lat="44.6935" lon="5.60502">
        <ele>917</ele>
        <time>2017-12-15T20:21:47Z</time>
      </trkpt>
      <trkpt lat="44.69353" lon="5.60522">
        <ele>918</ele>
        <time>2017-12-15T20:22:05Z</time>
      </trkpt>
      <trkpt lat="44.69354" lon="5.60539">
        <ele>919</ele>
        <time>2017-12-15T20:22:18Z</time>
      </trkpt>
      <trkpt lat="44.69353" lon="5.60572">
        <ele>915</ele>
        <time>2017-12-15T20:22:28Z</time>
      </trkpt>
      <trkpt lat="44.69356" lon="5.60588">
        <ele>912</ele>
        <time>2017-12-15T20:22:41Z</time>
      </trkpt>
      <trkpt lat="44.69362" lon="5.60602">
        <ele>913</ele>
        <time>2017-12-15T20:22:48Z</time>
      </trkpt>
      <trkpt lat="44.69387" lon="5.60641">
        <ele>916</ele>
        <time>2017-12-15T20:22:56Z</time>
      </trkpt>
      <trkpt lat="44.69411" lon="5.60676">
        <ele>918</ele>
        <time>2017-12-15T20:23:11Z</time>
      </trkpt>
      <trkpt lat="44.69419" lon="5.60692">
        <ele>931</ele>
        <time>2017-12-15T20:23:14Z</time>
      </trkpt>
      <trkpt lat="44.69426" lon="5.6071">
        <ele>933</ele>
        <time>2017-12-15T20:23:17Z</time>
      </trkpt>
      <trkpt lat="44.69431" lon="5.60729">
        <ele>931</ele>
        <time>2017-12-15T20:23:31Z</time>
      </trkpt>
      <trkpt lat="44.69439" lon="5.60814">
        <ele>931</ele>
        <time>2017-12-15T20:23:49Z</time>
      </trkpt>
      <trkpt lat="44.6944" lon="5.60847">
        <ele>937</ele>
        <time>2017-12-15T20:24:04Z</time>
      </trkpt>
      <trkpt lat="44.69438" lon="5.60869">
        <ele>940</ele>
        <time>2017-12-15T20:24:15Z</time>
      </trkpt>
      <trkpt lat="44.69423" lon="5.60964">
        <ele>945</ele>
        <time>2017-12-15T20:24:29Z</time>
      </trkpt>
      <trkpt lat="44.69422" lon="5.60984">
        <ele>940</ele>
        <time>2017-12-15T20:24:38Z</time>
      </trkpt>
      <trkpt lat="44.69425" lon="5.61004">
        <ele>934</ele>
        <time>2017-12-15T20:24:57Z</time>
      </trkpt>
      <trkpt lat="44.69434" lon="5.61053">
        <ele>940</ele>
        <time>2017-12-15T20:25:11Z</time>
      </trkpt>
      <trkpt lat="44.69439" lon="5.61071">
        <ele>939</ele>
        <time>2017-12-15T20:25:22Z</time>
      </trkpt>
      <trkpt lat="44.69458" lon="5.61119">
        <ele>935</ele>
        <time>2017-12-15T20:25:24Z</time>
      </trkpt>
      <trkpt lat="44.69471" lon="5.61161">
        <ele>934</ele>
        <time>2017-12-15T20:25:44Z</time>
      </trkpt>
      <trkpt lat="44.6949" lon="5.61213">
        <ele>935</ele>
        <time>2017-12-15T20:25:58Z</time>
      </trkpt>
      <trkpt lat="44.69503" lon="5.6124">
        <ele>932</ele>
        <time>2017-12-15T20:26:11Z</time>
      </trkpt>
      <trkpt lat="44.69528" lon="5.61269">
        <ele>934</ele>
        <time>2017-12-15T20:26:29Z</time>
      </trkpt>
      <trkpt lat="44.69548" lon="5.61282">
        <ele>935</ele>
        <time>2017-12-15T20:26:38Z</time>
      </trkpt>
      <trkpt lat="44.69569" lon="5.61291">
        <ele>935</ele>
        <time>2017-12-15T20:26:57Z</time>
      </trkpt>
      <trkpt lat="44.69603" lon="5.61304">
        <ele>946</ele>
        <time>2017-12-15T20:27:11Z</time>
      </trkpt>
      <trkpt lat="44.69621" lon="5.61318">
        <ele>949</ele>
        <time>2017-12-15T20:27:21Z</time>
      </trkpt>
      <trkpt lat="44.69632" lon="5.61331">
        <ele>951</ele>
        <time>2017-12-15T20:27:32Z</time>
      </trkpt>
      <trkpt lat="44.69642" lon="5.61352">
        <ele>947</ele>
        <time>2017-12-15T20:27:35Z</time>
      </trkpt>
      <trkpt lat="44.69654" lon="5.61396">
        <ele>947</ele>
        <time>2017-12-15T20:27:47Z</time>
      </trkpt>
      <trkpt lat="44.69693" lon="5.61535">
        <ele>959</ele>
        <time>2017-12-15T20:28:05Z</time>
      </trkpt>
      <trkpt lat="44.69707" lon="5.61582">
        <ele>959</ele>
        <time>2017-12-15T20:28:11Z</time>
      </trkpt>
      <trkpt lat="44.69714" lon="5.61597">
        <ele>953</ele>
        <time>2017-12-15T20:28:25Z</time>
      </trkpt>
      <trkpt lat="44.69723" lon="5.61609">
        <ele>953</ele>
        <time>2017-12-15T20:28:34Z</time>
      </trkpt>
      <trkpt lat="44.69732" lon="5.61619">
        <ele>953</ele>
        <time>2017-12-15T20:28:43Z</time>
      </trkpt>
      <trkpt lat="44.69743" lon="5.61627">
        <ele>953</ele>
        <time>2017-12-15T20:28:57Z</time>
      </trkpt>
      <trkpt lat="44.69761" lon="5.61634">
        <ele>964</ele>
        <time>2017-12-15T20:29:09Z</time>
      </trkpt>
      <trkpt lat="44.69794" lon="5.61643">
        <ele>966</ele>
        <time>2017-12-15T20:29:28Z</time>
      </trkpt>
      <trkpt lat="44.69828" lon="5.61651">
        <ele>966</ele>
        <time>2017-12-15T20:29:30Z</time>
      </trkpt>
      <trkpt lat="44.69871" lon="5.61653">
        <ele>977</ele>
        <time>2017-12-15T20:29:46Z</time>
      </trkpt>
      <trkpt lat="44.69907" lon="5.6166">
        <ele>975</ele>
        <time>2017-12-15T20:29:59Z</time>
      </trkpt>
      <trkpt lat="44.69944" lon="5.61664">
        <ele>983</ele>
        <time>2017-12-15T20:30:04Z</time>
      </trkpt>
      <trkpt lat="44.69979" lon="5.61671">
        <ele>978</ele>
        <time>2017-12-15T20:30:19Z</time>
      </trkpt>
      <trkpt lat="44.70008" lon="5.6169">
        <ele>985</ele>
        <time>2017-12-15T20:30:33Z</time>
      </trkpt>
      <trkpt lat="44.7002" lon="5.61696">
        <ele>986</ele>
        <time>2017-12-15T20:30:50Z</time>
      </trkpt>
      <trkpt lat="44.70033" lon="5.61697">
        <ele>987</ele>
        <time>2017-12-15T20:30:58Z</time>
      </trkpt>
      <trkpt lat="44.7006" lon="5.61687">
        <ele>990</ele>
        <time>2017-12-15T20:31:07Z</time>
      </trkpt>
      <trkpt lat="44.70076" lon="5.6168">
        <ele>994</ele>
        <time>2017-12-15T20:31:26Z</time>
      </trkpt>
      <trkpt lat="44.70086" lon="5.6168">
        <ele>1001</ele>
        <time>2017-12-15T20:31:45Z</time>
      </trkpt>
      <trkpt lat="44.70097" lon="5.61686">
        <ele>1001</ele>
        <time>2017-12-15T20:31:53Z</time>
      </trkpt>
      <trkpt lat="44.70107" lon="5.61695">
        <ele>1001</ele>
        <time>2017-12-15T20:32:08Z</time>
      </trkpt>
      <trkpt lat="44.70115" lon="5.61707">
        <ele>1001</ele>
        <time>2017-12-15T20:32:26Z</time>
      </trkpt>
      <trkpt lat="44.70126" lon="5.61731">
        <ele>999</ele>
        <time>2017-12-15T20:32:34Z</time>
      </trkpt>
      <trkpt lat="44.70138" lon="5.61767">
        <ele>995</ele>
        <time>2017-12-15T20:32:40Z</time>
      </trkpt>
      <trkpt lat="44.70154" lon="5.61805">
        <ele>996</ele>
        <time>2017-12-15T20:32:48Z</time>
      </trkpt>
      <trkpt lat="44.70157" lon="5.6182">
        <ele>996</ele>
        <time>2017-12-15T20:32:58Z</time>
      </trkpt>
      <trkpt lat="44.70158" lon="5.61836">
        <ele>1001</ele>
        <time>2017-12-15T20:33:08Z</time>
      </trkpt>
      <trkpt lat="44.70155" lon="5.6185">
        <ele>1005</ele>
        <time>2017-12-15T20:33:13Z</time>
      </trkpt>
      <trkpt lat="44.7015" lon="5.61863">
        <ele>1008</ele>
        <time>2017-12-15T20:33:19Z</time>
      </trkpt>
      <trkpt lat="44.70142" lon="5.61871">
        <ele>1010</ele>
        <time>2017-12-15T20:33:30Z</time>
      </trkpt>
      <trkpt lat="44.70134" lon="5.61873">
        <ele>1011</ele>
        <time>2017-12-15T20:33:41Z</time>
      </trkpt>
      <trkpt lat="44.70125" lon="5.61869">
        <ele>1011</ele>
        <time>2017-12-15T20:34:01Z</time>
      </trkpt>
      <trkpt lat="44.70114" lon="5.61857">
        <ele>1010</ele>
        <time>2017-12-15T20:34:04Z</time>
      </trkpt>
      <trkpt lat="44.70103" lon="5.61835">
        <ele>1008</ele>
        <time>2017-12-15T20:34:09Z</time>
      </trkpt>
      <trkpt lat="44.70094" lon="5.61799">
        <ele>997</ele>
        <time>2017-12-15T20:34:25Z</time>
      </trkpt>
      <trkpt lat="44.70089" lon="5.61791">
        <ele>995</ele>
        <time>2017-12-15T20:34:45Z</time>
      </trkpt>
      <trkpt lat="44.70083" lon="5.61787">
        <ele>997</ele>
        <time>2017-12-15T20:34:48Z</time>
      </trkpt>
      <trkpt lat="44.70072" lon="5.61787">
        <ele>997</ele>
        <time>2017-12-15T20:35:05Z</time>
      </trkpt>
      <trkpt lat="44.70043" lon="5.61792">
        <ele>999</ele>
        <time>2017-12-15T20:35:22Z</time>
      </trkpt>
      <trkpt lat="44.70013" lon="5.61795">
        <ele>1002</ele>
        <time>2017-12-15T20:35:28Z</time>
      </trkpt>
      <trkpt lat="44.6999" lon="5.61786">
        <ele>998</ele>
        <time>2017-12-15T20:35:32Z</time>
      </trkpt>
      <trkpt lat="44.69981" lon="5.61784">
        <ele>997</ele>
        <time>2017-12-15T20:35:50Z</time>
      </trkpt>
      <trkpt lat="44.69973" lon="5.61785">
        <ele>997</ele>
        <time>2017-12-15T20:36:02Z</time>
      </trkpt>
      <trkpt lat="44.69964" lon="5.61789">
        <ele>997</ele>
        <time>2017-12-15T20:36:13Z</time>
      </trkpt>
      <trkpt lat="44.69952" lon="5.61803">
        <ele>1000</ele>
        <time>2017-12-15T20:36:26Z</time>
      </trkpt>
      <trkpt lat="44.69934" lon="5.61822">
        <ele>1004</ele>
        <time>2017-12-15T20:36:28Z</time>
      </trkpt>
      <trkpt lat="44.69902" lon="5.61844">
        <ele>1018</ele>
        <time>2017-12-15T20:36:34Z</time>
      </trkpt>
      <trkpt lat="44.69863" lon="5.61869">
        <ele>1022</ele>
        <time>2017-12-15T20:36:39Z</time>
      </trkpt>
      <trkpt lat="44.69813" lon="5.619">
        <ele>1013</ele>
        <time>2017-12-15T20:36:57Z</time>
      </trkpt>
      <trkpt lat="44.69788" lon="5.61911">
        <ele>1006</ele>
        <time>2017-12-15T20:37:11Z</time>
      </trkpt>
      <trkpt lat="44.69776" lon="5.61921">
        <ele>1024</ele>
        <time>2017-12-15T20:37:30Z</time>
      </trkpt>
      <trkpt lat="44.69769" lon="5.61932">
        <ele>1023</ele>
        <time>2017-12-15T20:37:45Z</time>
      </trkpt>
      <trkpt lat="44.69764" lon="5.61944">
        <ele>1025</ele>
        <time>2017-12-15T20:37:52Z</time>
      </trkpt>
      <trkpt lat="44.69758" lon="5.61974">
        <ele>1031</ele>
        <time>2017-12-15T20:37:56Z</time>
      </trkpt>
      <trkpt lat="44.69751" lon="5.61995">
        <ele>1029</ele>
        <time>2017-12-15T20:38:14Z</time>
      </trkpt>
      <trkpt lat="44.69732" lon="5.62032">
        <ele>1026</ele>
        <time>2017-12-15T20:38:21Z</time>
      </trkpt>
      <trkpt lat="44.69703" lon="5.62067">
        <ele>1024</ele>
        <time>2017-12-15T20:38:23Z</time>
      </trkpt>
      <trkpt lat="44.69629" lon="5.62147">
        <ele>1021</ele>
        <time>2017-12-15T20:38:32Z</time>
      </trkpt>
      <trkpt lat="44.6962" lon="5.62158">
        <ele>1019</ele>
        <time>2017-12-15T20:38:46Z</time>
      </trkpt>
      <trkpt lat="44.69614" lon="5.62171">
        <ele>1042</ele>
        <time>2017-12-15T20:39:04Z</time>
      </trkpt>
      <trkpt lat="44.69609" lon="5.62186">
        <ele>1043</ele>
        <time>2017-12-15T20:39:07Z</time>
      </trkpt>
      <trkpt lat="44.69598" lon="5.62208">
        <ele>1046</ele>
        <time>2017-12-15T20:39:24Z</time>
      </trkpt>
      <trkpt lat="44.69582" lon="5.62234">
        <ele>1022</ele>
        <time>2017-12-15T20:39:34Z</time>
      </trkpt>
      <trkpt lat="44.69566" lon="5.62265">
        <ele>1030</ele>
        <time>2017-12-15T20:39:36Z</time>
      </trkpt>
      <trkpt lat="44.69562" lon="5.62278">
        <ele>1028</ele>
        <time>2017-12-15T20:39:44Z</time>
      </trkpt>
      <trkpt lat="44.69561" lon="5.62292">
        <ele>1029</ele>
        <time>2017-12-15T20:40:03Z</time>
      </trkpt>
      <trkpt lat="44.69559" lon="5.62313">
        <ele>1032</ele>
        <time>2017-12-15T20:40:23Z</time>
      </trkpt>
      <trkpt lat="44.69554" lon="5.62324">
        <ele>1032</ele>
        <time>2017-12-15T20:40:35Z</time>
      </trkpt>
      <trkpt lat="44.69544" lon="5.6234">
        <ele>1032</ele>
        <time>2017-12-15T20:40:45Z</time>
      </trkpt>
      <trkpt lat="44.69543" lon="5.62349">
        <ele>1031</ele>
        <time>2017-12-15T20:40:51Z</time>
      </trkpt>
      <trkpt lat="44.69546" lon="5.62356">
        <ele>1032</ele>
        <time>2017-12-15T20:41:03Z</time>
      </trkpt>
      <trkpt lat="44.69552" lon="5.62359">
        <ele>1033</ele>
        <time>2017-12-15T20:41:19Z</time>
      </trkpt>
      <trkpt lat="44.69567" lon="5.62363">
        <ele>1037</ele>
        <time>2017-12-15T20:41:23Z</time>
      </trkpt>
      <trkpt lat="44.69576" lon="5.62368">
        <ele>1037</ele>
        <time>2017-12-15T20:41:43Z</time>
      </trkpt>
      <trkpt lat="44.69593" lon="5.62387">
        <ele>1063</ele>
        <time>2017-12-15T20:41:51Z</time>
      </trkpt>
      <trkpt lat="44.69617" lon="5.62417">
        <ele>1058</ele>
        <time>2017-12-15T20:41:54Z</time>
      </trkpt>
      <trkpt lat="44.69628" lon="5.62433">
        <ele>1062</ele>
        <time>2017-12-15T20:42:12Z</time>
      </trkpt>
      <trkpt lat="44.69634" lon="5.62447">
        <ele>1063</ele>
        <time>2017-12-15T20:42:15Z</time>
      </trkpt>
      <trkpt lat="44.69638" lon="5.62473">
        <ele>1063</ele>
        <time>2017-12-15T20:42:21Z</time>
      </trkpt>
      <trkpt lat="44.69641" lon="5.62519">
        <ele>1060</ele>
        <time>2017-12-15T20:42:24Z</time>
      </trkpt>
      <trkpt lat="44.69639" lon="5.62584">
        <ele>1066</ele>
        <time>2017-12-15T20:42:29Z</time>
      </trkpt>
      <trkpt lat="44.69639" lon="5.62608">
        <ele>1065</ele>
        <time>2017-12-15T20:42:47Z</time>
      </trkpt>
      <trkpt lat="44.69643" lon="5.62626">
        <ele>1067</ele>
        <time>2017-12-15T20:42:50Z</time>
      </trkpt>
      <trkpt lat="44.69644" lon="5.62641">
        <ele>1071</ele>
        <time>2017-12-15T20:42:54Z</time>
      </trkpt>
      <trkpt lat="44.69642" lon="5.62653">
        <ele>1072</ele>
        <time>2017-12-15T20:42:57Z</time>
      </trkpt>
      <trkpt lat="44.69636" lon="5.62665">
        <ele>1070</ele>
        <time>2017-12-15T20:43:10Z</time>
      </trkpt>
      <trkpt lat="44.69612" lon="5.62692">
        <ele>1074</ele>
        <time>2017-12-15T20:43:21Z</time>
      </trkpt>
      <trkpt lat="44.69599" lon="5.6271">
        <ele>1075</ele>
        <time>2017-12-15T20:43:35Z</time>
      </trkpt>
      <trkpt lat="44.69593" lon="5.62725">
        <ele>1075</ele>
        <time>2017-12-15T20:43:39Z</time>
      </trkpt>
      <trkpt lat="44.69574" lon="5.62808">
        <ele>1064</ele>
        <time>2017-12-15T20:43:46Z</time>
      </trkpt>
      <trkpt lat="44.69553" lon="5.62889">
        <ele>1069</ele>
        <time>2017-12-15T20:43:48Z</time>
      </trkpt>
      <trkpt lat="44.69547" lon="5.62947">
        <ele>1072</ele>
        <time>2017-12-15T20:43:58Z</time>
      </trkpt>
      <trkpt lat="44.69547" lon="5.62963">
        <ele>1072</ele>
        <time>2017-12-15T20:44:05Z</time>
      </trkpt>
      <trkpt lat="44.6955" lon="5.62978">
        <ele>1073</ele>
        <time>2017-12-15T20:44:23Z</time>
      </trkpt>
      <trkpt lat="44.69556" lon="5.62991">
        <ele>1075</ele>
        <time>2017-12-15T20:44:30Z</time>
      </trkpt>
      <trkpt lat="44.69567" lon="5.63004">
        <ele>1078</ele>
        <time>2017-12-15T20:44:44Z</time>
      </trkpt>
      <trkpt lat="44.69576" lon="5.63017">
        <ele>1077</ele>
        <time>2017-12-15T20:45:03Z</time>
      </trkpt>
      <trkpt lat="44.69584" lon="5.63043">
        <ele>1090</ele>
        <time>2017-12-15T20:45:17Z</time>
      </trkpt>
      <trkpt lat="44.69592" lon="5.63054">
        <ele>1089</ele>
        <time>2017-12-15T20:45:35Z</time>
      </trkpt>
      <trkpt lat="44.69599" lon="5.6306">
        <ele>1089</ele>
        <time>2017-12-15T20:45:52Z</time>
      </trkpt>
      <trkpt lat="44.69612" lon="5.63063">
        <ele>1091</ele>
        <time>2017-12-15T20:45:57Z</time>
      </trkpt>
      <trkpt lat="44.69622" lon="5.63062">
        <ele>1094</ele>
        <time>2017-12-15T20:46:08Z</time>
      </trkpt>
      <trkpt lat="44.69641" lon="5.63055">
        <ele>1098</ele>
        <time>2017-12-15T20:46:27Z</time>
      </trkpt>
      <trkpt lat="44.69651" lon="5.6306">
        <ele>1099</ele>
        <time>2017-12-15T20:46:41Z</time>
      </trkpt>
      <trkpt lat="44.69655" lon="5.63068">
        <ele>1099</ele>
        <time>2017-12-15T20:46:49Z</time>
      </trkpt>
      <trkpt lat="44.69655" lon="5.63079">
        <ele>1100</ele>
        <time>2017-12-15T20:46:52Z</time>
      </trkpt>
      <trkpt lat="44.6965" lon="5.63111">
        <ele>1093</ele>
        <time>2017-12-15T20:47:02Z</time>
      </trkpt>
      <trkpt lat="44.69649" lon="5.63174">
        <ele>1099</ele>
        <time>2017-12-15T20:47:20Z</time>
      </trkpt>
      <trkpt lat="44.69641" lon="5.63218">
        <ele>1096</ele>
        <time>2017-12-15T20:47:34Z</time>
      </trkpt>
      <trkpt lat="44.69629" lon="5.63279">
        <ele>1098</ele>
        <time>2017-12-15T20:47:47Z</time>
      </trkpt>
      <trkpt lat="44.69632" lon="5.63318">
        <ele>1100</ele>
        <time>2017-12-15T20:48:00Z</time>
      </trkpt>
      <trkpt lat="44.69647" lon="5.63381">
        <ele>1107</ele>
        <time>2017-12-15T20:48:20Z</time>
      </trkpt>
      <trkpt lat="44.6965" lon="5.63397">
        <ele>1109</ele>
        <time>2017-12-15T20:48:32Z</time>
      </trkpt>
      <trkpt lat="44.69649" lon="5.63413">
        <ele>1110</ele>
        <time>2017-12-15T20:48:44Z</time>
      </trkpt>
      <trkpt lat="44.69646" lon="5.63428">
        <ele>1115</ele>
        <time>2017-12-15T20:48:56Z</time>
      </trkpt>
      <trkpt lat="44.6964" lon="5.63441">
        <ele>1114</ele>
        <time>2017-12-15T20:49:11Z</time>
      </trkpt>
      <trkpt lat="44.69629" lon="5.63455">
        <ele>1114</ele>
        <time>2017-12-15T20:49:18Z</time>
      </trkpt>
      <trkpt lat="44.69589" lon="5.63486">
        <ele>1112</ele>
        <time>2017-12-15T20:49:25Z</time>
      </trkpt>
      <trkpt lat="44.69572" lon="5.63505">
        <ele>1107</ele>
        <time>2017-12-15T20:49:34Z</time>
      </trkpt>
      <trkpt lat="44.69566" lon="5.63523">
        <ele>1104</ele>
        <time>2017-12-15T20:49:47Z</time>
      </trkpt>
      <trkpt lat="44.69567" lon="5.63532">
        <ele>1104</ele>
        <time>2017-12-15T20:49:55Z</time>
      </trkpt>
      <trkpt lat="44.69586" lon="5.63588">
        <ele>1117</ele>
        <time>2017-12-15T20:50:07Z</time>
      </trkpt>
      <trkpt lat="44.69626" lon="5.63729">
        <ele>1122</ele>
        <time>2017-12-15T20:50:27Z</time>
      </trkpt>
      <trkpt lat="44.69641" lon="5.63782">
        <ele>1125</ele>
        <time>2017-12-15T20:50:34Z</time>
      </trkpt>
      <trkpt lat="44.69646" lon="5.63807">
        <ele>1126</ele>
        <time>2017-12-15T20:50:51Z</time>
      </trkpt>
      <trkpt lat="44.69649" lon="5.63836">
        <ele>1130</ele>
        <time>2017-12-15T20:51:10Z</time>
      </trkpt>
      <trkpt lat="44.69648" lon="5.63875">
        <ele>1129</ele>
        <time>2017-12-15T20:51:20Z</time>
      </trkpt>
      <trkpt lat="44.69645" lon="5.63941">
        <ele>1134</ele>
        <time>2017-12-15T20:51:36Z</time>
      </trkpt>
      <trkpt lat="44.69646" lon="5.64036">
        <ele>1138</ele>
        <time>2017-12-15T20:51:41Z</time>
      </trkpt>
      <trkpt lat="44.69656" lon="5.64131">
        <ele>1143</ele>
        <time>2017-12-15T20:51:51Z</time>
      </trkpt>
      <trkpt lat="44.6967" lon="5.64193">
        <ele>1154</ele>
        <time>2017-12-15T20:52:09Z</time>
      </trkpt>
      <trkpt lat="44.69673" lon="5.64218">
        <ele>1154</ele>
        <time>2017-12-15T20:52:16Z</time>
      </trkpt>
      <trkpt lat="44.69673" lon="5.64244">
        <ele>1149</ele>
        <time>2017-12-15T20:52:29Z</time>
      </trkpt>
      <trkpt lat="44.69661" lon="5.64407">
        <ele>1159</ele>
        <time>2017-12-15T20:52:38Z</time>
      </trkpt>
      <trkpt lat="44.69661" lon="5.6444">
        <ele>1163</ele>
        <time>2017-12-15T20:52:52Z</time>
      </trkpt>
      <trkpt lat="44.69663" lon="5.64476">
        <ele>1164</ele>
        <time>2017-12-15T20:52:59Z</time>
      </trkpt>
      <trkpt lat="44.69667" lon="5.64501">
        <ele>1165</ele>
        <time>2017-12-15T20:53:05Z</time>
      </trkpt>
      <trkpt lat="44.6967" lon="5.64508">
        <ele>1168</ele>
        <time>2017-12-15T20:53:20Z</time>
      </trkpt>
      <trkpt lat="44.69674" lon="5.6451">
        <ele>1170</ele>
        <time>2017-12-15T20:53:26Z</time>
      </trkpt>
      <trkpt lat="44.69678" lon="5.64508">
        <ele>1170</ele>
        <time>2017-12-15T20:53:37Z</time>
      </trkpt>
      <trkpt lat="44.69681" lon="5.645">
        <ele>1171</ele>
        <time>2017-12-15T20:53:40Z</time>
      </trkpt>
      <trkpt lat="44.69681" lon="5.6449">
        <ele>1171</ele>
        <time>2017-12-15T20:53:46Z</time>
      </trkpt>
      <trkpt lat="44.69675" lon="5.6444">
        <ele>1171</ele>
        <time>2017-12-15T20:53:54Z</time>
      </trkpt>
      <trkpt lat="44.69676" lon="5.64421">
        <ele>1167</ele>
        <time>2017-12-15T20:53:56Z</time>
      </trkpt>
      <trkpt lat="44.69683" lon="5.64383">
        <ele>1169</ele>
        <time>2017-12-15T20:54:09Z</time>
      </trkpt>
      <trkpt lat="44.69694" lon="5.64336">
        <ele>1167</ele>
        <time>2017-12-15T20:54:11Z</time>
      </trkpt>
      <trkpt lat="44.69703" lon="5.64311">
        <ele>1164</ele>
        <time>2017-12-15T20:54:26Z</time>
      </trkpt>
      <trkpt lat="44.69712" lon="5.64298">
        <ele>1165</ele>
        <time>2017-12-15T20:54:44Z</time>
      </trkpt>
      <trkpt lat="44.69733" lon="5.64278">
        <ele>1167</ele>
        <time>2017-12-15T20:54:58Z</time>
      </trkpt>
      <trkpt lat="44.6974" lon="5.64265">
        <ele>1169</ele>
        <time>2017-12-15T20:55:12Z</time>
      </trkpt>
      <trkpt lat="44.69744" lon="5.64249">
        <ele>1171</ele>
        <time>2017-12-15T20:55:18Z</time>
      </trkpt>
      <trkpt lat="44.69743" lon="5.64233">
        <ele>1168</ele>
        <time>2017-12-15T20:55:37Z</time>
      </trkpt>
      <trkpt lat="44.69739" lon="5.64214">
        <ele>1166</ele>
        <time>2017-12-15T20:55:44Z</time>
      </trkpt>
      <trkpt lat="44.69721" lon="5.64164">
        <ele>1166</ele>
        <time>2017-12-15T20:55:54Z</time>
      </trkpt>
      <trkpt lat="44.69716" lon="5.64137">
        <ele>1164</ele>
        <time>2017-12-15T20:56:08Z</time>
      </trkpt>
      <trkpt lat="44.69713" lon="5.64097">
        <ele>1164</ele>
        <time>2017-12-15T20:56:18Z</time>
      </trkpt>
      <trkpt lat="44.69715" lon="5.64047">
        <ele>1165</ele>
        <time>2017-12-15T20:56:36Z</time>
      </trkpt>
      <trkpt lat="44.69722" lon="5.63979">
        <ele>1165</ele>
        <time>2017-12-15T20:56:45Z</time>
      </trkpt>
      <trkpt lat="44.69726" lon="5.63956">
        <ele>1165</ele>
        <time>2017-12-15T20:57:02Z</time>
      </trkpt>
      <trkpt lat="44.69732" lon="5.63936">
        <ele>1167</ele>
        <time>2017-12-15T20:57:15Z</time>
      </trkpt>
      <trkpt lat="44.69746" lon="5.63892">
        <ele>1166</ele>
        <time>2017-12-15T20:57:19Z</time>
      </trkpt>
      <trkpt lat="44.69751" lon="5.63853">
        <ele>1184</ele>
        <time>2017-12-15T20:57:36Z</time>
      </trkpt>
      <trkpt lat="44.69751" lon="5.63829">
        <ele>1178</ele>
        <time>2017-12-15T20:57:42Z</time>
      </trkpt>
      <trkpt lat="44.69754" lon="5.63808">
        <ele>1183</ele>
        <time>2017-12-15T20:57:53Z</time>
      </trkpt>
      <trkpt lat="44.69759" lon="5.63795">
        <ele>1184</ele>
        <time>2017-12-15T20:58:07Z</time>
      </trkpt>
      <trkpt lat="44.69767" lon="5.63784">
        <ele>1184</ele>
        <time>2017-12-15T20:58:18Z</time>
      </trkpt>
      <trkpt lat="44.69796" lon="5.63758">
        <ele>1188</ele>
        <time>2017-12-15T20:58:38Z</time>
      </trkpt>
      <trkpt lat="44.69808" lon="5.63744">
        <ele>1190</ele>
        <time>2017-12-15T20:58:49Z</time>
      </trkpt>
      <trkpt lat="44.69821" lon="5.63719">
        <ele>1190</ele>
        <time>2017-12-15T20:59:01Z</time>
      </trkpt>
      <trkpt lat="44.69825" lon="5.63704">
        <ele>1190</ele>
        <time>2017-12-15T20:59:03Z</time>
      </trkpt>
      <trkpt lat="44.69827" lon="5.63678">
        <ele>1194</ele>
        <time>2017-12-15T20:59:12Z</time>
      </trkpt>
      <trkpt lat="44.69825" lon="5.63609">
        <ele>1188</ele>
        <time>2017-12-15T20:59:18Z</time>
      </trkpt>
      <trkpt lat="44.69828" lon="5.63592">
        <ele>1191</ele>
        <time>2017-12-15T20:59:32Z</time>
      </trkpt>
      <trkpt lat="44.69834" lon="5.63576">
        <ele>1198</ele>
        <time>2017-12-15T20:59:38Z</time>
      </trkpt>
      <trkpt lat="44.69844" lon="5.63563">
        <ele>1202</ele>
        <time>2017-12-15T20:59:51Z</time>
      </trkpt>
      <trkpt lat="44.6987" lon="5.63533">
        <ele>1206</ele>
        <time>2017-12-15T21:00:08Z</time>
      </trkpt>
      <trkpt lat="44.69879" lon="5.63517">
        <ele>1207</ele>
        <time>2017-12-15T21:00:25Z</time>
      </trkpt>
      <trkpt lat="44.69887" lon="5.635">
        <ele>1206</ele>
        <time>2017-12-15T21:00:32Z</time>
      </trkpt>
      <trkpt lat="44.69892" lon="5.6348">
        <ele>1206</ele>
        <time>2017-12-15T21:00:36Z</time>
      </trkpt>
      <trkpt lat="44.69894" lon="5.63459">
        <ele>1206</ele>
        <time>2017-12-15T21:00:54Z</time>
      </trkpt>
      <trkpt lat="44.69892" lon="5.63426">
        <ele>1208</ele>
        <time>2017-12-15T21:01:10Z</time>
      </trkpt>
      <trkpt lat="44.69888" lon="5.63378">
        <ele>1205</ele>
        <time>2017-12-15T21:01:17Z</time>
      </trkpt>
      <trkpt lat="44.69888" lon="5.63345">
        <ele>1206</ele>
        <time>2017-12-15T21:01:28Z</time>
      </trkpt>
      <trkpt lat="44.6989" lon="5.63333">
        <ele>1206</ele>
        <time>2017-12-15T21:01:48Z</time>
      </trkpt>
      <trkpt lat="44.69894" lon="5.6333">
        <ele>1207</ele>
        <time>2017-12-15T21:02:07Z</time>
      </trkpt>
      <trkpt lat="44.69899" lon="5.63331">
        <ele>1209</ele>
        <time>2017-12-15T21:02:21Z</time>
      </trkpt>
      <trkpt lat="44.699" lon="5.63335">
        <ele>1211</ele>
        <time>2017-12-15T21:02:29Z</time>
      </trkpt>
      <trkpt lat="44.69899" lon="5.63376">
        <ele>1207</ele>
        <time>2017-12-15T21:02:41Z</time>
      </trkpt>
      <trkpt lat="44.69902" lon="5.6339">
        <ele>1208</ele>
        <time>2017-12-15T21:02:43Z</time>
      </trkpt>
      <trkpt lat="44.69923" lon="5.63451">
        <ele>1231</ele>
        <time>2017-12-15T21:02:46Z</time>
      </trkpt>
      <trkpt lat="44.69927" lon="5.63468">
        <ele>1231</ele>
        <time>2017-12-15T21:02:52Z</time>
      </trkpt>
      <trkpt lat="44.69927" lon="5.63486">
        <ele>1228</ele>
        <time>2017-12-15T21:03:01Z</time>
      </trkpt>
      <trkpt lat="44.69925" lon="5.63504">
        <ele>1227</ele>
        <time>2017-12-15T21:03:09Z</time>
      </trkpt>
      <trkpt lat="44.69919" lon="5.63521">
        <ele>1233</ele>
        <time>2017-12-15T21:03:25Z</time>
      </trkpt>
      <trkpt lat="44.69893" lon="5.63566">
        <ele>1215</ele>
        <time>2017-12-15T21:03:38Z</time>
      </trkpt>
      <trkpt lat="44.69886" lon="5.63581">
        <ele>1215</ele>
        <time>2017-12-15T21:03:58Z</time>
      </trkpt>
      <trkpt lat="44.69878" lon="5.63607">
        <ele>1219</ele>
        <time>2017-12-15T21:04:07Z</time>
      </trkpt>
      <trkpt lat="44.69878" lon="5.63654">
        <ele>1221</ele>
        <time>2017-12-15T21:04:26Z</time>
      </trkpt>
      <trkpt lat="44.69882" lon="5.63673">
        <ele>1224</ele>
        <time>2017-12-15T21:04:40Z</time>
      </trkpt>
      <trkpt lat="44.69888" lon="5.63691">
        <ele>1225</ele>
        <time>2017-12-15T21:04:49Z</time>
      </trkpt>
      <trkpt lat="44.699" lon="5.63718">
        <ele>1226</ele>
        <time>2017-12-15T21:05:08Z</time>
      </trkpt>
      <trkpt lat="44.69918" lon="5.63767">
        <ele>1244</ele>
        <time>2017-12-15T21:05:27Z</time>
      </trkpt>
      <trkpt lat="44.69934" lon="5.6382">
        <ele>1243</ele>
        <time>2017-12-15T21:05:40Z</time>
      </trkpt>
      <trkpt lat="44.69942" lon="5.63864">
        <ele>1244</ele>
        <time>2017-12-15T21:05:44Z</time>
      </trkpt>
      <trkpt lat="44.69961" lon="5.64043">
        <ele>1247</ele>
        <time>2017-12-15T21:05:56Z</time>
      </trkpt>
      <trkpt lat="44.69988" lon="5.6416">
        <ele>1252</ele>
        <time>2017-12-15T21:06:08Z</time>
      </trkpt>
      <trkpt lat="44.70015" lon="5.64235">
        <ele>1261</ele>
        <time>2017-12-15T21:06:14Z</time>
      </trkpt>
      <trkpt lat="44.70027" lon="5.64316">
        <ele>1262</ele>
        <time>2017-12-15T21:06:16Z</time>
      </trkpt>
      <trkpt lat="44.70034" lon="5.64376">
        <ele>1264</ele>
        <time>2017-12-15T21:06:33Z</time>
      </trkpt>
      <trkpt lat="44.70035" lon="5.64422">
        <ele>1265</ele>
        <time>2017-12-15T21:06:45Z</time>
      </trkpt>
      <trkpt lat="44.7004" lon="5.64453">
        <ele>1267</ele>
        <time>2017-12-15T21:06:47Z</time>
      </trkpt>
      <trkpt lat="44.7006" lon="5.64498">
        <ele>1271</ele>
        <time>2017-12-15T21:07:06Z</time>
      </trkpt>
      <trkpt lat="44.70072" lon="5.64532">
        <ele>1271</ele>
        <time>2017-12-15T21:07:19Z</time>
      </trkpt>
      <trkpt lat="44.70075" lon="5.64549">
        <ele>1271</ele>
        <time>2017-12-15T21:07:31Z</time>
      </trkpt>
      <trkpt lat="44.70074" lon="5.64563">
        <ele>1271</ele>
        <time>2017-12-15T21:07:33Z</time>
      </trkpt>
      <trkpt lat="44.70061" lon="5.64607">
        <ele>1272</ele>
        <time>2017-12-15T21:07:39Z</time>
      </trkpt>
      <trkpt lat="44.70054" lon="5.64678">
        <ele>1276</ele>
        <time>2017-12-15T21:07:51Z</time>
      </trkpt>
      <trkpt lat="44.70052" lon="5.64722">
        <ele>1276</ele>
        <time>2017-12-15T21:08:08Z</time>
      </trkpt>
      <trkpt lat="44.70054" lon="5.6474">
        <ele>1277</ele>
        <time>2017-12-15T21:08:12Z</time>
      </trkpt>
      <trkpt lat="44.70058" lon="5.6476">
        <ele>1277</ele>
        <time>2017-12-15T21:08:21Z</time>
      </trkpt>
      <trkpt lat="44.70067" lon="5.64779">
        <ele>1277</ele>
        <time>2017-12-15T21:08:39Z</time>
      </trkpt>
      <trkpt lat="44.7008" lon="5.64795">
        <ele>1277</ele>
        <time>2017-12-15T21:08:52Z</time>
      </trkpt>
      <trkpt lat="44.70095" lon="5.64807">
        <ele>1288</ele>
        <time>2017-12-15T21:09:02Z</time>
      </trkpt>
      <trkpt lat="44.70112" lon="5.64818">
        <ele>1290</ele>
        <time>2017-12-15T21:09:14Z</time>
      </trkpt>
      <trkpt lat="44.70131" lon="5.64832">
        <ele>1293</ele>
        <time>2017-12-15T21:09:17Z</time>
      </trkpt>
      <trkpt lat="44.7014" lon="5.64856">
        <ele>1295</ele>
        <time>2017-12-15T21:09:33Z</time>
      </trkpt>
      <trkpt lat="44.70142" lon="5.64874">
        <ele>1295</ele>
        <time>2017-12-15T21:09:41Z</time>
      </trkpt>
      <trkpt lat="44.70138" lon="5.64897">
        <ele>1296</ele>
        <time>2017-12-15T21:09:46Z</time>
      </trkpt>
      <trkpt lat="44.7013" lon="5.64905">
        <ele>1295</ele>
        <time>2017-12-15T21:09:51Z</time>
      </trkpt>
      <trkpt lat="44.70113" lon="5.6491">
        <ele>1293</ele>
        <time>2017-12-15T21:10:06Z</time>
      </trkpt>
      <trkpt lat="44.70078" lon="5.6492">
        <ele>1290</ele>
        <time>2017-12-15T21:10:14Z</time>
      </trkpt>
      <trkpt lat="44.70068" lon="5.64927">
        <ele>1291</ele>
        <time>2017-12-15T21:10:26Z</time>
      </trkpt>
      <trkpt lat="44.70057" lon="5.64945">
        <ele>1292</ele>
        <time>2017-12-15T21:10:28Z</time>
      </trkpt>
      <trkpt lat="44.70044" lon="5.64972">
        <ele>1295</ele>
        <time>2017-12-15T21:10:39Z</time>
      </trkpt>
      <trkpt lat="44.70026" lon="5.65001">
        <ele>1305</ele>
        <time>2017-12-15T21:10:55Z</time>
      </trkpt>
      <trkpt lat="44.70017" lon="5.65009">
        <ele>1304</ele>
        <time>2017-12-15T21:10:57Z</time>
      </trkpt>
      <trkpt lat="44.70003" lon="5.65015">
        <ele>1303</ele>
        <time>2017-12-15T21:11:14Z</time>
      </trkpt>
      <trkpt lat="44.69965" lon="5.65009">
        <ele>1300</ele>
        <time>2017-12-15T21:11:30Z</time>
      </trkpt>
      <trkpt lat="44.69946" lon="5.65015">
        <ele>1299</ele>
        <time>2017-12-15T21:11:35Z</time>
      </trkpt>
      <trkpt lat="44.69928" lon="5.6503">
        <ele>1300</ele>
        <time>2017-12-15T21:11:44Z</time>
      </trkpt>
      <trkpt lat="44.69918" lon="5.65039">
        <ele>1301</ele>
        <time>2017-12-15T21:11:51Z</time>
      </trkpt>
      <trkpt lat="44.69907" lon="5.65044">
        <ele>1298</ele>
        <time>2017-12-15T21:12:06Z</time>
      </trkpt>
      <trkpt lat="44.69893" lon="5.65051">
        <ele>1299</ele>
        <time>2017-12-15T21:12:18Z</time>
      </trkpt>
      <trkpt lat="44.69879" lon="5.65053">
        <ele>1298</ele>
        <time>2017-12-15T21:12:33Z</time>
      </trkpt>
      <trkpt lat="44.69853" lon="5.65058">
        <ele>1298</ele>
        <time>2017-12-15T21:12:48Z</time>
      </trkpt>
      <trkpt lat="44.69833" lon="5.65067">
        <ele>1299</ele>
        <time>2017-12-15T21:13:08Z</time>
      </trkpt>
      <trkpt lat="44.69814" lon="5.65072">
        <ele>1298</ele>
        <time>2017-12-15T21:13:15Z</time>
      </trkpt>
      <trkpt lat="44.69796" lon="5.65076">
        <ele>1297</ele>
        <time>2017-12-15T21:13:35Z</time>
      </trkpt>
      <trkpt lat="44.69768" lon="5.6508">
        <ele>1299</ele>
        <time>2017-12-15T21:13:40Z</time>
      </trkpt>
      <trkpt lat="44.6974" lon="5.65079">
        <ele>1300</ele>
        <time>2017-12-15T21:13:52Z</time>
      </trkpt>
      <trkpt lat="44.6971" lon="5.65079">
        <ele>1293</ele>
        <time>2017-12-15T21:14:11Z</time>
      </trkpt>
      <trkpt lat="44.6969" lon="5.65083">
        <ele>1292</ele>
        <time>2017-12-15T21:14:26Z</time>
      </trkpt>
      <trkpt lat="44.69676" lon="5.65089">
        <ele>1303</ele>
        <time>2017-12-15T21:14:41Z</time>
      </trkpt>
      <trkpt lat="44.69665" lon="5.65098">
        <ele>1300</ele>
        <time>2017-12-15T21:14:53Z</time>
      </trkpt>
      <trkpt lat="44.69653" lon="5.65114">
        <ele>1303</ele>
        <time>2017-12-15T21:15:13Z</time>
      </trkpt>
      <trkpt lat="44.69627" lon="5.65164">
        <ele>1308</ele>
        <time>2017-12-15T21:15:28Z</time>
      </trkpt>
      <trkpt lat="44.69613" lon="5.65183">
        <ele>1320</ele>
        <time>2017-12-15T21:15:30Z</time>
      </trkpt>
      <trkpt lat="44.69599" lon="5.65197">
        <ele>1321</ele>
        <time>2017-12-15T21:15:44Z</time>
      </trkpt>
      <trkpt lat="44.69583" lon="5.65207">
        <ele>1313</ele>
        <time>2017-12-15T21:16:02Z</time>
      </trkpt>
      <trkpt lat="44.69563" lon="5.65217">
        <ele>1314</ele>
        <time>2017-12-15T21:16:06Z</time>
      </trkpt>
      <trkpt lat="44.69526" lon="5.65231">
        <ele>1312</ele>
        <time>2017-12-15T21:16:14Z</time>
      </trkpt>
      <trkpt lat="44.69501" lon="5.65243">
        <ele>1312</ele>
        <time>2017-12-15T21:16:23Z</time>
      </trkpt>
      <trkpt lat="44.69448" lon="5.65276">
        <ele>1319</ele>
        <time>2017-12-15T21:16:29Z</time>
      </trkpt>
      <trkpt lat="44.69378" lon="5.65313">
        <ele>1315</ele>
        <time>2017-12-15T21:16:31Z</time>
      </trkpt>
      <trkpt lat="44.69318" lon="5.65338">
        <ele>1322</ele>
        <time>2017-12-15T21:16:50Z</time>
      </trkpt>
      <trkpt lat="44.69307" lon="5.65341">
        <ele>1322</ele>
        <time>2017-12-15T21:16:58Z</time>
      </trkpt>
      <trkpt lat="44.69257" lon="5.65356">
        <ele>1320</ele>
        <time>2017-12-15T21:17:11Z</time>
      </trkpt>
      <trkpt lat="44.69189" lon="5.6537">
        <ele>1319</ele>
        <time>2017-12-15T21:17:14Z</time>
      </trkpt>
      <trkpt lat="44.69164" lon="5.65378">
        <ele>1321</ele>
        <time>2017-12-15T21:17:17Z</time>
      </trkpt>
      <trkpt lat="44.69141" lon="5.65398">
        <ele>1321</ele>
        <time>2017-12-15T21:17:27Z</time>
      </trkpt>
      <trkpt lat="44.69134" lon="5.65408">
        <ele>1320</ele>
        <time>2017-12-15T21:17:43Z</time>
      </trkpt>
      <trkpt lat="44.69128" lon="5.6542">
        <ele>1318</ele>
        <time>2017-12-15T21:17:54Z</time>
      </trkpt>
      <trkpt lat="44.69124" lon="5.65435">
        <ele>1317</ele>
        <time>2017-12-15T21:18:05Z</time>
      </trkpt>
      <trkpt lat="44.69122" lon="5.65454">
        <ele>1317</ele>
        <time>2017-12-15T21:18:11Z</time>
      </trkpt>
      <trkpt lat="44.69119" lon="5.65498">
        <ele>1316</ele>
        <time>2017-12-15T21:18:18Z</time>
      </trkpt>
      <trkpt lat="44.69111" lon="5.65526">
        <ele>1318</ele>
        <time>2017-12-15T21:18:33Z</time>
      </trkpt>
      <trkpt lat="44.69082" lon="5.65603">
        <ele>1306</ele>
        <time>2017-12-15T21:18:49Z</time>
      </trkpt>
      <trkpt lat="44.69073" lon="5.65623">
        <ele>1306</ele>
        <time>2017-12-15T21:19:08Z</time>
      </trkpt>
      <trkpt lat="44.69057" lon="5.65648">
        <ele>1306</ele>
        <time>2017-12-15T21:19:23Z</time>
      </trkpt>
      <trkpt lat="44.68991" lon="5.65744">
        <ele>1296</ele>
        <time>2017-12-15T21:19:33Z</time>
      </trkpt>
      <trkpt lat="44.68962" lon="5.65795">
        <ele>1294</ele>
        <time>2017-12-15T21:19:37Z</time>
      </trkpt>
      <trkpt lat="44.68943" lon="5.65838">
        <ele>1300</ele>
        <time>2017-12-15T21:19:49Z</time>
      </trkpt>
      <trkpt lat="44.68927" lon="5.65878">
        <ele>1303</ele>
        <time>2017-12-15T21:20:06Z</time>
      </trkpt>
      <trkpt lat="44.68909" lon="5.65914">
        <ele>1286</ele>
        <time>2017-12-15T21:20:14Z</time>
      </trkpt>
      <trkpt lat="44.68887" lon="5.65954">
        <ele>1281</ele>
        <time>2017-12-15T21:20:29Z</time>
      </trkpt>
      <trkpt lat="44.68876" lon="5.65975">
        <ele>1280</ele>
        <time>2017-12-15T21:20:36Z</time>
      </trkpt>
      <trkpt lat="44.6887" lon="5.65994">
        <ele>1278</ele>
        <time>2017-12-15T21:20:44Z</time>
      </trkpt>
      <trkpt lat="44.68854" lon="5.66049">
        <ele>1289</ele>
        <time>2017-12-15T21:21:01Z</time>
      </trkpt>
      <trkpt lat="44.6884" lon="5.66105">
        <ele>1292</ele>
        <time>2017-12-15T21:21:18Z</time>
      </trkpt>
      <trkpt lat="44.68827" lon="5.66162">
        <ele>1273</ele>
        <time>2017-12-15T21:21:24Z</time>
      </trkpt>
      <trkpt lat="44.68823" lon="5.66196">
        <ele>1265</ele>
        <time>2017-12-15T21:21:35Z</time>
      </trkpt>
      <trkpt lat="44.68825" lon="5.66233">
        <ele>1267</ele>
        <time>2017-12-15T21:21:55Z</time>
      </trkpt>
      <trkpt lat="44.68833" lon="5.6627">
        <ele>1262</ele>
        <time>2017-12-15T21:22:04Z</time>
      </trkpt>
      <trkpt lat="44.68845" lon="5.66315">
        <ele>1278</ele>
        <time>2017-12-15T21:22:13Z</time>
      </trkpt>
      <trkpt lat="44.68854" lon="5.6633">
        <ele>1278</ele>
        <time>2017-12-15T21:22:17Z</time>
      </trkpt>
      <trkpt lat="44.68868" lon="5.66339">
        <ele>1271</ele>
        <time>2017-12-15T21:22:19Z</time>
      </trkpt>
      <trkpt lat="44.6889" lon="5.66358">
        <ele>1276</ele>
        <time>2017-12-15T21:22:26Z</time>
      </trkpt>
      <trkpt lat="44.68907" lon="5.66393">
        <ele>1273</ele>
        <time>2017-12-15T21:22:31Z</time>
      </trkpt>
      <trkpt lat="44.68914" lon="5.66437">
        <ele>1263</ele>
        <time>2017-12-15T21:22:47Z</time>
      </trkpt>
      <trkpt lat="44.68916" lon="5.66465">
        <ele>1259</ele>
        <time>2017-12-15T21:22:57Z</time>
      </trkpt>
      <trkpt lat="44.6891" lon="5.66494">
        <ele>1265</ele>
        <time>2017-12-15T21:23:00Z</time>
      </trkpt>
      <trkpt lat="44.68872" lon="5.66615">
        <ele>1251</ele>
        <time>2017-12-15T21:23:18Z</time>
      </trkpt>
      <trkpt lat="44.68843" lon="5.66681">
        <ele>1239</ele>
        <time>2017-12-15T21:23:25Z</time>
      </trkpt>
      <trkpt lat="44.68836" lon="5.66702">
        <ele>1241</ele>
        <time>2017-12-15T21:23:39Z</time>
      </trkpt>
      <trkpt lat="44.68832" lon="5.66722">
        <ele>1211</ele>
        <time>2017-12-15T21:23:55Z</time>
      </trkpt>
      <trkpt lat="44.68832" lon="5.66732">
        <ele>1213</ele>
        <time>2017-12-15T21:24:00Z</time>
      </trkpt>
      <trkpt lat="44.68834" lon="5.66744">
        <ele>1230</ele>
        <time>2017-12-15T21:24:07Z</time>
      </trkpt>
      <trkpt lat="44.6884" lon="5.66755">
        <ele>1225</ele>
        <time>2017-12-15T21:24:18Z</time>
      </trkpt>
      <trkpt lat="44.68846" lon="5.66759">
        <ele>1225</ele>
        <time>2017-12-15T21:24:37Z</time>
      </trkpt>
      <trkpt lat="44.68854" lon="5.66763">
        <ele>1225</ele>
        <time>2017-12-15T21:24:45Z</time>
      </trkpt>
      <trkpt lat="44.68872" lon="5.66761">
        <ele>1228</ele>
        <time>2017-12-15T21:24:53Z</time>
      </trkpt>
      <trkpt lat="44.68897" lon="5.66757">
        <ele>1237</ele>
        <time>2017-12-15T21:25:01Z</time>
      </trkpt>
      <trkpt lat="44.68914" lon="5.66759">
        <ele>1244</ele>
        <time>2017-12-15T21:25:20Z</time>
      </trkpt>
      <trkpt lat="44.6893" lon="5.66767">
        <ele>1255</ele>
        <time>2017-12-15T21:25:39Z</time>
      </trkpt>
      <trkpt lat="44.68939" lon="5.66775">
        <ele>1256</ele>
        <time>2017-12-15T21:25:57Z</time>
      </trkpt>
      <trkpt lat="44.68944" lon="5.6678">
        <ele>1256</ele>
        <time>2017-12-15T21:26:00Z</time>
      </trkpt>
      <trkpt lat="44.68953" lon="5.66796">
        <ele>1256</ele>
        <time>2017-12-15T21:26:16Z</time>
      </trkpt>
      <trkpt lat="44.68955" lon="5.66808">
        <ele>1254</ele>
        <time>2017-12-15T21:26:33Z</time>
      </trkpt>
      <trkpt lat="44.68956" lon="5.66827">
        <ele>1253</ele>
        <time>2017-12-15T21:26:44Z</time>
      </trkpt>
      <trkpt lat="44.68952" lon="5.66851">
        <ele>1244</ele>
        <time>2017-12-15T21:26:55Z</time>
      </trkpt>
      <trkpt lat="44.6894" lon="5.66901">
        <ele>1237</ele>
        <time>2017-12-15T21:27:08Z</time>
      </trkpt>
      <trkpt lat="44.68926" lon="5.66948">
        <ele>1237</ele>
        <time>2017-12-15T21:27:13Z</time>
      </trkpt>
      <trkpt lat="44.68909" lon="5.66999">
        <ele>1216</ele>
        <time>2017-12-15T21:27:17Z</time>
      </trkpt>
      <trkpt lat="44.68896" lon="5.67047">
        <ele>1202</ele>
        <time>2017-12-15T21:27:35Z</time>
      </trkpt>
      <trkpt lat="44.68883" lon="5.67103">
        <ele>1194</ele>
        <time>2017-12-15T21:27:43Z</time>
      </trkpt>
      <trkpt lat="44.68882" lon="5.67121">
        <ele>1191</ele>
        <time>2017-12-15T21:28:01Z</time>
      </trkpt>
      <trkpt lat="44.68888" lon="5.67137">
        <ele>1191</ele>
        <time>2017-12-15T21:28:07Z</time>
      </trkpt>
      <trkpt lat="44.68894" lon="5.67144">
        <ele>1193</ele>
        <time>2017-12-15T21:28:23Z</time>
      </trkpt>
      <trkpt lat="44.68903" lon="5.67147">
        <ele>1195</ele>
        <time>2017-12-15T21:28:29Z</time>
      </trkpt>
      <trkpt lat="44.68928" lon="5.67144">
        <ele>1213</ele>
        <time>2017-12-15T21:28:40Z</time>
      </trkpt>
      <trkpt lat="44.68957" lon="5.67136">
        <ele>1216</ele>
        <time>2017-12-15T21:29:00Z</time>
      </trkpt>
      <trkpt lat="44.68989" lon="5.67131">
        <ele>1217</ele>
        <time>2017-12-15T21:29:18Z</time>
      </trkpt>
      <trkpt lat="44.69043" lon="5.67118">
        <ele>1215</ele>
        <time>2017-12-15T21:29:36Z</time>
      </trkpt>
      <trkpt lat="44.69117" lon="5.67107">
        <ele>1206</ele>
        <time>2017-12-15T21:29:53Z</time>
      </trkpt>
      <trkpt lat="44.69141" lon="5.67104">
        <ele>1205</ele>
        <time>2017-12-15T21:29:57Z</time>
      </trkpt>
      <trkpt lat="44.69165" lon="5.67109">
        <ele>1204</ele>
        <time>2017-12-15T21:30:15Z</time>
      </trkpt>
      <trkpt lat="44.69191" lon="5.67119">
        <ele>1205</ele>
        <time>2017-12-15T21:30:27Z</time>
      </trkpt>
      <trkpt lat="44.69214" lon="5.67118">
        <ele>1206</ele>
        <time>2017-12-15T21:30:44Z</time>
      </trkpt>
      <trkpt lat="44.69225" lon="5.6712">
        <ele>1207</ele>
        <time>2017-12-15T21:30:54Z</time>
      </trkpt>
      <trkpt lat="44.69232" lon="5.67124">
        <ele>1207</ele>
        <time>2017-12-15T21:31:03Z</time>
      </trkpt>
      <trkpt lat="44.69236" lon="5.67129">
        <ele>1207</ele>
        <time>2017-12-15T21:31:13Z</time>
      </trkpt>
      <trkpt lat="44.69238" lon="5.67136">
        <ele>1207</ele>
        <time>2017-12-15T21:31:16Z</time>
      </trkpt>
      <trkpt lat="44.69239" lon="5.67143">
        <ele>1207</ele>
        <time>2017-12-15T21:31:27Z</time>
      </trkpt>
      <trkpt lat="44.69236" lon="5.67156">
        <ele>1207</ele>
        <time>2017-12-15T21:31:29Z</time>
      </trkpt>
      <trkpt lat="44.69221" lon="5.67187">
        <ele>1202</ele>
        <time>2017-12-15T21:31:31Z</time>
      </trkpt>
      <trkpt lat="44.69195" lon="5.67255">
        <ele>1200</ele>
        <time>2017-12-15T21:31:42Z</time>
      </trkpt>
      <trkpt lat="44.69154" lon="5.67349">
        <ele>1183</ele>
        <time>2017-12-15T21:32:00Z</time>
      </trkpt>
      <trkpt lat="44.69128" lon="5.67411">
        <ele>1180</ele>
        <time>2017-12-15T21:32:18Z</time>
      </trkpt>
      <trkpt lat="44.69114" lon="5.67449">
        <ele>1185</ele>
        <time>2017-12-15T21:32:37Z</time>
      </trkpt>
      <trkpt lat="44.69099" lon="5.6749">
        <ele>1181</ele>
        <time>2017-12-15T21:32:44Z</time>
      </trkpt>
      <trkpt lat="44.69085" lon="5.67519">
        <ele>1189</ele>
        <time>2017-12-15T21:32:55Z</time>
      </trkpt>
      <trkpt lat="44.69043" lon="5.67574">
        <ele>1165</ele>
        <time>2017-12-15T21:33:08Z</time>
      </trkpt>
      <trkpt lat="44.6903" lon="5.67596">
        <ele>1175</ele>
        <time>2017-12-15T21:33:14Z</time>
      </trkpt>
      <trkpt lat="44.6901" lon="5.67623">
        <ele>1177</ele>
        <time>2017-12-15T21:33:22Z</time>
      </trkpt>
      <trkpt lat="44.6898" lon="5.67652">
        <ele>1159</ele>
        <time>2017-12-15T21:33:35Z</time>
      </trkpt>
      <trkpt lat="44.68965" lon="5.67664">
        <ele>1155</ele>
        <time>2017-12-15T21:33:54Z</time>
      </trkpt>
      <trkpt lat="44.68943" lon="5.67677">
        <ele>1164</ele>
        <time>2017-12-15T21:34:05Z</time>
      </trkpt>
      <trkpt lat="44.68925" lon="5.67684">
        <ele>1160</ele>
        <time>2017-12-15T21:34:09Z</time>
      </trkpt>
      <trkpt lat="44.68923" lon="5.67686">
        <ele>1160</ele>
        <time>2017-12-15T21:34:15Z</time>
      </trkpt>
      <trkpt lat="44.68913" lon="5.67696">
        <ele>1138</ele>
        <time>2017-12-15T21:34:26Z</time>
      </trkpt>
      <trkpt lat="44.68905" lon="5.67708">
        <ele>1138</ele>
        <time>2017-12-15T21:34:37Z</time>
      </trkpt>
      <trkpt lat="44.68895" lon="5.67733">
        <ele>1142</ele>
        <time>2017-12-15T21:34:39Z</time>
      </trkpt>
      <trkpt lat="44.68885" lon="5.67779">
        <ele>1146</ele>
        <time>2017-12-15T21:34:44Z</time>
      </trkpt>
      <trkpt lat="44.6888" lon="5.67827">
        <ele>1147</ele>
        <time>2017-12-15T21:34:59Z</time>
      </trkpt>
      <trkpt lat="44.68865" lon="5.67891">
        <ele>1149</ele>
        <time>2017-12-15T21:35:09Z</time>
      </trkpt>
      <trkpt lat="44.68852" lon="5.67931">
        <ele>1145</ele>
        <time>2017-12-15T21:35:27Z</time>
      </trkpt>
      <trkpt lat="44.68835" lon="5.67965">
        <ele>1147</ele>
        <time>2017-12-15T21:35:34Z</time>
      </trkpt>
      <trkpt lat="44.688" lon="5.68017">
        <ele>1114</ele>
        <time>2017-12-15T21:35:45Z</time>
      </trkpt>
      <trkpt lat="44.6879" lon="5.68037">
        <ele>1110</ele>
        <time>2017-12-15T21:35:58Z</time>
      </trkpt>
      <trkpt lat="44.68788" lon="5.68056">
        <ele>1109</ele>
        <time>2017-12-15T21:36:04Z</time>
      </trkpt>
      <trkpt lat="44.6879" lon="5.68061">
        <ele>1109</ele>
        <time>2017-12-15T21:36:20Z</time>
      </trkpt>
      <trkpt lat="44.68797" lon="5.68068">
        <ele>1110</ele>
        <time>2017-12-15T21:36:26Z</time>
      </trkpt>
      <trkpt lat="44.68805" lon="5.68068">
        <ele>1112</ele>
        <time>2017-12-15T21:36:42Z</time>
      </trkpt>
      <trkpt lat="44.68817" lon="5.68062">
        <ele>1115</ele>
        <time>2017-12-15T21:36:58Z</time>
      </trkpt>
      <trkpt lat="44.68835" lon="5.68059">
        <ele>1131</ele>
        <time>2017-12-15T21:37:08Z</time>
      </trkpt>
      <trkpt lat="44.68855" lon="5.68057">
        <ele>1134</ele>
        <time>2017-12-15T21:37:27Z</time>
      </trkpt>
      <trkpt lat="44.68875" lon="5.6806">
        <ele>1136</ele>
        <time>2017-12-15T21:37:33Z</time>
      </trkpt>
      <trkpt lat="44.68912" lon="5.68074">
        <ele>1134</ele>
        <time>2017-12-15T21:37:39Z</time>
      </trkpt>
      <trkpt lat="44.68925" lon="5.68078">
        <ele>1135</ele>
        <time>2017-12-15T21:37:52Z</time>
      </trkpt>
      <trkpt lat="44.6894" lon="5.68079">
        <ele>1137</ele>
        <time>2017-12-15T21:38:05Z</time>
      </trkpt>
      <trkpt lat="44.68951" lon="5.68078">
        <ele>1138</ele>
        <time>2017-12-15T21:38:20Z</time>
      </trkpt>
      <trkpt lat="44.68969" lon="5.6807">
        <ele>1137</ele>
        <time>2017-12-15T21:38:32Z</time>
      </trkpt>
      <trkpt lat="44.69017" lon="5.68041">
        <ele>1132</ele>
        <time>2017-12-15T21:38:40Z</time>
      </trkpt>
      <trkpt lat="44.69031" lon="5.68035">
        <ele>1131</ele>
        <time>2017-12-15T21:38:48Z</time>
      </trkpt>
      <trkpt lat="44.69049" lon="5.68029">
        <ele>1130</ele>
        <time>2017-12-15T21:38:57Z</time>
      </trkpt>
      <trkpt lat="44.6907" lon="5.68027">
        <ele>1128</ele>
        <time>2017-12-15T21:39:15Z</time>
      </trkpt>
      <trkpt lat="44.69092" lon="5.68028">
        <ele>1121</ele>
        <time>2017-12-15T21:39:32Z</time>
      </trkpt>
      <trkpt lat="44.69136" lon="5.68027">
        <ele>1119</ele>
        <time>2017-12-15T21:39:40Z</time>
      </trkpt>
      <trkpt lat="44.69149" lon="5.68027">
        <ele>1119</ele>
        <time>2017-12-15T21:40:00Z</time>
      </trkpt>
      <trkpt lat="44.69162" lon="5.68032">
        <ele>1118</ele>
        <time>2017-12-15T21:40:19Z</time>
      </trkpt>
      <trkpt lat="44.69173" lon="5.68042">
        <ele>1115</ele>
        <time>2017-12-15T21:40:30Z</time>
      </trkpt>
      <trkpt lat="44.69182" lon="5.68059">
        <ele>1113</ele>
        <time>2017-12-15T21:40:39Z</time>
      </trkpt>
      <trkpt lat="44.69192" lon="5.6809">
        <ele>1105</ele>
        <time>2017-12-15T21:40:56Z</time>
      </trkpt>
      <trkpt lat="44.69205" lon="5.68112">
        <ele>1104</ele>
        <time>2017-12-15T21:41:12Z</time>
      </trkpt>
      <trkpt lat="44.69247" lon="5.68142">
        <ele>1103</ele>
        <time>2017-12-15T21:41:29Z</time>
      </trkpt>
      <trkpt lat="44.69264" lon="5.68162">
        <ele>1106</ele>
        <time>2017-12-15T21:41:34Z</time>
      </trkpt>
      <trkpt lat="44.69279" lon="5.68188">
        <ele>1098</ele>
        <time>2017-12-15T21:41:36Z</time>
      </trkpt>
      <trkpt lat="44.69293" lon="5.68209">
        <ele>1097</ele>
        <time>2017-12-15T21:41:47Z</time>
      </trkpt>
      <trkpt lat="44.69303" lon="5.68216">
        <ele>1096</ele>
        <time>2017-12-15T21:41:56Z</time>
      </trkpt>
      <trkpt lat="44.69316" lon="5.68221">
        <ele>1096</ele>
        <time>2017-12-15T21:42:15Z</time>
      </trkpt>
      <trkpt lat="44.69345" lon="5.68225">
        <ele>1096</ele>
        <time>2017-12-15T21:42:28Z</time>
      </trkpt>
      <trkpt lat="44.69392" lon="5.6823">
        <ele>1096</ele>
        <time>2017-12-15T21:42:41Z</time>
      </trkpt>
      <trkpt lat="44.69434" lon="5.68231">
        <ele>1094</ele>
        <time>2017-12-15T21:42:54Z</time>
      </trkpt>
      <trkpt lat="44.69453" lon="5.68235">
        <ele>1094</ele>
        <time>2017-12-15T21:42:56Z</time>
      </trkpt>
      <trkpt lat="44.69464" lon="5.68243">
        <ele>1093</ele>
        <time>2017-12-15T21:43:16Z</time>
      </trkpt>
      <trkpt lat="44.69478" lon="5.68258">
        <ele>1081</ele>
        <time>2017-12-15T21:43:30Z</time>
      </trkpt>
      <trkpt lat="44.69487" lon="5.68264">
        <ele>1081</ele>
        <time>2017-12-15T21:43:34Z</time>
      </trkpt>
      <trkpt lat="44.69507" lon="5.68269">
        <ele>1079</ele>
        <time>2017-12-15T21:43:42Z</time>
      </trkpt>
      <trkpt lat="44.69539" lon="5.68266">
        <ele>1078</ele>
        <time>2017-12-15T21:43:49Z</time>
      </trkpt>
      <trkpt lat="44.69574" lon="5.68267">
        <ele>1079</ele>
        <time>2017-12-15T21:44:06Z</time>
      </trkpt>
      <trkpt lat="44.69617" lon="5.68274">
        <ele>1076</ele>
        <time>2017-12-15T21:44:16Z</time>
      </trkpt>
      <trkpt lat="44.6966" lon="5.68278">
        <ele>1076</ele>
        <time>2017-12-15T21:44:18Z</time>
      </trkpt>
      <trkpt lat="44.69697" lon="5.68278">
        <ele>1073</ele>
        <time>2017-12-15T21:44:37Z</time>
      </trkpt>
      <trkpt lat="44.69716" lon="5.68275">
        <ele>1072</ele>
        <time>2017-12-15T21:44:39Z</time>
      </trkpt>
      <trkpt lat="44.69745" lon="5.68265">
        <ele>1072</ele>
        <time>2017-12-15T21:44:55Z</time>
      </trkpt>
      <trkpt lat="44.69761" lon="5.6827">
        <ele>1071</ele>
        <time>2017-12-15T21:44:57Z</time>
      </trkpt>
      <trkpt lat="44.69765" lon="5.68275">
        <ele>1070</ele>
        <time>2017-12-15T21:45:17Z</time>
      </trkpt>
      <trkpt lat="44.69767" lon="5.68283">
        <ele>1070</ele>
        <time>2017-12-15T21:45:19Z</time>
      </trkpt>
      <trkpt lat="44.69767" lon="5.68291">
        <ele>1069</ele>
        <time>2017-12-15T21:45:37Z</time>
      </trkpt>
      <trkpt lat="44.69765" lon="5.68301">
        <ele>1069</ele>
        <time>2017-12-15T21:45:42Z</time>
      </trkpt>
      <trkpt lat="44.69775" lon="5.68298">
        <ele>1069</ele>
        <time>2017-12-15T21:45:48Z</time>
      </trkpt>
      <trkpt lat="44.69828" lon="5.68279">
        <ele>1071</ele>
        <time>2017-12-15T21:45:51Z</time>
      </trkpt>
      <trkpt lat="44.69862" lon="5.68265">
        <ele>1072</ele>
        <time>2017-12-15T21:45:55Z</time>
      </trkpt>
      <trkpt lat="44.69875" lon="5.68258">
        <ele>1073</ele>
        <time>2017-12-15T21:45:57Z</time>
      </trkpt>
      <trkpt lat="44.69895" lon="5.68251">
        <ele>1073</ele>
        <time>2017-12-15T21:46:09Z</time>
      </trkpt>
      <trkpt lat="44.69941" lon="5.68236">
        <ele>1080</ele>
        <time>2017-12-15T21:46:22Z</time>
      </trkpt>
      <trkpt lat="44.70061" lon="5.68199">
        <ele>1085</ele>
        <time>2017-12-15T21:46:32Z</time>
      </trkpt>
      <trkpt lat="44.702" lon="5.68149">
        <ele>1095</ele>
        <time>2017-12-15T21:46:43Z</time>
      </trkpt>
      <trkpt lat="44.70229" lon="5.68136">
        <ele>1095</ele>
        <time>2017-12-15T21:46:49Z</time>
      </trkpt>
      <trkpt lat="44.70263" lon="5.68116">
        <ele>1093</ele>
        <time>2017-12-15T21:47:06Z</time>
      </trkpt>
      <trkpt lat="44.70296" lon="5.68091">
        <ele>1093</ele>
        <time>2017-12-15T21:47:16Z</time>
      </trkpt>
      <trkpt lat="44.7034" lon="5.68052">
        <ele>1097</ele>
        <time>2017-12-15T21:47:34Z</time>
      </trkpt>
      <trkpt lat="44.70422" lon="5.67978">
        <ele>1103</ele>
        <time>2017-12-15T21:47:54Z</time>
      </trkpt>
      <trkpt lat="44.70462" lon="5.67947">
        <ele>1106</ele>
        <time>2017-12-15T21:48:07Z</time>
      </trkpt>
      <trkpt lat="44.70519" lon="5.67911">
        <ele>1108</ele>
        <time>2017-12-15T21:48:11Z</time>
      </trkpt>
      <trkpt lat="44.70658" lon="5.67824">
        <ele>1110</ele>
        <time>2017-12-15T21:48:16Z</time>
      </trkpt>
      <trkpt lat="44.70687" lon="5.67808">
        <ele>1112</ele>
        <time>2017-12-15T21:48:33Z</time>
      </trkpt>
      <trkpt lat="44.70733" lon="5.67788">
        <ele>1113</ele>
        <time>2017-12-15T21:48:35Z</time>
      </trkpt>
      <trkpt lat="44.70786" lon="5.67766">
        <ele>1115</ele>
        <time>2017-12-15T21:48:51Z</time>
      </trkpt>
      <trkpt lat="44.7083" lon="5.6775">
        <ele>1117</ele>
        <time>2017-12-15T21:49:07Z</time>
      </trkpt>
      <trkpt lat="44.70879" lon="5.6774">
        <ele>1124</ele>
        <time>2017-12-15T21:49:24Z</time>
      </trkpt>
      <trkpt lat="44.70948" lon="5.67729">
        <ele>1126</ele>
        <time>2017-12-15T21:49:41Z</time>
      </trkpt>
      <trkpt lat="44.70984" lon="5.67726">
        <ele>1127</ele>
        <time>2017-12-15T21:49:45Z</time>
      </trkpt>
      <trkpt lat="44.71026" lon="5.67729">
        <ele>1129</ele>
        <time>2017-12-15T21:49:59Z</time>
      </trkpt>
      <trkpt lat="44.71088" lon="5.67737">
        <ele>1132</ele>
        <time>2017-12-15T21:50:11Z</time>
      </trkpt>
      <trkpt lat="44.71134" lon="5.67744">
        <ele>1135</ele>
        <time>2017-12-15T21:50:20Z</time>
      </trkpt>
      <trkpt lat="44.7116" lon="5.67745">
        <ele>1135</ele>
        <time>2017-12-15T21:50:37Z</time>
      </trkpt>
      <trkpt lat="44.71181" lon="5.67735">
        <ele>1138</ele>
        <time>2017-12-15T21:50:46Z</time>
      </trkpt>
      <trkpt lat="44.71206" lon="5.67716">
        <ele>1139</ele>
        <time>2017-12-15T21:50:52Z</time>
      </trkpt>
      <trkpt lat="44.71221" lon="5.67711">
        <ele>1140</ele>
        <time>2017-12-15T21:51:01Z</time>
      </trkpt>
      <trkpt lat="44.71234" lon="5.67709">
        <ele>1140</ele>
        <time>2017-12-15T21:51:10Z</time>
      </trkpt>
      <trkpt lat="44.71255" lon="5.67712">
        <ele>1141</ele>
        <time>2017-12-15T21:51:24Z</time>
      </trkpt>
      <trkpt lat="44.71298" lon="5.67721">
        <ele>1142</ele>
        <time>2017-12-15T21:51:36Z</time>
      </trkpt>
      <trkpt lat="44.71341" lon="5.67731">
        <ele>1144</ele>
        <time>2017-12-15T21:51:50Z</time>
      </trkpt>
      <trkpt lat="44.7137" lon="5.67731">
        <ele>1145</ele>
        <time>2017-12-15T21:52:08Z</time>
      </trkpt>
      <trkpt lat="44.714" lon="5.67718">
        <ele>1146</ele>
        <time>2017-12-15T21:52:22Z</time>
      </trkpt>
      <trkpt lat="44.71445" lon="5.67683">
        <ele>1148</ele>
        <time>2017-12-15T21:52:29Z</time>
      </trkpt>
      <trkpt lat="44.71461" lon="5.67677">
        <ele>1148</ele>
        <time>2017-12-15T21:52:40Z</time>
      </trkpt>
      <trkpt lat="44.71489" lon="5.67677">
        <ele>1148</ele>
        <time>2017-12-15T21:52:47Z</time>
      </trkpt>
      <trkpt lat="44.71535" lon="5.6768">
        <ele>1150</ele>
        <time>2017-12-15T21:52:57Z</time>
      </trkpt>
      <trkpt lat="44.71578" lon="5.67675">
        <ele>1150</ele>
        <time>2017-12-15T21:53:16Z</time>
      </trkpt>
      <trkpt lat="44.71687" lon="5.67653">
        <ele>1154</ele>
        <time>2017-12-15T21:53:25Z</time>
      </trkpt>
      <trkpt lat="44.71782" lon="5.67642">
        <ele>1156</ele>
        <time>2017-12-15T21:53:30Z</time>
      </trkpt>
      <trkpt lat="44.7182" lon="5.6764">
        <ele>1156</ele>
        <time>2017-12-15T21:53:33Z</time>
      </trkpt>
      <trkpt lat="44.71856" lon="5.67641">
        <ele>1158</ele>
        <time>2017-12-15T21:53:40Z</time>
      </trkpt>
      <trkpt lat="44.72059" lon="5.67655">
        <ele>1163</ele>
        <time>2017-12-15T21:53:59Z</time>
      </trkpt>
      <trkpt lat="44.72103" lon="5.67661">
        <ele>1165</ele>
        <time>2017-12-15T21:54:12Z</time>
      </trkpt>
      <trkpt lat="44.72132" lon="5.67667">
        <ele>1165</ele>
        <time>2017-12-15T21:54:28Z</time>
      </trkpt>
      <trkpt lat="44.72265" lon="5.67707">
        <ele>1172</ele>
        <time>2017-12-15T21:54:33Z</time>
      </trkpt>
      <trkpt lat="44.72389" lon="5.67746">
        <ele>1176</ele>
        <time>2017-12-15T21:54:35Z</time>
      </trkpt>
      <trkpt lat="44.72446" lon="5.67763">
        <ele>1175</ele>
        <time>2017-12-15T21:54:45Z</time>
      </trkpt>
      <trkpt lat="44.72468" lon="5.67769">
        <ele>1175</ele>
        <time>2017-12-15T21:54:49Z</time>
      </trkpt>
      <trkpt lat="44.72568" lon="5.67775">
        <ele>1171</ele>
        <time>2017-12-15T21:54:51Z</time>
      </trkpt>
      <trkpt lat="44.72666" lon="5.67782">
        <ele>1168</ele>
        <time>2017-12-15T21:55:04Z</time>
      </trkpt>
      <trkpt lat="44.72766" lon="5.67799">
        <ele>1161</ele>
        <time>2017-12-15T21:55:15Z</time>
      </trkpt>
      <trkpt lat="44.72798" lon="5.67807">
        <ele>1160</ele>
        <time>2017-12-15T21:55:29Z</time>
      </trkpt>
      <trkpt lat="44.7282" lon="5.67818">
        <ele>1158</ele>
        <time>2017-12-15T21:55:46Z</time>
      </trkpt>
      <trkpt lat="44.72842" lon="5.67831">
        <ele>1156</ele>
        <time>2017-12-15T21:55:55Z</time>
      </trkpt>
      <trkpt lat="44.7288" lon="5.67852">
        <ele>1152</ele>
        <time>2017-12-15T21:56:01Z</time>
      </trkpt>
      <trkpt lat="44.729" lon="5.6786">
        <ele>1152</ele>
        <time>2017-12-15T21:56:17Z</time>
      </trkpt>
      <trkpt lat="44.72931" lon="5.67868">
        <ele>1154</ele>
        <time>2017-12-15T21:56:36Z</time>
      </trkpt>
      <trkpt lat="44.7294" lon="5.67872">
        <ele>1154</ele>
        <time>2017-12-15T21:56:42Z</time>
      </trkpt>
      <trkpt lat="44.72948" lon="5.67879">
        <ele>1154</ele>
        <time>2017-12-15T21:57:00Z</time>
      </trkpt>
      <trkpt lat="44.72959" lon="5.67895">
        <ele>1153</ele>
        <time>2017-12-15T21:57:15Z</time>
      </trkpt>
      <trkpt lat="44.72975" lon="5.67926">
        <ele>1147</ele>
        <time>2017-12-15T21:57:22Z</time>
      </trkpt>
      <trkpt lat="44.72988" lon="5.67939">
        <ele>1147</ele>
        <time>2017-12-15T21:57:34Z</time>
      </trkpt>
      <trkpt lat="44.72994" lon="5.67943">
        <ele>1147</ele>
        <time>2017-12-15T21:57:44Z</time>
      </trkpt>
      <trkpt lat="44.73007" lon="5.67948">
        <ele>1148</ele>
        <time>2017-12-15T21:57:51Z</time>
      </trkpt>
      <trkpt lat="44.73039" lon="5.67958">
        <ele>1148</ele>
        <time>2017-12-15T21:58:00Z</time>
      </trkpt>
      <trkpt lat="44.7305" lon="5.67964">
        <ele>1148</ele>
        <time>2017-12-15T21:58:12Z</time>
      </trkpt>
      <trkpt lat="44.7307" lon="5.67981">
        <ele>1146</ele>
        <time>2017-12-15T21:58:19Z</time>
      </trkpt>
      <trkpt lat="44.7314" lon="5.68047">
        <ele>1137</ele>
        <time>2017-12-15T21:58:36Z</time>
      </trkpt>
      <trkpt lat="44.7315" lon="5.68051">
        <ele>1136</ele>
        <time>2017-12-15T21:58:42Z</time>
      </trkpt>
      <trkpt lat="44.73158" lon="5.6805">
        <ele>1136</ele>
        <time>2017-12-15T21:58:47Z</time>
      </trkpt>
      <trkpt lat="44.73171" lon="5.6804">
        <ele>1130</ele>
        <time>2017-12-15T21:58:49Z</time>
      </trkpt>
      <trkpt lat="44.73195" lon="5.68004">
        <ele>1131</ele>
        <time>2017-12-15T21:59:08Z</time>
      </trkpt>
      <trkpt lat="44.7322" lon="5.67974">
        <ele>1148</ele>
        <time>2017-12-15T21:59:27Z</time>
      </trkpt>
      <trkpt lat="44.73229" lon="5.67967">
        <ele>1149</ele>
        <time>2017-12-15T21:59:39Z</time>
      </trkpt>
      <trkpt lat="44.73235" lon="5.67966">
        <ele>1149</ele>
        <time>2017-12-15T21:59:55Z</time>
      </trkpt>
      <trkpt lat="44.73248" lon="5.67969">
        <ele>1148</ele>
        <time>2017-12-15T22:00:14Z</time>
      </trkpt>
      <trkpt lat="44.73255" lon="5.67978">
        <ele>1153</ele>
        <time>2017-12-15T22:00:22Z</time>
      </trkpt>
      <trkpt lat="44.73269" lon="5.68031">
        <ele>1132</ele>
        <time>2017-12-15T22:00:26Z</time>
      </trkpt>
      <trkpt lat="44.73285" lon="5.68053">
        <ele>1129</ele>
        <time>2017-12-15T22:00:35Z</time>
      </trkpt>
      <trkpt lat="44.73294" lon="5.68061">
        <ele>1129</ele>
        <time>2017-12-15T22:00:52Z</time>
      </trkpt>
      <trkpt lat="44.73306" lon="5.68066">
        <ele>1128</ele>
        <time>2017-12-15T22:01:10Z</time>
      </trkpt>
      <trkpt lat="44.7333" lon="5.68075">
        <ele>1122</ele>
        <time>2017-12-15T22:01:25Z</time>
      </trkpt>
      <trkpt lat="44.73352" lon="5.68089">
        <ele>1113</ele>
        <time>2017-12-15T22:01:42Z</time>
      </trkpt>
      <trkpt lat="44.73362" lon="5.68091">
        <ele>1113</ele>
        <time>2017-12-15T22:01:48Z</time>
      </trkpt>
      <trkpt lat="44.73373" lon="5.68091">
        <ele>1113</ele>
        <time>2017-12-15T22:01:56Z</time>
      </trkpt>
      <trkpt lat="44.73395" lon="5.68091">
        <ele>1117</ele>
        <time>2017-12-15T22:02:00Z</time>
      </trkpt>
      <trkpt lat="44.73418" lon="5.68097">
        <ele>1121</ele>
        <time>2017-12-15T22:02:20Z</time>
      </trkpt>
      <trkpt lat="44.73438" lon="5.68108">
        <ele>1114</ele>
        <time>2017-12-15T22:02:24Z</time>
      </trkpt>
      <trkpt lat="44.73462" lon="5.68118">
        <ele>1111</ele>
        <time>2017-12-15T22:02:38Z</time>
      </trkpt>
      <trkpt lat="44.73483" lon="5.68124">
        <ele>1110</ele>
        <time>2017-12-15T22:02:56Z</time>
      </trkpt>
      <trkpt lat="44.73507" lon="5.68124">
        <ele>1107</ele>
        <time>2017-12-15T22:03:12Z</time>
      </trkpt>
      <trkpt lat="44.73534" lon="5.68117">
        <ele>1107</ele>
        <time>2017-12-15T22:03:21Z</time>
      </trkpt>
      <trkpt lat="44.73573" lon="5.68098">
        <ele>1109</ele>
        <time>2017-12-15T22:03:30Z</time>
      </trkpt>
      <trkpt lat="44.73599" lon="5.68081">
        <ele>1114</ele>
        <time>2017-12-15T22:03:34Z</time>
      </trkpt>
      <trkpt lat="44.73634" lon="5.68049">
        <ele>1113</ele>
        <time>2017-12-15T22:03:38Z</time>
      </trkpt>
      <trkpt lat="44.7365" lon="5.68035">
        <ele>1113</ele>
        <time>2017-12-15T22:03:56Z</time>
      </trkpt>
      <trkpt lat="44.73664" lon="5.68026">
        <ele>1114</ele>
        <time>2017-12-15T22:04:14Z</time>
      </trkpt>
      <trkpt lat="44.73681" lon="5.68022">
        <ele>1101</ele>
        <time>2017-12-15T22:04:21Z</time>
      </trkpt>
      <trkpt lat="44.73703" lon="5.68021">
        <ele>1096</ele>
        <time>2017-12-15T22:04:34Z</time>
      </trkpt>
      <trkpt lat="44.73733" lon="5.68021">
        <ele>1094</ele>
        <time>2017-12-15T22:04:53Z</time>
      </trkpt>
      <trkpt lat="44.73751" lon="5.68021">
        <ele>1083</ele>
        <time>2017-12-15T22:05:05Z</time>
      </trkpt>
      <trkpt lat="44.73763" lon="5.68018">
        <ele>1082</ele>
        <time>2017-12-15T22:05:09Z</time>
      </trkpt>
      <trkpt lat="44.73774" lon="5.68012">
        <ele>1080</ele>
        <time>2017-12-15T22:05:19Z</time>
      </trkpt>
      <trkpt lat="44.73783" lon="5.67997">
        <ele>1092</ele>
        <time>2017-12-15T22:05:24Z</time>
      </trkpt>
      <trkpt lat="44.73793" lon="5.67972">
        <ele>1091</ele>
        <time>2017-12-15T22:05:26Z</time>
      </trkpt>
      <trkpt lat="44.73795" lon="5.67956">
        <ele>1092</ele>
        <time>2017-12-15T22:05:46Z</time>
      </trkpt>
      <trkpt lat="44.73794" lon="5.67939">
        <ele>1093</ele>
        <time>2017-12-15T22:05:49Z</time>
      </trkpt>
      <trkpt lat="44.73792" lon="5.6791">
        <ele>1102</ele>
        <time>2017-12-15T22:05:54Z</time>
      </trkpt>
      <trkpt lat="44.738" lon="5.67885">
        <ele>1101</ele>
        <time>2017-12-15T22:06:12Z</time>
      </trkpt>
      <trkpt lat="44.73809" lon="5.67872">
        <ele>1100</ele>
        <time>2017-12-15T22:06:14Z</time>
      </trkpt>
      <trkpt lat="44.73824" lon="5.67858">
        <ele>1098</ele>
        <time>2017-12-15T22:06:21Z</time>
      </trkpt>
      <trkpt lat="44.73848" lon="5.67835">
        <ele>1085</ele>
        <time>2017-12-15T22:06:30Z</time>
      </trkpt>
      <trkpt lat="44.73857" lon="5.6782">
        <ele>1090</ele>
        <time>2017-12-15T22:06:35Z</time>
      </trkpt>
      <trkpt lat="44.73865" lon="5.67797">
        <ele>1090</ele>
        <time>2017-12-15T22:06:43Z</time>
      </trkpt>
      <trkpt lat="44.73874" lon="5.67774">
        <ele>1092</ele>
        <time>2017-12-15T22:06:48Z</time>
      </trkpt>
      <trkpt lat="44.7388" lon="5.67768">
        <ele>1091</ele>
        <time>2017-12-15T22:06:54Z</time>
      </trkpt>
      <trkpt lat="44.73888" lon="5.67766">
        <ele>1091</ele>
        <time>2017-12-15T22:07:12Z</time>
      </trkpt>
      <trkpt lat="44.73898" lon="5.67768">
        <ele>1090</ele>
        <time>2017-12-15T22:07:19Z</time>
      </trkpt>
      <trkpt lat="44.73908" lon="5.67775">
        <ele>1089</ele>
        <time>2017-12-15T22:07:33Z</time>
      </trkpt>
      <trkpt lat="44.73915" lon="5.67787">
        <ele>1088</ele>
        <time>2017-12-15T22:07:36Z</time>
      </trkpt>
      <trkpt lat="44.73919" lon="5.67796">
        <ele>1094</ele>
        <time>2017-12-15T22:07:44Z</time>
      </trkpt>
      <trkpt lat="44.73946" lon="5.67886">
        <ele>1079</ele>
        <time>2017-12-15T22:07:56Z</time>
      </trkpt>
      <trkpt lat="44.73956" lon="5.67923">
        <ele>1067</ele>
        <time>2017-12-15T22:08:13Z</time>
      </trkpt>
      <trkpt lat="44.73963" lon="5.67965">
        <ele>1063</ele>
        <time>2017-12-15T22:08:23Z</time>
      </trkpt>
      <trkpt lat="44.73968" lon="5.67987">
        <ele>1062</ele>
        <time>2017-12-15T22:08:26Z</time>
      </trkpt>
      <trkpt lat="44.73976" lon="5.68001">
        <ele>1046</ele>
        <time>2017-12-15T22:08:34Z</time>
      </trkpt>
      <trkpt lat="44.73989" lon="5.68015">
        <ele>1047</ele>
        <time>2017-12-15T22:08:40Z</time>
      </trkpt>
      <trkpt lat="44.74003" lon="5.68026">
        <ele>1055</ele>
        <time>2017-12-15T22:08:44Z</time>
      </trkpt>
      <trkpt lat="44.74062" lon="5.68055">
        <ele>1053</ele>
        <time>2017-12-15T22:08:56Z</time>
      </trkpt>
      <trkpt lat="44.74123" lon="5.68083">
        <ele>1060</ele>
        <time>2017-12-15T22:09:08Z</time>
      </trkpt>
      <trkpt lat="44.74161" lon="5.68094">
        <ele>1043</ele>
        <time>2017-12-15T22:09:17Z</time>
      </trkpt>
      <trkpt lat="44.74292" lon="5.68113">
        <ele>1036</ele>
        <time>2017-12-15T22:09:25Z</time>
      </trkpt>
      <trkpt lat="44.7433" lon="5.68123">
        <ele>1034</ele>
        <time>2017-12-15T22:09:32Z</time>
      </trkpt>
      <trkpt lat="44.74359" lon="5.68138">
        <ele>1030</ele>
        <time>2017-12-15T22:09:50Z</time>
      </trkpt>
      <trkpt lat="44.74367" lon="5.68142">
        <ele>1029</ele>
        <time>2017-12-15T22:10:01Z</time>
      </trkpt>
      <trkpt lat="44.74384" lon="5.68145">
        <ele>1028</ele>
        <time>2017-12-15T22:10:03Z</time>
      </trkpt>
      <trkpt lat="44.74399" lon="5.68145">
        <ele>1027</ele>
        <time>2017-12-15T22:10:16Z</time>
      </trkpt>
      <trkpt lat="44.74411" lon="5.68141">
        <ele>1027</ele>
        <time>2017-12-15T22:10:21Z</time>
      </trkpt>
      <trkpt lat="44.74421" lon="5.68136">
        <ele>1018</ele>
        <time>2017-12-15T22:10:24Z</time>
      </trkpt>
      <trkpt lat="44.74433" lon="5.68127">
        <ele>1019</ele>
        <time>2017-12-15T22:10:28Z</time>
      </trkpt>
      <trkpt lat="44.7446" lon="5.68097">
        <ele>1019</ele>
        <time>2017-12-15T22:10:38Z</time>
      </trkpt>
      <trkpt lat="44.74481" lon="5.68069">
        <ele>1032</ele>
        <time>2017-12-15T22:10:57Z</time>
      </trkpt>
      <trkpt lat="44.74492" lon="5.68059">
        <ele>1033</ele>
        <time>2017-12-15T22:11:15Z</time>
      </trkpt>
      <trkpt lat="44.74507" lon="5.68047">
        <ele>1016</ele>
        <time>2017-12-15T22:11:35Z</time>
      </trkpt>
      <trkpt lat="44.74544" lon="5.68019">
        <ele>1014</ele>
        <time>2017-12-15T22:11:50Z</time>
      </trkpt>
      <trkpt lat="44.74569" lon="5.67985">
        <ele>1028</ele>
        <time>2017-12-15T22:12:04Z</time>
      </trkpt>
      <trkpt lat="44.7462" lon="5.67905">
        <ele>1033</ele>
        <time>2017-12-15T22:12:09Z</time>
      </trkpt>
      <trkpt lat="44.74632" lon="5.67887">
        <ele>1032</ele>
        <time>2017-12-15T22:12:19Z</time>
      </trkpt>
      <trkpt lat="44.74644" lon="5.67879">
        <ele>1032</ele>
        <time>2017-12-15T22:12:26Z</time>
      </trkpt>
      <trkpt lat="44.74655" lon="5.67875">
        <ele>1031</ele>
        <time>2017-12-15T22:12:45Z</time>
      </trkpt>
      <trkpt lat="44.74669" lon="5.67873">
        <ele>1011</ele>
        <time>2017-12-15T22:12:59Z</time>
      </trkpt>
      <trkpt lat="44.74685" lon="5.67871">
        <ele>1010</ele>
        <time>2017-12-15T22:13:16Z</time>
      </trkpt>
      <trkpt lat="44.74709" lon="5.67866">
        <ele>1007</ele>
        <time>2017-12-15T22:13:34Z</time>
      </trkpt>
      <trkpt lat="44.74729" lon="5.67857">
        <ele>1006</ele>
        <time>2017-12-15T22:13:42Z</time>
      </trkpt>
      <trkpt lat="44.74747" lon="5.67846">
        <ele>1008</ele>
        <time>2017-12-15T22:14:02Z</time>
      </trkpt>
      <trkpt lat="44.74763" lon="5.67831">
        <ele>1009</ele>
        <time>2017-12-15T22:14:12Z</time>
      </trkpt>
      <trkpt lat="44.74778" lon="5.67814">
        <ele>1009</ele>
        <time>2017-12-15T22:14:19Z</time>
      </trkpt>
      <trkpt lat="44.7481" lon="5.67771">
        <ele>1009</ele>
        <time>2017-12-15T22:14:33Z</time>
      </trkpt>
      <trkpt lat="44.74852" lon="5.67714">
        <ele>998</ele>
        <time>2017-12-15T22:14:42Z</time>
      </trkpt>
      <trkpt lat="44.74885" lon="5.67658">
        <ele>1010</ele>
        <time>2017-12-15T22:14:52Z</time>
      </trkpt>
      <trkpt lat="44.74918" lon="5.67593">
        <ele>990</ele>
        <time>2017-12-15T22:14:56Z</time>
      </trkpt>
      <trkpt lat="44.74942" lon="5.67541">
        <ele>994</ele>
        <time>2017-12-15T22:15:04Z</time>
      </trkpt>
      <trkpt lat="44.74963" lon="5.67499">
        <ele>1004</ele>
        <time>2017-12-15T22:15:07Z</time>
      </trkpt>
      <trkpt lat="44.7499" lon="5.67466">
        <ele>1000</ele>
        <time>2017-12-15T22:15:10Z</time>
      </trkpt>
      <trkpt lat="44.75032" lon="5.67421">
        <ele>976</ele>
        <time>2017-12-15T22:15:26Z</time>
      </trkpt>
      <trkpt lat="44.75058" lon="5.67388">
        <ele>979</ele>
        <time>2017-12-15T22:15:41Z</time>
      </trkpt>
      <trkpt lat="44.75086" lon="5.67342">
        <ele>966</ele>
        <time>2017-12-15T22:15:54Z</time>
      </trkpt>
      <trkpt lat="44.7511" lon="5.67304">
        <ele>966</ele>
        <time>2017-12-15T22:16:05Z</time>
      </trkpt>
      <trkpt lat="44.75135" lon="5.67273">
        <ele>965</ele>
        <time>2017-12-15T22:16:20Z</time>
      </trkpt>
      <trkpt lat="44.75293" lon="5.67078">
        <ele>953</ele>
        <time>2017-12-15T22:16:32Z</time>
      </trkpt>
      <trkpt lat="44.7534" lon="5.67017">
        <ele>942</ele>
        <time>2017-12-15T22:16:48Z</time>
      </trkpt>
      <trkpt lat="44.7535" lon="5.67001">
        <ele>942</ele>
        <time>2017-12-15T22:17:00Z</time>
      </trkpt>
      <trkpt lat="44.75358" lon="5.66982">
        <ele>942</ele>
        <time>2017-12-15T22:17:15Z</time>
      </trkpt>
      <trkpt lat="44.75369" lon="5.66946">
        <ele>940</ele>
        <time>2017-12-15T22:17:30Z</time>
      </trkpt>
      <trkpt lat="44.75373" lon="5.66918">
        <ele>940</ele>
        <time>2017-12-15T22:17:39Z</time>
      </trkpt>
      <trkpt lat="44.75374" lon="5.66897">
        <ele>940</ele>
        <time>2017-12-15T22:17:48Z</time>
      </trkpt>
      <trkpt lat="44.75381" lon="5.66907">
        <ele>938</ele>
        <time>2017-12-15T22:17:58Z</time>
      </trkpt>
      <trkpt lat="44.75389" lon="5.66935">
        <ele>937</ele>
        <time>2017-12-15T22:18:05Z</time>
      </trkpt>
      <trkpt lat="44.75389" lon="5.66999">
        <ele>935</ele>
        <time>2017-12-15T22:18:12Z</time>
      </trkpt>
      <trkpt lat="44.75382" lon="5.67087">
        <ele>926</ele>
        <time>2017-12-15T22:18:32Z</time>
      </trkpt>
      <trkpt lat="44.75365" lon="5.6716">
        <ele>925</ele>
        <time>2017-12-15T22:18:38Z</time>
      </trkpt>
      <trkpt lat="44.75341" lon="5.67242">
        <ele>921</ele>
        <time>2017-12-15T22:18:42Z</time>
      </trkpt>
      <trkpt lat="44.75313" lon="5.67312">
        <ele>923</ele>
        <time>2017-12-15T22:19:01Z</time>
      </trkpt>
      <trkpt lat="44.75295" lon="5.67363">
        <ele>918</ele>
        <time>2017-12-15T22:19:06Z</time>
      </trkpt>
      <trkpt lat="44.75248" lon="5.67497">
        <ele>911</ele>
        <time>2017-12-15T22:19:17Z</time>
      </trkpt>
      <trkpt lat="44.75205" lon="5.6761">
        <ele>901</ele>
        <time>2017-12-15T22:19:34Z</time>
      </trkpt>
      <trkpt lat="44.75198" lon="5.67624">
        <ele>901</ele>
        <time>2017-12-15T22:19:49Z</time>
      </trkpt>
      <trkpt lat="44.75185" lon="5.67641">
        <ele>900</ele>
        <time>2017-12-15T22:20:08Z</time>
      </trkpt>
      <trkpt lat="44.75167" lon="5.67658">
        <ele>899</ele>
        <time>2017-12-15T22:20:11Z</time>
      </trkpt>
      <trkpt lat="44.75148" lon="5.67671">
        <ele>898</ele>
        <time>2017-12-15T22:20:14Z</time>
      </trkpt>
      <trkpt lat="44.75131" lon="5.67684">
        <ele>898</ele>
        <time>2017-12-15T22:20:27Z</time>
      </trkpt>
      <trkpt lat="44.75129" lon="5.67694">
        <ele>897</ele>
        <time>2017-12-15T22:20:34Z</time>
      </trkpt>
      <trkpt lat="44.75134" lon="5.67703">
        <ele>896</ele>
        <time>2017-12-15T22:20:48Z</time>
      </trkpt>
      <trkpt lat="44.75152" lon="5.67703">
        <ele>895</ele>
        <time>2017-12-15T22:20:50Z</time>
      </trkpt>
      <trkpt lat="44.75181" lon="5.67691">
        <ele>889</ele>
        <time>2017-12-15T22:21:03Z</time>
      </trkpt>
      <trkpt lat="44.75214" lon="5.67681">
        <ele>886</ele>
        <time>2017-12-15T22:21:11Z</time>
      </trkpt>
      <trkpt lat="44.75265" lon="5.67664">
        <ele>886</ele>
        <time>2017-12-15T22:21:27Z</time>
      </trkpt>
      <trkpt lat="44.75302" lon="5.6765">
        <ele>882</ele>
        <time>2017-12-15T22:21:36Z</time>
      </trkpt>
      <trkpt lat="44.75332" lon="5.67634">
        <ele>881</ele>
        <time>2017-12-15T22:21:56Z</time>
      </trkpt>
      <trkpt lat="44.75419" lon="5.67581">
        <ele>871</ele>
        <time>2017-12-15T22:22:14Z</time>
      </trkpt>
      <trkpt lat="44.75428" lon="5.67573">
        <ele>870</ele>
        <time>2017-12-15T22:22:26Z</time>
      </trkpt>
      <trkpt lat="44.75434" lon="5.67564">
        <ele>869</ele>
        <time>2017-12-15T22:22:38Z</time>
      </trkpt>
      <trkpt lat="44.75454" lon="5.67519">
        <ele>870</ele>
        <time>2017-12-15T22:22:51Z</time>
      </trkpt>
      <trkpt lat="44.75467" lon="5.67491">
        <ele>876</ele>
        <time>2017-12-15T22:22:53Z</time>
      </trkpt>
      <trkpt lat="44.75478" lon="5.67478">
        <ele>876</ele>
        <time>2017-12-15T22:23:08Z</time>
      </trkpt>
      <trkpt lat="44.7549" lon="5.67468">
        <ele>876</ele>
        <time>2017-12-15T22:23:17Z</time>
      </trkpt>
      <trkpt lat="44.75498" lon="5.67466">
        <ele>876</ele>
        <time>2017-12-15T22:23:26Z</time>
      </trkpt>
      <trkpt lat="44.7551" lon="5.67464">
        <ele>870</ele>
        <time>2017-12-15T22:23:46Z</time>
      </trkpt>
      <trkpt lat="44.75525" lon="5.67468">
        <ele>870</ele>
        <time>2017-12-15T22:23:53Z</time>
      </trkpt>
      <trkpt lat="44.75538" lon="5.67477">
        <ele>869</ele>
        <time>2017-12-15T22:24:03Z</time>
      </trkpt>
      <trkpt lat="44.75555" lon="5.67498">
        <ele>867</ele>
        <time>2017-12-15T22:24:06Z</time>
      </trkpt>
      <trkpt lat="44.75607" lon="5.67564">
        <ele>854</ele>
        <time>2017-12-15T22:24:24Z</time>
      </trkpt>
      <trkpt lat="44.75627" lon="5.67587">
        <ele>850</ele>
        <time>2017-12-15T22:24:41Z</time>
      </trkpt>
      <trkpt lat="44.7564" lon="5.67597">
        <ele>850</ele>
        <time>2017-12-15T22:24:51Z</time>
      </trkpt>
      <trkpt lat="44.75656" lon="5.67604">
        <ele>851</ele>
        <time>2017-12-15T22:25:03Z</time>
      </trkpt>
      <trkpt lat="44.757" lon="5.67614">
        <ele>850</ele>
        <time>2017-12-15T22:25:08Z</time>
      </trkpt>
      <trkpt lat="44.75731" lon="5.67619">
        <ele>849</ele>
        <time>2017-12-15T22:25:14Z</time>
      </trkpt>
      <trkpt lat="44.7575" lon="5.67617">
        <ele>846</ele>
        <time>2017-12-15T22:25:22Z</time>
      </trkpt>
      <trkpt lat="44.75772" lon="5.67607">
        <ele>846</ele>
        <time>2017-12-15T22:25:27Z</time>
      </trkpt>
      <trkpt lat="44.75784" lon="5.67605">
        <ele>846</ele>
        <time>2017-12-15T22:25:38Z</time>
      </trkpt>
      <trkpt lat="44.75796" lon="5.67613">
        <ele>845</ele>
        <time>2017-12-15T22:25:50Z</time>
      </trkpt>
      <trkpt lat="44.75799" lon="5.6762">
        <ele>845</ele>
        <time>2017-12-15T22:25:57Z</time>
      </trkpt>
      <trkpt lat="44.75799" lon="5.67653">
        <ele>844</ele>
        <time>2017-12-15T22:26:04Z</time>
      </trkpt>
      <trkpt lat="44.75788" lon="5.67707">
        <ele>840</ele>
        <time>2017-12-15T22:26:14Z</time>
      </trkpt>
      <trkpt lat="44.75786" lon="5.67736">
        <ele>840</ele>
        <time>2017-12-15T22:26:16Z</time>
      </trkpt>
      <trkpt lat="44.75785" lon="5.67792">
        <ele>835</ele>
        <time>2017-12-15T22:26:29Z</time>
      </trkpt>
      <trkpt lat="44.75784" lon="5.67821">
        <ele>835</ele>
        <time>2017-12-15T22:26:33Z</time>
      </trkpt>
      <trkpt lat="44.75779" lon="5.67845">
        <ele>832</ele>
        <time>2017-12-15T22:26:37Z</time>
      </trkpt>
      <trkpt lat="44.75725" lon="5.67962">
        <ele>829</ele>
        <time>2017-12-15T22:26:39Z</time>
      </trkpt>
      <trkpt lat="44.75709" lon="5.67996">
        <ele>829</ele>
        <time>2017-12-15T22:26:50Z</time>
      </trkpt>
      <trkpt lat="44.75693" lon="5.68021">
        <ele>824</ele>
        <time>2017-12-15T22:26:58Z</time>
      </trkpt>
      <trkpt lat="44.75686" lon="5.68031">
        <ele>823</ele>
        <time>2017-12-15T22:27:15Z</time>
      </trkpt>
      <trkpt lat="44.75666" lon="5.68039">
        <ele>820</ele>
        <time>2017-12-15T22:27:28Z</time>
      </trkpt>
      <trkpt lat="44.75653" lon="5.68041">
        <ele>819</ele>
        <time>2017-12-15T22:27:42Z</time>
      </trkpt>
      <trkpt lat="44.75637" lon="5.68038">
        <ele>819</ele>
        <time>2017-12-15T22:27:53Z</time>
      </trkpt>
      <trkpt lat="44.75598" lon="5.68026">
        <ele>819</ele>
        <time>2017-12-15T22:28:06Z</time>
      </trkpt>
      <trkpt lat="44.75581" lon="5.68022">
        <ele>817</ele>
        <time>2017-12-15T22:28:19Z</time>
      </trkpt>
      <trkpt lat="44.7556" lon="5.68021">
        <ele>816</ele>
        <time>2017-12-15T22:28:26Z</time>
      </trkpt>
      <trkpt lat="44.75525" lon="5.68031">
        <ele>815</ele>
        <time>2017-12-15T22:28:36Z</time>
      </trkpt>
      <trkpt lat="44.75506" lon="5.68032">
        <ele>815</ele>
        <time>2017-12-15T22:28:48Z</time>
      </trkpt>
      <trkpt lat="44.75479" lon="5.68017">
        <ele>815</ele>
        <time>2017-12-15T22:28:53Z</time>
      </trkpt>
      <trkpt lat="44.75443" lon="5.67993">
        <ele>822</ele>
        <time>2017-12-15T22:29:02Z</time>
      </trkpt>
      <trkpt lat="44.75427" lon="5.67991">
        <ele>820</ele>
        <time>2017-12-15T22:29:11Z</time>
      </trkpt>
      <trkpt lat="44.75417" lon="5.67994">
        <ele>817</ele>
        <time>2017-12-15T22:29:26Z</time>
      </trkpt>
      <trkpt lat="44.75406" lon="5.68007">
        <ele>815</ele>
        <time>2017-12-15T22:29:33Z</time>
      </trkpt>
      <trkpt lat="44.75399" lon="5.68023">
        <ele>815</ele>
        <time>2017-12-15T22:29:39Z</time>
      </trkpt>
      <trkpt lat="44.75399" lon="5.68045">
        <ele>815</ele>
        <time>2017-12-15T22:29:47Z</time>
      </trkpt>
      <trkpt lat="44.75402" lon="5.68057">
        <ele>814</ele>
        <time>2017-12-15T22:30:00Z</time>
      </trkpt>
      <trkpt lat="44.75416" lon="5.6808">
        <ele>812</ele>
        <time>2017-12-15T22:30:03Z</time>
      </trkpt>
      <trkpt lat="44.75462" lon="5.68129">
        <ele>817</ele>
        <time>2017-12-15T22:30:12Z</time>
      </trkpt>
      <trkpt lat="44.75493" lon="5.68157">
        <ele>817</ele>
        <time>2017-12-15T22:30:32Z</time>
      </trkpt>
      <trkpt lat="44.75509" lon="5.68168">
        <ele>818</ele>
        <time>2017-12-15T22:30:50Z</time>
      </trkpt>
      <trkpt lat="44.75549" lon="5.68189">
        <ele>819</ele>
        <time>2017-12-15T22:30:53Z</time>
      </trkpt>
      <trkpt lat="44.75591" lon="5.68215">
        <ele>813</ele>
        <time>2017-12-15T22:30:58Z</time>
      </trkpt>
      <trkpt lat="44.75638" lon="5.6824">
        <ele>811</ele>
        <time>2017-12-15T22:31:15Z</time>
      </trkpt>
      <trkpt lat="44.75663" lon="5.68259">
        <ele>815</ele>
        <time>2017-12-15T22:31:34Z</time>
      </trkpt>
      <trkpt lat="44.75677" lon="5.68276">
        <ele>810</ele>
        <time>2017-12-15T22:31:49Z</time>
      </trkpt>
      <trkpt lat="44.75697" lon="5.68326">
        <ele>814</ele>
        <time>2017-12-15T22:32:04Z</time>
      </trkpt>
      <trkpt lat="44.75716" lon="5.68356">
        <ele>823</ele>
        <time>2017-12-15T22:32:21Z</time>
      </trkpt>
      <trkpt lat="44.75727" lon="5.6837">
        <ele>823</ele>
        <time>2017-12-15T22:32:34Z</time>
      </trkpt>
      <trkpt lat="44.75738" lon="5.68376">
        <ele>823</ele>
        <time>2017-12-15T22:32:51Z</time>
      </trkpt>
      <trkpt lat="44.75753" lon="5.68386">
        <ele>812</ele>
        <time>2017-12-15T22:33:02Z</time>
      </trkpt>
      <trkpt lat="44.75783" lon="5.68397">
        <ele>811</ele>
        <time>2017-12-15T22:33:10Z</time>
      </trkpt>
      <trkpt lat="44.7581" lon="5.68411">
        <ele>808</ele>
        <time>2017-12-15T22:33:21Z</time>
      </trkpt>
      <trkpt lat="44.75826" lon="5.68425">
        <ele>814</ele>
        <time>2017-12-15T22:33:41Z</time>
      </trkpt>
      <trkpt lat="44.75846" lon="5.68451">
        <ele>805</ele>
        <time>2017-12-15T22:33:53Z</time>
      </trkpt>
      <trkpt lat="44.7586" lon="5.68472">
        <ele>806</ele>
        <time>2017-12-15T22:34:08Z</time>
      </trkpt>
      <trkpt lat="44.7587" lon="5.68496">
        <ele>806</ele>
        <time>2017-12-15T22:34:18Z</time>
      </trkpt>
      <trkpt lat="44.75898" lon="5.68563">
        <ele>811</ele>
        <time>2017-12-15T22:34:35Z</time>
      </trkpt>
      <trkpt lat="44.75909" lon="5.68591">
        <ele>811</ele>
        <time>2017-12-15T22:34:50Z</time>
      </trkpt>
      <trkpt lat="44.75915" lon="5.68617">
        <ele>815</ele>
        <time>2017-12-15T22:34:55Z</time>
      </trkpt>
      <trkpt lat="44.75918" lon="5.68663">
        <ele>808</ele>
        <time>2017-12-15T22:35:13Z</time>
      </trkpt>
      <trkpt lat="44.75916" lon="5.6872">
        <ele>819</ele>
        <time>2017-12-15T22:35:33Z</time>
      </trkpt>
      <trkpt lat="44.75916" lon="5.68736">
        <ele>818</ele>
        <time>2017-12-15T22:35:45Z</time>
      </trkpt>
      <trkpt lat="44.7592" lon="5.68781">
        <ele>810</ele>
        <time>2017-12-15T22:35:47Z</time>
      </trkpt>
      <trkpt lat="44.75935" lon="5.68836">
        <ele>810</ele>
        <time>2017-12-15T22:36:02Z</time>
      </trkpt>
      <trkpt lat="44.75945" lon="5.6888">
        <ele>809</ele>
        <time>2017-12-15T22:36:18Z</time>
      </trkpt>
      <trkpt lat="44.75949" lon="5.68913">
        <ele>809</ele>
        <time>2017-12-15T22:36:26Z</time>
      </trkpt>
      <trkpt lat="44.75964" lon="5.68974">
        <ele>809</ele>
        <time>2017-12-15T22:36:46Z</time>
      </trkpt>
      <trkpt lat="44.75999" lon="5.69078">
        <ele>807</ele>
        <time>2017-12-15T22:36:59Z</time>
      </trkpt>
      <trkpt lat="44.76019" lon="5.69123">
        <ele>807</ele>
        <time>2017-12-15T22:37:19Z</time>
      </trkpt>
      <trkpt lat="44.76042" lon="5.69151">
        <ele>806</ele>
        <time>2017-12-15T22:37:30Z</time>
      </trkpt>
      <trkpt lat="44.76063" lon="5.69174">
        <ele>809</ele>
        <time>2017-12-15T22:37:36Z</time>
      </trkpt>
      <trkpt lat="44.76092" lon="5.6922">
        <ele>804</ele>
        <time>2017-12-15T22:37:39Z</time>
      </trkpt>
      <trkpt lat="44.76112" lon="5.69276">
        <ele>808</ele>
        <time>2017-12-15T22:37:45Z</time>
      </trkpt>
      <trkpt lat="44.7615" lon="5.69392">
        <ele>812</ele>
        <time>2017-12-15T22:38:05Z</time>
      </trkpt>
      <trkpt lat="44.76161" lon="5.69415">
        <ele>810</ele>
        <time>2017-12-15T22:38:25Z</time>
      </trkpt>
      <trkpt lat="44.76175" lon="5.69436">
        <ele>808</ele>
        <time>2017-12-15T22:38:35Z</time>
      </trkpt>
      <trkpt lat="44.7623" lon="5.69496">
        <ele>807</ele>
        <time>2017-12-15T22:38:47Z</time>
      </trkpt>
      <trkpt lat="44.76268" lon="5.69535">
        <ele>807</ele>
        <time>2017-12-15T22:38:57Z</time>
      </trkpt>
      <trkpt lat="44.76304" lon="5.6957">
        <ele>806</ele>
        <time>2017-12-15T22:39:04Z</time>
      </trkpt>
      <trkpt lat="44.76327" lon="5.69589">
        <ele>808</ele>
        <time>2017-12-15T22:39:12Z</time>
      </trkpt>
      <trkpt lat="44.76351" lon="5.6961">
        <ele>805</ele>
        <time>2017-12-15T22:39:26Z</time>
      </trkpt>
      <trkpt lat="44.76367" lon="5.6963">
        <ele>806</ele>
        <time>2017-12-15T22:39:40Z</time>
      </trkpt>
      <trkpt lat="44.76403" lon="5.69696">
        <ele>810</ele>
        <time>2017-12-15T22:39:58Z</time>
      </trkpt>
      <trkpt lat="44.76423" lon="5.69725">
        <ele>805</ele>
        <time>2017-12-15T22:40:14Z</time>
      </trkpt>
      <trkpt lat="44.7644" lon="5.69744">
        <ele>804</ele>
        <time>2017-12-15T22:40:17Z</time>
      </trkpt>
      <trkpt lat="44.7646" lon="5.69762">
        <ele>806</ele>
        <time>2017-12-15T22:40:26Z</time>
      </trkpt>
      <trkpt lat="44.76482" lon="5.69776">
        <ele>805</ele>
        <time>2017-12-15T22:40:32Z</time>
      </trkpt>
      <trkpt lat="44.7651" lon="5.69785">
        <ele>801</ele>
        <time>2017-12-15T22:40:42Z</time>
      </trkpt>
      <trkpt lat="44.76538" lon="5.6979">
        <ele>800</ele>
        <time>2017-12-15T22:40:45Z</time>
      </trkpt>
      <trkpt lat="44.76564" lon="5.69787">
        <ele>799</ele>
        <time>2017-12-15T22:40:48Z</time>
      </trkpt>
      <trkpt lat="44.76595" lon="5.69781">
        <ele>796</ele>
        <time>2017-12-15T22:40:51Z</time>
      </trkpt>
      <trkpt lat="44.76624" lon="5.69777">
        <ele>796</ele>
        <time>2017-12-15T22:40:54Z</time>
      </trkpt>
      <trkpt lat="44.76748" lon="5.69779">
        <ele>794</ele>
        <time>2017-12-15T22:41:10Z</time>
      </trkpt>
      <trkpt lat="44.76795" lon="5.6978">
        <ele>794</ele>
        <time>2017-12-15T22:41:15Z</time>
      </trkpt>
      <trkpt lat="44.7681" lon="5.69784">
        <ele>794</ele>
        <time>2017-12-15T22:41:33Z</time>
      </trkpt>
      <trkpt lat="44.76903" lon="5.69832">
        <ele>793</ele>
        <time>2017-12-15T22:41:43Z</time>
      </trkpt>
      <trkpt lat="44.76946" lon="5.69856">
        <ele>791</ele>
        <time>2017-12-15T22:41:59Z</time>
      </trkpt>
      <trkpt lat="44.76958" lon="5.69867">
        <ele>790</ele>
        <time>2017-12-15T22:42:02Z</time>
      </trkpt>
      <trkpt lat="44.76966" lon="5.69876">
        <ele>790</ele>
        <time>2017-12-15T22:42:07Z</time>
      </trkpt>
      <trkpt lat="44.76972" lon="5.69885">
        <ele>790</ele>
        <time>2017-12-15T22:42:10Z</time>
      </trkpt>
      <trkpt lat="44.76981" lon="5.69911">
        <ele>789</ele>
        <time>2017-12-15T22:42:28Z</time>
      </trkpt>
      <trkpt lat="44.76986" lon="5.69955">
        <ele>791</ele>
        <time>2017-12-15T22:42:41Z</time>
      </trkpt>
      <trkpt lat="44.76989" lon="5.70009">
        <ele>789</ele>
        <time>2017-12-15T22:42:54Z</time>
      </trkpt>
      <trkpt lat="44.7699" lon="5.70061">
        <ele>790</ele>
        <time>2017-12-15T22:43:13Z</time>
      </trkpt>
      <trkpt lat="44.76994" lon="5.70097">
        <ele>790</ele>
        <time>2017-12-15T22:43:15Z</time>
      </trkpt>
      <trkpt lat="44.77023" lon="5.70281">
        <ele>789</ele>
        <time>2017-12-15T22:43:32Z</time>
      </trkpt>
      <trkpt lat="44.77027" lon="5.7032">
        <ele>789</ele>
        <time>2017-12-15T22:43:43Z</time>
      </trkpt>
      <trkpt lat="44.77028" lon="5.70359">
        <ele>788</ele>
        <time>2017-12-15T22:43:56Z</time>
      </trkpt>
      <trkpt lat="44.77017" lon="5.70448">
        <ele>786</ele>
        <time>2017-12-15T22:44:00Z</time>
      </trkpt>
      <trkpt lat="44.77017" lon="5.70468">
        <ele>785</ele>
        <time>2017-12-15T22:44:09Z</time>
      </trkpt>
      <trkpt lat="44.77008" lon="5.70487">
        <ele>785</ele>
        <time>2017-12-15T22:44:12Z</time>
      </trkpt>
      <trkpt lat="44.76978" lon="5.7058">
        <ele>789</ele>
        <time>2017-12-15T22:44:32Z</time>
      </trkpt>
      <trkpt lat="44.76915" lon="5.70773">
        <ele>792</ele>
        <time>2017-12-15T22:44:48Z</time>
      </trkpt>
      <trkpt lat="44.76902" lon="5.70823">
        <ele>791</ele>
        <time>2017-12-15T22:44:58Z</time>
      </trkpt>
      <trkpt lat="44.76893" lon="5.70879">
        <ele>790</ele>
        <time>2017-12-15T22:45:11Z</time>
      </trkpt>
      <trkpt lat="44.76877" lon="5.71011">
        <ele>787</ele>
        <time>2017-12-15T22:45:31Z</time>
      </trkpt>
      <trkpt lat="44.76868" lon="5.71074">
        <ele>788</ele>
        <time>2017-12-15T22:45:36Z</time>
      </trkpt>
      <trkpt lat="44.76857" lon="5.71116">
        <ele>788</ele>
        <time>2017-12-15T22:45:39Z</time>
      </trkpt>
      <trkpt lat="44.76835" lon="5.71169">
        <ele>790</ele>
        <time>2017-12-15T22:45:53Z</time>
      </trkpt>
      <trkpt lat="44.76763" lon="5.71321">
        <ele>792</ele>
        <time>2017-12-15T22:46:02Z</time>
      </trkpt>
      <trkpt lat="44.7673" lon="5.71394">
        <ele>798</ele>
        <time>2017-12-15T22:46:09Z</time>
      </trkpt>
      <trkpt lat="44.76711" lon="5.71452">
        <ele>796</ele>
        <time>2017-12-15T22:46:24Z</time>
      </trkpt>
      <trkpt lat="44.76691" lon="5.71534">
        <ele>793</ele>
        <time>2017-12-15T22:46:27Z</time>
      </trkpt>
      <trkpt lat="44.76681" lon="5.7158">
        <ele>796</ele>
        <time>2017-12-15T22:46:44Z</time>
      </trkpt>
      <trkpt lat="44.76662" lon="5.71635">
        <ele>804</ele>
        <time>2017-12-15T22:46:52Z</time>
      </trkpt>
      <trkpt lat="44.76642" lon="5.71686">
        <ele>796</ele>
        <time>2017-12-15T22:47:10Z</time>
      </trkpt>
      <trkpt lat="44.76631" lon="5.71704">
        <ele>797</ele>
        <time>2017-12-15T22:47:25Z</time>
      </trkpt>
      <trkpt lat="44.76616" lon="5.71727">
        <ele>798</ele>
        <time>2017-12-15T22:47:38Z</time>
      </trkpt>
      <trkpt lat="44.76602" lon="5.71749">
        <ele>800</ele>
        <time>2017-12-15T22:47:53Z</time>
      </trkpt>
      <trkpt lat="44.76581" lon="5.71807">
        <ele>807</ele>
        <time>2017-12-15T22:48:11Z</time>
      </trkpt>
      <trkpt lat="44.76528" lon="5.71953">
        <ele>796</ele>
        <time>2017-12-15T22:48:26Z</time>
      </trkpt>
      <trkpt lat="44.76497" lon="5.72047">
        <ele>801</ele>
        <time>2017-12-15T22:48:29Z</time>
      </trkpt>
      <trkpt lat="44.76462" lon="5.72121">
        <ele>792</ele>
        <time>2017-12-15T22:48:49Z</time>
      </trkpt>
      <trkpt lat="44.76443" lon="5.72175">
        <ele>787</ele>
        <time>2017-12-15T22:48:58Z</time>
      </trkpt>
      <trkpt lat="44.76428" lon="5.72209">
        <ele>785</ele>
        <time>2017-12-15T22:49:05Z</time>
      </trkpt>
      <trkpt lat="44.76415" lon="5.72232">
        <ele>797</ele>
        <time>2017-12-15T22:49:11Z</time>
      </trkpt>
      <trkpt lat="44.76404" lon="5.72246">
        <ele>796</ele>
        <time>2017-12-15T22:49:24Z</time>
      </trkpt>
      <trkpt lat="44.76372" lon="5.72279">
        <ele>796</ele>
        <time>2017-12-15T22:49:37Z</time>
      </trkpt>
      <trkpt lat="44.76358" lon="5.72295">
        <ele>796</ele>
        <time>2017-12-15T22:49:44Z</time>
      </trkpt>
      <trkpt lat="44.76346" lon="5.72312">
        <ele>796</ele>
        <time>2017-12-15T22:49:58Z</time>
      </trkpt>
      <trkpt lat="44.76335" lon="5.7233">
        <ele>796</ele>
        <time>2017-12-15T22:50:17Z</time>
      </trkpt>
      <trkpt lat="44.76324" lon="5.72354">
        <ele>798</ele>
        <time>2017-12-15T22:50:34Z</time>
      </trkpt>
      <trkpt lat="44.76294" lon="5.72427">
        <ele>786</ele>
        <time>2017-12-15T22:50:41Z</time>
      </trkpt>
      <trkpt lat="44.76281" lon="5.72454">
        <ele>785</ele>
        <time>2017-12-15T22:50:52Z</time>
      </trkpt>
      <trkpt lat="44.76281" lon="5.72461">
        <ele>785</ele>
        <time>2017-12-15T22:51:12Z</time>
      </trkpt>
      <trkpt lat="44.76281" lon="5.72468">
        <ele>784</ele>
        <time>2017-12-15T22:51:26Z</time>
      </trkpt>
      <trkpt lat="44.76275" lon="5.72476">
        <ele>784</ele>
        <time>2017-12-15T22:51:46Z</time>
      </trkpt>
      <trkpt lat="44.76252" lon="5.72508">
        <ele>782</ele>
        <time>2017-12-15T22:52:01Z</time>
      </trkpt>
      <trkpt lat="44.76204" lon="5.72569">
        <ele>787</ele>
        <time>2017-12-15T22:52:15Z</time>
      </trkpt>
      <trkpt lat="44.75962" lon="5.72885">
        <ele>805</ele>
        <time>2017-12-15T22:52:31Z</time>
      </trkpt>
      <trkpt lat="44.75925" lon="5.72937">
        <ele>798</ele>
        <time>2017-12-15T22:52:45Z</time>
      </trkpt>
      <trkpt lat="44.7586" lon="5.73055">
        <ele>798</ele>
        <time>2017-12-15T22:52:49Z</time>
      </trkpt>
      <trkpt lat="44.75708" lon="5.73332">
        <ele>813</ele>
        <time>2017-12-15T22:52:58Z</time>
      </trkpt>
      <trkpt lat="44.75576" lon="5.73572">
        <ele>808</ele>
        <time>2017-12-15T22:53:03Z</time>
      </trkpt>
      <trkpt lat="44.75566" lon="5.73587">
        <ele>806</ele>
        <time>2017-12-15T22:53:10Z</time>
      </trkpt>
      <trkpt lat="44.75546" lon="5.73603">
        <ele>807</ele>
        <time>2017-12-15T22:53:14Z</time>
      </trkpt>
      <trkpt lat="44.75525" lon="5.73614">
        <ele>809</ele>
        <time>2017-12-15T22:53:17Z</time>
      </trkpt>
      <trkpt lat="44.75508" lon="5.73625">
        <ele>809</ele>
        <time>2017-12-15T22:53:28Z</time>
      </trkpt>
      <trkpt lat="44.75473" lon="5.73657">
        <ele>815</ele>
        <time>2017-12-15T22:53:39Z</time>
      </trkpt>
      <trkpt lat="44.75433" lon="5.73684">
        <ele>812</ele>
        <time>2017-12-15T22:53:50Z</time>
      </trkpt>
      <trkpt lat="44.75388" lon="5.73713">
        <ele>816</ele>
        <time>2017-12-15T22:54:04Z</time>
      </trkpt>
      <trkpt lat="44.75334" lon="5.73753">
        <ele>815</ele>
        <time>2017-12-15T22:54:10Z</time>
      </trkpt>
      <trkpt lat="44.75284" lon="5.73791">
        <ele>814</ele>
        <time>2017-12-15T22:54:19Z</time>
      </trkpt>
      <trkpt lat="44.75205" lon="5.73851">
        <ele>818</ele>
        <time>2017-12-15T22:54:30Z</time>
      </trkpt>
      <trkpt lat="44.75186" lon="5.73868">
        <ele>818</ele>
        <time>2017-12-15T22:54:50Z</time>
      </trkpt>
      <trkpt lat="44.75149" lon="5.73904">
        <ele>827</ele>
        <time>2017-12-15T22:55:09Z</time>
      </trkpt>
      <trkpt lat="44.75116" lon="5.73943">
        <ele>825</ele>
        <time>2017-12-15T22:55:16Z</time>
      </trkpt>
      <trkpt lat="44.75074" lon="5.74009">
        <ele>828</ele>
        <time>2017-12-15T22:55:21Z</time>
      </trkpt>
      <trkpt lat="44.75035" lon="5.74069">
        <ele>829</ele>
        <time>2017-12-15T22:55:39Z</time>
      </trkpt>
      <trkpt lat="44.74955" lon="5.74175">
        <ele>829</ele>
        <time>2017-12-15T22:55:45Z</time>
      </trkpt>
      <trkpt lat="44.74909" lon="5.74237">
        <ele>835</ele>
        <time>2017-12-15T22:55:47Z</time>
      </trkpt>
      <trkpt lat="44.74885" lon="5.74267">
        <ele>835</ele>
        <time>2017-12-15T22:56:01Z</time>
      </trkpt>
      <trkpt lat="44.74871" lon="5.74282">
        <ele>835</ele>
        <time>2017-12-15T22:56:14Z</time>
      </trkpt>
      <trkpt lat="44.74859" lon="5.74292">
        <ele>835</ele>
        <time>2017-12-15T22:56:17Z</time>
      </trkpt>
      <trkpt lat="44.74778" lon="5.74339">
        <ele>837</ele>
        <time>2017-12-15T22:56:28Z</time>
      </trkpt>
      <trkpt lat="44.74718" lon="5.74374">
        <ele>840</ele>
        <time>2017-12-15T22:56:36Z</time>
      </trkpt>
      <trkpt lat="44.74704" lon="5.74381">
        <ele>840</ele>
        <time>2017-12-15T22:56:45Z</time>
      </trkpt>
      <trkpt lat="44.7469" lon="5.74384">
        <ele>840</ele>
        <time>2017-12-15T22:56:55Z</time>
      </trkpt>
      <trkpt lat="44.74675" lon="5.74386">
        <ele>840</ele>
        <time>2017-12-15T22:57:04Z</time>
      </trkpt>
      <trkpt lat="44.74661" lon="5.7439">
        <ele>844</ele>
        <time>2017-12-15T22:57:11Z</time>
      </trkpt>
      <trkpt lat="44.74646" lon="5.74397">
        <ele>844</ele>
        <time>2017-12-15T22:57:30Z</time>
      </trkpt>
      <trkpt lat="44.74624" lon="5.74412">
        <ele>845</ele>
        <time>2017-12-15T22:57:46Z</time>
      </trkpt>
      <trkpt lat="44.74575" lon="5.74444">
        <ele>848</ele>
        <time>2017-12-15T22:58:04Z</time>
      </trkpt>
      <trkpt lat="44.74561" lon="5.74454">
        <ele>848</ele>
        <time>2017-12-15T22:58:12Z</time>
      </trkpt>
      <trkpt lat="44.74551" lon="5.74466">
        <ele>849</ele>
        <time>2017-12-15T22:58:17Z</time>
      </trkpt>
      <trkpt lat="44.74541" lon="5.74481">
        <ele>849</ele>
        <time>2017-12-15T22:58:19Z</time>
      </trkpt>
      <trkpt lat="44.74533" lon="5.74492">
        <ele>849</ele>
        <time>2017-12-15T22:58:29Z</time>
      </trkpt>
      <trkpt lat="44.74524" lon="5.74499">
        <ele>849</ele>
        <time>2017-12-15T22:58:48Z</time>
      </trkpt>
      <trkpt lat="44.74491" lon="5.74511">
        <ele>851</ele>
        <time>2017-12-15T22:58:58Z</time>
      </trkpt>
      <trkpt lat="44.74484" lon="5.74514">
        <ele>852</ele>
        <time>2017-12-15T22:59:12Z</time>
      </trkpt>
      <trkpt lat="44.74477" lon="5.74519">
        <ele>852</ele>
        <time>2017-12-15T22:59:26Z</time>
      </trkpt>
      <trkpt lat="44.74473" lon="5.74529">
        <ele>853</ele>
        <time>2017-12-15T22:59:43Z</time>
      </trkpt>
      <trkpt lat="44.74472" lon="5.74546">
        <ele>852</ele>
        <time>2017-12-15T22:59:54Z</time>
      </trkpt>
      <trkpt lat="44.74473" lon="5.74592">
        <ele>853</ele>
        <time>2017-12-15T23:00:13Z</time>
      </trkpt>
      <trkpt lat="44.74462" lon="5.74638">
        <ele>854</ele>
        <time>2017-12-15T23:00:30Z</time>
      </trkpt>
      <trkpt lat="44.74454" lon="5.74681">
        <ele>858</ele>
        <time>2017-12-15T23:00:37Z</time>
      </trkpt>
      <trkpt lat="44.7445" lon="5.74694">
        <ele>858</ele>
        <time>2017-12-15T23:00:57Z</time>
      </trkpt>
      <trkpt lat="44.74442" lon="5.74712">
        <ele>859</ele>
        <time>2017-12-15T23:01:11Z</time>
      </trkpt>
      <trkpt lat="44.74424" lon="5.74743">
        <ele>860</ele>
        <time>2017-12-15T23:01:14Z</time>
      </trkpt>
      <trkpt lat="44.74395" lon="5.74778">
        <ele>862</ele>
        <time>2017-12-15T23:01:20Z</time>
      </trkpt>
      <trkpt lat="44.74371" lon="5.74804">
        <ele>862</ele>
        <time>2017-12-15T23:01:29Z</time>
      </trkpt>
      <trkpt lat="44.74362" lon="5.74819">
        <ele>863</ele>
        <time>2017-12-15T23:01:33Z</time>
      </trkpt>
      <trkpt lat="44.74356" lon="5.74834">
        <ele>865</ele>
        <time>2017-12-15T23:01:42Z</time>
      </trkpt>
      <trkpt lat="44.74353" lon="5.74853">
        <ele>865</ele>
        <time>2017-12-15T23:01:58Z</time>
      </trkpt>
      <trkpt lat="44.74354" lon="5.74876">
        <ele>866</ele>
        <time>2017-12-15T23:02:09Z</time>
      </trkpt>
      <trkpt lat="44.74363" lon="5.74958">
        <ele>865</ele>
        <time>2017-12-15T23:02:24Z</time>
      </trkpt>
      <trkpt lat="44.74363" lon="5.74965">
        <ele>865</ele>
        <time>2017-12-15T23:02:30Z</time>
      </trkpt>
      <trkpt lat="44.74357" lon="5.7498">
        <ele>866</ele>
        <time>2017-12-15T23:02:44Z</time>
      </trkpt>
      <trkpt lat="44.74346" lon="5.7501">
        <ele>866</ele>
        <time>2017-12-15T23:02:55Z</time>
      </trkpt>
      <trkpt lat="44.74333" lon="5.75048">
        <ele>872</ele>
        <time>2017-12-15T23:03:10Z</time>
      </trkpt>
      <trkpt lat="44.74326" lon="5.75099">
        <ele>870</ele>
        <time>2017-12-15T23:03:16Z</time>
      </trkpt>
      <trkpt lat="44.74322" lon="5.75116">
        <ele>871</ele>
        <time>2017-12-15T23:03:35Z</time>
      </trkpt>
      <trkpt lat="44.74314" lon="5.75137">
        <ele>871</ele>
        <time>2017-12-15T23:03:45Z</time>
      </trkpt>
      <trkpt lat="44.74303" lon="5.75159">
        <ele>871</ele>
        <time>2017-12-15T23:03:49Z</time>
      </trkpt>
      <trkpt lat="44.74276" lon="5.75205">
        <ele>873</ele>
        <time>2017-12-15T23:03:51Z</time>
      </trkpt>
      <trkpt lat="44.74243" lon="5.75264">
        <ele>883</ele>
        <time>2017-12-15T23:03:55Z</time>
      </trkpt>
      <trkpt lat="44.74224" lon="5.75301">
        <ele>884</ele>
        <time>2017-12-15T23:04:06Z</time>
      </trkpt>
      <trkpt lat="44.74162" lon="5.75421">
        <ele>887</ele>
        <time>2017-12-15T23:04:10Z</time>
      </trkpt>
      <trkpt lat="44.74142" lon="5.75473">
        <ele>892</ele>
        <time>2017-12-15T23:04:15Z</time>
      </trkpt>
      <trkpt lat="44.74134" lon="5.75497">
        <ele>892</ele>
        <time>2017-12-15T23:04:35Z</time>
      </trkpt>
      <trkpt lat="44.74124" lon="5.75518">
        <ele>888</ele>
        <time>2017-12-15T23:04:40Z</time>
      </trkpt>
      <trkpt lat="44.74115" lon="5.75546">
        <ele>887</ele>
        <time>2017-12-15T23:04:56Z</time>
      </trkpt>
      <trkpt lat="44.74108" lon="5.75577">
        <ele>887</ele>
        <time>2017-12-15T23:05:10Z</time>
      </trkpt>
      <trkpt lat="44.74103" lon="5.75595">
        <ele>881</ele>
        <time>2017-12-15T23:05:18Z</time>
      </trkpt>
      <trkpt lat="44.74095" lon="5.7561">
        <ele>880</ele>
        <time>2017-12-15T23:05:30Z</time>
      </trkpt>
      <trkpt lat="44.74081" lon="5.75628">
        <ele>892</ele>
        <time>2017-12-15T23:05:48Z</time>
      </trkpt>
      <trkpt lat="44.74059" lon="5.75652">
        <ele>891</ele>
        <time>2017-12-15T23:06:07Z</time>
      </trkpt>
      <trkpt lat="44.74046" lon="5.75669">
        <ele>884</ele>
        <time>2017-12-15T23:06:19Z</time>
      </trkpt>
      <trkpt lat="44.74034" lon="5.75692">
        <ele>886</ele>
        <time>2017-12-15T23:06:28Z</time>
      </trkpt>
      <trkpt lat="44.74022" lon="5.75716">
        <ele>885</ele>
        <time>2017-12-15T23:06:39Z</time>
      </trkpt>
      <trkpt lat="44.74013" lon="5.75742">
        <ele>882</ele>
        <time>2017-12-15T23:06:56Z</time>
      </trkpt>
      <trkpt lat="44.74013" lon="5.75756">
        <ele>879</ele>
        <time>2017-12-15T23:07:00Z</time>
      </trkpt>
      <trkpt lat="44.74019" lon="5.75772">
        <ele>878</ele>
        <time>2017-12-15T23:07:06Z</time>
      </trkpt>
      <trkpt lat="44.74048" lon="5.75823">
        <ele>876</ele>
        <time>2017-12-15T23:07:08Z</time>
      </trkpt>
      <trkpt lat="44.74068" lon="5.75857">
        <ele>877</ele>
        <time>2017-12-15T23:07:25Z</time>
      </trkpt>
      <trkpt lat="44.7408" lon="5.75879">
        <ele>878</ele>
        <time>2017-12-15T23:07:44Z</time>
      </trkpt>
      <trkpt lat="44.74089" lon="5.75905">
        <ele>879</ele>
        <time>2017-12-15T23:08:02Z</time>
      </trkpt>
      <trkpt lat="44.74097" lon="5.75935">
        <ele>881</ele>
        <time>2017-12-15T23:08:07Z</time>
      </trkpt>
      <trkpt lat="44.74111" lon="5.7598">
        <ele>882</ele>
        <time>2017-12-15T23:08:20Z</time>
      </trkpt>
      <trkpt lat="44.74115" lon="5.76017">
        <ele>885</ele>
        <time>2017-12-15T23:08:32Z</time>
      </trkpt>
      <trkpt lat="44.74113" lon="5.76128">
        <ele>891</ele>
        <time>2017-12-15T23:08:37Z</time>
      </trkpt>
      <trkpt lat="44.74114" lon="5.76179">
        <ele>894</ele>
        <time>2017-12-15T23:08:56Z</time>
      </trkpt>
      <trkpt lat="44.74118" lon="5.76211">
        <ele>895</ele>
        <time>2017-12-15T23:09:02Z</time>
      </trkpt>
      <trkpt lat="44.74129" lon="5.76246">
        <ele>895</ele>
        <time>2017-12-15T23:09:07Z</time>
      </trkpt>
      <trkpt lat="44.74142" lon="5.76272">
        <ele>898</ele>
        <time>2017-12-15T23:09:16Z</time>
      </trkpt>
      <trkpt lat="44.74163" lon="5.76303">
        <ele>898</ele>
        <time>2017-12-15T23:09:26Z</time>
      </trkpt>
      <trkpt lat="44.74171" lon="5.76318">
        <ele>898</ele>
        <time>2017-12-15T23:09:44Z</time>
      </trkpt>
      <trkpt lat="44.74175" lon="5.76336">
        <ele>900</ele>
        <time>2017-12-15T23:10:00Z</time>
      </trkpt>
      <trkpt lat="44.74181" lon="5.76381">
        <ele>901</ele>
        <time>2017-12-15T23:10:04Z</time>
      </trkpt>
      <trkpt lat="44.74181" lon="5.76436">
        <ele>905</ele>
        <time>2017-12-15T23:10:09Z</time>
      </trkpt>
      <trkpt lat="44.74168" lon="5.76502">
        <ele>908</ele>
        <time>2017-12-15T23:10:26Z</time>
      </trkpt>
      <trkpt lat="44.74163" lon="5.76542">
        <ele>909</ele>
        <time>2017-12-15T23:10:33Z</time>
      </trkpt>
      <trkpt lat="44.74163" lon="5.76548">
        <ele>910</ele>
        <time>2017-12-15T23:10:50Z</time>
      </trkpt>
      <trkpt lat="44.74166" lon="5.76552">
        <ele>910</ele>
        <time>2017-12-15T23:10:53Z</time>
      </trkpt>
      <trkpt lat="44.74195" lon="5.76565">
        <ele>908</ele>
        <time>2017-12-15T23:10:59Z</time>
      </trkpt>
      <trkpt lat="44.74258" lon="5.76593">
        <ele>907</ele>
        <time>2017-12-15T23:11:03Z</time>
      </trkpt>
      <trkpt lat="44.74291" lon="5.76625">
        <ele>908</ele>
        <time>2017-12-15T23:11:09Z</time>
      </trkpt>
      <trkpt lat="44.74341" lon="5.76677">
        <ele>912</ele>
        <time>2017-12-15T23:11:26Z</time>
      </trkpt>
      <trkpt lat="44.74422" lon="5.76764">
        <ele>915</ele>
        <time>2017-12-15T23:11:31Z</time>
      </trkpt>
      <trkpt lat="44.74454" lon="5.76796">
        <ele>917</ele>
        <time>2017-12-15T23:11:38Z</time>
      </trkpt>
      <trkpt lat="44.7448" lon="5.76816">
        <ele>918</ele>
        <time>2017-12-15T23:11:57Z</time>
      </trkpt>
      <trkpt lat="44.74486" lon="5.76821">
        <ele>919</ele>
        <time>2017-12-15T23:12:17Z</time>
      </trkpt>
      <trkpt lat="44.74499" lon="5.76821">
        <ele>919</ele>
        <time>2017-12-15T23:12:24Z</time>
      </trkpt>
      <trkpt lat="44.74537" lon="5.76814">
        <ele>922</ele>
        <time>2017-12-15T23:12:42Z</time>
      </trkpt>
      <trkpt lat="44.74556" lon="5.76809">
        <ele>923</ele>
        <time>2017-12-15T23:12:56Z</time>
      </trkpt>
      <trkpt lat="44.74575" lon="5.76809">
        <ele>924</ele>
        <time>2017-12-15T23:13:12Z</time>
      </trkpt>
      <trkpt lat="44.7459" lon="5.76806">
        <ele>929</ele>
        <time>2017-12-15T23:13:20Z</time>
      </trkpt>
      <trkpt lat="44.74597" lon="5.76801">
        <ele>929</ele>
        <time>2017-12-15T23:13:29Z</time>
      </trkpt>
      <trkpt lat="44.74603" lon="5.76788">
        <ele>929</ele>
        <time>2017-12-15T23:13:45Z</time>
      </trkpt>
      <trkpt lat="44.74622" lon="5.76749">
        <ele>924</ele>
        <time>2017-12-15T23:13:47Z</time>
      </trkpt>
      <trkpt lat="44.74629" lon="5.76741">
        <ele>924</ele>
        <time>2017-12-15T23:13:58Z</time>
      </trkpt>
      <trkpt lat="44.74638" lon="5.76737">
        <ele>924</ele>
        <time>2017-12-15T23:14:15Z</time>
      </trkpt>
      <trkpt lat="44.74657" lon="5.76743">
        <ele>927</ele>
        <time>2017-12-15T23:14:33Z</time>
      </trkpt>
      <trkpt lat="44.74706" lon="5.7677">
        <ele>932</ele>
        <time>2017-12-15T23:14:45Z</time>
      </trkpt>
      <trkpt lat="44.74759" lon="5.76799">
        <ele>931</ele>
        <time>2017-12-15T23:14:47Z</time>
      </trkpt>
      <trkpt lat="44.74783" lon="5.76809">
        <ele>932</ele>
        <time>2017-12-15T23:14:52Z</time>
      </trkpt>
      <trkpt lat="44.74802" lon="5.76812">
        <ele>931</ele>
        <time>2017-12-15T23:14:59Z</time>
      </trkpt>
      <trkpt lat="44.74855" lon="5.76808">
        <ele>930</ele>
        <time>2017-12-15T23:15:07Z</time>
      </trkpt>
      <trkpt lat="44.7489" lon="5.76805">
        <ele>931</ele>
        <time>2017-12-15T23:15:16Z</time>
      </trkpt>
      <trkpt lat="44.74904" lon="5.768">
        <ele>931</ele>
        <time>2017-12-15T23:15:34Z</time>
      </trkpt>
      <trkpt lat="44.74993" lon="5.76729">
        <ele>932</ele>
        <time>2017-12-15T23:15:42Z</time>
      </trkpt>
      <trkpt lat="44.75008" lon="5.7671">
        <ele>939</ele>
        <time>2017-12-15T23:15:59Z</time>
      </trkpt>
      <trkpt lat="44.75033" lon="5.76685">
        <ele>940</ele>
        <time>2017-12-15T23:16:01Z</time>
      </trkpt>
      <trkpt lat="44.75062" lon="5.76662">
        <ele>941</ele>
        <time>2017-12-15T23:16:07Z</time>
      </trkpt>
      <trkpt lat="44.75074" lon="5.76657">
        <ele>942</ele>
        <time>2017-12-15T23:16:21Z</time>
      </trkpt>
      <trkpt lat="44.75114" lon="5.76634">
        <ele>946</ele>
        <time>2017-12-15T23:16:28Z</time>
      </trkpt>
      <trkpt lat="44.75121" lon="5.76628">
        <ele>946</ele>
        <time>2017-12-15T23:16:39Z</time>
      </trkpt>
      <trkpt lat="44.75131" lon="5.76622">
        <ele>947</ele>
        <time>2017-12-15T23:16:52Z</time>
      </trkpt>
      <trkpt lat="44.75151" lon="5.76609">
        <ele>947</ele>
        <time>2017-12-15T23:16:54Z</time>
      </trkpt>
      <trkpt lat="44.7517" lon="5.76596">
        <ele>950</ele>
        <time>2017-12-15T23:17:10Z</time>
      </trkpt>
      <trkpt lat="44.75178" lon="5.76587">
        <ele>950</ele>
        <time>2017-12-15T23:17:24Z</time>
      </trkpt>
      <trkpt lat="44.75186" lon="5.76569">
        <ele>953</ele>
        <time>2017-12-15T23:17:32Z</time>
      </trkpt>
      <trkpt lat="44.75188" lon="5.76542">
        <ele>955</ele>
        <time>2017-12-15T23:17:45Z</time>
      </trkpt>
      <trkpt lat="44.75183" lon="5.76525">
        <ele>956</ele>
        <time>2017-12-15T23:18:02Z</time>
      </trkpt>
      <trkpt lat="44.75148" lon="5.76454">
        <ele>955</ele>
        <time>2017-12-15T23:18:04Z</time>
      </trkpt>
      <trkpt lat="44.75129" lon="5.76428">
        <ele>954</ele>
        <time>2017-12-15T23:18:23Z</time>
      </trkpt>
      <trkpt lat="44.75115" lon="5.7641">
        <ele>960</ele>
        <time>2017-12-15T23:18:25Z</time>
      </trkpt>
      <trkpt lat="44.7511" lon="5.764">
        <ele>960</ele>
        <time>2017-12-15T23:18:27Z</time>
      </trkpt>
      <trkpt lat="44.75111" lon="5.76383">
        <ele>962</ele>
        <time>2017-12-15T23:18:30Z</time>
      </trkpt>
      <trkpt lat="44.75115" lon="5.76378">
        <ele>963</ele>
        <time>2017-12-15T23:18:42Z</time>
      </trkpt>
      <trkpt lat="44.75122" lon="5.76378">
        <ele>963</ele>
        <time>2017-12-15T23:18:54Z</time>
      </trkpt>
      <trkpt lat="44.75138" lon="5.76399">
        <ele>964</ele>
        <time>2017-12-15T23:19:11Z</time>
      </trkpt>
      <trkpt lat="44.75154" lon="5.76422">
        <ele>961</ele>
        <time>2017-12-15T23:19:21Z</time>
      </trkpt>
      <trkpt lat="44.75217" lon="5.76467">
        <ele>970</ele>
        <time>2017-12-15T23:19:39Z</time>
      </trkpt>
      <trkpt lat="44.75239" lon="5.76469">
        <ele>971</ele>
        <time>2017-12-15T23:19:47Z</time>
      </trkpt>
      <trkpt lat="44.75251" lon="5.76471">
        <ele>982</ele>
        <time>2017-12-15T23:20:07Z</time>
      </trkpt>
      <trkpt lat="44.75261" lon="5.7648">
        <ele>980</ele>
        <time>2017-12-15T23:20:26Z</time>
      </trkpt>
      <trkpt lat="44.75267" lon="5.76488">
        <ele>980</ele>
        <time>2017-12-15T23:20:36Z</time>
      </trkpt>
      <trkpt lat="44.75272" lon="5.76494">
        <ele>980</ele>
        <time>2017-12-15T23:20:55Z</time>
      </trkpt>
      <trkpt lat="44.75289" lon="5.7651">
        <ele>973</ele>
        <time>2017-12-15T23:21:00Z</time>
      </trkpt>
      <trkpt lat="44.75301" lon="5.76517">
        <ele>975</ele>
        <time>2017-12-15T23:21:16Z</time>
      </trkpt>
      <trkpt lat="44.75305" lon="5.76518">
        <ele>975</ele>
        <time>2017-12-15T23:21:27Z</time>
      </trkpt>
      <trkpt lat="44.75326" lon="5.76521">
        <ele>978</ele>
        <time>2017-12-15T23:21:39Z</time>
      </trkpt>
      <trkpt lat="44.75368" lon="5.76529">
        <ele>991</ele>
        <time>2017-12-15T23:21:42Z</time>
      </trkpt>
      <trkpt lat="44.75382" lon="5.76535">
        <ele>993</ele>
        <time>2017-12-15T23:21:45Z</time>
      </trkpt>
      <trkpt lat="44.75389" lon="5.76541">
        <ele>993</ele>
        <time>2017-12-15T23:22:04Z</time>
      </trkpt>
      <trkpt lat="44.7542" lon="5.76575">
        <ele>1002</ele>
        <time>2017-12-15T23:22:15Z</time>
      </trkpt>
      <trkpt lat="44.75434" lon="5.76591">
        <ele>998</ele>
        <time>2017-12-15T23:22:23Z</time>
      </trkpt>
      <trkpt lat="44.7545" lon="5.76624">
        <ele>999</ele>
        <time>2017-12-15T23:22:40Z</time>
      </trkpt>
      <trkpt lat="44.75458" lon="5.7665">
        <ele>997</ele>
        <time>2017-12-15T23:22:53Z</time>
      </trkpt>
      <trkpt lat="44.75468" lon="5.76657">
        <ele>998</ele>
        <time>2017-12-15T23:23:09Z</time>
      </trkpt>
      <trkpt lat="44.7553" lon="5.76671">
        <ele>1004</ele>
        <time>2017-12-15T23:23:28Z</time>
      </trkpt>
      <trkpt lat="44.75566" lon="5.76683">
        <ele>1009</ele>
        <time>2017-12-15T23:23:37Z</time>
      </trkpt>
      <trkpt lat="44.75598" lon="5.76689">
        <ele>1024</ele>
        <time>2017-12-15T23:23:47Z</time>
      </trkpt>
      <trkpt lat="44.75604" lon="5.76698">
        <ele>1025</ele>
        <time>2017-12-15T23:24:00Z</time>
      </trkpt>
      <trkpt lat="44.75606" lon="5.76718">
        <ele>1024</ele>
        <time>2017-12-15T23:24:20Z</time>
      </trkpt>
      <trkpt lat="44.756" lon="5.76727">
        <ele>1022</ele>
        <time>2017-12-15T23:24:31Z</time>
      </trkpt>
      <trkpt lat="44.75595" lon="5.76745">
        <ele>1017</ele>
        <time>2017-12-15T23:24:42Z</time>
      </trkpt>
      <trkpt lat="44.75593" lon="5.76758">
        <ele>1013</ele>
        <time>2017-12-15T23:25:01Z</time>
      </trkpt>
      <trkpt lat="44.75595" lon="5.76766">
        <ele>1015</ele>
        <time>2017-12-15T23:25:04Z</time>
      </trkpt>
      <trkpt lat="44.75614" lon="5.76799">
        <ele>1017</ele>
        <time>2017-12-15T23:25:19Z</time>
      </trkpt>
      <trkpt lat="44.75634" lon="5.76826">
        <ele>1020</ele>
        <time>2017-12-15T23:25:29Z</time>
      </trkpt>
      <trkpt lat="44.75654" lon="5.76843">
        <ele>1019</ele>
        <time>2017-12-15T23:25:39Z</time>
      </trkpt>
      <trkpt lat="44.7566" lon="5.76847">
        <ele>1019</ele>
        <time>2017-12-15T23:25:42Z</time>
      </trkpt>
      <trkpt lat="44.75666" lon="5.76847">
        <ele>1020</ele>
        <time>2017-12-15T23:25:56Z</time>
      </trkpt>
      <trkpt lat="44.75679" lon="5.76841">
        <ele>1031</ele>
        <time>2017-12-15T23:26:02Z</time>
      </trkpt>
      <trkpt lat="44.75692" lon="5.76837">
        <ele>1033</ele>
        <time>2017-12-15T23:26:11Z</time>
      </trkpt>
      <trkpt lat="44.75712" lon="5.76843">
        <ele>1038</ele>
        <time>2017-12-15T23:26:14Z</time>
      </trkpt>
      <trkpt lat="44.75716" lon="5.76852">
        <ele>1038</ele>
        <time>2017-12-15T23:26:24Z</time>
      </trkpt>
      <trkpt lat="44.75717" lon="5.76868">
        <ele>1036</ele>
        <time>2017-12-15T23:26:43Z</time>
      </trkpt>
      <trkpt lat="44.75715" lon="5.76908">
        <ele>1033</ele>
        <time>2017-12-15T23:26:49Z</time>
      </trkpt>
      <trkpt lat="44.75731" lon="5.76951">
        <ele>1026</ele>
        <time>2017-12-15T23:27:02Z</time>
      </trkpt>
      <trkpt lat="44.7574" lon="5.76956">
        <ele>1026</ele>
        <time>2017-12-15T23:27:18Z</time>
      </trkpt>
      <trkpt lat="44.75746" lon="5.76956">
        <ele>1026</ele>
        <time>2017-12-15T23:27:24Z</time>
      </trkpt>
      <trkpt lat="44.75756" lon="5.76954">
        <ele>1040</ele>
        <time>2017-12-15T23:27:28Z</time>
      </trkpt>
      <trkpt lat="44.75769" lon="5.76945">
        <ele>1042</ele>
        <time>2017-12-15T23:27:46Z</time>
      </trkpt>
      <trkpt lat="44.75775" lon="5.76937">
        <ele>1043</ele>
        <time>2017-12-15T23:28:05Z</time>
      </trkpt>
      <trkpt lat="44.75792" lon="5.76922">
        <ele>1046</ele>
        <time>2017-12-15T23:28:07Z</time>
      </trkpt>
      <trkpt lat="44.75802" lon="5.7692">
        <ele>1048</ele>
        <time>2017-12-15T23:28:23Z</time>
      </trkpt>
      <trkpt lat="44.75811" lon="5.76926">
        <ele>1050</ele>
        <time>2017-12-15T23:28:42Z</time>
      </trkpt>
      <trkpt lat="44.75824" lon="5.76952">
        <ele>1047</ele>
        <time>2017-12-15T23:29:00Z</time>
      </trkpt>
      <trkpt lat="44.75869" lon="5.77036">
        <ele>1062</ele>
        <time>2017-12-15T23:29:19Z</time>
      </trkpt>
      <trkpt lat="44.75875" lon="5.77056">
        <ele>1062</ele>
        <time>2017-12-15T23:29:32Z</time>
      </trkpt>
      <trkpt lat="44.75879" lon="5.7709">
        <ele>1061</ele>
        <time>2017-12-15T23:29:48Z</time>
      </trkpt>
      <trkpt lat="44.75873" lon="5.77117">
        <ele>1061</ele>
        <time>2017-12-15T23:29:55Z</time>
      </trkpt>
      <trkpt lat="44.75854" lon="5.77161">
        <ele>1059</ele>
        <time>2017-12-15T23:30:15Z</time>
      </trkpt>
      <trkpt lat="44.75843" lon="5.77187">
        <ele>1067</ele>
        <time>2017-12-15T23:30:35Z</time>
      </trkpt>
      <trkpt lat="44.75838" lon="5.77192">
        <ele>1068</ele>
        <time>2017-12-15T23:30:40Z</time>
      </trkpt>
      <trkpt lat="44.75816" lon="5.77197">
        <ele>1057</ele>
        <time>2017-12-15T23:30:53Z</time>
      </trkpt>
      <trkpt lat="44.75803" lon="5.77199">
        <ele>1056</ele>
        <time>2017-12-15T23:31:05Z</time>
      </trkpt>
      <trkpt lat="44.75799" lon="5.77204">
        <ele>1056</ele>
        <time>2017-12-15T23:31:24Z</time>
      </trkpt>
      <trkpt lat="44.75796" lon="5.77224">
        <ele>1058</ele>
        <time>2017-12-15T23:31:41Z</time>
      </trkpt>
      <trkpt lat="44.7579" lon="5.77277">
        <ele>1069</ele>
        <time>2017-12-15T23:31:44Z</time>
      </trkpt>
      <trkpt lat="44.75773" lon="5.77401">
        <ele>1085</ele>
        <time>2017-12-15T23:32:01Z</time>
      </trkpt>
      <trkpt lat="44.75769" lon="5.77408">
        <ele>1084</ele>
        <time>2017-12-15T23:32:19Z</time>
      </trkpt>
      <trkpt lat="44.7575" lon="5.77424">
        <ele>1085</ele>
        <time>2017-12-15T23:32:29Z</time>
      </trkpt>
      <trkpt lat="44.75738" lon="5.77434">
        <ele>1081</ele>
        <time>2017-12-15T23:32:42Z</time>
      </trkpt>
      <trkpt lat="44.75732" lon="5.77443">
        <ele>1083</ele>
        <time>2017-12-15T23:32:48Z</time>
      </trkpt>
      <trkpt lat="44.75732" lon="5.7746">
        <ele>1085</ele>
        <time>2017-12-15T23:33:03Z</time>
      </trkpt>
      <trkpt lat="44.75735" lon="5.77466">
        <ele>1086</ele>
        <time>2017-12-15T23:33:09Z</time>
      </trkpt>
      <trkpt lat="44.75739" lon="5.77469">
        <ele>1087</ele>
        <time>2017-12-15T23:33:13Z</time>
      </trkpt>
      <trkpt lat="44.75747" lon="5.77468">
        <ele>1087</ele>
        <time>2017-12-15T23:33:18Z</time>
      </trkpt>
      <trkpt lat="44.75761" lon="5.77453">
        <ele>1100</ele>
        <time>2017-12-15T23:33:20Z</time>
      </trkpt>
      <trkpt lat="44.75774" lon="5.77437">
        <ele>1100</ele>
        <time>2017-12-15T23:33:34Z</time>
      </trkpt>
      <trkpt lat="44.75792" lon="5.77414">
        <ele>1091</ele>
        <time>2017-12-15T23:33:49Z</time>
      </trkpt>
      <trkpt lat="44.758" lon="5.77381">
        <ele>1089</ele>
        <time>2017-12-15T23:34:00Z</time>
      </trkpt>
      <trkpt lat="44.75802" lon="5.77356">
        <ele>1087</ele>
        <time>2017-12-15T23:34:08Z</time>
      </trkpt>
      <trkpt lat="44.7581" lon="5.77328">
        <ele>1078</ele>
        <time>2017-12-15T23:34:14Z</time>
      </trkpt>
      <trkpt lat="44.75821" lon="5.77299">
        <ele>1076</ele>
        <time>2017-12-15T23:34:16Z</time>
      </trkpt>
      <trkpt lat="44.75829" lon="5.77296">
        <ele>1076</ele>
        <time>2017-12-15T23:34:34Z</time>
      </trkpt>
      <trkpt lat="44.75834" lon="5.77299">
        <ele>1092</ele>
        <time>2017-12-15T23:34:37Z</time>
      </trkpt>
      <trkpt lat="44.75846" lon="5.77322">
        <ele>1094</ele>
        <time>2017-12-15T23:34:46Z</time>
      </trkpt>
      <trkpt lat="44.75857" lon="5.77335">
        <ele>1109</ele>
        <time>2017-12-15T23:34:49Z</time>
      </trkpt>
      <trkpt lat="44.75867" lon="5.77338">
        <ele>1113</ele>
        <time>2017-12-15T23:35:01Z</time>
      </trkpt>
      <trkpt lat="44.75884" lon="5.77337">
        <ele>1117</ele>
        <time>2017-12-15T23:35:14Z</time>
      </trkpt>
      <trkpt lat="44.75898" lon="5.77332">
        <ele>1106</ele>
        <time>2017-12-15T23:35:25Z</time>
      </trkpt>
      <trkpt lat="44.75926" lon="5.77315">
        <ele>1120</ele>
        <time>2017-12-15T23:35:38Z</time>
      </trkpt>
      <trkpt lat="44.75934" lon="5.77305">
        <ele>1120</ele>
        <time>2017-12-15T23:35:55Z</time>
      </trkpt>
      <trkpt lat="44.7594" lon="5.77286">
        <ele>1118</ele>
        <time>2017-12-15T23:36:02Z</time>
      </trkpt>
      <trkpt lat="44.7595" lon="5.77262">
        <ele>1116</ele>
        <time>2017-12-15T23:36:04Z</time>
      </trkpt>
      <trkpt lat="44.75963" lon="5.77246">
        <ele>1106</ele>
        <time>2017-12-15T23:36:06Z</time>
      </trkpt>
      <trkpt lat="44.76002" lon="5.77188">
        <ele>1113</ele>
        <time>2017-12-15T23:36:18Z</time>
      </trkpt>
      <trkpt lat="44.76016" lon="5.77166">
        <ele>1111</ele>
        <time>2017-12-15T23:36:30Z</time>
      </trkpt>
      <trkpt lat="44.76019" lon="5.77161">
        <ele>1111</ele>
        <time>2017-12-15T23:36:41Z</time>
      </trkpt>
      <trkpt lat="44.76025" lon="5.77159">
        <ele>1111</ele>
        <time>2017-12-15T23:36:43Z</time>
      </trkpt>
      <trkpt lat="44.76041" lon="5.77157">
        <ele>1112</ele>
        <time>2017-12-15T23:36:54Z</time>
      </trkpt>
      <trkpt lat="44.76048" lon="5.77169">
        <ele>1112</ele>
        <time>2017-12-15T23:37:11Z</time>
      </trkpt>
      <trkpt lat="44.76052" lon="5.772">
        <ele>1113</ele>
        <time>2017-12-15T23:37:22Z</time>
      </trkpt>
      <trkpt lat="44.76059" lon="5.77227">
        <ele>1115</ele>
        <time>2017-12-15T23:37:34Z</time>
      </trkpt>
      <trkpt lat="44.7606" lon="5.7723">
        <ele>1115</ele>
        <time>2017-12-15T23:37:42Z</time>
      </trkpt>
      <trkpt lat="44.76068" lon="5.77243">
        <ele>1115</ele>
        <time>2017-12-15T23:37:52Z</time>
      </trkpt>
      <trkpt lat="44.76094" lon="5.77291">
        <ele>1101</ele>
        <time>2017-12-15T23:38:08Z</time>
      </trkpt>
      <trkpt lat="44.76103" lon="5.77315">
        <ele>1103</ele>
        <time>2017-12-15T23:38:20Z</time>
      </trkpt>
      <trkpt lat="44.76102" lon="5.77347">
        <ele>1102</ele>
        <time>2017-12-15T23:38:33Z</time>
      </trkpt>
      <trkpt lat="44.7609" lon="5.77375">
        <ele>1098</ele>
        <time>2017-12-15T23:38:39Z</time>
      </trkpt>
      <trkpt lat="44.76074" lon="5.7742">
        <ele>1115</ele>
        <time>2017-12-15T23:38:58Z</time>
      </trkpt>
      <trkpt lat="44.76069" lon="5.77459">
        <ele>1120</ele>
        <time>2017-12-15T23:39:05Z</time>
      </trkpt>
      <trkpt lat="44.76059" lon="5.77495">
        <ele>1117</ele>
        <time>2017-12-15T23:39:23Z</time>
      </trkpt>
      <trkpt lat="44.76057" lon="5.77512">
        <ele>1118</ele>
        <time>2017-12-15T23:39:43Z</time>
      </trkpt>
      <trkpt lat="44.7606" lon="5.77521">
        <ele>1118</ele>
        <time>2017-12-15T23:39:59Z</time>
      </trkpt>
      <trkpt lat="44.76075" lon="5.77546">
        <ele>1117</ele>
        <time>2017-12-15T23:40:18Z</time>
      </trkpt>
      <trkpt lat="44.76095" lon="5.77573">
        <ele>1091</ele>
        <time>2017-12-15T23:40:21Z</time>
      </trkpt>
      <trkpt lat="44.7612" lon="5.7761">
        <ele>1090</ele>
        <time>2017-12-15T23:40:35Z</time>
      </trkpt>
      <trkpt lat="44.7613" lon="5.77618">
        <ele>1088</ele>
        <time>2017-12-15T23:40:37Z</time>
      </trkpt>
      <trkpt lat="44.7614" lon="5.77621">
        <ele>1086</ele>
        <time>2017-12-15T23:40:49Z</time>
      </trkpt>
      <trkpt lat="44.76144" lon="5.77631">
        <ele>1086</ele>
        <time>2017-12-15T23:41:03Z</time>
      </trkpt>
      <trkpt lat="44.76144" lon="5.77639">
        <ele>1086</ele>
        <time>2017-12-15T23:41:07Z</time>
      </trkpt>
      <trkpt lat="44.7613" lon="5.77682">
        <ele>1101</ele>
        <time>2017-12-15T23:41:25Z</time>
      </trkpt>
      <trkpt lat="44.76124" lon="5.77714">
        <ele>1106</ele>
        <time>2017-12-15T23:41:29Z</time>
      </trkpt>
      <trkpt lat="44.76124" lon="5.77737">
        <ele>1108</ele>
        <time>2017-12-15T23:41:43Z</time>
      </trkpt>
      <trkpt lat="44.7613" lon="5.77749">
        <ele>1107</ele>
        <time>2017-12-15T23:41:47Z</time>
      </trkpt>
      <trkpt lat="44.76133" lon="5.77751">
        <ele>1119</ele>
        <time>2017-12-15T23:41:58Z</time>
      </trkpt>
      <trkpt lat="44.7615" lon="5.77752">
        <ele>1109</ele>
        <time>2017-12-15T23:42:09Z</time>
      </trkpt>
      <trkpt lat="44.76172" lon="5.77746">
        <ele>1088</ele>
        <time>2017-12-15T23:42:28Z</time>
      </trkpt>
      <trkpt lat="44.76186" lon="5.77734">
        <ele>1084</ele>
        <time>2017-12-15T23:42:46Z</time>
      </trkpt>
      <trkpt lat="44.76198" lon="5.77732">
        <ele>1083</ele>
        <time>2017-12-15T23:43:05Z</time>
      </trkpt>
      <trkpt lat="44.76208" lon="5.77742">
        <ele>1084</ele>
        <time>2017-12-15T23:43:20Z</time>
      </trkpt>
      <trkpt lat="44.76219" lon="5.77752">
        <ele>1103</ele>
        <time>2017-12-15T23:43:26Z</time>
      </trkpt>
      <trkpt lat="44.76231" lon="5.77748">
        <ele>1086</ele>
        <time>2017-12-15T23:43:31Z</time>
      </trkpt>
      <trkpt lat="44.7625" lon="5.77715">
        <ele>1083</ele>
        <time>2017-12-15T23:43:36Z</time>
      </trkpt>
      <trkpt lat="44.76259" lon="5.77702">
        <ele>1080</ele>
        <time>2017-12-15T23:43:54Z</time>
      </trkpt>
      <trkpt lat="44.76264" lon="5.777">
        <ele>1079</ele>
        <time>2017-12-15T23:44:14Z</time>
      </trkpt>
      <trkpt lat="44.76271" lon="5.77704">
        <ele>1081</ele>
        <time>2017-12-15T23:44:34Z</time>
      </trkpt>
      <trkpt lat="44.76282" lon="5.7772">
        <ele>1085</ele>
        <time>2017-12-15T23:44:40Z</time>
      </trkpt>
      <trkpt lat="44.76286" lon="5.77723">
        <ele>1085</ele>
        <time>2017-12-15T23:44:45Z</time>
      </trkpt>
      <trkpt lat="44.76291" lon="5.77723">
        <ele>1086</ele>
        <time>2017-12-15T23:45:01Z</time>
      </trkpt>
      <trkpt lat="44.76296" lon="5.7772">
        <ele>1085</ele>
        <time>2017-12-15T23:45:15Z</time>
      </trkpt>
      <trkpt lat="44.76299" lon="5.77713">
        <ele>1085</ele>
        <time>2017-12-15T23:45:31Z</time>
      </trkpt>
      <trkpt lat="44.76305" lon="5.77684">
        <ele>1081</ele>
        <time>2017-12-15T23:45:45Z</time>
      </trkpt>
      <trkpt lat="44.76306" lon="5.77663">
        <ele>1064</ele>
        <time>2017-12-15T23:45:49Z</time>
      </trkpt>
      <trkpt lat="44.76311" lon="5.77654">
        <ele>1064</ele>
        <time>2017-12-15T23:46:02Z</time>
      </trkpt>
      <trkpt lat="44.76317" lon="5.77645">
        <ele>1063</ele>
        <time>2017-12-15T23:46:04Z</time>
      </trkpt>
      <trkpt lat="44.76335" lon="5.77629">
        <ele>1065</ele>
        <time>2017-12-15T23:46:17Z</time>
      </trkpt>
      <trkpt lat="44.76362" lon="5.7761">
        <ele>1062</ele>
        <time>2017-12-15T23:46:23Z</time>
      </trkpt>
      <trkpt lat="44.76369" lon="5.77609">
        <ele>1062</ele>
        <time>2017-12-15T23:46:41Z</time>
      </trkpt>
      <trkpt lat="44.76378" lon="5.7761">
        <ele>1063</ele>
        <time>2017-12-15T23:46:43Z</time>
      </trkpt>
      <trkpt lat="44.76393" lon="5.77606">
        <ele>1062</ele>
        <time>2017-12-15T23:46:45Z</time>
      </trkpt>
      <trkpt lat="44.76433" lon="5.77584">
        <ele>1057</ele>
        <time>2017-12-15T23:46:50Z</time>
      </trkpt>
      <trkpt lat="44.76467" lon="5.77561">
        <ele>1045</ele>
        <time>2017-12-15T23:47:02Z</time>
      </trkpt>
      <trkpt lat="44.76487" lon="5.7755">
        <ele>1044</ele>
        <time>2017-12-15T23:47:07Z</time>
      </trkpt>
      <trkpt lat="44.76504" lon="5.77548">
        <ele>1040</ele>
        <time>2017-12-15T23:47:11Z</time>
      </trkpt>
      <trkpt lat="44.76513" lon="5.77544">
        <ele>1039</ele>
        <time>2017-12-15T23:47:23Z</time>
      </trkpt>
      <trkpt lat="44.76536" lon="5.77522">
        <ele>1037</ele>
        <time>2017-12-15T23:47:41Z</time>
      </trkpt>
      <trkpt lat="44.7657" lon="5.77503">
        <ele>1036</ele>
        <time>2017-12-15T23:47:51Z</time>
      </trkpt>
      <trkpt lat="44.76583" lon="5.77491">
        <ele>1032</ele>
        <time>2017-12-15T23:48:05Z</time>
      </trkpt>
      <trkpt lat="44.76614" lon="5.77452">
        <ele>1027</ele>
        <time>2017-12-15T23:48:09Z</time>
      </trkpt>
      <trkpt lat="44.76631" lon="5.77439">
        <ele>1026</ele>
        <time>2017-12-15T23:48:17Z</time>
      </trkpt>
      <trkpt lat="44.76646" lon="5.77435">
        <ele>1026</ele>
        <time>2017-12-15T23:48:19Z</time>
      </trkpt>
      <trkpt lat="44.76696" lon="5.77445">
        <ele>1023</ele>
        <time>2017-12-15T23:48:27Z</time>
      </trkpt>
      <trkpt lat="44.76711" lon="5.77446">
        <ele>1022</ele>
        <time>2017-12-15T23:48:41Z</time>
      </trkpt>
      <trkpt lat="44.76718" lon="5.77443">
        <ele>1022</ele>
        <time>2017-12-15T23:48:52Z</time>
      </trkpt>
      <trkpt lat="44.76737" lon="5.77427">
        <ele>1023</ele>
        <time>2017-12-15T23:49:07Z</time>
      </trkpt>
      <trkpt lat="44.76756" lon="5.77416">
        <ele>1024</ele>
        <time>2017-12-15T23:49:13Z</time>
      </trkpt>
      <trkpt lat="44.76767" lon="5.77416">
        <ele>1024</ele>
        <time>2017-12-15T23:49:15Z</time>
      </trkpt>
      <trkpt lat="44.76779" lon="5.77421">
        <ele>1022</ele>
        <time>2017-12-15T23:49:20Z</time>
      </trkpt>
      <trkpt lat="44.76801" lon="5.7745">
        <ele>1021</ele>
        <time>2017-12-15T23:49:29Z</time>
      </trkpt>
      <trkpt lat="44.76834" lon="5.77493">
        <ele>1017</ele>
        <time>2017-12-15T23:49:33Z</time>
      </trkpt>
      <trkpt lat="44.76904" lon="5.77586">
        <ele>1004</ele>
        <time>2017-12-15T23:49:38Z</time>
      </trkpt>
      <trkpt lat="44.76932" lon="5.77621">
        <ele>1005</ele>
        <time>2017-12-15T23:49:43Z</time>
      </trkpt>
      <trkpt lat="44.76961" lon="5.77642">
        <ele>1005</ele>
        <time>2017-12-15T23:49:49Z</time>
      </trkpt>
      <trkpt lat="44.76965" lon="5.77654">
        <ele>1004</ele>
        <time>2017-12-15T23:50:06Z</time>
      </trkpt>
      <trkpt lat="44.76963" lon="5.77666">
        <ele>1004</ele>
        <time>2017-12-15T23:50:17Z</time>
      </trkpt>
      <trkpt lat="44.76955" lon="5.77673">
        <ele>995</ele>
        <time>2017-12-15T23:50:37Z</time>
      </trkpt>
      <trkpt lat="44.76948" lon="5.77674">
        <ele>995</ele>
        <time>2017-12-15T23:50:52Z</time>
      </trkpt>
      <trkpt lat="44.76936" lon="5.77669">
        <ele>995</ele>
        <time>2017-12-15T23:50:57Z</time>
      </trkpt>
      <trkpt lat="44.76896" lon="5.77643">
        <ele>998</ele>
        <time>2017-12-15T23:51:07Z</time>
      </trkpt>
      <trkpt lat="44.76868" lon="5.7763">
        <ele>996</ele>
        <time>2017-12-15T23:51:17Z</time>
      </trkpt>
      <trkpt lat="44.76838" lon="5.77621">
        <ele>995</ele>
        <time>2017-12-15T23:51:24Z</time>
      </trkpt>
      <trkpt lat="44.76809" lon="5.7763">
        <ele>991</ele>
        <time>2017-12-15T23:51:27Z</time>
      </trkpt>
      <trkpt lat="44.76766" lon="5.7764">
        <ele>990</ele>
        <time>2017-12-15T23:51:31Z</time>
      </trkpt>
      <trkpt lat="44.76743" lon="5.77648">
        <ele>991</ele>
        <time>2017-12-15T23:51:36Z</time>
      </trkpt>
      <trkpt lat="44.76715" lon="5.77676">
        <ele>988</ele>
        <time>2017-12-15T23:51:54Z</time>
      </trkpt>
      <trkpt lat="44.76692" lon="5.77719">
        <ele>989</ele>
        <time>2017-12-15T23:52:05Z</time>
      </trkpt>
      <trkpt lat="44.76684" lon="5.77756">
        <ele>987</ele>
        <time>2017-12-15T23:52:15Z</time>
      </trkpt>
      <trkpt lat="44.76688" lon="5.77818">
        <ele>984</ele>
        <time>2017-12-15T23:52:34Z</time>
      </trkpt>
      <trkpt lat="44.76692" lon="5.77878">
        <ele>976</ele>
        <time>2017-12-15T23:52:54Z</time>
      </trkpt>
      <trkpt lat="44.76692" lon="5.77901">
        <ele>975</ele>
        <time>2017-12-15T23:53:06Z</time>
      </trkpt>
      <trkpt lat="44.76667" lon="5.77946">
        <ele>968</ele>
        <time>2017-12-15T23:53:15Z</time>
      </trkpt>
      <trkpt lat="44.76648" lon="5.77991">
        <ele>967</ele>
        <time>2017-12-15T23:53:22Z</time>
      </trkpt>
      <trkpt lat="44.76642" lon="5.78011">
        <ele>964</ele>
        <time>2017-12-15T23:53:28Z</time>
      </trkpt>
      <trkpt lat="44.76642" lon="5.78026">
        <ele>964</ele>
        <time>2017-12-15T23:53:39Z</time>
      </trkpt>
      <trkpt lat="44.76644" lon="5.78034">
        <ele>964</ele>
        <time>2017-12-15T23:53:47Z</time>
      </trkpt>
      <trkpt lat="44.76657" lon="5.78055">
        <ele>963</ele>
        <time>2017-12-15T23:53:58Z</time>
      </trkpt>
      <trkpt lat="44.76698" lon="5.78104">
        <ele>955</ele>
        <time>2017-12-15T23:54:08Z</time>
      </trkpt>
      <trkpt lat="44.76708" lon="5.78112">
        <ele>954</ele>
        <time>2017-12-15T23:54:22Z</time>
      </trkpt>
      <trkpt lat="44.76738" lon="5.78129">
        <ele>952</ele>
        <time>2017-12-15T23:54:32Z</time>
      </trkpt>
      <trkpt lat="44.76748" lon="5.78136">
        <ele>952</ele>
        <time>2017-12-15T23:54:47Z</time>
      </trkpt>
      <trkpt lat="44.76756" lon="5.78142">
        <ele>948</ele>
        <time>2017-12-15T23:55:07Z</time>
      </trkpt>
      <trkpt lat="44.76818" lon="5.78174">
        <ele>947</ele>
        <time>2017-12-15T23:55:14Z</time>
      </trkpt>
      <trkpt lat="44.76839" lon="5.78177">
        <ele>945</ele>
        <time>2017-12-15T23:55:22Z</time>
      </trkpt>
      <trkpt lat="44.76893" lon="5.78173">
        <ele>943</ele>
        <time>2017-12-15T23:55:28Z</time>
      </trkpt>
      <trkpt lat="44.76942" lon="5.78171">
        <ele>939</ele>
        <time>2017-12-15T23:55:48Z</time>
      </trkpt>
      <trkpt lat="44.76984" lon="5.78177">
        <ele>936</ele>
        <time>2017-12-15T23:56:01Z</time>
      </trkpt>
      <trkpt lat="44.77036" lon="5.78184">
        <ele>931</ele>
        <time>2017-12-15T23:56:12Z</time>
      </trkpt>
      <trkpt lat="44.77059" lon="5.78185">
        <ele>930</ele>
        <time>2017-12-15T23:56:18Z</time>
      </trkpt>
      <trkpt lat="44.77114" lon="5.78183">
        <ele>923</ele>
        <time>2017-12-15T23:56:26Z</time>
      </trkpt>
      <trkpt lat="44.77206" lon="5.78192">
        <ele>915</ele>
        <time>2017-12-15T23:56:28Z</time>
      </trkpt>
      <trkpt lat="44.77236" lon="5.78187">
        <ele>913</ele>
        <time>2017-12-15T23:56:32Z</time>
      </trkpt>
      <trkpt lat="44.77279" lon="5.78175">
        <ele>908</ele>
        <time>2017-12-15T23:56:42Z</time>
      </trkpt>
      <trkpt lat="44.77294" lon="5.78174">
        <ele>908</ele>
        <time>2017-12-15T23:56:55Z</time>
      </trkpt>
      <trkpt lat="44.7733" lon="5.78179">
        <ele>907</ele>
        <time>2017-12-15T23:56:57Z</time>
      </trkpt>
      <trkpt lat="44.77376" lon="5.78177">
        <ele>904</ele>
        <time>2017-12-15T23:57:16Z</time>
      </trkpt>
      <trkpt lat="44.77407" lon="5.78171">
        <ele>902</ele>
        <time>2017-12-15T23:57:25Z</time>
      </trkpt>
      <trkpt lat="44.77419" lon="5.78174">
        <ele>901</ele>
        <time>2017-12-15T23:57:45Z</time>
      </trkpt>
      <trkpt lat="44.77451" lon="5.78195">
        <ele>901</ele>
        <time>2017-12-15T23:58:03Z</time>
      </trkpt>
      <trkpt lat="44.77482" lon="5.78212">
        <ele>901</ele>
        <time>2017-12-15T23:58:11Z</time>
      </trkpt>
      <trkpt lat="44.77524" lon="5.78216">
        <ele>898</ele>
        <time>2017-12-15T23:58:26Z</time>
      </trkpt>
      <trkpt lat="44.77565" lon="5.78209">
        <ele>897</ele>
        <time>2017-12-15T23:58:33Z</time>
      </trkpt>
      <trkpt lat="44.776" lon="5.78198">
        <ele>893</ele>
        <time>2017-12-15T23:58:44Z</time>
      </trkpt>
      <trkpt lat="44.77634" lon="5.7818">
        <ele>893</ele>
        <time>2017-12-15T23:58:50Z</time>
      </trkpt>
      <trkpt lat="44.77649" lon="5.78172">
        <ele>892</ele>
        <time>2017-12-15T23:59:06Z</time>
      </trkpt>
      <trkpt lat="44.77669" lon="5.78173">
        <ele>890</ele>
        <time>2017-12-15T23:59:08Z</time>
      </trkpt>
      <trkpt lat="44.77706" lon="5.78196">
        <ele>891</ele>
        <time>2017-12-15T23:59:27Z</time>
      </trkpt>
      <trkpt lat="44.77721" lon="5.78198">
        <ele>891</ele>
        <time>2017-12-15T23:59:31Z</time>
      </trkpt>
      <trkpt lat="44.77751" lon="5.78193">
        <ele>890</ele>
        <time>2017-12-15T23:59:47Z</time>
      </trkpt>
      <trkpt lat="44.77795" lon="5.78181">
        <ele>890</ele>
        <time>2017-12-15T23:59:59Z</time>
      </trkpt>
      <trkpt lat="44.77834" lon="5.78167">
        <ele>889</ele>
        <time>2017-12-16T00:00:15Z</time>
      </trkpt>
      <trkpt lat="44.77891" lon="5.78134">
        <ele>888</ele>
        <time>2017-12-16T00:00:34Z</time>
      </trkpt>
      <trkpt lat="44.77943" lon="5.78102">
        <ele>887</ele>
        <time>2017-12-16T00:00:41Z</time>
      </trkpt>
      <trkpt lat="44.77962" lon="5.78077">
        <ele>884</ele>
        <time>2017-12-16T00:01:00Z</time>
      </trkpt>
      <trkpt lat="44.77972" lon="5.78062">
        <ele>884</ele>
        <time>2017-12-16T00:01:06Z</time>
      </trkpt>
      <trkpt lat="44.77981" lon="5.78052">
        <ele>884</ele>
        <time>2017-12-16T00:01:09Z</time>
      </trkpt>
      <trkpt lat="44.77992" lon="5.78044">
        <ele>883</ele>
        <time>2017-12-16T00:01:12Z</time>
      </trkpt>
      <trkpt lat="44.78031" lon="5.78026">
        <ele>884</ele>
        <time>2017-12-16T00:01:26Z</time>
      </trkpt>
      <trkpt lat="44.78071" lon="5.78009">
        <ele>884</ele>
        <time>2017-12-16T00:01:42Z</time>
      </trkpt>
      <trkpt lat="44.78079" lon="5.78002">
        <ele>885</ele>
        <time>2017-12-16T00:01:51Z</time>
      </trkpt>
      <trkpt lat="44.78083" lon="5.77994">
        <ele>885</ele>
        <time>2017-12-16T00:01:56Z</time>
      </trkpt>
      <trkpt lat="44.78086" lon="5.77983">
        <ele>892</ele>
        <time>2017-12-16T00:02:04Z</time>
      </trkpt>
      <trkpt lat="44.78086" lon="5.77966">
        <ele>894</ele>
        <time>2017-12-16T00:02:17Z</time>
      </trkpt>
      <trkpt lat="44.78081" lon="5.7785">
        <ele>882</ele>
        <time>2017-12-16T00:02:25Z</time>
      </trkpt>
      <trkpt lat="44.78076" lon="5.77743">
        <ele>875</ele>
        <time>2017-12-16T00:02:27Z</time>
      </trkpt>
      <trkpt lat="44.78077" lon="5.7769">
        <ele>871</ele>
        <time>2017-12-16T00:02:43Z</time>
      </trkpt>
      <trkpt lat="44.78079" lon="5.77659">
        <ele>870</ele>
        <time>2017-12-16T00:03:02Z</time>
      </trkpt>
      <trkpt lat="44.78079" lon="5.77602">
        <ele>867</ele>
        <time>2017-12-16T00:03:18Z</time>
      </trkpt>
      <trkpt lat="44.78072" lon="5.77455">
        <ele>862</ele>
        <time>2017-12-16T00:03:32Z</time>
      </trkpt>
      <trkpt lat="44.78073" lon="5.7743">
        <ele>862</ele>
        <time>2017-12-16T00:03:34Z</time>
      </trkpt>
      <trkpt lat="44.78077" lon="5.77396">
        <ele>860</ele>
        <time>2017-12-16T00:03:43Z</time>
      </trkpt>
      <trkpt lat="44.78085" lon="5.77361">
        <ele>861</ele>
        <time>2017-12-16T00:03:52Z</time>
      </trkpt>
      <trkpt lat="44.78101" lon="5.77327">
        <ele>858</ele>
        <time>2017-12-16T00:04:04Z</time>
      </trkpt>
      <trkpt lat="44.78138" lon="5.77274">
        <ele>858</ele>
        <time>2017-12-16T00:04:08Z</time>
      </trkpt>
      <trkpt lat="44.78149" lon="5.77252">
        <ele>858</ele>
        <time>2017-12-16T00:04:24Z</time>
      </trkpt>
      <trkpt lat="44.78181" lon="5.77168">
        <ele>855</ele>
        <time>2017-12-16T00:04:33Z</time>
      </trkpt>
      <trkpt lat="44.782" lon="5.77139">
        <ele>851</ele>
        <time>2017-12-16T00:04:38Z</time>
      </trkpt>
      <trkpt lat="44.78223" lon="5.77119">
        <ele>851</ele>
        <time>2017-12-16T00:04:40Z</time>
      </trkpt>
      <trkpt lat="44.78234" lon="5.77105">
        <ele>850</ele>
        <time>2017-12-16T00:04:47Z</time>
      </trkpt>
      <trkpt lat="44.78249" lon="5.77068">
        <ele>848</ele>
        <time>2017-12-16T00:05:06Z</time>
      </trkpt>
      <trkpt lat="44.78257" lon="5.77047">
        <ele>849</ele>
        <time>2017-12-16T00:05:11Z</time>
      </trkpt>
      <trkpt lat="44.78271" lon="5.77022">
        <ele>848</ele>
        <time>2017-12-16T00:05:25Z</time>
      </trkpt>
      <trkpt lat="44.7832" lon="5.76957">
        <ele>847</ele>
        <time>2017-12-16T00:05:31Z</time>
      </trkpt>
      <trkpt lat="44.78336" lon="5.76945">
        <ele>850</ele>
        <time>2017-12-16T00:05:34Z</time>
      </trkpt>
      <trkpt lat="44.78347" lon="5.76939">
        <ele>850</ele>
        <time>2017-12-16T00:05:40Z</time>
      </trkpt>
      <trkpt lat="44.78369" lon="5.76931">
        <ele>850</ele>
        <time>2017-12-16T00:05:56Z</time>
      </trkpt>
      <trkpt lat="44.78391" lon="5.76919">
        <ele>851</ele>
        <time>2017-12-16T00:06:13Z</time>
      </trkpt>
      <trkpt lat="44.78416" lon="5.76901">
        <ele>849</ele>
        <time>2017-12-16T00:06:33Z</time>
      </trkpt>
      <trkpt lat="44.78441" lon="5.76874">
        <ele>850</ele>
        <time>2017-12-16T00:06:49Z</time>
      </trkpt>
      <trkpt lat="44.78463" lon="5.76847">
        <ele>850</ele>
        <time>2017-12-16T00:07:09Z</time>
      </trkpt>
      <trkpt lat="44.7847" lon="5.76839">
        <ele>850</ele>
        <time>2017-12-16T00:07:27Z</time>
      </trkpt>
      <trkpt lat="44.78487" lon="5.76825">
        <ele>848</ele>
        <time>2017-12-16T00:07:36Z</time>
      </trkpt>
      <trkpt lat="44.78512" lon="5.7681">
        <ele>848</ele>
        <time>2017-12-16T00:07:54Z</time>
      </trkpt>
      <trkpt lat="44.78569" lon="5.76776">
        <ele>847</ele>
        <time>2017-12-16T00:08:00Z</time>
      </trkpt>
      <trkpt lat="44.78612" lon="5.76755">
        <ele>846</ele>
        <time>2017-12-16T00:08:04Z</time>
      </trkpt>
      <trkpt lat="44.78691" lon="5.76732">
        <ele>844</ele>
        <time>2017-12-16T00:08:19Z</time>
      </trkpt>
      <trkpt lat="44.78723" lon="5.76723">
        <ele>844</ele>
        <time>2017-12-16T00:08:36Z</time>
      </trkpt>
      <trkpt lat="44.78766" lon="5.76706">
        <ele>846</ele>
        <time>2017-12-16T00:08:52Z</time>
      </trkpt>
      <trkpt lat="44.78797" lon="5.7669">
        <ele>847</ele>
        <time>2017-12-16T00:09:01Z</time>
      </trkpt>
      <trkpt lat="44.78807" lon="5.7668">
        <ele>847</ele>
        <time>2017-12-16T00:09:18Z</time>
      </trkpt>
      <trkpt lat="44.78822" lon="5.76655">
        <ele>846</ele>
        <time>2017-12-16T00:09:33Z</time>
      </trkpt>
      <trkpt lat="44.7884" lon="5.76592">
        <ele>847</ele>
        <time>2017-12-16T00:09:44Z</time>
      </trkpt>
      <trkpt lat="44.78864" lon="5.76533">
        <ele>844</ele>
        <time>2017-12-16T00:09:59Z</time>
      </trkpt>
      <trkpt lat="44.78882" lon="5.76498">
        <ele>839</ele>
        <time>2017-12-16T00:10:18Z</time>
      </trkpt>
      <trkpt lat="44.789" lon="5.76472">
        <ele>839</ele>
        <time>2017-12-16T00:10:24Z</time>
      </trkpt>
      <trkpt lat="44.78927" lon="5.76442">
        <ele>841</ele>
        <time>2017-12-16T00:10:28Z</time>
      </trkpt>
      <trkpt lat="44.78939" lon="5.76427">
        <ele>841</ele>
        <time>2017-12-16T00:10:40Z</time>
      </trkpt>
      <trkpt lat="44.78953" lon="5.76407">
        <ele>837</ele>
        <time>2017-12-16T00:10:53Z</time>
      </trkpt>
      <trkpt lat="44.7897" lon="5.76376">
        <ele>837</ele>
        <time>2017-12-16T00:11:13Z</time>
      </trkpt>
      <trkpt lat="44.79013" lon="5.76303">
        <ele>836</ele>
        <time>2017-12-16T00:11:30Z</time>
      </trkpt>
      <trkpt lat="44.79053" lon="5.7624">
        <ele>830</ele>
        <time>2017-12-16T00:11:38Z</time>
      </trkpt>
      <trkpt lat="44.79085" lon="5.76201">
        <ele>833</ele>
        <time>2017-12-16T00:11:47Z</time>
      </trkpt>
      <trkpt lat="44.79138" lon="5.76149">
        <ele>828</ele>
        <time>2017-12-16T00:11:53Z</time>
      </trkpt>
      <trkpt lat="44.7917" lon="5.76117">
        <ele>834</ele>
        <time>2017-12-16T00:12:05Z</time>
      </trkpt>
      <trkpt lat="44.79196" lon="5.7608">
        <ele>825</ele>
        <time>2017-12-16T00:12:17Z</time>
      </trkpt>
      <trkpt lat="44.79218" lon="5.76043">
        <ele>826</ele>
        <time>2017-12-16T00:12:37Z</time>
      </trkpt>
      <trkpt lat="44.79241" lon="5.76003">
        <ele>826</ele>
        <time>2017-12-16T00:12:51Z</time>
      </trkpt>
      <trkpt lat="44.79258" lon="5.75984">
        <ele>826</ele>
        <time>2017-12-16T00:13:00Z</time>
      </trkpt>
      <trkpt lat="44.79283" lon="5.75967">
        <ele>827</ele>
        <time>2017-12-16T00:13:10Z</time>
      </trkpt>
      <trkpt lat="44.79286" lon="5.75962">
        <ele>827</ele>
        <time>2017-12-16T00:13:23Z</time>
      </trkpt>
      <trkpt lat="44.79288" lon="5.75952">
        <ele>826</ele>
        <time>2017-12-16T00:13:36Z</time>
      </trkpt>
      <trkpt lat="44.79295" lon="5.75949">
        <ele>827</ele>
        <time>2017-12-16T00:13:49Z</time>
      </trkpt>
      <trkpt lat="44.79317" lon="5.75935">
        <ele>827</ele>
        <time>2017-12-16T00:13:56Z</time>
      </trkpt>
      <trkpt lat="44.79348" lon="5.7591">
        <ele>826</ele>
        <time>2017-12-16T00:14:08Z</time>
      </trkpt>
      <trkpt lat="44.79396" lon="5.75866">
        <ele>825</ele>
        <time>2017-12-16T00:14:21Z</time>
      </trkpt>
      <trkpt lat="44.79414" lon="5.75844">
        <ele>823</ele>
        <time>2017-12-16T00:14:40Z</time>
      </trkpt>
      <trkpt lat="44.79464" lon="5.75773">
        <ele>824</ele>
        <time>2017-12-16T00:14:57Z</time>
      </trkpt>
      <trkpt lat="44.79505" lon="5.75723">
        <ele>822</ele>
        <time>2017-12-16T00:15:14Z</time>
      </trkpt>
      <trkpt lat="44.79537" lon="5.75692">
        <ele>818</ele>
        <time>2017-12-16T00:15:17Z</time>
      </trkpt>
      <trkpt lat="44.79554" lon="5.7568">
        <ele>819</ele>
        <time>2017-12-16T00:15:22Z</time>
      </trkpt>
      <trkpt lat="44.79571" lon="5.75671">
        <ele>819</ele>
        <time>2017-12-16T00:15:32Z</time>
      </trkpt>
      <trkpt lat="44.7959" lon="5.75664">
        <ele>816</ele>
        <time>2017-12-16T00:15:39Z</time>
      </trkpt>
      <trkpt lat="44.79608" lon="5.75653">
        <ele>814</ele>
        <time>2017-12-16T00:15:43Z</time>
      </trkpt>
      <trkpt lat="44.79617" lon="5.75646">
        <ele>814</ele>
        <time>2017-12-16T00:15:58Z</time>
      </trkpt>
      <trkpt lat="44.79632" lon="5.7563">
        <ele>813</ele>
        <time>2017-12-16T00:16:06Z</time>
      </trkpt>
      <trkpt lat="44.7966" lon="5.75592">
        <ele>813</ele>
        <time>2017-12-16T00:16:22Z</time>
      </trkpt>
      <trkpt lat="44.79675" lon="5.75576">
        <ele>810</ele>
        <time>2017-12-16T00:16:35Z</time>
      </trkpt>
      <trkpt lat="44.79695" lon="5.75562">
        <ele>807</ele>
        <time>2017-12-16T00:16:52Z</time>
      </trkpt>
      <trkpt lat="44.79729" lon="5.75538">
        <ele>805</ele>
        <time>2017-12-16T00:17:04Z</time>
      </trkpt>
      <trkpt lat="44.79756" lon="5.75516">
        <ele>805</ele>
        <time>2017-12-16T00:17:11Z</time>
      </trkpt>
      <trkpt lat="44.79773" lon="5.75505">
        <ele>806</ele>
        <time>2017-12-16T00:17:31Z</time>
      </trkpt>
      <trkpt lat="44.7979" lon="5.75498">
        <ele>807</ele>
        <time>2017-12-16T00:17:38Z</time>
      </trkpt>
      <trkpt lat="44.79808" lon="5.75494">
        <ele>807</ele>
        <time>2017-12-16T00:17:52Z</time>
      </trkpt>
      <trkpt lat="44.79859" lon="5.75487">
        <ele>812</ele>
        <time>2017-12-16T00:17:54Z</time>
      </trkpt>
      <trkpt lat="44.79938" lon="5.75476">
        <ele>809</ele>
        <time>2017-12-16T00:18:04Z</time>
      </trkpt>
      <trkpt lat="44.79962" lon="5.75473">
        <ele>809</ele>
        <time>2017-12-16T00:18:14Z</time>
      </trkpt>
      <trkpt lat="44.79989" lon="5.75466">
        <ele>808</ele>
        <time>2017-12-16T00:18:31Z</time>
      </trkpt>
      <trkpt lat="44.80015" lon="5.75458">
        <ele>803</ele>
        <time>2017-12-16T00:18:33Z</time>
      </trkpt>
      <trkpt lat="44.80041" lon="5.75455">
        <ele>802</ele>
        <time>2017-12-16T00:18:42Z</time>
      </trkpt>
      <trkpt lat="44.80061" lon="5.75455">
        <ele>801</ele>
        <time>2017-12-16T00:18:58Z</time>
      </trkpt>
      <trkpt lat="44.80081" lon="5.7546">
        <ele>801</ele>
        <time>2017-12-16T00:19:07Z</time>
      </trkpt>
      <trkpt lat="44.80115" lon="5.75463">
        <ele>797</ele>
        <time>2017-12-16T00:19:15Z</time>
      </trkpt>
      <trkpt lat="44.80142" lon="5.7546">
        <ele>796</ele>
        <time>2017-12-16T00:19:25Z</time>
      </trkpt>
      <trkpt lat="44.8016" lon="5.75456">
        <ele>796</ele>
        <time>2017-12-16T00:19:45Z</time>
      </trkpt>
      <trkpt lat="44.80192" lon="5.75444">
        <ele>794</ele>
        <time>2017-12-16T00:19:59Z</time>
      </trkpt>
      <trkpt lat="44.80209" lon="5.75431">
        <ele>795</ele>
        <time>2017-12-16T00:20:10Z</time>
      </trkpt>
      <trkpt lat="44.80236" lon="5.75406">
        <ele>794</ele>
        <time>2017-12-16T00:20:27Z</time>
      </trkpt>
      <trkpt lat="44.80267" lon="5.75372">
        <ele>801</ele>
        <time>2017-12-16T00:20:46Z</time>
      </trkpt>
      <trkpt lat="44.80286" lon="5.7534">
        <ele>803</ele>
        <time>2017-12-16T00:20:52Z</time>
      </trkpt>
      <trkpt lat="44.80345" lon="5.75192">
        <ele>809</ele>
        <time>2017-12-16T00:20:59Z</time>
      </trkpt>
      <trkpt lat="44.80357" lon="5.75168">
        <ele>808</ele>
        <time>2017-12-16T00:21:07Z</time>
      </trkpt>
      <trkpt lat="44.80371" lon="5.75148">
        <ele>805</ele>
        <time>2017-12-16T00:21:25Z</time>
      </trkpt>
      <trkpt lat="44.80401" lon="5.7511">
        <ele>807</ele>
        <time>2017-12-16T00:21:44Z</time>
      </trkpt>
      <trkpt lat="44.80413" lon="5.75087">
        <ele>809</ele>
        <time>2017-12-16T00:21:59Z</time>
      </trkpt>
      <trkpt lat="44.80428" lon="5.75053">
        <ele>811</ele>
        <time>2017-12-16T00:22:03Z</time>
      </trkpt>
      <trkpt lat="44.80437" lon="5.75031">
        <ele>810</ele>
        <time>2017-12-16T00:22:23Z</time>
      </trkpt>
      <trkpt lat="44.80449" lon="5.75014">
        <ele>810</ele>
        <time>2017-12-16T00:22:37Z</time>
      </trkpt>
      <trkpt lat="44.80476" lon="5.74987">
        <ele>808</ele>
        <time>2017-12-16T00:22:44Z</time>
      </trkpt>
      <trkpt lat="44.80496" lon="5.74973">
        <ele>809</ele>
        <time>2017-12-16T00:23:01Z</time>
      </trkpt>
      <trkpt lat="44.80504" lon="5.74969">
        <ele>815</ele>
        <time>2017-12-16T00:23:20Z</time>
      </trkpt>
      <trkpt lat="44.80518" lon="5.74966">
        <ele>815</ele>
        <time>2017-12-16T00:23:29Z</time>
      </trkpt>
      <trkpt lat="44.80531" lon="5.74966">
        <ele>815</ele>
        <time>2017-12-16T00:23:32Z</time>
      </trkpt>
      <trkpt lat="44.80544" lon="5.74969">
        <ele>815</ele>
        <time>2017-12-16T00:23:41Z</time>
      </trkpt>
      <trkpt lat="44.8057" lon="5.7498">
        <ele>817</ele>
        <time>2017-12-16T00:23:57Z</time>
      </trkpt>
      <trkpt lat="44.80582" lon="5.74985">
        <ele>817</ele>
        <time>2017-12-16T00:24:02Z</time>
      </trkpt>
      <trkpt lat="44.80591" lon="5.74987">
        <ele>818</ele>
        <time>2017-12-16T00:24:07Z</time>
      </trkpt>
      <trkpt lat="44.80604" lon="5.74984">
        <ele>818</ele>
        <time>2017-12-16T00:24:18Z</time>
      </trkpt>
      <trkpt lat="44.80624" lon="5.74969">
        <ele>818</ele>
        <time>2017-12-16T00:24:34Z</time>
      </trkpt>
      <trkpt lat="44.80668" lon="5.74921">
        <ele>818</ele>
        <time>2017-12-16T00:24:48Z</time>
      </trkpt>
      <trkpt lat="44.80699" lon="5.74891">
        <ele>817</ele>
        <time>2017-12-16T00:24:57Z</time>
      </trkpt>
      <trkpt lat="44.80748" lon="5.74851">
        <ele>815</ele>
        <time>2017-12-16T00:25:17Z</time>
      </trkpt>
      <trkpt lat="44.80762" lon="5.74843">
        <ele>815</ele>
        <time>2017-12-16T00:25:23Z</time>
      </trkpt>
      <trkpt lat="44.80793" lon="5.74829">
        <ele>810</ele>
        <time>2017-12-16T00:25:36Z</time>
      </trkpt>
      <trkpt lat="44.80821" lon="5.7482">
        <ele>810</ele>
        <time>2017-12-16T00:25:45Z</time>
      </trkpt>
      <trkpt lat="44.80857" lon="5.74811">
        <ele>807</ele>
        <time>2017-12-16T00:25:54Z</time>
      </trkpt>
      <trkpt lat="44.80892" lon="5.74808">
        <ele>806</ele>
        <time>2017-12-16T00:25:59Z</time>
      </trkpt>
      <trkpt lat="44.80907" lon="5.74808">
        <ele>806</ele>
        <time>2017-12-16T00:26:19Z</time>
      </trkpt>
      <trkpt lat="44.80923" lon="5.74813">
        <ele>802</ele>
        <time>2017-12-16T00:26:22Z</time>
      </trkpt>
      <trkpt lat="44.80938" lon="5.74822">
        <ele>802</ele>
        <time>2017-12-16T00:26:35Z</time>
      </trkpt>
      <trkpt lat="44.8101" lon="5.74872">
        <ele>799</ele>
        <time>2017-12-16T00:26:48Z</time>
      </trkpt>
      <trkpt lat="44.81036" lon="5.74892">
        <ele>799</ele>
        <time>2017-12-16T00:27:04Z</time>
      </trkpt>
      <trkpt lat="44.81049" lon="5.74902">
        <ele>798</ele>
        <time>2017-12-16T00:27:17Z</time>
      </trkpt>
      <trkpt lat="44.81063" lon="5.74909">
        <ele>798</ele>
        <time>2017-12-16T00:27:36Z</time>
      </trkpt>
      <trkpt lat="44.81077" lon="5.7491">
        <ele>797</ele>
        <time>2017-12-16T00:27:54Z</time>
      </trkpt>
      <trkpt lat="44.81092" lon="5.74905">
        <ele>795</ele>
        <time>2017-12-16T00:28:10Z</time>
      </trkpt>
      <trkpt lat="44.81115" lon="5.74885">
        <ele>794</ele>
        <time>2017-12-16T00:28:28Z</time>
      </trkpt>
      <trkpt lat="44.81148" lon="5.74864">
        <ele>792</ele>
        <time>2017-12-16T00:28:44Z</time>
      </trkpt>
      <trkpt lat="44.81183" lon="5.74849">
        <ele>791</ele>
        <time>2017-12-16T00:29:03Z</time>
      </trkpt>
      <trkpt lat="44.81215" lon="5.74833">
        <ele>787</ele>
        <time>2017-12-16T00:29:21Z</time>
      </trkpt>
      <trkpt lat="44.81247" lon="5.74816">
        <ele>787</ele>
        <time>2017-12-16T00:29:38Z</time>
      </trkpt>
      <trkpt lat="44.81253" lon="5.74815">
        <ele>785</ele>
        <time>2017-12-16T00:29:50Z</time>
      </trkpt>
      <trkpt lat="44.81264" lon="5.74818">
        <ele>785</ele>
        <time>2017-12-16T00:29:55Z</time>
      </trkpt>
      <trkpt lat="44.81278" lon="5.7483">
        <ele>784</ele>
        <time>2017-12-16T00:30:15Z</time>
      </trkpt>
      <trkpt lat="44.81288" lon="5.74845">
        <ele>786</ele>
        <time>2017-12-16T00:30:23Z</time>
      </trkpt>
      <trkpt lat="44.81304" lon="5.74875">
        <ele>786</ele>
        <time>2017-12-16T00:30:38Z</time>
      </trkpt>
      <trkpt lat="44.81314" lon="5.74899">
        <ele>785</ele>
        <time>2017-12-16T00:30:42Z</time>
      </trkpt>
      <trkpt lat="44.81337" lon="5.74971">
        <ele>780</ele>
        <time>2017-12-16T00:30:49Z</time>
      </trkpt>
      <trkpt lat="44.81368" lon="5.75072">
        <ele>779</ele>
        <time>2017-12-16T00:30:54Z</time>
      </trkpt>
      <trkpt lat="44.81376" lon="5.75085">
        <ele>779</ele>
        <time>2017-12-16T00:31:14Z</time>
      </trkpt>
      <trkpt lat="44.81387" lon="5.75095">
        <ele>778</ele>
        <time>2017-12-16T00:31:17Z</time>
      </trkpt>
      <trkpt lat="44.814" lon="5.75102">
        <ele>777</ele>
        <time>2017-12-16T00:31:36Z</time>
      </trkpt>
      <trkpt lat="44.81412" lon="5.75104">
        <ele>777</ele>
        <time>2017-12-16T00:31:55Z</time>
      </trkpt>
      <trkpt lat="44.81434" lon="5.75105">
        <ele>775</ele>
        <time>2017-12-16T00:31:59Z</time>
      </trkpt>
      <trkpt lat="44.81472" lon="5.75099">
        <ele>775</ele>
        <time>2017-12-16T00:32:08Z</time>
      </trkpt>
      <trkpt lat="44.81493" lon="5.75097">
        <ele>775</ele>
        <time>2017-12-16T00:32:15Z</time>
      </trkpt>
      <trkpt lat="44.81618" lon="5.75073">
        <ele>775</ele>
        <time>2017-12-16T00:32:21Z</time>
      </trkpt>
      <trkpt lat="44.81685" lon="5.75055">
        <ele>778</ele>
        <time>2017-12-16T00:32:28Z</time>
      </trkpt>
      <trkpt lat="44.81688" lon="5.75041">
        <ele>777</ele>
        <time>2017-12-15T19:07:05Z</time>
      </trkpt>
      <trkpt lat="44.81697" lon="5.75061">
        <ele>778</ele>
        <time>2017-12-15T19:07:19Z</time>
      </trkpt>
      <trkpt lat="44.81705" lon="5.75092">
        <ele>780</ele>
        <time>2017-12-15T19:07:34Z</time>
      </trkpt>
      <trkpt lat="44.81722" lon="5.7518">
        <ele>781</ele>
        <time>2017-12-15T19:07:44Z</time>
      </trkpt>
      <trkpt lat="44.81734" lon="5.75224">
        <ele>782</ele>
        <time>2017-12-15T19:08:04Z</time>
      </trkpt>
      <trkpt lat="44.81767" lon="5.75323">
        <ele>784</ele>
        <time>2017-12-15T19:08:21Z</time>
      </trkpt>
      <trkpt lat="44.81793" lon="5.75379">
        <ele>786</ele>
        <time>2017-12-15T19:08:39Z</time>
      </trkpt>
      <trkpt lat="44.81803" lon="5.754">
        <ele>786</ele>
        <time>2017-12-15T19:08:43Z</time>
      </trkpt>
      <trkpt lat="44.81806" lon="5.75417">
        <ele>787</ele>
        <time>2017-12-15T19:09:01Z</time>
      </trkpt>
      <trkpt lat="44.81809" lon="5.75467">
        <ele>788</ele>
        <time>2017-12-15T19:09:03Z</time>
      </trkpt>
      <trkpt lat="44.81807" lon="5.75496">
        <ele>788</ele>
        <time>2017-12-15T19:09:15Z</time>
      </trkpt>
      <trkpt lat="44.81803" lon="5.75528">
        <ele>790</ele>
        <time>2017-12-15T19:09:23Z</time>
      </trkpt>
      <trkpt lat="44.81786" lon="5.7564">
        <ele>793</ele>
        <time>2017-12-15T19:09:30Z</time>
      </trkpt>
      <trkpt lat="44.81784" lon="5.75658">
        <ele>793</ele>
        <time>2017-12-15T19:09:42Z</time>
      </trkpt>
      <trkpt lat="44.81789" lon="5.75664">
        <ele>793</ele>
        <time>2017-12-15T19:09:50Z</time>
      </trkpt>
      <trkpt lat="44.81806" lon="5.75679">
        <ele>794</ele>
        <time>2017-12-15T19:09:55Z</time>
      </trkpt>
      <trkpt lat="44.81847" lon="5.75703">
        <ele>793</ele>
        <time>2017-12-15T19:09:57Z</time>
      </trkpt>
      <trkpt lat="44.81882" lon="5.75721">
        <ele>793</ele>
        <time>2017-12-15T19:10:04Z</time>
      </trkpt>
      <trkpt lat="44.81912" lon="5.7575">
        <ele>793</ele>
        <time>2017-12-15T19:10:22Z</time>
      </trkpt>
      <trkpt lat="44.81958" lon="5.75803">
        <ele>792</ele>
        <time>2017-12-15T19:10:42Z</time>
      </trkpt>
      <trkpt lat="44.82053" lon="5.75908">
        <ele>792</ele>
        <time>2017-12-15T19:10:44Z</time>
      </trkpt>
      <trkpt lat="44.82124" lon="5.75986">
        <ele>797</ele>
        <time>2017-12-15T19:10:57Z</time>
      </trkpt>
      <trkpt lat="44.82335" lon="5.76219">
        <ele>806</ele>
        <time>2017-12-15T19:11:12Z</time>
      </trkpt>
      <trkpt lat="44.82446" lon="5.7634">
        <ele>816</ele>
        <time>2017-12-15T19:11:31Z</time>
      </trkpt>
      <trkpt lat="44.82524" lon="5.76429">
        <ele>823</ele>
        <time>2017-12-15T19:11:39Z</time>
      </trkpt>
      <trkpt lat="44.82578" lon="5.76488">
        <ele>822</ele>
        <time>2017-12-15T19:11:50Z</time>
      </trkpt>
      <trkpt lat="44.82702" lon="5.76623">
        <ele>827</ele>
        <time>2017-12-15T19:12:00Z</time>
      </trkpt>
      <trkpt lat="44.82824" lon="5.76758">
        <ele>833</ele>
        <time>2017-12-15T19:12:16Z</time>
      </trkpt>
      <trkpt lat="44.82879" lon="5.76818">
        <ele>835</ele>
        <time>2017-12-15T19:12:33Z</time>
      </trkpt>
      <trkpt lat="44.8293" lon="5.76871">
        <ele>836</ele>
        <time>2017-12-15T19:12:40Z</time>
      </trkpt>
      <trkpt lat="44.83036" lon="5.76987">
        <ele>836</ele>
        <time>2017-12-15T19:12:45Z</time>
      </trkpt>
      <trkpt lat="44.83097" lon="5.77047">
        <ele>841</ele>
        <time>2017-12-15T19:13:05Z</time>
      </trkpt>
      <trkpt lat="44.83129" lon="5.77073">
        <ele>842</ele>
        <time>2017-12-15T19:13:11Z</time>
      </trkpt>
      <trkpt lat="44.83145" lon="5.77083">
        <ele>843</ele>
        <time>2017-12-15T19:13:18Z</time>
      </trkpt>
      <trkpt lat="44.83163" lon="5.77089">
        <ele>845</ele>
        <time>2017-12-15T19:13:29Z</time>
      </trkpt>
      <trkpt lat="44.83181" lon="5.77092">
        <ele>846</ele>
        <time>2017-12-15T19:13:34Z</time>
      </trkpt>
      <trkpt lat="44.832" lon="5.77092">
        <ele>847</ele>
        <time>2017-12-15T19:13:42Z</time>
      </trkpt>
      <trkpt lat="44.83237" lon="5.77092">
        <ele>847</ele>
        <time>2017-12-15T19:13:51Z</time>
      </trkpt>
      <trkpt lat="44.83263" lon="5.77094">
        <ele>851</ele>
        <time>2017-12-15T19:14:06Z</time>
      </trkpt>
      <trkpt lat="44.83275" lon="5.77097">
        <ele>852</ele>
        <time>2017-12-15T19:14:21Z</time>
      </trkpt>
      <trkpt lat="44.83287" lon="5.77101">
        <ele>854</ele>
        <time>2017-12-15T19:14:32Z</time>
      </trkpt>
      <trkpt lat="44.83297" lon="5.77109">
        <ele>855</ele>
        <time>2017-12-15T19:14:35Z</time>
      </trkpt>
      <trkpt lat="44.83306" lon="5.77121">
        <ele>855</ele>
        <time>2017-12-15T19:14:37Z</time>
      </trkpt>
      <trkpt lat="44.83324" lon="5.77148">
        <ele>856</ele>
        <time>2017-12-15T19:14:46Z</time>
      </trkpt>
      <trkpt lat="44.83358" lon="5.77209">
        <ele>867</ele>
        <time>2017-12-15T19:14:52Z</time>
      </trkpt>
      <trkpt lat="44.83395" lon="5.7727">
        <ele>868</ele>
        <time>2017-12-15T19:15:04Z</time>
      </trkpt>
      <trkpt lat="44.83478" lon="5.77397">
        <ele>880</ele>
        <time>2017-12-15T19:15:24Z</time>
      </trkpt>
      <trkpt lat="44.83531" lon="5.77488">
        <ele>889</ele>
        <time>2017-12-15T19:15:40Z</time>
      </trkpt>
      <trkpt lat="44.83541" lon="5.77513">
        <ele>888</ele>
        <time>2017-12-15T19:15:56Z</time>
      </trkpt>
      <trkpt lat="44.83544" lon="5.77532">
        <ele>889</ele>
        <time>2017-12-15T19:16:05Z</time>
      </trkpt>
      <trkpt lat="44.83543" lon="5.77576">
        <ele>888</ele>
        <time>2017-12-15T19:16:22Z</time>
      </trkpt>
      <trkpt lat="44.83548" lon="5.77591">
        <ele>888</ele>
        <time>2017-12-15T19:16:41Z</time>
      </trkpt>
      <trkpt lat="44.83562" lon="5.77618">
        <ele>890</ele>
        <time>2017-12-15T19:17:00Z</time>
      </trkpt>
      <trkpt lat="44.8357" lon="5.77641">
        <ele>891</ele>
        <time>2017-12-15T19:17:12Z</time>
      </trkpt>
      <trkpt lat="44.83573" lon="5.77659">
        <ele>893</ele>
        <time>2017-12-15T19:17:20Z</time>
      </trkpt>
      <trkpt lat="44.83584" lon="5.77686">
        <ele>900</ele>
        <time>2017-12-15T19:17:37Z</time>
      </trkpt>
      <trkpt lat="44.83588" lon="5.77693">
        <ele>901</ele>
        <time>2017-12-15T19:17:47Z</time>
      </trkpt>
      <trkpt lat="44.83597" lon="5.77706">
        <ele>901</ele>
        <time>2017-12-15T19:17:54Z</time>
      </trkpt>
      <trkpt lat="44.83624" lon="5.77736">
        <ele>903</ele>
        <time>2017-12-15T19:18:09Z</time>
      </trkpt>
      <trkpt lat="44.83652" lon="5.77763">
        <ele>903</ele>
        <time>2017-12-15T19:18:28Z</time>
      </trkpt>
      <trkpt lat="44.83661" lon="5.77779">
        <ele>902</ele>
        <time>2017-12-15T19:18:37Z</time>
      </trkpt>
      <trkpt lat="44.8367" lon="5.77825">
        <ele>909</ele>
        <time>2017-12-15T19:18:48Z</time>
      </trkpt>
      <trkpt lat="44.83677" lon="5.77846">
        <ele>909</ele>
        <time>2017-12-15T19:19:07Z</time>
      </trkpt>
      <trkpt lat="44.83707" lon="5.77912">
        <ele>912</ele>
        <time>2017-12-15T19:19:24Z</time>
      </trkpt>
      <trkpt lat="44.83729" lon="5.77957">
        <ele>911</ele>
        <time>2017-12-15T19:19:35Z</time>
      </trkpt>
      <trkpt lat="44.83746" lon="5.7798">
        <ele>911</ele>
        <time>2017-12-15T19:19:44Z</time>
      </trkpt>
      <trkpt lat="44.83755" lon="5.77987">
        <ele>918</ele>
        <time>2017-12-15T19:19:51Z</time>
      </trkpt>
      <trkpt lat="44.83767" lon="5.77991">
        <ele>920</ele>
        <time>2017-12-15T19:19:57Z</time>
      </trkpt>
      <trkpt lat="44.83779" lon="5.77991">
        <ele>921</ele>
        <time>2017-12-15T19:20:17Z</time>
      </trkpt>
      <trkpt lat="44.83791" lon="5.77986">
        <ele>923</ele>
        <time>2017-12-15T19:20:34Z</time>
      </trkpt>
      <trkpt lat="44.8381" lon="5.77979">
        <ele>924</ele>
        <time>2017-12-15T19:20:38Z</time>
      </trkpt>
      <trkpt lat="44.8383" lon="5.77976">
        <ele>925</ele>
        <time>2017-12-15T19:20:47Z</time>
      </trkpt>
      <trkpt lat="44.83854" lon="5.77977">
        <ele>933</ele>
        <time>2017-12-15T19:20:52Z</time>
      </trkpt>
      <trkpt lat="44.83881" lon="5.77984">
        <ele>934</ele>
        <time>2017-12-15T19:21:04Z</time>
      </trkpt>
      <trkpt lat="44.83901" lon="5.77992">
        <ele>933</ele>
        <time>2017-12-15T19:21:15Z</time>
      </trkpt>
      <trkpt lat="44.83917" lon="5.78003">
        <ele>931</ele>
        <time>2017-12-15T19:21:30Z</time>
      </trkpt>
      <trkpt lat="44.83945" lon="5.78033">
        <ele>936</ele>
        <time>2017-12-15T19:21:44Z</time>
      </trkpt>
      <trkpt lat="44.83992" lon="5.78079">
        <ele>938</ele>
        <time>2017-12-15T19:21:50Z</time>
      </trkpt>
      <trkpt lat="44.84091" lon="5.78161">
        <ele>953</ele>
        <time>2017-12-15T19:21:57Z</time>
      </trkpt>
      <trkpt lat="44.84191" lon="5.78232">
        <ele>965</ele>
        <time>2017-12-15T19:22:09Z</time>
      </trkpt>
      <trkpt lat="44.84206" lon="5.7825">
        <ele>967</ele>
        <time>2017-12-15T19:22:13Z</time>
      </trkpt>
      <trkpt lat="44.84215" lon="5.78265">
        <ele>964</ele>
        <time>2017-12-15T19:22:16Z</time>
      </trkpt>
      <trkpt lat="44.84225" lon="5.7829">
        <ele>964</ele>
        <time>2017-12-15T19:22:29Z</time>
      </trkpt>
      <trkpt lat="44.84232" lon="5.78316">
        <ele>965</ele>
        <time>2017-12-15T19:22:39Z</time>
      </trkpt>
      <trkpt lat="44.84236" lon="5.78344">
        <ele>967</ele>
        <time>2017-12-15T19:22:44Z</time>
      </trkpt>
      <trkpt lat="44.84235" lon="5.78368">
        <ele>967</ele>
        <time>2017-12-15T19:22:55Z</time>
      </trkpt>
      <trkpt lat="44.84233" lon="5.78387">
        <ele>968</ele>
        <time>2017-12-15T19:23:06Z</time>
      </trkpt>
      <trkpt lat="44.84227" lon="5.78404">
        <ele>969</ele>
        <time>2017-12-15T19:23:26Z</time>
      </trkpt>
      <trkpt lat="44.84211" lon="5.78431">
        <ele>976</ele>
        <time>2017-12-15T19:23:42Z</time>
      </trkpt>
      <trkpt lat="44.84192" lon="5.78453">
        <ele>976</ele>
        <time>2017-12-15T19:23:57Z</time>
      </trkpt>
      <trkpt lat="44.8418" lon="5.78466">
        <ele>977</ele>
        <time>2017-12-15T19:24:08Z</time>
      </trkpt>
      <trkpt lat="44.84167" lon="5.78473">
        <ele>977</ele>
        <time>2017-12-15T19:24:18Z</time>
      </trkpt>
      <trkpt lat="44.84147" lon="5.7848">
        <ele>968</ele>
        <time>2017-12-15T19:24:32Z</time>
      </trkpt>
      <trkpt lat="44.84134" lon="5.78487">
        <ele>966</ele>
        <time>2017-12-15T19:24:42Z</time>
      </trkpt>
      <trkpt lat="44.8412" lon="5.78501">
        <ele>973</ele>
        <time>2017-12-15T19:24:59Z</time>
      </trkpt>
      <trkpt lat="44.84115" lon="5.78509">
        <ele>973</ele>
        <time>2017-12-15T19:25:13Z</time>
      </trkpt>
      <trkpt lat="44.84109" lon="5.78522">
        <ele>973</ele>
        <time>2017-12-15T19:25:31Z</time>
      </trkpt>
      <trkpt lat="44.84108" lon="5.78534">
        <ele>974</ele>
        <time>2017-12-15T19:25:46Z</time>
      </trkpt>
      <trkpt lat="44.84111" lon="5.78552">
        <ele>975</ele>
        <time>2017-12-15T19:25:51Z</time>
      </trkpt>
      <trkpt lat="44.84119" lon="5.78572">
        <ele>977</ele>
        <time>2017-12-15T19:25:53Z</time>
      </trkpt>
      <trkpt lat="44.84148" lon="5.78615">
        <ele>985</ele>
        <time>2017-12-15T19:26:04Z</time>
      </trkpt>
      <trkpt lat="44.84154" lon="5.78631">
        <ele>985</ele>
        <time>2017-12-15T19:26:08Z</time>
      </trkpt>
      <trkpt lat="44.84155" lon="5.78654">
        <ele>986</ele>
        <time>2017-12-15T19:26:13Z</time>
      </trkpt>
      <trkpt lat="44.84154" lon="5.7867">
        <ele>989</ele>
        <time>2017-12-15T19:26:31Z</time>
      </trkpt>
      <trkpt lat="44.84157" lon="5.78685">
        <ele>990</ele>
        <time>2017-12-15T19:26:48Z</time>
      </trkpt>
      <trkpt lat="44.84167" lon="5.78702">
        <ele>992</ele>
        <time>2017-12-15T19:26:56Z</time>
      </trkpt>
      <trkpt lat="44.84197" lon="5.78732">
        <ele>992</ele>
        <time>2017-12-15T19:27:06Z</time>
      </trkpt>
      <trkpt lat="44.84209" lon="5.78745">
        <ele>991</ele>
        <time>2017-12-15T19:27:25Z</time>
      </trkpt>
      <trkpt lat="44.84213" lon="5.78755">
        <ele>991</ele>
        <time>2017-12-15T19:27:31Z</time>
      </trkpt>
      <trkpt lat="44.84218" lon="5.78768">
        <ele>990</ele>
        <time>2017-12-15T19:27:35Z</time>
      </trkpt>
      <trkpt lat="44.84224" lon="5.78873">
        <ele>991</ele>
        <time>2017-12-15T19:27:50Z</time>
      </trkpt>
      <trkpt lat="44.84224" lon="5.78936">
        <ele>986</ele>
        <time>2017-12-15T19:27:58Z</time>
      </trkpt>
      <trkpt lat="44.84218" lon="5.78976">
        <ele>986</ele>
        <time>2017-12-15T19:28:18Z</time>
      </trkpt>
      <trkpt lat="44.84202" lon="5.79043">
        <ele>977</ele>
        <time>2017-12-15T19:28:20Z</time>
      </trkpt>
      <trkpt lat="44.84198" lon="5.79055">
        <ele>976</ele>
        <time>2017-12-15T19:28:28Z</time>
      </trkpt>
      <trkpt lat="44.84189" lon="5.79072">
        <ele>977</ele>
        <time>2017-12-15T19:28:37Z</time>
      </trkpt>
      <trkpt lat="44.84168" lon="5.79103">
        <ele>967</ele>
        <time>2017-12-15T19:28:48Z</time>
      </trkpt>
      <trkpt lat="44.84157" lon="5.79129">
        <ele>981</ele>
        <time>2017-12-15T19:28:59Z</time>
      </trkpt>
      <trkpt lat="44.84137" lon="5.79181">
        <ele>965</ele>
        <time>2017-12-15T19:29:17Z</time>
      </trkpt>
      <trkpt lat="44.84106" lon="5.79232">
        <ele>966</ele>
        <time>2017-12-15T19:29:24Z</time>
      </trkpt>
      <trkpt lat="44.83968" lon="5.79427">
        <ele>955</ele>
        <time>2017-12-15T19:29:44Z</time>
      </trkpt>
      <trkpt lat="44.83934" lon="5.79481">
        <ele>955</ele>
        <time>2017-12-15T19:29:48Z</time>
      </trkpt>
      <trkpt lat="44.83904" lon="5.79545">
        <ele>957</ele>
        <time>2017-12-15T19:29:58Z</time>
      </trkpt>
      <trkpt lat="44.83893" lon="5.79576">
        <ele>953</ele>
        <time>2017-12-15T19:30:04Z</time>
      </trkpt>
      <trkpt lat="44.83886" lon="5.79599">
        <ele>946</ele>
        <time>2017-12-15T19:30:17Z</time>
      </trkpt>
      <trkpt lat="44.83875" lon="5.79664">
        <ele>944</ele>
        <time>2017-12-15T19:30:19Z</time>
      </trkpt>
      <trkpt lat="44.83864" lon="5.79748">
        <ele>937</ele>
        <time>2017-12-15T19:30:26Z</time>
      </trkpt>
      <trkpt lat="44.83862" lon="5.79782">
        <ele>934</ele>
        <time>2017-12-15T19:30:34Z</time>
      </trkpt>
      <trkpt lat="44.83864" lon="5.79795">
        <ele>933</ele>
        <time>2017-12-15T19:30:44Z</time>
      </trkpt>
      <trkpt lat="44.83868" lon="5.79811">
        <ele>933</ele>
        <time>2017-12-15T19:31:04Z</time>
      </trkpt>
      <trkpt lat="44.83877" lon="5.79829">
        <ele>932</ele>
        <time>2017-12-15T19:31:24Z</time>
      </trkpt>
      <trkpt lat="44.83902" lon="5.79864">
        <ele>932</ele>
        <time>2017-12-15T19:31:27Z</time>
      </trkpt>
      <trkpt lat="44.8392" lon="5.79898">
        <ele>922</ele>
        <time>2017-12-15T19:31:35Z</time>
      </trkpt>
      <trkpt lat="44.83925" lon="5.79917">
        <ele>926</ele>
        <time>2017-12-15T19:31:48Z</time>
      </trkpt>
      <trkpt lat="44.83929" lon="5.79949">
        <ele>924</ele>
        <time>2017-12-15T19:32:02Z</time>
      </trkpt>
      <trkpt lat="44.83933" lon="5.79965">
        <ele>924</ele>
        <time>2017-12-15T19:32:20Z</time>
      </trkpt>
      <trkpt lat="44.83944" lon="5.79983">
        <ele>924</ele>
        <time>2017-12-15T19:32:26Z</time>
      </trkpt>
      <trkpt lat="44.83972" lon="5.80013">
        <ele>925</ele>
        <time>2017-12-15T19:32:33Z</time>
      </trkpt>
      <trkpt lat="44.84119" lon="5.8015">
        <ele>912</ele>
        <time>2017-12-15T19:32:40Z</time>
      </trkpt>
      <trkpt lat="44.84196" lon="5.80232">
        <ele>909</ele>
        <time>2017-12-15T19:32:57Z</time>
      </trkpt>
      <trkpt lat="44.84204" lon="5.80233">
        <ele>908</ele>
        <time>2017-12-15T19:33:17Z</time>
      </trkpt>
      <trkpt lat="44.84212" lon="5.80237">
        <ele>908</ele>
        <time>2017-12-15T19:33:23Z</time>
      </trkpt>
      <trkpt lat="44.84241" lon="5.8025">
        <ele>907</ele>
        <time>2017-12-15T19:33:36Z</time>
      </trkpt>
      <trkpt lat="44.84273" lon="5.8027">
        <ele>902</ele>
        <time>2017-12-15T19:33:39Z</time>
      </trkpt>
      <trkpt lat="44.8429" lon="5.80283">
        <ele>902</ele>
        <time>2017-12-15T19:33:53Z</time>
      </trkpt>
      <trkpt lat="44.84308" lon="5.80302">
        <ele>901</ele>
        <time>2017-12-15T19:34:03Z</time>
      </trkpt>
      <trkpt lat="44.84327" lon="5.80315">
        <ele>901</ele>
        <time>2017-12-15T19:34:05Z</time>
      </trkpt>
      <trkpt lat="44.84367" lon="5.80328">
        <ele>893</ele>
        <time>2017-12-15T19:34:23Z</time>
      </trkpt>
      <trkpt lat="44.84399" lon="5.80341">
        <ele>894</ele>
        <time>2017-12-15T19:34:27Z</time>
      </trkpt>
      <trkpt lat="44.84429" lon="5.80344">
        <ele>890</ele>
        <time>2017-12-15T19:34:43Z</time>
      </trkpt>
      <trkpt lat="44.84447" lon="5.80346">
        <ele>889</ele>
        <time>2017-12-15T19:34:50Z</time>
      </trkpt>
      <trkpt lat="44.84463" lon="5.80352">
        <ele>888</ele>
        <time>2017-12-15T19:35:08Z</time>
      </trkpt>
      <trkpt lat="44.84473" lon="5.80356">
        <ele>888</ele>
        <time>2017-12-15T19:35:19Z</time>
      </trkpt>
      <trkpt lat="44.84484" lon="5.80356">
        <ele>887</ele>
        <time>2017-12-15T19:35:27Z</time>
      </trkpt>
      <trkpt lat="44.84487" lon="5.80356">
        <ele>887</ele>
        <time>2017-12-15T19:35:31Z</time>
      </trkpt>
      <trkpt lat="44.84573" lon="5.80354">
        <ele>880</ele>
        <time>2017-12-15T19:35:38Z</time>
      </trkpt>
      <trkpt lat="44.84601" lon="5.80358">
        <ele>877</ele>
        <time>2017-12-15T19:35:47Z</time>
      </trkpt>
      <trkpt lat="44.84617" lon="5.8035">
        <ele>876</ele>
        <time>2017-12-15T19:35:55Z</time>
      </trkpt>
      <trkpt lat="44.84612" lon="5.80272">
        <ele>873</ele>
        <time>2017-12-15T19:36:06Z</time>
      </trkpt>
      <trkpt lat="44.84615" lon="5.80227">
        <ele>872</ele>
        <time>2017-12-15T19:36:19Z</time>
      </trkpt>
      <trkpt lat="44.84625" lon="5.80182">
        <ele>872</ele>
        <time>2017-12-15T19:36:36Z</time>
      </trkpt>
      <trkpt lat="44.84662" lon="5.80087">
        <ele>872</ele>
        <time>2017-12-15T19:36:51Z</time>
      </trkpt>
      <trkpt lat="44.84678" lon="5.80037">
        <ele>871</ele>
        <time>2017-12-15T19:37:03Z</time>
      </trkpt>
      <trkpt lat="44.8469" lon="5.80007">
        <ele>871</ele>
        <time>2017-12-15T19:37:12Z</time>
      </trkpt>
      <trkpt lat="44.84716" lon="5.79957">
        <ele>870</ele>
        <time>2017-12-15T19:37:32Z</time>
      </trkpt>
      <trkpt lat="44.84726" lon="5.79944">
        <ele>870</ele>
        <time>2017-12-15T19:37:40Z</time>
      </trkpt>
      <trkpt lat="44.84735" lon="5.79942">
        <ele>870</ele>
        <time>2017-12-15T19:37:58Z</time>
      </trkpt>
      <trkpt lat="44.84743" lon="5.79943">
        <ele>870</ele>
        <time>2017-12-15T19:38:02Z</time>
      </trkpt>
      <trkpt lat="44.84751" lon="5.79948">
        <ele>869</ele>
        <time>2017-12-15T19:38:08Z</time>
      </trkpt>
      <trkpt lat="44.84769" lon="5.79954">
        <ele>869</ele>
        <time>2017-12-15T19:38:28Z</time>
      </trkpt>
      <trkpt lat="44.84778" lon="5.79953">
        <ele>869</ele>
        <time>2017-12-15T19:38:36Z</time>
      </trkpt>
      <trkpt lat="44.84791" lon="5.79945">
        <ele>869</ele>
        <time>2017-12-15T19:38:42Z</time>
      </trkpt>
      <trkpt lat="44.84804" lon="5.79927">
        <ele>868</ele>
        <time>2017-12-15T19:38:50Z</time>
      </trkpt>
      <trkpt lat="44.8481" lon="5.79905">
        <ele>867</ele>
        <time>2017-12-15T19:38:53Z</time>
      </trkpt>
      <trkpt lat="44.84809" lon="5.79883">
        <ele>867</ele>
        <time>2017-12-15T19:38:56Z</time>
      </trkpt>
      <trkpt lat="44.84801" lon="5.79849">
        <ele>866</ele>
        <time>2017-12-15T19:39:02Z</time>
      </trkpt>
      <trkpt lat="44.84799" lon="5.79831">
        <ele>865</ele>
        <time>2017-12-15T19:39:17Z</time>
      </trkpt>
      <trkpt lat="44.84803" lon="5.79793">
        <ele>865</ele>
        <time>2017-12-15T19:39:37Z</time>
      </trkpt>
      <trkpt lat="44.84813" lon="5.79734">
        <ele>865</ele>
        <time>2017-12-15T19:39:51Z</time>
      </trkpt>
      <trkpt lat="44.84822" lon="5.7969">
        <ele>865</ele>
        <time>2017-12-15T19:40:11Z</time>
      </trkpt>
      <trkpt lat="44.84828" lon="5.79671">
        <ele>865</ele>
        <time>2017-12-15T19:40:31Z</time>
      </trkpt>
      <trkpt lat="44.8484" lon="5.79657">
        <ele>865</ele>
        <time>2017-12-15T19:40:37Z</time>
      </trkpt>
      <trkpt lat="44.84852" lon="5.7965">
        <ele>865</ele>
        <time>2017-12-15T19:40:51Z</time>
      </trkpt>
      <trkpt lat="44.84881" lon="5.79641">
        <ele>865</ele>
        <time>2017-12-15T19:40:53Z</time>
      </trkpt>
      <trkpt lat="44.84912" lon="5.79629">
        <ele>865</ele>
        <time>2017-12-15T19:40:58Z</time>
      </trkpt>
      <trkpt lat="44.84956" lon="5.79602">
        <ele>863</ele>
        <time>2017-12-15T19:41:12Z</time>
      </trkpt>
      <trkpt lat="44.84967" lon="5.7959">
        <ele>863</ele>
        <time>2017-12-15T19:41:23Z</time>
      </trkpt>
      <trkpt lat="44.84973" lon="5.79593">
        <ele>863</ele>
        <time>2017-12-15T19:41:35Z</time>
      </trkpt>
      <trkpt lat="44.84997" lon="5.79588">
        <ele>862</ele>
        <time>2017-12-15T19:41:38Z</time>
      </trkpt>
      <trkpt lat="44.85119" lon="5.79569">
        <ele>862</ele>
        <time>2017-12-15T19:41:55Z</time>
      </trkpt>
      <trkpt lat="44.85312" lon="5.79537">
        <ele>859</ele>
        <time>2017-12-15T19:42:12Z</time>
      </trkpt>
      <trkpt lat="44.85353" lon="5.79526">
        <ele>858</ele>
        <time>2017-12-15T19:42:25Z</time>
      </trkpt>
      <trkpt lat="44.85394" lon="5.79511">
        <ele>857</ele>
        <time>2017-12-15T19:42:27Z</time>
      </trkpt>
      <trkpt lat="44.85488" lon="5.79475">
        <ele>861</ele>
        <time>2017-12-15T19:42:34Z</time>
      </trkpt>
      <trkpt lat="44.85561" lon="5.79453">
        <ele>861</ele>
        <time>2017-12-15T19:42:41Z</time>
      </trkpt>
      <trkpt lat="44.85644" lon="5.79421">
        <ele>858</ele>
        <time>2017-12-15T19:42:52Z</time>
      </trkpt>
      <trkpt lat="44.85712" lon="5.79393">
        <ele>862</ele>
        <time>2017-12-15T19:43:00Z</time>
      </trkpt>
      <trkpt lat="44.85726" lon="5.79388">
        <ele>861</ele>
        <time>2017-12-15T19:43:08Z</time>
      </trkpt>
      <trkpt lat="44.85745" lon="5.79388">
        <ele>860</ele>
        <time>2017-12-15T19:43:11Z</time>
      </trkpt>
      <trkpt lat="44.85772" lon="5.7939">
        <ele>857</ele>
        <time>2017-12-15T19:43:14Z</time>
      </trkpt>
      <trkpt lat="44.85781" lon="5.79384">
        <ele>858</ele>
        <time>2017-12-15T19:43:25Z</time>
      </trkpt>
      <trkpt lat="44.858" lon="5.79366">
        <ele>859</ele>
        <time>2017-12-15T19:43:41Z</time>
      </trkpt>
      <trkpt lat="44.85811" lon="5.79357">
        <ele>861</ele>
        <time>2017-12-15T19:44:00Z</time>
      </trkpt>
      <trkpt lat="44.8582" lon="5.79353">
        <ele>862</ele>
        <time>2017-12-15T19:44:09Z</time>
      </trkpt>
      <trkpt lat="44.85837" lon="5.79352">
        <ele>863</ele>
        <time>2017-12-15T19:44:20Z</time>
      </trkpt>
      <trkpt lat="44.85849" lon="5.79354">
        <ele>862</ele>
        <time>2017-12-15T19:44:40Z</time>
      </trkpt>
      <trkpt lat="44.85863" lon="5.79364">
        <ele>860</ele>
        <time>2017-12-15T19:44:42Z</time>
      </trkpt>
      <trkpt lat="44.8587" lon="5.79374">
        <ele>859</ele>
        <time>2017-12-15T19:45:01Z</time>
      </trkpt>
      <trkpt lat="44.85873" lon="5.79388">
        <ele>857</ele>
        <time>2017-12-15T19:45:19Z</time>
      </trkpt>
      <trkpt lat="44.85874" lon="5.79413">
        <ele>855</ele>
        <time>2017-12-15T19:45:23Z</time>
      </trkpt>
      <trkpt lat="44.85874" lon="5.79441">
        <ele>843</ele>
        <time>2017-12-15T19:45:33Z</time>
      </trkpt>
      <trkpt lat="44.85877" lon="5.79455">
        <ele>842</ele>
        <time>2017-12-15T19:45:51Z</time>
      </trkpt>
      <trkpt lat="44.85883" lon="5.79465">
        <ele>842</ele>
        <time>2017-12-15T19:45:59Z</time>
      </trkpt>
      <trkpt lat="44.85891" lon="5.79473">
        <ele>841</ele>
        <time>2017-12-15T19:46:01Z</time>
      </trkpt>
      <trkpt lat="44.85907" lon="5.79479">
        <ele>840</ele>
        <time>2017-12-15T19:46:21Z</time>
      </trkpt>
      <trkpt lat="44.8595" lon="5.79486">
        <ele>841</ele>
        <time>2017-12-15T19:46:30Z</time>
      </trkpt>
      <trkpt lat="44.85985" lon="5.79493">
        <ele>839</ele>
        <time>2017-12-15T19:46:47Z</time>
      </trkpt>
      <trkpt lat="44.8603" lon="5.79513">
        <ele>832</ele>
        <time>2017-12-15T19:47:01Z</time>
      </trkpt>
      <trkpt lat="44.86107" lon="5.79554">
        <ele>833</ele>
        <time>2017-12-15T19:47:12Z</time>
      </trkpt>
      <trkpt lat="44.86124" lon="5.7957">
        <ele>832</ele>
        <time>2017-12-15T19:47:24Z</time>
      </trkpt>
      <trkpt lat="44.86147" lon="5.79603">
        <ele>824</ele>
        <time>2017-12-15T19:47:43Z</time>
      </trkpt>
      <trkpt lat="44.86172" lon="5.79647">
        <ele>822</ele>
        <time>2017-12-15T19:47:59Z</time>
      </trkpt>
      <trkpt lat="44.86189" lon="5.79672">
        <ele>817</ele>
        <time>2017-12-15T19:48:03Z</time>
      </trkpt>
      <trkpt lat="44.86201" lon="5.79683">
        <ele>817</ele>
        <time>2017-12-15T19:48:13Z</time>
      </trkpt>
      <trkpt lat="44.86223" lon="5.79696">
        <ele>817</ele>
        <time>2017-12-15T19:48:26Z</time>
      </trkpt>
      <trkpt lat="44.86247" lon="5.79705">
        <ele>816</ele>
        <time>2017-12-15T19:48:42Z</time>
      </trkpt>
      <trkpt lat="44.86265" lon="5.79707">
        <ele>815</ele>
        <time>2017-12-15T19:48:57Z</time>
      </trkpt>
      <trkpt lat="44.863" lon="5.79711">
        <ele>814</ele>
        <time>2017-12-15T19:49:14Z</time>
      </trkpt>
      <trkpt lat="44.86323" lon="5.79719">
        <ele>813</ele>
        <time>2017-12-15T19:49:27Z</time>
      </trkpt>
      <trkpt lat="44.86342" lon="5.79723">
        <ele>811</ele>
        <time>2017-12-15T19:49:35Z</time>
      </trkpt>
      <trkpt lat="44.86365" lon="5.79721">
        <ele>811</ele>
        <time>2017-12-15T19:49:44Z</time>
      </trkpt>
      <trkpt lat="44.86384" lon="5.79715">
        <ele>811</ele>
        <time>2017-12-15T19:50:00Z</time>
      </trkpt>
      <trkpt lat="44.86451" lon="5.79699">
        <ele>809</ele>
        <time>2017-12-15T19:50:16Z</time>
      </trkpt>
      <trkpt lat="44.86501" lon="5.79685">
        <ele>807</ele>
        <time>2017-12-15T19:50:18Z</time>
      </trkpt>
      <trkpt lat="44.86515" lon="5.79679">
        <ele>806</ele>
        <time>2017-12-15T19:50:23Z</time>
      </trkpt>
      <trkpt lat="44.86526" lon="5.7967">
        <ele>805</ele>
        <time>2017-12-15T19:50:34Z</time>
      </trkpt>
      <trkpt lat="44.86543" lon="5.79649">
        <ele>813</ele>
        <time>2017-12-15T19:50:51Z</time>
      </trkpt>
      <trkpt lat="44.8655" lon="5.79644">
        <ele>813</ele>
        <time>2017-12-15T19:51:01Z</time>
      </trkpt>
      <trkpt lat="44.86571" lon="5.79637">
        <ele>813</ele>
        <time>2017-12-15T19:51:10Z</time>
      </trkpt>
      <trkpt lat="44.86595" lon="5.79637">
        <ele>808</ele>
        <time>2017-12-15T19:51:17Z</time>
      </trkpt>
      <trkpt lat="44.86622" lon="5.79647">
        <ele>807</ele>
        <time>2017-12-15T19:51:28Z</time>
      </trkpt>
      <trkpt lat="44.8668" lon="5.79682">
        <ele>790</ele>
        <time>2017-12-15T19:51:37Z</time>
      </trkpt>
      <trkpt lat="44.867" lon="5.79684">
        <ele>787</ele>
        <time>2017-12-15T19:51:45Z</time>
      </trkpt>
      <trkpt lat="44.86709" lon="5.7968">
        <ele>787</ele>
        <time>2017-12-15T19:52:04Z</time>
      </trkpt>
      <trkpt lat="44.8672" lon="5.79666">
        <ele>796</ele>
        <time>2017-12-15T19:52:17Z</time>
      </trkpt>
      <trkpt lat="44.86729" lon="5.79628">
        <ele>799</ele>
        <time>2017-12-15T19:52:22Z</time>
      </trkpt>
      <trkpt lat="44.86735" lon="5.79591">
        <ele>801</ele>
        <time>2017-12-15T19:52:38Z</time>
      </trkpt>
      <trkpt lat="44.86742" lon="5.79583">
        <ele>805</ele>
        <time>2017-12-15T19:52:56Z</time>
      </trkpt>
      <trkpt lat="44.8675" lon="5.79582">
        <ele>802</ele>
        <time>2017-12-15T19:53:16Z</time>
      </trkpt>
      <trkpt lat="44.86757" lon="5.79588">
        <ele>800</ele>
        <time>2017-12-15T19:53:30Z</time>
      </trkpt>
      <trkpt lat="44.86768" lon="5.79609">
        <ele>799</ele>
        <time>2017-12-15T19:53:40Z</time>
      </trkpt>
      <trkpt lat="44.86775" lon="5.79635">
        <ele>797</ele>
        <time>2017-12-15T19:53:43Z</time>
      </trkpt>
      <trkpt lat="44.86786" lon="5.79669">
        <ele>787</ele>
        <time>2017-12-15T19:53:51Z</time>
      </trkpt>
      <trkpt lat="44.86791" lon="5.79678">
        <ele>787</ele>
        <time>2017-12-15T19:53:56Z</time>
      </trkpt>
      <trkpt lat="44.868" lon="5.79685">
        <ele>788</ele>
        <time>2017-12-15T19:54:08Z</time>
      </trkpt>
      <trkpt lat="44.8681" lon="5.79688">
        <ele>788</ele>
        <time>2017-12-15T19:54:25Z</time>
      </trkpt>
      <trkpt lat="44.86834" lon="5.79686">
        <ele>792</ele>
        <time>2017-12-15T19:54:32Z</time>
      </trkpt>
      <trkpt lat="44.86869" lon="5.79686">
        <ele>792</ele>
        <time>2017-12-15T19:54:40Z</time>
      </trkpt>
      <trkpt lat="44.86905" lon="5.79692">
        <ele>793</ele>
        <time>2017-12-15T19:54:46Z</time>
      </trkpt>
      <trkpt lat="44.86946" lon="5.79706">
        <ele>795</ele>
        <time>2017-12-15T19:54:56Z</time>
      </trkpt>
      <trkpt lat="44.86962" lon="5.79716">
        <ele>794</ele>
        <time>2017-12-15T19:55:00Z</time>
      </trkpt>
      <trkpt lat="44.86988" lon="5.79732">
        <ele>792</ele>
        <time>2017-12-15T19:55:14Z</time>
      </trkpt>
      <trkpt lat="44.87033" lon="5.79754">
        <ele>783</ele>
        <time>2017-12-15T19:55:16Z</time>
      </trkpt>
      <trkpt lat="44.87062" lon="5.79763">
        <ele>785</ele>
        <time>2017-12-15T19:55:28Z</time>
      </trkpt>
      <trkpt lat="44.87078" lon="5.79763">
        <ele>788</ele>
        <time>2017-12-15T19:55:48Z</time>
      </trkpt>
      <trkpt lat="44.87108" lon="5.79758">
        <ele>787</ele>
        <time>2017-12-15T19:56:05Z</time>
      </trkpt>
      <trkpt lat="44.87121" lon="5.79757">
        <ele>787</ele>
        <time>2017-12-15T19:56:21Z</time>
      </trkpt>
      <trkpt lat="44.87135" lon="5.7976">
        <ele>787</ele>
        <time>2017-12-15T19:56:23Z</time>
      </trkpt>
      <trkpt lat="44.87155" lon="5.79771">
        <ele>787</ele>
        <time>2017-12-15T19:56:30Z</time>
      </trkpt>
      <trkpt lat="44.87176" lon="5.79781">
        <ele>784</ele>
        <time>2017-12-15T19:56:36Z</time>
      </trkpt>
      <trkpt lat="44.87197" lon="5.79784">
        <ele>782</ele>
        <time>2017-12-15T19:56:45Z</time>
      </trkpt>
      <trkpt lat="44.8722" lon="5.79782">
        <ele>782</ele>
        <time>2017-12-15T19:57:04Z</time>
      </trkpt>
      <trkpt lat="44.87243" lon="5.79773">
        <ele>786</ele>
        <time>2017-12-15T19:57:21Z</time>
      </trkpt>
      <trkpt lat="44.87284" lon="5.79742">
        <ele>793</ele>
        <time>2017-12-15T19:57:40Z</time>
      </trkpt>
      <trkpt lat="44.87323" lon="5.79702">
        <ele>793</ele>
        <time>2017-12-15T19:57:51Z</time>
      </trkpt>
      <trkpt lat="44.87347" lon="5.79673">
        <ele>785</ele>
        <time>2017-12-15T19:58:02Z</time>
      </trkpt>
      <trkpt lat="44.87356" lon="5.79654">
        <ele>794</ele>
        <time>2017-12-15T19:58:21Z</time>
      </trkpt>
      <trkpt lat="44.87359" lon="5.79617">
        <ele>797</ele>
        <time>2017-12-15T19:58:24Z</time>
      </trkpt>
      <trkpt lat="44.87362" lon="5.79603">
        <ele>798</ele>
        <time>2017-12-15T19:58:31Z</time>
      </trkpt>
      <trkpt lat="44.87369" lon="5.79589">
        <ele>798</ele>
        <time>2017-12-15T19:58:37Z</time>
      </trkpt>
      <trkpt lat="44.8738" lon="5.79579">
        <ele>809</ele>
        <time>2017-12-15T19:58:54Z</time>
      </trkpt>
      <trkpt lat="44.87392" lon="5.79575">
        <ele>807</ele>
        <time>2017-12-15T19:58:59Z</time>
      </trkpt>
      <trkpt lat="44.87402" lon="5.79576">
        <ele>804</ele>
        <time>2017-12-15T19:59:12Z</time>
      </trkpt>
      <trkpt lat="44.8741" lon="5.7958">
        <ele>800</ele>
        <time>2017-12-15T19:59:29Z</time>
      </trkpt>
      <trkpt lat="44.87421" lon="5.79595">
        <ele>798</ele>
        <time>2017-12-15T19:59:45Z</time>
      </trkpt>
      <trkpt lat="44.87449" lon="5.79661">
        <ele>794</ele>
        <time>2017-12-15T20:00:04Z</time>
      </trkpt>
      <trkpt lat="44.87472" lon="5.79708">
        <ele>781</ele>
        <time>2017-12-15T20:00:19Z</time>
      </trkpt>
      <trkpt lat="44.87486" lon="5.79747">
        <ele>781</ele>
        <time>2017-12-15T20:00:38Z</time>
      </trkpt>
      <trkpt lat="44.87498" lon="5.79789">
        <ele>763</ele>
        <time>2017-12-15T20:00:53Z</time>
      </trkpt>
      <trkpt lat="44.87503" lon="5.79799">
        <ele>778</ele>
        <time>2017-12-15T20:00:55Z</time>
      </trkpt>
      <trkpt lat="44.87511" lon="5.79805">
        <ele>778</ele>
        <time>2017-12-15T20:01:01Z</time>
      </trkpt>
      <trkpt lat="44.87538" lon="5.79813">
        <ele>780</ele>
        <time>2017-12-15T20:01:07Z</time>
      </trkpt>
      <trkpt lat="44.87591" lon="5.79828">
        <ele>778</ele>
        <time>2017-12-15T20:01:22Z</time>
      </trkpt>
      <trkpt lat="44.87606" lon="5.79827">
        <ele>776</ele>
        <time>2017-12-15T20:01:40Z</time>
      </trkpt>
      <trkpt lat="44.87625" lon="5.79811">
        <ele>774</ele>
        <time>2017-12-15T20:01:44Z</time>
      </trkpt>
      <trkpt lat="44.87656" lon="5.79768">
        <ele>777</ele>
        <time>2017-12-15T20:01:55Z</time>
      </trkpt>
      <trkpt lat="44.87667" lon="5.79748">
        <ele>777</ele>
        <time>2017-12-15T20:02:01Z</time>
      </trkpt>
      <trkpt lat="44.87677" lon="5.79723">
        <ele>761</ele>
        <time>2017-12-15T20:02:16Z</time>
      </trkpt>
      <trkpt lat="44.87707" lon="5.79667">
        <ele>755</ele>
        <time>2017-12-15T20:02:31Z</time>
      </trkpt>
      <trkpt lat="44.87725" lon="5.7964">
        <ele>768</ele>
        <time>2017-12-15T20:02:42Z</time>
      </trkpt>
      <trkpt lat="44.87738" lon="5.79609">
        <ele>770</ele>
        <time>2017-12-15T20:02:57Z</time>
      </trkpt>
      <trkpt lat="44.87771" lon="5.79502">
        <ele>755</ele>
        <time>2017-12-15T20:03:08Z</time>
      </trkpt>
      <trkpt lat="44.87784" lon="5.79469">
        <ele>755</ele>
        <time>2017-12-15T20:03:15Z</time>
      </trkpt>
      <trkpt lat="44.87802" lon="5.79432">
        <ele>749</ele>
        <time>2017-12-15T20:03:31Z</time>
      </trkpt>
      <trkpt lat="44.8781" lon="5.79401">
        <ele>754</ele>
        <time>2017-12-15T20:03:45Z</time>
      </trkpt>
      <trkpt lat="44.87812" lon="5.79381">
        <ele>758</ele>
        <time>2017-12-15T20:03:51Z</time>
      </trkpt>
      <trkpt lat="44.87817" lon="5.79365">
        <ele>757</ele>
        <time>2017-12-15T20:04:02Z</time>
      </trkpt>
      <trkpt lat="44.87837" lon="5.79317">
        <ele>725</ele>
        <time>2017-12-15T20:04:16Z</time>
      </trkpt>
      <trkpt lat="44.87841" lon="5.79305">
        <ele>721</ele>
        <time>2017-12-15T20:04:32Z</time>
      </trkpt>
      <trkpt lat="44.87845" lon="5.79303">
        <ele>719</ele>
        <time>2017-12-15T20:04:36Z</time>
      </trkpt>
      <trkpt lat="44.87848" lon="5.79308">
        <ele>719</ele>
        <time>2017-12-15T20:04:46Z</time>
      </trkpt>
      <trkpt lat="44.87846" lon="5.79316">
        <ele>722</ele>
        <time>2017-12-15T20:04:49Z</time>
      </trkpt>
      <trkpt lat="44.87818" lon="5.79371">
        <ele>757</ele>
        <time>2017-12-15T20:04:58Z</time>
      </trkpt>
      <trkpt lat="44.87813" lon="5.794">
        <ele>752</ele>
        <time>2017-12-15T20:05:01Z</time>
      </trkpt>
      <trkpt lat="44.87809" lon="5.79423">
        <ele>745</ele>
        <time>2017-12-15T20:05:07Z</time>
      </trkpt>
      <trkpt lat="44.87784" lon="5.79494">
        <ele>755</ele>
        <time>2017-12-15T20:05:24Z</time>
      </trkpt>
      <trkpt lat="44.87778" lon="5.79608">
        <ele>721</ele>
        <time>2017-12-15T20:05:40Z</time>
      </trkpt>
      <trkpt lat="44.87769" lon="5.79658">
        <ele>717</ele>
        <time>2017-12-15T20:05:43Z</time>
      </trkpt>
      <trkpt lat="44.87771" lon="5.79665">
        <ele>716</ele>
        <time>2017-12-15T20:06:01Z</time>
      </trkpt>
      <trkpt lat="44.87775" lon="5.79666">
        <ele>714</ele>
        <time>2017-12-15T20:06:13Z</time>
      </trkpt>
      <trkpt lat="44.87781" lon="5.79659">
        <ele>711</ele>
        <time>2017-12-15T20:06:26Z</time>
      </trkpt>
      <trkpt lat="44.87785" lon="5.79649">
        <ele>710</ele>
        <time>2017-12-15T20:06:40Z</time>
      </trkpt>
      <trkpt lat="44.87801" lon="5.79602">
        <ele>710</ele>
        <time>2017-12-15T20:06:49Z</time>
      </trkpt>
      <trkpt lat="44.87815" lon="5.79562">
        <ele>722</ele>
        <time>2017-12-15T20:07:07Z</time>
      </trkpt>
      <trkpt lat="44.87863" lon="5.79354">
        <ele>706</ele>
        <time>2017-12-15T20:07:13Z</time>
      </trkpt>
      <trkpt lat="44.87872" lon="5.79334">
        <ele>703</ele>
        <time>2017-12-15T20:07:24Z</time>
      </trkpt>
      <trkpt lat="44.8788" lon="5.79335">
        <ele>698</ele>
        <time>2017-12-15T20:07:30Z</time>
      </trkpt>
      <trkpt lat="44.87882" lon="5.79343">
        <ele>697</ele>
        <time>2017-12-15T20:07:35Z</time>
      </trkpt>
      <trkpt lat="44.87882" lon="5.79357">
        <ele>697</ele>
        <time>2017-12-15T20:07:51Z</time>
      </trkpt>
      <trkpt lat="44.87879" lon="5.79375">
        <ele>697</ele>
        <time>2017-12-15T20:08:10Z</time>
      </trkpt>
      <trkpt lat="44.87857" lon="5.79539">
        <ele>675</ele>
        <time>2017-12-15T20:08:24Z</time>
      </trkpt>
      <trkpt lat="44.8786" lon="5.79584">
        <ele>657</ele>
        <time>2017-12-15T20:08:32Z</time>
      </trkpt>
      <trkpt lat="44.87863" lon="5.79606">
        <ele>650</ele>
        <time>2017-12-15T20:08:48Z</time>
      </trkpt>
      <trkpt lat="44.87868" lon="5.79652">
        <ele>639</ele>
        <time>2017-12-15T20:08:52Z</time>
      </trkpt>
      <trkpt lat="44.87867" lon="5.79677">
        <ele>614</ele>
        <time>2017-12-15T20:09:12Z</time>
      </trkpt>
      <trkpt lat="44.87865" lon="5.79692">
        <ele>611</ele>
        <time>2017-12-15T20:09:27Z</time>
      </trkpt>
      <trkpt lat="44.87862" lon="5.7971">
        <ele>607</ele>
        <time>2017-12-15T20:09:33Z</time>
      </trkpt>
      <trkpt lat="44.87865" lon="5.79714">
        <ele>605</ele>
        <time>2017-12-15T20:09:48Z</time>
      </trkpt>
      <trkpt lat="44.87868" lon="5.79712">
        <ele>604</ele>
        <time>2017-12-15T20:10:06Z</time>
      </trkpt>
      <trkpt lat="44.8787" lon="5.797">
        <ele>606</ele>
        <time>2017-12-15T20:10:22Z</time>
      </trkpt>
      <trkpt lat="44.87874" lon="5.79669">
        <ele>610</ele>
        <time>2017-12-15T20:10:24Z</time>
      </trkpt>
      <trkpt lat="44.8788" lon="5.79612">
        <ele>640</ele>
        <time>2017-12-15T20:10:40Z</time>
      </trkpt>
      <trkpt lat="44.87881" lon="5.79566">
        <ele>662</ele>
        <time>2017-12-15T20:10:54Z</time>
      </trkpt>
      <trkpt lat="44.87885" lon="5.79522">
        <ele>666</ele>
        <time>2017-12-15T20:11:13Z</time>
      </trkpt>
      <trkpt lat="44.87895" lon="5.79457">
        <ele>679</ele>
        <time>2017-12-15T20:11:15Z</time>
      </trkpt>
      <trkpt lat="44.87894" lon="5.79426">
        <ele>678</ele>
        <time>2017-12-15T20:11:34Z</time>
      </trkpt>
      <trkpt lat="44.87896" lon="5.79396">
        <ele>687</ele>
        <time>2017-12-15T20:11:41Z</time>
      </trkpt>
      <trkpt lat="44.87902" lon="5.79364">
        <ele>689</ele>
        <time>2017-12-15T20:11:53Z</time>
      </trkpt>
      <trkpt lat="44.87907" lon="5.79344">
        <ele>684</ele>
        <time>2017-12-15T20:12:01Z</time>
      </trkpt>
      <trkpt lat="44.87917" lon="5.79305">
        <ele>659</ele>
        <time>2017-12-15T20:12:16Z</time>
      </trkpt>
      <trkpt lat="44.8792" lon="5.79281">
        <ele>660</ele>
        <time>2017-12-15T20:12:34Z</time>
      </trkpt>
      <trkpt lat="44.87923" lon="5.79278">
        <ele>660</ele>
        <time>2017-12-15T20:12:52Z</time>
      </trkpt>
      <trkpt lat="44.87925" lon="5.79279">
        <ele>659</ele>
        <time>2017-12-15T20:12:56Z</time>
      </trkpt>
      <trkpt lat="44.87927" lon="5.79284">
        <ele>658</ele>
        <time>2017-12-15T20:13:01Z</time>
      </trkpt>
      <trkpt lat="44.87924" lon="5.79298">
        <ele>657</ele>
        <time>2017-12-15T20:13:21Z</time>
      </trkpt>
      <trkpt lat="44.87913" lon="5.79341">
        <ele>679</ele>
        <time>2017-12-15T20:13:37Z</time>
      </trkpt>
      <trkpt lat="44.87908" lon="5.7939">
        <ele>684</ele>
        <time>2017-12-15T20:13:54Z</time>
      </trkpt>
      <trkpt lat="44.87905" lon="5.79532">
        <ele>659</ele>
        <time>2017-12-15T20:14:09Z</time>
      </trkpt>
      <trkpt lat="44.87904" lon="5.79569">
        <ele>647</ele>
        <time>2017-12-15T20:14:23Z</time>
      </trkpt>
      <trkpt lat="44.87906" lon="5.79581">
        <ele>639</ele>
        <time>2017-12-15T20:14:37Z</time>
      </trkpt>
      <trkpt lat="44.87909" lon="5.79583">
        <ele>635</ele>
        <time>2017-12-15T20:14:43Z</time>
      </trkpt>
      <trkpt lat="44.87913" lon="5.79578">
        <ele>633</ele>
        <time>2017-12-15T20:14:46Z</time>
      </trkpt>
      <trkpt lat="44.87913" lon="5.79543">
        <ele>656</ele>
        <time>2017-12-15T20:14:50Z</time>
      </trkpt>
      <trkpt lat="44.87916" lon="5.79521">
        <ele>657</ele>
        <time>2017-12-15T20:14:58Z</time>
      </trkpt>
      <trkpt lat="44.87931" lon="5.79446">
        <ele>641</ele>
        <time>2017-12-15T20:15:14Z</time>
      </trkpt>
      <trkpt lat="44.87943" lon="5.79387">
        <ele>648</ele>
        <time>2017-12-15T20:15:21Z</time>
      </trkpt>
      <trkpt lat="44.87953" lon="5.79349">
        <ele>647</ele>
        <time>2017-12-15T20:15:35Z</time>
      </trkpt>
      <trkpt lat="44.8796" lon="5.79334">
        <ele>645</ele>
        <time>2017-12-15T20:15:50Z</time>
      </trkpt>
      <trkpt lat="44.87974" lon="5.79295">
        <ele>643</ele>
        <time>2017-12-15T20:15:58Z</time>
      </trkpt>
      <trkpt lat="44.87979" lon="5.79294">
        <ele>641</ele>
        <time>2017-12-15T20:16:07Z</time>
      </trkpt>
      <trkpt lat="44.87982" lon="5.79296">
        <ele>640</ele>
        <time>2017-12-15T20:16:25Z</time>
      </trkpt>
      <trkpt lat="44.87981" lon="5.79306">
        <ele>640</ele>
        <time>2017-12-15T20:16:33Z</time>
      </trkpt>
      <trkpt lat="44.87968" lon="5.7934">
        <ele>642</ele>
        <time>2017-12-15T20:16:49Z</time>
      </trkpt>
      <trkpt lat="44.87967" lon="5.79381">
        <ele>642</ele>
        <time>2017-12-15T20:17:00Z</time>
      </trkpt>
      <trkpt lat="44.87967" lon="5.79448">
        <ele>632</ele>
        <time>2017-12-15T20:17:07Z</time>
      </trkpt>
      <trkpt lat="44.87962" lon="5.79498">
        <ele>628</ele>
        <time>2017-12-15T20:17:22Z</time>
      </trkpt>
      <trkpt lat="44.87964" lon="5.79503">
        <ele>612</ele>
        <time>2017-12-15T20:17:35Z</time>
      </trkpt>
      <trkpt lat="44.8797" lon="5.79506">
        <ele>609</ele>
        <time>2017-12-15T20:17:50Z</time>
      </trkpt>
      <trkpt lat="44.87975" lon="5.79505">
        <ele>608</ele>
        <time>2017-12-15T20:17:53Z</time>
      </trkpt>
      <trkpt lat="44.8798" lon="5.79499">
        <ele>619</ele>
        <time>2017-12-15T20:18:12Z</time>
      </trkpt>
      <trkpt lat="44.87996" lon="5.79467">
        <ele>623</ele>
        <time>2017-12-15T20:18:19Z</time>
      </trkpt>
      <trkpt lat="44.88035" lon="5.79374">
        <ele>596</ele>
        <time>2017-12-15T20:18:21Z</time>
      </trkpt>
      <trkpt lat="44.88041" lon="5.79352">
        <ele>593</ele>
        <time>2017-12-15T20:18:28Z</time>
      </trkpt>
      <trkpt lat="44.8804" lon="5.79323">
        <ele>588</ele>
        <time>2017-12-15T20:18:48Z</time>
      </trkpt>
      <trkpt lat="44.88039" lon="5.79303">
        <ele>587</ele>
        <time>2017-12-15T20:19:05Z</time>
      </trkpt>
      <trkpt lat="44.88044" lon="5.7929">
        <ele>584</ele>
        <time>2017-12-15T20:19:15Z</time>
      </trkpt>
      <trkpt lat="44.88049" lon="5.79309">
        <ele>583</ele>
        <time>2017-12-15T20:19:27Z</time>
      </trkpt>
      <trkpt lat="44.88053" lon="5.79319">
        <ele>581</ele>
        <time>2017-12-15T20:19:47Z</time>
      </trkpt>
      <trkpt lat="44.88063" lon="5.7933">
        <ele>575</ele>
        <time>2017-12-15T20:20:02Z</time>
      </trkpt>
      <trkpt lat="44.8811" lon="5.79371">
        <ele>562</ele>
        <time>2017-12-15T20:20:11Z</time>
      </trkpt>
      <trkpt lat="44.88194" lon="5.79447">
        <ele>573</ele>
        <time>2017-12-15T20:20:27Z</time>
      </trkpt>
      <trkpt lat="44.88212" lon="5.79459">
        <ele>576</ele>
        <time>2017-12-15T20:20:35Z</time>
      </trkpt>
      <trkpt lat="44.88241" lon="5.79472">
        <ele>580</ele>
        <time>2017-12-15T20:20:44Z</time>
      </trkpt>
      <trkpt lat="44.88255" lon="5.79476">
        <ele>596</ele>
        <time>2017-12-15T20:20:50Z</time>
      </trkpt>
      <trkpt lat="44.88281" lon="5.79486">
        <ele>598</ele>
        <time>2017-12-15T20:20:56Z</time>
      </trkpt>
      <trkpt lat="44.88301" lon="5.7949">
        <ele>601</ele>
        <time>2017-12-15T20:21:09Z</time>
      </trkpt>
      <trkpt lat="44.88313" lon="5.79489">
        <ele>601</ele>
        <time>2017-12-15T20:21:15Z</time>
      </trkpt>
      <trkpt lat="44.88325" lon="5.79484">
        <ele>602</ele>
        <time>2017-12-15T20:21:35Z</time>
      </trkpt>
      <trkpt lat="44.88342" lon="5.7947">
        <ele>616</ele>
        <time>2017-12-15T20:21:43Z</time>
      </trkpt>
      <trkpt lat="44.88354" lon="5.79466">
        <ele>618</ele>
        <time>2017-12-15T20:22:00Z</time>
      </trkpt>
      <trkpt lat="44.88363" lon="5.79473">
        <ele>618</ele>
        <time>2017-12-15T20:22:09Z</time>
      </trkpt>
      <trkpt lat="44.8838" lon="5.79502">
        <ele>610</ele>
        <time>2017-12-15T20:22:13Z</time>
      </trkpt>
      <trkpt lat="44.884" lon="5.79546">
        <ele>611</ele>
        <time>2017-12-15T20:22:27Z</time>
      </trkpt>
      <trkpt lat="44.88401" lon="5.79565">
        <ele>612</ele>
        <time>2017-12-15T20:22:32Z</time>
      </trkpt>
      <trkpt lat="44.88393" lon="5.79613">
        <ele>613</ele>
        <time>2017-12-15T20:22:49Z</time>
      </trkpt>
      <trkpt lat="44.88382" lon="5.79699">
        <ele>620</ele>
        <time>2017-12-15T20:23:03Z</time>
      </trkpt>
      <trkpt lat="44.88384" lon="5.79727">
        <ele>621</ele>
        <time>2017-12-15T20:23:19Z</time>
      </trkpt>
      <trkpt lat="44.88391" lon="5.7975">
        <ele>626</ele>
        <time>2017-12-15T20:23:25Z</time>
      </trkpt>
      <trkpt lat="44.88398" lon="5.79763">
        <ele>628</ele>
        <time>2017-12-15T20:23:39Z</time>
      </trkpt>
      <trkpt lat="44.88409" lon="5.79792">
        <ele>627</ele>
        <time>2017-12-15T20:23:58Z</time>
      </trkpt>
      <trkpt lat="44.8841" lon="5.79806">
        <ele>628</ele>
        <time>2017-12-15T20:24:06Z</time>
      </trkpt>
      <trkpt lat="44.88408" lon="5.79818">
        <ele>630</ele>
        <time>2017-12-15T20:24:16Z</time>
      </trkpt>
      <trkpt lat="44.884" lon="5.79835">
        <ele>629</ele>
        <time>2017-12-15T20:24:23Z</time>
      </trkpt>
      <trkpt lat="44.88392" lon="5.79856">
        <ele>624</ele>
        <time>2017-12-15T20:24:39Z</time>
      </trkpt>
      <trkpt lat="44.88391" lon="5.79877">
        <ele>622</ele>
        <time>2017-12-15T20:24:46Z</time>
      </trkpt>
      <trkpt lat="44.88397" lon="5.79893">
        <ele>624</ele>
        <time>2017-12-15T20:24:49Z</time>
      </trkpt>
      <trkpt lat="44.88408" lon="5.79907">
        <ele>630</ele>
        <time>2017-12-15T20:25:06Z</time>
      </trkpt>
      <trkpt lat="44.88426" lon="5.79918">
        <ele>642</ele>
        <time>2017-12-15T20:25:08Z</time>
      </trkpt>
      <trkpt lat="44.88445" lon="5.79942">
        <ele>649</ele>
        <time>2017-12-15T20:25:25Z</time>
      </trkpt>
      <trkpt lat="44.88459" lon="5.79968">
        <ele>651</ele>
        <time>2017-12-15T20:25:42Z</time>
      </trkpt>
      <trkpt lat="44.88466" lon="5.79993">
        <ele>652</ele>
        <time>2017-12-15T20:25:50Z</time>
      </trkpt>
      <trkpt lat="44.88467" lon="5.80051">
        <ele>645</ele>
        <time>2017-12-15T20:25:58Z</time>
      </trkpt>
      <trkpt lat="44.88461" lon="5.8009">
        <ele>641</ele>
        <time>2017-12-15T20:26:12Z</time>
      </trkpt>
      <trkpt lat="44.88455" lon="5.80114">
        <ele>638</ele>
        <time>2017-12-15T20:26:32Z</time>
      </trkpt>
      <trkpt lat="44.88452" lon="5.80136">
        <ele>637</ele>
        <time>2017-12-15T20:26:36Z</time>
      </trkpt>
      <trkpt lat="44.88457" lon="5.8015">
        <ele>638</ele>
        <time>2017-12-15T20:26:46Z</time>
      </trkpt>
      <trkpt lat="44.88463" lon="5.80158">
        <ele>640</ele>
        <time>2017-12-15T20:27:05Z</time>
      </trkpt>
      <trkpt lat="44.8847" lon="5.80162">
        <ele>642</ele>
        <time>2017-12-15T20:27:23Z</time>
      </trkpt>
      <trkpt lat="44.88481" lon="5.80161">
        <ele>645</ele>
        <time>2017-12-15T20:27:27Z</time>
      </trkpt>
      <trkpt lat="44.88494" lon="5.80157">
        <ele>648</ele>
        <time>2017-12-15T20:27:40Z</time>
      </trkpt>
      <trkpt lat="44.88509" lon="5.80147">
        <ele>661</ele>
        <time>2017-12-15T20:28:00Z</time>
      </trkpt>
      <trkpt lat="44.88532" lon="5.80134">
        <ele>667</ele>
        <time>2017-12-15T20:28:04Z</time>
      </trkpt>
      <trkpt lat="44.88546" lon="5.80133">
        <ele>668</ele>
        <time>2017-12-15T20:28:11Z</time>
      </trkpt>
      <trkpt lat="44.88558" lon="5.80143">
        <ele>669</ele>
        <time>2017-12-15T20:28:17Z</time>
      </trkpt>
      <trkpt lat="44.88573" lon="5.80168">
        <ele>661</ele>
        <time>2017-12-15T20:28:23Z</time>
      </trkpt>
      <trkpt lat="44.88589" lon="5.80189">
        <ele>668</ele>
        <time>2017-12-15T20:28:43Z</time>
      </trkpt>
      <trkpt lat="44.88598" lon="5.80195">
        <ele>668</ele>
        <time>2017-12-15T20:28:47Z</time>
      </trkpt>
      <trkpt lat="44.88661" lon="5.80235">
        <ele>671</ele>
        <time>2017-12-15T20:28:49Z</time>
      </trkpt>
      <trkpt lat="44.88692" lon="5.8026">
        <ele>677</ele>
        <time>2017-12-15T20:28:52Z</time>
      </trkpt>
      <trkpt lat="44.88702" lon="5.80278">
        <ele>679</ele>
        <time>2017-12-15T20:29:02Z</time>
      </trkpt>
      <trkpt lat="44.8871" lon="5.80305">
        <ele>679</ele>
        <time>2017-12-15T20:29:21Z</time>
      </trkpt>
      <trkpt lat="44.88724" lon="5.80331">
        <ele>682</ele>
        <time>2017-12-15T20:29:36Z</time>
      </trkpt>
      <trkpt lat="44.88736" lon="5.80348">
        <ele>677</ele>
        <time>2017-12-15T20:29:42Z</time>
      </trkpt>
      <trkpt lat="44.88742" lon="5.80362">
        <ele>674</ele>
        <time>2017-12-15T20:29:46Z</time>
      </trkpt>
      <trkpt lat="44.88747" lon="5.80385">
        <ele>671</ele>
        <time>2017-12-15T20:29:59Z</time>
      </trkpt>
      <trkpt lat="44.88754" lon="5.80401">
        <ele>687</ele>
        <time>2017-12-15T20:30:18Z</time>
      </trkpt>
      <trkpt lat="44.88768" lon="5.80417">
        <ele>678</ele>
        <time>2017-12-15T20:30:29Z</time>
      </trkpt>
      <trkpt lat="44.88798" lon="5.80442">
        <ele>681</ele>
        <time>2017-12-15T20:30:48Z</time>
      </trkpt>
      <trkpt lat="44.8882" lon="5.80451">
        <ele>683</ele>
        <time>2017-12-15T20:30:56Z</time>
      </trkpt>
      <trkpt lat="44.88868" lon="5.80467">
        <ele>696</ele>
        <time>2017-12-15T20:31:04Z</time>
      </trkpt>
      <trkpt lat="44.88903" lon="5.8049">
        <ele>697</ele>
        <time>2017-12-15T20:31:19Z</time>
      </trkpt>
      <trkpt lat="44.88959" lon="5.80534">
        <ele>693</ele>
        <time>2017-12-15T20:31:21Z</time>
      </trkpt>
      <trkpt lat="44.88976" lon="5.80542">
        <ele>694</ele>
        <time>2017-12-15T20:31:38Z</time>
      </trkpt>
      <trkpt lat="44.88992" lon="5.80541">
        <ele>695</ele>
        <time>2017-12-15T20:31:41Z</time>
      </trkpt>
      <trkpt lat="44.89017" lon="5.80531">
        <ele>700</ele>
        <time>2017-12-15T20:31:46Z</time>
      </trkpt>
      <trkpt lat="44.8904" lon="5.80516">
        <ele>701</ele>
        <time>2017-12-15T20:32:04Z</time>
      </trkpt>
      <trkpt lat="44.89054" lon="5.80504">
        <ele>703</ele>
        <time>2017-12-15T20:32:09Z</time>
      </trkpt>
      <trkpt lat="44.89065" lon="5.80493">
        <ele>712</ele>
        <time>2017-12-15T20:32:29Z</time>
      </trkpt>
      <trkpt lat="44.89082" lon="5.80471">
        <ele>714</ele>
        <time>2017-12-15T20:32:33Z</time>
      </trkpt>
      <trkpt lat="44.89102" lon="5.80452">
        <ele>717</ele>
        <time>2017-12-15T20:32:44Z</time>
      </trkpt>
      <trkpt lat="44.89117" lon="5.80446">
        <ele>718</ele>
        <time>2017-12-15T20:32:59Z</time>
      </trkpt>
      <trkpt lat="44.89128" lon="5.80444">
        <ele>718</ele>
        <time>2017-12-15T20:33:15Z</time>
      </trkpt>
      <trkpt lat="44.89145" lon="5.80447">
        <ele>718</ele>
        <time>2017-12-15T20:33:19Z</time>
      </trkpt>
      <trkpt lat="44.89162" lon="5.80455">
        <ele>717</ele>
        <time>2017-12-15T20:33:39Z</time>
      </trkpt>
      <trkpt lat="44.89174" lon="5.80466">
        <ele>723</ele>
        <time>2017-12-15T20:33:49Z</time>
      </trkpt>
      <trkpt lat="44.89191" lon="5.80484">
        <ele>723</ele>
        <time>2017-12-15T20:34:00Z</time>
      </trkpt>
      <trkpt lat="44.892" lon="5.80502">
        <ele>718</ele>
        <time>2017-12-15T20:34:20Z</time>
      </trkpt>
      <trkpt lat="44.89214" lon="5.80545">
        <ele>719</ele>
        <time>2017-12-15T20:34:40Z</time>
      </trkpt>
      <trkpt lat="44.89218" lon="5.80562">
        <ele>718</ele>
        <time>2017-12-15T20:34:48Z</time>
      </trkpt>
      <trkpt lat="44.89225" lon="5.8058">
        <ele>719</ele>
        <time>2017-12-15T20:35:01Z</time>
      </trkpt>
      <trkpt lat="44.89246" lon="5.8061">
        <ele>714</ele>
        <time>2017-12-15T20:35:06Z</time>
      </trkpt>
      <trkpt lat="44.89273" lon="5.80635">
        <ele>723</ele>
        <time>2017-12-15T20:35:18Z</time>
      </trkpt>
      <trkpt lat="44.89294" lon="5.80658">
        <ele>724</ele>
        <time>2017-12-15T20:35:36Z</time>
      </trkpt>
      <trkpt lat="44.89317" lon="5.80678">
        <ele>719</ele>
        <time>2017-12-15T20:35:50Z</time>
      </trkpt>
      <trkpt lat="44.89331" lon="5.80687">
        <ele>719</ele>
        <time>2017-12-15T20:35:56Z</time>
      </trkpt>
      <trkpt lat="44.89346" lon="5.80694">
        <ele>723</ele>
        <time>2017-12-15T20:36:07Z</time>
      </trkpt>
      <trkpt lat="44.89361" lon="5.80696">
        <ele>723</ele>
        <time>2017-12-15T20:36:16Z</time>
      </trkpt>
      <trkpt lat="44.89374" lon="5.80696">
        <ele>723</ele>
        <time>2017-12-15T20:36:25Z</time>
      </trkpt>
      <trkpt lat="44.89389" lon="5.80691">
        <ele>724</ele>
        <time>2017-12-15T20:36:34Z</time>
      </trkpt>
      <trkpt lat="44.89419" lon="5.80676">
        <ele>731</ele>
        <time>2017-12-15T20:36:47Z</time>
      </trkpt>
      <trkpt lat="44.89458" lon="5.80655">
        <ele>740</ele>
        <time>2017-12-15T20:37:05Z</time>
      </trkpt>
      <trkpt lat="44.89469" lon="5.80652">
        <ele>740</ele>
        <time>2017-12-15T20:37:22Z</time>
      </trkpt>
      <trkpt lat="44.89486" lon="5.80652">
        <ele>740</ele>
        <time>2017-12-15T20:37:33Z</time>
      </trkpt>
      <trkpt lat="44.89516" lon="5.80659">
        <ele>743</ele>
        <time>2017-12-15T20:37:40Z</time>
      </trkpt>
      <trkpt lat="44.89553" lon="5.80674">
        <ele>738</ele>
        <time>2017-12-15T20:37:43Z</time>
      </trkpt>
      <trkpt lat="44.89574" lon="5.80692">
        <ele>738</ele>
        <time>2017-12-15T20:37:47Z</time>
      </trkpt>
      <trkpt lat="44.89603" lon="5.80723">
        <ele>744</ele>
        <time>2017-12-15T20:38:01Z</time>
      </trkpt>
      <trkpt lat="44.89642" lon="5.80764">
        <ele>740</ele>
        <time>2017-12-15T20:38:10Z</time>
      </trkpt>
      <trkpt lat="44.89673" lon="5.80793">
        <ele>746</ele>
        <time>2017-12-15T20:38:26Z</time>
      </trkpt>
      <trkpt lat="44.89697" lon="5.80807">
        <ele>745</ele>
        <time>2017-12-15T20:38:35Z</time>
      </trkpt>
      <trkpt lat="44.89712" lon="5.80808">
        <ele>746</ele>
        <time>2017-12-15T20:38:54Z</time>
      </trkpt>
      <trkpt lat="44.8973" lon="5.80802">
        <ele>746</ele>
        <time>2017-12-15T20:38:58Z</time>
      </trkpt>
      <trkpt lat="44.8973" lon="5.80799">
        <ele>747</ele>
        <time>2017-12-15T20:39:00Z</time>
      </trkpt>
      <trkpt lat="44.89731" lon="5.80792">
        <ele>747</ele>
        <time>2017-12-15T20:39:20Z</time>
      </trkpt>
      <trkpt lat="44.89802" lon="5.80694">
        <ele>758</ele>
        <time>2017-12-15T20:39:30Z</time>
      </trkpt>
      <trkpt lat="44.89822" lon="5.80666">
        <ele>763</ele>
        <time>2017-12-15T20:39:45Z</time>
      </trkpt>
      <trkpt lat="44.89846" lon="5.80619">
        <ele>761</ele>
        <time>2017-12-15T20:40:01Z</time>
      </trkpt>
      <trkpt lat="44.89865" lon="5.80564">
        <ele>767</ele>
        <time>2017-12-15T20:40:21Z</time>
      </trkpt>
      <trkpt lat="44.89882" lon="5.80494">
        <ele>773</ele>
        <time>2017-12-15T20:40:29Z</time>
      </trkpt>
      <trkpt lat="44.89889" lon="5.80452">
        <ele>774</ele>
        <time>2017-12-15T20:40:44Z</time>
      </trkpt>
      <trkpt lat="44.8989" lon="5.80402">
        <ele>778</ele>
        <time>2017-12-15T20:41:01Z</time>
      </trkpt>
      <trkpt lat="44.8989" lon="5.80344">
        <ele>779</ele>
        <time>2017-12-15T20:41:17Z</time>
      </trkpt>
      <trkpt lat="44.89895" lon="5.80303">
        <ele>784</ele>
        <time>2017-12-15T20:41:29Z</time>
      </trkpt>
      <trkpt lat="44.89899" lon="5.80279">
        <ele>786</ele>
        <time>2017-12-15T20:41:43Z</time>
      </trkpt>
      <trkpt lat="44.89915" lon="5.80235">
        <ele>790</ele>
        <time>2017-12-15T20:41:46Z</time>
      </trkpt>
      <trkpt lat="44.89939" lon="5.80174">
        <ele>794</ele>
        <time>2017-12-15T20:41:48Z</time>
      </trkpt>
      <trkpt lat="44.89965" lon="5.8012">
        <ele>797</ele>
        <time>2017-12-15T20:41:54Z</time>
      </trkpt>
      <trkpt lat="44.89975" lon="5.80106">
        <ele>797</ele>
        <time>2017-12-15T20:42:05Z</time>
      </trkpt>
      <trkpt lat="44.89992" lon="5.80095">
        <ele>797</ele>
        <time>2017-12-15T20:42:12Z</time>
      </trkpt>
      <trkpt lat="44.90049" lon="5.80062">
        <ele>801</ele>
        <time>2017-12-15T20:42:30Z</time>
      </trkpt>
      <trkpt lat="44.90075" lon="5.80041">
        <ele>802</ele>
        <time>2017-12-15T20:42:42Z</time>
      </trkpt>
      <trkpt lat="44.90101" lon="5.8001">
        <ele>804</ele>
        <time>2017-12-15T20:42:58Z</time>
      </trkpt>
      <trkpt lat="44.90142" lon="5.79954">
        <ele>807</ele>
        <time>2017-12-15T20:43:02Z</time>
      </trkpt>
      <trkpt lat="44.90147" lon="5.79946">
        <ele>807</ele>
        <time>2017-12-15T20:43:09Z</time>
      </trkpt>
      <trkpt lat="44.90166" lon="5.79907">
        <ele>808</ele>
        <time>2017-12-15T20:43:11Z</time>
      </trkpt>
      <trkpt lat="44.90177" lon="5.79898">
        <ele>808</ele>
        <time>2017-12-15T20:43:15Z</time>
      </trkpt>
      <trkpt lat="44.90185" lon="5.79894">
        <ele>808</ele>
        <time>2017-12-15T20:43:35Z</time>
      </trkpt>
      <trkpt lat="44.90188" lon="5.79895">
        <ele>808</ele>
        <time>2017-12-15T20:43:44Z</time>
      </trkpt>
      <trkpt lat="44.90195" lon="5.79893">
        <ele>808</ele>
        <time>2017-12-15T20:43:55Z</time>
      </trkpt>
      <trkpt lat="44.902" lon="5.79887">
        <ele>808</ele>
        <time>2017-12-15T20:44:15Z</time>
      </trkpt>
      <trkpt lat="44.90211" lon="5.79877">
        <ele>808</ele>
        <time>2017-12-15T20:44:22Z</time>
      </trkpt>
      <trkpt lat="44.90226" lon="5.79868">
        <ele>808</ele>
        <time>2017-12-15T20:44:26Z</time>
      </trkpt>
      <trkpt lat="44.90256" lon="5.79845">
        <ele>809</ele>
        <time>2017-12-15T20:44:36Z</time>
      </trkpt>
      <trkpt lat="44.90295" lon="5.79818">
        <ele>810</ele>
        <time>2017-12-15T20:44:45Z</time>
      </trkpt>
      <trkpt lat="44.90342" lon="5.79799">
        <ele>813</ele>
        <time>2017-12-15T20:44:52Z</time>
      </trkpt>
      <trkpt lat="44.90414" lon="5.79783">
        <ele>815</ele>
        <time>2017-12-15T20:45:05Z</time>
      </trkpt>
      <trkpt lat="44.90446" lon="5.79776">
        <ele>819</ele>
        <time>2017-12-15T20:45:23Z</time>
      </trkpt>
      <trkpt lat="44.90471" lon="5.79765">
        <ele>820</ele>
        <time>2017-12-15T20:45:32Z</time>
      </trkpt>
      <trkpt lat="44.90483" lon="5.7976">
        <ele>820</ele>
        <time>2017-12-15T20:45:41Z</time>
      </trkpt>
      <trkpt lat="44.90501" lon="5.79743">
        <ele>823</ele>
        <time>2017-12-15T20:45:56Z</time>
      </trkpt>
      <trkpt lat="44.90514" lon="5.79725">
        <ele>824</ele>
        <time>2017-12-15T20:46:12Z</time>
      </trkpt>
      <trkpt lat="44.90523" lon="5.79703">
        <ele>824</ele>
        <time>2017-12-15T20:46:24Z</time>
      </trkpt>
      <trkpt lat="44.90526" lon="5.7968">
        <ele>824</ele>
        <time>2017-12-15T20:46:35Z</time>
      </trkpt>
      <trkpt lat="44.90526" lon="5.79654">
        <ele>827</ele>
        <time>2017-12-15T20:46:47Z</time>
      </trkpt>
      <trkpt lat="44.90531" lon="5.7949">
        <ele>839</ele>
        <time>2017-12-15T20:47:04Z</time>
      </trkpt>
      <trkpt lat="44.90534" lon="5.79364">
        <ele>846</ele>
        <time>2017-12-15T20:47:10Z</time>
      </trkpt>
      <trkpt lat="44.90535" lon="5.79318">
        <ele>849</ele>
        <time>2017-12-15T20:47:17Z</time>
      </trkpt>
      <trkpt lat="44.90536" lon="5.79282">
        <ele>850</ele>
        <time>2017-12-15T20:47:27Z</time>
      </trkpt>
      <trkpt lat="44.90539" lon="5.79268">
        <ele>850</ele>
        <time>2017-12-15T20:47:31Z</time>
      </trkpt>
      <trkpt lat="44.9054" lon="5.79241">
        <ele>853</ele>
        <time>2017-12-15T20:47:51Z</time>
      </trkpt>
      <trkpt lat="44.90541" lon="5.79212">
        <ele>854</ele>
        <time>2017-12-15T20:48:08Z</time>
      </trkpt>
      <trkpt lat="44.90542" lon="5.7918">
        <ele>855</ele>
        <time>2017-12-15T20:48:21Z</time>
      </trkpt>
      <trkpt lat="44.90542" lon="5.79141">
        <ele>858</ele>
        <time>2017-12-15T20:48:24Z</time>
      </trkpt>
      <trkpt lat="44.9054" lon="5.79109">
        <ele>859</ele>
        <time>2017-12-15T20:48:43Z</time>
      </trkpt>
      <trkpt lat="44.90544" lon="5.79008">
        <ele>863</ele>
        <time>2017-12-15T20:48:51Z</time>
      </trkpt>
      <trkpt lat="44.9055" lon="5.78844">
        <ele>871</ele>
        <time>2017-12-15T20:48:59Z</time>
      </trkpt>
      <trkpt lat="44.90551" lon="5.78789">
        <ele>873</ele>
        <time>2017-12-15T20:49:04Z</time>
      </trkpt>
      <trkpt lat="44.90551" lon="5.78782">
        <ele>873</ele>
        <time>2017-12-15T20:49:17Z</time>
      </trkpt>
      <trkpt lat="44.90553" lon="5.78753">
        <ele>874</ele>
        <time>2017-12-15T20:49:33Z</time>
      </trkpt>
      <trkpt lat="44.90555" lon="5.7875">
        <ele>875</ele>
        <time>2017-12-15T20:49:41Z</time>
      </trkpt>
      <trkpt lat="44.90559" lon="5.78748">
        <ele>875</ele>
        <time>2017-12-15T20:49:48Z</time>
      </trkpt>
      <trkpt lat="44.90564" lon="5.78748">
        <ele>875</ele>
        <time>2017-12-15T20:49:51Z</time>
      </trkpt>
      <trkpt lat="44.90611" lon="5.78774">
        <ele>875</ele>
        <time>2017-12-15T20:50:03Z</time>
      </trkpt>
      <trkpt lat="44.90631" lon="5.78783">
        <ele>875</ele>
        <time>2017-12-15T20:50:06Z</time>
      </trkpt>
      <trkpt lat="44.90637" lon="5.78784">
        <ele>875</ele>
        <time>2017-12-15T20:50:10Z</time>
      </trkpt>
      <trkpt lat="44.90651" lon="5.78782">
        <ele>875</ele>
        <time>2017-12-15T20:50:24Z</time>
      </trkpt>
      <trkpt lat="44.90682" lon="5.78861">
        <ele>874</ele>
        <time>2017-12-15T20:50:32Z</time>
      </trkpt>
      <trkpt lat="44.90696" lon="5.78883">
        <ele>874</ele>
        <time>2017-12-15T20:50:51Z</time>
      </trkpt>
      <trkpt lat="44.90741" lon="5.7895">
        <ele>872</ele>
        <time>2017-12-15T20:51:08Z</time>
      </trkpt>
      <trkpt lat="44.90783" lon="5.79019">
        <ele>872</ele>
        <time>2017-12-15T20:51:20Z</time>
      </trkpt>
      <trkpt lat="44.90777" lon="5.79027">
        <ele>872</ele>
        <time>2017-12-15T20:51:40Z</time>
      </trkpt>
      <trkpt lat="44.90776" lon="5.79027">
        <ele>872</ele>
        <time>2017-12-15T20:51:52Z</time>
      </trkpt>
      <trkpt lat="44.90783" lon="5.79019">
        <ele>872</ele>
        <time>2017-12-15T20:52:07Z</time>
      </trkpt>
      <trkpt lat="44.90841" lon="5.79111">
        <ele>874</ele>
        <time>2017-12-15T20:52:18Z</time>
      </trkpt>
      <trkpt lat="44.91015" lon="5.79382">
        <ele>872</ele>
        <time>2017-12-15T20:52:29Z</time>
      </trkpt>
      <trkpt lat="44.91186" lon="5.79649">
        <ele>867</ele>
        <time>2017-12-15T20:52:36Z</time>
      </trkpt>
      <trkpt lat="44.91215" lon="5.79697">
        <ele>865</ele>
        <time>2017-12-15T20:52:38Z</time>
      </trkpt>
      <trkpt lat="44.9127" lon="5.79781">
        <ele>865</ele>
        <time>2017-12-15T20:52:41Z</time>
      </trkpt>
      <trkpt lat="44.9136" lon="5.79923">
        <ele>863</ele>
        <time>2017-12-15T20:52:50Z</time>
      </trkpt>
      <trkpt lat="44.91375" lon="5.79947">
        <ele>863</ele>
        <time>2017-12-15T20:52:54Z</time>
      </trkpt>
      <trkpt lat="44.91389" lon="5.79975">
        <ele>863</ele>
        <time>2017-12-15T20:53:13Z</time>
      </trkpt>
      <trkpt lat="44.91406" lon="5.80006">
        <ele>861</ele>
        <time>2017-12-15T20:53:18Z</time>
      </trkpt>
      <trkpt lat="44.91467" lon="5.80074">
        <ele>862</ele>
        <time>2017-12-15T20:53:20Z</time>
      </trkpt>
      <trkpt lat="44.91496" lon="5.80107">
        <ele>859</ele>
        <time>2017-12-15T20:53:27Z</time>
      </trkpt>
      <trkpt lat="44.91511" lon="5.80135">
        <ele>862</ele>
        <time>2017-12-15T20:53:33Z</time>
      </trkpt>
      <trkpt lat="44.91527" lon="5.80176">
        <ele>860</ele>
        <time>2017-12-15T20:53:42Z</time>
      </trkpt>
      <trkpt lat="44.91538" lon="5.80224">
        <ele>860</ele>
        <time>2017-12-15T20:54:00Z</time>
      </trkpt>
      <trkpt lat="44.91562" lon="5.80353">
        <ele>857</ele>
        <time>2017-12-15T20:54:07Z</time>
      </trkpt>
      <trkpt lat="44.91581" lon="5.80453">
        <ele>855</ele>
        <time>2017-12-15T20:54:14Z</time>
      </trkpt>
      <trkpt lat="44.91603" lon="5.80529">
        <ele>858</ele>
        <time>2017-12-15T20:54:33Z</time>
      </trkpt>
      <trkpt lat="44.91637" lon="5.80608">
        <ele>853</ele>
        <time>2017-12-15T20:54:41Z</time>
      </trkpt>
      <trkpt lat="44.91647" lon="5.80626">
        <ele>853</ele>
        <time>2017-12-15T20:54:45Z</time>
      </trkpt>
      <trkpt lat="44.91669" lon="5.80653">
        <ele>853</ele>
        <time>2017-12-15T20:54:59Z</time>
      </trkpt>
      <trkpt lat="44.91684" lon="5.80663">
        <ele>854</ele>
        <time>2017-12-15T20:55:05Z</time>
      </trkpt>
      <trkpt lat="44.91708" lon="5.80675">
        <ele>845</ele>
        <time>2017-12-15T20:55:15Z</time>
      </trkpt>
      <trkpt lat="44.91746" lon="5.80686">
        <ele>847</ele>
        <time>2017-12-15T20:55:23Z</time>
      </trkpt>
      <trkpt lat="44.91786" lon="5.80695">
        <ele>849</ele>
        <time>2017-12-15T20:55:34Z</time>
      </trkpt>
      <trkpt lat="44.9182" lon="5.80704">
        <ele>849</ele>
        <time>2017-12-15T20:55:53Z</time>
      </trkpt>
      <trkpt lat="44.91848" lon="5.80716">
        <ele>853</ele>
        <time>2017-12-15T20:56:02Z</time>
      </trkpt>
      <trkpt lat="44.91922" lon="5.80761">
        <ele>850</ele>
        <time>2017-12-15T20:56:07Z</time>
      </trkpt>
      <trkpt lat="44.91974" lon="5.80791">
        <ele>847</ele>
        <time>2017-12-15T20:56:24Z</time>
      </trkpt>
      <trkpt lat="44.91986" lon="5.80797">
        <ele>847</ele>
        <time>2017-12-15T20:56:27Z</time>
      </trkpt>
      <trkpt lat="44.92007" lon="5.80803">
        <ele>848</ele>
        <time>2017-12-15T20:56:38Z</time>
      </trkpt>
      <trkpt lat="44.92071" lon="5.8081">
        <ele>848</ele>
        <time>2017-12-15T20:56:48Z</time>
      </trkpt>
      <trkpt lat="44.92121" lon="5.80828">
        <ele>849</ele>
        <time>2017-12-15T20:56:57Z</time>
      </trkpt>
      <trkpt lat="44.92146" lon="5.80834">
        <ele>840</ele>
        <time>2017-12-15T20:57:08Z</time>
      </trkpt>
      <trkpt lat="44.92185" lon="5.80839">
        <ele>844</ele>
        <time>2017-12-15T20:57:13Z</time>
      </trkpt>
      <trkpt lat="44.92206" lon="5.80842">
        <ele>844</ele>
        <time>2017-12-15T20:57:21Z</time>
      </trkpt>
      <trkpt lat="44.92215" lon="5.80846">
        <ele>845</ele>
        <time>2017-12-15T20:57:40Z</time>
      </trkpt>
      <trkpt lat="44.92226" lon="5.80857">
        <ele>845</ele>
        <time>2017-12-15T20:57:48Z</time>
      </trkpt>
      <trkpt lat="44.9223" lon="5.80862">
        <ele>845</ele>
        <time>2017-12-15T20:57:56Z</time>
      </trkpt>
      <trkpt lat="44.92234" lon="5.80873">
        <ele>845</ele>
        <time>2017-12-15T20:58:00Z</time>
      </trkpt>
      <trkpt lat="44.92235" lon="5.80884">
        <ele>845</ele>
        <time>2017-12-15T20:58:09Z</time>
      </trkpt>
      <trkpt lat="44.92231" lon="5.8091">
        <ele>846</ele>
        <time>2017-12-15T20:58:25Z</time>
      </trkpt>
      <trkpt lat="44.92221" lon="5.80924">
        <ele>848</ele>
        <time>2017-12-15T20:58:41Z</time>
      </trkpt>
      <trkpt lat="44.92205" lon="5.80936">
        <ele>847</ele>
        <time>2017-12-15T20:59:01Z</time>
      </trkpt>
      <trkpt lat="44.92156" lon="5.80966">
        <ele>838</ele>
        <time>2017-12-15T20:59:04Z</time>
      </trkpt>
      <trkpt lat="44.9204" lon="5.81044">
        <ele>835</ele>
        <time>2017-12-15T20:59:13Z</time>
      </trkpt>
      <trkpt lat="44.91976" lon="5.81089">
        <ele>844</ele>
        <time>2017-12-15T20:59:24Z</time>
      </trkpt>
      <trkpt lat="44.9196" lon="5.81096">
        <ele>845</ele>
        <time>2017-12-15T20:59:28Z</time>
      </trkpt>
      <trkpt lat="44.91938" lon="5.81101">
        <ele>843</ele>
        <time>2017-12-15T20:59:46Z</time>
      </trkpt>
      <trkpt lat="44.91844" lon="5.81114">
        <ele>840</ele>
        <time>2017-12-15T21:00:06Z</time>
      </trkpt>
      <trkpt lat="44.91827" lon="5.81112">
        <ele>837</ele>
        <time>2017-12-15T21:00:25Z</time>
      </trkpt>
      <trkpt lat="44.9181" lon="5.81113">
        <ele>837</ele>
        <time>2017-12-15T21:00:45Z</time>
      </trkpt>
      <trkpt lat="44.91767" lon="5.81126">
        <ele>838</ele>
        <time>2017-12-15T21:01:00Z</time>
      </trkpt>
      <trkpt lat="44.91746" lon="5.81135">
        <ele>836</ele>
        <time>2017-12-15T21:01:10Z</time>
      </trkpt>
      <trkpt lat="44.91733" lon="5.81146">
        <ele>837</ele>
        <time>2017-12-15T21:01:17Z</time>
      </trkpt>
      <trkpt lat="44.91713" lon="5.81166">
        <ele>837</ele>
        <time>2017-12-15T21:01:34Z</time>
      </trkpt>
      <trkpt lat="44.91675" lon="5.81218">
        <ele>842</ele>
        <time>2017-12-15T21:01:40Z</time>
      </trkpt>
      <trkpt lat="44.91613" lon="5.81314">
        <ele>834</ele>
        <time>2017-12-15T21:01:48Z</time>
      </trkpt>
      <trkpt lat="44.91596" lon="5.81334">
        <ele>832</ele>
        <time>2017-12-15T21:02:04Z</time>
      </trkpt>
      <trkpt lat="44.9157" lon="5.8136">
        <ele>828</ele>
        <time>2017-12-15T21:02:08Z</time>
      </trkpt>
      <trkpt lat="44.91537" lon="5.81404">
        <ele>826</ele>
        <time>2017-12-15T21:02:10Z</time>
      </trkpt>
      <trkpt lat="44.91517" lon="5.81445">
        <ele>825</ele>
        <time>2017-12-15T21:02:15Z</time>
      </trkpt>
      <trkpt lat="44.91491" lon="5.81507">
        <ele>823</ele>
        <time>2017-12-15T21:02:31Z</time>
      </trkpt>
      <trkpt lat="44.91476" lon="5.8154">
        <ele>823</ele>
        <time>2017-12-15T21:02:48Z</time>
      </trkpt>
      <trkpt lat="44.91451" lon="5.81583">
        <ele>824</ele>
        <time>2017-12-15T21:03:04Z</time>
      </trkpt>
      <trkpt lat="44.91417" lon="5.81646">
        <ele>827</ele>
        <time>2017-12-15T21:03:23Z</time>
      </trkpt>
      <trkpt lat="44.91395" lon="5.81681">
        <ele>831</ele>
        <time>2017-12-15T21:03:41Z</time>
      </trkpt>
      <trkpt lat="44.91342" lon="5.81726">
        <ele>831</ele>
        <time>2017-12-15T21:04:01Z</time>
      </trkpt>
      <trkpt lat="44.91315" lon="5.81753">
        <ele>828</ele>
        <time>2017-12-15T21:04:04Z</time>
      </trkpt>
      <trkpt lat="44.91306" lon="5.81765">
        <ele>827</ele>
        <time>2017-12-15T21:04:17Z</time>
      </trkpt>
      <trkpt lat="44.91301" lon="5.81783">
        <ele>826</ele>
        <time>2017-12-15T21:04:35Z</time>
      </trkpt>
      <trkpt lat="44.913" lon="5.81804">
        <ele>826</ele>
        <time>2017-12-15T21:04:49Z</time>
      </trkpt>
      <trkpt lat="44.91304" lon="5.81822">
        <ele>825</ele>
        <time>2017-12-15T21:05:00Z</time>
      </trkpt>
      <trkpt lat="44.91312" lon="5.81837">
        <ele>819</ele>
        <time>2017-12-15T21:05:13Z</time>
      </trkpt>
      <trkpt lat="44.91327" lon="5.8185">
        <ele>819</ele>
        <time>2017-12-15T21:05:32Z</time>
      </trkpt>
      <trkpt lat="44.91338" lon="5.81854">
        <ele>821</ele>
        <time>2017-12-15T21:05:36Z</time>
      </trkpt>
      <trkpt lat="44.91381" lon="5.81859">
        <ele>821</ele>
        <time>2017-12-15T21:05:47Z</time>
      </trkpt>
      <trkpt lat="44.91418" lon="5.81868">
        <ele>826</ele>
        <time>2017-12-15T21:05:52Z</time>
      </trkpt>
      <trkpt lat="44.91442" lon="5.81879">
        <ele>826</ele>
        <time>2017-12-15T21:06:08Z</time>
      </trkpt>
      <trkpt lat="44.91454" lon="5.81887">
        <ele>826</ele>
        <time>2017-12-15T21:06:14Z</time>
      </trkpt>
      <trkpt lat="44.91462" lon="5.81896">
        <ele>826</ele>
        <time>2017-12-15T21:06:27Z</time>
      </trkpt>
      <trkpt lat="44.91479" lon="5.81921">
        <ele>820</ele>
        <time>2017-12-15T21:06:41Z</time>
      </trkpt>
      <trkpt lat="44.91496" lon="5.81947">
        <ele>818</ele>
        <time>2017-12-15T21:06:53Z</time>
      </trkpt>
      <trkpt lat="44.91505" lon="5.81961">
        <ele>826</ele>
        <time>2017-12-15T21:07:11Z</time>
      </trkpt>
      <trkpt lat="44.91517" lon="5.81984">
        <ele>823</ele>
        <time>2017-12-15T21:07:30Z</time>
      </trkpt>
      <trkpt lat="44.91532" lon="5.82023">
        <ele>818</ele>
        <time>2017-12-15T21:07:49Z</time>
      </trkpt>
      <trkpt lat="44.9155" lon="5.82076">
        <ele>818</ele>
        <time>2017-12-15T21:08:01Z</time>
      </trkpt>
      <trkpt lat="44.91566" lon="5.82123">
        <ele>812</ele>
        <time>2017-12-15T21:08:09Z</time>
      </trkpt>
      <trkpt lat="44.91568" lon="5.82153">
        <ele>812</ele>
        <time>2017-12-15T21:08:25Z</time>
      </trkpt>
      <trkpt lat="44.91571" lon="5.82185">
        <ele>807</ele>
        <time>2017-12-15T21:08:29Z</time>
      </trkpt>
      <trkpt lat="44.91582" lon="5.82221">
        <ele>804</ele>
        <time>2017-12-15T21:08:44Z</time>
      </trkpt>
      <trkpt lat="44.91611" lon="5.82298">
        <ele>814</ele>
        <time>2017-12-15T21:09:04Z</time>
      </trkpt>
      <trkpt lat="44.91624" lon="5.82326">
        <ele>815</ele>
        <time>2017-12-15T21:09:15Z</time>
      </trkpt>
      <trkpt lat="44.91625" lon="5.82333">
        <ele>815</ele>
        <time>2017-12-15T21:09:17Z</time>
      </trkpt>
      <trkpt lat="44.91625" lon="5.82337">
        <ele>810</ele>
        <time>2017-12-15T21:09:31Z</time>
      </trkpt>
      <trkpt lat="44.91618" lon="5.82346">
        <ele>809</ele>
        <time>2017-12-15T21:09:33Z</time>
      </trkpt>
      <trkpt lat="44.91615" lon="5.82347">
        <ele>808</ele>
        <time>2017-12-15T21:09:50Z</time>
      </trkpt>
      <trkpt lat="44.91609" lon="5.82346">
        <ele>807</ele>
        <time>2017-12-15T21:10:00Z</time>
      </trkpt>
      <trkpt lat="44.91601" lon="5.82335">
        <ele>806</ele>
        <time>2017-12-15T21:10:14Z</time>
      </trkpt>
      <trkpt lat="44.91572" lon="5.82271">
        <ele>799</ele>
        <time>2017-12-15T21:10:33Z</time>
      </trkpt>
      <trkpt lat="44.91545" lon="5.82213">
        <ele>801</ele>
        <time>2017-12-15T21:10:52Z</time>
      </trkpt>
      <trkpt lat="44.91522" lon="5.82169">
        <ele>799</ele>
        <time>2017-12-15T21:11:12Z</time>
      </trkpt>
      <trkpt lat="44.9147" lon="5.82083">
        <ele>798</ele>
        <time>2017-12-15T21:11:23Z</time>
      </trkpt>
      <trkpt lat="44.91453" lon="5.82056">
        <ele>798</ele>
        <time>2017-12-15T21:11:38Z</time>
      </trkpt>
      <trkpt lat="44.91438" lon="5.82035">
        <ele>798</ele>
        <time>2017-12-15T21:11:49Z</time>
      </trkpt>
      <trkpt lat="44.91425" lon="5.82021">
        <ele>798</ele>
        <time>2017-12-15T21:11:55Z</time>
      </trkpt>
      <trkpt lat="44.91406" lon="5.82008">
        <ele>792</ele>
        <time>2017-12-15T21:12:15Z</time>
      </trkpt>
      <trkpt lat="44.91381" lon="5.81993">
        <ele>798</ele>
        <time>2017-12-15T21:12:17Z</time>
      </trkpt>
      <trkpt lat="44.91355" lon="5.81971">
        <ele>798</ele>
        <time>2017-12-15T21:12:28Z</time>
      </trkpt>
      <trkpt lat="44.91344" lon="5.81963">
        <ele>798</ele>
        <time>2017-12-15T21:12:47Z</time>
      </trkpt>
      <trkpt lat="44.91339" lon="5.81963">
        <ele>798</ele>
        <time>2017-12-15T21:13:06Z</time>
      </trkpt>
      <trkpt lat="44.91335" lon="5.81966">
        <ele>797</ele>
        <time>2017-12-15T21:13:08Z</time>
      </trkpt>
      <trkpt lat="44.91332" lon="5.81972">
        <ele>791</ele>
        <time>2017-12-15T21:13:18Z</time>
      </trkpt>
      <trkpt lat="44.91331" lon="5.81977">
        <ele>790</ele>
        <time>2017-12-15T21:13:22Z</time>
      </trkpt>
      <trkpt lat="44.91333" lon="5.81989">
        <ele>788</ele>
        <time>2017-12-15T21:13:30Z</time>
      </trkpt>
      <trkpt lat="44.91383" lon="5.82064">
        <ele>785</ele>
        <time>2017-12-15T21:13:35Z</time>
      </trkpt>
      <trkpt lat="44.91395" lon="5.82087">
        <ele>780</ele>
        <time>2017-12-15T21:13:52Z</time>
      </trkpt>
      <trkpt lat="44.91406" lon="5.82117">
        <ele>779</ele>
        <time>2017-12-15T21:13:54Z</time>
      </trkpt>
      <trkpt lat="44.91425" lon="5.82173">
        <ele>781</ele>
        <time>2017-12-15T21:14:13Z</time>
      </trkpt>
      <trkpt lat="44.91463" lon="5.82334">
        <ele>773</ele>
        <time>2017-12-15T21:14:29Z</time>
      </trkpt>
      <trkpt lat="44.91473" lon="5.82391">
        <ele>771</ele>
        <time>2017-12-15T21:14:32Z</time>
      </trkpt>
      <trkpt lat="44.91472" lon="5.82436">
        <ele>768</ele>
        <time>2017-12-15T21:14:42Z</time>
      </trkpt>
      <trkpt lat="44.9144" lon="5.82596">
        <ele>759</ele>
        <time>2017-12-15T21:15:02Z</time>
      </trkpt>
      <trkpt lat="44.91436" lon="5.82647">
        <ele>757</ele>
        <time>2017-12-15T21:15:06Z</time>
      </trkpt>
      <trkpt lat="44.91439" lon="5.82687">
        <ele>755</ele>
        <time>2017-12-15T21:15:19Z</time>
      </trkpt>
      <trkpt lat="44.91445" lon="5.82711">
        <ele>755</ele>
        <time>2017-12-15T21:15:37Z</time>
      </trkpt>
      <trkpt lat="44.91458" lon="5.8274">
        <ele>756</ele>
        <time>2017-12-15T21:15:54Z</time>
      </trkpt>
      <trkpt lat="44.91464" lon="5.82757">
        <ele>752</ele>
        <time>2017-12-15T21:16:01Z</time>
      </trkpt>
      <trkpt lat="44.91468" lon="5.82777">
        <ele>751</ele>
        <time>2017-12-15T21:16:03Z</time>
      </trkpt>
      <trkpt lat="44.91467" lon="5.82807">
        <ele>750</ele>
        <time>2017-12-15T21:16:16Z</time>
      </trkpt>
      <trkpt lat="44.9146" lon="5.82833">
        <ele>748</ele>
        <time>2017-12-15T21:16:31Z</time>
      </trkpt>
      <trkpt lat="44.91447" lon="5.82861">
        <ele>736</ele>
        <time>2017-12-15T21:16:36Z</time>
      </trkpt>
      <trkpt lat="44.9144" lon="5.82874">
        <ele>734</ele>
        <time>2017-12-15T21:16:50Z</time>
      </trkpt>
      <trkpt lat="44.91412" lon="5.82918">
        <ele>717</ele>
        <time>2017-12-15T21:17:07Z</time>
      </trkpt>
      <trkpt lat="44.91391" lon="5.8295">
        <ele>717</ele>
        <time>2017-12-15T21:17:18Z</time>
      </trkpt>
      <trkpt lat="44.91366" lon="5.82982">
        <ele>720</ele>
        <time>2017-12-15T21:17:28Z</time>
      </trkpt>
      <trkpt lat="44.91347" lon="5.82996">
        <ele>728</ele>
        <time>2017-12-15T21:17:48Z</time>
      </trkpt>
      <trkpt lat="44.91323" lon="5.83003">
        <ele>737</ele>
        <time>2017-12-15T21:17:50Z</time>
      </trkpt>
      <trkpt lat="44.91297" lon="5.83004">
        <ele>737</ele>
        <time>2017-12-15T21:17:53Z</time>
      </trkpt>
      <trkpt lat="44.91272" lon="5.83002">
        <ele>740</ele>
        <time>2017-12-15T21:18:12Z</time>
      </trkpt>
      <trkpt lat="44.91255" lon="5.83003">
        <ele>743</ele>
        <time>2017-12-15T21:18:16Z</time>
      </trkpt>
      <trkpt lat="44.91214" lon="5.83014">
        <ele>744</ele>
        <time>2017-12-15T21:18:18Z</time>
      </trkpt>
      <trkpt lat="44.91177" lon="5.83029">
        <ele>745</ele>
        <time>2017-12-15T21:18:25Z</time>
      </trkpt>
      <trkpt lat="44.91157" lon="5.83037">
        <ele>750</ele>
        <time>2017-12-15T21:18:28Z</time>
      </trkpt>
      <trkpt lat="44.91087" lon="5.83056">
        <ele>756</ele>
        <time>2017-12-15T21:18:42Z</time>
      </trkpt>
      <trkpt lat="44.91049" lon="5.83066">
        <ele>760</ele>
        <time>2017-12-15T21:18:48Z</time>
      </trkpt>
      <trkpt lat="44.9103" lon="5.83066">
        <ele>761</ele>
        <time>2017-12-15T21:18:51Z</time>
      </trkpt>
      <trkpt lat="44.91018" lon="5.83063">
        <ele>762</ele>
        <time>2017-12-15T21:19:00Z</time>
      </trkpt>
      <trkpt lat="44.90993" lon="5.8305">
        <ele>766</ele>
        <time>2017-12-15T21:19:06Z</time>
      </trkpt>
      <trkpt lat="44.90907" lon="5.83001">
        <ele>773</ele>
        <time>2017-12-15T21:19:13Z</time>
      </trkpt>
      <trkpt lat="44.90851" lon="5.82964">
        <ele>776</ele>
        <time>2017-12-15T21:19:23Z</time>
      </trkpt>
      <trkpt lat="44.90839" lon="5.82954">
        <ele>776</ele>
        <time>2017-12-15T21:19:40Z</time>
      </trkpt>
      <trkpt lat="44.90829" lon="5.82938">
        <ele>783</ele>
        <time>2017-12-15T21:19:51Z</time>
      </trkpt>
      <trkpt lat="44.90818" lon="5.82918">
        <ele>781</ele>
        <time>2017-12-15T21:20:10Z</time>
      </trkpt>
      <trkpt lat="44.90814" lon="5.82904">
        <ele>779</ele>
        <time>2017-12-15T21:20:21Z</time>
      </trkpt>
      <trkpt lat="44.90803" lon="5.82852">
        <ele>778</ele>
        <time>2017-12-15T21:20:34Z</time>
      </trkpt>
      <trkpt lat="44.90789" lon="5.82809">
        <ele>775</ele>
        <time>2017-12-15T21:20:49Z</time>
      </trkpt>
      <trkpt lat="44.90782" lon="5.82796">
        <ele>775</ele>
        <time>2017-12-15T21:21:05Z</time>
      </trkpt>
      <trkpt lat="44.90761" lon="5.8278">
        <ele>777</ele>
        <time>2017-12-15T21:21:14Z</time>
      </trkpt>
      <trkpt lat="44.90744" lon="5.82773">
        <ele>784</ele>
        <time>2017-12-15T21:21:21Z</time>
      </trkpt>
      <trkpt lat="44.90727" lon="5.82775">
        <ele>784</ele>
        <time>2017-12-15T21:21:36Z</time>
      </trkpt>
      <trkpt lat="44.90707" lon="5.82788">
        <ele>785</ele>
        <time>2017-12-15T21:21:42Z</time>
      </trkpt>
      <trkpt lat="44.9069" lon="5.82806">
        <ele>785</ele>
        <time>2017-12-15T21:21:59Z</time>
      </trkpt>
      <trkpt lat="44.90672" lon="5.82838">
        <ele>785</ele>
        <time>2017-12-15T21:22:14Z</time>
      </trkpt>
      <trkpt lat="44.90628" lon="5.82924">
        <ele>781</ele>
        <time>2017-12-15T21:22:25Z</time>
      </trkpt>
      <trkpt lat="44.90613" lon="5.82948">
        <ele>780</ele>
        <time>2017-12-15T21:22:43Z</time>
      </trkpt>
      <trkpt lat="44.90573" lon="5.82999">
        <ele>776</ele>
        <time>2017-12-15T21:22:50Z</time>
      </trkpt>
      <trkpt lat="44.90512" lon="5.83081">
        <ele>768</ele>
        <time>2017-12-15T21:23:01Z</time>
      </trkpt>
      <trkpt lat="44.90494" lon="5.83102">
        <ele>763</ele>
        <time>2017-12-15T21:23:16Z</time>
      </trkpt>
      <trkpt lat="44.90474" lon="5.83117">
        <ele>762</ele>
        <time>2017-12-15T21:23:23Z</time>
      </trkpt>
      <trkpt lat="44.90439" lon="5.83148">
        <ele>760</ele>
        <time>2017-12-15T21:23:29Z</time>
      </trkpt>
      <trkpt lat="44.90424" lon="5.83171">
        <ele>762</ele>
        <time>2017-12-15T21:23:31Z</time>
      </trkpt>
      <trkpt lat="44.90412" lon="5.83203">
        <ele>753</ele>
        <time>2017-12-15T21:23:49Z</time>
      </trkpt>
      <trkpt lat="44.90404" lon="5.83237">
        <ele>755</ele>
        <time>2017-12-15T21:24:00Z</time>
      </trkpt>
      <trkpt lat="44.90392" lon="5.83301">
        <ele>752</ele>
        <time>2017-12-15T21:24:09Z</time>
      </trkpt>
      <trkpt lat="44.90382" lon="5.8333">
        <ele>751</ele>
        <time>2017-12-15T21:24:25Z</time>
      </trkpt>
      <trkpt lat="44.90359" lon="5.83364">
        <ele>751</ele>
        <time>2017-12-15T21:24:27Z</time>
      </trkpt>
      <trkpt lat="44.90332" lon="5.83396">
        <ele>740</ele>
        <time>2017-12-15T21:24:44Z</time>
      </trkpt>
      <trkpt lat="44.90313" lon="5.83423">
        <ele>744</ele>
        <time>2017-12-15T21:24:52Z</time>
      </trkpt>
      <trkpt lat="44.90305" lon="5.83445">
        <ele>742</ele>
        <time>2017-12-15T21:25:11Z</time>
      </trkpt>
      <trkpt lat="44.90303" lon="5.83468">
        <ele>743</ele>
        <time>2017-12-15T21:25:14Z</time>
      </trkpt>
      <trkpt lat="44.90314" lon="5.8357">
        <ele>748</ele>
        <time>2017-12-15T21:25:32Z</time>
      </trkpt>
      <trkpt lat="44.90314" lon="5.83614">
        <ele>747</ele>
        <time>2017-12-15T21:25:43Z</time>
      </trkpt>
      <trkpt lat="44.90311" lon="5.83635">
        <ele>747</ele>
        <time>2017-12-15T21:25:59Z</time>
      </trkpt>
      <trkpt lat="44.9028" lon="5.83753">
        <ele>745</ele>
        <time>2017-12-15T21:26:17Z</time>
      </trkpt>
      <trkpt lat="44.90207" lon="5.83983">
        <ele>737</ele>
        <time>2017-12-15T21:26:24Z</time>
      </trkpt>
      <trkpt lat="44.90213" lon="5.83985">
        <ele>738</ele>
        <time>2017-12-15T21:26:27Z</time>
      </trkpt>
      <trkpt lat="44.90207" lon="5.83983">
        <ele>737</ele>
        <time>2017-12-15T21:26:47Z</time>
      </trkpt>
      <trkpt lat="44.90192" lon="5.84032">
        <ele>739</ele>
        <time>2017-12-15T21:27:04Z</time>
      </trkpt>
      <trkpt lat="44.90165" lon="5.84129">
        <ele>730</ele>
        <time>2017-12-15T21:27:18Z</time>
      </trkpt>
      <trkpt lat="44.90163" lon="5.84156">
        <ele>731</ele>
        <time>2017-12-15T21:27:36Z</time>
      </trkpt>
      <trkpt lat="44.90169" lon="5.84192">
        <ele>736</ele>
        <time>2017-12-15T21:27:54Z</time>
      </trkpt>
      <trkpt lat="44.90201" lon="5.84307">
        <ele>734</ele>
        <time>2017-12-15T21:28:11Z</time>
      </trkpt>
      <trkpt lat="44.90211" lon="5.84336">
        <ele>734</ele>
        <time>2017-12-15T21:28:13Z</time>
      </trkpt>
      <trkpt lat="44.9022" lon="5.8438">
        <ele>734</ele>
        <time>2017-12-15T21:28:26Z</time>
      </trkpt>
      <trkpt lat="44.90225" lon="5.84438">
        <ele>734</ele>
        <time>2017-12-15T21:28:42Z</time>
      </trkpt>
      <trkpt lat="44.90222" lon="5.84469">
        <ele>734</ele>
        <time>2017-12-15T21:28:54Z</time>
      </trkpt>
      <trkpt lat="44.90211" lon="5.845">
        <ele>733</ele>
        <time>2017-12-15T21:28:57Z</time>
      </trkpt>
      <trkpt lat="44.90195" lon="5.84522">
        <ele>735</ele>
        <time>2017-12-15T21:29:16Z</time>
      </trkpt>
      <trkpt lat="44.90171" lon="5.84539">
        <ele>735</ele>
        <time>2017-12-15T21:29:23Z</time>
      </trkpt>
      <trkpt lat="44.90115" lon="5.84563">
        <ele>723</ele>
        <time>2017-12-15T21:29:42Z</time>
      </trkpt>
      <trkpt lat="44.901" lon="5.84574">
        <ele>722</ele>
        <time>2017-12-15T21:29:53Z</time>
      </trkpt>
      <trkpt lat="44.90086" lon="5.84595">
        <ele>728</ele>
        <time>2017-12-15T21:30:08Z</time>
      </trkpt>
      <trkpt lat="44.9006" lon="5.84637">
        <ele>726</ele>
        <time>2017-12-15T21:30:11Z</time>
      </trkpt>
      <trkpt lat="44.90044" lon="5.84655">
        <ele>726</ele>
        <time>2017-12-15T21:30:28Z</time>
      </trkpt>
      <trkpt lat="44.90026" lon="5.84666">
        <ele>724</ele>
        <time>2017-12-15T21:30:38Z</time>
      </trkpt>
      <trkpt lat="44.9" lon="5.84672">
        <ele>722</ele>
        <time>2017-12-15T21:30:46Z</time>
      </trkpt>
      <trkpt lat="44.89982" lon="5.84672">
        <ele>723</ele>
        <time>2017-12-15T21:31:00Z</time>
      </trkpt>
      <trkpt lat="44.89934" lon="5.84661">
        <ele>720</ele>
        <time>2017-12-15T21:31:15Z</time>
      </trkpt>
      <trkpt lat="44.89912" lon="5.84661">
        <ele>720</ele>
        <time>2017-12-15T21:31:30Z</time>
      </trkpt>
      <trkpt lat="44.89892" lon="5.84669">
        <ele>719</ele>
        <time>2017-12-15T21:31:44Z</time>
      </trkpt>
      <trkpt lat="44.89876" lon="5.84681">
        <ele>718</ele>
        <time>2017-12-15T21:31:55Z</time>
      </trkpt>
      <trkpt lat="44.89864" lon="5.84694">
        <ele>718</ele>
        <time>2017-12-15T21:32:12Z</time>
      </trkpt>
      <trkpt lat="44.89854" lon="5.8471">
        <ele>718</ele>
        <time>2017-12-15T21:32:22Z</time>
      </trkpt>
      <trkpt lat="44.89842" lon="5.84739">
        <ele>717</ele>
        <time>2017-12-15T21:32:28Z</time>
      </trkpt>
      <trkpt lat="44.89774" lon="5.84944">
        <ele>715</ele>
        <time>2017-12-15T21:32:35Z</time>
      </trkpt>
      <trkpt lat="44.89759" lon="5.84975">
        <ele>715</ele>
        <time>2017-12-15T21:32:48Z</time>
      </trkpt>
      <trkpt lat="44.89746" lon="5.84993">
        <ele>712</ele>
        <time>2017-12-15T21:32:57Z</time>
      </trkpt>
      <trkpt lat="44.89705" lon="5.85029">
        <ele>711</ele>
        <time>2017-12-15T21:33:06Z</time>
      </trkpt>
      <trkpt lat="44.8969" lon="5.85049">
        <ele>710</ele>
        <time>2017-12-15T21:33:17Z</time>
      </trkpt>
      <trkpt lat="44.89682" lon="5.85066">
        <ele>710</ele>
        <time>2017-12-15T21:33:33Z</time>
      </trkpt>
      <trkpt lat="44.8967" lon="5.85097">
        <ele>712</ele>
        <time>2017-12-15T21:33:35Z</time>
      </trkpt>
      <trkpt lat="44.89631" lon="5.85222">
        <ele>703</ele>
        <time>2017-12-15T21:33:52Z</time>
      </trkpt>
      <trkpt lat="44.89625" lon="5.85249">
        <ele>703</ele>
        <time>2017-12-15T21:33:56Z</time>
      </trkpt>
      <trkpt lat="44.89614" lon="5.85398">
        <ele>697</ele>
        <time>2017-12-15T21:34:09Z</time>
      </trkpt>
      <trkpt lat="44.89617" lon="5.85424">
        <ele>696</ele>
        <time>2017-12-15T21:34:11Z</time>
      </trkpt>
      <trkpt lat="44.89628" lon="5.85471">
        <ele>698</ele>
        <time>2017-12-15T21:34:19Z</time>
      </trkpt>
      <trkpt lat="44.89632" lon="5.85499">
        <ele>698</ele>
        <time>2017-12-15T21:34:28Z</time>
      </trkpt>
      <trkpt lat="44.89633" lon="5.85526">
        <ele>697</ele>
        <time>2017-12-15T21:34:40Z</time>
      </trkpt>
      <trkpt lat="44.89627" lon="5.85598">
        <ele>694</ele>
        <time>2017-12-15T21:34:44Z</time>
      </trkpt>
      <trkpt lat="44.89627" lon="5.85639">
        <ele>693</ele>
        <time>2017-12-15T21:34:54Z</time>
      </trkpt>
      <trkpt lat="44.89629" lon="5.85653">
        <ele>693</ele>
        <time>2017-12-15T21:35:13Z</time>
      </trkpt>
      <trkpt lat="44.89637" lon="5.85679">
        <ele>689</ele>
        <time>2017-12-15T21:35:25Z</time>
      </trkpt>
      <trkpt lat="44.89642" lon="5.85689">
        <ele>689</ele>
        <time>2017-12-15T21:35:30Z</time>
      </trkpt>
      <trkpt lat="44.89657" lon="5.85706">
        <ele>688</ele>
        <time>2017-12-15T21:35:36Z</time>
      </trkpt>
      <trkpt lat="44.89693" lon="5.85728">
        <ele>705</ele>
        <time>2017-12-15T21:35:46Z</time>
      </trkpt>
      <trkpt lat="44.8972" lon="5.85749">
        <ele>709</ele>
        <time>2017-12-15T21:36:02Z</time>
      </trkpt>
      <trkpt lat="44.89743" lon="5.85778">
        <ele>697</ele>
        <time>2017-12-15T21:36:22Z</time>
      </trkpt>
      <trkpt lat="44.89757" lon="5.85801">
        <ele>715</ele>
        <time>2017-12-15T21:36:30Z</time>
      </trkpt>
      <trkpt lat="44.89767" lon="5.85823">
        <ele>710</ele>
        <time>2017-12-15T21:36:34Z</time>
      </trkpt>
      <trkpt lat="44.89823" lon="5.8598">
        <ele>691</ele>
        <time>2017-12-15T21:36:49Z</time>
      </trkpt>
      <trkpt lat="44.89852" lon="5.8606">
        <ele>699</ele>
        <time>2017-12-15T21:36:51Z</time>
      </trkpt>
      <trkpt lat="44.89862" lon="5.86081">
        <ele>699</ele>
        <time>2017-12-15T21:36:56Z</time>
      </trkpt>
      <trkpt lat="44.89898" lon="5.86136">
        <ele>692</ele>
        <time>2017-12-15T21:37:02Z</time>
      </trkpt>
      <trkpt lat="44.89911" lon="5.86164">
        <ele>693</ele>
        <time>2017-12-15T21:37:08Z</time>
      </trkpt>
      <trkpt lat="44.89937" lon="5.86228">
        <ele>704</ele>
        <time>2017-12-15T21:37:24Z</time>
      </trkpt>
      <trkpt lat="44.89945" lon="5.8626">
        <ele>699</ele>
        <time>2017-12-15T21:37:26Z</time>
      </trkpt>
      <trkpt lat="44.89957" lon="5.8635">
        <ele>703</ele>
        <time>2017-12-15T21:37:29Z</time>
      </trkpt>
      <trkpt lat="44.89956" lon="5.86375">
        <ele>703</ele>
        <time>2017-12-15T21:37:37Z</time>
      </trkpt>
      <trkpt lat="44.89952" lon="5.86397">
        <ele>702</ele>
        <time>2017-12-15T21:37:51Z</time>
      </trkpt>
      <trkpt lat="44.89934" lon="5.86442">
        <ele>708</ele>
        <time>2017-12-15T21:37:54Z</time>
      </trkpt>
      <trkpt lat="44.89922" lon="5.86462">
        <ele>711</ele>
        <time>2017-12-15T21:38:03Z</time>
      </trkpt>
      <trkpt lat="44.89911" lon="5.86475">
        <ele>692</ele>
        <time>2017-12-15T21:38:10Z</time>
      </trkpt>
      <trkpt lat="44.89853" lon="5.86513">
        <ele>693</ele>
        <time>2017-12-15T21:38:28Z</time>
      </trkpt>
      <trkpt lat="44.89838" lon="5.86525">
        <ele>694</ele>
        <time>2017-12-15T21:38:32Z</time>
      </trkpt>
      <trkpt lat="44.89826" lon="5.86538">
        <ele>684</ele>
        <time>2017-12-15T21:38:37Z</time>
      </trkpt>
      <trkpt lat="44.89789" lon="5.86595">
        <ele>693</ele>
        <time>2017-12-15T21:38:45Z</time>
      </trkpt>
      <trkpt lat="44.89759" lon="5.86637">
        <ele>693</ele>
        <time>2017-12-15T21:39:05Z</time>
      </trkpt>
      <trkpt lat="44.89701" lon="5.86706">
        <ele>691</ele>
        <time>2017-12-15T21:39:23Z</time>
      </trkpt>
      <trkpt lat="44.89666" lon="5.86744">
        <ele>685</ele>
        <time>2017-12-15T21:39:42Z</time>
      </trkpt>
      <trkpt lat="44.89653" lon="5.86763">
        <ele>687</ele>
        <time>2017-12-15T21:39:52Z</time>
      </trkpt>
      <trkpt lat="44.89622" lon="5.86805">
        <ele>689</ele>
        <time>2017-12-15T21:40:11Z</time>
      </trkpt>
      <trkpt lat="44.89605" lon="5.86824">
        <ele>687</ele>
        <time>2017-12-15T21:40:26Z</time>
      </trkpt>
      <trkpt lat="44.89572" lon="5.86853">
        <ele>686</ele>
        <time>2017-12-15T21:40:32Z</time>
      </trkpt>
      <trkpt lat="44.89561" lon="5.86863">
        <ele>687</ele>
        <time>2017-12-15T21:40:44Z</time>
      </trkpt>
      <trkpt lat="44.89539" lon="5.86876">
        <ele>687</ele>
        <time>2017-12-15T21:40:49Z</time>
      </trkpt>
      <trkpt lat="44.89479" lon="5.86909">
        <ele>684</ele>
        <time>2017-12-15T21:40:51Z</time>
      </trkpt>
      <trkpt lat="44.89468" lon="5.86919">
        <ele>685</ele>
        <time>2017-12-15T21:40:54Z</time>
      </trkpt>
      <trkpt lat="44.89447" lon="5.86951">
        <ele>686</ele>
        <time>2017-12-15T21:41:14Z</time>
      </trkpt>
      <trkpt lat="44.89425" lon="5.86997">
        <ele>682</ele>
        <time>2017-12-15T21:41:31Z</time>
      </trkpt>
      <trkpt lat="44.8941" lon="5.87016">
        <ele>683</ele>
        <time>2017-12-15T21:41:46Z</time>
      </trkpt>
      <trkpt lat="44.89383" lon="5.87046">
        <ele>686</ele>
        <time>2017-12-15T21:41:52Z</time>
      </trkpt>
      <trkpt lat="44.89357" lon="5.8707">
        <ele>684</ele>
        <time>2017-12-15T21:41:54Z</time>
      </trkpt>
      <trkpt lat="44.8934" lon="5.87087">
        <ele>683</ele>
        <time>2017-12-15T21:42:07Z</time>
      </trkpt>
      <trkpt lat="44.89334" lon="5.87096">
        <ele>685</ele>
        <time>2017-12-15T21:42:15Z</time>
      </trkpt>
      <trkpt lat="44.89325" lon="5.87116">
        <ele>689</ele>
        <time>2017-12-15T21:42:28Z</time>
      </trkpt>
      <trkpt lat="44.89294" lon="5.87213">
        <ele>696</ele>
        <time>2017-12-15T21:42:31Z</time>
      </trkpt>
      <trkpt lat="44.89254" lon="5.87334">
        <ele>693</ele>
        <time>2017-12-15T21:42:37Z</time>
      </trkpt>
      <trkpt lat="44.89243" lon="5.87356">
        <ele>693</ele>
        <time>2017-12-15T21:42:52Z</time>
      </trkpt>
      <trkpt lat="44.89212" lon="5.87397">
        <ele>696</ele>
        <time>2017-12-15T21:43:00Z</time>
      </trkpt>
      <trkpt lat="44.89175" lon="5.87438">
        <ele>699</ele>
        <time>2017-12-15T21:43:17Z</time>
      </trkpt>
      <trkpt lat="44.89158" lon="5.8746">
        <ele>697</ele>
        <time>2017-12-15T21:43:21Z</time>
      </trkpt>
      <trkpt lat="44.8915" lon="5.87477">
        <ele>697</ele>
        <time>2017-12-15T21:43:28Z</time>
      </trkpt>
      <trkpt lat="44.89143" lon="5.87501">
        <ele>698</ele>
        <time>2017-12-15T21:43:42Z</time>
      </trkpt>
      <trkpt lat="44.89141" lon="5.87527">
        <ele>699</ele>
        <time>2017-12-15T21:43:46Z</time>
      </trkpt>
      <trkpt lat="44.8915" lon="5.87666">
        <ele>700</ele>
        <time>2017-12-15T21:43:48Z</time>
      </trkpt>
      <trkpt lat="44.89154" lon="5.87702">
        <ele>700</ele>
        <time>2017-12-15T21:44:00Z</time>
      </trkpt>
      <trkpt lat="44.89161" lon="5.87735">
        <ele>699</ele>
        <time>2017-12-15T21:44:12Z</time>
      </trkpt>
      <trkpt lat="44.89175" lon="5.87788">
        <ele>712</ele>
        <time>2017-12-15T21:44:29Z</time>
      </trkpt>
      <trkpt lat="44.89182" lon="5.87821">
        <ele>710</ele>
        <time>2017-12-15T21:44:43Z</time>
      </trkpt>
      <trkpt lat="44.89185" lon="5.87858">
        <ele>712</ele>
        <time>2017-12-15T21:44:52Z</time>
      </trkpt>
      <trkpt lat="44.8919" lon="5.88015">
        <ele>709</ele>
        <time>2017-12-15T21:44:55Z</time>
      </trkpt>
      <trkpt lat="44.89188" lon="5.88051">
        <ele>710</ele>
        <time>2017-12-15T21:44:59Z</time>
      </trkpt>
      <trkpt lat="44.89181" lon="5.88117">
        <ele>707</ele>
        <time>2017-12-15T21:45:01Z</time>
      </trkpt>
      <trkpt lat="44.89177" lon="5.88172">
        <ele>701</ele>
        <time>2017-12-15T21:45:17Z</time>
      </trkpt>
      <trkpt lat="44.89178" lon="5.88194">
        <ele>704</ele>
        <time>2017-12-15T21:45:19Z</time>
      </trkpt>
      <trkpt lat="44.89182" lon="5.88217">
        <ele>705</ele>
        <time>2017-12-15T21:45:33Z</time>
      </trkpt>
      <trkpt lat="44.89189" lon="5.88238">
        <ele>704</ele>
        <time>2017-12-15T21:45:47Z</time>
      </trkpt>
      <trkpt lat="44.89198" lon="5.88255">
        <ele>704</ele>
        <time>2017-12-15T21:46:06Z</time>
      </trkpt>
      <trkpt lat="44.8923" lon="5.88301">
        <ele>708</ele>
        <time>2017-12-15T21:46:10Z</time>
      </trkpt>
      <trkpt lat="44.89249" lon="5.88324">
        <ele>712</ele>
        <time>2017-12-15T21:46:13Z</time>
      </trkpt>
      <trkpt lat="44.89261" lon="5.88345">
        <ele>722</ele>
        <time>2017-12-15T21:46:18Z</time>
      </trkpt>
      <trkpt lat="44.8927" lon="5.88367">
        <ele>725</ele>
        <time>2017-12-15T21:46:34Z</time>
      </trkpt>
      <trkpt lat="44.89279" lon="5.88401">
        <ele>724</ele>
        <time>2017-12-15T21:46:54Z</time>
      </trkpt>
      <trkpt lat="44.89296" lon="5.88474">
        <ele>722</ele>
        <time>2017-12-15T21:47:13Z</time>
      </trkpt>
      <trkpt lat="44.89303" lon="5.88499">
        <ele>723</ele>
        <time>2017-12-15T21:47:29Z</time>
      </trkpt>
      <trkpt lat="44.89338" lon="5.88592">
        <ele>729</ele>
        <time>2017-12-15T21:47:31Z</time>
      </trkpt>
      <trkpt lat="44.89368" lon="5.88669">
        <ele>731</ele>
        <time>2017-12-15T21:47:48Z</time>
      </trkpt>
      <trkpt lat="44.89394" lon="5.88728">
        <ele>733</ele>
        <time>2017-12-15T21:47:52Z</time>
      </trkpt>
      <trkpt lat="44.89494" lon="5.88958">
        <ele>742</ele>
        <time>2017-12-15T21:47:56Z</time>
      </trkpt>
      <trkpt lat="44.89562" lon="5.89126">
        <ele>750</ele>
        <time>2017-12-15T21:48:07Z</time>
      </trkpt>
      <trkpt lat="44.89608" lon="5.89241">
        <ele>762</ele>
        <time>2017-12-15T21:48:24Z</time>
      </trkpt>
      <trkpt lat="44.89619" lon="5.89277">
        <ele>763</ele>
        <time>2017-12-15T21:48:42Z</time>
      </trkpt>
      <trkpt lat="44.89655" lon="5.89409">
        <ele>770</ele>
        <time>2017-12-15T21:48:46Z</time>
      </trkpt>
      <trkpt lat="44.89664" lon="5.89448">
        <ele>771</ele>
        <time>2017-12-15T21:48:49Z</time>
      </trkpt>
      <trkpt lat="44.89672" lon="5.89476">
        <ele>779</ele>
        <time>2017-12-15T21:49:00Z</time>
      </trkpt>
      <trkpt lat="44.89686" lon="5.89505">
        <ele>778</ele>
        <time>2017-12-15T21:49:13Z</time>
      </trkpt>
      <trkpt lat="44.89718" lon="5.89549">
        <ele>780</ele>
        <time>2017-12-15T21:49:29Z</time>
      </trkpt>
      <trkpt lat="44.89771" lon="5.89618">
        <ele>785</ele>
        <time>2017-12-15T21:49:32Z</time>
      </trkpt>
      <trkpt lat="44.89788" lon="5.89646">
        <ele>785</ele>
        <time>2017-12-15T21:49:47Z</time>
      </trkpt>
      <trkpt lat="44.89807" lon="5.89687">
        <ele>784</ele>
        <time>2017-12-15T21:50:00Z</time>
      </trkpt>
      <trkpt lat="44.8984" lon="5.89773">
        <ele>788</ele>
        <time>2017-12-15T21:50:03Z</time>
      </trkpt>
      <trkpt lat="44.89858" lon="5.89825">
        <ele>788</ele>
        <time>2017-12-15T21:50:17Z</time>
      </trkpt>
      <trkpt lat="44.89876" lon="5.89883">
        <ele>788</ele>
        <time>2017-12-15T21:50:35Z</time>
      </trkpt>
      <trkpt lat="44.8988" lon="5.89898">
        <ele>788</ele>
        <time>2017-12-15T21:50:52Z</time>
      </trkpt>
      <trkpt lat="44.89887" lon="5.89922">
        <ele>787</ele>
        <time>2017-12-15T21:50:54Z</time>
      </trkpt>
      <trkpt lat="44.89897" lon="5.89944">
        <ele>787</ele>
        <time>2017-12-15T21:51:02Z</time>
      </trkpt>
      <trkpt lat="44.89925" lon="5.90022">
        <ele>795</ele>
        <time>2017-12-15T21:51:05Z</time>
      </trkpt>
      <trkpt lat="44.89937" lon="5.90058">
        <ele>796</ele>
        <time>2017-12-15T21:51:19Z</time>
      </trkpt>
      <trkpt lat="44.89943" lon="5.90091">
        <ele>795</ele>
        <time>2017-12-15T21:51:23Z</time>
      </trkpt>
      <trkpt lat="44.89945" lon="5.90118">
        <ele>796</ele>
        <time>2017-12-15T21:51:33Z</time>
      </trkpt>
      <trkpt lat="44.8994" lon="5.90193">
        <ele>793</ele>
        <time>2017-12-15T21:51:37Z</time>
      </trkpt>
      <trkpt lat="44.89941" lon="5.90227">
        <ele>793</ele>
        <time>2017-12-15T21:51:55Z</time>
      </trkpt>
      <trkpt lat="44.89947" lon="5.90266">
        <ele>792</ele>
        <time>2017-12-15T21:52:07Z</time>
      </trkpt>
      <trkpt lat="44.8997" lon="5.90329">
        <ele>795</ele>
        <time>2017-12-15T21:52:10Z</time>
      </trkpt>
      <trkpt lat="44.89988" lon="5.90396">
        <ele>792</ele>
        <time>2017-12-15T21:52:20Z</time>
      </trkpt>
      <trkpt lat="44.90001" lon="5.90443">
        <ele>799</ele>
        <time>2017-12-15T21:52:32Z</time>
      </trkpt>
      <trkpt lat="44.90012" lon="5.90494">
        <ele>795</ele>
        <time>2017-12-15T21:52:44Z</time>
      </trkpt>
      <trkpt lat="44.90018" lon="5.90534">
        <ele>794</ele>
        <time>2017-12-15T21:52:58Z</time>
      </trkpt>
      <trkpt lat="44.90032" lon="5.90596">
        <ele>791</ele>
        <time>2017-12-15T21:53:13Z</time>
      </trkpt>
      <trkpt lat="44.90027" lon="5.9075">
        <ele>789</ele>
        <time>2017-12-15T21:53:16Z</time>
      </trkpt>
      <trkpt lat="44.90025" lon="5.90904">
        <ele>787</ele>
        <time>2017-12-15T21:53:33Z</time>
      </trkpt>
      <trkpt lat="44.90024" lon="5.90969">
        <ele>786</ele>
        <time>2017-12-15T21:53:38Z</time>
      </trkpt>
      <trkpt lat="44.90022" lon="5.90993">
        <ele>785</ele>
        <time>2017-12-15T21:53:56Z</time>
      </trkpt>
      <trkpt lat="44.90015" lon="5.91017">
        <ele>786</ele>
        <time>2017-12-15T21:54:09Z</time>
      </trkpt>
      <trkpt lat="44.90004" lon="5.91041">
        <ele>787</ele>
        <time>2017-12-15T21:54:17Z</time>
      </trkpt>
      <trkpt lat="44.89996" lon="5.91055">
        <ele>783</ele>
        <time>2017-12-15T21:54:31Z</time>
      </trkpt>
      <trkpt lat="44.89978" lon="5.91078">
        <ele>783</ele>
        <time>2017-12-15T21:54:42Z</time>
      </trkpt>
      <trkpt lat="44.89903" lon="5.91167">
        <ele>784</ele>
        <time>2017-12-15T21:54:49Z</time>
      </trkpt>
      <trkpt lat="44.89822" lon="5.91266">
        <ele>778</ele>
        <time>2017-12-15T21:54:56Z</time>
      </trkpt>
      <trkpt lat="44.89798" lon="5.91305">
        <ele>778</ele>
        <time>2017-12-15T21:54:59Z</time>
      </trkpt>
      <trkpt lat="44.89786" lon="5.91332">
        <ele>777</ele>
        <time>2017-12-15T21:55:01Z</time>
      </trkpt>
      <trkpt lat="44.89773" lon="5.91377">
        <ele>778</ele>
        <time>2017-12-15T21:55:11Z</time>
      </trkpt>
      <trkpt lat="44.8977" lon="5.91415">
        <ele>777</ele>
        <time>2017-12-15T21:55:19Z</time>
      </trkpt>
      <trkpt lat="44.89769" lon="5.91477">
        <ele>776</ele>
        <time>2017-12-15T21:55:23Z</time>
      </trkpt>
      <trkpt lat="44.89764" lon="5.91495">
        <ele>775</ele>
        <time>2017-12-15T21:55:28Z</time>
      </trkpt>
      <trkpt lat="44.89757" lon="5.91505">
        <ele>774</ele>
        <time>2017-12-15T21:55:32Z</time>
      </trkpt>
      <trkpt lat="44.8975" lon="5.91511">
        <ele>775</ele>
        <time>2017-12-15T21:55:42Z</time>
      </trkpt>
      <trkpt lat="44.89736" lon="5.91519">
        <ele>770</ele>
        <time>2017-12-15T21:55:59Z</time>
      </trkpt>
      <trkpt lat="44.89693" lon="5.91531">
        <ele>767</ele>
        <time>2017-12-15T21:56:06Z</time>
      </trkpt>
      <trkpt lat="44.89682" lon="5.91535">
        <ele>766</ele>
        <time>2017-12-15T21:56:16Z</time>
      </trkpt>
      <trkpt lat="44.89677" lon="5.9154">
        <ele>766</ele>
        <time>2017-12-15T21:56:27Z</time>
      </trkpt>
      <trkpt lat="44.8967" lon="5.91551">
        <ele>766</ele>
        <time>2017-12-15T21:56:46Z</time>
      </trkpt>
      <trkpt lat="44.89667" lon="5.91566">
        <ele>764</ele>
        <time>2017-12-15T21:57:03Z</time>
      </trkpt>
      <trkpt lat="44.89669" lon="5.916">
        <ele>763</ele>
        <time>2017-12-15T21:57:09Z</time>
      </trkpt>
      <trkpt lat="44.89675" lon="5.91624">
        <ele>764</ele>
        <time>2017-12-15T21:57:23Z</time>
      </trkpt>
      <trkpt lat="44.89683" lon="5.91638">
        <ele>763</ele>
        <time>2017-12-15T21:57:34Z</time>
      </trkpt>
      <trkpt lat="44.8969" lon="5.91645">
        <ele>763</ele>
        <time>2017-12-15T21:57:40Z</time>
      </trkpt>
      <trkpt lat="44.8971" lon="5.9166">
        <ele>766</ele>
        <time>2017-12-15T21:57:50Z</time>
      </trkpt>
      <trkpt lat="44.89719" lon="5.91669">
        <ele>763</ele>
        <time>2017-12-15T21:57:57Z</time>
      </trkpt>
      <trkpt lat="44.89726" lon="5.91681">
        <ele>764</ele>
        <time>2017-12-15T21:58:10Z</time>
      </trkpt>
      <trkpt lat="44.89731" lon="5.91695">
        <ele>763</ele>
        <time>2017-12-15T21:58:23Z</time>
      </trkpt>
      <trkpt lat="44.89732" lon="5.91711">
        <ele>762</ele>
        <time>2017-12-15T21:58:25Z</time>
      </trkpt>
      <trkpt lat="44.89727" lon="5.91738">
        <ele>762</ele>
        <time>2017-12-15T21:58:33Z</time>
      </trkpt>
      <trkpt lat="44.89721" lon="5.91756">
        <ele>757</ele>
        <time>2017-12-15T21:58:47Z</time>
      </trkpt>
      <trkpt lat="44.89721" lon="5.91772">
        <ele>756</ele>
        <time>2017-12-15T21:59:03Z</time>
      </trkpt>
      <trkpt lat="44.89722" lon="5.91785">
        <ele>756</ele>
        <time>2017-12-15T21:59:23Z</time>
      </trkpt>
      <trkpt lat="44.89731" lon="5.91811">
        <ele>756</ele>
        <time>2017-12-15T21:59:26Z</time>
      </trkpt>
      <trkpt lat="44.89761" lon="5.9189">
        <ele>763</ele>
        <time>2017-12-15T21:59:44Z</time>
      </trkpt>
      <trkpt lat="44.89783" lon="5.91942">
        <ele>758</ele>
        <time>2017-12-15T21:59:59Z</time>
      </trkpt>
      <trkpt lat="44.89799" lon="5.91972">
        <ele>759</ele>
        <time>2017-12-15T22:00:07Z</time>
      </trkpt>
      <trkpt lat="44.89818" lon="5.92012">
        <ele>756</ele>
        <time>2017-12-15T22:00:09Z</time>
      </trkpt>
      <trkpt lat="44.89836" lon="5.92069">
        <ele>762</ele>
        <time>2017-12-15T22:00:26Z</time>
      </trkpt>
      <trkpt lat="44.8984" lon="5.92108">
        <ele>761</ele>
        <time>2017-12-15T22:00:28Z</time>
      </trkpt>
      <trkpt lat="44.89838" lon="5.92151">
        <ele>757</ele>
        <time>2017-12-15T22:00:46Z</time>
      </trkpt>
      <trkpt lat="44.89834" lon="5.92192">
        <ele>757</ele>
        <time>2017-12-15T22:00:52Z</time>
      </trkpt>
      <trkpt lat="44.8982" lon="5.92229">
        <ele>745</ele>
        <time>2017-12-15T22:00:56Z</time>
      </trkpt>
      <trkpt lat="44.89806" lon="5.9228">
        <ele>745</ele>
        <time>2017-12-15T22:01:14Z</time>
      </trkpt>
      <trkpt lat="44.89788" lon="5.92395">
        <ele>744</ele>
        <time>2017-12-15T22:01:17Z</time>
      </trkpt>
      <trkpt lat="44.8978" lon="5.92428">
        <ele>742</ele>
        <time>2017-12-15T22:01:25Z</time>
      </trkpt>
      <trkpt lat="44.89769" lon="5.9246">
        <ele>741</ele>
        <time>2017-12-15T22:01:44Z</time>
      </trkpt>
      <trkpt lat="44.89742" lon="5.92503">
        <ele>738</ele>
        <time>2017-12-15T22:01:54Z</time>
      </trkpt>
      <trkpt lat="44.89708" lon="5.92551">
        <ele>738</ele>
        <time>2017-12-15T22:02:06Z</time>
      </trkpt>
      <trkpt lat="44.89681" lon="5.9258">
        <ele>737</ele>
        <time>2017-12-15T22:02:14Z</time>
      </trkpt>
      <trkpt lat="44.89653" lon="5.92618">
        <ele>741</ele>
        <time>2017-12-15T22:02:27Z</time>
      </trkpt>
      <trkpt lat="44.89634" lon="5.92651">
        <ele>744</ele>
        <time>2017-12-15T22:02:42Z</time>
      </trkpt>
      <trkpt lat="44.8963" lon="5.92667">
        <ele>751</ele>
        <time>2017-12-15T22:03:02Z</time>
      </trkpt>
      <trkpt lat="44.89629" lon="5.92681">
        <ele>752</ele>
        <time>2017-12-15T22:03:06Z</time>
      </trkpt>
      <trkpt lat="44.89632" lon="5.92694">
        <ele>753</ele>
        <time>2017-12-15T22:03:08Z</time>
      </trkpt>
      <trkpt lat="44.89647" lon="5.9272">
        <ele>753</ele>
        <time>2017-12-15T22:03:24Z</time>
      </trkpt>
      <trkpt lat="44.89664" lon="5.92746">
        <ele>750</ele>
        <time>2017-12-15T22:03:32Z</time>
      </trkpt>
      <trkpt lat="44.89686" lon="5.9278">
        <ele>750</ele>
        <time>2017-12-15T22:03:35Z</time>
      </trkpt>
      <trkpt lat="44.89707" lon="5.9281">
        <ele>751</ele>
        <time>2017-12-15T22:03:54Z</time>
      </trkpt>
      <trkpt lat="44.89741" lon="5.92852">
        <ele>753</ele>
        <time>2017-12-15T22:03:57Z</time>
      </trkpt>
      <trkpt lat="44.89766" lon="5.92886">
        <ele>748</ele>
        <time>2017-12-15T22:04:17Z</time>
      </trkpt>
      <trkpt lat="44.89784" lon="5.92914">
        <ele>748</ele>
        <time>2017-12-15T22:04:21Z</time>
      </trkpt>
      <trkpt lat="44.89934" lon="5.93179">
        <ele>760</ele>
        <time>2017-12-15T22:04:28Z</time>
      </trkpt>
      <trkpt lat="44.89964" lon="5.93222">
        <ele>759</ele>
        <time>2017-12-15T22:04:34Z</time>
      </trkpt>
      <trkpt lat="44.89976" lon="5.93242">
        <ele>758</ele>
        <time>2017-12-15T22:04:42Z</time>
      </trkpt>
      <trkpt lat="44.89981" lon="5.93257">
        <ele>763</ele>
        <time>2017-12-15T22:04:57Z</time>
      </trkpt>
      <trkpt lat="44.89989" lon="5.93292">
        <ele>766</ele>
        <time>2017-12-15T22:05:16Z</time>
      </trkpt>
      <trkpt lat="44.89995" lon="5.9334">
        <ele>767</ele>
        <time>2017-12-15T22:05:27Z</time>
      </trkpt>
      <trkpt lat="44.90011" lon="5.93463">
        <ele>766</ele>
        <time>2017-12-15T22:05:31Z</time>
      </trkpt>
      <trkpt lat="44.90013" lon="5.93496">
        <ele>769</ele>
        <time>2017-12-15T22:05:51Z</time>
      </trkpt>
      <trkpt lat="44.90012" lon="5.93531">
        <ele>767</ele>
        <time>2017-12-15T22:06:05Z</time>
      </trkpt>
      <trkpt lat="44.90006" lon="5.93576">
        <ele>768</ele>
        <time>2017-12-15T22:06:20Z</time>
      </trkpt>
      <trkpt lat="44.89985" lon="5.93653">
        <ele>773</ele>
        <time>2017-12-15T22:06:26Z</time>
      </trkpt>
      <trkpt lat="44.8997" lon="5.93709">
        <ele>776</ele>
        <time>2017-12-15T22:06:41Z</time>
      </trkpt>
      <trkpt lat="44.89961" lon="5.9375">
        <ele>776</ele>
        <time>2017-12-15T22:06:53Z</time>
      </trkpt>
      <trkpt lat="44.89936" lon="5.93922">
        <ele>775</ele>
        <time>2017-12-15T22:07:01Z</time>
      </trkpt>
      <trkpt lat="44.89921" lon="5.94012">
        <ele>775</ele>
        <time>2017-12-15T22:07:16Z</time>
      </trkpt>
      <trkpt lat="44.89919" lon="5.94047">
        <ele>774</ele>
        <time>2017-12-15T22:07:35Z</time>
      </trkpt>
      <trkpt lat="44.89927" lon="5.94085">
        <ele>777</ele>
        <time>2017-12-15T22:07:44Z</time>
      </trkpt>
      <trkpt lat="44.89962" lon="5.94184">
        <ele>777</ele>
        <time>2017-12-15T22:07:48Z</time>
      </trkpt>
      <trkpt lat="44.8999" lon="5.94263">
        <ele>779</ele>
        <time>2017-12-15T22:08:06Z</time>
      </trkpt>
      <trkpt lat="44.9" lon="5.94283">
        <ele>781</ele>
        <time>2017-12-15T22:08:11Z</time>
      </trkpt>
      <trkpt lat="44.9002" lon="5.94323">
        <ele>782</ele>
        <time>2017-12-15T22:08:30Z</time>
      </trkpt>
      <trkpt lat="44.90027" lon="5.94345">
        <ele>785</ele>
        <time>2017-12-15T22:08:40Z</time>
      </trkpt>
      <trkpt lat="44.90033" lon="5.94376">
        <ele>785</ele>
        <time>2017-12-15T22:09:00Z</time>
      </trkpt>
      <trkpt lat="44.90035" lon="5.94414">
        <ele>786</ele>
        <time>2017-12-15T22:09:11Z</time>
      </trkpt>
      <trkpt lat="44.90034" lon="5.94451">
        <ele>787</ele>
        <time>2017-12-15T22:09:21Z</time>
      </trkpt>
      <trkpt lat="44.9003" lon="5.94476">
        <ele>787</ele>
        <time>2017-12-15T22:09:24Z</time>
      </trkpt>
      <trkpt lat="44.90012" lon="5.94534">
        <ele>788</ele>
        <time>2017-12-15T22:09:32Z</time>
      </trkpt>
      <trkpt lat="44.90009" lon="5.94553">
        <ele>789</ele>
        <time>2017-12-15T22:09:52Z</time>
      </trkpt>
      <trkpt lat="44.90011" lon="5.94572">
        <ele>788</ele>
        <time>2017-12-15T22:10:01Z</time>
      </trkpt>
      <trkpt lat="44.90015" lon="5.94584">
        <ele>790</ele>
        <time>2017-12-15T22:10:04Z</time>
      </trkpt>
      <trkpt lat="44.90022" lon="5.94595">
        <ele>791</ele>
        <time>2017-12-15T22:10:21Z</time>
      </trkpt>
      <trkpt lat="44.90029" lon="5.94603">
        <ele>792</ele>
        <time>2017-12-15T22:10:31Z</time>
      </trkpt>
      <trkpt lat="44.90037" lon="5.94607">
        <ele>793</ele>
        <time>2017-12-15T22:10:40Z</time>
      </trkpt>
      <trkpt lat="44.90055" lon="5.9461">
        <ele>794</ele>
        <time>2017-12-15T22:10:44Z</time>
      </trkpt>
      <trkpt lat="44.90069" lon="5.94611">
        <ele>794</ele>
        <time>2017-12-15T22:10:54Z</time>
      </trkpt>
      <trkpt lat="44.90079" lon="5.94616">
        <ele>794</ele>
        <time>2017-12-15T22:11:07Z</time>
      </trkpt>
      <trkpt lat="44.90087" lon="5.94623">
        <ele>799</ele>
        <time>2017-12-15T22:11:10Z</time>
      </trkpt>
      <trkpt lat="44.90104" lon="5.94653">
        <ele>799</ele>
        <time>2017-12-15T22:11:25Z</time>
      </trkpt>
      <trkpt lat="44.9013" lon="5.9472">
        <ele>800</ele>
        <time>2017-12-15T22:11:44Z</time>
      </trkpt>
      <trkpt lat="44.90157" lon="5.94808">
        <ele>804</ele>
        <time>2017-12-15T22:11:57Z</time>
      </trkpt>
      <trkpt lat="44.90158" lon="5.94819">
        <ele>806</ele>
        <time>2017-12-15T22:12:09Z</time>
      </trkpt>
      <trkpt lat="44.90156" lon="5.94839">
        <ele>807</ele>
        <time>2017-12-15T22:12:29Z</time>
      </trkpt>
      <trkpt lat="44.9015" lon="5.94873">
        <ele>805</ele>
        <time>2017-12-15T22:12:45Z</time>
      </trkpt>
      <trkpt lat="44.90149" lon="5.94888">
        <ele>806</ele>
        <time>2017-12-15T22:12:48Z</time>
      </trkpt>
      <trkpt lat="44.9015" lon="5.94894">
        <ele>806</ele>
        <time>2017-12-15T22:13:04Z</time>
      </trkpt>
      <trkpt lat="44.90154" lon="5.94897">
        <ele>806</ele>
        <time>2017-12-15T22:13:19Z</time>
      </trkpt>
      <trkpt lat="44.90161" lon="5.94897">
        <ele>807</ele>
        <time>2017-12-15T22:13:28Z</time>
      </trkpt>
      <trkpt lat="44.90171" lon="5.94893">
        <ele>810</ele>
        <time>2017-12-15T22:13:39Z</time>
      </trkpt>
      <trkpt lat="44.90214" lon="5.94868">
        <ele>811</ele>
        <time>2017-12-15T22:13:44Z</time>
      </trkpt>
      <trkpt lat="44.90312" lon="5.94823">
        <ele>809</ele>
        <time>2017-12-15T22:13:48Z</time>
      </trkpt>
      <trkpt lat="44.9037" lon="5.94806">
        <ele>806</ele>
        <time>2017-12-15T22:14:07Z</time>
      </trkpt>
      <trkpt lat="44.90439" lon="5.94785">
        <ele>804</ele>
        <time>2017-12-15T22:14:15Z</time>
      </trkpt>
      <trkpt lat="44.9048" lon="5.94776">
        <ele>804</ele>
        <time>2017-12-15T22:14:21Z</time>
      </trkpt>
      <trkpt lat="44.90521" lon="5.94765">
        <ele>802</ele>
        <time>2017-12-15T22:14:32Z</time>
      </trkpt>
      <trkpt lat="44.90545" lon="5.94761">
        <ele>802</ele>
        <time>2017-12-15T22:14:50Z</time>
      </trkpt>
      <trkpt lat="44.90574" lon="5.94761">
        <ele>801</ele>
        <time>2017-12-15T22:14:59Z</time>
      </trkpt>
      <trkpt lat="44.90614" lon="5.94771">
        <ele>798</ele>
        <time>2017-12-15T22:15:15Z</time>
      </trkpt>
      <trkpt lat="44.9063" lon="5.94779">
        <ele>797</ele>
        <time>2017-12-15T22:15:31Z</time>
      </trkpt>
      <trkpt lat="44.90643" lon="5.9479">
        <ele>797</ele>
        <time>2017-12-15T22:15:50Z</time>
      </trkpt>
      <trkpt lat="44.90711" lon="5.94857">
        <ele>798</ele>
        <time>2017-12-15T22:15:58Z</time>
      </trkpt>
      <trkpt lat="44.90729" lon="5.94868">
        <ele>798</ele>
        <time>2017-12-15T22:16:02Z</time>
      </trkpt>
      <trkpt lat="44.90737" lon="5.94871">
        <ele>798</ele>
        <time>2017-12-15T22:16:04Z</time>
      </trkpt>
      <trkpt lat="44.90768" lon="5.94877">
        <ele>796</ele>
        <time>2017-12-15T22:16:23Z</time>
      </trkpt>
      <trkpt lat="44.908" lon="5.94884">
        <ele>796</ele>
        <time>2017-12-15T22:16:29Z</time>
      </trkpt>
      <trkpt lat="44.90821" lon="5.94891">
        <ele>797</ele>
        <time>2017-12-15T22:16:48Z</time>
      </trkpt>
      <trkpt lat="44.9085" lon="5.94896">
        <ele>798</ele>
        <time>2017-12-15T22:17:05Z</time>
      </trkpt>
      <trkpt lat="44.90876" lon="5.94901">
        <ele>797</ele>
        <time>2017-12-15T22:17:16Z</time>
      </trkpt>
      <trkpt lat="44.90887" lon="5.94904">
        <ele>797</ele>
        <time>2017-12-15T22:17:18Z</time>
      </trkpt>
      <trkpt lat="44.90916" lon="5.94922">
        <ele>801</ele>
        <time>2017-12-15T22:17:21Z</time>
      </trkpt>
      <trkpt lat="44.90945" lon="5.94952">
        <ele>801</ele>
        <time>2017-12-15T22:17:33Z</time>
      </trkpt>
      <trkpt lat="44.90966" lon="5.94977">
        <ele>802</ele>
        <time>2017-12-15T22:17:38Z</time>
      </trkpt>
      <trkpt lat="44.90979" lon="5.94989">
        <ele>802</ele>
        <time>2017-12-15T22:17:48Z</time>
      </trkpt>
      <trkpt lat="44.91051" lon="5.95036">
        <ele>806</ele>
        <time>2017-12-15T22:18:06Z</time>
      </trkpt>
      <trkpt lat="44.91063" lon="5.95042">
        <ele>806</ele>
        <time>2017-12-15T22:18:21Z</time>
      </trkpt>
      <trkpt lat="44.9109" lon="5.95052">
        <ele>805</ele>
        <time>2017-12-15T22:18:32Z</time>
      </trkpt>
      <trkpt lat="44.91147" lon="5.95064">
        <ele>806</ele>
        <time>2017-12-15T22:18:35Z</time>
      </trkpt>
      <trkpt lat="44.912" lon="5.95076">
        <ele>804</ele>
        <time>2017-12-15T22:18:43Z</time>
      </trkpt>
      <trkpt lat="44.91223" lon="5.95079">
        <ele>803</ele>
        <time>2017-12-15T22:18:45Z</time>
      </trkpt>
      <trkpt lat="44.91265" lon="5.9508">
        <ele>803</ele>
        <time>2017-12-15T22:19:02Z</time>
      </trkpt>
      <trkpt lat="44.91333" lon="5.95089">
        <ele>813</ele>
        <time>2017-12-15T22:19:16Z</time>
      </trkpt>
      <trkpt lat="44.91367" lon="5.95091">
        <ele>819</ele>
        <time>2017-12-15T22:19:36Z</time>
      </trkpt>
      <trkpt lat="44.91389" lon="5.95096">
        <ele>818</ele>
        <time>2017-12-15T22:19:49Z</time>
      </trkpt>
      <trkpt lat="44.91401" lon="5.95103">
        <ele>817</ele>
        <time>2017-12-15T22:20:08Z</time>
      </trkpt>
      <trkpt lat="44.91412" lon="5.95113">
        <ele>818</ele>
        <time>2017-12-15T22:20:24Z</time>
      </trkpt>
      <trkpt lat="44.91428" lon="5.95133">
        <ele>813</ele>
        <time>2017-12-15T22:20:32Z</time>
      </trkpt>
      <trkpt lat="44.91488" lon="5.95228">
        <ele>820</ele>
        <time>2017-12-15T22:20:44Z</time>
      </trkpt>
      <trkpt lat="44.91506" lon="5.95256">
        <ele>820</ele>
        <time>2017-12-15T22:20:47Z</time>
      </trkpt>
      <trkpt lat="44.91517" lon="5.95278">
        <ele>824</ele>
        <time>2017-12-15T22:20:52Z</time>
      </trkpt>
      <trkpt lat="44.91559" lon="5.95374">
        <ele>833</ele>
        <time>2017-12-15T22:21:01Z</time>
      </trkpt>
      <trkpt lat="44.91581" lon="5.95421">
        <ele>830</ele>
        <time>2017-12-15T22:21:19Z</time>
      </trkpt>
      <trkpt lat="44.91603" lon="5.95484">
        <ele>832</ele>
        <time>2017-12-15T22:21:31Z</time>
      </trkpt>
      <trkpt lat="44.91654" lon="5.95644">
        <ele>847</ele>
        <time>2017-12-15T22:21:36Z</time>
      </trkpt>
      <trkpt lat="44.91664" lon="5.95671">
        <ele>839</ele>
        <time>2017-12-15T22:21:45Z</time>
      </trkpt>
      <trkpt lat="44.91682" lon="5.95744">
        <ele>842</ele>
        <time>2017-12-15T22:21:58Z</time>
      </trkpt>
      <trkpt lat="44.91696" lon="5.95805">
        <ele>845</ele>
        <time>2017-12-15T22:22:15Z</time>
      </trkpt>
      <trkpt lat="44.917" lon="5.95844">
        <ele>848</ele>
        <time>2017-12-15T22:22:31Z</time>
      </trkpt>
      <trkpt lat="44.91698" lon="5.95875">
        <ele>849</ele>
        <time>2017-12-15T22:22:48Z</time>
      </trkpt>
      <trkpt lat="44.91697" lon="5.95913">
        <ele>851</ele>
        <time>2017-12-15T22:22:56Z</time>
      </trkpt>
      <trkpt lat="44.91701" lon="5.95933">
        <ele>858</ele>
        <time>2017-12-15T22:23:08Z</time>
      </trkpt>
      <trkpt lat="44.91707" lon="5.95949">
        <ele>858</ele>
        <time>2017-12-15T22:23:10Z</time>
      </trkpt>
      <trkpt lat="44.91721" lon="5.95968">
        <ele>856</ele>
        <time>2017-12-15T22:23:27Z</time>
      </trkpt>
      <trkpt lat="44.91728" lon="5.95976">
        <ele>854</ele>
        <time>2017-12-15T22:23:37Z</time>
      </trkpt>
      <trkpt lat="44.91765" lon="5.96027">
        <ele>841</ele>
        <time>2017-12-15T22:23:42Z</time>
      </trkpt>
      <trkpt lat="44.91781" lon="5.96052">
        <ele>842</ele>
        <time>2017-12-15T22:23:58Z</time>
      </trkpt>
      <trkpt lat="44.9179" lon="5.96074">
        <ele>841</ele>
        <time>2017-12-15T22:24:17Z</time>
      </trkpt>
      <trkpt lat="44.91801" lon="5.96125">
        <ele>848</ele>
        <time>2017-12-15T22:24:33Z</time>
      </trkpt>
      <trkpt lat="44.91812" lon="5.96161">
        <ele>846</ele>
        <time>2017-12-15T22:24:37Z</time>
      </trkpt>
      <trkpt lat="44.9182" lon="5.96174">
        <ele>849</ele>
        <time>2017-12-15T22:24:52Z</time>
      </trkpt>
      <trkpt lat="44.91829" lon="5.96183">
        <ele>849</ele>
        <time>2017-12-15T22:25:03Z</time>
      </trkpt>
      <trkpt lat="44.91841" lon="5.96189">
        <ele>841</ele>
        <time>2017-12-15T22:25:10Z</time>
      </trkpt>
      <trkpt lat="44.91857" lon="5.96195">
        <ele>841</ele>
        <time>2017-12-15T22:25:29Z</time>
      </trkpt>
      <trkpt lat="44.91905" lon="5.9621">
        <ele>842</ele>
        <time>2017-12-15T22:25:45Z</time>
      </trkpt>
      <trkpt lat="44.9193" lon="5.96219">
        <ele>841</ele>
        <time>2017-12-15T22:25:59Z</time>
      </trkpt>
      <trkpt lat="44.91943" lon="5.96228">
        <ele>841</ele>
        <time>2017-12-15T22:26:09Z</time>
      </trkpt>
      <trkpt lat="44.92042" lon="5.96314">
        <ele>846</ele>
        <time>2017-12-15T22:26:21Z</time>
      </trkpt>
      <trkpt lat="44.92138" lon="5.96387">
        <ele>849</ele>
        <time>2017-12-15T22:26:31Z</time>
      </trkpt>
      <trkpt lat="44.92166" lon="5.96417">
        <ele>850</ele>
        <time>2017-12-15T22:26:51Z</time>
      </trkpt>
      <trkpt lat="44.922" lon="5.96452">
        <ele>849</ele>
        <time>2017-12-15T22:26:57Z</time>
      </trkpt>
      <trkpt lat="44.92221" lon="5.96465">
        <ele>849</ele>
        <time>2017-12-15T22:27:04Z</time>
      </trkpt>
      <trkpt lat="44.92326" lon="5.96525">
        <ele>849</ele>
        <time>2017-12-15T22:27:19Z</time>
      </trkpt>
      <trkpt lat="44.92438" lon="5.96591">
        <ele>858</ele>
        <time>2017-12-15T22:27:35Z</time>
      </trkpt>
      <trkpt lat="44.9249" lon="5.96645">
        <ele>863</ele>
        <time>2017-12-15T22:27:54Z</time>
      </trkpt>
      <trkpt lat="44.92522" lon="5.9666">
        <ele>864</ele>
        <time>2017-12-15T22:27:56Z</time>
      </trkpt>
      <trkpt lat="44.92593" lon="5.96685">
        <ele>866</ele>
        <time>2017-12-15T22:28:00Z</time>
      </trkpt>
      <trkpt lat="44.92613" lon="5.96689">
        <ele>866</ele>
        <time>2017-12-15T22:28:19Z</time>
      </trkpt>
      <trkpt lat="44.92683" lon="5.96704">
        <ele>865</ele>
        <time>2017-12-15T22:28:38Z</time>
      </trkpt>
      <trkpt lat="44.92698" lon="5.9671">
        <ele>865</ele>
        <time>2017-12-15T22:28:46Z</time>
      </trkpt>
      <trkpt lat="44.9271" lon="5.96722">
        <ele>865</ele>
        <time>2017-12-15T22:28:55Z</time>
      </trkpt>
      <trkpt lat="44.92735" lon="5.9676">
        <ele>868</ele>
        <time>2017-12-15T22:29:09Z</time>
      </trkpt>
      <trkpt lat="44.92786" lon="5.96815">
        <ele>869</ele>
        <time>2017-12-15T22:29:17Z</time>
      </trkpt>
      <trkpt lat="44.92879" lon="5.96902">
        <ele>870</ele>
        <time>2017-12-15T22:29:23Z</time>
      </trkpt>
      <trkpt lat="44.92907" lon="5.96923">
        <ele>872</ele>
        <time>2017-12-15T22:29:27Z</time>
      </trkpt>
      <trkpt lat="44.92947" lon="5.96948">
        <ele>872</ele>
        <time>2017-12-15T22:29:43Z</time>
      </trkpt>
      <trkpt lat="44.9296" lon="5.9696">
        <ele>872</ele>
        <time>2017-12-15T22:29:59Z</time>
      </trkpt>
      <trkpt lat="44.93016" lon="5.9703">
        <ele>874</ele>
        <time>2017-12-15T22:30:17Z</time>
      </trkpt>
      <trkpt lat="44.93037" lon="5.9705">
        <ele>874</ele>
        <time>2017-12-15T22:30:34Z</time>
      </trkpt>
      <trkpt lat="44.93145" lon="5.97106">
        <ele>874</ele>
        <time>2017-12-15T22:30:51Z</time>
      </trkpt>
      <trkpt lat="44.93168" lon="5.97111">
        <ele>875</ele>
        <time>2017-12-15T22:30:59Z</time>
      </trkpt>
      <trkpt lat="44.93184" lon="5.97114">
        <ele>875</ele>
        <time>2017-12-15T22:31:04Z</time>
      </trkpt>
      <trkpt lat="44.93248" lon="5.9711">
        <ele>875</ele>
        <time>2017-12-15T22:31:13Z</time>
      </trkpt>
      <trkpt lat="44.93312" lon="5.97102">
        <ele>877</ele>
        <time>2017-12-15T22:31:29Z</time>
      </trkpt>
      <trkpt lat="44.9333" lon="5.97102">
        <ele>878</ele>
        <time>2017-12-15T22:31:48Z</time>
      </trkpt>
      <trkpt lat="44.93343" lon="5.97105">
        <ele>879</ele>
        <time>2017-12-15T22:31:56Z</time>
      </trkpt>
      <trkpt lat="44.93385" lon="5.97129">
        <ele>881</ele>
        <time>2017-12-15T22:32:05Z</time>
      </trkpt>
      <trkpt lat="44.93406" lon="5.97145">
        <ele>882</ele>
        <time>2017-12-15T22:32:14Z</time>
      </trkpt>
      <trkpt lat="44.93449" lon="5.97188">
        <ele>885</ele>
        <time>2017-12-15T22:32:20Z</time>
      </trkpt>
      <trkpt lat="44.9349" lon="5.9723">
        <ele>887</ele>
        <time>2017-12-15T22:32:39Z</time>
      </trkpt>
      <trkpt lat="44.93524" lon="5.97261">
        <ele>891</ele>
        <time>2017-12-15T22:32:59Z</time>
      </trkpt>
      <trkpt lat="44.93622" lon="5.97377">
        <ele>899</ele>
        <time>2017-12-15T22:33:17Z</time>
      </trkpt>
      <trkpt lat="44.9366" lon="5.97417">
        <ele>902</ele>
        <time>2017-12-15T22:33:28Z</time>
      </trkpt>
      <trkpt lat="44.93665" lon="5.97419">
        <ele>901</ele>
        <time>2017-12-15T22:33:42Z</time>
      </trkpt>
      <trkpt lat="44.93668" lon="5.97417">
        <ele>901</ele>
        <time>2017-12-15T22:33:51Z</time>
      </trkpt>
      <trkpt lat="44.93677" lon="5.97411">
        <ele>902</ele>
        <time>2017-12-15T22:34:10Z</time>
      </trkpt>
      <trkpt lat="44.93683" lon="5.97406">
        <ele>902</ele>
        <time>2017-12-15T22:34:17Z</time>
      </trkpt>
      <trkpt lat="44.93701" lon="5.97388">
        <ele>903</ele>
        <time>2017-12-15T22:34:23Z</time>
      </trkpt>
      <trkpt lat="44.93744" lon="5.97348">
        <ele>903</ele>
        <time>2017-12-15T22:34:37Z</time>
      </trkpt>
      <trkpt lat="44.93783" lon="5.9732">
        <ele>902</ele>
        <time>2017-12-15T22:34:56Z</time>
      </trkpt>
      <trkpt lat="44.9386" lon="5.97295">
        <ele>902</ele>
        <time>2017-12-15T22:35:04Z</time>
      </trkpt>
      <trkpt lat="44.93982" lon="5.97255">
        <ele>905</ele>
        <time>2017-12-15T22:35:10Z</time>
      </trkpt>
      <trkpt lat="44.94148" lon="5.97207">
        <ele>907</ele>
        <time>2017-12-15T22:35:23Z</time>
      </trkpt>
      <trkpt lat="44.94208" lon="5.9719">
        <ele>911</ele>
        <time>2017-12-15T22:35:31Z</time>
      </trkpt>
      <trkpt lat="44.9424" lon="5.97175">
        <ele>910</ele>
        <time>2017-12-15T22:35:43Z</time>
      </trkpt>
      <trkpt lat="44.94499" lon="5.97039">
        <ele>919</ele>
        <time>2017-12-15T22:36:01Z</time>
      </trkpt>
      <trkpt lat="44.94523" lon="5.97018">
        <ele>924</ele>
        <time>2017-12-15T22:36:18Z</time>
      </trkpt>
      <trkpt lat="44.9455" lon="5.96994">
        <ele>925</ele>
        <time>2017-12-15T22:36:24Z</time>
      </trkpt>
      <trkpt lat="44.94572" lon="5.96967">
        <ele>926</ele>
        <time>2017-12-15T22:36:30Z</time>
      </trkpt>
      <trkpt lat="44.94641" lon="5.96881">
        <ele>930</ele>
        <time>2017-12-15T22:36:46Z</time>
      </trkpt>
      <trkpt lat="44.9469" lon="5.96827">
        <ele>932</ele>
        <time>2017-12-15T22:37:01Z</time>
      </trkpt>
      <trkpt lat="44.94777" lon="5.96752">
        <ele>942</ele>
        <time>2017-12-15T22:37:11Z</time>
      </trkpt>
      <trkpt lat="44.94823" lon="5.96721">
        <ele>939</ele>
        <time>2017-12-15T22:37:18Z</time>
      </trkpt>
      <trkpt lat="44.94862" lon="5.96703">
        <ele>947</ele>
        <time>2017-12-15T22:37:30Z</time>
      </trkpt>
      <trkpt lat="44.94934" lon="5.96674">
        <ele>958</ele>
        <time>2017-12-15T22:37:37Z</time>
      </trkpt>
      <trkpt lat="44.94976" lon="5.96664">
        <ele>953</ele>
        <time>2017-12-15T22:37:51Z</time>
      </trkpt>
      <trkpt lat="44.95035" lon="5.96662">
        <ele>962</ele>
        <time>2017-12-15T22:38:03Z</time>
      </trkpt>
      <trkpt lat="44.95077" lon="5.96647">
        <ele>967</ele>
        <time>2017-12-15T22:38:12Z</time>
      </trkpt>
      <trkpt lat="44.95102" lon="5.96642">
        <ele>969</ele>
        <time>2017-12-15T22:38:23Z</time>
      </trkpt>
      <trkpt lat="44.95173" lon="5.96646">
        <ele>974</ele>
        <time>2017-12-15T22:38:31Z</time>
      </trkpt>
      <trkpt lat="44.952" lon="5.96644">
        <ele>973</ele>
        <time>2017-12-15T22:38:39Z</time>
      </trkpt>
      <trkpt lat="44.95228" lon="5.96637">
        <ele>973</ele>
        <time>2017-12-15T22:38:42Z</time>
      </trkpt>
      <trkpt lat="44.95283" lon="5.96618">
        <ele>973</ele>
        <time>2017-12-15T22:38:55Z</time>
      </trkpt>
      <trkpt lat="44.95299" lon="5.96609">
        <ele>972</ele>
        <time>2017-12-15T22:39:00Z</time>
      </trkpt>
      <trkpt lat="44.95331" lon="5.96583">
        <ele>959</ele>
        <time>2017-12-15T22:39:07Z</time>
      </trkpt>
      <trkpt lat="44.95398" lon="5.96519">
        <ele>962</ele>
        <time>2017-12-15T22:39:22Z</time>
      </trkpt>
      <trkpt lat="44.95413" lon="5.96502">
        <ele>961</ele>
        <time>2017-12-15T22:39:28Z</time>
      </trkpt>
      <trkpt lat="44.95462" lon="5.96429">
        <ele>965</ele>
        <time>2017-12-15T22:39:39Z</time>
      </trkpt>
      <trkpt lat="44.95571" lon="5.96253">
        <ele>969</ele>
        <time>2017-12-15T22:39:53Z</time>
      </trkpt>
      <trkpt lat="44.95591" lon="5.96225">
        <ele>970</ele>
        <time>2017-12-15T22:40:02Z</time>
      </trkpt>
      <trkpt lat="44.956" lon="5.96217">
        <ele>970</ele>
        <time>2017-12-15T22:40:20Z</time>
      </trkpt>
      <trkpt lat="44.95675" lon="5.96157">
        <ele>972</ele>
        <time>2017-12-15T22:40:40Z</time>
      </trkpt>
      <trkpt lat="44.95693" lon="5.96144">
        <ele>973</ele>
        <time>2017-12-15T22:41:00Z</time>
      </trkpt>
      <trkpt lat="44.95701" lon="5.96142">
        <ele>973</ele>
        <time>2017-12-15T22:41:11Z</time>
      </trkpt>
      <trkpt lat="44.95711" lon="5.96146">
        <ele>973</ele>
        <time>2017-12-15T22:41:21Z</time>
      </trkpt>
      <trkpt lat="44.95743" lon="5.96168">
        <ele>976</ele>
        <time>2017-12-15T22:41:37Z</time>
      </trkpt>
      <trkpt lat="44.95764" lon="5.96168">
        <ele>981</ele>
        <time>2017-12-15T22:41:57Z</time>
      </trkpt>
      <trkpt lat="44.95808" lon="5.96154">
        <ele>982</ele>
        <time>2017-12-15T22:41:59Z</time>
      </trkpt>
      <trkpt lat="44.95853" lon="5.96146">
        <ele>986</ele>
        <time>2017-12-15T22:42:01Z</time>
      </trkpt>
      <trkpt lat="44.95874" lon="5.96135">
        <ele>986</ele>
        <time>2017-12-15T22:42:03Z</time>
      </trkpt>
      <trkpt lat="44.9591" lon="5.96106">
        <ele>983</ele>
        <time>2017-12-15T22:42:17Z</time>
      </trkpt>
      <trkpt lat="44.95936" lon="5.96099">
        <ele>985</ele>
        <time>2017-12-15T22:42:30Z</time>
      </trkpt>
      <trkpt lat="44.9603" lon="5.96115">
        <ele>993</ele>
        <time>2017-12-15T22:42:44Z</time>
      </trkpt>
      <trkpt lat="44.9607" lon="5.96123">
        <ele>995</ele>
        <time>2017-12-15T22:42:51Z</time>
      </trkpt>
      <trkpt lat="44.96082" lon="5.96128">
        <ele>996</ele>
        <time>2017-12-15T22:42:54Z</time>
      </trkpt>
      <trkpt lat="44.96098" lon="5.9614">
        <ele>1000</ele>
        <time>2017-12-15T22:43:12Z</time>
      </trkpt>
      <trkpt lat="44.96113" lon="5.9615">
        <ele>1000</ele>
        <time>2017-12-15T22:43:24Z</time>
      </trkpt>
      <trkpt lat="44.96123" lon="5.96154">
        <ele>1001</ele>
        <time>2017-12-15T22:43:44Z</time>
      </trkpt>
      <trkpt lat="44.96153" lon="5.96153">
        <ele>1002</ele>
        <time>2017-12-15T22:43:47Z</time>
      </trkpt>
      <trkpt lat="44.96214" lon="5.96137">
        <ele>1003</ele>
        <time>2017-12-15T22:44:00Z</time>
      </trkpt>
      <trkpt lat="44.96231" lon="5.96135">
        <ele>1004</ele>
        <time>2017-12-15T22:44:19Z</time>
      </trkpt>
      <trkpt lat="44.96273" lon="5.96143">
        <ele>1009</ele>
        <time>2017-12-15T22:44:39Z</time>
      </trkpt>
      <trkpt lat="44.96311" lon="5.96151">
        <ele>1014</ele>
        <time>2017-12-15T22:44:51Z</time>
      </trkpt>
      <trkpt lat="44.96327" lon="5.96149">
        <ele>1016</ele>
        <time>2017-12-15T22:44:58Z</time>
      </trkpt>
      <trkpt lat="44.96376" lon="5.96121">
        <ele>1014</ele>
        <time>2017-12-15T22:45:13Z</time>
      </trkpt>
      <trkpt lat="44.96391" lon="5.96119">
        <ele>1014</ele>
        <time>2017-12-15T22:45:30Z</time>
      </trkpt>
      <trkpt lat="44.96415" lon="5.96129">
        <ele>1016</ele>
        <time>2017-12-15T22:45:32Z</time>
      </trkpt>
      <trkpt lat="44.96438" lon="5.96137">
        <ele>1023</ele>
        <time>2017-12-15T22:45:44Z</time>
      </trkpt>
      <trkpt lat="44.96451" lon="5.96135">
        <ele>1023</ele>
        <time>2017-12-15T22:45:52Z</time>
      </trkpt>
      <trkpt lat="44.96463" lon="5.96123">
        <ele>1022</ele>
        <time>2017-12-15T22:46:05Z</time>
      </trkpt>
      <trkpt lat="44.9649" lon="5.96084">
        <ele>1017</ele>
        <time>2017-12-15T22:46:07Z</time>
      </trkpt>
      <trkpt lat="44.96505" lon="5.96074">
        <ele>1015</ele>
        <time>2017-12-15T22:46:23Z</time>
      </trkpt>
      <trkpt lat="44.96513" lon="5.96071">
        <ele>1015</ele>
        <time>2017-12-15T22:46:29Z</time>
      </trkpt>
      <trkpt lat="44.96528" lon="5.96071">
        <ele>1015</ele>
        <time>2017-12-15T22:46:32Z</time>
      </trkpt>
      <trkpt lat="44.96598" lon="5.96085">
        <ele>1025</ele>
        <time>2017-12-15T22:46:44Z</time>
      </trkpt>
      <trkpt lat="44.96617" lon="5.96086">
        <ele>1027</ele>
        <time>2017-12-15T22:46:46Z</time>
      </trkpt>
      <trkpt lat="44.96635" lon="5.96083">
        <ele>1016</ele>
        <time>2017-12-15T22:46:51Z</time>
      </trkpt>
      <trkpt lat="44.96661" lon="5.96082">
        <ele>1017</ele>
        <time>2017-12-15T22:46:54Z</time>
      </trkpt>
      <trkpt lat="44.96849" lon="5.96126">
        <ele>1021</ele>
        <time>2017-12-15T22:47:11Z</time>
      </trkpt>
      <trkpt lat="44.96867" lon="5.96128">
        <ele>1021</ele>
        <time>2017-12-15T22:47:15Z</time>
      </trkpt>
      <trkpt lat="44.96882" lon="5.96127">
        <ele>1022</ele>
        <time>2017-12-15T22:47:17Z</time>
      </trkpt>
      <trkpt lat="44.96899" lon="5.96123">
        <ele>1022</ele>
        <time>2017-12-15T22:47:37Z</time>
      </trkpt>
      <trkpt lat="44.96925" lon="5.96112">
        <ele>1024</ele>
        <time>2017-12-15T22:47:47Z</time>
      </trkpt>
      <trkpt lat="44.96982" lon="5.96084">
        <ele>1025</ele>
        <time>2017-12-15T22:48:06Z</time>
      </trkpt>
      <trkpt lat="44.96999" lon="5.96069">
        <ele>1023</ele>
        <time>2017-12-15T22:48:24Z</time>
      </trkpt>
      <trkpt lat="44.97017" lon="5.96039">
        <ele>1024</ele>
        <time>2017-12-15T22:48:39Z</time>
      </trkpt>
      <trkpt lat="44.97055" lon="5.95953">
        <ele>1026</ele>
        <time>2017-12-15T22:48:43Z</time>
      </trkpt>
      <trkpt lat="44.97066" lon="5.9594">
        <ele>1026</ele>
        <time>2017-12-15T22:48:55Z</time>
      </trkpt>
      <trkpt lat="44.97074" lon="5.95936">
        <ele>1027</ele>
        <time>2017-12-15T22:49:11Z</time>
      </trkpt>
      <trkpt lat="44.97083" lon="5.95934">
        <ele>1027</ele>
        <time>2017-12-15T22:49:23Z</time>
      </trkpt>
      <trkpt lat="44.97106" lon="5.95938">
        <ele>1028</ele>
        <time>2017-12-15T22:49:25Z</time>
      </trkpt>
      <trkpt lat="44.97367" lon="5.96024">
        <ele>1035</ele>
        <time>2017-12-15T22:49:43Z</time>
      </trkpt>
      <trkpt lat="44.97405" lon="5.96035">
        <ele>1036</ele>
        <time>2017-12-15T22:49:54Z</time>
      </trkpt>
      <trkpt lat="44.97456" lon="5.96055">
        <ele>1040</ele>
        <time>2017-12-15T22:50:09Z</time>
      </trkpt>
      <trkpt lat="44.97624" lon="5.96109">
        <ele>1050</ele>
        <time>2017-12-15T22:50:15Z</time>
      </trkpt>
      <trkpt lat="44.97879" lon="5.9619">
        <ele>1061</ele>
        <time>2017-12-15T22:50:24Z</time>
      </trkpt>
      <trkpt lat="44.97905" lon="5.96201">
        <ele>1062</ele>
        <time>2017-12-15T22:50:39Z</time>
      </trkpt>
      <trkpt lat="44.97915" lon="5.96206">
        <ele>1062</ele>
        <time>2017-12-15T22:50:42Z</time>
      </trkpt>
      <trkpt lat="44.97925" lon="5.96217">
        <ele>1068</ele>
        <time>2017-12-15T22:50:46Z</time>
      </trkpt>
      <trkpt lat="44.97949" lon="5.96258">
        <ele>1071</ele>
        <time>2017-12-15T22:50:53Z</time>
      </trkpt>
      <trkpt lat="44.98005" lon="5.96359">
        <ele>1080</ele>
        <time>2017-12-15T22:51:13Z</time>
      </trkpt>
      <trkpt lat="44.9803" lon="5.96396">
        <ele>1082</ele>
        <time>2017-12-15T22:51:30Z</time>
      </trkpt>
      <trkpt lat="44.9804" lon="5.96404">
        <ele>1083</ele>
        <time>2017-12-15T22:51:33Z</time>
      </trkpt>
      <trkpt lat="44.98052" lon="5.96408">
        <ele>1083</ele>
        <time>2017-12-15T22:51:36Z</time>
      </trkpt>
      <trkpt lat="44.98064" lon="5.96408">
        <ele>1084</ele>
        <time>2017-12-15T22:51:56Z</time>
      </trkpt>
      <trkpt lat="44.98081" lon="5.96405">
        <ele>1085</ele>
        <time>2017-12-15T22:52:05Z</time>
      </trkpt>
      <trkpt lat="44.98092" lon="5.96399">
        <ele>1088</ele>
        <time>2017-12-15T22:52:09Z</time>
      </trkpt>
      <trkpt lat="44.98168" lon="5.96345">
        <ele>1097</ele>
        <time>2017-12-15T22:52:28Z</time>
      </trkpt>
      <trkpt lat="44.98183" lon="5.96332">
        <ele>1099</ele>
        <time>2017-12-15T22:52:33Z</time>
      </trkpt>
      <trkpt lat="44.98193" lon="5.96327">
        <ele>1101</ele>
        <time>2017-12-15T22:52:52Z</time>
      </trkpt>
      <trkpt lat="44.98208" lon="5.96323">
        <ele>1103</ele>
        <time>2017-12-15T22:52:55Z</time>
      </trkpt>
      <trkpt lat="44.98225" lon="5.96326">
        <ele>1105</ele>
        <time>2017-12-15T22:53:04Z</time>
      </trkpt>
      <trkpt lat="44.98241" lon="5.96333">
        <ele>1107</ele>
        <time>2017-12-15T22:53:19Z</time>
      </trkpt>
      <trkpt lat="44.98257" lon="5.96351">
        <ele>1109</ele>
        <time>2017-12-15T22:53:36Z</time>
      </trkpt>
      <trkpt lat="44.98267" lon="5.9637">
        <ele>1108</ele>
        <time>2017-12-15T22:53:55Z</time>
      </trkpt>
      <trkpt lat="44.98284" lon="5.96433">
        <ele>1105</ele>
        <time>2017-12-15T22:54:11Z</time>
      </trkpt>
      <trkpt lat="44.98301" lon="5.96496">
        <ele>1105</ele>
        <time>2017-12-15T22:54:22Z</time>
      </trkpt>
      <trkpt lat="44.98315" lon="5.96527">
        <ele>1104</ele>
        <time>2017-12-15T22:54:42Z</time>
      </trkpt>
      <trkpt lat="44.98363" lon="5.96592">
        <ele>1109</ele>
        <time>2017-12-15T22:54:52Z</time>
      </trkpt>
      <trkpt lat="44.984" lon="5.96639">
        <ele>1112</ele>
        <time>2017-12-15T22:55:02Z</time>
      </trkpt>
      <trkpt lat="44.98566" lon="5.96856">
        <ele>1133</ele>
        <time>2017-12-15T22:55:04Z</time>
      </trkpt>
      <trkpt lat="44.98585" lon="5.9689">
        <ele>1139</ele>
        <time>2017-12-15T22:55:10Z</time>
      </trkpt>
      <trkpt lat="44.98595" lon="5.9692">
        <ele>1138</ele>
        <time>2017-12-15T22:55:22Z</time>
      </trkpt>
      <trkpt lat="44.986" lon="5.96943">
        <ele>1139</ele>
        <time>2017-12-15T22:55:38Z</time>
      </trkpt>
      <trkpt lat="44.98602" lon="5.96995">
        <ele>1138</ele>
        <time>2017-12-15T22:55:54Z</time>
      </trkpt>
      <trkpt lat="44.98606" lon="5.97038">
        <ele>1140</ele>
        <time>2017-12-15T22:56:10Z</time>
      </trkpt>
      <trkpt lat="44.98611" lon="5.9705">
        <ele>1140</ele>
        <time>2017-12-15T22:56:18Z</time>
      </trkpt>
      <trkpt lat="44.98619" lon="5.97056">
        <ele>1140</ele>
        <time>2017-12-15T22:56:30Z</time>
      </trkpt>
      <trkpt lat="44.98627" lon="5.97056">
        <ele>1141</ele>
        <time>2017-12-15T22:56:32Z</time>
      </trkpt>
      <trkpt lat="44.98639" lon="5.97048">
        <ele>1142</ele>
        <time>2017-12-15T22:56:44Z</time>
      </trkpt>
      <trkpt lat="44.98679" lon="5.97002">
        <ele>1148</ele>
        <time>2017-12-15T22:56:50Z</time>
      </trkpt>
      <trkpt lat="44.98789" lon="5.96874">
        <ele>1162</ele>
        <time>2017-12-15T22:57:06Z</time>
      </trkpt>
      <trkpt lat="44.98867" lon="5.96779">
        <ele>1170</ele>
        <time>2017-12-15T22:57:15Z</time>
      </trkpt>
      <trkpt lat="44.98939" lon="5.96695">
        <ele>1180</ele>
        <time>2017-12-15T22:57:23Z</time>
      </trkpt>
      <trkpt lat="44.99023" lon="5.96598">
        <ele>1187</ele>
        <time>2017-12-15T22:57:35Z</time>
      </trkpt>
      <trkpt lat="44.99029" lon="5.96595">
        <ele>1187</ele>
        <time>2017-12-15T22:57:52Z</time>
      </trkpt>
      <trkpt lat="44.99037" lon="5.96597">
        <ele>1188</ele>
        <time>2017-12-15T22:58:10Z</time>
      </trkpt>
      <trkpt lat="44.99045" lon="5.96607">
        <ele>1189</ele>
        <time>2017-12-15T22:58:18Z</time>
      </trkpt>
      <trkpt lat="44.99074" lon="5.96736">
        <ele>1192</ele>
        <time>2017-12-15T22:58:21Z</time>
      </trkpt>
      <trkpt lat="44.99089" lon="5.96806">
        <ele>1198</ele>
        <time>2017-12-15T22:58:25Z</time>
      </trkpt>
      <trkpt lat="44.99106" lon="5.96874">
        <ele>1202</ele>
        <time>2017-12-15T22:58:43Z</time>
      </trkpt>
      <trkpt lat="44.99113" lon="5.96883">
        <ele>1203</ele>
        <time>2017-12-15T22:58:51Z</time>
      </trkpt>
      <trkpt lat="44.99123" lon="5.96885">
        <ele>1203</ele>
        <time>2017-12-15T22:58:54Z</time>
      </trkpt>
      <trkpt lat="44.99136" lon="5.96875">
        <ele>1204</ele>
        <time>2017-12-15T22:59:00Z</time>
      </trkpt>
      <trkpt lat="44.99229" lon="5.96786">
        <ele>1212</ele>
        <time>2017-12-15T22:59:06Z</time>
      </trkpt>
      <trkpt lat="44.99287" lon="5.96733">
        <ele>1219</ele>
        <time>2017-12-15T22:59:16Z</time>
      </trkpt>
      <trkpt lat="44.99334" lon="5.96692">
        <ele>1227</ele>
        <time>2017-12-15T22:59:20Z</time>
      </trkpt>
      <trkpt lat="44.99379" lon="5.96661">
        <ele>1228</ele>
        <time>2017-12-15T22:59:23Z</time>
      </trkpt>
      <trkpt lat="44.99433" lon="5.96622">
        <ele>1235</ele>
        <time>2017-12-15T22:59:25Z</time>
      </trkpt>
      <trkpt lat="44.99459" lon="5.96602">
        <ele>1236</ele>
        <time>2017-12-15T22:59:38Z</time>
      </trkpt>
      <trkpt lat="44.99485" lon="5.96573">
        <ele>1238</ele>
        <time>2017-12-15T22:59:54Z</time>
      </trkpt>
      <trkpt lat="44.99501" lon="5.96554">
        <ele>1244</ele>
        <time>2017-12-15T23:00:02Z</time>
      </trkpt>
      <trkpt lat="44.99512" lon="5.96551">
        <ele>1244</ele>
        <time>2017-12-15T23:00:21Z</time>
      </trkpt>
      <trkpt lat="44.99521" lon="5.96558">
        <ele>1245</ele>
        <time>2017-12-15T23:00:34Z</time>
      </trkpt>
      <trkpt lat="44.99527" lon="5.96571">
        <ele>1245</ele>
        <time>2017-12-15T23:00:54Z</time>
      </trkpt>
      <trkpt lat="44.9953" lon="5.96599">
        <ele>1246</ele>
        <time>2017-12-15T23:00:57Z</time>
      </trkpt>
      <trkpt lat="44.99574" lon="5.96865">
        <ele>1260</ele>
        <time>2017-12-15T23:01:17Z</time>
      </trkpt>
      <trkpt lat="44.99603" lon="5.97031">
        <ele>1274</ele>
        <time>2017-12-15T23:01:23Z</time>
      </trkpt>
      <trkpt lat="44.99616" lon="5.97112">
        <ele>1278</ele>
        <time>2017-12-15T23:01:43Z</time>
      </trkpt>
      <trkpt lat="44.99619" lon="5.97148">
        <ele>1280</ele>
        <time>2017-12-15T23:01:52Z</time>
      </trkpt>
      <trkpt lat="44.9962" lon="5.97187">
        <ele>1284</ele>
        <time>2017-12-15T23:01:54Z</time>
      </trkpt>
      <trkpt lat="44.99624" lon="5.97281">
        <ele>1291</ele>
        <time>2017-12-15T23:02:01Z</time>
      </trkpt>
      <trkpt lat="44.99627" lon="5.97295">
        <ele>1292</ele>
        <time>2017-12-15T23:02:20Z</time>
      </trkpt>
      <trkpt lat="44.99634" lon="5.97301">
        <ele>1292</ele>
        <time>2017-12-15T23:02:29Z</time>
      </trkpt>
      <trkpt lat="44.99638" lon="5.973">
        <ele>1293</ele>
        <time>2017-12-15T23:02:32Z</time>
      </trkpt>
      <trkpt lat="44.99645" lon="5.97295">
        <ele>1293</ele>
        <time>2017-12-15T23:02:51Z</time>
      </trkpt>
      <trkpt lat="44.99659" lon="5.97274">
        <ele>1293</ele>
        <time>2017-12-15T23:03:00Z</time>
      </trkpt>
      <trkpt lat="44.99681" lon="5.97252">
        <ele>1297</ele>
        <time>2017-12-15T23:03:16Z</time>
      </trkpt>
      <trkpt lat="44.99703" lon="5.97234">
        <ele>1295</ele>
        <time>2017-12-15T23:03:25Z</time>
      </trkpt>
      <trkpt lat="44.99757" lon="5.9719">
        <ele>1302</ele>
        <time>2017-12-15T23:03:31Z</time>
      </trkpt>
      <trkpt lat="44.99822" lon="5.97136">
        <ele>1302</ele>
        <time>2017-12-15T23:03:35Z</time>
      </trkpt>
      <trkpt lat="44.99878" lon="5.97089">
        <ele>1311</ele>
        <time>2017-12-15T23:03:54Z</time>
      </trkpt>
      <trkpt lat="44.9992" lon="5.97049">
        <ele>1316</ele>
        <time>2017-12-15T23:04:02Z</time>
      </trkpt>
      <trkpt lat="44.99985" lon="5.96979">
        <ele>1318</ele>
        <time>2017-12-15T23:04:05Z</time>
      </trkpt>
      <trkpt lat="45.00014" lon="5.9695">
        <ele>1324</ele>
        <time>2017-12-15T23:04:17Z</time>
      </trkpt>
      <trkpt lat="45.00035" lon="5.96932">
        <ele>1325</ele>
        <time>2017-12-15T23:04:29Z</time>
      </trkpt>
      <trkpt lat="45.00058" lon="5.96915">
        <ele>1324</ele>
        <time>2017-12-15T23:04:43Z</time>
      </trkpt>
      <trkpt lat="45.001" lon="5.96893">
        <ele>1332</ele>
        <time>2017-12-15T23:04:58Z</time>
      </trkpt>
      <trkpt lat="45.00152" lon="5.96866">
        <ele>1334</ele>
        <time>2017-12-15T23:05:13Z</time>
      </trkpt>
      <trkpt lat="45.00307" lon="5.96787">
        <ele>1350</ele>
        <time>2017-12-15T23:05:25Z</time>
      </trkpt>
      <trkpt lat="45.00416" lon="5.96729">
        <ele>1354</ele>
        <time>2017-12-15T23:05:45Z</time>
      </trkpt>
      <trkpt lat="45.00447" lon="5.96714">
        <ele>1360</ele>
        <time>2017-12-15T23:05:56Z</time>
      </trkpt>
      <trkpt lat="45.0047" lon="5.96704">
        <ele>1360</ele>
        <time>2017-12-15T23:06:09Z</time>
      </trkpt>
      <trkpt lat="45.00518" lon="5.96693">
        <ele>1366</ele>
        <time>2017-12-15T23:06:16Z</time>
      </trkpt>
      <trkpt lat="45.00538" lon="5.96692">
        <ele>1366</ele>
        <time>2017-12-15T23:06:33Z</time>
      </trkpt>
      <trkpt lat="45.00565" lon="5.96695">
        <ele>1367</ele>
        <time>2017-12-15T23:06:38Z</time>
      </trkpt>
      <trkpt lat="45.00658" lon="5.96711">
        <ele>1371</ele>
        <time>2017-12-15T23:06:54Z</time>
      </trkpt>
      <trkpt lat="45.00756" lon="5.96731">
        <ele>1372</ele>
        <time>2017-12-15T23:07:10Z</time>
      </trkpt>
      <trkpt lat="45.00796" lon="5.96736">
        <ele>1372</ele>
        <time>2017-12-15T23:07:18Z</time>
      </trkpt>
      <trkpt lat="45.00883" lon="5.96754">
        <ele>1371</ele>
        <time>2017-12-15T23:07:20Z</time>
      </trkpt>
      <trkpt lat="45.01062" lon="5.96786">
        <ele>1374</ele>
        <time>2017-12-15T23:07:32Z</time>
      </trkpt>
      <trkpt lat="45.01195" lon="5.96811">
        <ele>1367</ele>
        <time>2017-12-15T23:07:47Z</time>
      </trkpt>
      <trkpt lat="45.01238" lon="5.96819">
        <ele>1366</ele>
        <time>2017-12-15T23:07:53Z</time>
      </trkpt>
      <trkpt lat="45.01291" lon="5.96833">
        <ele>1362</ele>
        <time>2017-12-15T23:08:13Z</time>
      </trkpt>
      <trkpt lat="45.01391" lon="5.96863">
        <ele>1358</ele>
        <time>2017-12-15T23:08:27Z</time>
      </trkpt>
      <trkpt lat="45.01538" lon="5.96911">
        <ele>1349</ele>
        <time>2017-12-15T23:08:40Z</time>
      </trkpt>
      <trkpt lat="45.01562" lon="5.96922">
        <ele>1346</ele>
        <time>2017-12-15T23:08:55Z</time>
      </trkpt>
      <trkpt lat="45.01581" lon="5.96933">
        <ele>1345</ele>
        <time>2017-12-15T23:09:12Z</time>
      </trkpt>
      <trkpt lat="45.01644" lon="5.9698">
        <ele>1339</ele>
        <time>2017-12-15T23:09:28Z</time>
      </trkpt>
      <trkpt lat="45.01727" lon="5.9705">
        <ele>1332</ele>
        <time>2017-12-15T23:09:31Z</time>
      </trkpt>
      <trkpt lat="45.01792" lon="5.97105">
        <ele>1327</ele>
        <time>2017-12-15T23:09:48Z</time>
      </trkpt>
      <trkpt lat="45.01836" lon="5.97139">
        <ele>1317</ele>
        <time>2017-12-15T23:09:52Z</time>
      </trkpt>
      <trkpt lat="45.01884" lon="5.9718">
        <ele>1314</ele>
        <time>2017-12-15T23:10:01Z</time>
      </trkpt>
      <trkpt lat="45.01895" lon="5.97197">
        <ele>1313</ele>
        <time>2017-12-15T23:10:15Z</time>
      </trkpt>
      <trkpt lat="45.01925" lon="5.97261">
        <ele>1312</ele>
        <time>2017-12-15T23:10:22Z</time>
      </trkpt>
      <trkpt lat="45.01941" lon="5.97288">
        <ele>1314</ele>
        <time>2017-12-15T23:10:38Z</time>
      </trkpt>
      <trkpt lat="45.01949" lon="5.97296">
        <ele>1315</ele>
        <time>2017-12-15T23:10:43Z</time>
      </trkpt>
      <trkpt lat="45.01979" lon="5.9731">
        <ele>1315</ele>
        <time>2017-12-15T23:11:01Z</time>
      </trkpt>
      <trkpt lat="45.02039" lon="5.97322">
        <ele>1303</ele>
        <time>2017-12-15T23:11:11Z</time>
      </trkpt>
      <trkpt lat="45.02119" lon="5.97331">
        <ele>1292</ele>
        <time>2017-12-15T23:11:28Z</time>
      </trkpt>
      <trkpt lat="45.02184" lon="5.9734">
        <ele>1297</ele>
        <time>2017-12-15T23:11:40Z</time>
      </trkpt>
      <trkpt lat="45.0228" lon="5.97351">
        <ele>1286</ele>
        <time>2017-12-15T23:11:50Z</time>
      </trkpt>
      <trkpt lat="45.02312" lon="5.97355">
        <ele>1282</ele>
        <time>2017-12-15T23:12:04Z</time>
      </trkpt>
      <trkpt lat="45.02328" lon="5.9736">
        <ele>1281</ele>
        <time>2017-12-15T23:12:11Z</time>
      </trkpt>
      <trkpt lat="45.02428" lon="5.97408">
        <ele>1269</ele>
        <time>2017-12-15T23:12:18Z</time>
      </trkpt>
      <trkpt lat="45.02493" lon="5.97434">
        <ele>1274</ele>
        <time>2017-12-15T23:12:27Z</time>
      </trkpt>
      <trkpt lat="45.02642" lon="5.97474">
        <ele>1255</ele>
        <time>2017-12-15T23:12:37Z</time>
      </trkpt>
      <trkpt lat="45.02676" lon="5.97476">
        <ele>1250</ele>
        <time>2017-12-15T23:12:52Z</time>
      </trkpt>
      <trkpt lat="45.02751" lon="5.97474">
        <ele>1237</ele>
        <time>2017-12-15T23:12:57Z</time>
      </trkpt>
      <trkpt lat="45.0277" lon="5.97476">
        <ele>1236</ele>
        <time>2017-12-15T23:13:10Z</time>
      </trkpt>
      <trkpt lat="45.02794" lon="5.97487">
        <ele>1234</ele>
        <time>2017-12-15T23:13:24Z</time>
      </trkpt>
      <trkpt lat="45.02985" lon="5.97582">
        <ele>1225</ele>
        <time>2017-12-15T23:13:35Z</time>
      </trkpt>
      <trkpt lat="45.03009" lon="5.97604">
        <ele>1231</ele>
        <time>2017-12-15T23:13:50Z</time>
      </trkpt>
      <trkpt lat="45.03014" lon="5.97606">
        <ele>1231</ele>
        <time>2017-12-15T23:14:01Z</time>
      </trkpt>
      <trkpt lat="45.03017" lon="5.97603">
        <ele>1230</ele>
        <time>2017-12-15T23:14:05Z</time>
      </trkpt>
      <trkpt lat="45.03018" lon="5.97598">
        <ele>1230</ele>
        <time>2017-12-15T23:14:13Z</time>
      </trkpt>
      <trkpt lat="45.03018" lon="5.97594">
        <ele>1229</ele>
        <time>2017-12-15T23:14:26Z</time>
      </trkpt>
      <trkpt lat="45.03012" lon="5.97586">
        <ele>1229</ele>
        <time>2017-12-15T23:14:28Z</time>
      </trkpt>
      <trkpt lat="45.0297" lon="5.97553">
        <ele>1220</ele>
        <time>2017-12-15T23:14:31Z</time>
      </trkpt>
      <trkpt lat="45.02923" lon="5.97508">
        <ele>1214</ele>
        <time>2017-12-15T23:14:37Z</time>
      </trkpt>
      <trkpt lat="45.02835" lon="5.97418">
        <ele>1212</ele>
        <time>2017-12-15T23:14:47Z</time>
      </trkpt>
      <trkpt lat="45.02767" lon="5.97329">
        <ele>1201</ele>
        <time>2017-12-15T23:14:53Z</time>
      </trkpt>
      <trkpt lat="45.02745" lon="5.97304">
        <ele>1204</ele>
        <time>2017-12-15T23:15:08Z</time>
      </trkpt>
      <trkpt lat="45.02744" lon="5.97298">
        <ele>1204</ele>
        <time>2017-12-15T23:15:27Z</time>
      </trkpt>
      <trkpt lat="45.02748" lon="5.97291">
        <ele>1204</ele>
        <time>2017-12-15T23:15:31Z</time>
      </trkpt>
      <trkpt lat="45.02754" lon="5.97291">
        <ele>1199</ele>
        <time>2017-12-15T23:15:51Z</time>
      </trkpt>
      <trkpt lat="45.0276" lon="5.97295">
        <ele>1199</ele>
        <time>2017-12-15T23:16:03Z</time>
      </trkpt>
      <trkpt lat="45.02783" lon="5.97314">
        <ele>1199</ele>
        <time>2017-12-15T23:16:09Z</time>
      </trkpt>
      <trkpt lat="45.02814" lon="5.97332">
        <ele>1198</ele>
        <time>2017-12-15T23:16:28Z</time>
      </trkpt>
      <trkpt lat="45.02845" lon="5.97347">
        <ele>1197</ele>
        <time>2017-12-15T23:16:30Z</time>
      </trkpt>
      <trkpt lat="45.0287" lon="5.9736">
        <ele>1196</ele>
        <time>2017-12-15T23:16:41Z</time>
      </trkpt>
      <trkpt lat="45.02893" lon="5.9738">
        <ele>1195</ele>
        <time>2017-12-15T23:16:46Z</time>
      </trkpt>
      <trkpt lat="45.02918" lon="5.97399">
        <ele>1186</ele>
        <time>2017-12-15T23:16:59Z</time>
      </trkpt>
      <trkpt lat="45.02973" lon="5.97421">
        <ele>1186</ele>
        <time>2017-12-15T23:17:18Z</time>
      </trkpt>
      <trkpt lat="45.03002" lon="5.97439">
        <ele>1176</ele>
        <time>2017-12-15T23:17:27Z</time>
      </trkpt>
      <trkpt lat="45.03027" lon="5.97457">
        <ele>1176</ele>
        <time>2017-12-15T23:17:35Z</time>
      </trkpt>
      <trkpt lat="45.03061" lon="5.97481">
        <ele>1175</ele>
        <time>2017-12-15T23:17:47Z</time>
      </trkpt>
      <trkpt lat="45.03083" lon="5.97492">
        <ele>1175</ele>
        <time>2017-12-15T23:17:52Z</time>
      </trkpt>
      <trkpt lat="45.03106" lon="5.97497">
        <ele>1166</ele>
        <time>2017-12-15T23:18:08Z</time>
      </trkpt>
      <trkpt lat="45.0314" lon="5.97499">
        <ele>1162</ele>
        <time>2017-12-15T23:18:19Z</time>
      </trkpt>
      <trkpt lat="45.03164" lon="5.975">
        <ele>1163</ele>
        <time>2017-12-15T23:18:23Z</time>
      </trkpt>
      <trkpt lat="45.03185" lon="5.97503">
        <ele>1165</ele>
        <time>2017-12-15T23:18:28Z</time>
      </trkpt>
      <trkpt lat="45.03207" lon="5.97508">
        <ele>1165</ele>
        <time>2017-12-15T23:18:40Z</time>
      </trkpt>
      <trkpt lat="45.03217" lon="5.97508">
        <ele>1164</ele>
        <time>2017-12-15T23:18:47Z</time>
      </trkpt>
      <trkpt lat="45.03248" lon="5.975">
        <ele>1154</ele>
        <time>2017-12-15T23:19:07Z</time>
      </trkpt>
      <trkpt lat="45.03265" lon="5.97497">
        <ele>1149</ele>
        <time>2017-12-15T23:19:10Z</time>
      </trkpt>
      <trkpt lat="45.03276" lon="5.97492">
        <ele>1147</ele>
        <time>2017-12-15T23:19:12Z</time>
      </trkpt>
      <trkpt lat="45.03286" lon="5.97483">
        <ele>1146</ele>
        <time>2017-12-15T23:19:25Z</time>
      </trkpt>
      <trkpt lat="45.03321" lon="5.97442">
        <ele>1142</ele>
        <time>2017-12-15T23:19:33Z</time>
      </trkpt>
      <trkpt lat="45.03336" lon="5.97427">
        <ele>1138</ele>
        <time>2017-12-15T23:19:43Z</time>
      </trkpt>
      <trkpt lat="45.03347" lon="5.97421">
        <ele>1138</ele>
        <time>2017-12-15T23:19:55Z</time>
      </trkpt>
      <trkpt lat="45.03351" lon="5.9742">
        <ele>1138</ele>
        <time>2017-12-15T23:20:09Z</time>
      </trkpt>
      <trkpt lat="45.03388" lon="5.97414">
        <ele>1132</ele>
        <time>2017-12-15T23:20:19Z</time>
      </trkpt>
      <trkpt lat="45.03424" lon="5.9741">
        <ele>1129</ele>
        <time>2017-12-15T23:20:27Z</time>
      </trkpt>
      <trkpt lat="45.03445" lon="5.97414">
        <ele>1124</ele>
        <time>2017-12-15T23:20:41Z</time>
      </trkpt>
      <trkpt lat="45.03469" lon="5.97426">
        <ele>1126</ele>
        <time>2017-12-15T23:21:01Z</time>
      </trkpt>
      <trkpt lat="45.03493" lon="5.97445">
        <ele>1126</ele>
        <time>2017-12-15T23:21:07Z</time>
      </trkpt>
      <trkpt lat="45.03499" lon="5.97453">
        <ele>1126</ele>
        <time>2017-12-15T23:21:15Z</time>
      </trkpt>
      <trkpt lat="45.03503" lon="5.97465">
        <ele>1115</ele>
        <time>2017-12-15T23:21:31Z</time>
      </trkpt>
      <trkpt lat="45.03503" lon="5.97477">
        <ele>1118</ele>
        <time>2017-12-15T23:21:43Z</time>
      </trkpt>
      <trkpt lat="45.03503" lon="5.97509">
        <ele>1127</ele>
        <time>2017-12-15T23:21:59Z</time>
      </trkpt>
      <trkpt lat="45.03505" lon="5.9752">
        <ele>1126</ele>
        <time>2017-12-15T23:22:18Z</time>
      </trkpt>
      <trkpt lat="45.03511" lon="5.97538">
        <ele>1127</ele>
        <time>2017-12-15T23:22:21Z</time>
      </trkpt>
      <trkpt lat="45.03532" lon="5.97569">
        <ele>1127</ele>
        <time>2017-12-15T23:22:29Z</time>
      </trkpt>
      <trkpt lat="45.03551" lon="5.97592">
        <ele>1136</ele>
        <time>2017-12-15T23:22:38Z</time>
      </trkpt>
      <trkpt lat="45.03576" lon="5.97614">
        <ele>1136</ele>
        <time>2017-12-15T23:22:42Z</time>
      </trkpt>
      <trkpt lat="45.0362" lon="5.97647">
        <ele>1122</ele>
        <time>2017-12-15T23:22:54Z</time>
      </trkpt>
      <trkpt lat="45.03646" lon="5.97663">
        <ele>1120</ele>
        <time>2017-12-15T23:23:14Z</time>
      </trkpt>
      <trkpt lat="45.03671" lon="5.97683">
        <ele>1118</ele>
        <time>2017-12-15T23:23:31Z</time>
      </trkpt>
      <trkpt lat="45.03704" lon="5.97709">
        <ele>1115</ele>
        <time>2017-12-15T23:23:41Z</time>
      </trkpt>
      <trkpt lat="45.03748" lon="5.97739">
        <ele>1107</ele>
        <time>2017-12-15T23:23:54Z</time>
      </trkpt>
      <trkpt lat="45.03759" lon="5.97749">
        <ele>1095</ele>
        <time>2017-12-15T23:24:06Z</time>
      </trkpt>
      <trkpt lat="45.03762" lon="5.97756">
        <ele>1092</ele>
        <time>2017-12-15T23:24:24Z</time>
      </trkpt>
      <trkpt lat="45.03762" lon="5.97771">
        <ele>1086</ele>
        <time>2017-12-15T23:24:31Z</time>
      </trkpt>
      <trkpt lat="45.03754" lon="5.97788">
        <ele>1084</ele>
        <time>2017-12-15T23:24:44Z</time>
      </trkpt>
      <trkpt lat="45.03738" lon="5.97805">
        <ele>1110</ele>
        <time>2017-12-15T23:24:47Z</time>
      </trkpt>
      <trkpt lat="45.0372" lon="5.97821">
        <ele>1113</ele>
        <time>2017-12-15T23:24:55Z</time>
      </trkpt>
      <trkpt lat="45.03709" lon="5.97825">
        <ele>1118</ele>
        <time>2017-12-15T23:24:59Z</time>
      </trkpt>
      <trkpt lat="45.03706" lon="5.97829">
        <ele>1119</ele>
        <time>2017-12-15T23:25:17Z</time>
      </trkpt>
      <trkpt lat="45.03705" lon="5.97837">
        <ele>1110</ele>
        <time>2017-12-15T23:25:26Z</time>
      </trkpt>
      <trkpt lat="45.03709" lon="5.97842">
        <ele>1108</ele>
        <time>2017-12-15T23:25:33Z</time>
      </trkpt>
      <trkpt lat="45.03714" lon="5.97841">
        <ele>1106</ele>
        <time>2017-12-15T23:25:42Z</time>
      </trkpt>
      <trkpt lat="45.03735" lon="5.97823">
        <ele>1106</ele>
        <time>2017-12-15T23:25:53Z</time>
      </trkpt>
      <trkpt lat="45.03779" lon="5.97791">
        <ele>1078</ele>
        <time>2017-12-15T23:26:01Z</time>
      </trkpt>
      <trkpt lat="45.03792" lon="5.97775">
        <ele>1076</ele>
        <time>2017-12-15T23:26:12Z</time>
      </trkpt>
      <trkpt lat="45.03795" lon="5.97768">
        <ele>1076</ele>
        <time>2017-12-15T23:26:31Z</time>
      </trkpt>
      <trkpt lat="45.03797" lon="5.97753">
        <ele>1076</ele>
        <time>2017-12-15T23:26:33Z</time>
      </trkpt>
      <trkpt lat="45.03795" lon="5.97746">
        <ele>1077</ele>
        <time>2017-12-15T23:26:41Z</time>
      </trkpt>
      <trkpt lat="45.0379" lon="5.97733">
        <ele>1078</ele>
        <time>2017-12-15T23:26:58Z</time>
      </trkpt>
      <trkpt lat="45.03766" lon="5.97701">
        <ele>1081</ele>
        <time>2017-12-15T23:27:16Z</time>
      </trkpt>
      <trkpt lat="45.03757" lon="5.97686">
        <ele>1083</ele>
        <time>2017-12-15T23:27:29Z</time>
      </trkpt>
      <trkpt lat="45.03748" lon="5.97663">
        <ele>1090</ele>
        <time>2017-12-15T23:27:41Z</time>
      </trkpt>
      <trkpt lat="45.03743" lon="5.97638">
        <ele>1089</ele>
        <time>2017-12-15T23:27:59Z</time>
      </trkpt>
      <trkpt lat="45.0374" lon="5.97613">
        <ele>1085</ele>
        <time>2017-12-15T23:28:18Z</time>
      </trkpt>
      <trkpt lat="45.03741" lon="5.97551">
        <ele>1073</ele>
        <time>2017-12-15T23:28:24Z</time>
      </trkpt>
      <trkpt lat="45.03739" lon="5.9752">
        <ele>1070</ele>
        <time>2017-12-15T23:28:31Z</time>
      </trkpt>
      <trkpt lat="45.03722" lon="5.97477">
        <ele>1070</ele>
        <time>2017-12-15T23:28:48Z</time>
      </trkpt>
      <trkpt lat="45.03721" lon="5.97464">
        <ele>1070</ele>
        <time>2017-12-15T23:29:04Z</time>
      </trkpt>
      <trkpt lat="45.03725" lon="5.97457">
        <ele>1070</ele>
        <time>2017-12-15T23:29:09Z</time>
      </trkpt>
      <trkpt lat="45.03729" lon="5.97456">
        <ele>1070</ele>
        <time>2017-12-15T23:29:13Z</time>
      </trkpt>
      <trkpt lat="45.03734" lon="5.9746">
        <ele>1070</ele>
        <time>2017-12-15T23:29:30Z</time>
      </trkpt>
      <trkpt lat="45.03742" lon="5.97474">
        <ele>1069</ele>
        <time>2017-12-15T23:29:38Z</time>
      </trkpt>
      <trkpt lat="45.03767" lon="5.9754">
        <ele>1063</ele>
        <time>2017-12-15T23:29:48Z</time>
      </trkpt>
      <trkpt lat="45.03813" lon="5.97648">
        <ele>1062</ele>
        <time>2017-12-15T23:29:59Z</time>
      </trkpt>
      <trkpt lat="45.03839" lon="5.97683">
        <ele>1049</ele>
        <time>2017-12-15T23:30:07Z</time>
      </trkpt>
      <trkpt lat="45.03881" lon="5.97734">
        <ele>1044</ele>
        <time>2017-12-15T23:30:17Z</time>
      </trkpt>
      <trkpt lat="45.03889" lon="5.97749">
        <ele>1042</ele>
        <time>2017-12-15T23:30:37Z</time>
      </trkpt>
      <trkpt lat="45.03894" lon="5.97756">
        <ele>1039</ele>
        <time>2017-12-15T23:30:46Z</time>
      </trkpt>
      <trkpt lat="45.039" lon="5.97762">
        <ele>1038</ele>
        <time>2017-12-15T23:30:59Z</time>
      </trkpt>
      <trkpt lat="45.0393" lon="5.9778">
        <ele>1036</ele>
        <time>2017-12-15T23:31:06Z</time>
      </trkpt>
      <trkpt lat="45.03938" lon="5.97799">
        <ele>1036</ele>
        <time>2017-12-15T23:31:09Z</time>
      </trkpt>
      <trkpt lat="45.03944" lon="5.97814">
        <ele>1036</ele>
        <time>2017-12-15T23:31:27Z</time>
      </trkpt>
      <trkpt lat="45.03954" lon="5.97821">
        <ele>1037</ele>
        <time>2017-12-15T23:31:29Z</time>
      </trkpt>
      <trkpt lat="45.03983" lon="5.97833">
        <ele>1039</ele>
        <time>2017-12-15T23:31:36Z</time>
      </trkpt>
      <trkpt lat="45.03998" lon="5.97841">
        <ele>1037</ele>
        <time>2017-12-15T23:31:40Z</time>
      </trkpt>
      <trkpt lat="45.0401" lon="5.97852">
        <ele>1040</ele>
        <time>2017-12-15T23:31:47Z</time>
      </trkpt>
      <trkpt lat="45.04035" lon="5.97879">
        <ele>1040</ele>
        <time>2017-12-15T23:32:02Z</time>
      </trkpt>
      <trkpt lat="45.04048" lon="5.97902">
        <ele>1039</ele>
        <time>2017-12-15T23:32:12Z</time>
      </trkpt>
      <trkpt lat="45.04056" lon="5.97932">
        <ele>1027</ele>
        <time>2017-12-15T23:32:25Z</time>
      </trkpt>
      <trkpt lat="45.04073" lon="5.97967">
        <ele>1025</ele>
        <time>2017-12-15T23:32:40Z</time>
      </trkpt>
      <trkpt lat="45.04078" lon="5.97989">
        <ele>1024</ele>
        <time>2017-12-15T23:32:49Z</time>
      </trkpt>
      <trkpt lat="45.04079" lon="5.9804">
        <ele>1019</ele>
        <time>2017-12-15T23:32:59Z</time>
      </trkpt>
      <trkpt lat="45.04081" lon="5.98065">
        <ele>1018</ele>
        <time>2017-12-15T23:33:11Z</time>
      </trkpt>
      <trkpt lat="45.04089" lon="5.98089">
        <ele>1018</ele>
        <time>2017-12-15T23:33:20Z</time>
      </trkpt>
      <trkpt lat="45.0412" lon="5.98127">
        <ele>1023</ele>
        <time>2017-12-15T23:33:31Z</time>
      </trkpt>
      <trkpt lat="45.04172" lon="5.98183">
        <ele>1024</ele>
        <time>2017-12-15T23:33:42Z</time>
      </trkpt>
      <trkpt lat="45.042" lon="5.98215">
        <ele>1022</ele>
        <time>2017-12-15T23:34:00Z</time>
      </trkpt>
      <trkpt lat="45.04243" lon="5.98254">
        <ele>1017</ele>
        <time>2017-12-15T23:34:16Z</time>
      </trkpt>
      <trkpt lat="45.04284" lon="5.98293">
        <ele>1018</ele>
        <time>2017-12-15T23:34:34Z</time>
      </trkpt>
      <trkpt lat="45.04302" lon="5.98308">
        <ele>1018</ele>
        <time>2017-12-15T23:34:42Z</time>
      </trkpt>
      <trkpt lat="45.04314" lon="5.98315">
        <ele>1017</ele>
        <time>2017-12-15T23:35:00Z</time>
      </trkpt>
      <trkpt lat="45.04327" lon="5.98318">
        <ele>1015</ele>
        <time>2017-12-15T23:35:07Z</time>
      </trkpt>
      <trkpt lat="45.04354" lon="5.98323">
        <ele>1031</ele>
        <time>2017-12-15T23:35:09Z</time>
      </trkpt>
      <trkpt lat="45.04373" lon="5.98325">
        <ele>1037</ele>
        <time>2017-12-15T23:35:13Z</time>
      </trkpt>
      <trkpt lat="45.04386" lon="5.9833">
        <ele>1039</ele>
        <time>2017-12-15T23:35:16Z</time>
      </trkpt>
      <trkpt lat="45.04399" lon="5.98342">
        <ele>1021</ele>
        <time>2017-12-15T23:35:27Z</time>
      </trkpt>
      <trkpt lat="45.04411" lon="5.98361">
        <ele>1016</ele>
        <time>2017-12-15T23:35:32Z</time>
      </trkpt>
      <trkpt lat="45.04433" lon="5.984">
        <ele>1020</ele>
        <time>2017-12-15T23:35:52Z</time>
      </trkpt>
      <trkpt lat="45.04457" lon="5.9843">
        <ele>1002</ele>
        <time>2017-12-15T23:36:03Z</time>
      </trkpt>
      <trkpt lat="45.04475" lon="5.98444">
        <ele>1003</ele>
        <time>2017-12-15T23:36:17Z</time>
      </trkpt>
      <trkpt lat="45.04498" lon="5.98457">
        <ele>1002</ele>
        <time>2017-12-15T23:36:37Z</time>
      </trkpt>
      <trkpt lat="45.04526" lon="5.98463">
        <ele>1011</ele>
        <time>2017-12-15T23:36:48Z</time>
      </trkpt>
      <trkpt lat="45.04675" lon="5.98462">
        <ele>1015</ele>
        <time>2017-12-15T23:37:01Z</time>
      </trkpt>
      <trkpt lat="45.04726" lon="5.98465">
        <ele>1013</ele>
        <time>2017-12-15T23:37:17Z</time>
      </trkpt>
      <trkpt lat="45.04734" lon="5.98467">
        <ele>1012</ele>
        <time>2017-12-15T23:37:35Z</time>
      </trkpt>
      <trkpt lat="45.04762" lon="5.98479">
        <ele>1004</ele>
        <time>2017-12-15T23:37:48Z</time>
      </trkpt>
      <trkpt lat="45.04796" lon="5.98494">
        <ele>1004</ele>
        <time>2017-12-15T23:37:56Z</time>
      </trkpt>
      <trkpt lat="45.04814" lon="5.98496">
        <ele>1002</ele>
        <time>2017-12-15T23:38:12Z</time>
      </trkpt>
      <trkpt lat="45.04841" lon="5.98491">
        <ele>1000</ele>
        <time>2017-12-15T23:38:21Z</time>
      </trkpt>
      <trkpt lat="45.04857" lon="5.98488">
        <ele>1004</ele>
        <time>2017-12-15T23:38:39Z</time>
      </trkpt>
      <trkpt lat="45.04872" lon="5.98493">
        <ele>1005</ele>
        <time>2017-12-15T23:38:49Z</time>
      </trkpt>
      <trkpt lat="45.04888" lon="5.98509">
        <ele>982</ele>
        <time>2017-12-15T23:39:07Z</time>
      </trkpt>
      <trkpt lat="45.04907" lon="5.98532">
        <ele>979</ele>
        <time>2017-12-15T23:39:12Z</time>
      </trkpt>
      <trkpt lat="45.04916" lon="5.98538">
        <ele>977</ele>
        <time>2017-12-15T23:39:25Z</time>
      </trkpt>
      <trkpt lat="45.04922" lon="5.98539">
        <ele>981</ele>
        <time>2017-12-15T23:39:34Z</time>
      </trkpt>
      <trkpt lat="45.04932" lon="5.9854">
        <ele>981</ele>
        <time>2017-12-15T23:39:45Z</time>
      </trkpt>
      <trkpt lat="45.04957" lon="5.98535">
        <ele>982</ele>
        <time>2017-12-15T23:39:53Z</time>
      </trkpt>
      <trkpt lat="45.04972" lon="5.98536">
        <ele>982</ele>
        <time>2017-12-15T23:40:12Z</time>
      </trkpt>
      <trkpt lat="45.04985" lon="5.98542">
        <ele>982</ele>
        <time>2017-12-15T23:40:20Z</time>
      </trkpt>
      <trkpt lat="45.05002" lon="5.98554">
        <ele>986</ele>
        <time>2017-12-15T23:40:28Z</time>
      </trkpt>
      <trkpt lat="45.05012" lon="5.98569">
        <ele>983</ele>
        <time>2017-12-15T23:40:34Z</time>
      </trkpt>
      <trkpt lat="45.05016" lon="5.98583">
        <ele>982</ele>
        <time>2017-12-15T23:40:52Z</time>
      </trkpt>
      <trkpt lat="45.05016" lon="5.98594">
        <ele>973</ele>
        <time>2017-12-15T23:41:03Z</time>
      </trkpt>
      <trkpt lat="45.05013" lon="5.98628">
        <ele>969</ele>
        <time>2017-12-15T23:41:13Z</time>
      </trkpt>
      <trkpt lat="45.0502" lon="5.98661">
        <ele>963</ele>
        <time>2017-12-15T23:41:21Z</time>
      </trkpt>
      <trkpt lat="45.05025" lon="5.9868">
        <ele>952</ele>
        <time>2017-12-15T23:41:33Z</time>
      </trkpt>
      <trkpt lat="45.0503" lon="5.98688">
        <ele>952</ele>
        <time>2017-12-15T23:41:40Z</time>
      </trkpt>
      <trkpt lat="45.05043" lon="5.98704">
        <ele>953</ele>
        <time>2017-12-15T23:41:59Z</time>
      </trkpt>
      <trkpt lat="45.05057" lon="5.98712">
        <ele>954</ele>
        <time>2017-12-15T23:42:05Z</time>
      </trkpt>
      <trkpt lat="45.05073" lon="5.98719">
        <ele>955</ele>
        <time>2017-12-15T23:42:14Z</time>
      </trkpt>
      <trkpt lat="45.05114" lon="5.98717">
        <ele>970</ele>
        <time>2017-12-15T23:42:31Z</time>
      </trkpt>
      <trkpt lat="45.05128" lon="5.9872">
        <ele>971</ele>
        <time>2017-12-15T23:42:36Z</time>
      </trkpt>
      <trkpt lat="45.05133" lon="5.98724">
        <ele>971</ele>
        <time>2017-12-15T23:42:42Z</time>
      </trkpt>
      <trkpt lat="45.05138" lon="5.98731">
        <ele>970</ele>
        <time>2017-12-15T23:42:58Z</time>
      </trkpt>
      <trkpt lat="45.05141" lon="5.98742">
        <ele>969</ele>
        <time>2017-12-15T23:43:03Z</time>
      </trkpt>
      <trkpt lat="45.05143" lon="5.98765">
        <ele>958</ele>
        <time>2017-12-15T23:43:09Z</time>
      </trkpt>
      <trkpt lat="45.05141" lon="5.98805">
        <ele>954</ele>
        <time>2017-12-15T23:43:13Z</time>
      </trkpt>
      <trkpt lat="45.05142" lon="5.98824">
        <ele>954</ele>
        <time>2017-12-15T23:43:20Z</time>
      </trkpt>
      <trkpt lat="45.05148" lon="5.98852">
        <ele>946</ele>
        <time>2017-12-15T23:43:31Z</time>
      </trkpt>
      <trkpt lat="45.05166" lon="5.98903">
        <ele>943</ele>
        <time>2017-12-15T23:43:42Z</time>
      </trkpt>
      <trkpt lat="45.05178" lon="5.98919">
        <ele>944</ele>
        <time>2017-12-15T23:44:02Z</time>
      </trkpt>
      <trkpt lat="45.052" lon="5.98942">
        <ele>942</ele>
        <time>2017-12-15T23:44:13Z</time>
      </trkpt>
      <trkpt lat="45.05224" lon="5.98971">
        <ele>940</ele>
        <time>2017-12-15T23:44:23Z</time>
      </trkpt>
      <trkpt lat="45.05243" lon="5.98983">
        <ele>938</ele>
        <time>2017-12-15T23:44:43Z</time>
      </trkpt>
      <trkpt lat="45.05255" lon="5.98986">
        <ele>939</ele>
        <time>2017-12-15T23:44:46Z</time>
      </trkpt>
      <trkpt lat="45.05273" lon="5.98985">
        <ele>941</ele>
        <time>2017-12-15T23:44:55Z</time>
      </trkpt>
      <trkpt lat="45.0531" lon="5.98978">
        <ele>940</ele>
        <time>2017-12-15T23:45:04Z</time>
      </trkpt>
      <trkpt lat="45.0534" lon="5.98982">
        <ele>933</ele>
        <time>2017-12-15T23:45:12Z</time>
      </trkpt>
      <trkpt lat="45.05348" lon="5.98979">
        <ele>932</ele>
        <time>2017-12-15T23:45:14Z</time>
      </trkpt>
      <trkpt lat="45.05359" lon="5.9897">
        <ele>932</ele>
        <time>2017-12-15T23:45:26Z</time>
      </trkpt>
      <trkpt lat="45.05384" lon="5.98947">
        <ele>932</ele>
        <time>2017-12-15T23:45:42Z</time>
      </trkpt>
      <trkpt lat="45.05418" lon="5.98927">
        <ele>928</ele>
        <time>2017-12-15T23:45:54Z</time>
      </trkpt>
      <trkpt lat="45.05462" lon="5.98903">
        <ele>935</ele>
        <time>2017-12-15T23:46:00Z</time>
      </trkpt>
      <trkpt lat="45.0548" lon="5.98899">
        <ele>933</ele>
        <time>2017-12-15T23:46:09Z</time>
      </trkpt>
      <trkpt lat="45.05502" lon="5.98907">
        <ele>929</ele>
        <time>2017-12-15T23:46:17Z</time>
      </trkpt>
      <trkpt lat="45.05548" lon="5.98928">
        <ele>927</ele>
        <time>2017-12-15T23:46:37Z</time>
      </trkpt>
      <trkpt lat="45.05569" lon="5.98938">
        <ele>929</ele>
        <time>2017-12-15T23:46:44Z</time>
      </trkpt>
      <trkpt lat="45.05575" lon="5.98945">
        <ele>928</ele>
        <time>2017-12-15T23:46:46Z</time>
      </trkpt>
      <trkpt lat="45.05583" lon="5.98962">
        <ele>927</ele>
        <time>2017-12-15T23:46:52Z</time>
      </trkpt>
      <trkpt lat="45.05588" lon="5.98987">
        <ele>937</ele>
        <time>2017-12-15T23:47:09Z</time>
      </trkpt>
      <trkpt lat="45.05588" lon="5.99008">
        <ele>936</ele>
        <time>2017-12-15T23:47:18Z</time>
      </trkpt>
      <trkpt lat="45.05582" lon="5.99052">
        <ele>923</ele>
        <time>2017-12-15T23:47:30Z</time>
      </trkpt>
      <trkpt lat="45.05565" lon="5.99132">
        <ele>922</ele>
        <time>2017-12-15T23:47:35Z</time>
      </trkpt>
      <trkpt lat="45.05556" lon="5.99182">
        <ele>921</ele>
        <time>2017-12-15T23:47:55Z</time>
      </trkpt>
      <trkpt lat="45.0555" lon="5.99203">
        <ele>918</ele>
        <time>2017-12-15T23:48:11Z</time>
      </trkpt>
      <trkpt lat="45.05537" lon="5.99234">
        <ele>913</ele>
        <time>2017-12-15T23:48:30Z</time>
      </trkpt>
      <trkpt lat="45.05538" lon="5.9925">
        <ele>913</ele>
        <time>2017-12-15T23:48:40Z</time>
      </trkpt>
      <trkpt lat="45.05541" lon="5.99256">
        <ele>908</ele>
        <time>2017-12-15T23:48:56Z</time>
      </trkpt>
      <trkpt lat="45.05547" lon="5.99263">
        <ele>910</ele>
        <time>2017-12-15T23:49:02Z</time>
      </trkpt>
      <trkpt lat="45.05565" lon="5.9927">
        <ele>915</ele>
        <time>2017-12-15T23:49:04Z</time>
      </trkpt>
      <trkpt lat="45.05579" lon="5.99278">
        <ele>916</ele>
        <time>2017-12-15T23:49:15Z</time>
      </trkpt>
      <trkpt lat="45.05602" lon="5.99306">
        <ele>934</ele>
        <time>2017-12-15T23:49:23Z</time>
      </trkpt>
      <trkpt lat="45.0562" lon="5.99325">
        <ele>936</ele>
        <time>2017-12-15T23:49:39Z</time>
      </trkpt>
      <trkpt lat="45.05661" lon="5.99354">
        <ele>927</ele>
        <time>2017-12-15T23:49:55Z</time>
      </trkpt>
      <trkpt lat="45.05713" lon="5.99395">
        <ele>935</ele>
        <time>2017-12-15T23:50:03Z</time>
      </trkpt>
      <trkpt lat="45.05729" lon="5.99404">
        <ele>933</ele>
        <time>2017-12-15T23:50:14Z</time>
      </trkpt>
      <trkpt lat="45.05767" lon="5.99418">
        <ele>917</ele>
        <time>2017-12-15T23:50:31Z</time>
      </trkpt>
      <trkpt lat="45.05791" lon="5.99425">
        <ele>917</ele>
        <time>2017-12-15T23:50:44Z</time>
      </trkpt>
      <trkpt lat="45.05811" lon="5.99424">
        <ele>924</ele>
        <time>2017-12-15T23:50:46Z</time>
      </trkpt>
      <trkpt lat="45.05824" lon="5.99424">
        <ele>932</ele>
        <time>2017-12-15T23:51:03Z</time>
      </trkpt>
      <trkpt lat="45.05831" lon="5.99427">
        <ele>933</ele>
        <time>2017-12-15T23:51:17Z</time>
      </trkpt>
      <trkpt lat="45.05835" lon="5.99431">
        <ele>943</ele>
        <time>2017-12-15T23:51:23Z</time>
      </trkpt>
      <trkpt lat="45.05844" lon="5.9945">
        <ele>939</ele>
        <time>2017-12-15T23:51:28Z</time>
      </trkpt>
      <trkpt lat="45.05853" lon="5.99469">
        <ele>933</ele>
        <time>2017-12-15T23:51:40Z</time>
      </trkpt>
      <trkpt lat="45.05862" lon="5.9948">
        <ele>932</ele>
        <time>2017-12-15T23:51:42Z</time>
      </trkpt>
      <trkpt lat="45.05884" lon="5.99498">
        <ele>936</ele>
        <time>2017-12-15T23:51:55Z</time>
      </trkpt>
      <trkpt lat="45.05895" lon="5.9951">
        <ele>908</ele>
        <time>2017-12-15T23:52:14Z</time>
      </trkpt>
      <trkpt lat="45.05924" lon="5.99548">
        <ele>916</ele>
        <time>2017-12-15T23:52:24Z</time>
      </trkpt>
      <trkpt lat="45.05931" lon="5.99553">
        <ele>915</ele>
        <time>2017-12-15T23:52:30Z</time>
      </trkpt>
      <trkpt lat="45.05941" lon="5.99556">
        <ele>916</ele>
        <time>2017-12-15T23:52:40Z</time>
      </trkpt>
      <trkpt lat="45.05949" lon="5.99556">
        <ele>918</ele>
        <time>2017-12-15T23:52:45Z</time>
      </trkpt>
      <trkpt lat="45.05963" lon="5.99552">
        <ele>923</ele>
        <time>2017-12-15T23:52:47Z</time>
      </trkpt>
      <trkpt lat="45.05973" lon="5.99549">
        <ele>926</ele>
        <time>2017-12-15T23:53:02Z</time>
      </trkpt>
      <trkpt lat="45.05983" lon="5.9955">
        <ele>927</ele>
        <time>2017-12-15T23:53:18Z</time>
      </trkpt>
      <trkpt lat="45.05991" lon="5.99554">
        <ele>926</ele>
        <time>2017-12-15T23:53:37Z</time>
      </trkpt>
      <trkpt lat="45.06009" lon="5.99568">
        <ele>933</ele>
        <time>2017-12-15T23:53:56Z</time>
      </trkpt>
      <trkpt lat="45.06046" lon="5.99602">
        <ele>894</ele>
        <time>2017-12-15T23:54:03Z</time>
      </trkpt>
      <trkpt lat="45.06061" lon="5.9961">
        <ele>894</ele>
        <time>2017-12-15T23:54:17Z</time>
      </trkpt>
      <trkpt lat="45.0608" lon="5.99611">
        <ele>898</ele>
        <time>2017-12-15T23:54:29Z</time>
      </trkpt>
      <trkpt lat="45.06094" lon="5.99618">
        <ele>901</ele>
        <time>2017-12-15T23:54:32Z</time>
      </trkpt>
      <trkpt lat="45.06104" lon="5.99623">
        <ele>898</ele>
        <time>2017-12-15T23:54:48Z</time>
      </trkpt>
      <trkpt lat="45.06111" lon="5.99622">
        <ele>898</ele>
        <time>2017-12-15T23:55:00Z</time>
      </trkpt>
      <trkpt lat="45.06163" lon="5.99611">
        <ele>908</ele>
        <time>2017-12-15T23:55:17Z</time>
      </trkpt>
      <trkpt lat="45.06175" lon="5.99613">
        <ele>915</ele>
        <time>2017-12-15T23:55:34Z</time>
      </trkpt>
      <trkpt lat="45.0619" lon="5.99622">
        <ele>910</ele>
        <time>2017-12-15T23:55:38Z</time>
      </trkpt>
      <trkpt lat="45.06207" lon="5.99632">
        <ele>908</ele>
        <time>2017-12-15T23:55:57Z</time>
      </trkpt>
      <trkpt lat="45.06226" lon="5.9965">
        <ele>904</ele>
        <time>2017-12-15T23:56:02Z</time>
      </trkpt>
      <trkpt lat="45.0625" lon="5.99678">
        <ele>887</ele>
        <time>2017-12-15T23:56:11Z</time>
      </trkpt>
      <trkpt lat="45.06288" lon="5.99711">
        <ele>880</ele>
        <time>2017-12-15T23:56:27Z</time>
      </trkpt>
      <trkpt lat="45.06348" lon="5.99746">
        <ele>884</ele>
        <time>2017-12-15T23:56:45Z</time>
      </trkpt>
      <trkpt lat="45.0638" lon="5.99755">
        <ele>856</ele>
        <time>2017-12-15T23:57:01Z</time>
      </trkpt>
      <trkpt lat="45.06393" lon="5.99755">
        <ele>860</ele>
        <time>2017-12-15T23:57:03Z</time>
      </trkpt>
      <trkpt lat="45.06419" lon="5.99743">
        <ele>892</ele>
        <time>2017-12-15T23:57:21Z</time>
      </trkpt>
      <trkpt lat="45.06427" lon="5.99743">
        <ele>897</ele>
        <time>2017-12-15T23:57:41Z</time>
      </trkpt>
      <trkpt lat="45.06434" lon="5.99746">
        <ele>900</ele>
        <time>2017-12-15T23:57:56Z</time>
      </trkpt>
      <trkpt lat="45.06456" lon="5.9977">
        <ele>869</ele>
        <time>2017-12-15T23:57:58Z</time>
      </trkpt>
      <trkpt lat="45.06489" lon="5.99802">
        <ele>862</ele>
        <time>2017-12-15T23:58:01Z</time>
      </trkpt>
      <trkpt lat="45.0651" lon="5.99815">
        <ele>872</ele>
        <time>2017-12-15T23:58:08Z</time>
      </trkpt>
      <trkpt lat="45.06544" lon="5.99838">
        <ele>846</ele>
        <time>2017-12-15T23:58:28Z</time>
      </trkpt>
      <trkpt lat="45.06559" lon="5.99852">
        <ele>848</ele>
        <time>2017-12-15T23:58:45Z</time>
      </trkpt>
      <trkpt lat="45.0658" lon="5.99879">
        <ele>839</ele>
        <time>2017-12-15T23:58:51Z</time>
      </trkpt>
      <trkpt lat="45.06595" lon="5.99898">
        <ele>852</ele>
        <time>2017-12-15T23:59:02Z</time>
      </trkpt>
      <trkpt lat="45.06616" lon="5.99915">
        <ele>858</ele>
        <time>2017-12-15T23:59:15Z</time>
      </trkpt>
      <trkpt lat="45.06661" lon="5.99938">
        <ele>830</ele>
        <time>2017-12-15T23:59:30Z</time>
      </trkpt>
      <trkpt lat="45.06682" lon="5.99942">
        <ele>840</ele>
        <time>2017-12-15T23:59:48Z</time>
      </trkpt>
      <trkpt lat="45.06697" lon="5.99937">
        <ele>842</ele>
        <time>2017-12-15T23:59:59Z</time>
      </trkpt>
      <trkpt lat="45.06712" lon="5.9993">
        <ele>848</ele>
        <time>2017-12-16T00:00:13Z</time>
      </trkpt>
      <trkpt lat="45.06725" lon="5.99932">
        <ele>853</ele>
        <time>2017-12-16T00:00:23Z</time>
      </trkpt>
      <trkpt lat="45.06776" lon="5.99956">
        <ele>856</ele>
        <time>2017-12-16T00:00:29Z</time>
      </trkpt>
      <trkpt lat="45.06802" lon="5.99972">
        <ele>852</ele>
        <time>2017-12-16T00:00:34Z</time>
      </trkpt>
      <trkpt lat="45.06817" lon="5.9999">
        <ele>847</ele>
        <time>2017-12-16T00:00:36Z</time>
      </trkpt>
      <trkpt lat="45.06832" lon="6.00014">
        <ele>821</ele>
        <time>2017-12-16T00:00:51Z</time>
      </trkpt>
      <trkpt lat="45.06845" lon="6.00029">
        <ele>821</ele>
        <time>2017-12-16T00:01:06Z</time>
      </trkpt>
      <trkpt lat="45.06864" lon="6.00042">
        <ele>817</ele>
        <time>2017-12-16T00:01:25Z</time>
      </trkpt>
      <trkpt lat="45.06882" lon="6.00045">
        <ele>817</ele>
        <time>2017-12-16T00:01:39Z</time>
      </trkpt>
      <trkpt lat="45.06888" lon="6.00042">
        <ele>817</ele>
        <time>2017-12-16T00:01:54Z</time>
      </trkpt>
      <trkpt lat="45.06895" lon="6.00034">
        <ele>820</ele>
        <time>2017-12-16T00:01:59Z</time>
      </trkpt>
      <trkpt lat="45.06915" lon="5.99998">
        <ele>840</ele>
        <time>2017-12-16T00:02:13Z</time>
      </trkpt>
      <trkpt lat="45.06924" lon="5.99991">
        <ele>844</ele>
        <time>2017-12-16T00:02:15Z</time>
      </trkpt>
      <trkpt lat="45.06932" lon="5.99989">
        <ele>846</ele>
        <time>2017-12-16T00:02:27Z</time>
      </trkpt>
      <trkpt lat="45.06942" lon="5.99991">
        <ele>847</ele>
        <time>2017-12-16T00:02:34Z</time>
      </trkpt>
      <trkpt lat="45.06962" lon="5.99994">
        <ele>846</ele>
        <time>2017-12-16T00:02:40Z</time>
      </trkpt>
      <trkpt lat="45.06979" lon="5.9999">
        <ele>843</ele>
        <time>2017-12-16T00:02:51Z</time>
      </trkpt>
      <trkpt lat="45.06983" lon="5.9999">
        <ele>842</ele>
        <time>2017-12-16T00:03:03Z</time>
      </trkpt>
      <trkpt lat="45.06988" lon="5.99994">
        <ele>839</ele>
        <time>2017-12-16T00:03:11Z</time>
      </trkpt>
      <trkpt lat="45.06994" lon="6.00004">
        <ele>829</ele>
        <time>2017-12-16T00:03:16Z</time>
      </trkpt>
      <trkpt lat="45.06995" lon="6.00018">
        <ele>827</ele>
        <time>2017-12-16T00:03:27Z</time>
      </trkpt>
      <trkpt lat="45.06993" lon="6.00029">
        <ele>826</ele>
        <time>2017-12-16T00:03:45Z</time>
      </trkpt>
      <trkpt lat="45.06971" lon="6.00065">
        <ele>823</ele>
        <time>2017-12-16T00:03:54Z</time>
      </trkpt>
      <trkpt lat="45.06965" lon="6.00094">
        <ele>810</ele>
        <time>2017-12-16T00:04:02Z</time>
      </trkpt>
      <trkpt lat="45.0696" lon="6.00133">
        <ele>806</ele>
        <time>2017-12-16T00:04:12Z</time>
      </trkpt>
      <trkpt lat="45.0696" lon="6.00167">
        <ele>791</ele>
        <time>2017-12-16T00:04:23Z</time>
      </trkpt>
      <trkpt lat="45.06964" lon="6.00196">
        <ele>788</ele>
        <time>2017-12-16T00:04:41Z</time>
      </trkpt>
      <trkpt lat="45.06967" lon="6.00204">
        <ele>787</ele>
        <time>2017-12-16T00:04:47Z</time>
      </trkpt>
      <trkpt lat="45.06973" lon="6.0021">
        <ele>787</ele>
        <time>2017-12-16T00:04:56Z</time>
      </trkpt>
      <trkpt lat="45.06979" lon="6.00217">
        <ele>785</ele>
        <time>2017-12-16T00:05:11Z</time>
      </trkpt>
      <trkpt lat="45.06988" lon="6.00222">
        <ele>785</ele>
        <time>2017-12-16T00:05:25Z</time>
      </trkpt>
      <trkpt lat="45.07017" lon="6.00227">
        <ele>808</ele>
        <time>2017-12-16T00:05:41Z</time>
      </trkpt>
      <trkpt lat="45.0704" lon="6.00231">
        <ele>816</ele>
        <time>2017-12-16T00:05:46Z</time>
      </trkpt>
      <trkpt lat="45.07052" lon="6.00238">
        <ele>820</ele>
        <time>2017-12-16T00:05:49Z</time>
      </trkpt>
      <trkpt lat="45.07069" lon="6.00263">
        <ele>804</ele>
        <time>2017-12-16T00:05:56Z</time>
      </trkpt>
      <trkpt lat="45.07092" lon="6.00304">
        <ele>820</ele>
        <time>2017-12-16T00:06:04Z</time>
      </trkpt>
      <trkpt lat="45.07126" lon="6.00349">
        <ele>808</ele>
        <time>2017-12-16T00:06:09Z</time>
      </trkpt>
      <trkpt lat="45.07136" lon="6.00374">
        <ele>808</ele>
        <time>2017-12-16T00:06:26Z</time>
      </trkpt>
      <trkpt lat="45.07141" lon="6.00392">
        <ele>808</ele>
        <time>2017-12-16T00:06:36Z</time>
      </trkpt>
      <trkpt lat="45.0714" lon="6.00425">
        <ele>794</ele>
        <time>2017-12-16T00:06:47Z</time>
      </trkpt>
      <trkpt lat="45.07137" lon="6.00464">
        <ele>786</ele>
        <time>2017-12-16T00:06:57Z</time>
      </trkpt>
      <trkpt lat="45.07139" lon="6.00473">
        <ele>786</ele>
        <time>2017-12-16T00:07:04Z</time>
      </trkpt>
      <trkpt lat="45.07156" lon="6.00508">
        <ele>782</ele>
        <time>2017-12-16T00:07:09Z</time>
      </trkpt>
      <trkpt lat="45.07166" lon="6.00535">
        <ele>777</ele>
        <time>2017-12-16T00:07:16Z</time>
      </trkpt>
      <trkpt lat="45.07176" lon="6.00579">
        <ele>791</ele>
        <time>2017-12-16T00:07:35Z</time>
      </trkpt>
      <trkpt lat="45.0719" lon="6.00642">
        <ele>797</ele>
        <time>2017-12-16T00:07:52Z</time>
      </trkpt>
      <trkpt lat="45.07187" lon="6.00667">
        <ele>787</ele>
        <time>2017-12-16T00:08:05Z</time>
      </trkpt>
      <trkpt lat="45.07165" lon="6.0071">
        <ele>765</ele>
        <time>2017-12-16T00:08:07Z</time>
      </trkpt>
      <trkpt lat="45.07161" lon="6.0073">
        <ele>766</ele>
        <time>2017-12-16T00:08:12Z</time>
      </trkpt>
      <trkpt lat="45.07164" lon="6.00765">
        <ele>764</ele>
        <time>2017-12-16T00:08:16Z</time>
      </trkpt>
      <trkpt lat="45.07197" lon="6.00903">
        <ele>758</ele>
        <time>2017-12-16T00:08:34Z</time>
      </trkpt>
      <trkpt lat="45.072" lon="6.00949">
        <ele>745</ele>
        <time>2017-12-16T00:08:54Z</time>
      </trkpt>
      <trkpt lat="45.072" lon="6.00992">
        <ele>742</ele>
        <time>2017-12-16T00:08:59Z</time>
      </trkpt>
      <trkpt lat="45.07208" lon="6.01034">
        <ele>735</ele>
        <time>2017-12-16T00:09:14Z</time>
      </trkpt>
      <trkpt lat="45.0723" lon="6.01098">
        <ele>732</ele>
        <time>2017-12-16T00:09:21Z</time>
      </trkpt>
      <trkpt lat="45.07355" lon="6.01443">
        <ele>728</ele>
        <time>2017-12-16T00:09:24Z</time>
      </trkpt>
      <trkpt lat="45.07364" lon="6.01459">
        <ele>728</ele>
        <time>2017-12-16T00:09:33Z</time>
      </trkpt>
      <trkpt lat="45.07378" lon="6.01484">
        <ele>728</ele>
        <time>2017-12-16T00:09:37Z</time>
      </trkpt>
      <trkpt lat="45.07387" lon="6.01512">
        <ele>727</ele>
        <time>2017-12-16T00:09:48Z</time>
      </trkpt>
      <trkpt lat="45.07388" lon="6.01531">
        <ele>728</ele>
        <time>2017-12-16T00:10:05Z</time>
      </trkpt>
      <trkpt lat="45.07383" lon="6.01552">
        <ele>728</ele>
        <time>2017-12-16T00:10:25Z</time>
      </trkpt>
      <trkpt lat="45.07368" lon="6.01573">
        <ele>728</ele>
        <time>2017-12-16T00:10:28Z</time>
      </trkpt>
      <trkpt lat="45.07359" lon="6.01581">
        <ele>728</ele>
        <time>2017-12-16T00:10:35Z</time>
      </trkpt>
      <trkpt lat="45.07312" lon="6.01613">
        <ele>730</ele>
        <time>2017-12-16T00:10:39Z</time>
      </trkpt>
      <trkpt lat="45.07272" lon="6.01652">
        <ele>731</ele>
        <time>2017-12-16T00:10:50Z</time>
      </trkpt>
      <trkpt lat="45.07252" lon="6.01672">
        <ele>730</ele>
        <time>2017-12-16T00:10:56Z</time>
      </trkpt>
      <trkpt lat="45.07214" lon="6.01705">
        <ele>733</ele>
        <time>2017-12-16T00:11:04Z</time>
      </trkpt>
      <trkpt lat="45.07205" lon="6.01714">
        <ele>734</ele>
        <time>2017-12-16T00:11:18Z</time>
      </trkpt>
      <trkpt lat="45.07199" lon="6.01727">
        <ele>734</ele>
        <time>2017-12-16T00:11:32Z</time>
      </trkpt>
      <trkpt lat="45.07198" lon="6.01743">
        <ele>734</ele>
        <time>2017-12-16T00:11:40Z</time>
      </trkpt>
      <trkpt lat="45.07198" lon="6.01754">
        <ele>732</ele>
        <time>2017-12-16T00:11:46Z</time>
      </trkpt>
      <trkpt lat="45.07203" lon="6.01778">
        <ele>730</ele>
        <time>2017-12-16T00:11:54Z</time>
      </trkpt>
      <trkpt lat="45.07209" lon="6.01792">
        <ele>729</ele>
        <time>2017-12-16T00:12:00Z</time>
      </trkpt>
      <trkpt lat="45.07166" lon="6.0183">
        <ele>738</ele>
        <time>2017-12-16T00:12:16Z</time>
      </trkpt>
      <trkpt lat="45.07086" lon="6.01892">
        <ele>744</ele>
        <time>2017-12-16T00:12:28Z</time>
      </trkpt>
      <trkpt lat="45.07062" lon="6.01912">
        <ele>750</ele>
        <time>2017-12-16T00:12:47Z</time>
      </trkpt>
      <trkpt lat="45.06951" lon="6.01996">
        <ele>725</ele>
        <time>2017-12-16T00:12:52Z</time>
      </trkpt>
      <trkpt lat="45.06938" lon="6.02009">
        <ele>719</ele>
        <time>2017-12-16T00:12:55Z</time>
      </trkpt>
      <trkpt lat="45.06806" lon="6.02109">
        <ele>715</ele>
        <time>2017-12-16T00:13:13Z</time>
      </trkpt>
      <trkpt lat="45.06641" lon="6.02239">
        <ele>718</ele>
        <time>2017-12-16T00:13:25Z</time>
      </trkpt>
      <trkpt lat="45.06449" lon="6.02382">
        <ele>719</ele>
        <time>2017-12-16T00:13:39Z</time>
      </trkpt>
      <trkpt lat="45.06406" lon="6.02417">
        <ele>719</ele>
        <time>2017-12-16T00:13:44Z</time>
      </trkpt>
      <trkpt lat="45.06383" lon="6.02432">
        <ele>719</ele>
        <time>2017-12-16T00:13:47Z</time>
      </trkpt>
      <trkpt lat="45.06367" lon="6.02439">
        <ele>719</ele>
        <time>2017-12-16T00:13:58Z</time>
      </trkpt>
      <trkpt lat="45.06365" lon="6.02439">
        <ele>719</ele>
        <time>2017-12-16T00:14:03Z</time>
      </trkpt>
      <trkpt lat="45.06361" lon="6.02438">
        <ele>719</ele>
        <time>2017-12-16T00:14:08Z</time>
      </trkpt>
      <trkpt lat="45.06355" lon="6.02438">
        <ele>719</ele>
        <time>2017-12-16T00:14:28Z</time>
      </trkpt>
      <trkpt lat="45.06346" lon="6.02446">
        <ele>719</ele>
        <time>2017-12-16T00:14:31Z</time>
      </trkpt>
      <trkpt lat="45.06342" lon="6.02454">
        <ele>719</ele>
        <time>2017-12-16T00:14:40Z</time>
      </trkpt>
      <trkpt lat="45.0634" lon="6.02462">
        <ele>719</ele>
        <time>2017-12-16T00:14:49Z</time>
      </trkpt>
      <trkpt lat="45.06335" lon="6.02468">
        <ele>719</ele>
        <time>2017-12-16T00:14:55Z</time>
      </trkpt>
      <trkpt lat="45.0632" lon="6.02479">
        <ele>718</ele>
        <time>2017-12-16T00:15:03Z</time>
      </trkpt>
      <trkpt lat="45.06298" lon="6.02495">
        <ele>718</ele>
        <time>2017-12-16T00:15:19Z</time>
      </trkpt>
      <trkpt lat="45.06287" lon="6.02502">
        <ele>719</ele>
        <time>2017-12-16T00:15:27Z</time>
      </trkpt>
      <trkpt lat="45.06282" lon="6.02509">
        <ele>719</ele>
        <time>2017-12-16T00:15:35Z</time>
      </trkpt>
      <trkpt lat="45.06224" lon="6.02551">
        <ele>718</ele>
        <time>2017-12-16T00:15:38Z</time>
      </trkpt>
      <trkpt lat="45.06112" lon="6.02637">
        <ele>716</ele>
        <time>2017-12-16T00:15:46Z</time>
      </trkpt>
      <trkpt lat="45.05982" lon="6.02736">
        <ele>719</ele>
        <time>2017-12-16T00:15:49Z</time>
      </trkpt>
      <trkpt lat="45.0582" lon="6.02863">
        <ele>722</ele>
        <time>2017-12-16T00:15:57Z</time>
      </trkpt>
      <trkpt lat="45.05734" lon="6.02923">
        <ele>721</ele>
        <time>2017-12-16T00:16:10Z</time>
      </trkpt>
      <trkpt lat="45.05707" lon="6.02939">
        <ele>722</ele>
        <time>2017-12-16T00:16:18Z</time>
      </trkpt>
      <trkpt lat="45.05663" lon="6.02953">
        <ele>722</ele>
        <time>2017-12-16T00:16:35Z</time>
      </trkpt>
      <trkpt lat="45.05597" lon="6.02965">
        <ele>722</ele>
        <time>2017-12-16T00:16:44Z</time>
      </trkpt>
      <trkpt lat="45.05566" lon="6.02969">
        <ele>723</ele>
        <time>2017-12-16T00:16:55Z</time>
      </trkpt>
      <trkpt lat="45.05553" lon="6.0297">
        <ele>724</ele>
        <time>2017-12-16T00:17:08Z</time>
      </trkpt>
      <trkpt lat="45.05516" lon="6.02981">
        <ele>725</ele>
        <time>2017-12-16T00:17:20Z</time>
      </trkpt>
      <trkpt lat="45.05511" lon="6.02985">
        <ele>725</ele>
        <time>2017-12-16T00:17:33Z</time>
      </trkpt>
      <trkpt lat="45.05501" lon="6.02986">
        <ele>725</ele>
        <time>2017-12-16T00:17:37Z</time>
      </trkpt>
    </trkseg>
  </trk>
</gpx>